<?xml version="1.0" encoding="UTF-8" standalone="no" ?>
<gpx xmlns="http://www.topografix.com/GPX/1/1" xmlns:xsi="http://www.w3.org/2001/XMLSchema-instance" xsi:schemaLocation="http://www.topografix.com/GPX/1/1 http://www.topografix.com/GPX/1/1/gpx.xsd" version="1.1" creator="VisuGPX - https://www.visugpx.com">
  <metadata>
    <name>Nebian, cabrières, les Crozes</name>
    <desc><![CDATA[3 eme sortie de reprise]]></desc>
  </metadata>
  <trk>
    <name><![CDATA[Nebian, cabrières, les Crozes_1]]></name>
    <trkseg>
      <trkpt lat="43.60951" lon="3.4357">
        <ele>169</ele>
        <time>2016-02-14T12:16:59Z</time>
      </trkpt>
      <trkpt lat="43.60953" lon="3.43568">
        <ele>168.5</ele>
        <time>2016-02-14T12:17:13Z</time>
      </trkpt>
      <trkpt lat="43.60953" lon="3.43568">
        <ele>169</ele>
        <time>2016-02-14T12:17:18Z</time>
      </trkpt>
      <trkpt lat="43.60954" lon="3.43567">
        <ele>167.5</ele>
        <time>2016-02-14T12:17:19Z</time>
      </trkpt>
      <trkpt lat="43.60954" lon="3.43564">
        <ele>169</ele>
        <time>2016-02-14T12:17:20Z</time>
      </trkpt>
      <trkpt lat="43.60954" lon="3.43563">
        <ele>169</ele>
        <time>2016-02-14T12:17:21Z</time>
      </trkpt>
      <trkpt lat="43.60953" lon="3.43561">
        <ele>168.5</ele>
        <time>2016-02-14T12:17:22Z</time>
      </trkpt>
      <trkpt lat="43.60952" lon="3.43559">
        <ele>168.5</ele>
        <time>2016-02-14T12:17:23Z</time>
      </trkpt>
      <trkpt lat="43.6095" lon="3.43558">
        <ele>168</ele>
        <time>2016-02-14T12:17:24Z</time>
      </trkpt>
      <trkpt lat="43.60947" lon="3.43557">
        <ele>167.5</ele>
        <time>2016-02-14T12:17:25Z</time>
      </trkpt>
      <trkpt lat="43.60943" lon="3.43558">
        <ele>168</ele>
        <time>2016-02-14T12:17:26Z</time>
      </trkpt>
      <trkpt lat="43.60939" lon="3.43559">
        <ele>168</ele>
        <time>2016-02-14T12:17:27Z</time>
      </trkpt>
      <trkpt lat="43.60935" lon="3.43559">
        <ele>168.5</ele>
        <time>2016-02-14T12:17:28Z</time>
      </trkpt>
      <trkpt lat="43.6093" lon="3.43559">
        <ele>168.5</ele>
        <time>2016-02-14T12:17:29Z</time>
      </trkpt>
      <trkpt lat="43.60925" lon="3.43558">
        <ele>168.5</ele>
        <time>2016-02-14T12:17:30Z</time>
      </trkpt>
      <trkpt lat="43.6092" lon="3.43557">
        <ele>168.5</ele>
        <time>2016-02-14T12:17:31Z</time>
      </trkpt>
      <trkpt lat="43.60914" lon="3.43556">
        <ele>168.5</ele>
        <time>2016-02-14T12:17:32Z</time>
      </trkpt>
      <trkpt lat="43.60909" lon="3.43556">
        <ele>167.5</ele>
        <time>2016-02-14T12:17:33Z</time>
      </trkpt>
      <trkpt lat="43.60903" lon="3.43553">
        <ele>167.5</ele>
        <time>2016-02-14T12:17:34Z</time>
      </trkpt>
      <trkpt lat="43.609" lon="3.43548">
        <ele>166.5</ele>
        <time>2016-02-14T12:17:35Z</time>
      </trkpt>
      <trkpt lat="43.60899" lon="3.43541">
        <ele>166</ele>
        <time>2016-02-14T12:17:36Z</time>
      </trkpt>
      <trkpt lat="43.60898" lon="3.43534">
        <ele>166</ele>
        <time>2016-02-14T12:17:37Z</time>
      </trkpt>
      <trkpt lat="43.60898" lon="3.43528">
        <ele>166</ele>
        <time>2016-02-14T12:17:38Z</time>
      </trkpt>
      <trkpt lat="43.60896" lon="3.43522">
        <ele>166.5</ele>
        <time>2016-02-14T12:17:39Z</time>
      </trkpt>
      <trkpt lat="43.60896" lon="3.43517">
        <ele>166.5</ele>
        <time>2016-02-14T12:17:40Z</time>
      </trkpt>
      <trkpt lat="43.60895" lon="3.4351">
        <ele>166.5</ele>
        <time>2016-02-14T12:17:41Z</time>
      </trkpt>
      <trkpt lat="43.60892" lon="3.43505">
        <ele>166.5</ele>
        <time>2016-02-14T12:17:42Z</time>
      </trkpt>
      <trkpt lat="43.6089" lon="3.43499">
        <ele>167</ele>
        <time>2016-02-14T12:17:43Z</time>
      </trkpt>
      <trkpt lat="43.60889" lon="3.43494">
        <ele>167.5</ele>
        <time>2016-02-14T12:17:44Z</time>
      </trkpt>
      <trkpt lat="43.60887" lon="3.43489">
        <ele>167</ele>
        <time>2016-02-14T12:17:45Z</time>
      </trkpt>
      <trkpt lat="43.60886" lon="3.43484">
        <ele>167.5</ele>
        <time>2016-02-14T12:17:46Z</time>
      </trkpt>
      <trkpt lat="43.60883" lon="3.43479">
        <ele>168</ele>
        <time>2016-02-14T12:17:47Z</time>
      </trkpt>
      <trkpt lat="43.60881" lon="3.43474">
        <ele>168.5</ele>
        <time>2016-02-14T12:17:48Z</time>
      </trkpt>
      <trkpt lat="43.60878" lon="3.4347">
        <ele>168.5</ele>
        <time>2016-02-14T12:17:49Z</time>
      </trkpt>
      <trkpt lat="43.60875" lon="3.43466">
        <ele>169</ele>
        <time>2016-02-14T12:17:50Z</time>
      </trkpt>
      <trkpt lat="43.60872" lon="3.43461">
        <ele>169.5</ele>
        <time>2016-02-14T12:17:51Z</time>
      </trkpt>
      <trkpt lat="43.6087" lon="3.43456">
        <ele>170</ele>
        <time>2016-02-14T12:17:52Z</time>
      </trkpt>
      <trkpt lat="43.6087" lon="3.43451">
        <ele>170</ele>
        <time>2016-02-14T12:17:53Z</time>
      </trkpt>
      <trkpt lat="43.60869" lon="3.43446">
        <ele>171</ele>
        <time>2016-02-14T12:17:54Z</time>
      </trkpt>
      <trkpt lat="43.60869" lon="3.43441">
        <ele>171.5</ele>
        <time>2016-02-14T12:17:55Z</time>
      </trkpt>
      <trkpt lat="43.6087" lon="3.43437">
        <ele>171.5</ele>
        <time>2016-02-14T12:17:56Z</time>
      </trkpt>
      <trkpt lat="43.6087" lon="3.43432">
        <ele>171</ele>
        <time>2016-02-14T12:17:57Z</time>
      </trkpt>
      <trkpt lat="43.6087" lon="3.43427">
        <ele>171.5</ele>
        <time>2016-02-14T12:17:58Z</time>
      </trkpt>
      <trkpt lat="43.6087" lon="3.43422">
        <ele>171.5</ele>
        <time>2016-02-14T12:17:59Z</time>
      </trkpt>
      <trkpt lat="43.6087" lon="3.43418">
        <ele>171.5</ele>
        <time>2016-02-14T12:18:00Z</time>
      </trkpt>
      <trkpt lat="43.6087" lon="3.43414">
        <ele>172</ele>
        <time>2016-02-14T12:18:01Z</time>
      </trkpt>
      <trkpt lat="43.60871" lon="3.4341">
        <ele>172</ele>
        <time>2016-02-14T12:18:02Z</time>
      </trkpt>
      <trkpt lat="43.60871" lon="3.43406">
        <ele>172</ele>
        <time>2016-02-14T12:18:03Z</time>
      </trkpt>
      <trkpt lat="43.6087" lon="3.43402">
        <ele>171</ele>
        <time>2016-02-14T12:18:04Z</time>
      </trkpt>
      <trkpt lat="43.6087" lon="3.43399">
        <ele>171</ele>
        <time>2016-02-14T12:18:05Z</time>
      </trkpt>
      <trkpt lat="43.60868" lon="3.43396">
        <ele>171</ele>
        <time>2016-02-14T12:18:06Z</time>
      </trkpt>
      <trkpt lat="43.60868" lon="3.43392">
        <ele>170.5</ele>
        <time>2016-02-14T12:18:07Z</time>
      </trkpt>
      <trkpt lat="43.60867" lon="3.43388">
        <ele>171</ele>
        <time>2016-02-14T12:18:08Z</time>
      </trkpt>
      <trkpt lat="43.60866" lon="3.43384">
        <ele>171.5</ele>
        <time>2016-02-14T12:18:09Z</time>
      </trkpt>
      <trkpt lat="43.60865" lon="3.4338">
        <ele>172.5</ele>
        <time>2016-02-14T12:18:10Z</time>
      </trkpt>
      <trkpt lat="43.60864" lon="3.43376">
        <ele>172.5</ele>
        <time>2016-02-14T12:18:11Z</time>
      </trkpt>
      <trkpt lat="43.60863" lon="3.43372">
        <ele>172.5</ele>
        <time>2016-02-14T12:18:12Z</time>
      </trkpt>
      <trkpt lat="43.60862" lon="3.43369">
        <ele>173</ele>
        <time>2016-02-14T12:18:13Z</time>
      </trkpt>
      <trkpt lat="43.60861" lon="3.43365">
        <ele>173</ele>
        <time>2016-02-14T12:18:14Z</time>
      </trkpt>
      <trkpt lat="43.60861" lon="3.43361">
        <ele>173</ele>
        <time>2016-02-14T12:18:15Z</time>
      </trkpt>
      <trkpt lat="43.6086" lon="3.43358">
        <ele>173.5</ele>
        <time>2016-02-14T12:18:16Z</time>
      </trkpt>
      <trkpt lat="43.60859" lon="3.43354">
        <ele>173.5</ele>
        <time>2016-02-14T12:18:17Z</time>
      </trkpt>
      <trkpt lat="43.60858" lon="3.4335">
        <ele>174</ele>
        <time>2016-02-14T12:18:18Z</time>
      </trkpt>
      <trkpt lat="43.60857" lon="3.43347">
        <ele>174.5</ele>
        <time>2016-02-14T12:18:19Z</time>
      </trkpt>
      <trkpt lat="43.60856" lon="3.43344">
        <ele>174.5</ele>
        <time>2016-02-14T12:18:20Z</time>
      </trkpt>
      <trkpt lat="43.60854" lon="3.43341">
        <ele>176.5</ele>
        <time>2016-02-14T12:18:21Z</time>
      </trkpt>
      <trkpt lat="43.60853" lon="3.43338">
        <ele>176.5</ele>
        <time>2016-02-14T12:18:22Z</time>
      </trkpt>
      <trkpt lat="43.60852" lon="3.43335">
        <ele>177.5</ele>
        <time>2016-02-14T12:18:23Z</time>
      </trkpt>
      <trkpt lat="43.60851" lon="3.43332">
        <ele>177.5</ele>
        <time>2016-02-14T12:18:24Z</time>
      </trkpt>
      <trkpt lat="43.60851" lon="3.43329">
        <ele>178</ele>
        <time>2016-02-14T12:18:25Z</time>
      </trkpt>
      <trkpt lat="43.6085" lon="3.43326">
        <ele>178.5</ele>
        <time>2016-02-14T12:18:26Z</time>
      </trkpt>
      <trkpt lat="43.60849" lon="3.43323">
        <ele>179</ele>
        <time>2016-02-14T12:18:27Z</time>
      </trkpt>
      <trkpt lat="43.60849" lon="3.4332">
        <ele>179.5</ele>
        <time>2016-02-14T12:18:28Z</time>
      </trkpt>
      <trkpt lat="43.60849" lon="3.43316">
        <ele>179</ele>
        <time>2016-02-14T12:18:29Z</time>
      </trkpt>
      <trkpt lat="43.60849" lon="3.43312">
        <ele>178.5</ele>
        <time>2016-02-14T12:18:30Z</time>
      </trkpt>
      <trkpt lat="43.60849" lon="3.43309">
        <ele>178.5</ele>
        <time>2016-02-14T12:18:31Z</time>
      </trkpt>
      <trkpt lat="43.6085" lon="3.43305">
        <ele>178</ele>
        <time>2016-02-14T12:18:32Z</time>
      </trkpt>
      <trkpt lat="43.6085" lon="3.43302">
        <ele>178</ele>
        <time>2016-02-14T12:18:33Z</time>
      </trkpt>
      <trkpt lat="43.60851" lon="3.43299">
        <ele>178</ele>
        <time>2016-02-14T12:18:34Z</time>
      </trkpt>
      <trkpt lat="43.60851" lon="3.43296">
        <ele>177</ele>
        <time>2016-02-14T12:18:35Z</time>
      </trkpt>
      <trkpt lat="43.60852" lon="3.43293">
        <ele>177</ele>
        <time>2016-02-14T12:18:36Z</time>
      </trkpt>
      <trkpt lat="43.60854" lon="3.4329">
        <ele>177</ele>
        <time>2016-02-14T12:18:37Z</time>
      </trkpt>
      <trkpt lat="43.60855" lon="3.43288">
        <ele>177</ele>
        <time>2016-02-14T12:18:38Z</time>
      </trkpt>
      <trkpt lat="43.60857" lon="3.43285">
        <ele>177</ele>
        <time>2016-02-14T12:18:39Z</time>
      </trkpt>
      <trkpt lat="43.60858" lon="3.43282">
        <ele>177</ele>
        <time>2016-02-14T12:18:40Z</time>
      </trkpt>
      <trkpt lat="43.60859" lon="3.43279">
        <ele>176.5</ele>
        <time>2016-02-14T12:18:41Z</time>
      </trkpt>
      <trkpt lat="43.60858" lon="3.43276">
        <ele>177</ele>
        <time>2016-02-14T12:18:42Z</time>
      </trkpt>
      <trkpt lat="43.60858" lon="3.43272">
        <ele>177</ele>
        <time>2016-02-14T12:18:43Z</time>
      </trkpt>
      <trkpt lat="43.60858" lon="3.43269">
        <ele>176.5</ele>
        <time>2016-02-14T12:18:44Z</time>
      </trkpt>
      <trkpt lat="43.60859" lon="3.43266">
        <ele>176.5</ele>
        <time>2016-02-14T12:18:45Z</time>
      </trkpt>
      <trkpt lat="43.60861" lon="3.43263">
        <ele>177</ele>
        <time>2016-02-14T12:18:46Z</time>
      </trkpt>
      <trkpt lat="43.60862" lon="3.43262">
        <ele>177</ele>
        <time>2016-02-14T12:18:47Z</time>
      </trkpt>
      <trkpt lat="43.60865" lon="3.43261">
        <ele>177</ele>
        <time>2016-02-14T12:18:48Z</time>
      </trkpt>
      <trkpt lat="43.60867" lon="3.43259">
        <ele>177</ele>
        <time>2016-02-14T12:18:49Z</time>
      </trkpt>
      <trkpt lat="43.60868" lon="3.43257">
        <ele>176.5</ele>
        <time>2016-02-14T12:18:50Z</time>
      </trkpt>
      <trkpt lat="43.60869" lon="3.43254">
        <ele>177</ele>
        <time>2016-02-14T12:18:51Z</time>
      </trkpt>
      <trkpt lat="43.60869" lon="3.43251">
        <ele>176.5</ele>
        <time>2016-02-14T12:18:52Z</time>
      </trkpt>
      <trkpt lat="43.60869" lon="3.43248">
        <ele>176.5</ele>
        <time>2016-02-14T12:18:53Z</time>
      </trkpt>
      <trkpt lat="43.6087" lon="3.43245">
        <ele>177.5</ele>
        <time>2016-02-14T12:18:54Z</time>
      </trkpt>
      <trkpt lat="43.60872" lon="3.43244">
        <ele>177.5</ele>
        <time>2016-02-14T12:18:55Z</time>
      </trkpt>
      <trkpt lat="43.60874" lon="3.43243">
        <ele>177</ele>
        <time>2016-02-14T12:18:56Z</time>
      </trkpt>
      <trkpt lat="43.60875" lon="3.4324">
        <ele>177</ele>
        <time>2016-02-14T12:18:57Z</time>
      </trkpt>
      <trkpt lat="43.60876" lon="3.43238">
        <ele>177.5</ele>
        <time>2016-02-14T12:18:58Z</time>
      </trkpt>
      <trkpt lat="43.60877" lon="3.43236">
        <ele>177.5</ele>
        <time>2016-02-14T12:18:59Z</time>
      </trkpt>
      <trkpt lat="43.60876" lon="3.43235">
        <ele>177</ele>
        <time>2016-02-14T12:19:00Z</time>
      </trkpt>
      <trkpt lat="43.60874" lon="3.43234">
        <ele>177.5</ele>
        <time>2016-02-14T12:19:01Z</time>
      </trkpt>
      <trkpt lat="43.60872" lon="3.43233">
        <ele>178</ele>
        <time>2016-02-14T12:19:02Z</time>
      </trkpt>
      <trkpt lat="43.60868" lon="3.43231">
        <ele>179</ele>
        <time>2016-02-14T12:19:03Z</time>
      </trkpt>
      <trkpt lat="43.60864" lon="3.43229">
        <ele>180.5</ele>
        <time>2016-02-14T12:19:04Z</time>
      </trkpt>
      <trkpt lat="43.60861" lon="3.43228">
        <ele>181</ele>
        <time>2016-02-14T12:19:05Z</time>
      </trkpt>
      <trkpt lat="43.60858" lon="3.43226">
        <ele>181.5</ele>
        <time>2016-02-14T12:19:06Z</time>
      </trkpt>
      <trkpt lat="43.60855" lon="3.43223">
        <ele>181.5</ele>
        <time>2016-02-14T12:19:07Z</time>
      </trkpt>
      <trkpt lat="43.60851" lon="3.43221">
        <ele>182</ele>
        <time>2016-02-14T12:19:08Z</time>
      </trkpt>
      <trkpt lat="43.60848" lon="3.43219">
        <ele>182</ele>
        <time>2016-02-14T12:19:09Z</time>
      </trkpt>
      <trkpt lat="43.60844" lon="3.43217">
        <ele>182.5</ele>
        <time>2016-02-14T12:19:10Z</time>
      </trkpt>
      <trkpt lat="43.60841" lon="3.43214">
        <ele>180.5</ele>
        <time>2016-02-14T12:19:11Z</time>
      </trkpt>
      <trkpt lat="43.60838" lon="3.43212">
        <ele>180.5</ele>
        <time>2016-02-14T12:19:12Z</time>
      </trkpt>
      <trkpt lat="43.60834" lon="3.4321">
        <ele>180.5</ele>
        <time>2016-02-14T12:19:13Z</time>
      </trkpt>
      <trkpt lat="43.6083" lon="3.43207">
        <ele>180</ele>
        <time>2016-02-14T12:19:14Z</time>
      </trkpt>
      <trkpt lat="43.60826" lon="3.43205">
        <ele>180</ele>
        <time>2016-02-14T12:19:15Z</time>
      </trkpt>
      <trkpt lat="43.60822" lon="3.43202">
        <ele>180</ele>
        <time>2016-02-14T12:19:16Z</time>
      </trkpt>
      <trkpt lat="43.60818" lon="3.43199">
        <ele>180</ele>
        <time>2016-02-14T12:19:17Z</time>
      </trkpt>
      <trkpt lat="43.60814" lon="3.43196">
        <ele>180</ele>
        <time>2016-02-14T12:19:18Z</time>
      </trkpt>
      <trkpt lat="43.6081" lon="3.43194">
        <ele>180</ele>
        <time>2016-02-14T12:19:19Z</time>
      </trkpt>
      <trkpt lat="43.60805" lon="3.43191">
        <ele>180.5</ele>
        <time>2016-02-14T12:19:20Z</time>
      </trkpt>
      <trkpt lat="43.608" lon="3.43189">
        <ele>180.5</ele>
        <time>2016-02-14T12:19:21Z</time>
      </trkpt>
      <trkpt lat="43.60796" lon="3.43185">
        <ele>181</ele>
        <time>2016-02-14T12:19:22Z</time>
      </trkpt>
      <trkpt lat="43.60792" lon="3.43181">
        <ele>180.5</ele>
        <time>2016-02-14T12:19:23Z</time>
      </trkpt>
      <trkpt lat="43.6079" lon="3.43176">
        <ele>180.5</ele>
        <time>2016-02-14T12:19:24Z</time>
      </trkpt>
      <trkpt lat="43.60789" lon="3.4317">
        <ele>180.5</ele>
        <time>2016-02-14T12:19:25Z</time>
      </trkpt>
      <trkpt lat="43.60791" lon="3.43166">
        <ele>178.5</ele>
        <time>2016-02-14T12:19:26Z</time>
      </trkpt>
      <trkpt lat="43.60793" lon="3.43162">
        <ele>178.5</ele>
        <time>2016-02-14T12:19:27Z</time>
      </trkpt>
      <trkpt lat="43.60796" lon="3.43162">
        <ele>177</ele>
        <time>2016-02-14T12:19:28Z</time>
      </trkpt>
      <trkpt lat="43.60798" lon="3.43161">
        <ele>177.5</ele>
        <time>2016-02-14T12:19:29Z</time>
      </trkpt>
      <trkpt lat="43.608" lon="3.4316">
        <ele>177.5</ele>
        <time>2016-02-14T12:19:30Z</time>
      </trkpt>
      <trkpt lat="43.608" lon="3.43158">
        <ele>177</ele>
        <time>2016-02-14T12:19:31Z</time>
      </trkpt>
      <trkpt lat="43.60801" lon="3.43157">
        <ele>175.5</ele>
        <time>2016-02-14T12:19:32Z</time>
      </trkpt>
      <trkpt lat="43.608" lon="3.43154">
        <ele>175</ele>
        <time>2016-02-14T12:19:33Z</time>
      </trkpt>
      <trkpt lat="43.60802" lon="3.4315">
        <ele>175</ele>
        <time>2016-02-14T12:19:34Z</time>
      </trkpt>
      <trkpt lat="43.60805" lon="3.4315">
        <ele>175</ele>
        <time>2016-02-14T12:19:35Z</time>
      </trkpt>
      <trkpt lat="43.60807" lon="3.43149">
        <ele>175.5</ele>
        <time>2016-02-14T12:19:36Z</time>
      </trkpt>
      <trkpt lat="43.60808" lon="3.43147">
        <ele>177.5</ele>
        <time>2016-02-14T12:19:37Z</time>
      </trkpt>
      <trkpt lat="43.6081" lon="3.43146">
        <ele>178</ele>
        <time>2016-02-14T12:19:38Z</time>
      </trkpt>
      <trkpt lat="43.6081" lon="3.43144">
        <ele>179.5</ele>
        <time>2016-02-14T12:19:39Z</time>
      </trkpt>
      <trkpt lat="43.60809" lon="3.43141">
        <ele>180</ele>
        <time>2016-02-14T12:19:40Z</time>
      </trkpt>
      <trkpt lat="43.60809" lon="3.43139">
        <ele>180</ele>
        <time>2016-02-14T12:19:41Z</time>
      </trkpt>
      <trkpt lat="43.60802" lon="3.43132">
        <ele>184.5</ele>
        <time>2016-02-14T12:19:43Z</time>
      </trkpt>
      <trkpt lat="43.60799" lon="3.43129">
        <ele>185</ele>
        <time>2016-02-14T12:19:44Z</time>
      </trkpt>
      <trkpt lat="43.60796" lon="3.43126">
        <ele>185</ele>
        <time>2016-02-14T12:19:45Z</time>
      </trkpt>
      <trkpt lat="43.60793" lon="3.43123">
        <ele>185.5</ele>
        <time>2016-02-14T12:19:46Z</time>
      </trkpt>
      <trkpt lat="43.60789" lon="3.43119">
        <ele>185</ele>
        <time>2016-02-14T12:19:47Z</time>
      </trkpt>
      <trkpt lat="43.60785" lon="3.43117">
        <ele>186</ele>
        <time>2016-02-14T12:19:48Z</time>
      </trkpt>
      <trkpt lat="43.60781" lon="3.43114">
        <ele>186</ele>
        <time>2016-02-14T12:19:49Z</time>
      </trkpt>
      <trkpt lat="43.60776" lon="3.43112">
        <ele>186</ele>
        <time>2016-02-14T12:19:50Z</time>
      </trkpt>
      <trkpt lat="43.60772" lon="3.43108">
        <ele>185</ele>
        <time>2016-02-14T12:19:51Z</time>
      </trkpt>
      <trkpt lat="43.60768" lon="3.43105">
        <ele>184.5</ele>
        <time>2016-02-14T12:19:52Z</time>
      </trkpt>
      <trkpt lat="43.60764" lon="3.43102">
        <ele>185</ele>
        <time>2016-02-14T12:19:53Z</time>
      </trkpt>
      <trkpt lat="43.60759" lon="3.43097">
        <ele>185</ele>
        <time>2016-02-14T12:19:54Z</time>
      </trkpt>
      <trkpt lat="43.60756" lon="3.43091">
        <ele>185</ele>
        <time>2016-02-14T12:19:55Z</time>
      </trkpt>
      <trkpt lat="43.60752" lon="3.43087">
        <ele>185</ele>
        <time>2016-02-14T12:19:56Z</time>
      </trkpt>
      <trkpt lat="43.60749" lon="3.43083">
        <ele>185</ele>
        <time>2016-02-14T12:19:57Z</time>
      </trkpt>
      <trkpt lat="43.60745" lon="3.43077">
        <ele>185</ele>
        <time>2016-02-14T12:19:58Z</time>
      </trkpt>
      <trkpt lat="43.60742" lon="3.4307">
        <ele>185</ele>
        <time>2016-02-14T12:19:59Z</time>
      </trkpt>
      <trkpt lat="43.60737" lon="3.43066">
        <ele>185</ele>
        <time>2016-02-14T12:20:00Z</time>
      </trkpt>
      <trkpt lat="43.60734" lon="3.43061">
        <ele>184.5</ele>
        <time>2016-02-14T12:20:01Z</time>
      </trkpt>
      <trkpt lat="43.6073" lon="3.43056">
        <ele>184.5</ele>
        <time>2016-02-14T12:20:02Z</time>
      </trkpt>
      <trkpt lat="43.60727" lon="3.43051">
        <ele>184.5</ele>
        <time>2016-02-14T12:20:03Z</time>
      </trkpt>
      <trkpt lat="43.60725" lon="3.43016">
        <ele>184</ele>
        <time>2016-02-14T12:20:07Z</time>
      </trkpt>
      <trkpt lat="43.6071" lon="3.43013">
        <ele>183.5</ele>
        <time>2016-02-14T12:20:09Z</time>
      </trkpt>
      <trkpt lat="43.60704" lon="3.43009">
        <ele>183.5</ele>
        <time>2016-02-14T12:20:11Z</time>
      </trkpt>
      <trkpt lat="43.60702" lon="3.43002">
        <ele>183.5</ele>
        <time>2016-02-14T12:20:14Z</time>
      </trkpt>
      <trkpt lat="43.60703" lon="3.4299">
        <ele>183.5</ele>
        <time>2016-02-14T12:20:16Z</time>
      </trkpt>
      <trkpt lat="43.60704" lon="3.42985">
        <ele>183</ele>
        <time>2016-02-14T12:20:17Z</time>
      </trkpt>
      <trkpt lat="43.60702" lon="3.42978">
        <ele>183</ele>
        <time>2016-02-14T12:20:18Z</time>
      </trkpt>
      <trkpt lat="43.60706" lon="3.42975">
        <ele>183</ele>
        <time>2016-02-14T12:20:19Z</time>
      </trkpt>
      <trkpt lat="43.60712" lon="3.42965">
        <ele>183</ele>
        <time>2016-02-14T12:20:21Z</time>
      </trkpt>
      <trkpt lat="43.60713" lon="3.42962">
        <ele>182</ele>
        <time>2016-02-14T12:20:23Z</time>
      </trkpt>
      <trkpt lat="43.60714" lon="3.42961">
        <ele>182</ele>
        <time>2016-02-14T12:20:24Z</time>
      </trkpt>
      <trkpt lat="43.60714" lon="3.4296">
        <ele>182</ele>
        <time>2016-02-14T12:20:25Z</time>
      </trkpt>
      <trkpt lat="43.60713" lon="3.42959">
        <ele>182.5</ele>
        <time>2016-02-14T12:20:26Z</time>
      </trkpt>
      <trkpt lat="43.60713" lon="3.42958">
        <ele>182.5</ele>
        <time>2016-02-14T12:20:27Z</time>
      </trkpt>
      <trkpt lat="43.60713" lon="3.42958">
        <ele>182.5</ele>
        <time>2016-02-14T12:20:28Z</time>
      </trkpt>
      <trkpt lat="43.60712" lon="3.42955">
        <ele>182.5</ele>
        <time>2016-02-14T12:20:29Z</time>
      </trkpt>
      <trkpt lat="43.60711" lon="3.42934">
        <ele>183.5</ele>
        <time>2016-02-14T12:20:32Z</time>
      </trkpt>
      <trkpt lat="43.60713" lon="3.4293">
        <ele>183.5</ele>
        <time>2016-02-14T12:20:33Z</time>
      </trkpt>
      <trkpt lat="43.60714" lon="3.42926">
        <ele>184</ele>
        <time>2016-02-14T12:20:34Z</time>
      </trkpt>
      <trkpt lat="43.60715" lon="3.42923">
        <ele>184</ele>
        <time>2016-02-14T12:20:35Z</time>
      </trkpt>
      <trkpt lat="43.60715" lon="3.42919">
        <ele>184</ele>
        <time>2016-02-14T12:20:36Z</time>
      </trkpt>
      <trkpt lat="43.60716" lon="3.42915">
        <ele>184</ele>
        <time>2016-02-14T12:20:37Z</time>
      </trkpt>
      <trkpt lat="43.6072" lon="3.42914">
        <ele>184</ele>
        <time>2016-02-14T12:20:38Z</time>
      </trkpt>
      <trkpt lat="43.60722" lon="3.42912">
        <ele>184</ele>
        <time>2016-02-14T12:20:39Z</time>
      </trkpt>
      <trkpt lat="43.60723" lon="3.42911">
        <ele>184</ele>
        <time>2016-02-14T12:20:40Z</time>
      </trkpt>
      <trkpt lat="43.60724" lon="3.4291">
        <ele>184</ele>
        <time>2016-02-14T12:20:41Z</time>
      </trkpt>
      <trkpt lat="43.60722" lon="3.42911">
        <ele>184</ele>
        <time>2016-02-14T12:20:42Z</time>
      </trkpt>
      <trkpt lat="43.60716" lon="3.42912">
        <ele>184.5</ele>
        <time>2016-02-14T12:20:44Z</time>
      </trkpt>
      <trkpt lat="43.60713" lon="3.42912">
        <ele>184.5</ele>
        <time>2016-02-14T12:20:45Z</time>
      </trkpt>
      <trkpt lat="43.60711" lon="3.42912">
        <ele>184.5</ele>
        <time>2016-02-14T12:20:46Z</time>
      </trkpt>
      <trkpt lat="43.60709" lon="3.42911">
        <ele>184.5</ele>
        <time>2016-02-14T12:20:47Z</time>
      </trkpt>
      <trkpt lat="43.60708" lon="3.42909">
        <ele>184.5</ele>
        <time>2016-02-14T12:20:48Z</time>
      </trkpt>
      <trkpt lat="43.60709" lon="3.42908">
        <ele>185</ele>
        <time>2016-02-14T12:20:49Z</time>
      </trkpt>
      <trkpt lat="43.60709" lon="3.42907">
        <ele>185</ele>
        <time>2016-02-14T12:20:50Z</time>
      </trkpt>
      <trkpt lat="43.60708" lon="3.42904">
        <ele>185</ele>
        <time>2016-02-14T12:20:52Z</time>
      </trkpt>
      <trkpt lat="43.60705" lon="3.42902">
        <ele>185</ele>
        <time>2016-02-14T12:20:52Z</time>
      </trkpt>
      <trkpt lat="43.60703" lon="3.429">
        <ele>185</ele>
        <time>2016-02-14T12:20:53Z</time>
      </trkpt>
      <trkpt lat="43.60702" lon="3.42898">
        <ele>185</ele>
        <time>2016-02-14T12:20:54Z</time>
      </trkpt>
      <trkpt lat="43.607" lon="3.42896">
        <ele>185.5</ele>
        <time>2016-02-14T12:20:55Z</time>
      </trkpt>
      <trkpt lat="43.60699" lon="3.42894">
        <ele>185.5</ele>
        <time>2016-02-14T12:20:56Z</time>
      </trkpt>
      <trkpt lat="43.60698" lon="3.42892">
        <ele>185.5</ele>
        <time>2016-02-14T12:20:57Z</time>
      </trkpt>
      <trkpt lat="43.60696" lon="3.4289">
        <ele>185.5</ele>
        <time>2016-02-14T12:20:58Z</time>
      </trkpt>
      <trkpt lat="43.60694" lon="3.42889">
        <ele>185.5</ele>
        <time>2016-02-14T12:20:59Z</time>
      </trkpt>
      <trkpt lat="43.60692" lon="3.42887">
        <ele>185.5</ele>
        <time>2016-02-14T12:21:00Z</time>
      </trkpt>
      <trkpt lat="43.60693" lon="3.42885">
        <ele>185.5</ele>
        <time>2016-02-14T12:21:01Z</time>
      </trkpt>
      <trkpt lat="43.60692" lon="3.42883">
        <ele>186.5</ele>
        <time>2016-02-14T12:21:02Z</time>
      </trkpt>
      <trkpt lat="43.60691" lon="3.42881">
        <ele>187</ele>
        <time>2016-02-14T12:21:03Z</time>
      </trkpt>
      <trkpt lat="43.60692" lon="3.42878">
        <ele>187.5</ele>
        <time>2016-02-14T12:21:04Z</time>
      </trkpt>
      <trkpt lat="43.60691" lon="3.42876">
        <ele>188</ele>
        <time>2016-02-14T12:21:05Z</time>
      </trkpt>
      <trkpt lat="43.6069" lon="3.42874">
        <ele>188</ele>
        <time>2016-02-14T12:21:06Z</time>
      </trkpt>
      <trkpt lat="43.60692" lon="3.42872">
        <ele>187.5</ele>
        <time>2016-02-14T12:21:07Z</time>
      </trkpt>
      <trkpt lat="43.60694" lon="3.42872">
        <ele>188.5</ele>
        <time>2016-02-14T12:21:08Z</time>
      </trkpt>
      <trkpt lat="43.60696" lon="3.42872">
        <ele>188.5</ele>
        <time>2016-02-14T12:21:09Z</time>
      </trkpt>
      <trkpt lat="43.60697" lon="3.42872">
        <ele>188.5</ele>
        <time>2016-02-14T12:21:10Z</time>
      </trkpt>
      <trkpt lat="43.60699" lon="3.42872">
        <ele>188</ele>
        <time>2016-02-14T12:21:11Z</time>
      </trkpt>
      <trkpt lat="43.60701" lon="3.42872">
        <ele>188.5</ele>
        <time>2016-02-14T12:21:12Z</time>
      </trkpt>
      <trkpt lat="43.60703" lon="3.42871">
        <ele>188.5</ele>
        <time>2016-02-14T12:21:13Z</time>
      </trkpt>
      <trkpt lat="43.60704" lon="3.42871">
        <ele>188.5</ele>
        <time>2016-02-14T12:21:14Z</time>
      </trkpt>
      <trkpt lat="43.60705" lon="3.42871">
        <ele>189</ele>
        <time>2016-02-14T12:21:15Z</time>
      </trkpt>
      <trkpt lat="43.60707" lon="3.42871">
        <ele>188</ele>
        <time>2016-02-14T12:21:16Z</time>
      </trkpt>
      <trkpt lat="43.60708" lon="3.4287">
        <ele>188</ele>
        <time>2016-02-14T12:21:17Z</time>
      </trkpt>
      <trkpt lat="43.6071" lon="3.4287">
        <ele>187.5</ele>
        <time>2016-02-14T12:21:18Z</time>
      </trkpt>
      <trkpt lat="43.60712" lon="3.42869">
        <ele>187</ele>
        <time>2016-02-14T12:21:19Z</time>
      </trkpt>
      <trkpt lat="43.60715" lon="3.42868">
        <ele>187.5</ele>
        <time>2016-02-14T12:21:20Z</time>
      </trkpt>
      <trkpt lat="43.60717" lon="3.42867">
        <ele>188</ele>
        <time>2016-02-14T12:21:21Z</time>
      </trkpt>
      <trkpt lat="43.60718" lon="3.42865">
        <ele>189</ele>
        <time>2016-02-14T12:21:22Z</time>
      </trkpt>
      <trkpt lat="43.6072" lon="3.42864">
        <ele>189.5</ele>
        <time>2016-02-14T12:21:23Z</time>
      </trkpt>
      <trkpt lat="43.60721" lon="3.42862">
        <ele>190</ele>
        <time>2016-02-14T12:21:24Z</time>
      </trkpt>
      <trkpt lat="43.60722" lon="3.42861">
        <ele>190</ele>
        <time>2016-02-14T12:21:25Z</time>
      </trkpt>
      <trkpt lat="43.60723" lon="3.4286">
        <ele>189.5</ele>
        <time>2016-02-14T12:21:26Z</time>
      </trkpt>
      <trkpt lat="43.60725" lon="3.42859">
        <ele>189.5</ele>
        <time>2016-02-14T12:21:27Z</time>
      </trkpt>
      <trkpt lat="43.60726" lon="3.42858">
        <ele>190</ele>
        <time>2016-02-14T12:21:28Z</time>
      </trkpt>
      <trkpt lat="43.60728" lon="3.42857">
        <ele>190</ele>
        <time>2016-02-14T12:21:29Z</time>
      </trkpt>
      <trkpt lat="43.60729" lon="3.42856">
        <ele>190</ele>
        <time>2016-02-14T12:21:30Z</time>
      </trkpt>
      <trkpt lat="43.60731" lon="3.42854">
        <ele>190</ele>
        <time>2016-02-14T12:21:31Z</time>
      </trkpt>
      <trkpt lat="43.60733" lon="3.42853">
        <ele>189.5</ele>
        <time>2016-02-14T12:21:32Z</time>
      </trkpt>
      <trkpt lat="43.60735" lon="3.42851">
        <ele>189.5</ele>
        <time>2016-02-14T12:21:33Z</time>
      </trkpt>
      <trkpt lat="43.60737" lon="3.4285">
        <ele>189</ele>
        <time>2016-02-14T12:21:34Z</time>
      </trkpt>
      <trkpt lat="43.60739" lon="3.42848">
        <ele>189.5</ele>
        <time>2016-02-14T12:21:35Z</time>
      </trkpt>
      <trkpt lat="43.60741" lon="3.42846">
        <ele>190</ele>
        <time>2016-02-14T12:21:36Z</time>
      </trkpt>
      <trkpt lat="43.60743" lon="3.42844">
        <ele>190</ele>
        <time>2016-02-14T12:21:37Z</time>
      </trkpt>
      <trkpt lat="43.60745" lon="3.42842">
        <ele>189.5</ele>
        <time>2016-02-14T12:21:38Z</time>
      </trkpt>
      <trkpt lat="43.60747" lon="3.4284">
        <ele>189.5</ele>
        <time>2016-02-14T12:21:39Z</time>
      </trkpt>
      <trkpt lat="43.60749" lon="3.42837">
        <ele>190.5</ele>
        <time>2016-02-14T12:21:40Z</time>
      </trkpt>
      <trkpt lat="43.60751" lon="3.42835">
        <ele>190.5</ele>
        <time>2016-02-14T12:21:41Z</time>
      </trkpt>
      <trkpt lat="43.60754" lon="3.42833">
        <ele>190.5</ele>
        <time>2016-02-14T12:21:42Z</time>
      </trkpt>
      <trkpt lat="43.60757" lon="3.42832">
        <ele>190.5</ele>
        <time>2016-02-14T12:21:43Z</time>
      </trkpt>
      <trkpt lat="43.60758" lon="3.4283">
        <ele>190.5</ele>
        <time>2016-02-14T12:21:44Z</time>
      </trkpt>
      <trkpt lat="43.6076" lon="3.42828">
        <ele>191</ele>
        <time>2016-02-14T12:21:45Z</time>
      </trkpt>
      <trkpt lat="43.60762" lon="3.42826">
        <ele>191</ele>
        <time>2016-02-14T12:21:46Z</time>
      </trkpt>
      <trkpt lat="43.60764" lon="3.42824">
        <ele>191.5</ele>
        <time>2016-02-14T12:21:47Z</time>
      </trkpt>
      <trkpt lat="43.60766" lon="3.42822">
        <ele>191</ele>
        <time>2016-02-14T12:21:48Z</time>
      </trkpt>
      <trkpt lat="43.60768" lon="3.4282">
        <ele>190.5</ele>
        <time>2016-02-14T12:21:49Z</time>
      </trkpt>
      <trkpt lat="43.6077" lon="3.42818">
        <ele>190.5</ele>
        <time>2016-02-14T12:21:50Z</time>
      </trkpt>
      <trkpt lat="43.60772" lon="3.42817">
        <ele>190.5</ele>
        <time>2016-02-14T12:21:51Z</time>
      </trkpt>
      <trkpt lat="43.60774" lon="3.42815">
        <ele>190.5</ele>
        <time>2016-02-14T12:21:52Z</time>
      </trkpt>
      <trkpt lat="43.60775" lon="3.42812">
        <ele>191.5</ele>
        <time>2016-02-14T12:21:53Z</time>
      </trkpt>
      <trkpt lat="43.60777" lon="3.42809">
        <ele>192</ele>
        <time>2016-02-14T12:21:54Z</time>
      </trkpt>
      <trkpt lat="43.60779" lon="3.42807">
        <ele>191</ele>
        <time>2016-02-14T12:21:55Z</time>
      </trkpt>
      <trkpt lat="43.60781" lon="3.42805">
        <ele>191</ele>
        <time>2016-02-14T12:21:56Z</time>
      </trkpt>
      <trkpt lat="43.60782" lon="3.42803">
        <ele>191</ele>
        <time>2016-02-14T12:21:57Z</time>
      </trkpt>
      <trkpt lat="43.60782" lon="3.428">
        <ele>192</ele>
        <time>2016-02-14T12:21:58Z</time>
      </trkpt>
      <trkpt lat="43.60783" lon="3.42798">
        <ele>193</ele>
        <time>2016-02-14T12:21:59Z</time>
      </trkpt>
      <trkpt lat="43.60784" lon="3.42795">
        <ele>194.5</ele>
        <time>2016-02-14T12:22:00Z</time>
      </trkpt>
      <trkpt lat="43.60785" lon="3.42792">
        <ele>195</ele>
        <time>2016-02-14T12:22:01Z</time>
      </trkpt>
      <trkpt lat="43.60786" lon="3.4279">
        <ele>195.5</ele>
        <time>2016-02-14T12:22:02Z</time>
      </trkpt>
      <trkpt lat="43.60787" lon="3.42788">
        <ele>196</ele>
        <time>2016-02-14T12:22:03Z</time>
      </trkpt>
      <trkpt lat="43.60789" lon="3.42786">
        <ele>196</ele>
        <time>2016-02-14T12:22:04Z</time>
      </trkpt>
      <trkpt lat="43.60791" lon="3.42784">
        <ele>196</ele>
        <time>2016-02-14T12:22:05Z</time>
      </trkpt>
      <trkpt lat="43.60792" lon="3.42782">
        <ele>196.5</ele>
        <time>2016-02-14T12:22:06Z</time>
      </trkpt>
      <trkpt lat="43.60793" lon="3.4278">
        <ele>196.5</ele>
        <time>2016-02-14T12:22:07Z</time>
      </trkpt>
      <trkpt lat="43.60795" lon="3.42778">
        <ele>196.5</ele>
        <time>2016-02-14T12:22:08Z</time>
      </trkpt>
      <trkpt lat="43.60795" lon="3.42777">
        <ele>195.5</ele>
        <time>2016-02-14T12:22:09Z</time>
      </trkpt>
      <trkpt lat="43.60795" lon="3.42776">
        <ele>194.5</ele>
        <time>2016-02-14T12:22:10Z</time>
      </trkpt>
      <trkpt lat="43.60796" lon="3.42774">
        <ele>195</ele>
        <time>2016-02-14T12:22:11Z</time>
      </trkpt>
      <trkpt lat="43.60798" lon="3.42772">
        <ele>195</ele>
        <time>2016-02-14T12:22:12Z</time>
      </trkpt>
      <trkpt lat="43.608" lon="3.42771">
        <ele>195.5</ele>
        <time>2016-02-14T12:22:13Z</time>
      </trkpt>
      <trkpt lat="43.60801" lon="3.42769">
        <ele>195.5</ele>
        <time>2016-02-14T12:22:14Z</time>
      </trkpt>
      <trkpt lat="43.60803" lon="3.42767">
        <ele>195.5</ele>
        <time>2016-02-14T12:22:15Z</time>
      </trkpt>
      <trkpt lat="43.60804" lon="3.42765">
        <ele>195.5</ele>
        <time>2016-02-14T12:22:16Z</time>
      </trkpt>
      <trkpt lat="43.60806" lon="3.42763">
        <ele>195.5</ele>
        <time>2016-02-14T12:22:17Z</time>
      </trkpt>
      <trkpt lat="43.60808" lon="3.42761">
        <ele>195.5</ele>
        <time>2016-02-14T12:22:18Z</time>
      </trkpt>
      <trkpt lat="43.60809" lon="3.42759">
        <ele>195.5</ele>
        <time>2016-02-14T12:22:19Z</time>
      </trkpt>
      <trkpt lat="43.60811" lon="3.42757">
        <ele>196</ele>
        <time>2016-02-14T12:22:20Z</time>
      </trkpt>
      <trkpt lat="43.60813" lon="3.42754">
        <ele>196</ele>
        <time>2016-02-14T12:22:21Z</time>
      </trkpt>
      <trkpt lat="43.60814" lon="3.42752">
        <ele>196.5</ele>
        <time>2016-02-14T12:22:22Z</time>
      </trkpt>
      <trkpt lat="43.60816" lon="3.42749">
        <ele>196.5</ele>
        <time>2016-02-14T12:22:23Z</time>
      </trkpt>
      <trkpt lat="43.60817" lon="3.42747">
        <ele>197</ele>
        <time>2016-02-14T12:22:24Z</time>
      </trkpt>
      <trkpt lat="43.60818" lon="3.42744">
        <ele>197.5</ele>
        <time>2016-02-14T12:22:25Z</time>
      </trkpt>
      <trkpt lat="43.6082" lon="3.42741">
        <ele>197.5</ele>
        <time>2016-02-14T12:22:26Z</time>
      </trkpt>
      <trkpt lat="43.60821" lon="3.42738">
        <ele>198</ele>
        <time>2016-02-14T12:22:27Z</time>
      </trkpt>
      <trkpt lat="43.60822" lon="3.42736">
        <ele>198</ele>
        <time>2016-02-14T12:22:28Z</time>
      </trkpt>
      <trkpt lat="43.60823" lon="3.42733">
        <ele>198</ele>
        <time>2016-02-14T12:22:29Z</time>
      </trkpt>
      <trkpt lat="43.60825" lon="3.42731">
        <ele>198</ele>
        <time>2016-02-14T12:22:30Z</time>
      </trkpt>
      <trkpt lat="43.60826" lon="3.42729">
        <ele>198</ele>
        <time>2016-02-14T12:22:31Z</time>
      </trkpt>
      <trkpt lat="43.60828" lon="3.42727">
        <ele>199</ele>
        <time>2016-02-14T12:22:32Z</time>
      </trkpt>
      <trkpt lat="43.6083" lon="3.42724">
        <ele>199</ele>
        <time>2016-02-14T12:22:33Z</time>
      </trkpt>
      <trkpt lat="43.6083" lon="3.42721">
        <ele>199</ele>
        <time>2016-02-14T12:22:34Z</time>
      </trkpt>
      <trkpt lat="43.60831" lon="3.42718">
        <ele>199</ele>
        <time>2016-02-14T12:22:35Z</time>
      </trkpt>
      <trkpt lat="43.60836" lon="3.42708">
        <ele>201.5</ele>
        <time>2016-02-14T12:22:37Z</time>
      </trkpt>
      <trkpt lat="43.60837" lon="3.42703">
        <ele>202</ele>
        <time>2016-02-14T12:22:38Z</time>
      </trkpt>
      <trkpt lat="43.60839" lon="3.42697">
        <ele>202.5</ele>
        <time>2016-02-14T12:22:39Z</time>
      </trkpt>
      <trkpt lat="43.60841" lon="3.42691">
        <ele>202.5</ele>
        <time>2016-02-14T12:22:40Z</time>
      </trkpt>
      <trkpt lat="43.60843" lon="3.42685">
        <ele>203</ele>
        <time>2016-02-14T12:22:41Z</time>
      </trkpt>
      <trkpt lat="43.60844" lon="3.42678">
        <ele>202.5</ele>
        <time>2016-02-14T12:22:42Z</time>
      </trkpt>
      <trkpt lat="43.60847" lon="3.42672">
        <ele>201.5</ele>
        <time>2016-02-14T12:22:43Z</time>
      </trkpt>
      <trkpt lat="43.60849" lon="3.42664">
        <ele>201.5</ele>
        <time>2016-02-14T12:22:44Z</time>
      </trkpt>
      <trkpt lat="43.60852" lon="3.42657">
        <ele>201</ele>
        <time>2016-02-14T12:22:45Z</time>
      </trkpt>
      <trkpt lat="43.60854" lon="3.4265">
        <ele>201.5</ele>
        <time>2016-02-14T12:22:46Z</time>
      </trkpt>
      <trkpt lat="43.60857" lon="3.42642">
        <ele>201</ele>
        <time>2016-02-14T12:22:47Z</time>
      </trkpt>
      <trkpt lat="43.6086" lon="3.42635">
        <ele>201</ele>
        <time>2016-02-14T12:22:48Z</time>
      </trkpt>
      <trkpt lat="43.60862" lon="3.42627">
        <ele>201</ele>
        <time>2016-02-14T12:22:49Z</time>
      </trkpt>
      <trkpt lat="43.60865" lon="3.42621">
        <ele>200.5</ele>
        <time>2016-02-14T12:22:50Z</time>
      </trkpt>
      <trkpt lat="43.60868" lon="3.42614">
        <ele>201</ele>
        <time>2016-02-14T12:22:51Z</time>
      </trkpt>
      <trkpt lat="43.60873" lon="3.42608">
        <ele>201.5</ele>
        <time>2016-02-14T12:22:52Z</time>
      </trkpt>
      <trkpt lat="43.60879" lon="3.42605">
        <ele>201.5</ele>
        <time>2016-02-14T12:22:53Z</time>
      </trkpt>
      <trkpt lat="43.60886" lon="3.42603">
        <ele>200.5</ele>
        <time>2016-02-14T12:22:54Z</time>
      </trkpt>
      <trkpt lat="43.60894" lon="3.42602">
        <ele>200.5</ele>
        <time>2016-02-14T12:22:55Z</time>
      </trkpt>
      <trkpt lat="43.60901" lon="3.42604">
        <ele>200.5</ele>
        <time>2016-02-14T12:22:56Z</time>
      </trkpt>
      <trkpt lat="43.60908" lon="3.42605">
        <ele>200.5</ele>
        <time>2016-02-14T12:22:57Z</time>
      </trkpt>
      <trkpt lat="43.60919" lon="3.42603">
        <ele>199.5</ele>
        <time>2016-02-14T12:22:59Z</time>
      </trkpt>
      <trkpt lat="43.60925" lon="3.426">
        <ele>199.5</ele>
        <time>2016-02-14T12:23:00Z</time>
      </trkpt>
      <trkpt lat="43.6093" lon="3.42597">
        <ele>199.5</ele>
        <time>2016-02-14T12:23:01Z</time>
      </trkpt>
      <trkpt lat="43.60934" lon="3.42594">
        <ele>198.5</ele>
        <time>2016-02-14T12:23:02Z</time>
      </trkpt>
      <trkpt lat="43.60938" lon="3.42589">
        <ele>198.5</ele>
        <time>2016-02-14T12:23:03Z</time>
      </trkpt>
      <trkpt lat="43.60942" lon="3.42584">
        <ele>199</ele>
        <time>2016-02-14T12:23:04Z</time>
      </trkpt>
      <trkpt lat="43.60944" lon="3.4258">
        <ele>199.5</ele>
        <time>2016-02-14T12:23:05Z</time>
      </trkpt>
      <trkpt lat="43.60947" lon="3.42576">
        <ele>200</ele>
        <time>2016-02-14T12:23:06Z</time>
      </trkpt>
      <trkpt lat="43.6095" lon="3.42574">
        <ele>200.5</ele>
        <time>2016-02-14T12:23:07Z</time>
      </trkpt>
      <trkpt lat="43.60953" lon="3.42571">
        <ele>201</ele>
        <time>2016-02-14T12:23:08Z</time>
      </trkpt>
      <trkpt lat="43.60956" lon="3.42568">
        <ele>201</ele>
        <time>2016-02-14T12:23:09Z</time>
      </trkpt>
      <trkpt lat="43.60958" lon="3.42566">
        <ele>201</ele>
        <time>2016-02-14T12:23:10Z</time>
      </trkpt>
      <trkpt lat="43.60961" lon="3.42563">
        <ele>201</ele>
        <time>2016-02-14T12:23:11Z</time>
      </trkpt>
      <trkpt lat="43.60964" lon="3.4256">
        <ele>201</ele>
        <time>2016-02-14T12:23:12Z</time>
      </trkpt>
      <trkpt lat="43.60967" lon="3.42558">
        <ele>201.5</ele>
        <time>2016-02-14T12:23:13Z</time>
      </trkpt>
      <trkpt lat="43.6097" lon="3.42555">
        <ele>202</ele>
        <time>2016-02-14T12:23:14Z</time>
      </trkpt>
      <trkpt lat="43.60972" lon="3.42553">
        <ele>202</ele>
        <time>2016-02-14T12:23:15Z</time>
      </trkpt>
      <trkpt lat="43.60975" lon="3.4255">
        <ele>202</ele>
        <time>2016-02-14T12:23:16Z</time>
      </trkpt>
      <trkpt lat="43.60978" lon="3.42548">
        <ele>202</ele>
        <time>2016-02-14T12:23:17Z</time>
      </trkpt>
      <trkpt lat="43.6098" lon="3.42544">
        <ele>202.5</ele>
        <time>2016-02-14T12:23:18Z</time>
      </trkpt>
      <trkpt lat="43.60983" lon="3.42541">
        <ele>202</ele>
        <time>2016-02-14T12:23:19Z</time>
      </trkpt>
      <trkpt lat="43.60986" lon="3.42537">
        <ele>202</ele>
        <time>2016-02-14T12:23:20Z</time>
      </trkpt>
      <trkpt lat="43.60988" lon="3.42533">
        <ele>202.5</ele>
        <time>2016-02-14T12:23:21Z</time>
      </trkpt>
      <trkpt lat="43.6099" lon="3.42531">
        <ele>202.5</ele>
        <time>2016-02-14T12:23:22Z</time>
      </trkpt>
      <trkpt lat="43.60993" lon="3.42528">
        <ele>202.5</ele>
        <time>2016-02-14T12:23:23Z</time>
      </trkpt>
      <trkpt lat="43.60995" lon="3.42526">
        <ele>202.5</ele>
        <time>2016-02-14T12:23:24Z</time>
      </trkpt>
      <trkpt lat="43.60997" lon="3.42524">
        <ele>202.5</ele>
        <time>2016-02-14T12:23:25Z</time>
      </trkpt>
      <trkpt lat="43.61" lon="3.42521">
        <ele>203</ele>
        <time>2016-02-14T12:23:26Z</time>
      </trkpt>
      <trkpt lat="43.61002" lon="3.42519">
        <ele>203</ele>
        <time>2016-02-14T12:23:27Z</time>
      </trkpt>
      <trkpt lat="43.61005" lon="3.42517">
        <ele>202.5</ele>
        <time>2016-02-14T12:23:28Z</time>
      </trkpt>
      <trkpt lat="43.61009" lon="3.42517">
        <ele>201.5</ele>
        <time>2016-02-14T12:23:29Z</time>
      </trkpt>
      <trkpt lat="43.61011" lon="3.42514">
        <ele>202.5</ele>
        <time>2016-02-14T12:23:30Z</time>
      </trkpt>
      <trkpt lat="43.61013" lon="3.42512">
        <ele>202.5</ele>
        <time>2016-02-14T12:23:31Z</time>
      </trkpt>
      <trkpt lat="43.61016" lon="3.42511">
        <ele>203</ele>
        <time>2016-02-14T12:23:32Z</time>
      </trkpt>
      <trkpt lat="43.61018" lon="3.42508">
        <ele>203.5</ele>
        <time>2016-02-14T12:23:33Z</time>
      </trkpt>
      <trkpt lat="43.6102" lon="3.42507">
        <ele>204</ele>
        <time>2016-02-14T12:23:34Z</time>
      </trkpt>
      <trkpt lat="43.61023" lon="3.42504">
        <ele>204.5</ele>
        <time>2016-02-14T12:23:35Z</time>
      </trkpt>
      <trkpt lat="43.61025" lon="3.42502">
        <ele>205</ele>
        <time>2016-02-14T12:23:36Z</time>
      </trkpt>
      <trkpt lat="43.61027" lon="3.425">
        <ele>205.5</ele>
        <time>2016-02-14T12:23:37Z</time>
      </trkpt>
      <trkpt lat="43.6103" lon="3.42498">
        <ele>206</ele>
        <time>2016-02-14T12:23:38Z</time>
      </trkpt>
      <trkpt lat="43.61033" lon="3.42497">
        <ele>206</ele>
        <time>2016-02-14T12:23:39Z</time>
      </trkpt>
      <trkpt lat="43.61035" lon="3.42495">
        <ele>205</ele>
        <time>2016-02-14T12:23:40Z</time>
      </trkpt>
      <trkpt lat="43.61038" lon="3.42492">
        <ele>206</ele>
        <time>2016-02-14T12:23:41Z</time>
      </trkpt>
      <trkpt lat="43.6104" lon="3.4249">
        <ele>206</ele>
        <time>2016-02-14T12:23:42Z</time>
      </trkpt>
      <trkpt lat="43.61042" lon="3.42487">
        <ele>206.5</ele>
        <time>2016-02-14T12:23:43Z</time>
      </trkpt>
      <trkpt lat="43.61044" lon="3.42484">
        <ele>207</ele>
        <time>2016-02-14T12:23:44Z</time>
      </trkpt>
      <trkpt lat="43.61046" lon="3.42481">
        <ele>207</ele>
        <time>2016-02-14T12:23:45Z</time>
      </trkpt>
      <trkpt lat="43.61048" lon="3.42478">
        <ele>207</ele>
        <time>2016-02-14T12:23:46Z</time>
      </trkpt>
      <trkpt lat="43.6105" lon="3.42475">
        <ele>207.5</ele>
        <time>2016-02-14T12:23:47Z</time>
      </trkpt>
      <trkpt lat="43.61052" lon="3.42473">
        <ele>208</ele>
        <time>2016-02-14T12:23:48Z</time>
      </trkpt>
      <trkpt lat="43.61054" lon="3.4247">
        <ele>208</ele>
        <time>2016-02-14T12:23:49Z</time>
      </trkpt>
      <trkpt lat="43.61056" lon="3.42467">
        <ele>208</ele>
        <time>2016-02-14T12:23:50Z</time>
      </trkpt>
      <trkpt lat="43.61057" lon="3.42464">
        <ele>208</ele>
        <time>2016-02-14T12:23:51Z</time>
      </trkpt>
      <trkpt lat="43.61059" lon="3.42461">
        <ele>208.5</ele>
        <time>2016-02-14T12:23:52Z</time>
      </trkpt>
      <trkpt lat="43.61061" lon="3.42457">
        <ele>208.5</ele>
        <time>2016-02-14T12:23:53Z</time>
      </trkpt>
      <trkpt lat="43.61062" lon="3.42454">
        <ele>208</ele>
        <time>2016-02-14T12:23:54Z</time>
      </trkpt>
      <trkpt lat="43.61064" lon="3.4245">
        <ele>208</ele>
        <time>2016-02-14T12:23:55Z</time>
      </trkpt>
      <trkpt lat="43.61065" lon="3.42447">
        <ele>208</ele>
        <time>2016-02-14T12:23:56Z</time>
      </trkpt>
      <trkpt lat="43.61067" lon="3.42444">
        <ele>208</ele>
        <time>2016-02-14T12:23:57Z</time>
      </trkpt>
      <trkpt lat="43.61068" lon="3.42441">
        <ele>208.5</ele>
        <time>2016-02-14T12:23:58Z</time>
      </trkpt>
      <trkpt lat="43.6107" lon="3.42437">
        <ele>208.5</ele>
        <time>2016-02-14T12:23:59Z</time>
      </trkpt>
      <trkpt lat="43.61071" lon="3.42434">
        <ele>209</ele>
        <time>2016-02-14T12:24:00Z</time>
      </trkpt>
      <trkpt lat="43.61072" lon="3.4243">
        <ele>209.5</ele>
        <time>2016-02-14T12:24:01Z</time>
      </trkpt>
      <trkpt lat="43.61073" lon="3.42427">
        <ele>210</ele>
        <time>2016-02-14T12:24:02Z</time>
      </trkpt>
      <trkpt lat="43.61075" lon="3.42424">
        <ele>210</ele>
        <time>2016-02-14T12:24:03Z</time>
      </trkpt>
      <trkpt lat="43.61076" lon="3.42421">
        <ele>210.5</ele>
        <time>2016-02-14T12:24:04Z</time>
      </trkpt>
      <trkpt lat="43.61077" lon="3.42418">
        <ele>211</ele>
        <time>2016-02-14T12:24:05Z</time>
      </trkpt>
      <trkpt lat="43.61078" lon="3.42415">
        <ele>211.5</ele>
        <time>2016-02-14T12:24:05Z</time>
      </trkpt>
      <trkpt lat="43.61079" lon="3.42411">
        <ele>211.5</ele>
        <time>2016-02-14T12:24:07Z</time>
      </trkpt>
      <trkpt lat="43.61081" lon="3.42408">
        <ele>211.5</ele>
        <time>2016-02-14T12:24:07Z</time>
      </trkpt>
      <trkpt lat="43.61083" lon="3.42405">
        <ele>211.5</ele>
        <time>2016-02-14T12:24:08Z</time>
      </trkpt>
      <trkpt lat="43.61084" lon="3.42402">
        <ele>211.5</ele>
        <time>2016-02-14T12:24:09Z</time>
      </trkpt>
      <trkpt lat="43.61086" lon="3.42399">
        <ele>211</ele>
        <time>2016-02-14T12:24:10Z</time>
      </trkpt>
      <trkpt lat="43.61088" lon="3.42397">
        <ele>210.5</ele>
        <time>2016-02-14T12:24:11Z</time>
      </trkpt>
      <trkpt lat="43.61089" lon="3.42394">
        <ele>210.5</ele>
        <time>2016-02-14T12:24:12Z</time>
      </trkpt>
      <trkpt lat="43.61091" lon="3.42391">
        <ele>210.5</ele>
        <time>2016-02-14T12:24:13Z</time>
      </trkpt>
      <trkpt lat="43.61092" lon="3.42388">
        <ele>210</ele>
        <time>2016-02-14T12:24:14Z</time>
      </trkpt>
      <trkpt lat="43.61093" lon="3.42385">
        <ele>210.5</ele>
        <time>2016-02-14T12:24:15Z</time>
      </trkpt>
      <trkpt lat="43.61094" lon="3.42381">
        <ele>211</ele>
        <time>2016-02-14T12:24:16Z</time>
      </trkpt>
      <trkpt lat="43.61095" lon="3.42378">
        <ele>211</ele>
        <time>2016-02-14T12:24:17Z</time>
      </trkpt>
      <trkpt lat="43.61097" lon="3.42375">
        <ele>211.5</ele>
        <time>2016-02-14T12:24:18Z</time>
      </trkpt>
      <trkpt lat="43.61098" lon="3.42372">
        <ele>212</ele>
        <time>2016-02-14T12:24:19Z</time>
      </trkpt>
      <trkpt lat="43.61099" lon="3.42369">
        <ele>212</ele>
        <time>2016-02-14T12:24:20Z</time>
      </trkpt>
      <trkpt lat="43.61101" lon="3.42366">
        <ele>212</ele>
        <time>2016-02-14T12:24:21Z</time>
      </trkpt>
      <trkpt lat="43.61102" lon="3.42364">
        <ele>212</ele>
        <time>2016-02-14T12:24:22Z</time>
      </trkpt>
      <trkpt lat="43.61104" lon="3.42361">
        <ele>211.5</ele>
        <time>2016-02-14T12:24:23Z</time>
      </trkpt>
      <trkpt lat="43.61105" lon="3.42359">
        <ele>211</ele>
        <time>2016-02-14T12:24:24Z</time>
      </trkpt>
      <trkpt lat="43.61107" lon="3.42356">
        <ele>211</ele>
        <time>2016-02-14T12:24:25Z</time>
      </trkpt>
      <trkpt lat="43.61109" lon="3.42354">
        <ele>210.5</ele>
        <time>2016-02-14T12:24:26Z</time>
      </trkpt>
      <trkpt lat="43.6111" lon="3.42351">
        <ele>210.5</ele>
        <time>2016-02-14T12:24:27Z</time>
      </trkpt>
      <trkpt lat="43.61111" lon="3.42348">
        <ele>211</ele>
        <time>2016-02-14T12:24:28Z</time>
      </trkpt>
      <trkpt lat="43.61113" lon="3.42345">
        <ele>210.5</ele>
        <time>2016-02-14T12:24:29Z</time>
      </trkpt>
      <trkpt lat="43.61114" lon="3.42342">
        <ele>211</ele>
        <time>2016-02-14T12:24:30Z</time>
      </trkpt>
      <trkpt lat="43.61115" lon="3.42339">
        <ele>211.5</ele>
        <time>2016-02-14T12:24:31Z</time>
      </trkpt>
      <trkpt lat="43.61116" lon="3.42336">
        <ele>211.5</ele>
        <time>2016-02-14T12:24:32Z</time>
      </trkpt>
      <trkpt lat="43.61117" lon="3.42333">
        <ele>212</ele>
        <time>2016-02-14T12:24:33Z</time>
      </trkpt>
      <trkpt lat="43.61117" lon="3.4233">
        <ele>212</ele>
        <time>2016-02-14T12:24:34Z</time>
      </trkpt>
      <trkpt lat="43.61117" lon="3.42327">
        <ele>212.5</ele>
        <time>2016-02-14T12:24:35Z</time>
      </trkpt>
      <trkpt lat="43.61118" lon="3.42324">
        <ele>213</ele>
        <time>2016-02-14T12:24:36Z</time>
      </trkpt>
      <trkpt lat="43.61119" lon="3.42321">
        <ele>214</ele>
        <time>2016-02-14T12:24:37Z</time>
      </trkpt>
      <trkpt lat="43.61119" lon="3.42318">
        <ele>214</ele>
        <time>2016-02-14T12:24:38Z</time>
      </trkpt>
      <trkpt lat="43.61121" lon="3.42315">
        <ele>214</ele>
        <time>2016-02-14T12:24:39Z</time>
      </trkpt>
      <trkpt lat="43.61121" lon="3.42312">
        <ele>215</ele>
        <time>2016-02-14T12:24:40Z</time>
      </trkpt>
      <trkpt lat="43.61122" lon="3.42309">
        <ele>215.5</ele>
        <time>2016-02-14T12:24:41Z</time>
      </trkpt>
      <trkpt lat="43.61123" lon="3.42306">
        <ele>215.5</ele>
        <time>2016-02-14T12:24:42Z</time>
      </trkpt>
      <trkpt lat="43.61124" lon="3.42304">
        <ele>215.5</ele>
        <time>2016-02-14T12:24:43Z</time>
      </trkpt>
      <trkpt lat="43.61125" lon="3.42301">
        <ele>215.5</ele>
        <time>2016-02-14T12:24:44Z</time>
      </trkpt>
      <trkpt lat="43.61126" lon="3.42298">
        <ele>215.5</ele>
        <time>2016-02-14T12:24:45Z</time>
      </trkpt>
      <trkpt lat="43.61127" lon="3.42296">
        <ele>215</ele>
        <time>2016-02-14T12:24:46Z</time>
      </trkpt>
      <trkpt lat="43.61128" lon="3.42293">
        <ele>215</ele>
        <time>2016-02-14T12:24:47Z</time>
      </trkpt>
      <trkpt lat="43.61129" lon="3.4229">
        <ele>215</ele>
        <time>2016-02-14T12:24:48Z</time>
      </trkpt>
      <trkpt lat="43.61129" lon="3.42288">
        <ele>215.5</ele>
        <time>2016-02-14T12:24:49Z</time>
      </trkpt>
      <trkpt lat="43.6113" lon="3.42285">
        <ele>215.5</ele>
        <time>2016-02-14T12:24:50Z</time>
      </trkpt>
      <trkpt lat="43.61131" lon="3.42282">
        <ele>216</ele>
        <time>2016-02-14T12:24:51Z</time>
      </trkpt>
      <trkpt lat="43.61132" lon="3.4228">
        <ele>216.5</ele>
        <time>2016-02-14T12:24:52Z</time>
      </trkpt>
      <trkpt lat="43.61132" lon="3.42277">
        <ele>216.5</ele>
        <time>2016-02-14T12:24:53Z</time>
      </trkpt>
      <trkpt lat="43.61133" lon="3.42274">
        <ele>217</ele>
        <time>2016-02-14T12:24:54Z</time>
      </trkpt>
      <trkpt lat="43.61134" lon="3.42272">
        <ele>217</ele>
        <time>2016-02-14T12:24:55Z</time>
      </trkpt>
      <trkpt lat="43.61135" lon="3.42269">
        <ele>217.5</ele>
        <time>2016-02-14T12:24:56Z</time>
      </trkpt>
      <trkpt lat="43.61136" lon="3.42267">
        <ele>218</ele>
        <time>2016-02-14T12:24:57Z</time>
      </trkpt>
      <trkpt lat="43.61137" lon="3.42264">
        <ele>218.5</ele>
        <time>2016-02-14T12:24:58Z</time>
      </trkpt>
      <trkpt lat="43.61138" lon="3.42261">
        <ele>218.5</ele>
        <time>2016-02-14T12:24:59Z</time>
      </trkpt>
      <trkpt lat="43.61139" lon="3.42259">
        <ele>219</ele>
        <time>2016-02-14T12:25:00Z</time>
      </trkpt>
      <trkpt lat="43.6114" lon="3.42257">
        <ele>219</ele>
        <time>2016-02-14T12:25:01Z</time>
      </trkpt>
      <trkpt lat="43.61141" lon="3.42254">
        <ele>219</ele>
        <time>2016-02-14T12:25:02Z</time>
      </trkpt>
      <trkpt lat="43.61142" lon="3.42252">
        <ele>219</ele>
        <time>2016-02-14T12:25:03Z</time>
      </trkpt>
      <trkpt lat="43.61143" lon="3.4225">
        <ele>219.5</ele>
        <time>2016-02-14T12:25:04Z</time>
      </trkpt>
      <trkpt lat="43.61144" lon="3.42247">
        <ele>220</ele>
        <time>2016-02-14T12:25:05Z</time>
      </trkpt>
      <trkpt lat="43.61145" lon="3.42245">
        <ele>221</ele>
        <time>2016-02-14T12:25:06Z</time>
      </trkpt>
      <trkpt lat="43.61146" lon="3.42242">
        <ele>221.5</ele>
        <time>2016-02-14T12:25:07Z</time>
      </trkpt>
      <trkpt lat="43.61147" lon="3.4224">
        <ele>221.5</ele>
        <time>2016-02-14T12:25:08Z</time>
      </trkpt>
      <trkpt lat="43.61148" lon="3.42238">
        <ele>221.5</ele>
        <time>2016-02-14T12:25:09Z</time>
      </trkpt>
      <trkpt lat="43.61149" lon="3.42236">
        <ele>222</ele>
        <time>2016-02-14T12:25:10Z</time>
      </trkpt>
      <trkpt lat="43.61151" lon="3.42235">
        <ele>222</ele>
        <time>2016-02-14T12:25:11Z</time>
      </trkpt>
      <trkpt lat="43.61152" lon="3.42233">
        <ele>222</ele>
        <time>2016-02-14T12:25:12Z</time>
      </trkpt>
      <trkpt lat="43.61153" lon="3.42231">
        <ele>222</ele>
        <time>2016-02-14T12:25:13Z</time>
      </trkpt>
      <trkpt lat="43.61155" lon="3.42229">
        <ele>222</ele>
        <time>2016-02-14T12:25:14Z</time>
      </trkpt>
      <trkpt lat="43.61156" lon="3.42227">
        <ele>222</ele>
        <time>2016-02-14T12:25:15Z</time>
      </trkpt>
      <trkpt lat="43.61157" lon="3.42225">
        <ele>222</ele>
        <time>2016-02-14T12:25:16Z</time>
      </trkpt>
      <trkpt lat="43.61159" lon="3.42225">
        <ele>220.5</ele>
        <time>2016-02-14T12:25:17Z</time>
      </trkpt>
      <trkpt lat="43.61159" lon="3.42221">
        <ele>222.5</ele>
        <time>2016-02-14T12:25:18Z</time>
      </trkpt>
      <trkpt lat="43.61161" lon="3.42219">
        <ele>223</ele>
        <time>2016-02-14T12:25:19Z</time>
      </trkpt>
      <trkpt lat="43.61162" lon="3.42217">
        <ele>223.5</ele>
        <time>2016-02-14T12:25:20Z</time>
      </trkpt>
      <trkpt lat="43.61163" lon="3.42215">
        <ele>223.5</ele>
        <time>2016-02-14T12:25:21Z</time>
      </trkpt>
      <trkpt lat="43.61165" lon="3.42213">
        <ele>224</ele>
        <time>2016-02-14T12:25:22Z</time>
      </trkpt>
      <trkpt lat="43.61166" lon="3.42211">
        <ele>224.5</ele>
        <time>2016-02-14T12:25:23Z</time>
      </trkpt>
      <trkpt lat="43.61167" lon="3.42208">
        <ele>224.5</ele>
        <time>2016-02-14T12:25:24Z</time>
      </trkpt>
      <trkpt lat="43.61168" lon="3.42206">
        <ele>225</ele>
        <time>2016-02-14T12:25:25Z</time>
      </trkpt>
      <trkpt lat="43.61169" lon="3.42204">
        <ele>225</ele>
        <time>2016-02-14T12:25:26Z</time>
      </trkpt>
      <trkpt lat="43.61171" lon="3.42201">
        <ele>225.5</ele>
        <time>2016-02-14T12:25:27Z</time>
      </trkpt>
      <trkpt lat="43.61172" lon="3.42199">
        <ele>226</ele>
        <time>2016-02-14T12:25:28Z</time>
      </trkpt>
      <trkpt lat="43.61172" lon="3.42196">
        <ele>226.5</ele>
        <time>2016-02-14T12:25:29Z</time>
      </trkpt>
      <trkpt lat="43.61173" lon="3.42194">
        <ele>227</ele>
        <time>2016-02-14T12:25:30Z</time>
      </trkpt>
      <trkpt lat="43.61174" lon="3.42192">
        <ele>227</ele>
        <time>2016-02-14T12:25:31Z</time>
      </trkpt>
      <trkpt lat="43.61175" lon="3.4219">
        <ele>227</ele>
        <time>2016-02-14T12:25:32Z</time>
      </trkpt>
      <trkpt lat="43.61176" lon="3.42187">
        <ele>227.5</ele>
        <time>2016-02-14T12:25:33Z</time>
      </trkpt>
      <trkpt lat="43.61177" lon="3.42185">
        <ele>228</ele>
        <time>2016-02-14T12:25:34Z</time>
      </trkpt>
      <trkpt lat="43.61177" lon="3.42182">
        <ele>228.5</ele>
        <time>2016-02-14T12:25:35Z</time>
      </trkpt>
      <trkpt lat="43.61178" lon="3.4218">
        <ele>228.5</ele>
        <time>2016-02-14T12:25:36Z</time>
      </trkpt>
      <trkpt lat="43.61179" lon="3.42177">
        <ele>228.5</ele>
        <time>2016-02-14T12:25:37Z</time>
      </trkpt>
      <trkpt lat="43.61179" lon="3.42174">
        <ele>229</ele>
        <time>2016-02-14T12:25:38Z</time>
      </trkpt>
      <trkpt lat="43.61179" lon="3.42171">
        <ele>229.5</ele>
        <time>2016-02-14T12:25:39Z</time>
      </trkpt>
      <trkpt lat="43.61179" lon="3.42168">
        <ele>231</ele>
        <time>2016-02-14T12:25:40Z</time>
      </trkpt>
      <trkpt lat="43.61179" lon="3.42166">
        <ele>231.5</ele>
        <time>2016-02-14T12:25:41Z</time>
      </trkpt>
      <trkpt lat="43.61179" lon="3.42163">
        <ele>231.5</ele>
        <time>2016-02-14T12:25:42Z</time>
      </trkpt>
      <trkpt lat="43.6118" lon="3.42161">
        <ele>231.5</ele>
        <time>2016-02-14T12:25:43Z</time>
      </trkpt>
      <trkpt lat="43.61181" lon="3.42158">
        <ele>232</ele>
        <time>2016-02-14T12:25:44Z</time>
      </trkpt>
      <trkpt lat="43.61181" lon="3.42156">
        <ele>232</ele>
        <time>2016-02-14T12:25:45Z</time>
      </trkpt>
      <trkpt lat="43.61182" lon="3.42154">
        <ele>232.5</ele>
        <time>2016-02-14T12:25:46Z</time>
      </trkpt>
      <trkpt lat="43.61182" lon="3.42151">
        <ele>233</ele>
        <time>2016-02-14T12:25:47Z</time>
      </trkpt>
      <trkpt lat="43.61182" lon="3.42148">
        <ele>233.5</ele>
        <time>2016-02-14T12:25:48Z</time>
      </trkpt>
      <trkpt lat="43.61183" lon="3.42146">
        <ele>234</ele>
        <time>2016-02-14T12:25:49Z</time>
      </trkpt>
      <trkpt lat="43.61183" lon="3.42144">
        <ele>234.5</ele>
        <time>2016-02-14T12:25:50Z</time>
      </trkpt>
      <trkpt lat="43.61184" lon="3.42141">
        <ele>234.5</ele>
        <time>2016-02-14T12:25:51Z</time>
      </trkpt>
      <trkpt lat="43.61185" lon="3.4214">
        <ele>234.5</ele>
        <time>2016-02-14T12:25:52Z</time>
      </trkpt>
      <trkpt lat="43.61186" lon="3.42137">
        <ele>235</ele>
        <time>2016-02-14T12:25:53Z</time>
      </trkpt>
      <trkpt lat="43.61187" lon="3.42135">
        <ele>235</ele>
        <time>2016-02-14T12:25:54Z</time>
      </trkpt>
      <trkpt lat="43.61187" lon="3.42132">
        <ele>235</ele>
        <time>2016-02-14T12:25:55Z</time>
      </trkpt>
      <trkpt lat="43.61188" lon="3.4213">
        <ele>235.5</ele>
        <time>2016-02-14T12:25:56Z</time>
      </trkpt>
      <trkpt lat="43.61189" lon="3.42127">
        <ele>236</ele>
        <time>2016-02-14T12:25:57Z</time>
      </trkpt>
      <trkpt lat="43.61191" lon="3.42126">
        <ele>234</ele>
        <time>2016-02-14T12:25:58Z</time>
      </trkpt>
      <trkpt lat="43.6119" lon="3.42123">
        <ele>236</ele>
        <time>2016-02-14T12:25:59Z</time>
      </trkpt>
      <trkpt lat="43.6119" lon="3.42121">
        <ele>237</ele>
        <time>2016-02-14T12:26:00Z</time>
      </trkpt>
      <trkpt lat="43.61191" lon="3.42119">
        <ele>237</ele>
        <time>2016-02-14T12:26:01Z</time>
      </trkpt>
      <trkpt lat="43.61191" lon="3.42116">
        <ele>238</ele>
        <time>2016-02-14T12:26:02Z</time>
      </trkpt>
      <trkpt lat="43.61192" lon="3.42114">
        <ele>238.5</ele>
        <time>2016-02-14T12:26:03Z</time>
      </trkpt>
      <trkpt lat="43.61192" lon="3.42112">
        <ele>238.5</ele>
        <time>2016-02-14T12:26:04Z</time>
      </trkpt>
      <trkpt lat="43.61193" lon="3.4211">
        <ele>239</ele>
        <time>2016-02-14T12:26:05Z</time>
      </trkpt>
      <trkpt lat="43.61193" lon="3.42107">
        <ele>239.5</ele>
        <time>2016-02-14T12:26:06Z</time>
      </trkpt>
      <trkpt lat="43.61193" lon="3.42105">
        <ele>239.5</ele>
        <time>2016-02-14T12:26:07Z</time>
      </trkpt>
      <trkpt lat="43.61194" lon="3.42103">
        <ele>240</ele>
        <time>2016-02-14T12:26:08Z</time>
      </trkpt>
      <trkpt lat="43.61194" lon="3.421">
        <ele>240.5</ele>
        <time>2016-02-14T12:26:09Z</time>
      </trkpt>
      <trkpt lat="43.61193" lon="3.42098">
        <ele>241.5</ele>
        <time>2016-02-14T12:26:10Z</time>
      </trkpt>
      <trkpt lat="43.61194" lon="3.42095">
        <ele>241.5</ele>
        <time>2016-02-14T12:26:11Z</time>
      </trkpt>
      <trkpt lat="43.61194" lon="3.42093">
        <ele>242.5</ele>
        <time>2016-02-14T12:26:12Z</time>
      </trkpt>
      <trkpt lat="43.61194" lon="3.42091">
        <ele>243</ele>
        <time>2016-02-14T12:26:13Z</time>
      </trkpt>
      <trkpt lat="43.61195" lon="3.42089">
        <ele>243.5</ele>
        <time>2016-02-14T12:26:14Z</time>
      </trkpt>
      <trkpt lat="43.61196" lon="3.42087">
        <ele>243</ele>
        <time>2016-02-14T12:26:15Z</time>
      </trkpt>
      <trkpt lat="43.61197" lon="3.42086">
        <ele>242.5</ele>
        <time>2016-02-14T12:26:16Z</time>
      </trkpt>
      <trkpt lat="43.61198" lon="3.42084">
        <ele>242.5</ele>
        <time>2016-02-14T12:26:17Z</time>
      </trkpt>
      <trkpt lat="43.61199" lon="3.42082">
        <ele>242.5</ele>
        <time>2016-02-14T12:26:18Z</time>
      </trkpt>
      <trkpt lat="43.612" lon="3.4208">
        <ele>242.5</ele>
        <time>2016-02-14T12:26:19Z</time>
      </trkpt>
      <trkpt lat="43.61201" lon="3.42079">
        <ele>242.5</ele>
        <time>2016-02-14T12:26:20Z</time>
      </trkpt>
      <trkpt lat="43.61202" lon="3.42077">
        <ele>242.5</ele>
        <time>2016-02-14T12:26:21Z</time>
      </trkpt>
      <trkpt lat="43.61203" lon="3.42076">
        <ele>242</ele>
        <time>2016-02-14T12:26:22Z</time>
      </trkpt>
      <trkpt lat="43.61204" lon="3.42074">
        <ele>242</ele>
        <time>2016-02-14T12:26:23Z</time>
      </trkpt>
      <trkpt lat="43.61205" lon="3.42071">
        <ele>242.5</ele>
        <time>2016-02-14T12:26:24Z</time>
      </trkpt>
      <trkpt lat="43.61206" lon="3.4207">
        <ele>242</ele>
        <time>2016-02-14T12:26:25Z</time>
      </trkpt>
      <trkpt lat="43.61207" lon="3.42068">
        <ele>242</ele>
        <time>2016-02-14T12:26:26Z</time>
      </trkpt>
      <trkpt lat="43.61208" lon="3.42066">
        <ele>242.5</ele>
        <time>2016-02-14T12:26:27Z</time>
      </trkpt>
      <trkpt lat="43.61208" lon="3.42065">
        <ele>243</ele>
        <time>2016-02-14T12:26:28Z</time>
      </trkpt>
      <trkpt lat="43.61209" lon="3.42063">
        <ele>243.5</ele>
        <time>2016-02-14T12:26:29Z</time>
      </trkpt>
      <trkpt lat="43.6121" lon="3.4206">
        <ele>243.5</ele>
        <time>2016-02-14T12:26:30Z</time>
      </trkpt>
      <trkpt lat="43.6121" lon="3.42059">
        <ele>243.5</ele>
        <time>2016-02-14T12:26:31Z</time>
      </trkpt>
      <trkpt lat="43.61211" lon="3.42056">
        <ele>243.5</ele>
        <time>2016-02-14T12:26:32Z</time>
      </trkpt>
      <trkpt lat="43.61212" lon="3.42054">
        <ele>244</ele>
        <time>2016-02-14T12:26:33Z</time>
      </trkpt>
      <trkpt lat="43.61213" lon="3.42052">
        <ele>244</ele>
        <time>2016-02-14T12:26:34Z</time>
      </trkpt>
      <trkpt lat="43.61213" lon="3.4205">
        <ele>244.5</ele>
        <time>2016-02-14T12:26:35Z</time>
      </trkpt>
      <trkpt lat="43.61213" lon="3.42047">
        <ele>245</ele>
        <time>2016-02-14T12:26:36Z</time>
      </trkpt>
      <trkpt lat="43.61213" lon="3.42045">
        <ele>245</ele>
        <time>2016-02-14T12:26:37Z</time>
      </trkpt>
      <trkpt lat="43.61213" lon="3.42043">
        <ele>246</ele>
        <time>2016-02-14T12:26:38Z</time>
      </trkpt>
      <trkpt lat="43.61213" lon="3.4204">
        <ele>246</ele>
        <time>2016-02-14T12:26:39Z</time>
      </trkpt>
      <trkpt lat="43.61213" lon="3.42038">
        <ele>246</ele>
        <time>2016-02-14T12:26:40Z</time>
      </trkpt>
      <trkpt lat="43.61214" lon="3.42036">
        <ele>246</ele>
        <time>2016-02-14T12:26:41Z</time>
      </trkpt>
      <trkpt lat="43.61214" lon="3.42033">
        <ele>246</ele>
        <time>2016-02-14T12:26:42Z</time>
      </trkpt>
      <trkpt lat="43.61215" lon="3.42031">
        <ele>245.5</ele>
        <time>2016-02-14T12:26:43Z</time>
      </trkpt>
      <trkpt lat="43.61216" lon="3.42029">
        <ele>245.5</ele>
        <time>2016-02-14T12:26:44Z</time>
      </trkpt>
      <trkpt lat="43.61216" lon="3.42027">
        <ele>245.5</ele>
        <time>2016-02-14T12:26:45Z</time>
      </trkpt>
      <trkpt lat="43.61217" lon="3.42024">
        <ele>245.5</ele>
        <time>2016-02-14T12:26:46Z</time>
      </trkpt>
      <trkpt lat="43.61217" lon="3.42022">
        <ele>245.5</ele>
        <time>2016-02-14T12:26:47Z</time>
      </trkpt>
      <trkpt lat="43.61217" lon="3.42019">
        <ele>246</ele>
        <time>2016-02-14T12:26:48Z</time>
      </trkpt>
      <trkpt lat="43.61217" lon="3.42017">
        <ele>247</ele>
        <time>2016-02-14T12:26:49Z</time>
      </trkpt>
      <trkpt lat="43.61217" lon="3.42014">
        <ele>247</ele>
        <time>2016-02-14T12:26:50Z</time>
      </trkpt>
      <trkpt lat="43.61217" lon="3.42011">
        <ele>247.5</ele>
        <time>2016-02-14T12:26:51Z</time>
      </trkpt>
      <trkpt lat="43.61217" lon="3.42009">
        <ele>248</ele>
        <time>2016-02-14T12:26:52Z</time>
      </trkpt>
      <trkpt lat="43.61217" lon="3.42007">
        <ele>248.5</ele>
        <time>2016-02-14T12:26:53Z</time>
      </trkpt>
      <trkpt lat="43.61216" lon="3.42004">
        <ele>249</ele>
        <time>2016-02-14T12:26:54Z</time>
      </trkpt>
      <trkpt lat="43.61216" lon="3.42002">
        <ele>249</ele>
        <time>2016-02-14T12:26:55Z</time>
      </trkpt>
      <trkpt lat="43.61216" lon="3.41999">
        <ele>248.5</ele>
        <time>2016-02-14T12:26:56Z</time>
      </trkpt>
      <trkpt lat="43.61216" lon="3.41997">
        <ele>249</ele>
        <time>2016-02-14T12:26:57Z</time>
      </trkpt>
      <trkpt lat="43.61216" lon="3.41994">
        <ele>249.5</ele>
        <time>2016-02-14T12:26:58Z</time>
      </trkpt>
      <trkpt lat="43.61216" lon="3.41992">
        <ele>249</ele>
        <time>2016-02-14T12:26:59Z</time>
      </trkpt>
      <trkpt lat="43.61216" lon="3.41989">
        <ele>249.5</ele>
        <time>2016-02-14T12:27:00Z</time>
      </trkpt>
      <trkpt lat="43.61215" lon="3.41988">
        <ele>251</ele>
        <time>2016-02-14T12:27:01Z</time>
      </trkpt>
      <trkpt lat="43.61215" lon="3.41985">
        <ele>251.5</ele>
        <time>2016-02-14T12:27:02Z</time>
      </trkpt>
      <trkpt lat="43.61214" lon="3.41984">
        <ele>252</ele>
        <time>2016-02-14T12:27:03Z</time>
      </trkpt>
      <trkpt lat="43.61213" lon="3.41982">
        <ele>252.5</ele>
        <time>2016-02-14T12:27:04Z</time>
      </trkpt>
      <trkpt lat="43.61211" lon="3.41982">
        <ele>253.5</ele>
        <time>2016-02-14T12:27:05Z</time>
      </trkpt>
      <trkpt lat="43.6121" lon="3.41981">
        <ele>254</ele>
        <time>2016-02-14T12:27:06Z</time>
      </trkpt>
      <trkpt lat="43.61209" lon="3.4198">
        <ele>254.5</ele>
        <time>2016-02-14T12:27:07Z</time>
      </trkpt>
      <trkpt lat="43.61207" lon="3.41979">
        <ele>254.5</ele>
        <time>2016-02-14T12:27:08Z</time>
      </trkpt>
      <trkpt lat="43.61206" lon="3.41978">
        <ele>255</ele>
        <time>2016-02-14T12:27:09Z</time>
      </trkpt>
      <trkpt lat="43.61204" lon="3.41978">
        <ele>255</ele>
        <time>2016-02-14T12:27:10Z</time>
      </trkpt>
      <trkpt lat="43.61203" lon="3.41977">
        <ele>255.5</ele>
        <time>2016-02-14T12:27:11Z</time>
      </trkpt>
      <trkpt lat="43.61201" lon="3.41977">
        <ele>256</ele>
        <time>2016-02-14T12:27:12Z</time>
      </trkpt>
      <trkpt lat="43.612" lon="3.41976">
        <ele>256</ele>
        <time>2016-02-14T12:27:13Z</time>
      </trkpt>
      <trkpt lat="43.61198" lon="3.41976">
        <ele>256</ele>
        <time>2016-02-14T12:27:14Z</time>
      </trkpt>
      <trkpt lat="43.61197" lon="3.41976">
        <ele>256.5</ele>
        <time>2016-02-14T12:27:15Z</time>
      </trkpt>
      <trkpt lat="43.61195" lon="3.41975">
        <ele>256.5</ele>
        <time>2016-02-14T12:27:16Z</time>
      </trkpt>
      <trkpt lat="43.61194" lon="3.41975">
        <ele>257</ele>
        <time>2016-02-14T12:27:17Z</time>
      </trkpt>
      <trkpt lat="43.61192" lon="3.41975">
        <ele>257</ele>
        <time>2016-02-14T12:27:18Z</time>
      </trkpt>
      <trkpt lat="43.6119" lon="3.41973">
        <ele>255</ele>
        <time>2016-02-14T12:27:19Z</time>
      </trkpt>
      <trkpt lat="43.61188" lon="3.41972">
        <ele>254.5</ele>
        <time>2016-02-14T12:27:20Z</time>
      </trkpt>
      <trkpt lat="43.61186" lon="3.4197">
        <ele>255</ele>
        <time>2016-02-14T12:27:20Z</time>
      </trkpt>
      <trkpt lat="43.61183" lon="3.41968">
        <ele>255.5</ele>
        <time>2016-02-14T12:27:22Z</time>
      </trkpt>
      <trkpt lat="43.6118" lon="3.41966">
        <ele>255.5</ele>
        <time>2016-02-14T12:27:22Z</time>
      </trkpt>
      <trkpt lat="43.61178" lon="3.41962">
        <ele>255</ele>
        <time>2016-02-14T12:27:23Z</time>
      </trkpt>
      <trkpt lat="43.61177" lon="3.41957">
        <ele>255</ele>
        <time>2016-02-14T12:27:24Z</time>
      </trkpt>
      <trkpt lat="43.61176" lon="3.41951">
        <ele>254.5</ele>
        <time>2016-02-14T12:27:25Z</time>
      </trkpt>
      <trkpt lat="43.61175" lon="3.41945">
        <ele>255</ele>
        <time>2016-02-14T12:27:26Z</time>
      </trkpt>
      <trkpt lat="43.61174" lon="3.4194">
        <ele>255</ele>
        <time>2016-02-14T12:27:27Z</time>
      </trkpt>
      <trkpt lat="43.61173" lon="3.41934">
        <ele>254.5</ele>
        <time>2016-02-14T12:27:28Z</time>
      </trkpt>
      <trkpt lat="43.61171" lon="3.41928">
        <ele>255</ele>
        <time>2016-02-14T12:27:29Z</time>
      </trkpt>
      <trkpt lat="43.6117" lon="3.41922">
        <ele>254.5</ele>
        <time>2016-02-14T12:27:31Z</time>
      </trkpt>
      <trkpt lat="43.61169" lon="3.41916">
        <ele>254</ele>
        <time>2016-02-14T12:27:31Z</time>
      </trkpt>
      <trkpt lat="43.61168" lon="3.4191">
        <ele>254</ele>
        <time>2016-02-14T12:27:33Z</time>
      </trkpt>
      <trkpt lat="43.61167" lon="3.41903">
        <ele>253.5</ele>
        <time>2016-02-14T12:27:33Z</time>
      </trkpt>
      <trkpt lat="43.61164" lon="3.41899">
        <ele>254</ele>
        <time>2016-02-14T12:27:34Z</time>
      </trkpt>
      <trkpt lat="43.6116" lon="3.41898">
        <ele>254</ele>
        <time>2016-02-14T12:27:35Z</time>
      </trkpt>
      <trkpt lat="43.61158" lon="3.41894">
        <ele>253</ele>
        <time>2016-02-14T12:27:36Z</time>
      </trkpt>
      <trkpt lat="43.61154" lon="3.41892">
        <ele>253</ele>
        <time>2016-02-14T12:27:37Z</time>
      </trkpt>
      <trkpt lat="43.61152" lon="3.41889">
        <ele>253.5</ele>
        <time>2016-02-14T12:27:38Z</time>
      </trkpt>
      <trkpt lat="43.61149" lon="3.41887">
        <ele>253.5</ele>
        <time>2016-02-14T12:27:39Z</time>
      </trkpt>
      <trkpt lat="43.61146" lon="3.41886">
        <ele>253.5</ele>
        <time>2016-02-14T12:27:40Z</time>
      </trkpt>
      <trkpt lat="43.61144" lon="3.41885">
        <ele>253.5</ele>
        <time>2016-02-14T12:27:41Z</time>
      </trkpt>
      <trkpt lat="43.61142" lon="3.41883">
        <ele>253</ele>
        <time>2016-02-14T12:27:42Z</time>
      </trkpt>
      <trkpt lat="43.6114" lon="3.41881">
        <ele>253.5</ele>
        <time>2016-02-14T12:27:44Z</time>
      </trkpt>
      <trkpt lat="43.61139" lon="3.41878">
        <ele>253.5</ele>
        <time>2016-02-14T12:27:44Z</time>
      </trkpt>
      <trkpt lat="43.61138" lon="3.41875">
        <ele>253.5</ele>
        <time>2016-02-14T12:27:45Z</time>
      </trkpt>
      <trkpt lat="43.61138" lon="3.41871">
        <ele>253.5</ele>
        <time>2016-02-14T12:27:46Z</time>
      </trkpt>
      <trkpt lat="43.61138" lon="3.41868">
        <ele>254.5</ele>
        <time>2016-02-14T12:27:47Z</time>
      </trkpt>
      <trkpt lat="43.61139" lon="3.41865">
        <ele>255</ele>
        <time>2016-02-14T12:27:48Z</time>
      </trkpt>
      <trkpt lat="43.6114" lon="3.41862">
        <ele>255</ele>
        <time>2016-02-14T12:27:50Z</time>
      </trkpt>
      <trkpt lat="43.61141" lon="3.4186">
        <ele>255</ele>
        <time>2016-02-14T12:27:50Z</time>
      </trkpt>
      <trkpt lat="43.61142" lon="3.41857">
        <ele>255</ele>
        <time>2016-02-14T12:27:51Z</time>
      </trkpt>
      <trkpt lat="43.61142" lon="3.41854">
        <ele>255</ele>
        <time>2016-02-14T12:27:52Z</time>
      </trkpt>
      <trkpt lat="43.61142" lon="3.41851">
        <ele>256.5</ele>
        <time>2016-02-14T12:27:53Z</time>
      </trkpt>
      <trkpt lat="43.61143" lon="3.41848">
        <ele>257</ele>
        <time>2016-02-14T12:27:54Z</time>
      </trkpt>
      <trkpt lat="43.61143" lon="3.41845">
        <ele>257.5</ele>
        <time>2016-02-14T12:27:55Z</time>
      </trkpt>
      <trkpt lat="43.61144" lon="3.41843">
        <ele>258</ele>
        <time>2016-02-14T12:27:56Z</time>
      </trkpt>
      <trkpt lat="43.61144" lon="3.41841">
        <ele>258</ele>
        <time>2016-02-14T12:27:58Z</time>
      </trkpt>
      <trkpt lat="43.61145" lon="3.41838">
        <ele>257.5</ele>
        <time>2016-02-14T12:27:58Z</time>
      </trkpt>
      <trkpt lat="43.61145" lon="3.41835">
        <ele>258</ele>
        <time>2016-02-14T12:27:59Z</time>
      </trkpt>
      <trkpt lat="43.61145" lon="3.41833">
        <ele>257.5</ele>
        <time>2016-02-14T12:28:00Z</time>
      </trkpt>
      <trkpt lat="43.61146" lon="3.41831">
        <ele>258</ele>
        <time>2016-02-14T12:28:01Z</time>
      </trkpt>
      <trkpt lat="43.61146" lon="3.41829">
        <ele>259</ele>
        <time>2016-02-14T12:28:02Z</time>
      </trkpt>
      <trkpt lat="43.61145" lon="3.41826">
        <ele>259.5</ele>
        <time>2016-02-14T12:28:03Z</time>
      </trkpt>
      <trkpt lat="43.61145" lon="3.41824">
        <ele>260.5</ele>
        <time>2016-02-14T12:28:04Z</time>
      </trkpt>
      <trkpt lat="43.61146" lon="3.41822">
        <ele>260.5</ele>
        <time>2016-02-14T12:28:05Z</time>
      </trkpt>
      <trkpt lat="43.61146" lon="3.41819">
        <ele>261</ele>
        <time>2016-02-14T12:28:06Z</time>
      </trkpt>
      <trkpt lat="43.61146" lon="3.41817">
        <ele>261.5</ele>
        <time>2016-02-14T12:28:07Z</time>
      </trkpt>
      <trkpt lat="43.61145" lon="3.41814">
        <ele>263</ele>
        <time>2016-02-14T12:28:08Z</time>
      </trkpt>
      <trkpt lat="43.61145" lon="3.41812">
        <ele>263.5</ele>
        <time>2016-02-14T12:28:09Z</time>
      </trkpt>
      <trkpt lat="43.61146" lon="3.4181">
        <ele>263.5</ele>
        <time>2016-02-14T12:28:10Z</time>
      </trkpt>
      <trkpt lat="43.61146" lon="3.41809">
        <ele>263.5</ele>
        <time>2016-02-14T12:28:12Z</time>
      </trkpt>
      <trkpt lat="43.61146" lon="3.41807">
        <ele>263.5</ele>
        <time>2016-02-14T12:28:12Z</time>
      </trkpt>
      <trkpt lat="43.61146" lon="3.41804">
        <ele>263.5</ele>
        <time>2016-02-14T12:28:14Z</time>
      </trkpt>
      <trkpt lat="43.61146" lon="3.41802">
        <ele>263</ele>
        <time>2016-02-14T12:28:14Z</time>
      </trkpt>
      <trkpt lat="43.61146" lon="3.41799">
        <ele>263.5</ele>
        <time>2016-02-14T12:28:15Z</time>
      </trkpt>
      <trkpt lat="43.61146" lon="3.41797">
        <ele>264</ele>
        <time>2016-02-14T12:28:17Z</time>
      </trkpt>
      <trkpt lat="43.61145" lon="3.41793">
        <ele>265.5</ele>
        <time>2016-02-14T12:28:18Z</time>
      </trkpt>
      <trkpt lat="43.61145" lon="3.41791">
        <ele>266</ele>
        <time>2016-02-14T12:28:19Z</time>
      </trkpt>
      <trkpt lat="43.61146" lon="3.41788">
        <ele>266</ele>
        <time>2016-02-14T12:28:20Z</time>
      </trkpt>
      <trkpt lat="43.61146" lon="3.41786">
        <ele>266</ele>
        <time>2016-02-14T12:28:21Z</time>
      </trkpt>
      <trkpt lat="43.61147" lon="3.41784">
        <ele>266</ele>
        <time>2016-02-14T12:28:22Z</time>
      </trkpt>
      <trkpt lat="43.61147" lon="3.41782">
        <ele>266</ele>
        <time>2016-02-14T12:28:23Z</time>
      </trkpt>
      <trkpt lat="43.61147" lon="3.41781">
        <ele>266</ele>
        <time>2016-02-14T12:28:24Z</time>
      </trkpt>
      <trkpt lat="43.61147" lon="3.41779">
        <ele>266</ele>
        <time>2016-02-14T12:28:25Z</time>
      </trkpt>
      <trkpt lat="43.61147" lon="3.41777">
        <ele>265.5</ele>
        <time>2016-02-14T12:28:26Z</time>
      </trkpt>
      <trkpt lat="43.61148" lon="3.41774">
        <ele>266</ele>
        <time>2016-02-14T12:28:27Z</time>
      </trkpt>
      <trkpt lat="43.61148" lon="3.41772">
        <ele>266</ele>
        <time>2016-02-14T12:28:28Z</time>
      </trkpt>
      <trkpt lat="43.61149" lon="3.4177">
        <ele>265.5</ele>
        <time>2016-02-14T12:28:29Z</time>
      </trkpt>
      <trkpt lat="43.61149" lon="3.41768">
        <ele>265</ele>
        <time>2016-02-14T12:28:30Z</time>
      </trkpt>
      <trkpt lat="43.6115" lon="3.41766">
        <ele>265</ele>
        <time>2016-02-14T12:28:31Z</time>
      </trkpt>
      <trkpt lat="43.6115" lon="3.41764">
        <ele>265.5</ele>
        <time>2016-02-14T12:28:32Z</time>
      </trkpt>
      <trkpt lat="43.6115" lon="3.41761">
        <ele>266</ele>
        <time>2016-02-14T12:28:33Z</time>
      </trkpt>
      <trkpt lat="43.61151" lon="3.41759">
        <ele>266</ele>
        <time>2016-02-14T12:28:34Z</time>
      </trkpt>
      <trkpt lat="43.61151" lon="3.41757">
        <ele>266.5</ele>
        <time>2016-02-14T12:28:35Z</time>
      </trkpt>
      <trkpt lat="43.61152" lon="3.41755">
        <ele>266</ele>
        <time>2016-02-14T12:28:36Z</time>
      </trkpt>
      <trkpt lat="43.61153" lon="3.41752">
        <ele>265.5</ele>
        <time>2016-02-14T12:28:37Z</time>
      </trkpt>
      <trkpt lat="43.61153" lon="3.4175">
        <ele>265</ele>
        <time>2016-02-14T12:28:38Z</time>
      </trkpt>
      <trkpt lat="43.61154" lon="3.41748">
        <ele>265</ele>
        <time>2016-02-14T12:28:39Z</time>
      </trkpt>
      <trkpt lat="43.61154" lon="3.41746">
        <ele>264.5</ele>
        <time>2016-02-14T12:28:40Z</time>
      </trkpt>
      <trkpt lat="43.61155" lon="3.41744">
        <ele>264</ele>
        <time>2016-02-14T12:28:41Z</time>
      </trkpt>
      <trkpt lat="43.61156" lon="3.41742">
        <ele>264.5</ele>
        <time>2016-02-14T12:28:42Z</time>
      </trkpt>
      <trkpt lat="43.61156" lon="3.4174">
        <ele>264.5</ele>
        <time>2016-02-14T12:28:43Z</time>
      </trkpt>
      <trkpt lat="43.61156" lon="3.41738">
        <ele>265</ele>
        <time>2016-02-14T12:28:44Z</time>
      </trkpt>
      <trkpt lat="43.61156" lon="3.41736">
        <ele>265.5</ele>
        <time>2016-02-14T12:28:45Z</time>
      </trkpt>
      <trkpt lat="43.61156" lon="3.41734">
        <ele>265.5</ele>
        <time>2016-02-14T12:28:46Z</time>
      </trkpt>
      <trkpt lat="43.61158" lon="3.41733">
        <ele>264</ele>
        <time>2016-02-14T12:28:47Z</time>
      </trkpt>
      <trkpt lat="43.61157" lon="3.4173">
        <ele>265</ele>
        <time>2016-02-14T12:28:48Z</time>
      </trkpt>
      <trkpt lat="43.61158" lon="3.41728">
        <ele>265</ele>
        <time>2016-02-14T12:28:49Z</time>
      </trkpt>
      <trkpt lat="43.61158" lon="3.41725">
        <ele>265</ele>
        <time>2016-02-14T12:28:50Z</time>
      </trkpt>
      <trkpt lat="43.61158" lon="3.41723">
        <ele>265</ele>
        <time>2016-02-14T12:28:51Z</time>
      </trkpt>
      <trkpt lat="43.61159" lon="3.41721">
        <ele>265.5</ele>
        <time>2016-02-14T12:28:52Z</time>
      </trkpt>
      <trkpt lat="43.61159" lon="3.41719">
        <ele>265.5</ele>
        <time>2016-02-14T12:28:53Z</time>
      </trkpt>
      <trkpt lat="43.61159" lon="3.41717">
        <ele>265.5</ele>
        <time>2016-02-14T12:28:54Z</time>
      </trkpt>
      <trkpt lat="43.61159" lon="3.41715">
        <ele>265.5</ele>
        <time>2016-02-14T12:28:55Z</time>
      </trkpt>
      <trkpt lat="43.61159" lon="3.41713">
        <ele>266</ele>
        <time>2016-02-14T12:28:56Z</time>
      </trkpt>
      <trkpt lat="43.61159" lon="3.4171">
        <ele>266.5</ele>
        <time>2016-02-14T12:28:57Z</time>
      </trkpt>
      <trkpt lat="43.6116" lon="3.41708">
        <ele>266.5</ele>
        <time>2016-02-14T12:28:58Z</time>
      </trkpt>
      <trkpt lat="43.6116" lon="3.41706">
        <ele>267</ele>
        <time>2016-02-14T12:28:59Z</time>
      </trkpt>
      <trkpt lat="43.61161" lon="3.41704">
        <ele>267</ele>
        <time>2016-02-14T12:29:00Z</time>
      </trkpt>
      <trkpt lat="43.61161" lon="3.41702">
        <ele>267</ele>
        <time>2016-02-14T12:29:01Z</time>
      </trkpt>
      <trkpt lat="43.61161" lon="3.417">
        <ele>267</ele>
        <time>2016-02-14T12:29:02Z</time>
      </trkpt>
      <trkpt lat="43.61162" lon="3.41698">
        <ele>267.5</ele>
        <time>2016-02-14T12:29:03Z</time>
      </trkpt>
      <trkpt lat="43.61162" lon="3.41696">
        <ele>267</ele>
        <time>2016-02-14T12:29:04Z</time>
      </trkpt>
      <trkpt lat="43.61162" lon="3.41694">
        <ele>267.5</ele>
        <time>2016-02-14T12:29:05Z</time>
      </trkpt>
      <trkpt lat="43.61163" lon="3.41692">
        <ele>267.5</ele>
        <time>2016-02-14T12:29:06Z</time>
      </trkpt>
      <trkpt lat="43.61163" lon="3.4169">
        <ele>268</ele>
        <time>2016-02-14T12:29:07Z</time>
      </trkpt>
      <trkpt lat="43.61163" lon="3.41688">
        <ele>268.5</ele>
        <time>2016-02-14T12:29:08Z</time>
      </trkpt>
      <trkpt lat="43.61164" lon="3.41686">
        <ele>268.5</ele>
        <time>2016-02-14T12:29:09Z</time>
      </trkpt>
      <trkpt lat="43.61165" lon="3.41684">
        <ele>268.5</ele>
        <time>2016-02-14T12:29:10Z</time>
      </trkpt>
      <trkpt lat="43.61165" lon="3.41681">
        <ele>269</ele>
        <time>2016-02-14T12:29:11Z</time>
      </trkpt>
      <trkpt lat="43.61166" lon="3.41679">
        <ele>269</ele>
        <time>2016-02-14T12:29:12Z</time>
      </trkpt>
      <trkpt lat="43.61166" lon="3.41677">
        <ele>269</ele>
        <time>2016-02-14T12:29:13Z</time>
      </trkpt>
      <trkpt lat="43.61167" lon="3.41674">
        <ele>269</ele>
        <time>2016-02-14T12:29:14Z</time>
      </trkpt>
      <trkpt lat="43.61167" lon="3.41672">
        <ele>269.5</ele>
        <time>2016-02-14T12:29:15Z</time>
      </trkpt>
      <trkpt lat="43.61168" lon="3.4167">
        <ele>269.5</ele>
        <time>2016-02-14T12:29:16Z</time>
      </trkpt>
      <trkpt lat="43.61168" lon="3.41668">
        <ele>270</ele>
        <time>2016-02-14T12:29:17Z</time>
      </trkpt>
      <trkpt lat="43.61169" lon="3.41665">
        <ele>270.5</ele>
        <time>2016-02-14T12:29:18Z</time>
      </trkpt>
      <trkpt lat="43.6117" lon="3.41663">
        <ele>270</ele>
        <time>2016-02-14T12:29:19Z</time>
      </trkpt>
      <trkpt lat="43.6117" lon="3.41661">
        <ele>270</ele>
        <time>2016-02-14T12:29:20Z</time>
      </trkpt>
      <trkpt lat="43.61171" lon="3.41658">
        <ele>270</ele>
        <time>2016-02-14T12:29:21Z</time>
      </trkpt>
      <trkpt lat="43.61171" lon="3.41656">
        <ele>270.5</ele>
        <time>2016-02-14T12:29:22Z</time>
      </trkpt>
      <trkpt lat="43.61172" lon="3.41653">
        <ele>271</ele>
        <time>2016-02-14T12:29:23Z</time>
      </trkpt>
      <trkpt lat="43.61172" lon="3.41651">
        <ele>271</ele>
        <time>2016-02-14T12:29:24Z</time>
      </trkpt>
      <trkpt lat="43.61173" lon="3.41648">
        <ele>271.5</ele>
        <time>2016-02-14T12:29:25Z</time>
      </trkpt>
      <trkpt lat="43.61173" lon="3.41646">
        <ele>272.5</ele>
        <time>2016-02-14T12:29:26Z</time>
      </trkpt>
      <trkpt lat="43.61173" lon="3.41643">
        <ele>273.5</ele>
        <time>2016-02-14T12:29:27Z</time>
      </trkpt>
      <trkpt lat="43.61174" lon="3.41641">
        <ele>273</ele>
        <time>2016-02-14T12:29:28Z</time>
      </trkpt>
      <trkpt lat="43.61174" lon="3.41638">
        <ele>274</ele>
        <time>2016-02-14T12:29:29Z</time>
      </trkpt>
      <trkpt lat="43.61175" lon="3.41635">
        <ele>274</ele>
        <time>2016-02-14T12:29:30Z</time>
      </trkpt>
      <trkpt lat="43.61175" lon="3.41632">
        <ele>274.5</ele>
        <time>2016-02-14T12:29:31Z</time>
      </trkpt>
      <trkpt lat="43.61176" lon="3.41629">
        <ele>275</ele>
        <time>2016-02-14T12:29:32Z</time>
      </trkpt>
      <trkpt lat="43.61176" lon="3.41627">
        <ele>275.5</ele>
        <time>2016-02-14T12:29:33Z</time>
      </trkpt>
      <trkpt lat="43.61177" lon="3.41624">
        <ele>275.5</ele>
        <time>2016-02-14T12:29:34Z</time>
      </trkpt>
      <trkpt lat="43.61178" lon="3.41621">
        <ele>275.5</ele>
        <time>2016-02-14T12:29:35Z</time>
      </trkpt>
      <trkpt lat="43.61179" lon="3.41618">
        <ele>275</ele>
        <time>2016-02-14T12:29:36Z</time>
      </trkpt>
      <trkpt lat="43.6118" lon="3.41615">
        <ele>275</ele>
        <time>2016-02-14T12:29:37Z</time>
      </trkpt>
      <trkpt lat="43.6118" lon="3.41612">
        <ele>275</ele>
        <time>2016-02-14T12:29:38Z</time>
      </trkpt>
      <trkpt lat="43.61181" lon="3.41608">
        <ele>275.5</ele>
        <time>2016-02-14T12:29:39Z</time>
      </trkpt>
      <trkpt lat="43.61181" lon="3.41605">
        <ele>275.5</ele>
        <time>2016-02-14T12:29:40Z</time>
      </trkpt>
      <trkpt lat="43.61182" lon="3.41602">
        <ele>275.5</ele>
        <time>2016-02-14T12:29:41Z</time>
      </trkpt>
      <trkpt lat="43.61183" lon="3.41598">
        <ele>275</ele>
        <time>2016-02-14T12:29:42Z</time>
      </trkpt>
      <trkpt lat="43.61184" lon="3.41595">
        <ele>275</ele>
        <time>2016-02-14T12:29:43Z</time>
      </trkpt>
      <trkpt lat="43.61184" lon="3.41591">
        <ele>275</ele>
        <time>2016-02-14T12:29:44Z</time>
      </trkpt>
      <trkpt lat="43.61184" lon="3.41587">
        <ele>275</ele>
        <time>2016-02-14T12:29:45Z</time>
      </trkpt>
      <trkpt lat="43.61184" lon="3.41584">
        <ele>275</ele>
        <time>2016-02-14T12:29:46Z</time>
      </trkpt>
      <trkpt lat="43.61184" lon="3.4158">
        <ele>275</ele>
        <time>2016-02-14T12:29:47Z</time>
      </trkpt>
      <trkpt lat="43.61184" lon="3.41576">
        <ele>275.5</ele>
        <time>2016-02-14T12:29:48Z</time>
      </trkpt>
      <trkpt lat="43.61184" lon="3.41573">
        <ele>276</ele>
        <time>2016-02-14T12:29:49Z</time>
      </trkpt>
      <trkpt lat="43.61185" lon="3.41569">
        <ele>276</ele>
        <time>2016-02-14T12:29:50Z</time>
      </trkpt>
      <trkpt lat="43.61185" lon="3.41566">
        <ele>276</ele>
        <time>2016-02-14T12:29:51Z</time>
      </trkpt>
      <trkpt lat="43.61185" lon="3.41563">
        <ele>276.5</ele>
        <time>2016-02-14T12:29:52Z</time>
      </trkpt>
      <trkpt lat="43.61185" lon="3.41559">
        <ele>277</ele>
        <time>2016-02-14T12:29:53Z</time>
      </trkpt>
      <trkpt lat="43.61185" lon="3.41556">
        <ele>277.5</ele>
        <time>2016-02-14T12:29:54Z</time>
      </trkpt>
      <trkpt lat="43.61185" lon="3.41553">
        <ele>277.5</ele>
        <time>2016-02-14T12:29:55Z</time>
      </trkpt>
      <trkpt lat="43.61185" lon="3.4155">
        <ele>278</ele>
        <time>2016-02-14T12:29:56Z</time>
      </trkpt>
      <trkpt lat="43.61185" lon="3.41546">
        <ele>278.5</ele>
        <time>2016-02-14T12:29:57Z</time>
      </trkpt>
      <trkpt lat="43.61186" lon="3.41543">
        <ele>278</ele>
        <time>2016-02-14T12:29:58Z</time>
      </trkpt>
      <trkpt lat="43.61186" lon="3.4154">
        <ele>278.5</ele>
        <time>2016-02-14T12:29:59Z</time>
      </trkpt>
      <trkpt lat="43.61187" lon="3.41536">
        <ele>279</ele>
        <time>2016-02-14T12:30:00Z</time>
      </trkpt>
      <trkpt lat="43.61187" lon="3.41533">
        <ele>279</ele>
        <time>2016-02-14T12:30:01Z</time>
      </trkpt>
      <trkpt lat="43.61188" lon="3.4153">
        <ele>280</ele>
        <time>2016-02-14T12:30:02Z</time>
      </trkpt>
      <trkpt lat="43.61189" lon="3.41526">
        <ele>280</ele>
        <time>2016-02-14T12:30:03Z</time>
      </trkpt>
      <trkpt lat="43.6119" lon="3.41523">
        <ele>280</ele>
        <time>2016-02-14T12:30:04Z</time>
      </trkpt>
      <trkpt lat="43.61191" lon="3.4152">
        <ele>280</ele>
        <time>2016-02-14T12:30:05Z</time>
      </trkpt>
      <trkpt lat="43.61194" lon="3.41513">
        <ele>280</ele>
        <time>2016-02-14T12:30:07Z</time>
      </trkpt>
      <trkpt lat="43.61195" lon="3.4151">
        <ele>280.5</ele>
        <time>2016-02-14T12:30:08Z</time>
      </trkpt>
      <trkpt lat="43.61196" lon="3.41507">
        <ele>280.5</ele>
        <time>2016-02-14T12:30:09Z</time>
      </trkpt>
      <trkpt lat="43.61198" lon="3.41503">
        <ele>280.5</ele>
        <time>2016-02-14T12:30:10Z</time>
      </trkpt>
      <trkpt lat="43.61198" lon="3.415">
        <ele>280.5</ele>
        <time>2016-02-14T12:30:11Z</time>
      </trkpt>
      <trkpt lat="43.61199" lon="3.41497">
        <ele>281</ele>
        <time>2016-02-14T12:30:12Z</time>
      </trkpt>
      <trkpt lat="43.61199" lon="3.41493">
        <ele>281.5</ele>
        <time>2016-02-14T12:30:13Z</time>
      </trkpt>
      <trkpt lat="43.61201" lon="3.41491">
        <ele>279.5</ele>
        <time>2016-02-14T12:30:14Z</time>
      </trkpt>
      <trkpt lat="43.61202" lon="3.41487">
        <ele>279</ele>
        <time>2016-02-14T12:30:15Z</time>
      </trkpt>
      <trkpt lat="43.61204" lon="3.41484">
        <ele>278.5</ele>
        <time>2016-02-14T12:30:16Z</time>
      </trkpt>
      <trkpt lat="43.61205" lon="3.41481">
        <ele>278.5</ele>
        <time>2016-02-14T12:30:17Z</time>
      </trkpt>
      <trkpt lat="43.61206" lon="3.41477">
        <ele>278.5</ele>
        <time>2016-02-14T12:30:18Z</time>
      </trkpt>
      <trkpt lat="43.61207" lon="3.41474">
        <ele>278.5</ele>
        <time>2016-02-14T12:30:19Z</time>
      </trkpt>
      <trkpt lat="43.61208" lon="3.41471">
        <ele>278</ele>
        <time>2016-02-14T12:30:20Z</time>
      </trkpt>
      <trkpt lat="43.6121" lon="3.41468">
        <ele>277</ele>
        <time>2016-02-14T12:30:21Z</time>
      </trkpt>
      <trkpt lat="43.61211" lon="3.41465">
        <ele>276.5</ele>
        <time>2016-02-14T12:30:22Z</time>
      </trkpt>
      <trkpt lat="43.61212" lon="3.41463">
        <ele>276.5</ele>
        <time>2016-02-14T12:30:23Z</time>
      </trkpt>
      <trkpt lat="43.61214" lon="3.4146">
        <ele>276.5</ele>
        <time>2016-02-14T12:30:24Z</time>
      </trkpt>
      <trkpt lat="43.61215" lon="3.41458">
        <ele>276.5</ele>
        <time>2016-02-14T12:30:25Z</time>
      </trkpt>
      <trkpt lat="43.61216" lon="3.41456">
        <ele>276.5</ele>
        <time>2016-02-14T12:30:26Z</time>
      </trkpt>
      <trkpt lat="43.61217" lon="3.41453">
        <ele>276.5</ele>
        <time>2016-02-14T12:30:27Z</time>
      </trkpt>
      <trkpt lat="43.61218" lon="3.41451">
        <ele>277</ele>
        <time>2016-02-14T12:30:28Z</time>
      </trkpt>
      <trkpt lat="43.6122" lon="3.41448">
        <ele>276.5</ele>
        <time>2016-02-14T12:30:29Z</time>
      </trkpt>
      <trkpt lat="43.61222" lon="3.41444">
        <ele>276.5</ele>
        <time>2016-02-14T12:30:30Z</time>
      </trkpt>
      <trkpt lat="43.61223" lon="3.4144">
        <ele>276.5</ele>
        <time>2016-02-14T12:30:31Z</time>
      </trkpt>
      <trkpt lat="43.61226" lon="3.41437">
        <ele>275.5</ele>
        <time>2016-02-14T12:30:32Z</time>
      </trkpt>
      <trkpt lat="43.61229" lon="3.41433">
        <ele>274.5</ele>
        <time>2016-02-14T12:30:33Z</time>
      </trkpt>
      <trkpt lat="43.61232" lon="3.41428">
        <ele>274.5</ele>
        <time>2016-02-14T12:30:34Z</time>
      </trkpt>
      <trkpt lat="43.61236" lon="3.41423">
        <ele>273.5</ele>
        <time>2016-02-14T12:30:35Z</time>
      </trkpt>
      <trkpt lat="43.61239" lon="3.41419">
        <ele>272.5</ele>
        <time>2016-02-14T12:30:36Z</time>
      </trkpt>
      <trkpt lat="43.61244" lon="3.41414">
        <ele>271.5</ele>
        <time>2016-02-14T12:30:37Z</time>
      </trkpt>
      <trkpt lat="43.61249" lon="3.4141">
        <ele>270</ele>
        <time>2016-02-14T12:30:38Z</time>
      </trkpt>
      <trkpt lat="43.61254" lon="3.41406">
        <ele>269</ele>
        <time>2016-02-14T12:30:39Z</time>
      </trkpt>
      <trkpt lat="43.6126" lon="3.41403">
        <ele>268</ele>
        <time>2016-02-14T12:30:40Z</time>
      </trkpt>
      <trkpt lat="43.61265" lon="3.414">
        <ele>267</ele>
        <time>2016-02-14T12:30:41Z</time>
      </trkpt>
      <trkpt lat="43.61269" lon="3.41397">
        <ele>266.5</ele>
        <time>2016-02-14T12:30:42Z</time>
      </trkpt>
      <trkpt lat="43.61274" lon="3.41393">
        <ele>265.5</ele>
        <time>2016-02-14T12:30:43Z</time>
      </trkpt>
      <trkpt lat="43.61277" lon="3.41389">
        <ele>264.5</ele>
        <time>2016-02-14T12:30:44Z</time>
      </trkpt>
      <trkpt lat="43.61281" lon="3.41383">
        <ele>263.5</ele>
        <time>2016-02-14T12:30:45Z</time>
      </trkpt>
      <trkpt lat="43.61284" lon="3.41377">
        <ele>262</ele>
        <time>2016-02-14T12:30:46Z</time>
      </trkpt>
      <trkpt lat="43.61285" lon="3.4137">
        <ele>262</ele>
        <time>2016-02-14T12:30:47Z</time>
      </trkpt>
      <trkpt lat="43.61287" lon="3.41362">
        <ele>260.5</ele>
        <time>2016-02-14T12:30:48Z</time>
      </trkpt>
      <trkpt lat="43.61288" lon="3.41354">
        <ele>260.5</ele>
        <time>2016-02-14T12:30:48Z</time>
      </trkpt>
      <trkpt lat="43.61289" lon="3.41344">
        <ele>260</ele>
        <time>2016-02-14T12:30:49Z</time>
      </trkpt>
      <trkpt lat="43.6129" lon="3.41335">
        <ele>260</ele>
        <time>2016-02-14T12:30:51Z</time>
      </trkpt>
      <trkpt lat="43.6129" lon="3.41327">
        <ele>259</ele>
        <time>2016-02-14T12:30:51Z</time>
      </trkpt>
      <trkpt lat="43.61291" lon="3.41318">
        <ele>258</ele>
        <time>2016-02-14T12:30:52Z</time>
      </trkpt>
      <trkpt lat="43.6129" lon="3.41312">
        <ele>259</ele>
        <time>2016-02-14T12:30:54Z</time>
      </trkpt>
      <trkpt lat="43.6129" lon="3.41305">
        <ele>258</ele>
        <time>2016-02-14T12:30:54Z</time>
      </trkpt>
      <trkpt lat="43.6129" lon="3.41299">
        <ele>257</ele>
        <time>2016-02-14T12:30:56Z</time>
      </trkpt>
      <trkpt lat="43.6129" lon="3.41293">
        <ele>257</ele>
        <time>2016-02-14T12:30:56Z</time>
      </trkpt>
      <trkpt lat="43.6129" lon="3.41288">
        <ele>256</ele>
        <time>2016-02-14T12:30:57Z</time>
      </trkpt>
      <trkpt lat="43.6129" lon="3.41281">
        <ele>256</ele>
        <time>2016-02-14T12:30:58Z</time>
      </trkpt>
      <trkpt lat="43.61289" lon="3.41267">
        <ele>252.5</ele>
        <time>2016-02-14T12:31:00Z</time>
      </trkpt>
      <trkpt lat="43.61287" lon="3.41261">
        <ele>254.5</ele>
        <time>2016-02-14T12:31:01Z</time>
      </trkpt>
      <trkpt lat="43.61286" lon="3.41252">
        <ele>254</ele>
        <time>2016-02-14T12:31:02Z</time>
      </trkpt>
      <trkpt lat="43.61283" lon="3.41247">
        <ele>255.5</ele>
        <time>2016-02-14T12:31:03Z</time>
      </trkpt>
      <trkpt lat="43.61283" lon="3.41241">
        <ele>254.5</ele>
        <time>2016-02-14T12:31:05Z</time>
      </trkpt>
      <trkpt lat="43.61283" lon="3.41234">
        <ele>253</ele>
        <time>2016-02-14T12:31:06Z</time>
      </trkpt>
      <trkpt lat="43.61282" lon="3.4123">
        <ele>252.5</ele>
        <time>2016-02-14T12:31:07Z</time>
      </trkpt>
      <trkpt lat="43.61281" lon="3.41228">
        <ele>254</ele>
        <time>2016-02-14T12:31:08Z</time>
      </trkpt>
      <trkpt lat="43.61282" lon="3.41228">
        <ele>254</ele>
        <time>2016-02-14T12:31:09Z</time>
      </trkpt>
      <trkpt lat="43.61281" lon="3.41226">
        <ele>254</ele>
        <time>2016-02-14T12:31:10Z</time>
      </trkpt>
      <trkpt lat="43.61279" lon="3.41224">
        <ele>253.5</ele>
        <time>2016-02-14T12:31:11Z</time>
      </trkpt>
      <trkpt lat="43.61278" lon="3.41221">
        <ele>253</ele>
        <time>2016-02-14T12:31:12Z</time>
      </trkpt>
      <trkpt lat="43.61276" lon="3.41216">
        <ele>252.5</ele>
        <time>2016-02-14T12:31:13Z</time>
      </trkpt>
      <trkpt lat="43.61273" lon="3.41211">
        <ele>252</ele>
        <time>2016-02-14T12:31:14Z</time>
      </trkpt>
      <trkpt lat="43.61269" lon="3.41206">
        <ele>251.5</ele>
        <time>2016-02-14T12:31:15Z</time>
      </trkpt>
      <trkpt lat="43.61266" lon="3.41201">
        <ele>251</ele>
        <time>2016-02-14T12:31:16Z</time>
      </trkpt>
      <trkpt lat="43.61264" lon="3.41196">
        <ele>250</ele>
        <time>2016-02-14T12:31:17Z</time>
      </trkpt>
      <trkpt lat="43.61265" lon="3.4119">
        <ele>250.5</ele>
        <time>2016-02-14T12:31:18Z</time>
      </trkpt>
      <trkpt lat="43.61265" lon="3.41187">
        <ele>250.5</ele>
        <time>2016-02-14T12:31:19Z</time>
      </trkpt>
      <trkpt lat="43.61265" lon="3.41185">
        <ele>250</ele>
        <time>2016-02-14T12:31:20Z</time>
      </trkpt>
      <trkpt lat="43.61265" lon="3.41182">
        <ele>249.5</ele>
        <time>2016-02-14T12:31:21Z</time>
      </trkpt>
      <trkpt lat="43.61265" lon="3.41179">
        <ele>248.5</ele>
        <time>2016-02-14T12:31:22Z</time>
      </trkpt>
      <trkpt lat="43.61264" lon="3.41176">
        <ele>247.5</ele>
        <time>2016-02-14T12:31:23Z</time>
      </trkpt>
      <trkpt lat="43.61264" lon="3.41173">
        <ele>247</ele>
        <time>2016-02-14T12:31:24Z</time>
      </trkpt>
      <trkpt lat="43.61265" lon="3.41168">
        <ele>246.5</ele>
        <time>2016-02-14T12:31:25Z</time>
      </trkpt>
      <trkpt lat="43.61265" lon="3.41163">
        <ele>245</ele>
        <time>2016-02-14T12:31:26Z</time>
      </trkpt>
      <trkpt lat="43.61266" lon="3.41158">
        <ele>244</ele>
        <time>2016-02-14T12:31:28Z</time>
      </trkpt>
      <trkpt lat="43.61266" lon="3.41152">
        <ele>242.5</ele>
        <time>2016-02-14T12:31:28Z</time>
      </trkpt>
      <trkpt lat="43.61267" lon="3.41147">
        <ele>241</ele>
        <time>2016-02-14T12:31:29Z</time>
      </trkpt>
      <trkpt lat="43.61268" lon="3.41141">
        <ele>241</ele>
        <time>2016-02-14T12:31:30Z</time>
      </trkpt>
      <trkpt lat="43.61271" lon="3.41135">
        <ele>239.5</ele>
        <time>2016-02-14T12:31:32Z</time>
      </trkpt>
      <trkpt lat="43.61273" lon="3.41128">
        <ele>238.5</ele>
        <time>2016-02-14T12:31:32Z</time>
      </trkpt>
      <trkpt lat="43.61275" lon="3.4112">
        <ele>237</ele>
        <time>2016-02-14T12:31:33Z</time>
      </trkpt>
      <trkpt lat="43.61277" lon="3.41113">
        <ele>236</ele>
        <time>2016-02-14T12:31:34Z</time>
      </trkpt>
      <trkpt lat="43.6128" lon="3.41106">
        <ele>235.5</ele>
        <time>2016-02-14T12:31:35Z</time>
      </trkpt>
      <trkpt lat="43.61282" lon="3.411">
        <ele>234.5</ele>
        <time>2016-02-14T12:31:36Z</time>
      </trkpt>
      <trkpt lat="43.61286" lon="3.41096">
        <ele>233.5</ele>
        <time>2016-02-14T12:31:37Z</time>
      </trkpt>
      <trkpt lat="43.61288" lon="3.41092">
        <ele>232.5</ele>
        <time>2016-02-14T12:31:38Z</time>
      </trkpt>
      <trkpt lat="43.61291" lon="3.41087">
        <ele>231.5</ele>
        <time>2016-02-14T12:31:39Z</time>
      </trkpt>
      <trkpt lat="43.61292" lon="3.41083">
        <ele>230.5</ele>
        <time>2016-02-14T12:31:40Z</time>
      </trkpt>
      <trkpt lat="43.61293" lon="3.41078">
        <ele>230</ele>
        <time>2016-02-14T12:31:41Z</time>
      </trkpt>
      <trkpt lat="43.61295" lon="3.41072">
        <ele>229.5</ele>
        <time>2016-02-14T12:31:42Z</time>
      </trkpt>
      <trkpt lat="43.61296" lon="3.41067">
        <ele>228.5</ele>
        <time>2016-02-14T12:31:43Z</time>
      </trkpt>
      <trkpt lat="43.61297" lon="3.41062">
        <ele>227.5</ele>
        <time>2016-02-14T12:31:44Z</time>
      </trkpt>
      <trkpt lat="43.61298" lon="3.41057">
        <ele>227</ele>
        <time>2016-02-14T12:31:45Z</time>
      </trkpt>
      <trkpt lat="43.61299" lon="3.41054">
        <ele>226.5</ele>
        <time>2016-02-14T12:31:46Z</time>
      </trkpt>
      <trkpt lat="43.61298" lon="3.41051">
        <ele>226.5</ele>
        <time>2016-02-14T12:31:47Z</time>
      </trkpt>
      <trkpt lat="43.61295" lon="3.4105">
        <ele>227</ele>
        <time>2016-02-14T12:31:48Z</time>
      </trkpt>
      <trkpt lat="43.61293" lon="3.41049">
        <ele>226</ele>
        <time>2016-02-14T12:31:49Z</time>
      </trkpt>
      <trkpt lat="43.61292" lon="3.4105">
        <ele>226.5</ele>
        <time>2016-02-14T12:31:50Z</time>
      </trkpt>
      <trkpt lat="43.61289" lon="3.41052">
        <ele>226.5</ele>
        <time>2016-02-14T12:31:51Z</time>
      </trkpt>
      <trkpt lat="43.61287" lon="3.41053">
        <ele>226.5</ele>
        <time>2016-02-14T12:31:52Z</time>
      </trkpt>
      <trkpt lat="43.61284" lon="3.41055">
        <ele>226.5</ele>
        <time>2016-02-14T12:31:53Z</time>
      </trkpt>
      <trkpt lat="43.61283" lon="3.41056">
        <ele>226.5</ele>
        <time>2016-02-14T12:31:54Z</time>
      </trkpt>
      <trkpt lat="43.6128" lon="3.41057">
        <ele>226.5</ele>
        <time>2016-02-14T12:31:55Z</time>
      </trkpt>
      <trkpt lat="43.61278" lon="3.41058">
        <ele>226.5</ele>
        <time>2016-02-14T12:31:56Z</time>
      </trkpt>
      <trkpt lat="43.61275" lon="3.41059">
        <ele>227</ele>
        <time>2016-02-14T12:31:57Z</time>
      </trkpt>
      <trkpt lat="43.61273" lon="3.4106">
        <ele>227</ele>
        <time>2016-02-14T12:31:58Z</time>
      </trkpt>
      <trkpt lat="43.6127" lon="3.41061">
        <ele>227</ele>
        <time>2016-02-14T12:31:59Z</time>
      </trkpt>
      <trkpt lat="43.61268" lon="3.41062">
        <ele>226.5</ele>
        <time>2016-02-14T12:32:00Z</time>
      </trkpt>
      <trkpt lat="43.61265" lon="3.41062">
        <ele>226.5</ele>
        <time>2016-02-14T12:32:01Z</time>
      </trkpt>
      <trkpt lat="43.61262" lon="3.41062">
        <ele>226.5</ele>
        <time>2016-02-14T12:32:02Z</time>
      </trkpt>
      <trkpt lat="43.61258" lon="3.4106">
        <ele>226</ele>
        <time>2016-02-14T12:32:03Z</time>
      </trkpt>
      <trkpt lat="43.61255" lon="3.41061">
        <ele>227</ele>
        <time>2016-02-14T12:32:05Z</time>
      </trkpt>
      <trkpt lat="43.61253" lon="3.41061">
        <ele>227</ele>
        <time>2016-02-14T12:32:06Z</time>
      </trkpt>
      <trkpt lat="43.6125" lon="3.4106">
        <ele>226.5</ele>
        <time>2016-02-14T12:32:07Z</time>
      </trkpt>
      <trkpt lat="43.61248" lon="3.4106">
        <ele>226.5</ele>
        <time>2016-02-14T12:32:08Z</time>
      </trkpt>
      <trkpt lat="43.61244" lon="3.41059">
        <ele>225.5</ele>
        <time>2016-02-14T12:32:09Z</time>
      </trkpt>
      <trkpt lat="43.61241" lon="3.41055">
        <ele>225</ele>
        <time>2016-02-14T12:32:10Z</time>
      </trkpt>
      <trkpt lat="43.61238" lon="3.41053">
        <ele>225</ele>
        <time>2016-02-14T12:32:11Z</time>
      </trkpt>
      <trkpt lat="43.61235" lon="3.41051">
        <ele>225</ele>
        <time>2016-02-14T12:32:12Z</time>
      </trkpt>
      <trkpt lat="43.61233" lon="3.41048">
        <ele>226</ele>
        <time>2016-02-14T12:32:13Z</time>
      </trkpt>
      <trkpt lat="43.61229" lon="3.41048">
        <ele>226</ele>
        <time>2016-02-14T12:32:14Z</time>
      </trkpt>
      <trkpt lat="43.61226" lon="3.41046">
        <ele>226.5</ele>
        <time>2016-02-14T12:32:15Z</time>
      </trkpt>
      <trkpt lat="43.61226" lon="3.41044">
        <ele>226</ele>
        <time>2016-02-14T12:32:16Z</time>
      </trkpt>
      <trkpt lat="43.61225" lon="3.41042">
        <ele>227.5</ele>
        <time>2016-02-14T12:32:17Z</time>
      </trkpt>
      <trkpt lat="43.61224" lon="3.41038">
        <ele>227</ele>
        <time>2016-02-14T12:32:18Z</time>
      </trkpt>
      <trkpt lat="43.61222" lon="3.41037">
        <ele>227</ele>
        <time>2016-02-14T12:32:19Z</time>
      </trkpt>
      <trkpt lat="43.61219" lon="3.41037">
        <ele>229</ele>
        <time>2016-02-14T12:32:20Z</time>
      </trkpt>
      <trkpt lat="43.61216" lon="3.41036">
        <ele>229.5</ele>
        <time>2016-02-14T12:32:21Z</time>
      </trkpt>
      <trkpt lat="43.61213" lon="3.41035">
        <ele>230</ele>
        <time>2016-02-14T12:32:22Z</time>
      </trkpt>
      <trkpt lat="43.6121" lon="3.41034">
        <ele>230</ele>
        <time>2016-02-14T12:32:23Z</time>
      </trkpt>
      <trkpt lat="43.61209" lon="3.41033">
        <ele>231.5</ele>
        <time>2016-02-14T12:32:24Z</time>
      </trkpt>
      <trkpt lat="43.61206" lon="3.41031">
        <ele>232.5</ele>
        <time>2016-02-14T12:32:25Z</time>
      </trkpt>
      <trkpt lat="43.61203" lon="3.4103">
        <ele>233.5</ele>
        <time>2016-02-14T12:32:26Z</time>
      </trkpt>
      <trkpt lat="43.61199" lon="3.41031">
        <ele>234</ele>
        <time>2016-02-14T12:32:27Z</time>
      </trkpt>
      <trkpt lat="43.61196" lon="3.41029">
        <ele>234</ele>
        <time>2016-02-14T12:32:28Z</time>
      </trkpt>
      <trkpt lat="43.61193" lon="3.41028">
        <ele>234.5</ele>
        <time>2016-02-14T12:32:29Z</time>
      </trkpt>
      <trkpt lat="43.61191" lon="3.41026">
        <ele>234.5</ele>
        <time>2016-02-14T12:32:30Z</time>
      </trkpt>
      <trkpt lat="43.61188" lon="3.41025">
        <ele>234.5</ele>
        <time>2016-02-14T12:32:31Z</time>
      </trkpt>
      <trkpt lat="43.61188" lon="3.41024">
        <ele>234.5</ele>
        <time>2016-02-14T12:32:32Z</time>
      </trkpt>
      <trkpt lat="43.61176" lon="3.41022">
        <ele>235</ele>
        <time>2016-02-14T12:32:38Z</time>
      </trkpt>
      <trkpt lat="43.61172" lon="3.41022">
        <ele>235.5</ele>
        <time>2016-02-14T12:32:39Z</time>
      </trkpt>
      <trkpt lat="43.61169" lon="3.41022">
        <ele>235.5</ele>
        <time>2016-02-14T12:32:40Z</time>
      </trkpt>
      <trkpt lat="43.61165" lon="3.41021">
        <ele>233</ele>
        <time>2016-02-14T12:32:41Z</time>
      </trkpt>
      <trkpt lat="43.61161" lon="3.41021">
        <ele>233</ele>
        <time>2016-02-14T12:32:42Z</time>
      </trkpt>
      <trkpt lat="43.61159" lon="3.41017">
        <ele>233</ele>
        <time>2016-02-14T12:32:43Z</time>
      </trkpt>
      <trkpt lat="43.61156" lon="3.41016">
        <ele>233</ele>
        <time>2016-02-14T12:32:44Z</time>
      </trkpt>
      <trkpt lat="43.61153" lon="3.41015">
        <ele>231.5</ele>
        <time>2016-02-14T12:32:45Z</time>
      </trkpt>
      <trkpt lat="43.61152" lon="3.41013">
        <ele>233.5</ele>
        <time>2016-02-14T12:32:46Z</time>
      </trkpt>
      <trkpt lat="43.6115" lon="3.41011">
        <ele>235</ele>
        <time>2016-02-14T12:32:47Z</time>
      </trkpt>
      <trkpt lat="43.61148" lon="3.41007">
        <ele>235.5</ele>
        <time>2016-02-14T12:32:48Z</time>
      </trkpt>
      <trkpt lat="43.61146" lon="3.41004">
        <ele>235.5</ele>
        <time>2016-02-14T12:32:49Z</time>
      </trkpt>
      <trkpt lat="43.61142" lon="3.41002">
        <ele>236</ele>
        <time>2016-02-14T12:32:50Z</time>
      </trkpt>
      <trkpt lat="43.6114" lon="3.40999">
        <ele>236.5</ele>
        <time>2016-02-14T12:32:51Z</time>
      </trkpt>
      <trkpt lat="43.61137" lon="3.40996">
        <ele>237</ele>
        <time>2016-02-14T12:32:52Z</time>
      </trkpt>
      <trkpt lat="43.61135" lon="3.40993">
        <ele>237</ele>
        <time>2016-02-14T12:32:53Z</time>
      </trkpt>
      <trkpt lat="43.61133" lon="3.40992">
        <ele>237.5</ele>
        <time>2016-02-14T12:32:54Z</time>
      </trkpt>
      <trkpt lat="43.61132" lon="3.40988">
        <ele>237.5</ele>
        <time>2016-02-14T12:32:55Z</time>
      </trkpt>
      <trkpt lat="43.61132" lon="3.40985">
        <ele>237.5</ele>
        <time>2016-02-14T12:32:56Z</time>
      </trkpt>
      <trkpt lat="43.6113" lon="3.4098">
        <ele>237.5</ele>
        <time>2016-02-14T12:32:57Z</time>
      </trkpt>
      <trkpt lat="43.61129" lon="3.40977">
        <ele>237.5</ele>
        <time>2016-02-14T12:32:58Z</time>
      </trkpt>
      <trkpt lat="43.61128" lon="3.40974">
        <ele>238</ele>
        <time>2016-02-14T12:32:59Z</time>
      </trkpt>
      <trkpt lat="43.61125" lon="3.40971">
        <ele>238.5</ele>
        <time>2016-02-14T12:33:00Z</time>
      </trkpt>
      <trkpt lat="43.61122" lon="3.40967">
        <ele>238.5</ele>
        <time>2016-02-14T12:33:01Z</time>
      </trkpt>
      <trkpt lat="43.61118" lon="3.40966">
        <ele>238.5</ele>
        <time>2016-02-14T12:33:02Z</time>
      </trkpt>
      <trkpt lat="43.61116" lon="3.40964">
        <ele>239</ele>
        <time>2016-02-14T12:33:03Z</time>
      </trkpt>
      <trkpt lat="43.61113" lon="3.40962">
        <ele>239</ele>
        <time>2016-02-14T12:33:04Z</time>
      </trkpt>
      <trkpt lat="43.61112" lon="3.4096">
        <ele>240.5</ele>
        <time>2016-02-14T12:33:05Z</time>
      </trkpt>
      <trkpt lat="43.6111" lon="3.40959">
        <ele>242</ele>
        <time>2016-02-14T12:33:06Z</time>
      </trkpt>
      <trkpt lat="43.61108" lon="3.40959">
        <ele>241.5</ele>
        <time>2016-02-14T12:33:07Z</time>
      </trkpt>
      <trkpt lat="43.61106" lon="3.40958">
        <ele>241.5</ele>
        <time>2016-02-14T12:33:08Z</time>
      </trkpt>
      <trkpt lat="43.61104" lon="3.40958">
        <ele>241.5</ele>
        <time>2016-02-14T12:33:09Z</time>
      </trkpt>
      <trkpt lat="43.61102" lon="3.40958">
        <ele>243</ele>
        <time>2016-02-14T12:33:10Z</time>
      </trkpt>
      <trkpt lat="43.61101" lon="3.40958">
        <ele>244</ele>
        <time>2016-02-14T12:33:11Z</time>
      </trkpt>
      <trkpt lat="43.61096" lon="3.4096">
        <ele>244</ele>
        <time>2016-02-14T12:33:13Z</time>
      </trkpt>
      <trkpt lat="43.61093" lon="3.4096">
        <ele>242.5</ele>
        <time>2016-02-14T12:33:14Z</time>
      </trkpt>
      <trkpt lat="43.6109" lon="3.4096">
        <ele>243</ele>
        <time>2016-02-14T12:33:15Z</time>
      </trkpt>
      <trkpt lat="43.61088" lon="3.4096">
        <ele>243</ele>
        <time>2016-02-14T12:33:16Z</time>
      </trkpt>
      <trkpt lat="43.61087" lon="3.40961">
        <ele>243.5</ele>
        <time>2016-02-14T12:33:17Z</time>
      </trkpt>
      <trkpt lat="43.61077" lon="3.40958">
        <ele>244.5</ele>
        <time>2016-02-14T12:33:20Z</time>
      </trkpt>
      <trkpt lat="43.61073" lon="3.40956">
        <ele>245</ele>
        <time>2016-02-14T12:33:21Z</time>
      </trkpt>
      <trkpt lat="43.6107" lon="3.40951">
        <ele>245</ele>
        <time>2016-02-14T12:33:22Z</time>
      </trkpt>
      <trkpt lat="43.61067" lon="3.4095">
        <ele>245</ele>
        <time>2016-02-14T12:33:23Z</time>
      </trkpt>
      <trkpt lat="43.61064" lon="3.40949">
        <ele>245</ele>
        <time>2016-02-14T12:33:24Z</time>
      </trkpt>
      <trkpt lat="43.61063" lon="3.40947">
        <ele>245</ele>
        <time>2016-02-14T12:33:25Z</time>
      </trkpt>
      <trkpt lat="43.61062" lon="3.40945">
        <ele>245.5</ele>
        <time>2016-02-14T12:33:26Z</time>
      </trkpt>
      <trkpt lat="43.61061" lon="3.40944">
        <ele>245</ele>
        <time>2016-02-14T12:33:27Z</time>
      </trkpt>
      <trkpt lat="43.61062" lon="3.40943">
        <ele>245</ele>
        <time>2016-02-14T12:33:28Z</time>
      </trkpt>
      <trkpt lat="43.61062" lon="3.40941">
        <ele>245</ele>
        <time>2016-02-14T12:33:29Z</time>
      </trkpt>
      <trkpt lat="43.61062" lon="3.40938">
        <ele>245</ele>
        <time>2016-02-14T12:33:30Z</time>
      </trkpt>
      <trkpt lat="43.61066" lon="3.40932">
        <ele>243</ele>
        <time>2016-02-14T12:33:32Z</time>
      </trkpt>
      <trkpt lat="43.61065" lon="3.40929">
        <ele>242.5</ele>
        <time>2016-02-14T12:33:33Z</time>
      </trkpt>
      <trkpt lat="43.61057" lon="3.40929">
        <ele>242</ele>
        <time>2016-02-14T12:33:35Z</time>
      </trkpt>
      <trkpt lat="43.61048" lon="3.40926">
        <ele>240.5</ele>
        <time>2016-02-14T12:33:37Z</time>
      </trkpt>
      <trkpt lat="43.61045" lon="3.40925">
        <ele>242</ele>
        <time>2016-02-14T12:33:38Z</time>
      </trkpt>
      <trkpt lat="43.61042" lon="3.40924">
        <ele>241</ele>
        <time>2016-02-14T12:33:39Z</time>
      </trkpt>
      <trkpt lat="43.61038" lon="3.40922">
        <ele>239.5</ele>
        <time>2016-02-14T12:33:40Z</time>
      </trkpt>
      <trkpt lat="43.61035" lon="3.40921">
        <ele>238</ele>
        <time>2016-02-14T12:33:41Z</time>
      </trkpt>
      <trkpt lat="43.61031" lon="3.4092">
        <ele>237.5</ele>
        <time>2016-02-14T12:33:42Z</time>
      </trkpt>
      <trkpt lat="43.61029" lon="3.40918">
        <ele>238.5</ele>
        <time>2016-02-14T12:33:43Z</time>
      </trkpt>
      <trkpt lat="43.61028" lon="3.40917">
        <ele>238.5</ele>
        <time>2016-02-14T12:33:44Z</time>
      </trkpt>
      <trkpt lat="43.61026" lon="3.40916">
        <ele>238.5</ele>
        <time>2016-02-14T12:33:45Z</time>
      </trkpt>
      <trkpt lat="43.61024" lon="3.40915">
        <ele>239.5</ele>
        <time>2016-02-14T12:33:46Z</time>
      </trkpt>
      <trkpt lat="43.61021" lon="3.40914">
        <ele>239.5</ele>
        <time>2016-02-14T12:33:47Z</time>
      </trkpt>
      <trkpt lat="43.61019" lon="3.40914">
        <ele>241.5</ele>
        <time>2016-02-14T12:33:48Z</time>
      </trkpt>
      <trkpt lat="43.61017" lon="3.40913">
        <ele>241.5</ele>
        <time>2016-02-14T12:33:49Z</time>
      </trkpt>
      <trkpt lat="43.61014" lon="3.40913">
        <ele>241</ele>
        <time>2016-02-14T12:33:50Z</time>
      </trkpt>
      <trkpt lat="43.61011" lon="3.40912">
        <ele>243.5</ele>
        <time>2016-02-14T12:33:52Z</time>
      </trkpt>
      <trkpt lat="43.6101" lon="3.40913">
        <ele>244</ele>
        <time>2016-02-14T12:33:53Z</time>
      </trkpt>
      <trkpt lat="43.61008" lon="3.40912">
        <ele>244.5</ele>
        <time>2016-02-14T12:33:54Z</time>
      </trkpt>
      <trkpt lat="43.61006" lon="3.40911">
        <ele>243.5</ele>
        <time>2016-02-14T12:33:55Z</time>
      </trkpt>
      <trkpt lat="43.61004" lon="3.40911">
        <ele>244</ele>
        <time>2016-02-14T12:33:56Z</time>
      </trkpt>
      <trkpt lat="43.61002" lon="3.4091">
        <ele>243.5</ele>
        <time>2016-02-14T12:33:57Z</time>
      </trkpt>
      <trkpt lat="43.61" lon="3.40911">
        <ele>244.5</ele>
        <time>2016-02-14T12:33:58Z</time>
      </trkpt>
      <trkpt lat="43.60998" lon="3.40909">
        <ele>244</ele>
        <time>2016-02-14T12:33:59Z</time>
      </trkpt>
      <trkpt lat="43.60995" lon="3.40909">
        <ele>244</ele>
        <time>2016-02-14T12:34:00Z</time>
      </trkpt>
      <trkpt lat="43.60993" lon="3.40908">
        <ele>244</ele>
        <time>2016-02-14T12:34:01Z</time>
      </trkpt>
      <trkpt lat="43.6099" lon="3.40908">
        <ele>246.5</ele>
        <time>2016-02-14T12:34:03Z</time>
      </trkpt>
      <trkpt lat="43.60989" lon="3.40906">
        <ele>246.5</ele>
        <time>2016-02-14T12:34:04Z</time>
      </trkpt>
      <trkpt lat="43.60986" lon="3.40906">
        <ele>247</ele>
        <time>2016-02-14T12:34:05Z</time>
      </trkpt>
      <trkpt lat="43.60984" lon="3.40906">
        <ele>248.5</ele>
        <time>2016-02-14T12:34:06Z</time>
      </trkpt>
      <trkpt lat="43.60981" lon="3.40906">
        <ele>249.5</ele>
        <time>2016-02-14T12:34:07Z</time>
      </trkpt>
      <trkpt lat="43.60978" lon="3.40907">
        <ele>249.5</ele>
        <time>2016-02-14T12:34:08Z</time>
      </trkpt>
      <trkpt lat="43.60974" lon="3.40908">
        <ele>249</ele>
        <time>2016-02-14T12:34:09Z</time>
      </trkpt>
      <trkpt lat="43.6097" lon="3.40909">
        <ele>249</ele>
        <time>2016-02-14T12:34:10Z</time>
      </trkpt>
      <trkpt lat="43.60967" lon="3.4091">
        <ele>248.5</ele>
        <time>2016-02-14T12:34:11Z</time>
      </trkpt>
      <trkpt lat="43.60959" lon="3.40915">
        <ele>248</ele>
        <time>2016-02-14T12:34:13Z</time>
      </trkpt>
      <trkpt lat="43.60957" lon="3.40918">
        <ele>247.5</ele>
        <time>2016-02-14T12:34:14Z</time>
      </trkpt>
      <trkpt lat="43.60955" lon="3.40919">
        <ele>247</ele>
        <time>2016-02-14T12:34:15Z</time>
      </trkpt>
      <trkpt lat="43.60952" lon="3.4092">
        <ele>247</ele>
        <time>2016-02-14T12:34:16Z</time>
      </trkpt>
      <trkpt lat="43.6095" lon="3.40921">
        <ele>247</ele>
        <time>2016-02-14T12:34:17Z</time>
      </trkpt>
      <trkpt lat="43.60946" lon="3.40921">
        <ele>246.5</ele>
        <time>2016-02-14T12:34:18Z</time>
      </trkpt>
      <trkpt lat="43.60943" lon="3.40922">
        <ele>246.5</ele>
        <time>2016-02-14T12:34:19Z</time>
      </trkpt>
      <trkpt lat="43.60939" lon="3.40923">
        <ele>247</ele>
        <time>2016-02-14T12:34:20Z</time>
      </trkpt>
      <trkpt lat="43.60936" lon="3.40923">
        <ele>246</ele>
        <time>2016-02-14T12:34:22Z</time>
      </trkpt>
      <trkpt lat="43.60935" lon="3.40924">
        <ele>247</ele>
        <time>2016-02-14T12:34:23Z</time>
      </trkpt>
      <trkpt lat="43.60932" lon="3.40925">
        <ele>246.5</ele>
        <time>2016-02-14T12:34:24Z</time>
      </trkpt>
      <trkpt lat="43.60931" lon="3.40927">
        <ele>247.5</ele>
        <time>2016-02-14T12:34:25Z</time>
      </trkpt>
      <trkpt lat="43.60929" lon="3.40928">
        <ele>247.5</ele>
        <time>2016-02-14T12:34:26Z</time>
      </trkpt>
      <trkpt lat="43.60925" lon="3.40931">
        <ele>247.5</ele>
        <time>2016-02-14T12:34:27Z</time>
      </trkpt>
      <trkpt lat="43.60922" lon="3.40932">
        <ele>247</ele>
        <time>2016-02-14T12:34:28Z</time>
      </trkpt>
      <trkpt lat="43.60921" lon="3.40931">
        <ele>247.5</ele>
        <time>2016-02-14T12:34:30Z</time>
      </trkpt>
      <trkpt lat="43.60917" lon="3.40931">
        <ele>248</ele>
        <time>2016-02-14T12:34:32Z</time>
      </trkpt>
      <trkpt lat="43.60914" lon="3.40932">
        <ele>248</ele>
        <time>2016-02-14T12:34:33Z</time>
      </trkpt>
      <trkpt lat="43.60912" lon="3.40933">
        <ele>248</ele>
        <time>2016-02-14T12:34:34Z</time>
      </trkpt>
      <trkpt lat="43.6091" lon="3.40933">
        <ele>248.5</ele>
        <time>2016-02-14T12:34:35Z</time>
      </trkpt>
      <trkpt lat="43.60907" lon="3.40934">
        <ele>248</ele>
        <time>2016-02-14T12:34:36Z</time>
      </trkpt>
      <trkpt lat="43.60906" lon="3.40934">
        <ele>248.5</ele>
        <time>2016-02-14T12:34:37Z</time>
      </trkpt>
      <trkpt lat="43.609" lon="3.40933">
        <ele>248.5</ele>
        <time>2016-02-14T12:34:39Z</time>
      </trkpt>
      <trkpt lat="43.60897" lon="3.40934">
        <ele>249</ele>
        <time>2016-02-14T12:34:40Z</time>
      </trkpt>
      <trkpt lat="43.60894" lon="3.40934">
        <ele>249</ele>
        <time>2016-02-14T12:34:41Z</time>
      </trkpt>
      <trkpt lat="43.60891" lon="3.40935">
        <ele>249</ele>
        <time>2016-02-14T12:34:42Z</time>
      </trkpt>
      <trkpt lat="43.60888" lon="3.40935">
        <ele>249</ele>
        <time>2016-02-14T12:34:43Z</time>
      </trkpt>
      <trkpt lat="43.60885" lon="3.40936">
        <ele>249</ele>
        <time>2016-02-14T12:34:44Z</time>
      </trkpt>
      <trkpt lat="43.60882" lon="3.40936">
        <ele>249.5</ele>
        <time>2016-02-14T12:34:45Z</time>
      </trkpt>
      <trkpt lat="43.60879" lon="3.40937">
        <ele>249</ele>
        <time>2016-02-14T12:34:46Z</time>
      </trkpt>
      <trkpt lat="43.60876" lon="3.40937">
        <ele>249.5</ele>
        <time>2016-02-14T12:34:47Z</time>
      </trkpt>
      <trkpt lat="43.60875" lon="3.40937">
        <ele>249</ele>
        <time>2016-02-14T12:34:48Z</time>
      </trkpt>
      <trkpt lat="43.60872" lon="3.40937">
        <ele>249</ele>
        <time>2016-02-14T12:34:49Z</time>
      </trkpt>
      <trkpt lat="43.60871" lon="3.40937">
        <ele>249.5</ele>
        <time>2016-02-14T12:34:50Z</time>
      </trkpt>
      <trkpt lat="43.60869" lon="3.40937">
        <ele>249</ele>
        <time>2016-02-14T12:34:51Z</time>
      </trkpt>
      <trkpt lat="43.60866" lon="3.40937">
        <ele>249</ele>
        <time>2016-02-14T12:34:52Z</time>
      </trkpt>
      <trkpt lat="43.60864" lon="3.40937">
        <ele>249</ele>
        <time>2016-02-14T12:34:53Z</time>
      </trkpt>
      <trkpt lat="43.60861" lon="3.40938">
        <ele>249</ele>
        <time>2016-02-14T12:34:54Z</time>
      </trkpt>
      <trkpt lat="43.6086" lon="3.40938">
        <ele>248.5</ele>
        <time>2016-02-14T12:34:55Z</time>
      </trkpt>
      <trkpt lat="43.60857" lon="3.40938">
        <ele>247.5</ele>
        <time>2016-02-14T12:34:56Z</time>
      </trkpt>
      <trkpt lat="43.60853" lon="3.40939">
        <ele>246</ele>
        <time>2016-02-14T12:34:57Z</time>
      </trkpt>
      <trkpt lat="43.60845" lon="3.40942">
        <ele>242</ele>
        <time>2016-02-14T12:34:59Z</time>
      </trkpt>
      <trkpt lat="43.60842" lon="3.40944">
        <ele>241.5</ele>
        <time>2016-02-14T12:35:00Z</time>
      </trkpt>
      <trkpt lat="43.60839" lon="3.40945">
        <ele>240.5</ele>
        <time>2016-02-14T12:35:01Z</time>
      </trkpt>
      <trkpt lat="43.60837" lon="3.40946">
        <ele>240.5</ele>
        <time>2016-02-14T12:35:02Z</time>
      </trkpt>
      <trkpt lat="43.60834" lon="3.40947">
        <ele>240.5</ele>
        <time>2016-02-14T12:35:03Z</time>
      </trkpt>
      <trkpt lat="43.60832" lon="3.40948">
        <ele>240.5</ele>
        <time>2016-02-14T12:35:04Z</time>
      </trkpt>
      <trkpt lat="43.60829" lon="3.40949">
        <ele>240</ele>
        <time>2016-02-14T12:35:05Z</time>
      </trkpt>
      <trkpt lat="43.60827" lon="3.40949">
        <ele>239</ele>
        <time>2016-02-14T12:35:06Z</time>
      </trkpt>
      <trkpt lat="43.60826" lon="3.40949">
        <ele>238.5</ele>
        <time>2016-02-14T12:35:07Z</time>
      </trkpt>
      <trkpt lat="43.60823" lon="3.40948">
        <ele>238</ele>
        <time>2016-02-14T12:35:08Z</time>
      </trkpt>
      <trkpt lat="43.60821" lon="3.40948">
        <ele>237.5</ele>
        <time>2016-02-14T12:35:09Z</time>
      </trkpt>
      <trkpt lat="43.60814" lon="3.40948">
        <ele>237</ele>
        <time>2016-02-14T12:35:11Z</time>
      </trkpt>
      <trkpt lat="43.6081" lon="3.40947">
        <ele>237</ele>
        <time>2016-02-14T12:35:12Z</time>
      </trkpt>
      <trkpt lat="43.60807" lon="3.40947">
        <ele>237.5</ele>
        <time>2016-02-14T12:35:13Z</time>
      </trkpt>
      <trkpt lat="43.60798" lon="3.40945">
        <ele>238</ele>
        <time>2016-02-14T12:35:15Z</time>
      </trkpt>
      <trkpt lat="43.60788" lon="3.40943">
        <ele>238.5</ele>
        <time>2016-02-14T12:35:17Z</time>
      </trkpt>
      <trkpt lat="43.60777" lon="3.40938">
        <ele>238</ele>
        <time>2016-02-14T12:35:19Z</time>
      </trkpt>
      <trkpt lat="43.60772" lon="3.40935">
        <ele>236.5</ele>
        <time>2016-02-14T12:35:20Z</time>
      </trkpt>
      <trkpt lat="43.60766" lon="3.40932">
        <ele>234.5</ele>
        <time>2016-02-14T12:35:21Z</time>
      </trkpt>
      <trkpt lat="43.60761" lon="3.40929">
        <ele>232.5</ele>
        <time>2016-02-14T12:35:22Z</time>
      </trkpt>
      <trkpt lat="43.60757" lon="3.40927">
        <ele>234</ele>
        <time>2016-02-14T12:35:23Z</time>
      </trkpt>
      <trkpt lat="43.60752" lon="3.40925">
        <ele>236</ele>
        <time>2016-02-14T12:35:24Z</time>
      </trkpt>
      <trkpt lat="43.60746" lon="3.40921">
        <ele>236</ele>
        <time>2016-02-14T12:35:25Z</time>
      </trkpt>
      <trkpt lat="43.6073" lon="3.40915">
        <ele>235.5</ele>
        <time>2016-02-14T12:35:27Z</time>
      </trkpt>
      <trkpt lat="43.60724" lon="3.40913">
        <ele>235.5</ele>
        <time>2016-02-14T12:35:28Z</time>
      </trkpt>
      <trkpt lat="43.60715" lon="3.40916">
        <ele>235.5</ele>
        <time>2016-02-14T12:35:30Z</time>
      </trkpt>
      <trkpt lat="43.60709" lon="3.40918">
        <ele>235.5</ele>
        <time>2016-02-14T12:35:31Z</time>
      </trkpt>
      <trkpt lat="43.60704" lon="3.40919">
        <ele>235.5</ele>
        <time>2016-02-14T12:35:32Z</time>
      </trkpt>
      <trkpt lat="43.60699" lon="3.40919">
        <ele>236</ele>
        <time>2016-02-14T12:35:33Z</time>
      </trkpt>
      <trkpt lat="43.60696" lon="3.40919">
        <ele>235.5</ele>
        <time>2016-02-14T12:35:35Z</time>
      </trkpt>
      <trkpt lat="43.60692" lon="3.4092">
        <ele>235</ele>
        <time>2016-02-14T12:35:36Z</time>
      </trkpt>
      <trkpt lat="43.6068" lon="3.40925">
        <ele>232.5</ele>
        <time>2016-02-14T12:35:38Z</time>
      </trkpt>
      <trkpt lat="43.60673" lon="3.40931">
        <ele>231.5</ele>
        <time>2016-02-14T12:35:40Z</time>
      </trkpt>
      <trkpt lat="43.60671" lon="3.40934">
        <ele>230.5</ele>
        <time>2016-02-14T12:35:41Z</time>
      </trkpt>
      <trkpt lat="43.60669" lon="3.40937">
        <ele>230.5</ele>
        <time>2016-02-14T12:35:42Z</time>
      </trkpt>
      <trkpt lat="43.60666" lon="3.4094">
        <ele>230.5</ele>
        <time>2016-02-14T12:35:43Z</time>
      </trkpt>
      <trkpt lat="43.60664" lon="3.40942">
        <ele>230</ele>
        <time>2016-02-14T12:35:44Z</time>
      </trkpt>
      <trkpt lat="43.60661" lon="3.40945">
        <ele>230.5</ele>
        <time>2016-02-14T12:35:45Z</time>
      </trkpt>
      <trkpt lat="43.60657" lon="3.40948">
        <ele>229.5</ele>
        <time>2016-02-14T12:35:46Z</time>
      </trkpt>
      <trkpt lat="43.60647" lon="3.40952">
        <ele>227</ele>
        <time>2016-02-14T12:35:48Z</time>
      </trkpt>
      <trkpt lat="43.60638" lon="3.40956">
        <ele>224.5</ele>
        <time>2016-02-14T12:35:50Z</time>
      </trkpt>
      <trkpt lat="43.60634" lon="3.40958">
        <ele>223.5</ele>
        <time>2016-02-14T12:35:51Z</time>
      </trkpt>
      <trkpt lat="43.6063" lon="3.40959">
        <ele>222.5</ele>
        <time>2016-02-14T12:35:52Z</time>
      </trkpt>
      <trkpt lat="43.60626" lon="3.40959">
        <ele>221</ele>
        <time>2016-02-14T12:35:53Z</time>
      </trkpt>
      <trkpt lat="43.60624" lon="3.40957">
        <ele>221</ele>
        <time>2016-02-14T12:35:54Z</time>
      </trkpt>
      <trkpt lat="43.60622" lon="3.40955">
        <ele>220</ele>
        <time>2016-02-14T12:35:55Z</time>
      </trkpt>
      <trkpt lat="43.60619" lon="3.40953">
        <ele>220</ele>
        <time>2016-02-14T12:35:56Z</time>
      </trkpt>
      <trkpt lat="43.60616" lon="3.4095">
        <ele>218.5</ele>
        <time>2016-02-14T12:35:57Z</time>
      </trkpt>
      <trkpt lat="43.60613" lon="3.40948">
        <ele>218</ele>
        <time>2016-02-14T12:35:58Z</time>
      </trkpt>
      <trkpt lat="43.60593" lon="3.40942">
        <ele>217.5</ele>
        <time>2016-02-14T12:36:01Z</time>
      </trkpt>
      <trkpt lat="43.60587" lon="3.40938">
        <ele>217</ele>
        <time>2016-02-14T12:36:02Z</time>
      </trkpt>
      <trkpt lat="43.60581" lon="3.40936">
        <ele>216.5</ele>
        <time>2016-02-14T12:36:03Z</time>
      </trkpt>
      <trkpt lat="43.60577" lon="3.40933">
        <ele>216</ele>
        <time>2016-02-14T12:36:04Z</time>
      </trkpt>
      <trkpt lat="43.60574" lon="3.40929">
        <ele>215.5</ele>
        <time>2016-02-14T12:36:05Z</time>
      </trkpt>
      <trkpt lat="43.60574" lon="3.40923">
        <ele>213.5</ele>
        <time>2016-02-14T12:36:06Z</time>
      </trkpt>
      <trkpt lat="43.60574" lon="3.40917">
        <ele>212.5</ele>
        <time>2016-02-14T12:36:07Z</time>
      </trkpt>
      <trkpt lat="43.60575" lon="3.40913">
        <ele>212</ele>
        <time>2016-02-14T12:36:08Z</time>
      </trkpt>
      <trkpt lat="43.60578" lon="3.4091">
        <ele>210</ele>
        <time>2016-02-14T12:36:09Z</time>
      </trkpt>
      <trkpt lat="43.60581" lon="3.40905">
        <ele>209.5</ele>
        <time>2016-02-14T12:36:11Z</time>
      </trkpt>
      <trkpt lat="43.60583" lon="3.40904">
        <ele>209</ele>
        <time>2016-02-14T12:36:12Z</time>
      </trkpt>
      <trkpt lat="43.60585" lon="3.40902">
        <ele>209.5</ele>
        <time>2016-02-14T12:36:13Z</time>
      </trkpt>
      <trkpt lat="43.60587" lon="3.409">
        <ele>209.5</ele>
        <time>2016-02-14T12:36:14Z</time>
      </trkpt>
      <trkpt lat="43.60588" lon="3.40896">
        <ele>209.5</ele>
        <time>2016-02-14T12:36:15Z</time>
      </trkpt>
      <trkpt lat="43.60589" lon="3.40891">
        <ele>210</ele>
        <time>2016-02-14T12:36:16Z</time>
      </trkpt>
      <trkpt lat="43.60589" lon="3.40884">
        <ele>211.5</ele>
        <time>2016-02-14T12:36:17Z</time>
      </trkpt>
      <trkpt lat="43.6059" lon="3.40878">
        <ele>211.5</ele>
        <time>2016-02-14T12:36:18Z</time>
      </trkpt>
      <trkpt lat="43.60592" lon="3.40873">
        <ele>210</ele>
        <time>2016-02-14T12:36:19Z</time>
      </trkpt>
      <trkpt lat="43.60594" lon="3.40866">
        <ele>209.5</ele>
        <time>2016-02-14T12:36:20Z</time>
      </trkpt>
      <trkpt lat="43.6059" lon="3.40855">
        <ele>209.5</ele>
        <time>2016-02-14T12:36:22Z</time>
      </trkpt>
      <trkpt lat="43.6059" lon="3.40849">
        <ele>209</ele>
        <time>2016-02-14T12:36:23Z</time>
      </trkpt>
      <trkpt lat="43.60589" lon="3.40841">
        <ele>208</ele>
        <time>2016-02-14T12:36:24Z</time>
      </trkpt>
      <trkpt lat="43.60588" lon="3.40835">
        <ele>208</ele>
        <time>2016-02-14T12:36:25Z</time>
      </trkpt>
      <trkpt lat="43.6059" lon="3.40831">
        <ele>207.5</ele>
        <time>2016-02-14T12:36:26Z</time>
      </trkpt>
      <trkpt lat="43.6059" lon="3.40826">
        <ele>207</ele>
        <time>2016-02-14T12:36:27Z</time>
      </trkpt>
      <trkpt lat="43.60591" lon="3.40823">
        <ele>207</ele>
        <time>2016-02-14T12:36:28Z</time>
      </trkpt>
      <trkpt lat="43.60594" lon="3.40821">
        <ele>206</ele>
        <time>2016-02-14T12:36:29Z</time>
      </trkpt>
      <trkpt lat="43.60596" lon="3.40818">
        <ele>205.5</ele>
        <time>2016-02-14T12:36:30Z</time>
      </trkpt>
      <trkpt lat="43.60599" lon="3.40815">
        <ele>204.5</ele>
        <time>2016-02-14T12:36:31Z</time>
      </trkpt>
      <trkpt lat="43.60602" lon="3.40811">
        <ele>204.5</ele>
        <time>2016-02-14T12:36:32Z</time>
      </trkpt>
      <trkpt lat="43.60605" lon="3.40807">
        <ele>203</ele>
        <time>2016-02-14T12:36:33Z</time>
      </trkpt>
      <trkpt lat="43.6061" lon="3.40803">
        <ele>201</ele>
        <time>2016-02-14T12:36:34Z</time>
      </trkpt>
      <trkpt lat="43.60613" lon="3.40796">
        <ele>202</ele>
        <time>2016-02-14T12:36:35Z</time>
      </trkpt>
      <trkpt lat="43.60616" lon="3.40789">
        <ele>202.5</ele>
        <time>2016-02-14T12:36:36Z</time>
      </trkpt>
      <trkpt lat="43.6062" lon="3.40783">
        <ele>201</ele>
        <time>2016-02-14T12:36:37Z</time>
      </trkpt>
      <trkpt lat="43.60622" lon="3.40775">
        <ele>200</ele>
        <time>2016-02-14T12:36:38Z</time>
      </trkpt>
      <trkpt lat="43.60623" lon="3.40768">
        <ele>200.5</ele>
        <time>2016-02-14T12:36:39Z</time>
      </trkpt>
      <trkpt lat="43.60625" lon="3.4076">
        <ele>200</ele>
        <time>2016-02-14T12:36:40Z</time>
      </trkpt>
      <trkpt lat="43.60627" lon="3.40754">
        <ele>200</ele>
        <time>2016-02-14T12:36:41Z</time>
      </trkpt>
      <trkpt lat="43.60629" lon="3.40747">
        <ele>200</ele>
        <time>2016-02-14T12:36:42Z</time>
      </trkpt>
      <trkpt lat="43.60637" lon="3.40734">
        <ele>198.5</ele>
        <time>2016-02-14T12:36:44Z</time>
      </trkpt>
      <trkpt lat="43.60639" lon="3.40729">
        <ele>198.5</ele>
        <time>2016-02-14T12:36:45Z</time>
      </trkpt>
      <trkpt lat="43.6064" lon="3.40724">
        <ele>196.5</ele>
        <time>2016-02-14T12:36:46Z</time>
      </trkpt>
      <trkpt lat="43.60641" lon="3.4072">
        <ele>196.5</ele>
        <time>2016-02-14T12:36:47Z</time>
      </trkpt>
      <trkpt lat="43.60642" lon="3.40715">
        <ele>195</ele>
        <time>2016-02-14T12:36:48Z</time>
      </trkpt>
      <trkpt lat="43.60642" lon="3.4071">
        <ele>195</ele>
        <time>2016-02-14T12:36:49Z</time>
      </trkpt>
      <trkpt lat="43.60643" lon="3.40703">
        <ele>195</ele>
        <time>2016-02-14T12:36:50Z</time>
      </trkpt>
      <trkpt lat="43.60647" lon="3.40698">
        <ele>193</ele>
        <time>2016-02-14T12:36:51Z</time>
      </trkpt>
      <trkpt lat="43.60651" lon="3.40693">
        <ele>191.5</ele>
        <time>2016-02-14T12:36:52Z</time>
      </trkpt>
      <trkpt lat="43.60654" lon="3.40688">
        <ele>191</ele>
        <time>2016-02-14T12:36:53Z</time>
      </trkpt>
      <trkpt lat="43.60658" lon="3.40683">
        <ele>191</ele>
        <time>2016-02-14T12:36:54Z</time>
      </trkpt>
      <trkpt lat="43.6066" lon="3.4068">
        <ele>190</ele>
        <time>2016-02-14T12:36:55Z</time>
      </trkpt>
      <trkpt lat="43.60662" lon="3.40676">
        <ele>190.5</ele>
        <time>2016-02-14T12:36:56Z</time>
      </trkpt>
      <trkpt lat="43.60665" lon="3.40672">
        <ele>190</ele>
        <time>2016-02-14T12:36:57Z</time>
      </trkpt>
      <trkpt lat="43.60667" lon="3.40668">
        <ele>189.5</ele>
        <time>2016-02-14T12:36:58Z</time>
      </trkpt>
      <trkpt lat="43.60668" lon="3.40664">
        <ele>191</ele>
        <time>2016-02-14T12:36:59Z</time>
      </trkpt>
      <trkpt lat="43.60669" lon="3.40662">
        <ele>190.5</ele>
        <time>2016-02-14T12:37:00Z</time>
      </trkpt>
      <trkpt lat="43.60671" lon="3.40658">
        <ele>190</ele>
        <time>2016-02-14T12:37:01Z</time>
      </trkpt>
      <trkpt lat="43.60673" lon="3.40654">
        <ele>188.5</ele>
        <time>2016-02-14T12:37:02Z</time>
      </trkpt>
      <trkpt lat="43.60676" lon="3.40651">
        <ele>186.5</ele>
        <time>2016-02-14T12:37:03Z</time>
      </trkpt>
      <trkpt lat="43.60678" lon="3.40647">
        <ele>187</ele>
        <time>2016-02-14T12:37:04Z</time>
      </trkpt>
      <trkpt lat="43.60682" lon="3.40644">
        <ele>185</ele>
        <time>2016-02-14T12:37:05Z</time>
      </trkpt>
      <trkpt lat="43.60687" lon="3.40642">
        <ele>183.5</ele>
        <time>2016-02-14T12:37:06Z</time>
      </trkpt>
      <trkpt lat="43.60693" lon="3.40642">
        <ele>183.5</ele>
        <time>2016-02-14T12:37:08Z</time>
      </trkpt>
      <trkpt lat="43.60696" lon="3.40639">
        <ele>182</ele>
        <time>2016-02-14T12:37:09Z</time>
      </trkpt>
      <trkpt lat="43.60699" lon="3.40637">
        <ele>181</ele>
        <time>2016-02-14T12:37:10Z</time>
      </trkpt>
      <trkpt lat="43.60703" lon="3.40637">
        <ele>180.5</ele>
        <time>2016-02-14T12:37:11Z</time>
      </trkpt>
      <trkpt lat="43.60707" lon="3.40635">
        <ele>180</ele>
        <time>2016-02-14T12:37:12Z</time>
      </trkpt>
      <trkpt lat="43.60711" lon="3.40636">
        <ele>178.5</ele>
        <time>2016-02-14T12:37:13Z</time>
      </trkpt>
      <trkpt lat="43.60714" lon="3.40635">
        <ele>179.5</ele>
        <time>2016-02-14T12:37:14Z</time>
      </trkpt>
      <trkpt lat="43.60717" lon="3.40634">
        <ele>179</ele>
        <time>2016-02-14T12:37:15Z</time>
      </trkpt>
      <trkpt lat="43.60719" lon="3.40634">
        <ele>179</ele>
        <time>2016-02-14T12:37:16Z</time>
      </trkpt>
      <trkpt lat="43.60718" lon="3.40632">
        <ele>178</ele>
        <time>2016-02-14T12:37:17Z</time>
      </trkpt>
      <trkpt lat="43.60718" lon="3.4063">
        <ele>177.5</ele>
        <time>2016-02-14T12:37:18Z</time>
      </trkpt>
      <trkpt lat="43.60718" lon="3.40628">
        <ele>177.5</ele>
        <time>2016-02-14T12:37:19Z</time>
      </trkpt>
      <trkpt lat="43.60717" lon="3.40625">
        <ele>177.5</ele>
        <time>2016-02-14T12:37:20Z</time>
      </trkpt>
      <trkpt lat="43.60716" lon="3.40624">
        <ele>178.5</ele>
        <time>2016-02-14T12:37:21Z</time>
      </trkpt>
      <trkpt lat="43.60714" lon="3.40622">
        <ele>179.5</ele>
        <time>2016-02-14T12:37:22Z</time>
      </trkpt>
      <trkpt lat="43.60711" lon="3.40621">
        <ele>180.5</ele>
        <time>2016-02-14T12:37:23Z</time>
      </trkpt>
      <trkpt lat="43.6071" lon="3.40618">
        <ele>179</ele>
        <time>2016-02-14T12:37:24Z</time>
      </trkpt>
      <trkpt lat="43.60709" lon="3.40616">
        <ele>180</ele>
        <time>2016-02-14T12:37:25Z</time>
      </trkpt>
      <trkpt lat="43.60708" lon="3.40613">
        <ele>180.5</ele>
        <time>2016-02-14T12:37:26Z</time>
      </trkpt>
      <trkpt lat="43.60705" lon="3.4061">
        <ele>181</ele>
        <time>2016-02-14T12:37:27Z</time>
      </trkpt>
      <trkpt lat="43.60701" lon="3.40608">
        <ele>181</ele>
        <time>2016-02-14T12:37:28Z</time>
      </trkpt>
      <trkpt lat="43.60695" lon="3.40608">
        <ele>180</ele>
        <time>2016-02-14T12:37:29Z</time>
      </trkpt>
      <trkpt lat="43.60692" lon="3.40602">
        <ele>180.5</ele>
        <time>2016-02-14T12:37:31Z</time>
      </trkpt>
      <trkpt lat="43.60689" lon="3.40599">
        <ele>181</ele>
        <time>2016-02-14T12:37:32Z</time>
      </trkpt>
      <trkpt lat="43.60688" lon="3.40595">
        <ele>181.5</ele>
        <time>2016-02-14T12:37:33Z</time>
      </trkpt>
      <trkpt lat="43.60684" lon="3.40592">
        <ele>183.5</ele>
        <time>2016-02-14T12:37:34Z</time>
      </trkpt>
      <trkpt lat="43.60682" lon="3.40587">
        <ele>183.5</ele>
        <time>2016-02-14T12:37:35Z</time>
      </trkpt>
      <trkpt lat="43.60679" lon="3.40584">
        <ele>183.5</ele>
        <time>2016-02-14T12:37:36Z</time>
      </trkpt>
      <trkpt lat="43.60675" lon="3.40582">
        <ele>181.5</ele>
        <time>2016-02-14T12:37:38Z</time>
      </trkpt>
      <trkpt lat="43.60672" lon="3.40581">
        <ele>182</ele>
        <time>2016-02-14T12:37:39Z</time>
      </trkpt>
      <trkpt lat="43.60662" lon="3.40579">
        <ele>182</ele>
        <time>2016-02-14T12:37:41Z</time>
      </trkpt>
      <trkpt lat="43.60658" lon="3.40579">
        <ele>181.5</ele>
        <time>2016-02-14T12:37:42Z</time>
      </trkpt>
      <trkpt lat="43.60654" lon="3.4058">
        <ele>181</ele>
        <time>2016-02-14T12:37:43Z</time>
      </trkpt>
      <trkpt lat="43.60651" lon="3.40581">
        <ele>181</ele>
        <time>2016-02-14T12:37:44Z</time>
      </trkpt>
      <trkpt lat="43.60638" lon="3.40585">
        <ele>178</ele>
        <time>2016-02-14T12:37:46Z</time>
      </trkpt>
      <trkpt lat="43.60632" lon="3.40589">
        <ele>177</ele>
        <time>2016-02-14T12:37:48Z</time>
      </trkpt>
      <trkpt lat="43.6063" lon="3.40593">
        <ele>177</ele>
        <time>2016-02-14T12:37:49Z</time>
      </trkpt>
      <trkpt lat="43.60626" lon="3.40597">
        <ele>177</ele>
        <time>2016-02-14T12:37:50Z</time>
      </trkpt>
      <trkpt lat="43.60624" lon="3.40601">
        <ele>177</ele>
        <time>2016-02-14T12:37:51Z</time>
      </trkpt>
      <trkpt lat="43.60623" lon="3.40604">
        <ele>177.5</ele>
        <time>2016-02-14T12:37:52Z</time>
      </trkpt>
      <trkpt lat="43.60622" lon="3.40608">
        <ele>179</ele>
        <time>2016-02-14T12:37:53Z</time>
      </trkpt>
      <trkpt lat="43.60619" lon="3.40612">
        <ele>178.5</ele>
        <time>2016-02-14T12:37:54Z</time>
      </trkpt>
      <trkpt lat="43.60617" lon="3.40617">
        <ele>179</ele>
        <time>2016-02-14T12:37:55Z</time>
      </trkpt>
      <trkpt lat="43.60615" lon="3.40622">
        <ele>178.5</ele>
        <time>2016-02-14T12:37:56Z</time>
      </trkpt>
      <trkpt lat="43.60612" lon="3.40626">
        <ele>178.5</ele>
        <time>2016-02-14T12:37:57Z</time>
      </trkpt>
      <trkpt lat="43.6061" lon="3.40631">
        <ele>178.5</ele>
        <time>2016-02-14T12:37:58Z</time>
      </trkpt>
      <trkpt lat="43.60605" lon="3.40634">
        <ele>177.5</ele>
        <time>2016-02-14T12:37:59Z</time>
      </trkpt>
      <trkpt lat="43.60599" lon="3.40642">
        <ele>177</ele>
        <time>2016-02-14T12:38:01Z</time>
      </trkpt>
      <trkpt lat="43.60596" lon="3.40646">
        <ele>177</ele>
        <time>2016-02-14T12:38:02Z</time>
      </trkpt>
      <trkpt lat="43.60594" lon="3.40649">
        <ele>177</ele>
        <time>2016-02-14T12:38:03Z</time>
      </trkpt>
      <trkpt lat="43.60583" lon="3.40646">
        <ele>176.5</ele>
        <time>2016-02-14T12:38:05Z</time>
      </trkpt>
      <trkpt lat="43.6058" lon="3.40647">
        <ele>177</ele>
        <time>2016-02-14T12:38:07Z</time>
      </trkpt>
      <trkpt lat="43.60578" lon="3.40646">
        <ele>176.5</ele>
        <time>2016-02-14T12:38:08Z</time>
      </trkpt>
      <trkpt lat="43.60571" lon="3.40642">
        <ele>176.5</ele>
        <time>2016-02-14T12:38:10Z</time>
      </trkpt>
      <trkpt lat="43.60569" lon="3.40641">
        <ele>175.5</ele>
        <time>2016-02-14T12:38:11Z</time>
      </trkpt>
      <trkpt lat="43.60568" lon="3.40639">
        <ele>175.5</ele>
        <time>2016-02-14T12:38:12Z</time>
      </trkpt>
      <trkpt lat="43.60565" lon="3.40639">
        <ele>174.5</ele>
        <time>2016-02-14T12:38:13Z</time>
      </trkpt>
      <trkpt lat="43.6056" lon="3.4064">
        <ele>170.5</ele>
        <time>2016-02-14T12:38:23Z</time>
      </trkpt>
      <trkpt lat="43.6056" lon="3.4064">
        <ele>170</ele>
        <time>2016-02-14T12:38:24Z</time>
      </trkpt>
      <trkpt lat="43.60559" lon="3.40639">
        <ele>169</ele>
        <time>2016-02-14T12:38:25Z</time>
      </trkpt>
      <trkpt lat="43.60559" lon="3.40639">
        <ele>168.5</ele>
        <time>2016-02-14T12:38:26Z</time>
      </trkpt>
      <trkpt lat="43.60557" lon="3.40639">
        <ele>168</ele>
        <time>2016-02-14T12:38:27Z</time>
      </trkpt>
      <trkpt lat="43.60555" lon="3.40638">
        <ele>168.5</ele>
        <time>2016-02-14T12:38:28Z</time>
      </trkpt>
      <trkpt lat="43.60554" lon="3.40637">
        <ele>168.5</ele>
        <time>2016-02-14T12:38:29Z</time>
      </trkpt>
      <trkpt lat="43.60552" lon="3.40637">
        <ele>169</ele>
        <time>2016-02-14T12:38:30Z</time>
      </trkpt>
      <trkpt lat="43.6055" lon="3.40637">
        <ele>171</ele>
        <time>2016-02-14T12:38:31Z</time>
      </trkpt>
      <trkpt lat="43.60549" lon="3.40637">
        <ele>172.5</ele>
        <time>2016-02-14T12:38:32Z</time>
      </trkpt>
      <trkpt lat="43.60547" lon="3.40637">
        <ele>173</ele>
        <time>2016-02-14T12:38:33Z</time>
      </trkpt>
      <trkpt lat="43.60546" lon="3.40637">
        <ele>173.5</ele>
        <time>2016-02-14T12:38:34Z</time>
      </trkpt>
      <trkpt lat="43.60545" lon="3.40637">
        <ele>174</ele>
        <time>2016-02-14T12:38:35Z</time>
      </trkpt>
      <trkpt lat="43.60543" lon="3.40638">
        <ele>175</ele>
        <time>2016-02-14T12:38:36Z</time>
      </trkpt>
      <trkpt lat="43.60543" lon="3.40638">
        <ele>175</ele>
        <time>2016-02-14T12:38:37Z</time>
      </trkpt>
      <trkpt lat="43.60542" lon="3.4064">
        <ele>175.5</ele>
        <time>2016-02-14T12:38:38Z</time>
      </trkpt>
      <trkpt lat="43.60542" lon="3.4064">
        <ele>175.5</ele>
        <time>2016-02-14T12:38:39Z</time>
      </trkpt>
      <trkpt lat="43.60542" lon="3.40641">
        <ele>176</ele>
        <time>2016-02-14T12:38:40Z</time>
      </trkpt>
      <trkpt lat="43.60542" lon="3.40642">
        <ele>176</ele>
        <time>2016-02-14T12:38:41Z</time>
      </trkpt>
      <trkpt lat="43.60541" lon="3.40643">
        <ele>176</ele>
        <time>2016-02-14T12:38:42Z</time>
      </trkpt>
      <trkpt lat="43.60541" lon="3.40643">
        <ele>176</ele>
        <time>2016-02-14T12:38:43Z</time>
      </trkpt>
      <trkpt lat="43.60541" lon="3.40644">
        <ele>176</ele>
        <time>2016-02-14T12:38:44Z</time>
      </trkpt>
      <trkpt lat="43.6054" lon="3.40644">
        <ele>176</ele>
        <time>2016-02-14T12:38:45Z</time>
      </trkpt>
      <trkpt lat="43.60539" lon="3.40645">
        <ele>176</ele>
        <time>2016-02-14T12:38:46Z</time>
      </trkpt>
      <trkpt lat="43.60538" lon="3.40645">
        <ele>176</ele>
        <time>2016-02-14T12:38:47Z</time>
      </trkpt>
      <trkpt lat="43.60537" lon="3.40645">
        <ele>176.5</ele>
        <time>2016-02-14T12:38:48Z</time>
      </trkpt>
      <trkpt lat="43.60535" lon="3.40644">
        <ele>176.5</ele>
        <time>2016-02-14T12:38:49Z</time>
      </trkpt>
      <trkpt lat="43.60535" lon="3.40644">
        <ele>177</ele>
        <time>2016-02-14T12:38:50Z</time>
      </trkpt>
      <trkpt lat="43.60534" lon="3.40643">
        <ele>177.5</ele>
        <time>2016-02-14T12:38:51Z</time>
      </trkpt>
      <trkpt lat="43.60533" lon="3.40642">
        <ele>176.5</ele>
        <time>2016-02-14T12:38:52Z</time>
      </trkpt>
      <trkpt lat="43.60532" lon="3.40642">
        <ele>177</ele>
        <time>2016-02-14T12:38:53Z</time>
      </trkpt>
      <trkpt lat="43.60531" lon="3.40642">
        <ele>178</ele>
        <time>2016-02-14T12:38:55Z</time>
      </trkpt>
      <trkpt lat="43.60529" lon="3.40645">
        <ele>177.5</ele>
        <time>2016-02-14T12:39:00Z</time>
      </trkpt>
      <trkpt lat="43.60528" lon="3.40644">
        <ele>177.5</ele>
        <time>2016-02-14T12:39:01Z</time>
      </trkpt>
      <trkpt lat="43.60527" lon="3.40644">
        <ele>177</ele>
        <time>2016-02-14T12:39:02Z</time>
      </trkpt>
      <trkpt lat="43.60526" lon="3.40642">
        <ele>176.5</ele>
        <time>2016-02-14T12:39:03Z</time>
      </trkpt>
      <trkpt lat="43.60525" lon="3.40641">
        <ele>176.5</ele>
        <time>2016-02-14T12:39:04Z</time>
      </trkpt>
      <trkpt lat="43.60523" lon="3.40641">
        <ele>175.5</ele>
        <time>2016-02-14T12:39:05Z</time>
      </trkpt>
      <trkpt lat="43.60521" lon="3.40641">
        <ele>175</ele>
        <time>2016-02-14T12:39:06Z</time>
      </trkpt>
      <trkpt lat="43.60519" lon="3.40641">
        <ele>174.5</ele>
        <time>2016-02-14T12:39:07Z</time>
      </trkpt>
      <trkpt lat="43.60517" lon="3.40641">
        <ele>175</ele>
        <time>2016-02-14T12:39:08Z</time>
      </trkpt>
      <trkpt lat="43.60515" lon="3.40641">
        <ele>175</ele>
        <time>2016-02-14T12:39:09Z</time>
      </trkpt>
      <trkpt lat="43.60513" lon="3.40641">
        <ele>175</ele>
        <time>2016-02-14T12:39:10Z</time>
      </trkpt>
      <trkpt lat="43.60511" lon="3.40642">
        <ele>175</ele>
        <time>2016-02-14T12:39:11Z</time>
      </trkpt>
      <trkpt lat="43.6051" lon="3.40642">
        <ele>174.5</ele>
        <time>2016-02-14T12:39:12Z</time>
      </trkpt>
      <trkpt lat="43.60508" lon="3.40643">
        <ele>174.5</ele>
        <time>2016-02-14T12:39:13Z</time>
      </trkpt>
      <trkpt lat="43.60507" lon="3.40644">
        <ele>174.5</ele>
        <time>2016-02-14T12:39:14Z</time>
      </trkpt>
      <trkpt lat="43.60505" lon="3.40645">
        <ele>175.5</ele>
        <time>2016-02-14T12:39:15Z</time>
      </trkpt>
      <trkpt lat="43.60503" lon="3.40646">
        <ele>176</ele>
        <time>2016-02-14T12:39:16Z</time>
      </trkpt>
      <trkpt lat="43.60502" lon="3.40646">
        <ele>175</ele>
        <time>2016-02-14T12:39:17Z</time>
      </trkpt>
      <trkpt lat="43.60501" lon="3.40647">
        <ele>175</ele>
        <time>2016-02-14T12:39:18Z</time>
      </trkpt>
      <trkpt lat="43.605" lon="3.40649">
        <ele>175.5</ele>
        <time>2016-02-14T12:39:19Z</time>
      </trkpt>
      <trkpt lat="43.60499" lon="3.40651">
        <ele>176</ele>
        <time>2016-02-14T12:39:20Z</time>
      </trkpt>
      <trkpt lat="43.60497" lon="3.40653">
        <ele>175.5</ele>
        <time>2016-02-14T12:39:21Z</time>
      </trkpt>
      <trkpt lat="43.60497" lon="3.40654">
        <ele>176</ele>
        <time>2016-02-14T12:39:22Z</time>
      </trkpt>
      <trkpt lat="43.60495" lon="3.40656">
        <ele>176</ele>
        <time>2016-02-14T12:39:23Z</time>
      </trkpt>
      <trkpt lat="43.60493" lon="3.40657">
        <ele>176.5</ele>
        <time>2016-02-14T12:39:24Z</time>
      </trkpt>
      <trkpt lat="43.60492" lon="3.40658">
        <ele>176.5</ele>
        <time>2016-02-14T12:39:25Z</time>
      </trkpt>
      <trkpt lat="43.60491" lon="3.40659">
        <ele>176</ele>
        <time>2016-02-14T12:39:26Z</time>
      </trkpt>
      <trkpt lat="43.60491" lon="3.4066">
        <ele>177</ele>
        <time>2016-02-14T12:39:27Z</time>
      </trkpt>
      <trkpt lat="43.6049" lon="3.4066">
        <ele>179</ele>
        <time>2016-02-14T12:39:35Z</time>
      </trkpt>
      <trkpt lat="43.60488" lon="3.4066">
        <ele>179</ele>
        <time>2016-02-14T12:39:36Z</time>
      </trkpt>
      <trkpt lat="43.60487" lon="3.40661">
        <ele>179.5</ele>
        <time>2016-02-14T12:39:37Z</time>
      </trkpt>
      <trkpt lat="43.60485" lon="3.40662">
        <ele>178.5</ele>
        <time>2016-02-14T12:39:38Z</time>
      </trkpt>
      <trkpt lat="43.60482" lon="3.40663">
        <ele>178</ele>
        <time>2016-02-14T12:39:39Z</time>
      </trkpt>
      <trkpt lat="43.6048" lon="3.40664">
        <ele>177.5</ele>
        <time>2016-02-14T12:39:40Z</time>
      </trkpt>
      <trkpt lat="43.60477" lon="3.40666">
        <ele>177</ele>
        <time>2016-02-14T12:39:41Z</time>
      </trkpt>
      <trkpt lat="43.60473" lon="3.40667">
        <ele>178</ele>
        <time>2016-02-14T12:39:42Z</time>
      </trkpt>
      <trkpt lat="43.60469" lon="3.40666">
        <ele>178</ele>
        <time>2016-02-14T12:39:43Z</time>
      </trkpt>
      <trkpt lat="43.60464" lon="3.40665">
        <ele>178</ele>
        <time>2016-02-14T12:39:44Z</time>
      </trkpt>
      <trkpt lat="43.60458" lon="3.40665">
        <ele>177.5</ele>
        <time>2016-02-14T12:39:45Z</time>
      </trkpt>
      <trkpt lat="43.60452" lon="3.40664">
        <ele>178</ele>
        <time>2016-02-14T12:39:46Z</time>
      </trkpt>
      <trkpt lat="43.60446" lon="3.40661">
        <ele>178</ele>
        <time>2016-02-14T12:39:47Z</time>
      </trkpt>
      <trkpt lat="43.60442" lon="3.40658">
        <ele>178</ele>
        <time>2016-02-14T12:39:48Z</time>
      </trkpt>
      <trkpt lat="43.60437" lon="3.40658">
        <ele>178.5</ele>
        <time>2016-02-14T12:39:49Z</time>
      </trkpt>
      <trkpt lat="43.60432" lon="3.40655">
        <ele>179</ele>
        <time>2016-02-14T12:39:51Z</time>
      </trkpt>
      <trkpt lat="43.6043" lon="3.40655">
        <ele>179</ele>
        <time>2016-02-14T12:39:52Z</time>
      </trkpt>
      <trkpt lat="43.60428" lon="3.40654">
        <ele>178.5</ele>
        <time>2016-02-14T12:39:53Z</time>
      </trkpt>
      <trkpt lat="43.60426" lon="3.40653">
        <ele>179</ele>
        <time>2016-02-14T12:39:53Z</time>
      </trkpt>
      <trkpt lat="43.60423" lon="3.40652">
        <ele>179</ele>
        <time>2016-02-14T12:39:54Z</time>
      </trkpt>
      <trkpt lat="43.6042" lon="3.40651">
        <ele>179</ele>
        <time>2016-02-14T12:39:55Z</time>
      </trkpt>
      <trkpt lat="43.60418" lon="3.40649">
        <ele>179</ele>
        <time>2016-02-14T12:39:56Z</time>
      </trkpt>
      <trkpt lat="43.60414" lon="3.40645">
        <ele>179</ele>
        <time>2016-02-14T12:39:57Z</time>
      </trkpt>
      <trkpt lat="43.60412" lon="3.40641">
        <ele>179</ele>
        <time>2016-02-14T12:39:58Z</time>
      </trkpt>
      <trkpt lat="43.60409" lon="3.40638">
        <ele>179</ele>
        <time>2016-02-14T12:39:59Z</time>
      </trkpt>
      <trkpt lat="43.60406" lon="3.40634">
        <ele>179</ele>
        <time>2016-02-14T12:40:00Z</time>
      </trkpt>
      <trkpt lat="43.60404" lon="3.40627">
        <ele>177.5</ele>
        <time>2016-02-14T12:40:01Z</time>
      </trkpt>
      <trkpt lat="43.604" lon="3.40624">
        <ele>177.5</ele>
        <time>2016-02-14T12:40:02Z</time>
      </trkpt>
      <trkpt lat="43.60394" lon="3.40621">
        <ele>177.5</ele>
        <time>2016-02-14T12:40:03Z</time>
      </trkpt>
      <trkpt lat="43.60388" lon="3.4062">
        <ele>177.5</ele>
        <time>2016-02-14T12:40:04Z</time>
      </trkpt>
      <trkpt lat="43.60383" lon="3.40616">
        <ele>177</ele>
        <time>2016-02-14T12:40:05Z</time>
      </trkpt>
      <trkpt lat="43.60378" lon="3.40612">
        <ele>176.5</ele>
        <time>2016-02-14T12:40:06Z</time>
      </trkpt>
      <trkpt lat="43.60373" lon="3.40608">
        <ele>176</ele>
        <time>2016-02-14T12:40:07Z</time>
      </trkpt>
      <trkpt lat="43.60369" lon="3.40604">
        <ele>175</ele>
        <time>2016-02-14T12:40:08Z</time>
      </trkpt>
      <trkpt lat="43.60364" lon="3.40602">
        <ele>177</ele>
        <time>2016-02-14T12:40:09Z</time>
      </trkpt>
      <trkpt lat="43.60359" lon="3.40599">
        <ele>178</ele>
        <time>2016-02-14T12:40:10Z</time>
      </trkpt>
      <trkpt lat="43.60354" lon="3.40597">
        <ele>178</ele>
        <time>2016-02-14T12:40:11Z</time>
      </trkpt>
      <trkpt lat="43.6035" lon="3.40595">
        <ele>178</ele>
        <time>2016-02-14T12:40:12Z</time>
      </trkpt>
      <trkpt lat="43.60346" lon="3.40592">
        <ele>178</ele>
        <time>2016-02-14T12:40:13Z</time>
      </trkpt>
      <trkpt lat="43.60342" lon="3.40591">
        <ele>178</ele>
        <time>2016-02-14T12:40:14Z</time>
      </trkpt>
      <trkpt lat="43.60338" lon="3.40589">
        <ele>177.5</ele>
        <time>2016-02-14T12:40:15Z</time>
      </trkpt>
      <trkpt lat="43.60334" lon="3.40587">
        <ele>177</ele>
        <time>2016-02-14T12:40:16Z</time>
      </trkpt>
      <trkpt lat="43.60331" lon="3.40586">
        <ele>176.5</ele>
        <time>2016-02-14T12:40:18Z</time>
      </trkpt>
      <trkpt lat="43.60327" lon="3.40585">
        <ele>176.5</ele>
        <time>2016-02-14T12:40:18Z</time>
      </trkpt>
      <trkpt lat="43.60324" lon="3.40586">
        <ele>178</ele>
        <time>2016-02-14T12:40:19Z</time>
      </trkpt>
      <trkpt lat="43.60321" lon="3.40585">
        <ele>177.5</ele>
        <time>2016-02-14T12:40:20Z</time>
      </trkpt>
      <trkpt lat="43.60317" lon="3.40586">
        <ele>178</ele>
        <time>2016-02-14T12:40:21Z</time>
      </trkpt>
      <trkpt lat="43.60315" lon="3.40586">
        <ele>178</ele>
        <time>2016-02-14T12:40:22Z</time>
      </trkpt>
      <trkpt lat="43.60312" lon="3.40586">
        <ele>178</ele>
        <time>2016-02-14T12:40:23Z</time>
      </trkpt>
      <trkpt lat="43.60308" lon="3.40586">
        <ele>178</ele>
        <time>2016-02-14T12:40:25Z</time>
      </trkpt>
      <trkpt lat="43.60304" lon="3.40587">
        <ele>178</ele>
        <time>2016-02-14T12:40:25Z</time>
      </trkpt>
      <trkpt lat="43.603" lon="3.40587">
        <ele>178</ele>
        <time>2016-02-14T12:40:26Z</time>
      </trkpt>
      <trkpt lat="43.60296" lon="3.40587">
        <ele>177</ele>
        <time>2016-02-14T12:40:28Z</time>
      </trkpt>
      <trkpt lat="43.60291" lon="3.40587">
        <ele>176.5</ele>
        <time>2016-02-14T12:40:28Z</time>
      </trkpt>
      <trkpt lat="43.60286" lon="3.40588">
        <ele>176</ele>
        <time>2016-02-14T12:40:29Z</time>
      </trkpt>
      <trkpt lat="43.60282" lon="3.40587">
        <ele>173.5</ele>
        <time>2016-02-14T12:40:30Z</time>
      </trkpt>
      <trkpt lat="43.60277" lon="3.40588">
        <ele>173.5</ele>
        <time>2016-02-14T12:40:31Z</time>
      </trkpt>
      <trkpt lat="43.60272" lon="3.40587">
        <ele>172.5</ele>
        <time>2016-02-14T12:40:32Z</time>
      </trkpt>
      <trkpt lat="43.60266" lon="3.40585">
        <ele>173</ele>
        <time>2016-02-14T12:40:33Z</time>
      </trkpt>
      <trkpt lat="43.6026" lon="3.40584">
        <ele>173</ele>
        <time>2016-02-14T12:40:34Z</time>
      </trkpt>
      <trkpt lat="43.60254" lon="3.40582">
        <ele>172</ele>
        <time>2016-02-14T12:40:35Z</time>
      </trkpt>
      <trkpt lat="43.60249" lon="3.40578">
        <ele>171</ele>
        <time>2016-02-14T12:40:36Z</time>
      </trkpt>
      <trkpt lat="43.60244" lon="3.40573">
        <ele>171</ele>
        <time>2016-02-14T12:40:37Z</time>
      </trkpt>
      <trkpt lat="43.6024" lon="3.40565">
        <ele>170</ele>
        <time>2016-02-14T12:40:38Z</time>
      </trkpt>
      <trkpt lat="43.60237" lon="3.40554">
        <ele>170</ele>
        <time>2016-02-14T12:40:39Z</time>
      </trkpt>
      <trkpt lat="43.60233" lon="3.40543">
        <ele>169</ele>
        <time>2016-02-14T12:40:40Z</time>
      </trkpt>
      <trkpt lat="43.60228" lon="3.40535">
        <ele>170.5</ele>
        <time>2016-02-14T12:40:41Z</time>
      </trkpt>
      <trkpt lat="43.60223" lon="3.40527">
        <ele>170.5</ele>
        <time>2016-02-14T12:40:42Z</time>
      </trkpt>
      <trkpt lat="43.60218" lon="3.40519">
        <ele>170.5</ele>
        <time>2016-02-14T12:40:43Z</time>
      </trkpt>
      <trkpt lat="43.60213" lon="3.40513">
        <ele>172.5</ele>
        <time>2016-02-14T12:40:44Z</time>
      </trkpt>
      <trkpt lat="43.60208" lon="3.40507">
        <ele>172</ele>
        <time>2016-02-14T12:40:45Z</time>
      </trkpt>
      <trkpt lat="43.60203" lon="3.40502">
        <ele>172</ele>
        <time>2016-02-14T12:40:46Z</time>
      </trkpt>
      <trkpt lat="43.60197" lon="3.40497">
        <ele>172</ele>
        <time>2016-02-14T12:40:47Z</time>
      </trkpt>
      <trkpt lat="43.60195" lon="3.40487">
        <ele>172.5</ele>
        <time>2016-02-14T12:40:48Z</time>
      </trkpt>
      <trkpt lat="43.60201" lon="3.40478">
        <ele>172.5</ele>
        <time>2016-02-14T12:40:49Z</time>
      </trkpt>
      <trkpt lat="43.6021" lon="3.40463">
        <ele>171.5</ele>
        <time>2016-02-14T12:40:53Z</time>
      </trkpt>
      <trkpt lat="43.60214" lon="3.40459">
        <ele>170.5</ele>
        <time>2016-02-14T12:40:54Z</time>
      </trkpt>
      <trkpt lat="43.60217" lon="3.40455">
        <ele>169</ele>
        <time>2016-02-14T12:40:56Z</time>
      </trkpt>
      <trkpt lat="43.60221" lon="3.40451">
        <ele>169</ele>
        <time>2016-02-14T12:40:56Z</time>
      </trkpt>
      <trkpt lat="43.60224" lon="3.40448">
        <ele>168.5</ele>
        <time>2016-02-14T12:40:57Z</time>
      </trkpt>
      <trkpt lat="43.60227" lon="3.40444">
        <ele>167.5</ele>
        <time>2016-02-14T12:40:58Z</time>
      </trkpt>
      <trkpt lat="43.60229" lon="3.4044">
        <ele>167</ele>
        <time>2016-02-14T12:40:59Z</time>
      </trkpt>
      <trkpt lat="43.60232" lon="3.40437">
        <ele>166</ele>
        <time>2016-02-14T12:41:01Z</time>
      </trkpt>
      <trkpt lat="43.60234" lon="3.40433">
        <ele>165.5</ele>
        <time>2016-02-14T12:41:01Z</time>
      </trkpt>
      <trkpt lat="43.60236" lon="3.40428">
        <ele>164.5</ele>
        <time>2016-02-14T12:41:02Z</time>
      </trkpt>
      <trkpt lat="43.60238" lon="3.40424">
        <ele>164</ele>
        <time>2016-02-14T12:41:03Z</time>
      </trkpt>
      <trkpt lat="43.6024" lon="3.40419">
        <ele>163</ele>
        <time>2016-02-14T12:41:04Z</time>
      </trkpt>
      <trkpt lat="43.60241" lon="3.40413">
        <ele>162.5</ele>
        <time>2016-02-14T12:41:05Z</time>
      </trkpt>
      <trkpt lat="43.60243" lon="3.40409">
        <ele>162.5</ele>
        <time>2016-02-14T12:41:06Z</time>
      </trkpt>
      <trkpt lat="43.60244" lon="3.40405">
        <ele>162.5</ele>
        <time>2016-02-14T12:41:07Z</time>
      </trkpt>
      <trkpt lat="43.60246" lon="3.40401">
        <ele>162.5</ele>
        <time>2016-02-14T12:41:08Z</time>
      </trkpt>
      <trkpt lat="43.60248" lon="3.40397">
        <ele>162</ele>
        <time>2016-02-14T12:41:09Z</time>
      </trkpt>
      <trkpt lat="43.60249" lon="3.40393">
        <ele>161.5</ele>
        <time>2016-02-14T12:41:10Z</time>
      </trkpt>
      <trkpt lat="43.60249" lon="3.40388">
        <ele>162.5</ele>
        <time>2016-02-14T12:41:11Z</time>
      </trkpt>
      <trkpt lat="43.6025" lon="3.40384">
        <ele>162.5</ele>
        <time>2016-02-14T12:41:12Z</time>
      </trkpt>
      <trkpt lat="43.6025" lon="3.4038">
        <ele>161</ele>
        <time>2016-02-14T12:41:13Z</time>
      </trkpt>
      <trkpt lat="43.60249" lon="3.40376">
        <ele>161</ele>
        <time>2016-02-14T12:41:14Z</time>
      </trkpt>
      <trkpt lat="43.60248" lon="3.40372">
        <ele>161.5</ele>
        <time>2016-02-14T12:41:15Z</time>
      </trkpt>
      <trkpt lat="43.60246" lon="3.40368">
        <ele>161.5</ele>
        <time>2016-02-14T12:41:16Z</time>
      </trkpt>
      <trkpt lat="43.60244" lon="3.40364">
        <ele>161</ele>
        <time>2016-02-14T12:41:17Z</time>
      </trkpt>
      <trkpt lat="43.60241" lon="3.4036">
        <ele>162</ele>
        <time>2016-02-14T12:41:18Z</time>
      </trkpt>
      <trkpt lat="43.60239" lon="3.40357">
        <ele>163</ele>
        <time>2016-02-14T12:41:19Z</time>
      </trkpt>
      <trkpt lat="43.60236" lon="3.40354">
        <ele>164</ele>
        <time>2016-02-14T12:41:20Z</time>
      </trkpt>
      <trkpt lat="43.60234" lon="3.40352">
        <ele>165</ele>
        <time>2016-02-14T12:41:21Z</time>
      </trkpt>
      <trkpt lat="43.60232" lon="3.40349">
        <ele>166</ele>
        <time>2016-02-14T12:41:22Z</time>
      </trkpt>
      <trkpt lat="43.6023" lon="3.40346">
        <ele>167</ele>
        <time>2016-02-14T12:41:23Z</time>
      </trkpt>
      <trkpt lat="43.60228" lon="3.40343">
        <ele>167.5</ele>
        <time>2016-02-14T12:41:24Z</time>
      </trkpt>
      <trkpt lat="43.60227" lon="3.4034">
        <ele>167.5</ele>
        <time>2016-02-14T12:41:25Z</time>
      </trkpt>
      <trkpt lat="43.60226" lon="3.40338">
        <ele>169</ele>
        <time>2016-02-14T12:41:26Z</time>
      </trkpt>
      <trkpt lat="43.60225" lon="3.40335">
        <ele>169</ele>
        <time>2016-02-14T12:41:27Z</time>
      </trkpt>
      <trkpt lat="43.60224" lon="3.40333">
        <ele>170</ele>
        <time>2016-02-14T12:41:28Z</time>
      </trkpt>
      <trkpt lat="43.60223" lon="3.40332">
        <ele>171.5</ele>
        <time>2016-02-14T12:41:29Z</time>
      </trkpt>
      <trkpt lat="43.60222" lon="3.40331">
        <ele>172.5</ele>
        <time>2016-02-14T12:41:30Z</time>
      </trkpt>
      <trkpt lat="43.60222" lon="3.4033">
        <ele>173.5</ele>
        <time>2016-02-14T12:41:31Z</time>
      </trkpt>
      <trkpt lat="43.60222" lon="3.40328">
        <ele>173</ele>
        <time>2016-02-14T12:41:32Z</time>
      </trkpt>
      <trkpt lat="43.60221" lon="3.40326">
        <ele>174</ele>
        <time>2016-02-14T12:41:33Z</time>
      </trkpt>
      <trkpt lat="43.60219" lon="3.40325">
        <ele>176</ele>
        <time>2016-02-14T12:41:34Z</time>
      </trkpt>
      <trkpt lat="43.60217" lon="3.40325">
        <ele>178.5</ele>
        <time>2016-02-14T12:41:35Z</time>
      </trkpt>
      <trkpt lat="43.60216" lon="3.40323">
        <ele>180</ele>
        <time>2016-02-14T12:41:36Z</time>
      </trkpt>
      <trkpt lat="43.60215" lon="3.4032">
        <ele>181</ele>
        <time>2016-02-14T12:41:38Z</time>
      </trkpt>
      <trkpt lat="43.60215" lon="3.40316">
        <ele>180</ele>
        <time>2016-02-14T12:41:39Z</time>
      </trkpt>
      <trkpt lat="43.60215" lon="3.40308">
        <ele>179.5</ele>
        <time>2016-02-14T12:41:40Z</time>
      </trkpt>
      <trkpt lat="43.60214" lon="3.40305">
        <ele>180</ele>
        <time>2016-02-14T12:41:41Z</time>
      </trkpt>
      <trkpt lat="43.60213" lon="3.40302">
        <ele>180.5</ele>
        <time>2016-02-14T12:41:42Z</time>
      </trkpt>
      <trkpt lat="43.60212" lon="3.403">
        <ele>180.5</ele>
        <time>2016-02-14T12:41:43Z</time>
      </trkpt>
      <trkpt lat="43.60211" lon="3.40298">
        <ele>181</ele>
        <time>2016-02-14T12:41:44Z</time>
      </trkpt>
      <trkpt lat="43.6021" lon="3.40295">
        <ele>181</ele>
        <time>2016-02-14T12:41:45Z</time>
      </trkpt>
      <trkpt lat="43.60209" lon="3.40293">
        <ele>181</ele>
        <time>2016-02-14T12:41:46Z</time>
      </trkpt>
      <trkpt lat="43.60207" lon="3.40291">
        <ele>182</ele>
        <time>2016-02-14T12:41:47Z</time>
      </trkpt>
      <trkpt lat="43.60205" lon="3.40289">
        <ele>183</ele>
        <time>2016-02-14T12:41:48Z</time>
      </trkpt>
      <trkpt lat="43.60204" lon="3.40286">
        <ele>183</ele>
        <time>2016-02-14T12:41:49Z</time>
      </trkpt>
      <trkpt lat="43.60202" lon="3.40283">
        <ele>183</ele>
        <time>2016-02-14T12:41:50Z</time>
      </trkpt>
      <trkpt lat="43.602" lon="3.4028">
        <ele>182.5</ele>
        <time>2016-02-14T12:41:51Z</time>
      </trkpt>
      <trkpt lat="43.60198" lon="3.40278">
        <ele>183.5</ele>
        <time>2016-02-14T12:41:52Z</time>
      </trkpt>
      <trkpt lat="43.60196" lon="3.40276">
        <ele>184</ele>
        <time>2016-02-14T12:41:53Z</time>
      </trkpt>
      <trkpt lat="43.60194" lon="3.40274">
        <ele>184.5</ele>
        <time>2016-02-14T12:41:54Z</time>
      </trkpt>
      <trkpt lat="43.60192" lon="3.40273">
        <ele>185.5</ele>
        <time>2016-02-14T12:41:55Z</time>
      </trkpt>
      <trkpt lat="43.6019" lon="3.40271">
        <ele>186</ele>
        <time>2016-02-14T12:41:56Z</time>
      </trkpt>
      <trkpt lat="43.60187" lon="3.40269">
        <ele>186.5</ele>
        <time>2016-02-14T12:41:57Z</time>
      </trkpt>
      <trkpt lat="43.60185" lon="3.40267">
        <ele>187.5</ele>
        <time>2016-02-14T12:41:58Z</time>
      </trkpt>
      <trkpt lat="43.60183" lon="3.40265">
        <ele>188</ele>
        <time>2016-02-14T12:41:59Z</time>
      </trkpt>
      <trkpt lat="43.60181" lon="3.40262">
        <ele>188</ele>
        <time>2016-02-14T12:42:00Z</time>
      </trkpt>
      <trkpt lat="43.60179" lon="3.4026">
        <ele>189</ele>
        <time>2016-02-14T12:42:01Z</time>
      </trkpt>
      <trkpt lat="43.60177" lon="3.40258">
        <ele>189.5</ele>
        <time>2016-02-14T12:42:02Z</time>
      </trkpt>
      <trkpt lat="43.60175" lon="3.40256">
        <ele>190</ele>
        <time>2016-02-14T12:42:03Z</time>
      </trkpt>
      <trkpt lat="43.60174" lon="3.40254">
        <ele>190.5</ele>
        <time>2016-02-14T12:42:04Z</time>
      </trkpt>
      <trkpt lat="43.60172" lon="3.40252">
        <ele>190.5</ele>
        <time>2016-02-14T12:42:05Z</time>
      </trkpt>
      <trkpt lat="43.6017" lon="3.4025">
        <ele>191</ele>
        <time>2016-02-14T12:42:06Z</time>
      </trkpt>
      <trkpt lat="43.60169" lon="3.40248">
        <ele>190.5</ele>
        <time>2016-02-14T12:42:07Z</time>
      </trkpt>
      <trkpt lat="43.60167" lon="3.40246">
        <ele>191</ele>
        <time>2016-02-14T12:42:08Z</time>
      </trkpt>
      <trkpt lat="43.60165" lon="3.40245">
        <ele>191</ele>
        <time>2016-02-14T12:42:09Z</time>
      </trkpt>
      <trkpt lat="43.60163" lon="3.40243">
        <ele>191.5</ele>
        <time>2016-02-14T12:42:10Z</time>
      </trkpt>
      <trkpt lat="43.60161" lon="3.40241">
        <ele>191.5</ele>
        <time>2016-02-14T12:42:11Z</time>
      </trkpt>
      <trkpt lat="43.60159" lon="3.4024">
        <ele>191.5</ele>
        <time>2016-02-14T12:42:12Z</time>
      </trkpt>
      <trkpt lat="43.60157" lon="3.4024">
        <ele>192</ele>
        <time>2016-02-14T12:42:13Z</time>
      </trkpt>
      <trkpt lat="43.60155" lon="3.40239">
        <ele>192</ele>
        <time>2016-02-14T12:42:14Z</time>
      </trkpt>
      <trkpt lat="43.60153" lon="3.40237">
        <ele>192</ele>
        <time>2016-02-14T12:42:15Z</time>
      </trkpt>
      <trkpt lat="43.60151" lon="3.40237">
        <ele>191.5</ele>
        <time>2016-02-14T12:42:16Z</time>
      </trkpt>
      <trkpt lat="43.60149" lon="3.40236">
        <ele>191.5</ele>
        <time>2016-02-14T12:42:17Z</time>
      </trkpt>
      <trkpt lat="43.60146" lon="3.40236">
        <ele>191.5</ele>
        <time>2016-02-14T12:42:18Z</time>
      </trkpt>
      <trkpt lat="43.60144" lon="3.40236">
        <ele>192.5</ele>
        <time>2016-02-14T12:42:19Z</time>
      </trkpt>
      <trkpt lat="43.60142" lon="3.40236">
        <ele>192</ele>
        <time>2016-02-14T12:42:20Z</time>
      </trkpt>
      <trkpt lat="43.6014" lon="3.40236">
        <ele>192</ele>
        <time>2016-02-14T12:42:21Z</time>
      </trkpt>
      <trkpt lat="43.60138" lon="3.40235">
        <ele>191.5</ele>
        <time>2016-02-14T12:42:22Z</time>
      </trkpt>
      <trkpt lat="43.60136" lon="3.40235">
        <ele>191.5</ele>
        <time>2016-02-14T12:42:23Z</time>
      </trkpt>
      <trkpt lat="43.60134" lon="3.40235">
        <ele>192</ele>
        <time>2016-02-14T12:42:24Z</time>
      </trkpt>
      <trkpt lat="43.60132" lon="3.40234">
        <ele>191.5</ele>
        <time>2016-02-14T12:42:25Z</time>
      </trkpt>
      <trkpt lat="43.60131" lon="3.4023">
        <ele>191.5</ele>
        <time>2016-02-14T12:42:26Z</time>
      </trkpt>
      <trkpt lat="43.6013" lon="3.40228">
        <ele>193.5</ele>
        <time>2016-02-14T12:42:27Z</time>
      </trkpt>
      <trkpt lat="43.6013" lon="3.40225">
        <ele>193.5</ele>
        <time>2016-02-14T12:42:28Z</time>
      </trkpt>
      <trkpt lat="43.6013" lon="3.40222">
        <ele>193.5</ele>
        <time>2016-02-14T12:42:29Z</time>
      </trkpt>
      <trkpt lat="43.60132" lon="3.4022">
        <ele>194</ele>
        <time>2016-02-14T12:42:30Z</time>
      </trkpt>
      <trkpt lat="43.60133" lon="3.40218">
        <ele>194</ele>
        <time>2016-02-14T12:42:31Z</time>
      </trkpt>
      <trkpt lat="43.60134" lon="3.40216">
        <ele>193.5</ele>
        <time>2016-02-14T12:42:32Z</time>
      </trkpt>
      <trkpt lat="43.60135" lon="3.40215">
        <ele>193.5</ele>
        <time>2016-02-14T12:42:33Z</time>
      </trkpt>
      <trkpt lat="43.60136" lon="3.40212">
        <ele>193.5</ele>
        <time>2016-02-14T12:42:34Z</time>
      </trkpt>
      <trkpt lat="43.60137" lon="3.40209">
        <ele>192.5</ele>
        <time>2016-02-14T12:42:35Z</time>
      </trkpt>
      <trkpt lat="43.60138" lon="3.40206">
        <ele>192.5</ele>
        <time>2016-02-14T12:42:36Z</time>
      </trkpt>
      <trkpt lat="43.60139" lon="3.40204">
        <ele>191.5</ele>
        <time>2016-02-14T12:42:37Z</time>
      </trkpt>
      <trkpt lat="43.60139" lon="3.40201">
        <ele>191.5</ele>
        <time>2016-02-14T12:42:38Z</time>
      </trkpt>
      <trkpt lat="43.60139" lon="3.40199">
        <ele>192</ele>
        <time>2016-02-14T12:42:39Z</time>
      </trkpt>
      <trkpt lat="43.6014" lon="3.40197">
        <ele>192.5</ele>
        <time>2016-02-14T12:42:40Z</time>
      </trkpt>
      <trkpt lat="43.6014" lon="3.40195">
        <ele>193</ele>
        <time>2016-02-14T12:42:41Z</time>
      </trkpt>
      <trkpt lat="43.6014" lon="3.40193">
        <ele>193</ele>
        <time>2016-02-14T12:42:42Z</time>
      </trkpt>
      <trkpt lat="43.60141" lon="3.4019">
        <ele>193</ele>
        <time>2016-02-14T12:42:43Z</time>
      </trkpt>
      <trkpt lat="43.6014" lon="3.40188">
        <ele>193</ele>
        <time>2016-02-14T12:42:44Z</time>
      </trkpt>
      <trkpt lat="43.6014" lon="3.40186">
        <ele>194</ele>
        <time>2016-02-14T12:42:45Z</time>
      </trkpt>
      <trkpt lat="43.60139" lon="3.40184">
        <ele>194.5</ele>
        <time>2016-02-14T12:42:46Z</time>
      </trkpt>
      <trkpt lat="43.60138" lon="3.40182">
        <ele>195</ele>
        <time>2016-02-14T12:42:47Z</time>
      </trkpt>
      <trkpt lat="43.60137" lon="3.4018">
        <ele>195.5</ele>
        <time>2016-02-14T12:42:48Z</time>
      </trkpt>
      <trkpt lat="43.60136" lon="3.40178">
        <ele>196</ele>
        <time>2016-02-14T12:42:49Z</time>
      </trkpt>
      <trkpt lat="43.60135" lon="3.40176">
        <ele>196.5</ele>
        <time>2016-02-14T12:42:50Z</time>
      </trkpt>
      <trkpt lat="43.60133" lon="3.40173">
        <ele>196.5</ele>
        <time>2016-02-14T12:42:51Z</time>
      </trkpt>
      <trkpt lat="43.60132" lon="3.40171">
        <ele>196.5</ele>
        <time>2016-02-14T12:42:52Z</time>
      </trkpt>
      <trkpt lat="43.60131" lon="3.40169">
        <ele>196</ele>
        <time>2016-02-14T12:42:53Z</time>
      </trkpt>
      <trkpt lat="43.6013" lon="3.40166">
        <ele>196</ele>
        <time>2016-02-14T12:42:54Z</time>
      </trkpt>
      <trkpt lat="43.60128" lon="3.40165">
        <ele>196</ele>
        <time>2016-02-14T12:42:55Z</time>
      </trkpt>
      <trkpt lat="43.60127" lon="3.40165">
        <ele>197.5</ele>
        <time>2016-02-14T12:42:56Z</time>
      </trkpt>
      <trkpt lat="43.60126" lon="3.40163">
        <ele>197.5</ele>
        <time>2016-02-14T12:42:57Z</time>
      </trkpt>
      <trkpt lat="43.60124" lon="3.40161">
        <ele>198</ele>
        <time>2016-02-14T12:42:58Z</time>
      </trkpt>
      <trkpt lat="43.60123" lon="3.40159">
        <ele>198.5</ele>
        <time>2016-02-14T12:42:59Z</time>
      </trkpt>
      <trkpt lat="43.60121" lon="3.40157">
        <ele>198.5</ele>
        <time>2016-02-14T12:43:00Z</time>
      </trkpt>
      <trkpt lat="43.6012" lon="3.40155">
        <ele>198.5</ele>
        <time>2016-02-14T12:43:01Z</time>
      </trkpt>
      <trkpt lat="43.60119" lon="3.40153">
        <ele>199</ele>
        <time>2016-02-14T12:43:02Z</time>
      </trkpt>
      <trkpt lat="43.60117" lon="3.40151">
        <ele>199.5</ele>
        <time>2016-02-14T12:43:03Z</time>
      </trkpt>
      <trkpt lat="43.60116" lon="3.40149">
        <ele>199.5</ele>
        <time>2016-02-14T12:43:04Z</time>
      </trkpt>
      <trkpt lat="43.60115" lon="3.40146">
        <ele>199</ele>
        <time>2016-02-14T12:43:05Z</time>
      </trkpt>
      <trkpt lat="43.60113" lon="3.40144">
        <ele>199.5</ele>
        <time>2016-02-14T12:43:06Z</time>
      </trkpt>
      <trkpt lat="43.60112" lon="3.40142">
        <ele>200</ele>
        <time>2016-02-14T12:43:07Z</time>
      </trkpt>
      <trkpt lat="43.6011" lon="3.4014">
        <ele>200.5</ele>
        <time>2016-02-14T12:43:08Z</time>
      </trkpt>
      <trkpt lat="43.60109" lon="3.40137">
        <ele>200.5</ele>
        <time>2016-02-14T12:43:09Z</time>
      </trkpt>
      <trkpt lat="43.60108" lon="3.40135">
        <ele>201</ele>
        <time>2016-02-14T12:43:10Z</time>
      </trkpt>
      <trkpt lat="43.60107" lon="3.40131">
        <ele>200.5</ele>
        <time>2016-02-14T12:43:11Z</time>
      </trkpt>
      <trkpt lat="43.60105" lon="3.4013">
        <ele>200.5</ele>
        <time>2016-02-14T12:43:12Z</time>
      </trkpt>
      <trkpt lat="43.60104" lon="3.4013">
        <ele>201.5</ele>
        <time>2016-02-14T12:43:13Z</time>
      </trkpt>
      <trkpt lat="43.60102" lon="3.40127">
        <ele>202.5</ele>
        <time>2016-02-14T12:43:14Z</time>
      </trkpt>
      <trkpt lat="43.60101" lon="3.40124">
        <ele>202.5</ele>
        <time>2016-02-14T12:43:15Z</time>
      </trkpt>
      <trkpt lat="43.60099" lon="3.4012">
        <ele>201.5</ele>
        <time>2016-02-14T12:43:16Z</time>
      </trkpt>
      <trkpt lat="43.60098" lon="3.40117">
        <ele>202.5</ele>
        <time>2016-02-14T12:43:17Z</time>
      </trkpt>
      <trkpt lat="43.60096" lon="3.40114">
        <ele>202.5</ele>
        <time>2016-02-14T12:43:18Z</time>
      </trkpt>
      <trkpt lat="43.60094" lon="3.40111">
        <ele>202.5</ele>
        <time>2016-02-14T12:43:19Z</time>
      </trkpt>
      <trkpt lat="43.60091" lon="3.40108">
        <ele>202.5</ele>
        <time>2016-02-14T12:43:20Z</time>
      </trkpt>
      <trkpt lat="43.60091" lon="3.40102">
        <ele>202.5</ele>
        <time>2016-02-14T12:43:21Z</time>
      </trkpt>
      <trkpt lat="43.60089" lon="3.40099">
        <ele>202.5</ele>
        <time>2016-02-14T12:43:22Z</time>
      </trkpt>
      <trkpt lat="43.60087" lon="3.40096">
        <ele>204</ele>
        <time>2016-02-14T12:43:23Z</time>
      </trkpt>
      <trkpt lat="43.60085" lon="3.40093">
        <ele>204</ele>
        <time>2016-02-14T12:43:24Z</time>
      </trkpt>
      <trkpt lat="43.60082" lon="3.40091">
        <ele>204</ele>
        <time>2016-02-14T12:43:25Z</time>
      </trkpt>
      <trkpt lat="43.6008" lon="3.40088">
        <ele>203.5</ele>
        <time>2016-02-14T12:43:26Z</time>
      </trkpt>
      <trkpt lat="43.60077" lon="3.40086">
        <ele>204</ele>
        <time>2016-02-14T12:43:27Z</time>
      </trkpt>
      <trkpt lat="43.60076" lon="3.40082">
        <ele>205</ele>
        <time>2016-02-14T12:43:28Z</time>
      </trkpt>
      <trkpt lat="43.60076" lon="3.40079">
        <ele>204</ele>
        <time>2016-02-14T12:43:29Z</time>
      </trkpt>
      <trkpt lat="43.60074" lon="3.40068">
        <ele>203.5</ele>
        <time>2016-02-14T12:43:31Z</time>
      </trkpt>
      <trkpt lat="43.60072" lon="3.40063">
        <ele>203.5</ele>
        <time>2016-02-14T12:43:32Z</time>
      </trkpt>
      <trkpt lat="43.6007" lon="3.40059">
        <ele>203.5</ele>
        <time>2016-02-14T12:43:33Z</time>
      </trkpt>
      <trkpt lat="43.60068" lon="3.40053">
        <ele>203.5</ele>
        <time>2016-02-14T12:43:34Z</time>
      </trkpt>
      <trkpt lat="43.60066" lon="3.40049">
        <ele>204</ele>
        <time>2016-02-14T12:43:35Z</time>
      </trkpt>
      <trkpt lat="43.60065" lon="3.40045">
        <ele>204</ele>
        <time>2016-02-14T12:43:36Z</time>
      </trkpt>
      <trkpt lat="43.60062" lon="3.40043">
        <ele>202.5</ele>
        <time>2016-02-14T12:43:37Z</time>
      </trkpt>
      <trkpt lat="43.60059" lon="3.40041">
        <ele>204</ele>
        <time>2016-02-14T12:43:38Z</time>
      </trkpt>
      <trkpt lat="43.60057" lon="3.40038">
        <ele>204.5</ele>
        <time>2016-02-14T12:43:39Z</time>
      </trkpt>
      <trkpt lat="43.60056" lon="3.40035">
        <ele>205</ele>
        <time>2016-02-14T12:43:40Z</time>
      </trkpt>
      <trkpt lat="43.60055" lon="3.40032">
        <ele>205.5</ele>
        <time>2016-02-14T12:43:41Z</time>
      </trkpt>
      <trkpt lat="43.60054" lon="3.40029">
        <ele>206.5</ele>
        <time>2016-02-14T12:43:42Z</time>
      </trkpt>
      <trkpt lat="43.60053" lon="3.40026">
        <ele>208</ele>
        <time>2016-02-14T12:43:43Z</time>
      </trkpt>
      <trkpt lat="43.60053" lon="3.40023">
        <ele>209.5</ele>
        <time>2016-02-14T12:43:44Z</time>
      </trkpt>
      <trkpt lat="43.60052" lon="3.40019">
        <ele>210</ele>
        <time>2016-02-14T12:43:45Z</time>
      </trkpt>
      <trkpt lat="43.60049" lon="3.40015">
        <ele>210</ele>
        <time>2016-02-14T12:43:46Z</time>
      </trkpt>
      <trkpt lat="43.60048" lon="3.40012">
        <ele>210</ele>
        <time>2016-02-14T12:43:47Z</time>
      </trkpt>
      <trkpt lat="43.60045" lon="3.40011">
        <ele>211.5</ele>
        <time>2016-02-14T12:43:48Z</time>
      </trkpt>
      <trkpt lat="43.60044" lon="3.40008">
        <ele>210.5</ele>
        <time>2016-02-14T12:43:49Z</time>
      </trkpt>
      <trkpt lat="43.60042" lon="3.40006">
        <ele>211</ele>
        <time>2016-02-14T12:43:50Z</time>
      </trkpt>
      <trkpt lat="43.60039" lon="3.40004">
        <ele>210.5</ele>
        <time>2016-02-14T12:43:51Z</time>
      </trkpt>
      <trkpt lat="43.60037" lon="3.39999">
        <ele>208.5</ele>
        <time>2016-02-14T12:43:52Z</time>
      </trkpt>
      <trkpt lat="43.60035" lon="3.39996">
        <ele>208</ele>
        <time>2016-02-14T12:43:53Z</time>
      </trkpt>
      <trkpt lat="43.60032" lon="3.39993">
        <ele>207</ele>
        <time>2016-02-14T12:43:54Z</time>
      </trkpt>
      <trkpt lat="43.60029" lon="3.39991">
        <ele>208</ele>
        <time>2016-02-14T12:43:55Z</time>
      </trkpt>
      <trkpt lat="43.60027" lon="3.39988">
        <ele>207.5</ele>
        <time>2016-02-14T12:43:56Z</time>
      </trkpt>
      <trkpt lat="43.60027" lon="3.39983">
        <ele>206.5</ele>
        <time>2016-02-14T12:43:57Z</time>
      </trkpt>
      <trkpt lat="43.60023" lon="3.39982">
        <ele>207</ele>
        <time>2016-02-14T12:43:58Z</time>
      </trkpt>
      <trkpt lat="43.60021" lon="3.39978">
        <ele>207</ele>
        <time>2016-02-14T12:43:59Z</time>
      </trkpt>
      <trkpt lat="43.60019" lon="3.39975">
        <ele>206.5</ele>
        <time>2016-02-14T12:44:00Z</time>
      </trkpt>
      <trkpt lat="43.60017" lon="3.39972">
        <ele>206.5</ele>
        <time>2016-02-14T12:44:01Z</time>
      </trkpt>
      <trkpt lat="43.60015" lon="3.39969">
        <ele>206</ele>
        <time>2016-02-14T12:44:02Z</time>
      </trkpt>
      <trkpt lat="43.60013" lon="3.39966">
        <ele>205</ele>
        <time>2016-02-14T12:44:03Z</time>
      </trkpt>
      <trkpt lat="43.6001" lon="3.39962">
        <ele>204</ele>
        <time>2016-02-14T12:44:04Z</time>
      </trkpt>
      <trkpt lat="43.60011" lon="3.39957">
        <ele>204.5</ele>
        <time>2016-02-14T12:44:05Z</time>
      </trkpt>
      <trkpt lat="43.60009" lon="3.39954">
        <ele>205</ele>
        <time>2016-02-14T12:44:06Z</time>
      </trkpt>
      <trkpt lat="43.60007" lon="3.39952">
        <ele>205</ele>
        <time>2016-02-14T12:44:07Z</time>
      </trkpt>
      <trkpt lat="43.60006" lon="3.39948">
        <ele>206</ele>
        <time>2016-02-14T12:44:08Z</time>
      </trkpt>
      <trkpt lat="43.60007" lon="3.39944">
        <ele>206</ele>
        <time>2016-02-14T12:44:09Z</time>
      </trkpt>
      <trkpt lat="43.60006" lon="3.39941">
        <ele>206</ele>
        <time>2016-02-14T12:44:10Z</time>
      </trkpt>
      <trkpt lat="43.60004" lon="3.39938">
        <ele>206</ele>
        <time>2016-02-14T12:44:11Z</time>
      </trkpt>
      <trkpt lat="43.60001" lon="3.39936">
        <ele>206</ele>
        <time>2016-02-14T12:44:12Z</time>
      </trkpt>
      <trkpt lat="43.59999" lon="3.39934">
        <ele>206.5</ele>
        <time>2016-02-14T12:44:13Z</time>
      </trkpt>
      <trkpt lat="43.59997" lon="3.39931">
        <ele>207.5</ele>
        <time>2016-02-14T12:44:14Z</time>
      </trkpt>
      <trkpt lat="43.59994" lon="3.39927">
        <ele>209.5</ele>
        <time>2016-02-14T12:44:16Z</time>
      </trkpt>
      <trkpt lat="43.59993" lon="3.39925">
        <ele>210</ele>
        <time>2016-02-14T12:44:16Z</time>
      </trkpt>
      <trkpt lat="43.59992" lon="3.39922">
        <ele>209.5</ele>
        <time>2016-02-14T12:44:17Z</time>
      </trkpt>
      <trkpt lat="43.5999" lon="3.3992">
        <ele>210</ele>
        <time>2016-02-14T12:44:18Z</time>
      </trkpt>
      <trkpt lat="43.59989" lon="3.39918">
        <ele>210.5</ele>
        <time>2016-02-14T12:44:19Z</time>
      </trkpt>
      <trkpt lat="43.59987" lon="3.39916">
        <ele>211.5</ele>
        <time>2016-02-14T12:44:20Z</time>
      </trkpt>
      <trkpt lat="43.59985" lon="3.39914">
        <ele>212</ele>
        <time>2016-02-14T12:44:21Z</time>
      </trkpt>
      <trkpt lat="43.59983" lon="3.39913">
        <ele>212.5</ele>
        <time>2016-02-14T12:44:22Z</time>
      </trkpt>
      <trkpt lat="43.59982" lon="3.39911">
        <ele>213</ele>
        <time>2016-02-14T12:44:23Z</time>
      </trkpt>
      <trkpt lat="43.5998" lon="3.3991">
        <ele>213.5</ele>
        <time>2016-02-14T12:44:24Z</time>
      </trkpt>
      <trkpt lat="43.59978" lon="3.39909">
        <ele>214</ele>
        <time>2016-02-14T12:44:25Z</time>
      </trkpt>
      <trkpt lat="43.59976" lon="3.39907">
        <ele>214.5</ele>
        <time>2016-02-14T12:44:26Z</time>
      </trkpt>
      <trkpt lat="43.59974" lon="3.39907">
        <ele>214</ele>
        <time>2016-02-14T12:44:27Z</time>
      </trkpt>
      <trkpt lat="43.59972" lon="3.39906">
        <ele>214</ele>
        <time>2016-02-14T12:44:28Z</time>
      </trkpt>
      <trkpt lat="43.5997" lon="3.39905">
        <ele>214.5</ele>
        <time>2016-02-14T12:44:29Z</time>
      </trkpt>
      <trkpt lat="43.59968" lon="3.39904">
        <ele>214.5</ele>
        <time>2016-02-14T12:44:30Z</time>
      </trkpt>
      <trkpt lat="43.59967" lon="3.39903">
        <ele>214.5</ele>
        <time>2016-02-14T12:44:31Z</time>
      </trkpt>
      <trkpt lat="43.59966" lon="3.39902">
        <ele>215.5</ele>
        <time>2016-02-14T12:44:32Z</time>
      </trkpt>
      <trkpt lat="43.59964" lon="3.399">
        <ele>215</ele>
        <time>2016-02-14T12:44:33Z</time>
      </trkpt>
      <trkpt lat="43.59963" lon="3.39899">
        <ele>215</ele>
        <time>2016-02-14T12:44:34Z</time>
      </trkpt>
      <trkpt lat="43.59961" lon="3.39898">
        <ele>215.5</ele>
        <time>2016-02-14T12:44:35Z</time>
      </trkpt>
      <trkpt lat="43.5996" lon="3.39896">
        <ele>215.5</ele>
        <time>2016-02-14T12:44:36Z</time>
      </trkpt>
      <trkpt lat="43.59958" lon="3.39895">
        <ele>215</ele>
        <time>2016-02-14T12:44:37Z</time>
      </trkpt>
      <trkpt lat="43.59956" lon="3.39895">
        <ele>217</ele>
        <time>2016-02-14T12:44:38Z</time>
      </trkpt>
      <trkpt lat="43.59953" lon="3.39894">
        <ele>216</ele>
        <time>2016-02-14T12:44:39Z</time>
      </trkpt>
      <trkpt lat="43.59951" lon="3.39893">
        <ele>216</ele>
        <time>2016-02-14T12:44:40Z</time>
      </trkpt>
      <trkpt lat="43.59949" lon="3.39891">
        <ele>216</ele>
        <time>2016-02-14T12:44:42Z</time>
      </trkpt>
      <trkpt lat="43.59945" lon="3.3989">
        <ele>215.5</ele>
        <time>2016-02-14T12:44:42Z</time>
      </trkpt>
      <trkpt lat="43.59943" lon="3.39889">
        <ele>215.5</ele>
        <time>2016-02-14T12:44:43Z</time>
      </trkpt>
      <trkpt lat="43.59941" lon="3.39889">
        <ele>215.5</ele>
        <time>2016-02-14T12:44:44Z</time>
      </trkpt>
      <trkpt lat="43.5994" lon="3.39888">
        <ele>216.5</ele>
        <time>2016-02-14T12:44:45Z</time>
      </trkpt>
      <trkpt lat="43.59938" lon="3.39887">
        <ele>217</ele>
        <time>2016-02-14T12:44:46Z</time>
      </trkpt>
      <trkpt lat="43.59936" lon="3.39887">
        <ele>218</ele>
        <time>2016-02-14T12:44:47Z</time>
      </trkpt>
      <trkpt lat="43.59935" lon="3.39886">
        <ele>218.5</ele>
        <time>2016-02-14T12:44:48Z</time>
      </trkpt>
      <trkpt lat="43.59933" lon="3.39885">
        <ele>219</ele>
        <time>2016-02-14T12:44:49Z</time>
      </trkpt>
      <trkpt lat="43.59931" lon="3.39883">
        <ele>218.5</ele>
        <time>2016-02-14T12:44:50Z</time>
      </trkpt>
      <trkpt lat="43.5993" lon="3.3988">
        <ele>218.5</ele>
        <time>2016-02-14T12:44:51Z</time>
      </trkpt>
      <trkpt lat="43.59928" lon="3.39878">
        <ele>218.5</ele>
        <time>2016-02-14T12:44:52Z</time>
      </trkpt>
      <trkpt lat="43.59927" lon="3.39875">
        <ele>218.5</ele>
        <time>2016-02-14T12:44:53Z</time>
      </trkpt>
      <trkpt lat="43.59926" lon="3.39872">
        <ele>218</ele>
        <time>2016-02-14T12:44:54Z</time>
      </trkpt>
      <trkpt lat="43.59925" lon="3.3987">
        <ele>218</ele>
        <time>2016-02-14T12:44:55Z</time>
      </trkpt>
      <trkpt lat="43.59924" lon="3.39867">
        <ele>218</ele>
        <time>2016-02-14T12:44:56Z</time>
      </trkpt>
      <trkpt lat="43.59923" lon="3.39864">
        <ele>218.5</ele>
        <time>2016-02-14T12:44:57Z</time>
      </trkpt>
      <trkpt lat="43.59922" lon="3.39861">
        <ele>218.5</ele>
        <time>2016-02-14T12:44:58Z</time>
      </trkpt>
      <trkpt lat="43.59922" lon="3.39858">
        <ele>218.5</ele>
        <time>2016-02-14T12:44:59Z</time>
      </trkpt>
      <trkpt lat="43.59921" lon="3.39855">
        <ele>218.5</ele>
        <time>2016-02-14T12:45:00Z</time>
      </trkpt>
      <trkpt lat="43.59921" lon="3.39853">
        <ele>220</ele>
        <time>2016-02-14T12:45:01Z</time>
      </trkpt>
      <trkpt lat="43.5992" lon="3.3985">
        <ele>220</ele>
        <time>2016-02-14T12:45:02Z</time>
      </trkpt>
      <trkpt lat="43.59919" lon="3.39847">
        <ele>220</ele>
        <time>2016-02-14T12:45:03Z</time>
      </trkpt>
      <trkpt lat="43.59918" lon="3.39844">
        <ele>220</ele>
        <time>2016-02-14T12:45:04Z</time>
      </trkpt>
      <trkpt lat="43.59917" lon="3.39842">
        <ele>220.5</ele>
        <time>2016-02-14T12:45:05Z</time>
      </trkpt>
      <trkpt lat="43.59916" lon="3.39839">
        <ele>220.5</ele>
        <time>2016-02-14T12:45:06Z</time>
      </trkpt>
      <trkpt lat="43.59915" lon="3.39836">
        <ele>221</ele>
        <time>2016-02-14T12:45:07Z</time>
      </trkpt>
      <trkpt lat="43.59914" lon="3.39834">
        <ele>220.5</ele>
        <time>2016-02-14T12:45:08Z</time>
      </trkpt>
      <trkpt lat="43.59913" lon="3.39832">
        <ele>220.5</ele>
        <time>2016-02-14T12:45:09Z</time>
      </trkpt>
      <trkpt lat="43.59912" lon="3.39831">
        <ele>220.5</ele>
        <time>2016-02-14T12:45:10Z</time>
      </trkpt>
      <trkpt lat="43.59911" lon="3.3983">
        <ele>220.5</ele>
        <time>2016-02-14T12:45:11Z</time>
      </trkpt>
      <trkpt lat="43.5991" lon="3.39827">
        <ele>220</ele>
        <time>2016-02-14T12:45:12Z</time>
      </trkpt>
      <trkpt lat="43.59909" lon="3.39825">
        <ele>220</ele>
        <time>2016-02-14T12:45:13Z</time>
      </trkpt>
      <trkpt lat="43.59909" lon="3.39822">
        <ele>219.5</ele>
        <time>2016-02-14T12:45:14Z</time>
      </trkpt>
      <trkpt lat="43.59907" lon="3.39819">
        <ele>220</ele>
        <time>2016-02-14T12:45:15Z</time>
      </trkpt>
      <trkpt lat="43.59906" lon="3.39816">
        <ele>220.5</ele>
        <time>2016-02-14T12:45:16Z</time>
      </trkpt>
      <trkpt lat="43.59905" lon="3.39814">
        <ele>220.5</ele>
        <time>2016-02-14T12:45:17Z</time>
      </trkpt>
      <trkpt lat="43.59904" lon="3.39811">
        <ele>220.5</ele>
        <time>2016-02-14T12:45:18Z</time>
      </trkpt>
      <trkpt lat="43.59903" lon="3.39808">
        <ele>220</ele>
        <time>2016-02-14T12:45:19Z</time>
      </trkpt>
      <trkpt lat="43.59902" lon="3.39805">
        <ele>220</ele>
        <time>2016-02-14T12:45:20Z</time>
      </trkpt>
      <trkpt lat="43.59901" lon="3.39802">
        <ele>219.5</ele>
        <time>2016-02-14T12:45:21Z</time>
      </trkpt>
      <trkpt lat="43.59899" lon="3.398">
        <ele>219.5</ele>
        <time>2016-02-14T12:45:22Z</time>
      </trkpt>
      <trkpt lat="43.59898" lon="3.39797">
        <ele>219</ele>
        <time>2016-02-14T12:45:23Z</time>
      </trkpt>
      <trkpt lat="43.59897" lon="3.39796">
        <ele>220</ele>
        <time>2016-02-14T12:45:24Z</time>
      </trkpt>
      <trkpt lat="43.59896" lon="3.39795">
        <ele>220</ele>
        <time>2016-02-14T12:45:25Z</time>
      </trkpt>
      <trkpt lat="43.59895" lon="3.39793">
        <ele>220.5</ele>
        <time>2016-02-14T12:45:26Z</time>
      </trkpt>
      <trkpt lat="43.59893" lon="3.39792">
        <ele>220.5</ele>
        <time>2016-02-14T12:45:27Z</time>
      </trkpt>
      <trkpt lat="43.59891" lon="3.3979">
        <ele>220.5</ele>
        <time>2016-02-14T12:45:28Z</time>
      </trkpt>
      <trkpt lat="43.5989" lon="3.39789">
        <ele>220.5</ele>
        <time>2016-02-14T12:45:29Z</time>
      </trkpt>
      <trkpt lat="43.59888" lon="3.39786">
        <ele>221</ele>
        <time>2016-02-14T12:45:33Z</time>
      </trkpt>
      <trkpt lat="43.59887" lon="3.39785">
        <ele>221</ele>
        <time>2016-02-14T12:45:34Z</time>
      </trkpt>
      <trkpt lat="43.59885" lon="3.39784">
        <ele>221.5</ele>
        <time>2016-02-14T12:45:35Z</time>
      </trkpt>
      <trkpt lat="43.59884" lon="3.39782">
        <ele>221.5</ele>
        <time>2016-02-14T12:45:36Z</time>
      </trkpt>
      <trkpt lat="43.59882" lon="3.39781">
        <ele>221.5</ele>
        <time>2016-02-14T12:45:37Z</time>
      </trkpt>
      <trkpt lat="43.59881" lon="3.3978">
        <ele>221.5</ele>
        <time>2016-02-14T12:45:38Z</time>
      </trkpt>
      <trkpt lat="43.5988" lon="3.39778">
        <ele>220.5</ele>
        <time>2016-02-14T12:45:40Z</time>
      </trkpt>
      <trkpt lat="43.59878" lon="3.39776">
        <ele>220.5</ele>
        <time>2016-02-14T12:45:40Z</time>
      </trkpt>
      <trkpt lat="43.59877" lon="3.39775">
        <ele>220</ele>
        <time>2016-02-14T12:45:41Z</time>
      </trkpt>
      <trkpt lat="43.59875" lon="3.39774">
        <ele>220.5</ele>
        <time>2016-02-14T12:45:42Z</time>
      </trkpt>
      <trkpt lat="43.59873" lon="3.39773">
        <ele>220.5</ele>
        <time>2016-02-14T12:45:43Z</time>
      </trkpt>
      <trkpt lat="43.59871" lon="3.39773">
        <ele>220.5</ele>
        <time>2016-02-14T12:45:44Z</time>
      </trkpt>
      <trkpt lat="43.59869" lon="3.39772">
        <ele>220.5</ele>
        <time>2016-02-14T12:45:45Z</time>
      </trkpt>
      <trkpt lat="43.59868" lon="3.39771">
        <ele>221</ele>
        <time>2016-02-14T12:45:46Z</time>
      </trkpt>
      <trkpt lat="43.59867" lon="3.3977">
        <ele>221</ele>
        <time>2016-02-14T12:45:47Z</time>
      </trkpt>
      <trkpt lat="43.59866" lon="3.39769">
        <ele>221.5</ele>
        <time>2016-02-14T12:45:48Z</time>
      </trkpt>
      <trkpt lat="43.59865" lon="3.39768">
        <ele>221.5</ele>
        <time>2016-02-14T12:45:49Z</time>
      </trkpt>
      <trkpt lat="43.59862" lon="3.39767">
        <ele>221.5</ele>
        <time>2016-02-14T12:45:50Z</time>
      </trkpt>
      <trkpt lat="43.59861" lon="3.39767">
        <ele>222.5</ele>
        <time>2016-02-14T12:45:51Z</time>
      </trkpt>
      <trkpt lat="43.5986" lon="3.39765">
        <ele>222.5</ele>
        <time>2016-02-14T12:45:52Z</time>
      </trkpt>
      <trkpt lat="43.59859" lon="3.39764">
        <ele>223.5</ele>
        <time>2016-02-14T12:45:53Z</time>
      </trkpt>
      <trkpt lat="43.59859" lon="3.39763">
        <ele>224.5</ele>
        <time>2016-02-14T12:45:54Z</time>
      </trkpt>
      <trkpt lat="43.59857" lon="3.39762">
        <ele>224.5</ele>
        <time>2016-02-14T12:45:55Z</time>
      </trkpt>
      <trkpt lat="43.59856" lon="3.39761">
        <ele>224.5</ele>
        <time>2016-02-14T12:45:56Z</time>
      </trkpt>
      <trkpt lat="43.59855" lon="3.3976">
        <ele>224.5</ele>
        <time>2016-02-14T12:45:57Z</time>
      </trkpt>
      <trkpt lat="43.59854" lon="3.39759">
        <ele>224.5</ele>
        <time>2016-02-14T12:45:58Z</time>
      </trkpt>
      <trkpt lat="43.59853" lon="3.39758">
        <ele>224.5</ele>
        <time>2016-02-14T12:45:59Z</time>
      </trkpt>
      <trkpt lat="43.59852" lon="3.39757">
        <ele>225.5</ele>
        <time>2016-02-14T12:46:00Z</time>
      </trkpt>
      <trkpt lat="43.59851" lon="3.39756">
        <ele>227</ele>
        <time>2016-02-14T12:46:01Z</time>
      </trkpt>
      <trkpt lat="43.5985" lon="3.39756">
        <ele>227</ele>
        <time>2016-02-14T12:46:02Z</time>
      </trkpt>
      <trkpt lat="43.59849" lon="3.39755">
        <ele>227</ele>
        <time>2016-02-14T12:46:03Z</time>
      </trkpt>
      <trkpt lat="43.59848" lon="3.39754">
        <ele>227</ele>
        <time>2016-02-14T12:46:04Z</time>
      </trkpt>
      <trkpt lat="43.59847" lon="3.39753">
        <ele>227.5</ele>
        <time>2016-02-14T12:46:05Z</time>
      </trkpt>
      <trkpt lat="43.59846" lon="3.39751">
        <ele>228</ele>
        <time>2016-02-14T12:46:06Z</time>
      </trkpt>
      <trkpt lat="43.59845" lon="3.3975">
        <ele>227.5</ele>
        <time>2016-02-14T12:46:07Z</time>
      </trkpt>
      <trkpt lat="43.59843" lon="3.39749">
        <ele>227.5</ele>
        <time>2016-02-14T12:46:08Z</time>
      </trkpt>
      <trkpt lat="43.59842" lon="3.39747">
        <ele>227.5</ele>
        <time>2016-02-14T12:46:09Z</time>
      </trkpt>
      <trkpt lat="43.59841" lon="3.39746">
        <ele>227</ele>
        <time>2016-02-14T12:46:10Z</time>
      </trkpt>
      <trkpt lat="43.5984" lon="3.39745">
        <ele>228</ele>
        <time>2016-02-14T12:46:11Z</time>
      </trkpt>
      <trkpt lat="43.59839" lon="3.39744">
        <ele>228</ele>
        <time>2016-02-14T12:46:12Z</time>
      </trkpt>
      <trkpt lat="43.59838" lon="3.39743">
        <ele>228</ele>
        <time>2016-02-14T12:46:13Z</time>
      </trkpt>
      <trkpt lat="43.59837" lon="3.39742">
        <ele>228.5</ele>
        <time>2016-02-14T12:46:14Z</time>
      </trkpt>
      <trkpt lat="43.59836" lon="3.39741">
        <ele>228.5</ele>
        <time>2016-02-14T12:46:15Z</time>
      </trkpt>
      <trkpt lat="43.59835" lon="3.39739">
        <ele>229</ele>
        <time>2016-02-14T12:46:16Z</time>
      </trkpt>
      <trkpt lat="43.59834" lon="3.39738">
        <ele>229</ele>
        <time>2016-02-14T12:46:17Z</time>
      </trkpt>
      <trkpt lat="43.59833" lon="3.39736">
        <ele>229.5</ele>
        <time>2016-02-14T12:46:18Z</time>
      </trkpt>
      <trkpt lat="43.59832" lon="3.39735">
        <ele>230</ele>
        <time>2016-02-14T12:46:19Z</time>
      </trkpt>
      <trkpt lat="43.59831" lon="3.39734">
        <ele>230</ele>
        <time>2016-02-14T12:46:20Z</time>
      </trkpt>
      <trkpt lat="43.5983" lon="3.39732">
        <ele>230.5</ele>
        <time>2016-02-14T12:46:21Z</time>
      </trkpt>
      <trkpt lat="43.59829" lon="3.39731">
        <ele>230.5</ele>
        <time>2016-02-14T12:46:22Z</time>
      </trkpt>
      <trkpt lat="43.59828" lon="3.3973">
        <ele>230.5</ele>
        <time>2016-02-14T12:46:23Z</time>
      </trkpt>
      <trkpt lat="43.59827" lon="3.3973">
        <ele>231.5</ele>
        <time>2016-02-14T12:46:24Z</time>
      </trkpt>
      <trkpt lat="43.59826" lon="3.3973">
        <ele>232.5</ele>
        <time>2016-02-14T12:46:25Z</time>
      </trkpt>
      <trkpt lat="43.59824" lon="3.39728">
        <ele>232.5</ele>
        <time>2016-02-14T12:46:26Z</time>
      </trkpt>
      <trkpt lat="43.59823" lon="3.39727">
        <ele>232.5</ele>
        <time>2016-02-14T12:46:27Z</time>
      </trkpt>
      <trkpt lat="43.59824" lon="3.39725">
        <ele>232.5</ele>
        <time>2016-02-14T12:46:28Z</time>
      </trkpt>
      <trkpt lat="43.59823" lon="3.39724">
        <ele>232.5</ele>
        <time>2016-02-14T12:46:29Z</time>
      </trkpt>
      <trkpt lat="43.59822" lon="3.39722">
        <ele>232.5</ele>
        <time>2016-02-14T12:46:30Z</time>
      </trkpt>
      <trkpt lat="43.59821" lon="3.39721">
        <ele>232.5</ele>
        <time>2016-02-14T12:46:31Z</time>
      </trkpt>
      <trkpt lat="43.59819" lon="3.3972">
        <ele>233</ele>
        <time>2016-02-14T12:46:32Z</time>
      </trkpt>
      <trkpt lat="43.59818" lon="3.39718">
        <ele>233</ele>
        <time>2016-02-14T12:46:33Z</time>
      </trkpt>
      <trkpt lat="43.59817" lon="3.39717">
        <ele>233</ele>
        <time>2016-02-14T12:46:34Z</time>
      </trkpt>
      <trkpt lat="43.59815" lon="3.39716">
        <ele>233</ele>
        <time>2016-02-14T12:46:35Z</time>
      </trkpt>
      <trkpt lat="43.59814" lon="3.39714">
        <ele>232.5</ele>
        <time>2016-02-14T12:46:36Z</time>
      </trkpt>
      <trkpt lat="43.59813" lon="3.39712">
        <ele>232.5</ele>
        <time>2016-02-14T12:46:37Z</time>
      </trkpt>
      <trkpt lat="43.59812" lon="3.3971">
        <ele>232.5</ele>
        <time>2016-02-14T12:46:38Z</time>
      </trkpt>
      <trkpt lat="43.59811" lon="3.39708">
        <ele>232.5</ele>
        <time>2016-02-14T12:46:39Z</time>
      </trkpt>
      <trkpt lat="43.59809" lon="3.39706">
        <ele>233</ele>
        <time>2016-02-14T12:46:40Z</time>
      </trkpt>
      <trkpt lat="43.59809" lon="3.39703">
        <ele>233</ele>
        <time>2016-02-14T12:46:41Z</time>
      </trkpt>
      <trkpt lat="43.59808" lon="3.39701">
        <ele>233</ele>
        <time>2016-02-14T12:46:42Z</time>
      </trkpt>
      <trkpt lat="43.59807" lon="3.39699">
        <ele>233.5</ele>
        <time>2016-02-14T12:46:43Z</time>
      </trkpt>
      <trkpt lat="43.59806" lon="3.39698">
        <ele>234.5</ele>
        <time>2016-02-14T12:46:44Z</time>
      </trkpt>
      <trkpt lat="43.59805" lon="3.39696">
        <ele>234.5</ele>
        <time>2016-02-14T12:46:45Z</time>
      </trkpt>
      <trkpt lat="43.59805" lon="3.39694">
        <ele>235</ele>
        <time>2016-02-14T12:46:46Z</time>
      </trkpt>
      <trkpt lat="43.59804" lon="3.39693">
        <ele>235</ele>
        <time>2016-02-14T12:46:47Z</time>
      </trkpt>
      <trkpt lat="43.59804" lon="3.39691">
        <ele>235</ele>
        <time>2016-02-14T12:46:48Z</time>
      </trkpt>
      <trkpt lat="43.59803" lon="3.39689">
        <ele>235</ele>
        <time>2016-02-14T12:46:49Z</time>
      </trkpt>
      <trkpt lat="43.59802" lon="3.39687">
        <ele>235.5</ele>
        <time>2016-02-14T12:46:50Z</time>
      </trkpt>
      <trkpt lat="43.59802" lon="3.39685">
        <ele>236</ele>
        <time>2016-02-14T12:46:51Z</time>
      </trkpt>
      <trkpt lat="43.59801" lon="3.39683">
        <ele>236.5</ele>
        <time>2016-02-14T12:46:52Z</time>
      </trkpt>
      <trkpt lat="43.59801" lon="3.39681">
        <ele>236.5</ele>
        <time>2016-02-14T12:46:53Z</time>
      </trkpt>
      <trkpt lat="43.598" lon="3.3968">
        <ele>237.5</ele>
        <time>2016-02-14T12:46:54Z</time>
      </trkpt>
      <trkpt lat="43.59799" lon="3.39678">
        <ele>238.5</ele>
        <time>2016-02-14T12:46:55Z</time>
      </trkpt>
      <trkpt lat="43.59799" lon="3.39676">
        <ele>238.5</ele>
        <time>2016-02-14T12:46:56Z</time>
      </trkpt>
      <trkpt lat="43.59798" lon="3.39674">
        <ele>238.5</ele>
        <time>2016-02-14T12:46:57Z</time>
      </trkpt>
      <trkpt lat="43.59797" lon="3.39672">
        <ele>239</ele>
        <time>2016-02-14T12:46:58Z</time>
      </trkpt>
      <trkpt lat="43.59797" lon="3.3967">
        <ele>239.5</ele>
        <time>2016-02-14T12:46:59Z</time>
      </trkpt>
      <trkpt lat="43.59797" lon="3.39668">
        <ele>239.5</ele>
        <time>2016-02-14T12:47:00Z</time>
      </trkpt>
      <trkpt lat="43.59796" lon="3.39666">
        <ele>239.5</ele>
        <time>2016-02-14T12:47:01Z</time>
      </trkpt>
      <trkpt lat="43.59796" lon="3.39664">
        <ele>240</ele>
        <time>2016-02-14T12:47:02Z</time>
      </trkpt>
      <trkpt lat="43.59795" lon="3.39663">
        <ele>241</ele>
        <time>2016-02-14T12:47:03Z</time>
      </trkpt>
      <trkpt lat="43.59795" lon="3.3966">
        <ele>240</ele>
        <time>2016-02-14T12:47:04Z</time>
      </trkpt>
      <trkpt lat="43.59795" lon="3.3966">
        <ele>240</ele>
        <time>2016-02-14T12:47:05Z</time>
      </trkpt>
      <trkpt lat="43.59794" lon="3.39657">
        <ele>238.5</ele>
        <time>2016-02-14T12:47:06Z</time>
      </trkpt>
      <trkpt lat="43.59794" lon="3.39655">
        <ele>239</ele>
        <time>2016-02-14T12:47:07Z</time>
      </trkpt>
      <trkpt lat="43.59794" lon="3.39654">
        <ele>239</ele>
        <time>2016-02-14T12:47:08Z</time>
      </trkpt>
      <trkpt lat="43.59793" lon="3.39653">
        <ele>240</ele>
        <time>2016-02-14T12:47:09Z</time>
      </trkpt>
      <trkpt lat="43.59793" lon="3.39651">
        <ele>239.5</ele>
        <time>2016-02-14T12:47:10Z</time>
      </trkpt>
      <trkpt lat="43.59793" lon="3.39648">
        <ele>239.5</ele>
        <time>2016-02-14T12:47:11Z</time>
      </trkpt>
      <trkpt lat="43.59793" lon="3.39645">
        <ele>240</ele>
        <time>2016-02-14T12:47:12Z</time>
      </trkpt>
      <trkpt lat="43.59792" lon="3.39642">
        <ele>240</ele>
        <time>2016-02-14T12:47:13Z</time>
      </trkpt>
      <trkpt lat="43.59792" lon="3.39639">
        <ele>240.5</ele>
        <time>2016-02-14T12:47:14Z</time>
      </trkpt>
      <trkpt lat="43.59792" lon="3.39637">
        <ele>240.5</ele>
        <time>2016-02-14T12:47:15Z</time>
      </trkpt>
      <trkpt lat="43.59792" lon="3.39632">
        <ele>241</ele>
        <time>2016-02-14T12:47:17Z</time>
      </trkpt>
      <trkpt lat="43.59791" lon="3.3963">
        <ele>242</ele>
        <time>2016-02-14T12:47:18Z</time>
      </trkpt>
      <trkpt lat="43.59791" lon="3.39627">
        <ele>242.5</ele>
        <time>2016-02-14T12:47:19Z</time>
      </trkpt>
      <trkpt lat="43.5979" lon="3.39625">
        <ele>243.5</ele>
        <time>2016-02-14T12:47:20Z</time>
      </trkpt>
      <trkpt lat="43.5979" lon="3.39623">
        <ele>243.5</ele>
        <time>2016-02-14T12:47:21Z</time>
      </trkpt>
      <trkpt lat="43.5979" lon="3.3962">
        <ele>244</ele>
        <time>2016-02-14T12:47:22Z</time>
      </trkpt>
      <trkpt lat="43.59789" lon="3.39618">
        <ele>245.5</ele>
        <time>2016-02-14T12:47:23Z</time>
      </trkpt>
      <trkpt lat="43.59789" lon="3.39616">
        <ele>245.5</ele>
        <time>2016-02-14T12:47:24Z</time>
      </trkpt>
      <trkpt lat="43.59788" lon="3.39614">
        <ele>245.5</ele>
        <time>2016-02-14T12:47:25Z</time>
      </trkpt>
      <trkpt lat="43.59788" lon="3.39612">
        <ele>246</ele>
        <time>2016-02-14T12:47:26Z</time>
      </trkpt>
      <trkpt lat="43.59787" lon="3.39609">
        <ele>246</ele>
        <time>2016-02-14T12:47:27Z</time>
      </trkpt>
      <trkpt lat="43.59787" lon="3.39608">
        <ele>246</ele>
        <time>2016-02-14T12:47:28Z</time>
      </trkpt>
      <trkpt lat="43.59786" lon="3.39606">
        <ele>246.5</ele>
        <time>2016-02-14T12:47:29Z</time>
      </trkpt>
      <trkpt lat="43.59786" lon="3.39603">
        <ele>246</ele>
        <time>2016-02-14T12:47:30Z</time>
      </trkpt>
      <trkpt lat="43.59785" lon="3.39601">
        <ele>246</ele>
        <time>2016-02-14T12:47:31Z</time>
      </trkpt>
      <trkpt lat="43.59784" lon="3.39599">
        <ele>246.5</ele>
        <time>2016-02-14T12:47:32Z</time>
      </trkpt>
      <trkpt lat="43.59783" lon="3.39598">
        <ele>247</ele>
        <time>2016-02-14T12:47:33Z</time>
      </trkpt>
      <trkpt lat="43.59782" lon="3.39596">
        <ele>248</ele>
        <time>2016-02-14T12:47:34Z</time>
      </trkpt>
      <trkpt lat="43.59781" lon="3.39592">
        <ele>246</ele>
        <time>2016-02-14T12:47:35Z</time>
      </trkpt>
      <trkpt lat="43.5978" lon="3.3959">
        <ele>245.5</ele>
        <time>2016-02-14T12:47:36Z</time>
      </trkpt>
      <trkpt lat="43.59779" lon="3.39589">
        <ele>245.5</ele>
        <time>2016-02-14T12:47:37Z</time>
      </trkpt>
      <trkpt lat="43.59777" lon="3.39584">
        <ele>245.5</ele>
        <time>2016-02-14T12:47:39Z</time>
      </trkpt>
      <trkpt lat="43.59776" lon="3.39583">
        <ele>246</ele>
        <time>2016-02-14T12:47:40Z</time>
      </trkpt>
      <trkpt lat="43.59774" lon="3.39581">
        <ele>246.5</ele>
        <time>2016-02-14T12:47:41Z</time>
      </trkpt>
      <trkpt lat="43.59773" lon="3.39579">
        <ele>247</ele>
        <time>2016-02-14T12:47:42Z</time>
      </trkpt>
      <trkpt lat="43.59772" lon="3.39577">
        <ele>247.5</ele>
        <time>2016-02-14T12:47:43Z</time>
      </trkpt>
      <trkpt lat="43.59771" lon="3.39575">
        <ele>247</ele>
        <time>2016-02-14T12:47:44Z</time>
      </trkpt>
      <trkpt lat="43.5977" lon="3.39574">
        <ele>247</ele>
        <time>2016-02-14T12:47:45Z</time>
      </trkpt>
      <trkpt lat="43.59769" lon="3.39572">
        <ele>246.5</ele>
        <time>2016-02-14T12:47:46Z</time>
      </trkpt>
      <trkpt lat="43.59767" lon="3.3957">
        <ele>247</ele>
        <time>2016-02-14T12:47:47Z</time>
      </trkpt>
      <trkpt lat="43.59766" lon="3.39569">
        <ele>247.5</ele>
        <time>2016-02-14T12:47:48Z</time>
      </trkpt>
      <trkpt lat="43.59765" lon="3.39566">
        <ele>245.5</ele>
        <time>2016-02-14T12:47:49Z</time>
      </trkpt>
      <trkpt lat="43.59763" lon="3.39564">
        <ele>244.5</ele>
        <time>2016-02-14T12:47:50Z</time>
      </trkpt>
      <trkpt lat="43.59762" lon="3.39562">
        <ele>245</ele>
        <time>2016-02-14T12:47:51Z</time>
      </trkpt>
      <trkpt lat="43.5976" lon="3.39561">
        <ele>245.5</ele>
        <time>2016-02-14T12:47:52Z</time>
      </trkpt>
      <trkpt lat="43.59759" lon="3.39559">
        <ele>245.5</ele>
        <time>2016-02-14T12:47:53Z</time>
      </trkpt>
      <trkpt lat="43.59757" lon="3.39558">
        <ele>246</ele>
        <time>2016-02-14T12:47:54Z</time>
      </trkpt>
      <trkpt lat="43.59756" lon="3.39557">
        <ele>246</ele>
        <time>2016-02-14T12:47:55Z</time>
      </trkpt>
      <trkpt lat="43.59754" lon="3.39556">
        <ele>246</ele>
        <time>2016-02-14T12:47:56Z</time>
      </trkpt>
      <trkpt lat="43.59753" lon="3.39555">
        <ele>246.5</ele>
        <time>2016-02-14T12:47:57Z</time>
      </trkpt>
      <trkpt lat="43.59752" lon="3.39554">
        <ele>246.5</ele>
        <time>2016-02-14T12:47:58Z</time>
      </trkpt>
      <trkpt lat="43.5975" lon="3.39553">
        <ele>247</ele>
        <time>2016-02-14T12:47:59Z</time>
      </trkpt>
      <trkpt lat="43.59749" lon="3.39552">
        <ele>247</ele>
        <time>2016-02-14T12:48:00Z</time>
      </trkpt>
      <trkpt lat="43.59747" lon="3.39551">
        <ele>247.5</ele>
        <time>2016-02-14T12:48:01Z</time>
      </trkpt>
      <trkpt lat="43.59746" lon="3.3955">
        <ele>248</ele>
        <time>2016-02-14T12:48:02Z</time>
      </trkpt>
      <trkpt lat="43.59745" lon="3.3955">
        <ele>248</ele>
        <time>2016-02-14T12:48:03Z</time>
      </trkpt>
      <trkpt lat="43.59743" lon="3.39548">
        <ele>247.5</ele>
        <time>2016-02-14T12:48:04Z</time>
      </trkpt>
      <trkpt lat="43.59742" lon="3.39547">
        <ele>247</ele>
        <time>2016-02-14T12:48:05Z</time>
      </trkpt>
      <trkpt lat="43.59741" lon="3.39545">
        <ele>247</ele>
        <time>2016-02-14T12:48:06Z</time>
      </trkpt>
      <trkpt lat="43.59739" lon="3.39544">
        <ele>247</ele>
        <time>2016-02-14T12:48:07Z</time>
      </trkpt>
      <trkpt lat="43.59738" lon="3.39543">
        <ele>247</ele>
        <time>2016-02-14T12:48:08Z</time>
      </trkpt>
      <trkpt lat="43.59736" lon="3.39542">
        <ele>247</ele>
        <time>2016-02-14T12:48:09Z</time>
      </trkpt>
      <trkpt lat="43.59735" lon="3.39541">
        <ele>247</ele>
        <time>2016-02-14T12:48:10Z</time>
      </trkpt>
      <trkpt lat="43.59734" lon="3.3954">
        <ele>246.5</ele>
        <time>2016-02-14T12:48:11Z</time>
      </trkpt>
      <trkpt lat="43.59732" lon="3.3954">
        <ele>247</ele>
        <time>2016-02-14T12:48:12Z</time>
      </trkpt>
      <trkpt lat="43.59731" lon="3.39539">
        <ele>247</ele>
        <time>2016-02-14T12:48:13Z</time>
      </trkpt>
      <trkpt lat="43.59729" lon="3.39538">
        <ele>247</ele>
        <time>2016-02-14T12:48:14Z</time>
      </trkpt>
      <trkpt lat="43.59728" lon="3.39538">
        <ele>247</ele>
        <time>2016-02-14T12:48:14Z</time>
      </trkpt>
      <trkpt lat="43.59726" lon="3.39538">
        <ele>248.5</ele>
        <time>2016-02-14T12:48:15Z</time>
      </trkpt>
      <trkpt lat="43.59724" lon="3.39537">
        <ele>248</ele>
        <time>2016-02-14T12:48:16Z</time>
      </trkpt>
      <trkpt lat="43.59723" lon="3.39536">
        <ele>248.5</ele>
        <time>2016-02-14T12:48:18Z</time>
      </trkpt>
      <trkpt lat="43.59721" lon="3.39536">
        <ele>248.5</ele>
        <time>2016-02-14T12:48:18Z</time>
      </trkpt>
      <trkpt lat="43.59719" lon="3.39535">
        <ele>249</ele>
        <time>2016-02-14T12:48:19Z</time>
      </trkpt>
      <trkpt lat="43.59717" lon="3.39534">
        <ele>249</ele>
        <time>2016-02-14T12:48:20Z</time>
      </trkpt>
      <trkpt lat="43.59715" lon="3.39534">
        <ele>249.5</ele>
        <time>2016-02-14T12:48:21Z</time>
      </trkpt>
      <trkpt lat="43.59713" lon="3.39533">
        <ele>250</ele>
        <time>2016-02-14T12:48:22Z</time>
      </trkpt>
      <trkpt lat="43.59711" lon="3.39532">
        <ele>250</ele>
        <time>2016-02-14T12:48:24Z</time>
      </trkpt>
      <trkpt lat="43.5971" lon="3.39531">
        <ele>250</ele>
        <time>2016-02-14T12:48:24Z</time>
      </trkpt>
      <trkpt lat="43.59708" lon="3.3953">
        <ele>250.5</ele>
        <time>2016-02-14T12:48:25Z</time>
      </trkpt>
      <trkpt lat="43.59707" lon="3.3953">
        <ele>251</ele>
        <time>2016-02-14T12:48:26Z</time>
      </trkpt>
      <trkpt lat="43.59705" lon="3.39529">
        <ele>251.5</ele>
        <time>2016-02-14T12:48:27Z</time>
      </trkpt>
      <trkpt lat="43.59703" lon="3.39529">
        <ele>251.5</ele>
        <time>2016-02-14T12:48:28Z</time>
      </trkpt>
      <trkpt lat="43.59701" lon="3.39528">
        <ele>251.5</ele>
        <time>2016-02-14T12:48:29Z</time>
      </trkpt>
      <trkpt lat="43.597" lon="3.39527">
        <ele>251</ele>
        <time>2016-02-14T12:48:30Z</time>
      </trkpt>
      <trkpt lat="43.59698" lon="3.39526">
        <ele>251</ele>
        <time>2016-02-14T12:48:31Z</time>
      </trkpt>
      <trkpt lat="43.59697" lon="3.39525">
        <ele>251</ele>
        <time>2016-02-14T12:48:32Z</time>
      </trkpt>
      <trkpt lat="43.59695" lon="3.39524">
        <ele>251</ele>
        <time>2016-02-14T12:48:33Z</time>
      </trkpt>
      <trkpt lat="43.59693" lon="3.39523">
        <ele>251.5</ele>
        <time>2016-02-14T12:48:34Z</time>
      </trkpt>
      <trkpt lat="43.59691" lon="3.39522">
        <ele>252</ele>
        <time>2016-02-14T12:48:35Z</time>
      </trkpt>
      <trkpt lat="43.59689" lon="3.39521">
        <ele>252</ele>
        <time>2016-02-14T12:48:36Z</time>
      </trkpt>
      <trkpt lat="43.59687" lon="3.3952">
        <ele>252</ele>
        <time>2016-02-14T12:48:37Z</time>
      </trkpt>
      <trkpt lat="43.59685" lon="3.39519">
        <ele>252</ele>
        <time>2016-02-14T12:48:38Z</time>
      </trkpt>
      <trkpt lat="43.59684" lon="3.39519">
        <ele>252</ele>
        <time>2016-02-14T12:48:39Z</time>
      </trkpt>
      <trkpt lat="43.59682" lon="3.39518">
        <ele>252.5</ele>
        <time>2016-02-14T12:48:40Z</time>
      </trkpt>
      <trkpt lat="43.5968" lon="3.39518">
        <ele>252.5</ele>
        <time>2016-02-14T12:48:41Z</time>
      </trkpt>
      <trkpt lat="43.59678" lon="3.39517">
        <ele>253</ele>
        <time>2016-02-14T12:48:42Z</time>
      </trkpt>
      <trkpt lat="43.59677" lon="3.39517">
        <ele>253</ele>
        <time>2016-02-14T12:48:44Z</time>
      </trkpt>
      <trkpt lat="43.59675" lon="3.39516">
        <ele>253.5</ele>
        <time>2016-02-14T12:48:45Z</time>
      </trkpt>
      <trkpt lat="43.59674" lon="3.39515">
        <ele>254.5</ele>
        <time>2016-02-14T12:48:45Z</time>
      </trkpt>
      <trkpt lat="43.59672" lon="3.39515">
        <ele>254.5</ele>
        <time>2016-02-14T12:48:46Z</time>
      </trkpt>
      <trkpt lat="43.5967" lon="3.39514">
        <ele>254.5</ele>
        <time>2016-02-14T12:48:47Z</time>
      </trkpt>
      <trkpt lat="43.59669" lon="3.39514">
        <ele>255</ele>
        <time>2016-02-14T12:48:48Z</time>
      </trkpt>
      <trkpt lat="43.59667" lon="3.39514">
        <ele>255.5</ele>
        <time>2016-02-14T12:48:49Z</time>
      </trkpt>
      <trkpt lat="43.59665" lon="3.39513">
        <ele>255.5</ele>
        <time>2016-02-14T12:48:50Z</time>
      </trkpt>
      <trkpt lat="43.59663" lon="3.39513">
        <ele>256</ele>
        <time>2016-02-14T12:48:51Z</time>
      </trkpt>
      <trkpt lat="43.59662" lon="3.39513">
        <ele>256</ele>
        <time>2016-02-14T12:48:52Z</time>
      </trkpt>
      <trkpt lat="43.5966" lon="3.39512">
        <ele>256</ele>
        <time>2016-02-14T12:48:53Z</time>
      </trkpt>
      <trkpt lat="43.59659" lon="3.39511">
        <ele>256</ele>
        <time>2016-02-14T12:48:54Z</time>
      </trkpt>
      <trkpt lat="43.59657" lon="3.39511">
        <ele>256</ele>
        <time>2016-02-14T12:48:55Z</time>
      </trkpt>
      <trkpt lat="43.59656" lon="3.39511">
        <ele>256</ele>
        <time>2016-02-14T12:48:56Z</time>
      </trkpt>
      <trkpt lat="43.59654" lon="3.39511">
        <ele>255.5</ele>
        <time>2016-02-14T12:48:57Z</time>
      </trkpt>
      <trkpt lat="43.59652" lon="3.39511">
        <ele>256</ele>
        <time>2016-02-14T12:48:58Z</time>
      </trkpt>
      <trkpt lat="43.5965" lon="3.39512">
        <ele>256.5</ele>
        <time>2016-02-14T12:48:59Z</time>
      </trkpt>
      <trkpt lat="43.59648" lon="3.39512">
        <ele>256.5</ele>
        <time>2016-02-14T12:49:00Z</time>
      </trkpt>
      <trkpt lat="43.59646" lon="3.39512">
        <ele>256.5</ele>
        <time>2016-02-14T12:49:01Z</time>
      </trkpt>
      <trkpt lat="43.59645" lon="3.39513">
        <ele>256.5</ele>
        <time>2016-02-14T12:49:02Z</time>
      </trkpt>
      <trkpt lat="43.59643" lon="3.39513">
        <ele>256.5</ele>
        <time>2016-02-14T12:49:03Z</time>
      </trkpt>
      <trkpt lat="43.59641" lon="3.39513">
        <ele>256.5</ele>
        <time>2016-02-14T12:49:04Z</time>
      </trkpt>
      <trkpt lat="43.5964" lon="3.39513">
        <ele>256.5</ele>
        <time>2016-02-14T12:49:05Z</time>
      </trkpt>
      <trkpt lat="43.59638" lon="3.39513">
        <ele>257</ele>
        <time>2016-02-14T12:49:06Z</time>
      </trkpt>
      <trkpt lat="43.59636" lon="3.39514">
        <ele>257</ele>
        <time>2016-02-14T12:49:07Z</time>
      </trkpt>
      <trkpt lat="43.59635" lon="3.39514">
        <ele>257.5</ele>
        <time>2016-02-14T12:49:08Z</time>
      </trkpt>
      <trkpt lat="43.59633" lon="3.39514">
        <ele>257.5</ele>
        <time>2016-02-14T12:49:09Z</time>
      </trkpt>
      <trkpt lat="43.59631" lon="3.39514">
        <ele>258</ele>
        <time>2016-02-14T12:49:10Z</time>
      </trkpt>
      <trkpt lat="43.59629" lon="3.39515">
        <ele>258.5</ele>
        <time>2016-02-14T12:49:11Z</time>
      </trkpt>
      <trkpt lat="43.59628" lon="3.39516">
        <ele>259</ele>
        <time>2016-02-14T12:49:12Z</time>
      </trkpt>
      <trkpt lat="43.59626" lon="3.39516">
        <ele>259.5</ele>
        <time>2016-02-14T12:49:13Z</time>
      </trkpt>
      <trkpt lat="43.59624" lon="3.39517">
        <ele>260</ele>
        <time>2016-02-14T12:49:14Z</time>
      </trkpt>
      <trkpt lat="43.59622" lon="3.39518">
        <ele>260.5</ele>
        <time>2016-02-14T12:49:15Z</time>
      </trkpt>
      <trkpt lat="43.59621" lon="3.39518">
        <ele>261</ele>
        <time>2016-02-14T12:49:16Z</time>
      </trkpt>
      <trkpt lat="43.59619" lon="3.39519">
        <ele>261.5</ele>
        <time>2016-02-14T12:49:17Z</time>
      </trkpt>
      <trkpt lat="43.59617" lon="3.3952">
        <ele>262</ele>
        <time>2016-02-14T12:49:18Z</time>
      </trkpt>
      <trkpt lat="43.59615" lon="3.39521">
        <ele>262</ele>
        <time>2016-02-14T12:49:19Z</time>
      </trkpt>
      <trkpt lat="43.59614" lon="3.39522">
        <ele>262.5</ele>
        <time>2016-02-14T12:49:20Z</time>
      </trkpt>
      <trkpt lat="43.59612" lon="3.39523">
        <ele>263</ele>
        <time>2016-02-14T12:49:21Z</time>
      </trkpt>
      <trkpt lat="43.5961" lon="3.39523">
        <ele>263.5</ele>
        <time>2016-02-14T12:49:22Z</time>
      </trkpt>
      <trkpt lat="43.59609" lon="3.39524">
        <ele>263.5</ele>
        <time>2016-02-14T12:49:23Z</time>
      </trkpt>
      <trkpt lat="43.59607" lon="3.39525">
        <ele>264</ele>
        <time>2016-02-14T12:49:24Z</time>
      </trkpt>
      <trkpt lat="43.59606" lon="3.39526">
        <ele>264.5</ele>
        <time>2016-02-14T12:49:25Z</time>
      </trkpt>
      <trkpt lat="43.59604" lon="3.39528">
        <ele>265</ele>
        <time>2016-02-14T12:49:26Z</time>
      </trkpt>
      <trkpt lat="43.59602" lon="3.39529">
        <ele>265</ele>
        <time>2016-02-14T12:49:27Z</time>
      </trkpt>
      <trkpt lat="43.59601" lon="3.3953">
        <ele>266</ele>
        <time>2016-02-14T12:49:28Z</time>
      </trkpt>
      <trkpt lat="43.59599" lon="3.39531">
        <ele>266.5</ele>
        <time>2016-02-14T12:49:29Z</time>
      </trkpt>
      <trkpt lat="43.59598" lon="3.39532">
        <ele>266.5</ele>
        <time>2016-02-14T12:49:30Z</time>
      </trkpt>
      <trkpt lat="43.59596" lon="3.39533">
        <ele>267</ele>
        <time>2016-02-14T12:49:31Z</time>
      </trkpt>
      <trkpt lat="43.59595" lon="3.39534">
        <ele>267</ele>
        <time>2016-02-14T12:49:32Z</time>
      </trkpt>
      <trkpt lat="43.59593" lon="3.39535">
        <ele>267</ele>
        <time>2016-02-14T12:49:33Z</time>
      </trkpt>
      <trkpt lat="43.59591" lon="3.39536">
        <ele>267.5</ele>
        <time>2016-02-14T12:49:34Z</time>
      </trkpt>
      <trkpt lat="43.59589" lon="3.39537">
        <ele>267</ele>
        <time>2016-02-14T12:49:35Z</time>
      </trkpt>
      <trkpt lat="43.59587" lon="3.39539">
        <ele>267.5</ele>
        <time>2016-02-14T12:49:36Z</time>
      </trkpt>
      <trkpt lat="43.59585" lon="3.39539">
        <ele>267.5</ele>
        <time>2016-02-14T12:49:37Z</time>
      </trkpt>
      <trkpt lat="43.59582" lon="3.3954">
        <ele>267.5</ele>
        <time>2016-02-14T12:49:38Z</time>
      </trkpt>
      <trkpt lat="43.59581" lon="3.39541">
        <ele>268</ele>
        <time>2016-02-14T12:49:39Z</time>
      </trkpt>
      <trkpt lat="43.59579" lon="3.39542">
        <ele>268.5</ele>
        <time>2016-02-14T12:49:40Z</time>
      </trkpt>
      <trkpt lat="43.59578" lon="3.39543">
        <ele>269.5</ele>
        <time>2016-02-14T12:49:41Z</time>
      </trkpt>
      <trkpt lat="43.59576" lon="3.39543">
        <ele>270</ele>
        <time>2016-02-14T12:49:42Z</time>
      </trkpt>
      <trkpt lat="43.59574" lon="3.39543">
        <ele>270</ele>
        <time>2016-02-14T12:49:43Z</time>
      </trkpt>
      <trkpt lat="43.59573" lon="3.39543">
        <ele>270</ele>
        <time>2016-02-14T12:49:44Z</time>
      </trkpt>
      <trkpt lat="43.59571" lon="3.39543">
        <ele>270.5</ele>
        <time>2016-02-14T12:49:45Z</time>
      </trkpt>
      <trkpt lat="43.59569" lon="3.39543">
        <ele>271</ele>
        <time>2016-02-14T12:49:46Z</time>
      </trkpt>
      <trkpt lat="43.59567" lon="3.39543">
        <ele>271</ele>
        <time>2016-02-14T12:49:47Z</time>
      </trkpt>
      <trkpt lat="43.59565" lon="3.39543">
        <ele>270.5</ele>
        <time>2016-02-14T12:49:48Z</time>
      </trkpt>
      <trkpt lat="43.59564" lon="3.39544">
        <ele>271</ele>
        <time>2016-02-14T12:49:49Z</time>
      </trkpt>
      <trkpt lat="43.59562" lon="3.39544">
        <ele>271.5</ele>
        <time>2016-02-14T12:49:50Z</time>
      </trkpt>
      <trkpt lat="43.59559" lon="3.39545">
        <ele>271.5</ele>
        <time>2016-02-14T12:49:51Z</time>
      </trkpt>
      <trkpt lat="43.59557" lon="3.39544">
        <ele>271.5</ele>
        <time>2016-02-14T12:49:52Z</time>
      </trkpt>
      <trkpt lat="43.59555" lon="3.39544">
        <ele>272</ele>
        <time>2016-02-14T12:49:53Z</time>
      </trkpt>
      <trkpt lat="43.59553" lon="3.39544">
        <ele>272</ele>
        <time>2016-02-14T12:49:54Z</time>
      </trkpt>
      <trkpt lat="43.59552" lon="3.39544">
        <ele>272.5</ele>
        <time>2016-02-14T12:49:55Z</time>
      </trkpt>
      <trkpt lat="43.5955" lon="3.39544">
        <ele>272.5</ele>
        <time>2016-02-14T12:49:56Z</time>
      </trkpt>
      <trkpt lat="43.59548" lon="3.39543">
        <ele>272.5</ele>
        <time>2016-02-14T12:49:57Z</time>
      </trkpt>
      <trkpt lat="43.59547" lon="3.39544">
        <ele>274</ele>
        <time>2016-02-14T12:49:58Z</time>
      </trkpt>
      <trkpt lat="43.59545" lon="3.39544">
        <ele>274.5</ele>
        <time>2016-02-14T12:49:59Z</time>
      </trkpt>
      <trkpt lat="43.59543" lon="3.39543">
        <ele>274.5</ele>
        <time>2016-02-14T12:50:00Z</time>
      </trkpt>
      <trkpt lat="43.59541" lon="3.39543">
        <ele>274.5</ele>
        <time>2016-02-14T12:50:01Z</time>
      </trkpt>
      <trkpt lat="43.59539" lon="3.39543">
        <ele>275</ele>
        <time>2016-02-14T12:50:02Z</time>
      </trkpt>
      <trkpt lat="43.59538" lon="3.39543">
        <ele>275</ele>
        <time>2016-02-14T12:50:03Z</time>
      </trkpt>
      <trkpt lat="43.59536" lon="3.39542">
        <ele>275</ele>
        <time>2016-02-14T12:50:04Z</time>
      </trkpt>
      <trkpt lat="43.59534" lon="3.39542">
        <ele>274.5</ele>
        <time>2016-02-14T12:50:05Z</time>
      </trkpt>
      <trkpt lat="43.59532" lon="3.39542">
        <ele>274.5</ele>
        <time>2016-02-14T12:50:06Z</time>
      </trkpt>
      <trkpt lat="43.5953" lon="3.39543">
        <ele>274.5</ele>
        <time>2016-02-14T12:50:07Z</time>
      </trkpt>
      <trkpt lat="43.59528" lon="3.39543">
        <ele>275</ele>
        <time>2016-02-14T12:50:08Z</time>
      </trkpt>
      <trkpt lat="43.59526" lon="3.39543">
        <ele>275.5</ele>
        <time>2016-02-14T12:50:09Z</time>
      </trkpt>
      <trkpt lat="43.59525" lon="3.39543">
        <ele>276</ele>
        <time>2016-02-14T12:50:10Z</time>
      </trkpt>
      <trkpt lat="43.59523" lon="3.39542">
        <ele>275.5</ele>
        <time>2016-02-14T12:50:11Z</time>
      </trkpt>
      <trkpt lat="43.59521" lon="3.39543">
        <ele>276.5</ele>
        <time>2016-02-14T12:50:12Z</time>
      </trkpt>
      <trkpt lat="43.5952" lon="3.39543">
        <ele>277</ele>
        <time>2016-02-14T12:50:13Z</time>
      </trkpt>
      <trkpt lat="43.59519" lon="3.39543">
        <ele>277</ele>
        <time>2016-02-14T12:50:14Z</time>
      </trkpt>
      <trkpt lat="43.59517" lon="3.39543">
        <ele>276.5</ele>
        <time>2016-02-14T12:50:15Z</time>
      </trkpt>
      <trkpt lat="43.59515" lon="3.39542">
        <ele>277</ele>
        <time>2016-02-14T12:50:16Z</time>
      </trkpt>
      <trkpt lat="43.59513" lon="3.39542">
        <ele>277</ele>
        <time>2016-02-14T12:50:17Z</time>
      </trkpt>
      <trkpt lat="43.59511" lon="3.39541">
        <ele>276.5</ele>
        <time>2016-02-14T12:50:18Z</time>
      </trkpt>
      <trkpt lat="43.5951" lon="3.39541">
        <ele>276.5</ele>
        <time>2016-02-14T12:50:19Z</time>
      </trkpt>
      <trkpt lat="43.59508" lon="3.3954">
        <ele>276.5</ele>
        <time>2016-02-14T12:50:20Z</time>
      </trkpt>
      <trkpt lat="43.59505" lon="3.39541">
        <ele>276.5</ele>
        <time>2016-02-14T12:50:21Z</time>
      </trkpt>
      <trkpt lat="43.59503" lon="3.39539">
        <ele>277.5</ele>
        <time>2016-02-14T12:50:22Z</time>
      </trkpt>
      <trkpt lat="43.59501" lon="3.39538">
        <ele>277.5</ele>
        <time>2016-02-14T12:50:23Z</time>
      </trkpt>
      <trkpt lat="43.59499" lon="3.39538">
        <ele>277.5</ele>
        <time>2016-02-14T12:50:24Z</time>
      </trkpt>
      <trkpt lat="43.59497" lon="3.39537">
        <ele>277.5</ele>
        <time>2016-02-14T12:50:25Z</time>
      </trkpt>
      <trkpt lat="43.59496" lon="3.39536">
        <ele>277.5</ele>
        <time>2016-02-14T12:50:26Z</time>
      </trkpt>
      <trkpt lat="43.59494" lon="3.39535">
        <ele>278</ele>
        <time>2016-02-14T12:50:27Z</time>
      </trkpt>
      <trkpt lat="43.59492" lon="3.39535">
        <ele>278</ele>
        <time>2016-02-14T12:50:28Z</time>
      </trkpt>
      <trkpt lat="43.59491" lon="3.39534">
        <ele>278</ele>
        <time>2016-02-14T12:50:29Z</time>
      </trkpt>
      <trkpt lat="43.59489" lon="3.39533">
        <ele>278.5</ele>
        <time>2016-02-14T12:50:30Z</time>
      </trkpt>
      <trkpt lat="43.59487" lon="3.39533">
        <ele>278.5</ele>
        <time>2016-02-14T12:50:31Z</time>
      </trkpt>
      <trkpt lat="43.59486" lon="3.39533">
        <ele>278.5</ele>
        <time>2016-02-14T12:50:32Z</time>
      </trkpt>
      <trkpt lat="43.59484" lon="3.39534">
        <ele>279</ele>
        <time>2016-02-14T12:50:33Z</time>
      </trkpt>
      <trkpt lat="43.59484" lon="3.39536">
        <ele>279</ele>
        <time>2016-02-14T12:50:34Z</time>
      </trkpt>
      <trkpt lat="43.59484" lon="3.39537">
        <ele>280</ele>
        <time>2016-02-14T12:50:35Z</time>
      </trkpt>
      <trkpt lat="43.59485" lon="3.39538">
        <ele>280</ele>
        <time>2016-02-14T12:50:36Z</time>
      </trkpt>
      <trkpt lat="43.59486" lon="3.39539">
        <ele>279.5</ele>
        <time>2016-02-14T12:50:37Z</time>
      </trkpt>
      <trkpt lat="43.59487" lon="3.3954">
        <ele>279.5</ele>
        <time>2016-02-14T12:50:38Z</time>
      </trkpt>
      <trkpt lat="43.59488" lon="3.3954">
        <ele>279</ele>
        <time>2016-02-14T12:50:39Z</time>
      </trkpt>
      <trkpt lat="43.5949" lon="3.39541">
        <ele>279</ele>
        <time>2016-02-14T12:50:40Z</time>
      </trkpt>
      <trkpt lat="43.59492" lon="3.39542">
        <ele>278.5</ele>
        <time>2016-02-14T12:50:41Z</time>
      </trkpt>
      <trkpt lat="43.59493" lon="3.39543">
        <ele>278.5</ele>
        <time>2016-02-14T12:50:42Z</time>
      </trkpt>
      <trkpt lat="43.59494" lon="3.39544">
        <ele>278.5</ele>
        <time>2016-02-14T12:50:43Z</time>
      </trkpt>
      <trkpt lat="43.59499" lon="3.39545">
        <ele>278</ele>
        <time>2016-02-14T12:50:45Z</time>
      </trkpt>
      <trkpt lat="43.59501" lon="3.39547">
        <ele>278</ele>
        <time>2016-02-14T12:50:46Z</time>
      </trkpt>
      <trkpt lat="43.59502" lon="3.39548">
        <ele>278</ele>
        <time>2016-02-14T12:50:47Z</time>
      </trkpt>
      <trkpt lat="43.59503" lon="3.39549">
        <ele>278</ele>
        <time>2016-02-14T12:50:48Z</time>
      </trkpt>
      <trkpt lat="43.59504" lon="3.39549">
        <ele>278.5</ele>
        <time>2016-02-14T12:50:49Z</time>
      </trkpt>
      <trkpt lat="43.59505" lon="3.39549">
        <ele>278.5</ele>
        <time>2016-02-14T12:50:50Z</time>
      </trkpt>
      <trkpt lat="43.59505" lon="3.3955">
        <ele>278</ele>
        <time>2016-02-14T12:50:51Z</time>
      </trkpt>
      <trkpt lat="43.59506" lon="3.39551">
        <ele>278</ele>
        <time>2016-02-14T12:50:52Z</time>
      </trkpt>
      <trkpt lat="43.59507" lon="3.39552">
        <ele>277.5</ele>
        <time>2016-02-14T12:50:53Z</time>
      </trkpt>
      <trkpt lat="43.59509" lon="3.39553">
        <ele>278</ele>
        <time>2016-02-14T12:50:54Z</time>
      </trkpt>
      <trkpt lat="43.5951" lon="3.39554">
        <ele>278</ele>
        <time>2016-02-14T12:50:55Z</time>
      </trkpt>
      <trkpt lat="43.59511" lon="3.39555">
        <ele>278</ele>
        <time>2016-02-14T12:50:56Z</time>
      </trkpt>
      <trkpt lat="43.59512" lon="3.39556">
        <ele>278</ele>
        <time>2016-02-14T12:50:57Z</time>
      </trkpt>
      <trkpt lat="43.59513" lon="3.39556">
        <ele>278.5</ele>
        <time>2016-02-14T12:50:58Z</time>
      </trkpt>
      <trkpt lat="43.59514" lon="3.39557">
        <ele>278.5</ele>
        <time>2016-02-14T12:50:59Z</time>
      </trkpt>
      <trkpt lat="43.59516" lon="3.39559">
        <ele>279</ele>
        <time>2016-02-14T12:51:00Z</time>
      </trkpt>
      <trkpt lat="43.59517" lon="3.3956">
        <ele>279</ele>
        <time>2016-02-14T12:51:01Z</time>
      </trkpt>
      <trkpt lat="43.59519" lon="3.39561">
        <ele>279</ele>
        <time>2016-02-14T12:51:02Z</time>
      </trkpt>
      <trkpt lat="43.5952" lon="3.39562">
        <ele>279</ele>
        <time>2016-02-14T12:51:03Z</time>
      </trkpt>
      <trkpt lat="43.59522" lon="3.39563">
        <ele>279.5</ele>
        <time>2016-02-14T12:51:04Z</time>
      </trkpt>
      <trkpt lat="43.59523" lon="3.39564">
        <ele>280</ele>
        <time>2016-02-14T12:51:05Z</time>
      </trkpt>
      <trkpt lat="43.59525" lon="3.39565">
        <ele>280.5</ele>
        <time>2016-02-14T12:51:06Z</time>
      </trkpt>
      <trkpt lat="43.59526" lon="3.39566">
        <ele>280.5</ele>
        <time>2016-02-14T12:51:07Z</time>
      </trkpt>
      <trkpt lat="43.59528" lon="3.39567">
        <ele>282</ele>
        <time>2016-02-14T12:51:08Z</time>
      </trkpt>
      <trkpt lat="43.5953" lon="3.39568">
        <ele>282.5</ele>
        <time>2016-02-14T12:51:09Z</time>
      </trkpt>
      <trkpt lat="43.59531" lon="3.39569">
        <ele>282.5</ele>
        <time>2016-02-14T12:51:10Z</time>
      </trkpt>
      <trkpt lat="43.59532" lon="3.39571">
        <ele>283</ele>
        <time>2016-02-14T12:51:11Z</time>
      </trkpt>
      <trkpt lat="43.59534" lon="3.39572">
        <ele>283</ele>
        <time>2016-02-14T12:51:12Z</time>
      </trkpt>
      <trkpt lat="43.59536" lon="3.39573">
        <ele>284</ele>
        <time>2016-02-14T12:51:13Z</time>
      </trkpt>
      <trkpt lat="43.59538" lon="3.39574">
        <ele>284.5</ele>
        <time>2016-02-14T12:51:14Z</time>
      </trkpt>
      <trkpt lat="43.59539" lon="3.39575">
        <ele>285</ele>
        <time>2016-02-14T12:51:15Z</time>
      </trkpt>
      <trkpt lat="43.59541" lon="3.39576">
        <ele>285.5</ele>
        <time>2016-02-14T12:51:16Z</time>
      </trkpt>
      <trkpt lat="43.59542" lon="3.39577">
        <ele>286</ele>
        <time>2016-02-14T12:51:17Z</time>
      </trkpt>
      <trkpt lat="43.59544" lon="3.39578">
        <ele>286</ele>
        <time>2016-02-14T12:51:18Z</time>
      </trkpt>
      <trkpt lat="43.59546" lon="3.39578">
        <ele>286.5</ele>
        <time>2016-02-14T12:51:19Z</time>
      </trkpt>
      <trkpt lat="43.59547" lon="3.39579">
        <ele>287</ele>
        <time>2016-02-14T12:51:20Z</time>
      </trkpt>
      <trkpt lat="43.59548" lon="3.3958">
        <ele>287.5</ele>
        <time>2016-02-14T12:51:21Z</time>
      </trkpt>
      <trkpt lat="43.5955" lon="3.39582">
        <ele>288</ele>
        <time>2016-02-14T12:51:22Z</time>
      </trkpt>
      <trkpt lat="43.59551" lon="3.39583">
        <ele>288</ele>
        <time>2016-02-14T12:51:23Z</time>
      </trkpt>
      <trkpt lat="43.59553" lon="3.39583">
        <ele>288.5</ele>
        <time>2016-02-14T12:51:24Z</time>
      </trkpt>
      <trkpt lat="43.59554" lon="3.39584">
        <ele>289</ele>
        <time>2016-02-14T12:51:25Z</time>
      </trkpt>
      <trkpt lat="43.59556" lon="3.39586">
        <ele>289.5</ele>
        <time>2016-02-14T12:51:26Z</time>
      </trkpt>
      <trkpt lat="43.59557" lon="3.39587">
        <ele>289.5</ele>
        <time>2016-02-14T12:51:27Z</time>
      </trkpt>
      <trkpt lat="43.59559" lon="3.39589">
        <ele>289.5</ele>
        <time>2016-02-14T12:51:28Z</time>
      </trkpt>
      <trkpt lat="43.59562" lon="3.39591">
        <ele>289.5</ele>
        <time>2016-02-14T12:51:29Z</time>
      </trkpt>
      <trkpt lat="43.59564" lon="3.39592">
        <ele>290</ele>
        <time>2016-02-14T12:51:30Z</time>
      </trkpt>
      <trkpt lat="43.59566" lon="3.39592">
        <ele>290.5</ele>
        <time>2016-02-14T12:51:31Z</time>
      </trkpt>
      <trkpt lat="43.59568" lon="3.39591">
        <ele>291</ele>
        <time>2016-02-14T12:51:32Z</time>
      </trkpt>
      <trkpt lat="43.5957" lon="3.39591">
        <ele>292</ele>
        <time>2016-02-14T12:51:33Z</time>
      </trkpt>
      <trkpt lat="43.59571" lon="3.39592">
        <ele>291.5</ele>
        <time>2016-02-14T12:51:34Z</time>
      </trkpt>
      <trkpt lat="43.59573" lon="3.39593">
        <ele>292</ele>
        <time>2016-02-14T12:51:35Z</time>
      </trkpt>
      <trkpt lat="43.59574" lon="3.39594">
        <ele>292</ele>
        <time>2016-02-14T12:51:36Z</time>
      </trkpt>
      <trkpt lat="43.59576" lon="3.39595">
        <ele>291.5</ele>
        <time>2016-02-14T12:51:37Z</time>
      </trkpt>
      <trkpt lat="43.59577" lon="3.39595">
        <ele>292</ele>
        <time>2016-02-14T12:51:38Z</time>
      </trkpt>
      <trkpt lat="43.59579" lon="3.39595">
        <ele>292</ele>
        <time>2016-02-14T12:51:39Z</time>
      </trkpt>
      <trkpt lat="43.59581" lon="3.39595">
        <ele>292</ele>
        <time>2016-02-14T12:51:40Z</time>
      </trkpt>
      <trkpt lat="43.59583" lon="3.39595">
        <ele>292.5</ele>
        <time>2016-02-14T12:51:41Z</time>
      </trkpt>
      <trkpt lat="43.59584" lon="3.39595">
        <ele>292.5</ele>
        <time>2016-02-14T12:51:42Z</time>
      </trkpt>
      <trkpt lat="43.59587" lon="3.39595">
        <ele>292.5</ele>
        <time>2016-02-14T12:51:43Z</time>
      </trkpt>
      <trkpt lat="43.59589" lon="3.39596">
        <ele>293</ele>
        <time>2016-02-14T12:51:44Z</time>
      </trkpt>
      <trkpt lat="43.59591" lon="3.39595">
        <ele>293</ele>
        <time>2016-02-14T12:51:45Z</time>
      </trkpt>
      <trkpt lat="43.59593" lon="3.39595">
        <ele>293.5</ele>
        <time>2016-02-14T12:51:46Z</time>
      </trkpt>
      <trkpt lat="43.59595" lon="3.39594">
        <ele>294</ele>
        <time>2016-02-14T12:51:47Z</time>
      </trkpt>
      <trkpt lat="43.59597" lon="3.39594">
        <ele>293.5</ele>
        <time>2016-02-14T12:51:48Z</time>
      </trkpt>
      <trkpt lat="43.59599" lon="3.39594">
        <ele>293.5</ele>
        <time>2016-02-14T12:51:49Z</time>
      </trkpt>
      <trkpt lat="43.596" lon="3.39595">
        <ele>293.5</ele>
        <time>2016-02-14T12:51:50Z</time>
      </trkpt>
      <trkpt lat="43.59601" lon="3.39596">
        <ele>294</ele>
        <time>2016-02-14T12:51:51Z</time>
      </trkpt>
      <trkpt lat="43.59602" lon="3.39598">
        <ele>294</ele>
        <time>2016-02-14T12:51:51Z</time>
      </trkpt>
      <trkpt lat="43.59601" lon="3.396">
        <ele>293.5</ele>
        <time>2016-02-14T12:51:53Z</time>
      </trkpt>
      <trkpt lat="43.596" lon="3.39603">
        <ele>293.5</ele>
        <time>2016-02-14T12:51:53Z</time>
      </trkpt>
      <trkpt lat="43.596" lon="3.39604">
        <ele>295</ele>
        <time>2016-02-14T12:51:54Z</time>
      </trkpt>
      <trkpt lat="43.59598" lon="3.39605">
        <ele>295</ele>
        <time>2016-02-14T12:51:55Z</time>
      </trkpt>
      <trkpt lat="43.59597" lon="3.39605">
        <ele>295.5</ele>
        <time>2016-02-14T12:51:56Z</time>
      </trkpt>
      <trkpt lat="43.59596" lon="3.39606">
        <ele>295.5</ele>
        <time>2016-02-14T12:51:57Z</time>
      </trkpt>
      <trkpt lat="43.59594" lon="3.39606">
        <ele>295</ele>
        <time>2016-02-14T12:51:58Z</time>
      </trkpt>
      <trkpt lat="43.59593" lon="3.39607">
        <ele>295.5</ele>
        <time>2016-02-14T12:51:59Z</time>
      </trkpt>
      <trkpt lat="43.59591" lon="3.39608">
        <ele>295.5</ele>
        <time>2016-02-14T12:52:00Z</time>
      </trkpt>
      <trkpt lat="43.5959" lon="3.39609">
        <ele>296</ele>
        <time>2016-02-14T12:52:01Z</time>
      </trkpt>
      <trkpt lat="43.59588" lon="3.3961">
        <ele>296</ele>
        <time>2016-02-14T12:52:02Z</time>
      </trkpt>
      <trkpt lat="43.59587" lon="3.3961">
        <ele>296</ele>
        <time>2016-02-14T12:52:03Z</time>
      </trkpt>
      <trkpt lat="43.59586" lon="3.39611">
        <ele>296.5</ele>
        <time>2016-02-14T12:52:04Z</time>
      </trkpt>
      <trkpt lat="43.59584" lon="3.39612">
        <ele>296.5</ele>
        <time>2016-02-14T12:52:05Z</time>
      </trkpt>
      <trkpt lat="43.59582" lon="3.39613">
        <ele>296.5</ele>
        <time>2016-02-14T12:52:06Z</time>
      </trkpt>
      <trkpt lat="43.59581" lon="3.39613">
        <ele>296</ele>
        <time>2016-02-14T12:52:07Z</time>
      </trkpt>
      <trkpt lat="43.59579" lon="3.39614">
        <ele>296</ele>
        <time>2016-02-14T12:52:08Z</time>
      </trkpt>
      <trkpt lat="43.59577" lon="3.39615">
        <ele>296.5</ele>
        <time>2016-02-14T12:52:10Z</time>
      </trkpt>
      <trkpt lat="43.59574" lon="3.39616">
        <ele>296.5</ele>
        <time>2016-02-14T12:52:11Z</time>
      </trkpt>
      <trkpt lat="43.59572" lon="3.39617">
        <ele>297</ele>
        <time>2016-02-14T12:52:12Z</time>
      </trkpt>
      <trkpt lat="43.59571" lon="3.39617">
        <ele>297</ele>
        <time>2016-02-14T12:52:13Z</time>
      </trkpt>
      <trkpt lat="43.5957" lon="3.39617">
        <ele>297.5</ele>
        <time>2016-02-14T12:52:14Z</time>
      </trkpt>
      <trkpt lat="43.59569" lon="3.39617">
        <ele>297.5</ele>
        <time>2016-02-14T12:52:15Z</time>
      </trkpt>
      <trkpt lat="43.59567" lon="3.39617">
        <ele>297.5</ele>
        <time>2016-02-14T12:52:16Z</time>
      </trkpt>
      <trkpt lat="43.59566" lon="3.39616">
        <ele>297.5</ele>
        <time>2016-02-14T12:52:17Z</time>
      </trkpt>
      <trkpt lat="43.59564" lon="3.39615">
        <ele>297.5</ele>
        <time>2016-02-14T12:52:18Z</time>
      </trkpt>
      <trkpt lat="43.59563" lon="3.39615">
        <ele>297.5</ele>
        <time>2016-02-14T12:52:19Z</time>
      </trkpt>
      <trkpt lat="43.59561" lon="3.39614">
        <ele>296.5</ele>
        <time>2016-02-14T12:52:20Z</time>
      </trkpt>
      <trkpt lat="43.59559" lon="3.39614">
        <ele>296</ele>
        <time>2016-02-14T12:52:21Z</time>
      </trkpt>
      <trkpt lat="43.59557" lon="3.39614">
        <ele>296</ele>
        <time>2016-02-14T12:52:22Z</time>
      </trkpt>
      <trkpt lat="43.59555" lon="3.39614">
        <ele>296</ele>
        <time>2016-02-14T12:52:23Z</time>
      </trkpt>
      <trkpt lat="43.59553" lon="3.39613">
        <ele>296</ele>
        <time>2016-02-14T12:52:24Z</time>
      </trkpt>
      <trkpt lat="43.59551" lon="3.39612">
        <ele>296</ele>
        <time>2016-02-14T12:52:25Z</time>
      </trkpt>
      <trkpt lat="43.5955" lon="3.39612">
        <ele>296.5</ele>
        <time>2016-02-14T12:52:26Z</time>
      </trkpt>
      <trkpt lat="43.59548" lon="3.39612">
        <ele>297</ele>
        <time>2016-02-14T12:52:27Z</time>
      </trkpt>
      <trkpt lat="43.59546" lon="3.39612">
        <ele>297.5</ele>
        <time>2016-02-14T12:52:28Z</time>
      </trkpt>
      <trkpt lat="43.59544" lon="3.39612">
        <ele>297.5</ele>
        <time>2016-02-14T12:52:29Z</time>
      </trkpt>
      <trkpt lat="43.59543" lon="3.39612">
        <ele>297.5</ele>
        <time>2016-02-14T12:52:30Z</time>
      </trkpt>
      <trkpt lat="43.59541" lon="3.39612">
        <ele>298</ele>
        <time>2016-02-14T12:52:31Z</time>
      </trkpt>
      <trkpt lat="43.59539" lon="3.39611">
        <ele>297.5</ele>
        <time>2016-02-14T12:52:32Z</time>
      </trkpt>
      <trkpt lat="43.59537" lon="3.3961">
        <ele>298</ele>
        <time>2016-02-14T12:52:33Z</time>
      </trkpt>
      <trkpt lat="43.59535" lon="3.3961">
        <ele>298</ele>
        <time>2016-02-14T12:52:34Z</time>
      </trkpt>
      <trkpt lat="43.59533" lon="3.39609">
        <ele>298</ele>
        <time>2016-02-14T12:52:35Z</time>
      </trkpt>
      <trkpt lat="43.59531" lon="3.39609">
        <ele>298.5</ele>
        <time>2016-02-14T12:52:36Z</time>
      </trkpt>
      <trkpt lat="43.59528" lon="3.39609">
        <ele>298</ele>
        <time>2016-02-14T12:52:37Z</time>
      </trkpt>
      <trkpt lat="43.59526" lon="3.39608">
        <ele>298</ele>
        <time>2016-02-14T12:52:38Z</time>
      </trkpt>
      <trkpt lat="43.59524" lon="3.39608">
        <ele>298.5</ele>
        <time>2016-02-14T12:52:39Z</time>
      </trkpt>
      <trkpt lat="43.59522" lon="3.39607">
        <ele>298.5</ele>
        <time>2016-02-14T12:52:40Z</time>
      </trkpt>
      <trkpt lat="43.5952" lon="3.39607">
        <ele>298</ele>
        <time>2016-02-14T12:52:41Z</time>
      </trkpt>
      <trkpt lat="43.59518" lon="3.39606">
        <ele>298</ele>
        <time>2016-02-14T12:52:42Z</time>
      </trkpt>
      <trkpt lat="43.59516" lon="3.39606">
        <ele>297.5</ele>
        <time>2016-02-14T12:52:44Z</time>
      </trkpt>
      <trkpt lat="43.59514" lon="3.39605">
        <ele>297</ele>
        <time>2016-02-14T12:52:45Z</time>
      </trkpt>
      <trkpt lat="43.59509" lon="3.39604">
        <ele>297</ele>
        <time>2016-02-14T12:52:46Z</time>
      </trkpt>
      <trkpt lat="43.59506" lon="3.39603">
        <ele>297</ele>
        <time>2016-02-14T12:52:47Z</time>
      </trkpt>
      <trkpt lat="43.59504" lon="3.39602">
        <ele>297</ele>
        <time>2016-02-14T12:52:48Z</time>
      </trkpt>
      <trkpt lat="43.59502" lon="3.39602">
        <ele>297</ele>
        <time>2016-02-14T12:52:49Z</time>
      </trkpt>
      <trkpt lat="43.59499" lon="3.39601">
        <ele>297</ele>
        <time>2016-02-14T12:52:50Z</time>
      </trkpt>
      <trkpt lat="43.59497" lon="3.396">
        <ele>297</ele>
        <time>2016-02-14T12:52:51Z</time>
      </trkpt>
      <trkpt lat="43.59494" lon="3.39599">
        <ele>297</ele>
        <time>2016-02-14T12:52:52Z</time>
      </trkpt>
      <trkpt lat="43.59491" lon="3.39599">
        <ele>297</ele>
        <time>2016-02-14T12:52:53Z</time>
      </trkpt>
      <trkpt lat="43.59488" lon="3.39598">
        <ele>297.5</ele>
        <time>2016-02-14T12:52:54Z</time>
      </trkpt>
      <trkpt lat="43.59486" lon="3.39597">
        <ele>297.5</ele>
        <time>2016-02-14T12:52:55Z</time>
      </trkpt>
      <trkpt lat="43.59483" lon="3.39597">
        <ele>297.5</ele>
        <time>2016-02-14T12:52:56Z</time>
      </trkpt>
      <trkpt lat="43.59482" lon="3.39595">
        <ele>297.5</ele>
        <time>2016-02-14T12:52:57Z</time>
      </trkpt>
      <trkpt lat="43.59479" lon="3.39594">
        <ele>298</ele>
        <time>2016-02-14T12:52:58Z</time>
      </trkpt>
      <trkpt lat="43.59477" lon="3.39594">
        <ele>298.5</ele>
        <time>2016-02-14T12:52:59Z</time>
      </trkpt>
      <trkpt lat="43.59475" lon="3.39593">
        <ele>298.5</ele>
        <time>2016-02-14T12:53:00Z</time>
      </trkpt>
      <trkpt lat="43.59472" lon="3.39592">
        <ele>298.5</ele>
        <time>2016-02-14T12:53:01Z</time>
      </trkpt>
      <trkpt lat="43.5947" lon="3.39591">
        <ele>299</ele>
        <time>2016-02-14T12:53:02Z</time>
      </trkpt>
      <trkpt lat="43.59468" lon="3.3959">
        <ele>299.5</ele>
        <time>2016-02-14T12:53:03Z</time>
      </trkpt>
      <trkpt lat="43.59465" lon="3.3959">
        <ele>300</ele>
        <time>2016-02-14T12:53:04Z</time>
      </trkpt>
      <trkpt lat="43.59463" lon="3.39589">
        <ele>300.5</ele>
        <time>2016-02-14T12:53:05Z</time>
      </trkpt>
      <trkpt lat="43.5946" lon="3.39588">
        <ele>300.5</ele>
        <time>2016-02-14T12:53:06Z</time>
      </trkpt>
      <trkpt lat="43.59458" lon="3.39587">
        <ele>300.5</ele>
        <time>2016-02-14T12:53:07Z</time>
      </trkpt>
      <trkpt lat="43.59455" lon="3.39586">
        <ele>301</ele>
        <time>2016-02-14T12:53:08Z</time>
      </trkpt>
      <trkpt lat="43.59453" lon="3.39585">
        <ele>300.5</ele>
        <time>2016-02-14T12:53:09Z</time>
      </trkpt>
      <trkpt lat="43.5945" lon="3.39583">
        <ele>301</ele>
        <time>2016-02-14T12:53:10Z</time>
      </trkpt>
      <trkpt lat="43.59447" lon="3.39582">
        <ele>300.5</ele>
        <time>2016-02-14T12:53:11Z</time>
      </trkpt>
      <trkpt lat="43.59444" lon="3.39581">
        <ele>300.5</ele>
        <time>2016-02-14T12:53:12Z</time>
      </trkpt>
      <trkpt lat="43.59442" lon="3.3958">
        <ele>300.5</ele>
        <time>2016-02-14T12:53:13Z</time>
      </trkpt>
      <trkpt lat="43.59439" lon="3.39579">
        <ele>300.5</ele>
        <time>2016-02-14T12:53:14Z</time>
      </trkpt>
      <trkpt lat="43.59436" lon="3.39579">
        <ele>301</ele>
        <time>2016-02-14T12:53:15Z</time>
      </trkpt>
      <trkpt lat="43.59434" lon="3.39578">
        <ele>301</ele>
        <time>2016-02-14T12:53:16Z</time>
      </trkpt>
      <trkpt lat="43.59431" lon="3.39576">
        <ele>300.5</ele>
        <time>2016-02-14T12:53:17Z</time>
      </trkpt>
      <trkpt lat="43.59428" lon="3.39576">
        <ele>301</ele>
        <time>2016-02-14T12:53:18Z</time>
      </trkpt>
      <trkpt lat="43.59425" lon="3.39576">
        <ele>301.5</ele>
        <time>2016-02-14T12:53:19Z</time>
      </trkpt>
      <trkpt lat="43.59422" lon="3.39575">
        <ele>301.5</ele>
        <time>2016-02-14T12:53:20Z</time>
      </trkpt>
      <trkpt lat="43.59419" lon="3.39575">
        <ele>302</ele>
        <time>2016-02-14T12:53:21Z</time>
      </trkpt>
      <trkpt lat="43.59417" lon="3.39574">
        <ele>302</ele>
        <time>2016-02-14T12:53:22Z</time>
      </trkpt>
      <trkpt lat="43.59413" lon="3.39574">
        <ele>303.5</ele>
        <time>2016-02-14T12:53:23Z</time>
      </trkpt>
      <trkpt lat="43.5941" lon="3.39573">
        <ele>304</ele>
        <time>2016-02-14T12:53:24Z</time>
      </trkpt>
      <trkpt lat="43.59407" lon="3.39573">
        <ele>304</ele>
        <time>2016-02-14T12:53:25Z</time>
      </trkpt>
      <trkpt lat="43.59404" lon="3.39572">
        <ele>304</ele>
        <time>2016-02-14T12:53:26Z</time>
      </trkpt>
      <trkpt lat="43.59401" lon="3.39571">
        <ele>304</ele>
        <time>2016-02-14T12:53:27Z</time>
      </trkpt>
      <trkpt lat="43.59398" lon="3.39571">
        <ele>304.5</ele>
        <time>2016-02-14T12:53:28Z</time>
      </trkpt>
      <trkpt lat="43.59395" lon="3.3957">
        <ele>304.5</ele>
        <time>2016-02-14T12:53:29Z</time>
      </trkpt>
      <trkpt lat="43.59392" lon="3.3957">
        <ele>305</ele>
        <time>2016-02-14T12:53:30Z</time>
      </trkpt>
      <trkpt lat="43.59389" lon="3.39569">
        <ele>305</ele>
        <time>2016-02-14T12:53:31Z</time>
      </trkpt>
      <trkpt lat="43.59386" lon="3.39569">
        <ele>305</ele>
        <time>2016-02-14T12:53:32Z</time>
      </trkpt>
      <trkpt lat="43.59384" lon="3.39569">
        <ele>307</ele>
        <time>2016-02-14T12:53:33Z</time>
      </trkpt>
      <trkpt lat="43.59381" lon="3.39567">
        <ele>306</ele>
        <time>2016-02-14T12:53:34Z</time>
      </trkpt>
      <trkpt lat="43.59379" lon="3.39567">
        <ele>306</ele>
        <time>2016-02-14T12:53:35Z</time>
      </trkpt>
      <trkpt lat="43.59376" lon="3.39567">
        <ele>306</ele>
        <time>2016-02-14T12:53:36Z</time>
      </trkpt>
      <trkpt lat="43.59373" lon="3.39566">
        <ele>306</ele>
        <time>2016-02-14T12:53:37Z</time>
      </trkpt>
      <trkpt lat="43.5937" lon="3.39566">
        <ele>305.5</ele>
        <time>2016-02-14T12:53:38Z</time>
      </trkpt>
      <trkpt lat="43.59368" lon="3.39566">
        <ele>306</ele>
        <time>2016-02-14T12:53:39Z</time>
      </trkpt>
      <trkpt lat="43.59365" lon="3.39566">
        <ele>305</ele>
        <time>2016-02-14T12:53:40Z</time>
      </trkpt>
      <trkpt lat="43.59363" lon="3.39567">
        <ele>306</ele>
        <time>2016-02-14T12:53:41Z</time>
      </trkpt>
      <trkpt lat="43.5936" lon="3.39567">
        <ele>306.5</ele>
        <time>2016-02-14T12:53:42Z</time>
      </trkpt>
      <trkpt lat="43.59358" lon="3.39566">
        <ele>306.5</ele>
        <time>2016-02-14T12:53:43Z</time>
      </trkpt>
      <trkpt lat="43.59356" lon="3.39566">
        <ele>307</ele>
        <time>2016-02-14T12:53:44Z</time>
      </trkpt>
      <trkpt lat="43.59354" lon="3.39566">
        <ele>306.5</ele>
        <time>2016-02-14T12:53:45Z</time>
      </trkpt>
      <trkpt lat="43.59352" lon="3.39566">
        <ele>307</ele>
        <time>2016-02-14T12:53:46Z</time>
      </trkpt>
      <trkpt lat="43.59349" lon="3.39566">
        <ele>307.5</ele>
        <time>2016-02-14T12:53:47Z</time>
      </trkpt>
      <trkpt lat="43.59347" lon="3.39566">
        <ele>307.5</ele>
        <time>2016-02-14T12:53:48Z</time>
      </trkpt>
      <trkpt lat="43.59345" lon="3.39567">
        <ele>306.5</ele>
        <time>2016-02-14T12:53:49Z</time>
      </trkpt>
      <trkpt lat="43.59342" lon="3.39567">
        <ele>306</ele>
        <time>2016-02-14T12:53:50Z</time>
      </trkpt>
      <trkpt lat="43.5934" lon="3.39567">
        <ele>306</ele>
        <time>2016-02-14T12:53:51Z</time>
      </trkpt>
      <trkpt lat="43.59338" lon="3.39566">
        <ele>305.5</ele>
        <time>2016-02-14T12:53:52Z</time>
      </trkpt>
      <trkpt lat="43.59336" lon="3.39566">
        <ele>305</ele>
        <time>2016-02-14T12:53:53Z</time>
      </trkpt>
      <trkpt lat="43.59334" lon="3.39566">
        <ele>305</ele>
        <time>2016-02-14T12:53:54Z</time>
      </trkpt>
      <trkpt lat="43.59332" lon="3.39566">
        <ele>305</ele>
        <time>2016-02-14T12:53:55Z</time>
      </trkpt>
      <trkpt lat="43.59329" lon="3.39567">
        <ele>305.5</ele>
        <time>2016-02-14T12:53:56Z</time>
      </trkpt>
      <trkpt lat="43.59327" lon="3.39567">
        <ele>305.5</ele>
        <time>2016-02-14T12:53:57Z</time>
      </trkpt>
      <trkpt lat="43.59325" lon="3.39568">
        <ele>306</ele>
        <time>2016-02-14T12:53:58Z</time>
      </trkpt>
      <trkpt lat="43.59323" lon="3.39569">
        <ele>306.5</ele>
        <time>2016-02-14T12:53:59Z</time>
      </trkpt>
      <trkpt lat="43.59321" lon="3.3957">
        <ele>307.5</ele>
        <time>2016-02-14T12:54:00Z</time>
      </trkpt>
      <trkpt lat="43.59319" lon="3.39571">
        <ele>308</ele>
        <time>2016-02-14T12:54:01Z</time>
      </trkpt>
      <trkpt lat="43.59317" lon="3.39572">
        <ele>308.5</ele>
        <time>2016-02-14T12:54:02Z</time>
      </trkpt>
      <trkpt lat="43.59314" lon="3.39574">
        <ele>308.5</ele>
        <time>2016-02-14T12:54:03Z</time>
      </trkpt>
      <trkpt lat="43.59312" lon="3.39575">
        <ele>308.5</ele>
        <time>2016-02-14T12:54:04Z</time>
      </trkpt>
      <trkpt lat="43.59311" lon="3.39576">
        <ele>309</ele>
        <time>2016-02-14T12:54:05Z</time>
      </trkpt>
      <trkpt lat="43.59309" lon="3.39578">
        <ele>309</ele>
        <time>2016-02-14T12:54:06Z</time>
      </trkpt>
      <trkpt lat="43.59308" lon="3.39579">
        <ele>309</ele>
        <time>2016-02-14T12:54:07Z</time>
      </trkpt>
      <trkpt lat="43.59305" lon="3.3958">
        <ele>309</ele>
        <time>2016-02-14T12:54:08Z</time>
      </trkpt>
      <trkpt lat="43.59303" lon="3.39582">
        <ele>309</ele>
        <time>2016-02-14T12:54:09Z</time>
      </trkpt>
      <trkpt lat="43.593" lon="3.39583">
        <ele>309.5</ele>
        <time>2016-02-14T12:54:10Z</time>
      </trkpt>
      <trkpt lat="43.59298" lon="3.39583">
        <ele>309.5</ele>
        <time>2016-02-14T12:54:11Z</time>
      </trkpt>
      <trkpt lat="43.59296" lon="3.39584">
        <ele>309.5</ele>
        <time>2016-02-14T12:54:12Z</time>
      </trkpt>
      <trkpt lat="43.59294" lon="3.39585">
        <ele>309.5</ele>
        <time>2016-02-14T12:54:13Z</time>
      </trkpt>
      <trkpt lat="43.59293" lon="3.39587">
        <ele>309</ele>
        <time>2016-02-14T12:54:14Z</time>
      </trkpt>
      <trkpt lat="43.59291" lon="3.39588">
        <ele>309</ele>
        <time>2016-02-14T12:54:15Z</time>
      </trkpt>
      <trkpt lat="43.59289" lon="3.3959">
        <ele>308.5</ele>
        <time>2016-02-14T12:54:16Z</time>
      </trkpt>
      <trkpt lat="43.59287" lon="3.39592">
        <ele>309</ele>
        <time>2016-02-14T12:54:17Z</time>
      </trkpt>
      <trkpt lat="43.59285" lon="3.39594">
        <ele>309</ele>
        <time>2016-02-14T12:54:18Z</time>
      </trkpt>
      <trkpt lat="43.59284" lon="3.39597">
        <ele>309.5</ele>
        <time>2016-02-14T12:54:19Z</time>
      </trkpt>
      <trkpt lat="43.59282" lon="3.396">
        <ele>310</ele>
        <time>2016-02-14T12:54:20Z</time>
      </trkpt>
      <trkpt lat="43.5928" lon="3.39603">
        <ele>310.5</ele>
        <time>2016-02-14T12:54:21Z</time>
      </trkpt>
      <trkpt lat="43.59278" lon="3.39607">
        <ele>311</ele>
        <time>2016-02-14T12:54:22Z</time>
      </trkpt>
      <trkpt lat="43.59276" lon="3.3961">
        <ele>311</ele>
        <time>2016-02-14T12:54:23Z</time>
      </trkpt>
      <trkpt lat="43.59274" lon="3.39613">
        <ele>311</ele>
        <time>2016-02-14T12:54:24Z</time>
      </trkpt>
      <trkpt lat="43.59272" lon="3.39615">
        <ele>311</ele>
        <time>2016-02-14T12:54:25Z</time>
      </trkpt>
      <trkpt lat="43.5927" lon="3.39616">
        <ele>312</ele>
        <time>2016-02-14T12:54:26Z</time>
      </trkpt>
      <trkpt lat="43.59268" lon="3.39615">
        <ele>312.5</ele>
        <time>2016-02-14T12:54:27Z</time>
      </trkpt>
      <trkpt lat="43.59266" lon="3.39615">
        <ele>312.5</ele>
        <time>2016-02-14T12:54:28Z</time>
      </trkpt>
      <trkpt lat="43.59264" lon="3.39613">
        <ele>313</ele>
        <time>2016-02-14T12:54:29Z</time>
      </trkpt>
      <trkpt lat="43.59263" lon="3.3961">
        <ele>313</ele>
        <time>2016-02-14T12:54:30Z</time>
      </trkpt>
      <trkpt lat="43.59261" lon="3.39608">
        <ele>313</ele>
        <time>2016-02-14T12:54:31Z</time>
      </trkpt>
      <trkpt lat="43.59258" lon="3.39606">
        <ele>313</ele>
        <time>2016-02-14T12:54:32Z</time>
      </trkpt>
      <trkpt lat="43.59257" lon="3.39603">
        <ele>313.5</ele>
        <time>2016-02-14T12:54:33Z</time>
      </trkpt>
      <trkpt lat="43.59255" lon="3.39601">
        <ele>314</ele>
        <time>2016-02-14T12:54:34Z</time>
      </trkpt>
      <trkpt lat="43.59252" lon="3.39599">
        <ele>314</ele>
        <time>2016-02-14T12:54:35Z</time>
      </trkpt>
      <trkpt lat="43.5925" lon="3.39597">
        <ele>314.5</ele>
        <time>2016-02-14T12:54:36Z</time>
      </trkpt>
      <trkpt lat="43.59248" lon="3.39595">
        <ele>314.5</ele>
        <time>2016-02-14T12:54:37Z</time>
      </trkpt>
      <trkpt lat="43.59246" lon="3.39593">
        <ele>315</ele>
        <time>2016-02-14T12:54:38Z</time>
      </trkpt>
      <trkpt lat="43.59244" lon="3.3959">
        <ele>315</ele>
        <time>2016-02-14T12:54:39Z</time>
      </trkpt>
      <trkpt lat="43.59242" lon="3.3959">
        <ele>315</ele>
        <time>2016-02-14T12:54:40Z</time>
      </trkpt>
      <trkpt lat="43.59238" lon="3.39586">
        <ele>315.5</ele>
        <time>2016-02-14T12:54:42Z</time>
      </trkpt>
      <trkpt lat="43.59236" lon="3.39583">
        <ele>315.5</ele>
        <time>2016-02-14T12:54:43Z</time>
      </trkpt>
      <trkpt lat="43.59234" lon="3.39581">
        <ele>316</ele>
        <time>2016-02-14T12:54:44Z</time>
      </trkpt>
      <trkpt lat="43.59233" lon="3.39579">
        <ele>316.5</ele>
        <time>2016-02-14T12:54:45Z</time>
      </trkpt>
      <trkpt lat="43.59231" lon="3.39576">
        <ele>317</ele>
        <time>2016-02-14T12:54:46Z</time>
      </trkpt>
      <trkpt lat="43.59229" lon="3.39574">
        <ele>317</ele>
        <time>2016-02-14T12:54:47Z</time>
      </trkpt>
      <trkpt lat="43.59227" lon="3.39571">
        <ele>317.5</ele>
        <time>2016-02-14T12:54:48Z</time>
      </trkpt>
      <trkpt lat="43.59225" lon="3.39569">
        <ele>317.5</ele>
        <time>2016-02-14T12:54:49Z</time>
      </trkpt>
      <trkpt lat="43.59224" lon="3.39566">
        <ele>317.5</ele>
        <time>2016-02-14T12:54:50Z</time>
      </trkpt>
      <trkpt lat="43.59222" lon="3.39563">
        <ele>317.5</ele>
        <time>2016-02-14T12:54:51Z</time>
      </trkpt>
      <trkpt lat="43.5922" lon="3.3956">
        <ele>317.5</ele>
        <time>2016-02-14T12:54:52Z</time>
      </trkpt>
      <trkpt lat="43.59218" lon="3.39557">
        <ele>317.5</ele>
        <time>2016-02-14T12:54:53Z</time>
      </trkpt>
      <trkpt lat="43.59216" lon="3.39555">
        <ele>318.5</ele>
        <time>2016-02-14T12:54:54Z</time>
      </trkpt>
      <trkpt lat="43.59215" lon="3.39553">
        <ele>319</ele>
        <time>2016-02-14T12:54:55Z</time>
      </trkpt>
      <trkpt lat="43.59213" lon="3.39551">
        <ele>319.5</ele>
        <time>2016-02-14T12:54:56Z</time>
      </trkpt>
      <trkpt lat="43.59212" lon="3.39548">
        <ele>319.5</ele>
        <time>2016-02-14T12:54:57Z</time>
      </trkpt>
      <trkpt lat="43.59211" lon="3.39546">
        <ele>319.5</ele>
        <time>2016-02-14T12:54:58Z</time>
      </trkpt>
      <trkpt lat="43.5921" lon="3.39543">
        <ele>319.5</ele>
        <time>2016-02-14T12:54:59Z</time>
      </trkpt>
      <trkpt lat="43.59209" lon="3.39541">
        <ele>319.5</ele>
        <time>2016-02-14T12:55:00Z</time>
      </trkpt>
      <trkpt lat="43.59207" lon="3.39538">
        <ele>319</ele>
        <time>2016-02-14T12:55:01Z</time>
      </trkpt>
      <trkpt lat="43.59206" lon="3.39535">
        <ele>319</ele>
        <time>2016-02-14T12:55:02Z</time>
      </trkpt>
      <trkpt lat="43.59205" lon="3.39532">
        <ele>318.5</ele>
        <time>2016-02-14T12:55:03Z</time>
      </trkpt>
      <trkpt lat="43.59204" lon="3.3953">
        <ele>319</ele>
        <time>2016-02-14T12:55:04Z</time>
      </trkpt>
      <trkpt lat="43.59202" lon="3.39527">
        <ele>318.5</ele>
        <time>2016-02-14T12:55:05Z</time>
      </trkpt>
      <trkpt lat="43.59201" lon="3.39524">
        <ele>319</ele>
        <time>2016-02-14T12:55:06Z</time>
      </trkpt>
      <trkpt lat="43.592" lon="3.39521">
        <ele>319</ele>
        <time>2016-02-14T12:55:07Z</time>
      </trkpt>
      <trkpt lat="43.59198" lon="3.39519">
        <ele>319</ele>
        <time>2016-02-14T12:55:08Z</time>
      </trkpt>
      <trkpt lat="43.59196" lon="3.39518">
        <ele>318</ele>
        <time>2016-02-14T12:55:09Z</time>
      </trkpt>
      <trkpt lat="43.59195" lon="3.39515">
        <ele>318.5</ele>
        <time>2016-02-14T12:55:10Z</time>
      </trkpt>
      <trkpt lat="43.59193" lon="3.39513">
        <ele>318.5</ele>
        <time>2016-02-14T12:55:11Z</time>
      </trkpt>
      <trkpt lat="43.59192" lon="3.3951">
        <ele>318.5</ele>
        <time>2016-02-14T12:55:12Z</time>
      </trkpt>
      <trkpt lat="43.59191" lon="3.39508">
        <ele>318.5</ele>
        <time>2016-02-14T12:55:13Z</time>
      </trkpt>
      <trkpt lat="43.5919" lon="3.39506">
        <ele>318.5</ele>
        <time>2016-02-14T12:55:14Z</time>
      </trkpt>
      <trkpt lat="43.59187" lon="3.39502">
        <ele>317.5</ele>
        <time>2016-02-14T12:55:16Z</time>
      </trkpt>
      <trkpt lat="43.59185" lon="3.395">
        <ele>317.5</ele>
        <time>2016-02-14T12:55:17Z</time>
      </trkpt>
      <trkpt lat="43.59183" lon="3.39497">
        <ele>318</ele>
        <time>2016-02-14T12:55:18Z</time>
      </trkpt>
      <trkpt lat="43.59182" lon="3.39497">
        <ele>316.5</ele>
        <time>2016-02-14T12:55:19Z</time>
      </trkpt>
      <trkpt lat="43.5918" lon="3.39496">
        <ele>316.5</ele>
        <time>2016-02-14T12:55:20Z</time>
      </trkpt>
      <trkpt lat="43.59179" lon="3.39494">
        <ele>316.5</ele>
        <time>2016-02-14T12:55:21Z</time>
      </trkpt>
      <trkpt lat="43.59177" lon="3.39492">
        <ele>317</ele>
        <time>2016-02-14T12:55:22Z</time>
      </trkpt>
      <trkpt lat="43.59175" lon="3.3949">
        <ele>317</ele>
        <time>2016-02-14T12:55:23Z</time>
      </trkpt>
      <trkpt lat="43.59173" lon="3.39487">
        <ele>317</ele>
        <time>2016-02-14T12:55:24Z</time>
      </trkpt>
      <trkpt lat="43.59172" lon="3.39485">
        <ele>317</ele>
        <time>2016-02-14T12:55:25Z</time>
      </trkpt>
      <trkpt lat="43.59171" lon="3.39483">
        <ele>317.5</ele>
        <time>2016-02-14T12:55:26Z</time>
      </trkpt>
      <trkpt lat="43.59169" lon="3.39478">
        <ele>318</ele>
        <time>2016-02-14T12:55:28Z</time>
      </trkpt>
      <trkpt lat="43.59167" lon="3.39476">
        <ele>317</ele>
        <time>2016-02-14T12:55:29Z</time>
      </trkpt>
      <trkpt lat="43.59166" lon="3.39475">
        <ele>317</ele>
        <time>2016-02-14T12:55:30Z</time>
      </trkpt>
      <trkpt lat="43.59164" lon="3.39473">
        <ele>317</ele>
        <time>2016-02-14T12:55:31Z</time>
      </trkpt>
      <trkpt lat="43.59163" lon="3.39471">
        <ele>317</ele>
        <time>2016-02-14T12:55:32Z</time>
      </trkpt>
      <trkpt lat="43.59162" lon="3.39468">
        <ele>317</ele>
        <time>2016-02-14T12:55:33Z</time>
      </trkpt>
      <trkpt lat="43.5916" lon="3.39465">
        <ele>317.5</ele>
        <time>2016-02-14T12:55:34Z</time>
      </trkpt>
      <trkpt lat="43.59158" lon="3.39463">
        <ele>317.5</ele>
        <time>2016-02-14T12:55:35Z</time>
      </trkpt>
      <trkpt lat="43.59155" lon="3.3946">
        <ele>318</ele>
        <time>2016-02-14T12:55:37Z</time>
      </trkpt>
      <trkpt lat="43.59154" lon="3.39458">
        <ele>318.5</ele>
        <time>2016-02-14T12:55:38Z</time>
      </trkpt>
      <trkpt lat="43.59152" lon="3.39456">
        <ele>318.5</ele>
        <time>2016-02-14T12:55:39Z</time>
      </trkpt>
      <trkpt lat="43.5915" lon="3.39454">
        <ele>319</ele>
        <time>2016-02-14T12:55:40Z</time>
      </trkpt>
      <trkpt lat="43.59147" lon="3.39451">
        <ele>319</ele>
        <time>2016-02-14T12:55:41Z</time>
      </trkpt>
      <trkpt lat="43.59146" lon="3.39449">
        <ele>320.5</ele>
        <time>2016-02-14T12:55:42Z</time>
      </trkpt>
      <trkpt lat="43.59144" lon="3.39445">
        <ele>321</ele>
        <time>2016-02-14T12:55:43Z</time>
      </trkpt>
      <trkpt lat="43.59143" lon="3.39442">
        <ele>321</ele>
        <time>2016-02-14T12:55:44Z</time>
      </trkpt>
      <trkpt lat="43.59142" lon="3.39439">
        <ele>321.5</ele>
        <time>2016-02-14T12:55:45Z</time>
      </trkpt>
      <trkpt lat="43.59142" lon="3.39437">
        <ele>322</ele>
        <time>2016-02-14T12:55:46Z</time>
      </trkpt>
      <trkpt lat="43.59142" lon="3.39435">
        <ele>323</ele>
        <time>2016-02-14T12:55:47Z</time>
      </trkpt>
      <trkpt lat="43.59142" lon="3.39432">
        <ele>323</ele>
        <time>2016-02-14T12:55:48Z</time>
      </trkpt>
      <trkpt lat="43.59142" lon="3.3943">
        <ele>323.5</ele>
        <time>2016-02-14T12:55:49Z</time>
      </trkpt>
      <trkpt lat="43.59142" lon="3.39427">
        <ele>324.5</ele>
        <time>2016-02-14T12:55:50Z</time>
      </trkpt>
      <trkpt lat="43.59142" lon="3.39424">
        <ele>325</ele>
        <time>2016-02-14T12:55:51Z</time>
      </trkpt>
      <trkpt lat="43.59141" lon="3.3942">
        <ele>325</ele>
        <time>2016-02-14T12:55:52Z</time>
      </trkpt>
      <trkpt lat="43.5914" lon="3.39417">
        <ele>325</ele>
        <time>2016-02-14T12:55:53Z</time>
      </trkpt>
      <trkpt lat="43.5914" lon="3.39412">
        <ele>324.5</ele>
        <time>2016-02-14T12:55:54Z</time>
      </trkpt>
      <trkpt lat="43.59139" lon="3.39409">
        <ele>324.5</ele>
        <time>2016-02-14T12:55:54Z</time>
      </trkpt>
      <trkpt lat="43.59139" lon="3.39405">
        <ele>325</ele>
        <time>2016-02-14T12:55:55Z</time>
      </trkpt>
      <trkpt lat="43.59138" lon="3.39403">
        <ele>326</ele>
        <time>2016-02-14T12:55:56Z</time>
      </trkpt>
      <trkpt lat="43.59138" lon="3.394">
        <ele>327.5</ele>
        <time>2016-02-14T12:55:57Z</time>
      </trkpt>
      <trkpt lat="43.59138" lon="3.39397">
        <ele>328</ele>
        <time>2016-02-14T12:55:58Z</time>
      </trkpt>
      <trkpt lat="43.59137" lon="3.39394">
        <ele>329</ele>
        <time>2016-02-14T12:55:59Z</time>
      </trkpt>
      <trkpt lat="43.59137" lon="3.39391">
        <ele>329.5</ele>
        <time>2016-02-14T12:56:00Z</time>
      </trkpt>
      <trkpt lat="43.59137" lon="3.39388">
        <ele>330</ele>
        <time>2016-02-14T12:56:01Z</time>
      </trkpt>
      <trkpt lat="43.59137" lon="3.39384">
        <ele>330</ele>
        <time>2016-02-14T12:56:02Z</time>
      </trkpt>
      <trkpt lat="43.59136" lon="3.39382">
        <ele>330.5</ele>
        <time>2016-02-14T12:56:03Z</time>
      </trkpt>
      <trkpt lat="43.59134" lon="3.3938">
        <ele>331</ele>
        <time>2016-02-14T12:56:04Z</time>
      </trkpt>
      <trkpt lat="43.59133" lon="3.39378">
        <ele>332</ele>
        <time>2016-02-14T12:56:05Z</time>
      </trkpt>
      <trkpt lat="43.59131" lon="3.39376">
        <ele>332</ele>
        <time>2016-02-14T12:56:06Z</time>
      </trkpt>
      <trkpt lat="43.59129" lon="3.39374">
        <ele>331.5</ele>
        <time>2016-02-14T12:56:07Z</time>
      </trkpt>
      <trkpt lat="43.59127" lon="3.39374">
        <ele>331.5</ele>
        <time>2016-02-14T12:56:08Z</time>
      </trkpt>
      <trkpt lat="43.59125" lon="3.39377">
        <ele>333</ele>
        <time>2016-02-14T12:56:09Z</time>
      </trkpt>
      <trkpt lat="43.59123" lon="3.39379">
        <ele>333.5</ele>
        <time>2016-02-14T12:56:10Z</time>
      </trkpt>
      <trkpt lat="43.59122" lon="3.39382">
        <ele>333.5</ele>
        <time>2016-02-14T12:56:11Z</time>
      </trkpt>
      <trkpt lat="43.59121" lon="3.39385">
        <ele>334</ele>
        <time>2016-02-14T12:56:12Z</time>
      </trkpt>
      <trkpt lat="43.59121" lon="3.39388">
        <ele>334</ele>
        <time>2016-02-14T12:56:13Z</time>
      </trkpt>
      <trkpt lat="43.59122" lon="3.39391">
        <ele>333.5</ele>
        <time>2016-02-14T12:56:14Z</time>
      </trkpt>
      <trkpt lat="43.59122" lon="3.39394">
        <ele>334</ele>
        <time>2016-02-14T12:56:15Z</time>
      </trkpt>
      <trkpt lat="43.59121" lon="3.39397">
        <ele>334</ele>
        <time>2016-02-14T12:56:16Z</time>
      </trkpt>
      <trkpt lat="43.59121" lon="3.394">
        <ele>333.5</ele>
        <time>2016-02-14T12:56:17Z</time>
      </trkpt>
      <trkpt lat="43.5912" lon="3.39403">
        <ele>332.5</ele>
        <time>2016-02-14T12:56:18Z</time>
      </trkpt>
      <trkpt lat="43.59121" lon="3.39406">
        <ele>333.5</ele>
        <time>2016-02-14T12:56:19Z</time>
      </trkpt>
      <trkpt lat="43.59121" lon="3.39409">
        <ele>334</ele>
        <time>2016-02-14T12:56:20Z</time>
      </trkpt>
      <trkpt lat="43.59121" lon="3.39413">
        <ele>334.5</ele>
        <time>2016-02-14T12:56:21Z</time>
      </trkpt>
      <trkpt lat="43.59122" lon="3.39416">
        <ele>334.5</ele>
        <time>2016-02-14T12:56:22Z</time>
      </trkpt>
      <trkpt lat="43.59121" lon="3.3942">
        <ele>334</ele>
        <time>2016-02-14T12:56:23Z</time>
      </trkpt>
      <trkpt lat="43.59121" lon="3.39423">
        <ele>334</ele>
        <time>2016-02-14T12:56:24Z</time>
      </trkpt>
      <trkpt lat="43.59121" lon="3.39426">
        <ele>333</ele>
        <time>2016-02-14T12:56:26Z</time>
      </trkpt>
      <trkpt lat="43.59121" lon="3.3943">
        <ele>333.5</ele>
        <time>2016-02-14T12:56:26Z</time>
      </trkpt>
      <trkpt lat="43.59121" lon="3.39434">
        <ele>333</ele>
        <time>2016-02-14T12:56:27Z</time>
      </trkpt>
      <trkpt lat="43.59123" lon="3.39437">
        <ele>336</ele>
        <time>2016-02-14T12:56:28Z</time>
      </trkpt>
      <trkpt lat="43.59123" lon="3.39441">
        <ele>336</ele>
        <time>2016-02-14T12:56:29Z</time>
      </trkpt>
      <trkpt lat="43.59124" lon="3.39445">
        <ele>337</ele>
        <time>2016-02-14T12:56:30Z</time>
      </trkpt>
      <trkpt lat="43.59126" lon="3.39448">
        <ele>339.5</ele>
        <time>2016-02-14T12:56:31Z</time>
      </trkpt>
      <trkpt lat="43.59127" lon="3.39452">
        <ele>341.5</ele>
        <time>2016-02-14T12:56:32Z</time>
      </trkpt>
      <trkpt lat="43.59128" lon="3.39456">
        <ele>342</ele>
        <time>2016-02-14T12:56:33Z</time>
      </trkpt>
      <trkpt lat="43.59127" lon="3.39459">
        <ele>342</ele>
        <time>2016-02-14T12:56:35Z</time>
      </trkpt>
      <trkpt lat="43.59127" lon="3.39463">
        <ele>340.5</ele>
        <time>2016-02-14T12:56:35Z</time>
      </trkpt>
      <trkpt lat="43.59127" lon="3.39467">
        <ele>339</ele>
        <time>2016-02-14T12:56:36Z</time>
      </trkpt>
      <trkpt lat="43.59126" lon="3.39471">
        <ele>338</ele>
        <time>2016-02-14T12:56:37Z</time>
      </trkpt>
      <trkpt lat="43.59126" lon="3.39475">
        <ele>336</ele>
        <time>2016-02-14T12:56:38Z</time>
      </trkpt>
      <trkpt lat="43.59127" lon="3.39479">
        <ele>336</ele>
        <time>2016-02-14T12:56:39Z</time>
      </trkpt>
      <trkpt lat="43.59127" lon="3.39483">
        <ele>334.5</ele>
        <time>2016-02-14T12:56:40Z</time>
      </trkpt>
      <trkpt lat="43.59127" lon="3.39487">
        <ele>334</ele>
        <time>2016-02-14T12:56:42Z</time>
      </trkpt>
      <trkpt lat="43.59128" lon="3.39491">
        <ele>334</ele>
        <time>2016-02-14T12:56:42Z</time>
      </trkpt>
      <trkpt lat="43.59129" lon="3.39496">
        <ele>334</ele>
        <time>2016-02-14T12:56:43Z</time>
      </trkpt>
      <trkpt lat="43.5913" lon="3.395">
        <ele>333.5</ele>
        <time>2016-02-14T12:56:45Z</time>
      </trkpt>
      <trkpt lat="43.59131" lon="3.39504">
        <ele>334</ele>
        <time>2016-02-14T12:56:45Z</time>
      </trkpt>
      <trkpt lat="43.59132" lon="3.39508">
        <ele>334</ele>
        <time>2016-02-14T12:56:46Z</time>
      </trkpt>
      <trkpt lat="43.59133" lon="3.39511">
        <ele>334.5</ele>
        <time>2016-02-14T12:56:47Z</time>
      </trkpt>
      <trkpt lat="43.59134" lon="3.39514">
        <ele>335</ele>
        <time>2016-02-14T12:56:48Z</time>
      </trkpt>
      <trkpt lat="43.59135" lon="3.39518">
        <ele>335.5</ele>
        <time>2016-02-14T12:56:49Z</time>
      </trkpt>
      <trkpt lat="43.59136" lon="3.39521">
        <ele>334.5</ele>
        <time>2016-02-14T12:56:50Z</time>
      </trkpt>
      <trkpt lat="43.59137" lon="3.39524">
        <ele>335.5</ele>
        <time>2016-02-14T12:56:51Z</time>
      </trkpt>
      <trkpt lat="43.59137" lon="3.39527">
        <ele>335.5</ele>
        <time>2016-02-14T12:56:52Z</time>
      </trkpt>
      <trkpt lat="43.59138" lon="3.39529">
        <ele>335</ele>
        <time>2016-02-14T12:56:53Z</time>
      </trkpt>
      <trkpt lat="43.59138" lon="3.39532">
        <ele>335.5</ele>
        <time>2016-02-14T12:56:54Z</time>
      </trkpt>
      <trkpt lat="43.59139" lon="3.39534">
        <ele>336.5</ele>
        <time>2016-02-14T12:56:55Z</time>
      </trkpt>
      <trkpt lat="43.5914" lon="3.39536">
        <ele>337.5</ele>
        <time>2016-02-14T12:56:56Z</time>
      </trkpt>
      <trkpt lat="43.59141" lon="3.39538">
        <ele>338.5</ele>
        <time>2016-02-14T12:56:57Z</time>
      </trkpt>
      <trkpt lat="43.59143" lon="3.39541">
        <ele>340</ele>
        <time>2016-02-14T12:56:58Z</time>
      </trkpt>
      <trkpt lat="43.59144" lon="3.39543">
        <ele>341.5</ele>
        <time>2016-02-14T12:56:59Z</time>
      </trkpt>
      <trkpt lat="43.59145" lon="3.39545">
        <ele>342.5</ele>
        <time>2016-02-14T12:57:00Z</time>
      </trkpt>
      <trkpt lat="43.59145" lon="3.39547">
        <ele>343</ele>
        <time>2016-02-14T12:57:01Z</time>
      </trkpt>
      <trkpt lat="43.59146" lon="3.3955">
        <ele>343.5</ele>
        <time>2016-02-14T12:57:02Z</time>
      </trkpt>
      <trkpt lat="43.59146" lon="3.39552">
        <ele>343.5</ele>
        <time>2016-02-14T12:57:03Z</time>
      </trkpt>
      <trkpt lat="43.59146" lon="3.39555">
        <ele>344</ele>
        <time>2016-02-14T12:57:04Z</time>
      </trkpt>
      <trkpt lat="43.59147" lon="3.39557">
        <ele>345</ele>
        <time>2016-02-14T12:57:05Z</time>
      </trkpt>
      <trkpt lat="43.59147" lon="3.3956">
        <ele>345</ele>
        <time>2016-02-14T12:57:06Z</time>
      </trkpt>
      <trkpt lat="43.59148" lon="3.39563">
        <ele>345.5</ele>
        <time>2016-02-14T12:57:07Z</time>
      </trkpt>
      <trkpt lat="43.59148" lon="3.39566">
        <ele>346</ele>
        <time>2016-02-14T12:57:08Z</time>
      </trkpt>
      <trkpt lat="43.59148" lon="3.39568">
        <ele>346.5</ele>
        <time>2016-02-14T12:57:09Z</time>
      </trkpt>
      <trkpt lat="43.59148" lon="3.39571">
        <ele>347</ele>
        <time>2016-02-14T12:57:10Z</time>
      </trkpt>
      <trkpt lat="43.59149" lon="3.39574">
        <ele>347</ele>
        <time>2016-02-14T12:57:11Z</time>
      </trkpt>
      <trkpt lat="43.59149" lon="3.39577">
        <ele>347.5</ele>
        <time>2016-02-14T12:57:12Z</time>
      </trkpt>
      <trkpt lat="43.59149" lon="3.3958">
        <ele>347</ele>
        <time>2016-02-14T12:57:13Z</time>
      </trkpt>
      <trkpt lat="43.59149" lon="3.39583">
        <ele>347</ele>
        <time>2016-02-14T12:57:14Z</time>
      </trkpt>
      <trkpt lat="43.59149" lon="3.39586">
        <ele>347</ele>
        <time>2016-02-14T12:57:15Z</time>
      </trkpt>
      <trkpt lat="43.59149" lon="3.39589">
        <ele>346.5</ele>
        <time>2016-02-14T12:57:16Z</time>
      </trkpt>
      <trkpt lat="43.59148" lon="3.39592">
        <ele>346</ele>
        <time>2016-02-14T12:57:17Z</time>
      </trkpt>
      <trkpt lat="43.59149" lon="3.39596">
        <ele>346</ele>
        <time>2016-02-14T12:57:18Z</time>
      </trkpt>
      <trkpt lat="43.59149" lon="3.39599">
        <ele>346</ele>
        <time>2016-02-14T12:57:19Z</time>
      </trkpt>
      <trkpt lat="43.59149" lon="3.39603">
        <ele>346</ele>
        <time>2016-02-14T12:57:20Z</time>
      </trkpt>
      <trkpt lat="43.59148" lon="3.39606">
        <ele>345</ele>
        <time>2016-02-14T12:57:21Z</time>
      </trkpt>
      <trkpt lat="43.59149" lon="3.39609">
        <ele>346</ele>
        <time>2016-02-14T12:57:22Z</time>
      </trkpt>
      <trkpt lat="43.59148" lon="3.39612">
        <ele>345</ele>
        <time>2016-02-14T12:57:23Z</time>
      </trkpt>
      <trkpt lat="43.59148" lon="3.39616">
        <ele>345</ele>
        <time>2016-02-14T12:57:24Z</time>
      </trkpt>
      <trkpt lat="43.59148" lon="3.39619">
        <ele>344.5</ele>
        <time>2016-02-14T12:57:25Z</time>
      </trkpt>
      <trkpt lat="43.59147" lon="3.39623">
        <ele>344.5</ele>
        <time>2016-02-14T12:57:26Z</time>
      </trkpt>
      <trkpt lat="43.59147" lon="3.39626">
        <ele>344.5</ele>
        <time>2016-02-14T12:57:27Z</time>
      </trkpt>
      <trkpt lat="43.59147" lon="3.3963">
        <ele>344.5</ele>
        <time>2016-02-14T12:57:28Z</time>
      </trkpt>
      <trkpt lat="43.59146" lon="3.39633">
        <ele>344</ele>
        <time>2016-02-14T12:57:29Z</time>
      </trkpt>
      <trkpt lat="43.59145" lon="3.39637">
        <ele>343.5</ele>
        <time>2016-02-14T12:57:30Z</time>
      </trkpt>
      <trkpt lat="43.59144" lon="3.3964">
        <ele>343</ele>
        <time>2016-02-14T12:57:31Z</time>
      </trkpt>
      <trkpt lat="43.59143" lon="3.39644">
        <ele>342.5</ele>
        <time>2016-02-14T12:57:32Z</time>
      </trkpt>
      <trkpt lat="43.59143" lon="3.39647">
        <ele>342.5</ele>
        <time>2016-02-14T12:57:33Z</time>
      </trkpt>
      <trkpt lat="43.59143" lon="3.39651">
        <ele>342.5</ele>
        <time>2016-02-14T12:57:34Z</time>
      </trkpt>
      <trkpt lat="43.59142" lon="3.39657">
        <ele>343</ele>
        <time>2016-02-14T12:57:36Z</time>
      </trkpt>
      <trkpt lat="43.59142" lon="3.39661">
        <ele>343</ele>
        <time>2016-02-14T12:57:37Z</time>
      </trkpt>
      <trkpt lat="43.59141" lon="3.39668">
        <ele>343</ele>
        <time>2016-02-14T12:57:39Z</time>
      </trkpt>
      <trkpt lat="43.5914" lon="3.39675">
        <ele>342.5</ele>
        <time>2016-02-14T12:57:41Z</time>
      </trkpt>
      <trkpt lat="43.5914" lon="3.39678">
        <ele>343.5</ele>
        <time>2016-02-14T12:57:42Z</time>
      </trkpt>
      <trkpt lat="43.5914" lon="3.39682">
        <ele>343</ele>
        <time>2016-02-14T12:57:43Z</time>
      </trkpt>
      <trkpt lat="43.5914" lon="3.39685">
        <ele>343</ele>
        <time>2016-02-14T12:57:44Z</time>
      </trkpt>
      <trkpt lat="43.5914" lon="3.39688">
        <ele>343.5</ele>
        <time>2016-02-14T12:57:45Z</time>
      </trkpt>
      <trkpt lat="43.5914" lon="3.39691">
        <ele>344</ele>
        <time>2016-02-14T12:57:46Z</time>
      </trkpt>
      <trkpt lat="43.5914" lon="3.39694">
        <ele>344.5</ele>
        <time>2016-02-14T12:57:47Z</time>
      </trkpt>
      <trkpt lat="43.5914" lon="3.39697">
        <ele>345</ele>
        <time>2016-02-14T12:57:48Z</time>
      </trkpt>
      <trkpt lat="43.5914" lon="3.39701">
        <ele>345</ele>
        <time>2016-02-14T12:57:49Z</time>
      </trkpt>
      <trkpt lat="43.59141" lon="3.39704">
        <ele>345</ele>
        <time>2016-02-14T12:57:50Z</time>
      </trkpt>
      <trkpt lat="43.5914" lon="3.39708">
        <ele>345</ele>
        <time>2016-02-14T12:57:51Z</time>
      </trkpt>
      <trkpt lat="43.5914" lon="3.39713">
        <ele>344.5</ele>
        <time>2016-02-14T12:57:52Z</time>
      </trkpt>
      <trkpt lat="43.5914" lon="3.39717">
        <ele>344</ele>
        <time>2016-02-14T12:57:53Z</time>
      </trkpt>
      <trkpt lat="43.59141" lon="3.39721">
        <ele>344.5</ele>
        <time>2016-02-14T12:57:54Z</time>
      </trkpt>
      <trkpt lat="43.59141" lon="3.39725">
        <ele>344.5</ele>
        <time>2016-02-14T12:57:55Z</time>
      </trkpt>
      <trkpt lat="43.59142" lon="3.39729">
        <ele>344.5</ele>
        <time>2016-02-14T12:57:56Z</time>
      </trkpt>
      <trkpt lat="43.59142" lon="3.39732">
        <ele>345</ele>
        <time>2016-02-14T12:57:57Z</time>
      </trkpt>
      <trkpt lat="43.59142" lon="3.39736">
        <ele>345</ele>
        <time>2016-02-14T12:57:58Z</time>
      </trkpt>
      <trkpt lat="43.59141" lon="3.3974">
        <ele>344.5</ele>
        <time>2016-02-14T12:57:59Z</time>
      </trkpt>
      <trkpt lat="43.5914" lon="3.39744">
        <ele>343.5</ele>
        <time>2016-02-14T12:58:00Z</time>
      </trkpt>
      <trkpt lat="43.59139" lon="3.39747">
        <ele>343</ele>
        <time>2016-02-14T12:58:01Z</time>
      </trkpt>
      <trkpt lat="43.59139" lon="3.3975">
        <ele>343.5</ele>
        <time>2016-02-14T12:58:02Z</time>
      </trkpt>
      <trkpt lat="43.59137" lon="3.39754">
        <ele>342.5</ele>
        <time>2016-02-14T12:58:03Z</time>
      </trkpt>
      <trkpt lat="43.59135" lon="3.39757">
        <ele>341.5</ele>
        <time>2016-02-14T12:58:04Z</time>
      </trkpt>
      <trkpt lat="43.59133" lon="3.3976">
        <ele>341.5</ele>
        <time>2016-02-14T12:58:05Z</time>
      </trkpt>
      <trkpt lat="43.59131" lon="3.39763">
        <ele>341</ele>
        <time>2016-02-14T12:58:06Z</time>
      </trkpt>
      <trkpt lat="43.5913" lon="3.39767">
        <ele>341</ele>
        <time>2016-02-14T12:58:07Z</time>
      </trkpt>
      <trkpt lat="43.59128" lon="3.3977">
        <ele>341</ele>
        <time>2016-02-14T12:58:08Z</time>
      </trkpt>
      <trkpt lat="43.59126" lon="3.39774">
        <ele>340.5</ele>
        <time>2016-02-14T12:58:09Z</time>
      </trkpt>
      <trkpt lat="43.59123" lon="3.39777">
        <ele>341</ele>
        <time>2016-02-14T12:58:10Z</time>
      </trkpt>
      <trkpt lat="43.59122" lon="3.39781">
        <ele>342</ele>
        <time>2016-02-14T12:58:11Z</time>
      </trkpt>
      <trkpt lat="43.59117" lon="3.39789">
        <ele>342.5</ele>
        <time>2016-02-14T12:58:13Z</time>
      </trkpt>
      <trkpt lat="43.59115" lon="3.39794">
        <ele>342.5</ele>
        <time>2016-02-14T12:58:14Z</time>
      </trkpt>
      <trkpt lat="43.59113" lon="3.39799">
        <ele>343</ele>
        <time>2016-02-14T12:58:15Z</time>
      </trkpt>
      <trkpt lat="43.5911" lon="3.39804">
        <ele>343</ele>
        <time>2016-02-14T12:58:16Z</time>
      </trkpt>
      <trkpt lat="43.59107" lon="3.39809">
        <ele>342.5</ele>
        <time>2016-02-14T12:58:17Z</time>
      </trkpt>
      <trkpt lat="43.59103" lon="3.39816">
        <ele>344</ele>
        <time>2016-02-14T12:58:18Z</time>
      </trkpt>
      <trkpt lat="43.591" lon="3.39823">
        <ele>344</ele>
        <time>2016-02-14T12:58:19Z</time>
      </trkpt>
      <trkpt lat="43.59096" lon="3.39829">
        <ele>343.5</ele>
        <time>2016-02-14T12:58:20Z</time>
      </trkpt>
      <trkpt lat="43.5909" lon="3.39834">
        <ele>343</ele>
        <time>2016-02-14T12:58:21Z</time>
      </trkpt>
      <trkpt lat="43.59084" lon="3.39839">
        <ele>342.5</ele>
        <time>2016-02-14T12:58:22Z</time>
      </trkpt>
      <trkpt lat="43.59077" lon="3.39841">
        <ele>343</ele>
        <time>2016-02-14T12:58:23Z</time>
      </trkpt>
      <trkpt lat="43.59065" lon="3.39839">
        <ele>345</ele>
        <time>2016-02-14T12:58:25Z</time>
      </trkpt>
      <trkpt lat="43.59058" lon="3.39837">
        <ele>344.5</ele>
        <time>2016-02-14T12:58:26Z</time>
      </trkpt>
      <trkpt lat="43.59052" lon="3.39836">
        <ele>344.5</ele>
        <time>2016-02-14T12:58:27Z</time>
      </trkpt>
      <trkpt lat="43.59046" lon="3.39837">
        <ele>344</ele>
        <time>2016-02-14T12:58:28Z</time>
      </trkpt>
      <trkpt lat="43.5904" lon="3.39838">
        <ele>343</ele>
        <time>2016-02-14T12:58:29Z</time>
      </trkpt>
      <trkpt lat="43.59033" lon="3.39839">
        <ele>342.5</ele>
        <time>2016-02-14T12:58:30Z</time>
      </trkpt>
      <trkpt lat="43.59027" lon="3.39842">
        <ele>342</ele>
        <time>2016-02-14T12:58:31Z</time>
      </trkpt>
      <trkpt lat="43.59021" lon="3.39844">
        <ele>341.5</ele>
        <time>2016-02-14T12:58:32Z</time>
      </trkpt>
      <trkpt lat="43.59015" lon="3.39847">
        <ele>341</ele>
        <time>2016-02-14T12:58:33Z</time>
      </trkpt>
      <trkpt lat="43.59009" lon="3.39848">
        <ele>341</ele>
        <time>2016-02-14T12:58:34Z</time>
      </trkpt>
      <trkpt lat="43.59004" lon="3.39846">
        <ele>341.5</ele>
        <time>2016-02-14T12:58:35Z</time>
      </trkpt>
      <trkpt lat="43.59" lon="3.39841">
        <ele>341</ele>
        <time>2016-02-14T12:58:36Z</time>
      </trkpt>
      <trkpt lat="43.58998" lon="3.39835">
        <ele>339.5</ele>
        <time>2016-02-14T12:58:37Z</time>
      </trkpt>
      <trkpt lat="43.58994" lon="3.39824">
        <ele>339</ele>
        <time>2016-02-14T12:58:39Z</time>
      </trkpt>
      <trkpt lat="43.58991" lon="3.39819">
        <ele>339</ele>
        <time>2016-02-14T12:58:40Z</time>
      </trkpt>
      <trkpt lat="43.58989" lon="3.39815">
        <ele>339</ele>
        <time>2016-02-14T12:58:41Z</time>
      </trkpt>
      <trkpt lat="43.58985" lon="3.39813">
        <ele>339</ele>
        <time>2016-02-14T12:58:42Z</time>
      </trkpt>
      <trkpt lat="43.58981" lon="3.39809">
        <ele>337.5</ele>
        <time>2016-02-14T12:58:43Z</time>
      </trkpt>
      <trkpt lat="43.58977" lon="3.39809">
        <ele>338</ele>
        <time>2016-02-14T12:58:44Z</time>
      </trkpt>
      <trkpt lat="43.58972" lon="3.39809">
        <ele>338</ele>
        <time>2016-02-14T12:58:45Z</time>
      </trkpt>
      <trkpt lat="43.58968" lon="3.39807">
        <ele>338</ele>
        <time>2016-02-14T12:58:46Z</time>
      </trkpt>
      <trkpt lat="43.58963" lon="3.39808">
        <ele>337.5</ele>
        <time>2016-02-14T12:58:47Z</time>
      </trkpt>
      <trkpt lat="43.58958" lon="3.39805">
        <ele>335.5</ele>
        <time>2016-02-14T12:58:48Z</time>
      </trkpt>
      <trkpt lat="43.58953" lon="3.39805">
        <ele>335.5</ele>
        <time>2016-02-14T12:58:49Z</time>
      </trkpt>
      <trkpt lat="43.58948" lon="3.39805">
        <ele>335.5</ele>
        <time>2016-02-14T12:58:50Z</time>
      </trkpt>
      <trkpt lat="43.58943" lon="3.39804">
        <ele>335.5</ele>
        <time>2016-02-14T12:58:51Z</time>
      </trkpt>
      <trkpt lat="43.58933" lon="3.39803">
        <ele>334.5</ele>
        <time>2016-02-14T12:58:53Z</time>
      </trkpt>
      <trkpt lat="43.58928" lon="3.39804">
        <ele>334.5</ele>
        <time>2016-02-14T12:58:54Z</time>
      </trkpt>
      <trkpt lat="43.58923" lon="3.39805">
        <ele>334.5</ele>
        <time>2016-02-14T12:58:55Z</time>
      </trkpt>
      <trkpt lat="43.58918" lon="3.39807">
        <ele>335</ele>
        <time>2016-02-14T12:58:56Z</time>
      </trkpt>
      <trkpt lat="43.58914" lon="3.3981">
        <ele>335</ele>
        <time>2016-02-14T12:58:57Z</time>
      </trkpt>
      <trkpt lat="43.58909" lon="3.39812">
        <ele>335.5</ele>
        <time>2016-02-14T12:58:58Z</time>
      </trkpt>
      <trkpt lat="43.58905" lon="3.39815">
        <ele>335.5</ele>
        <time>2016-02-14T12:58:59Z</time>
      </trkpt>
      <trkpt lat="43.58901" lon="3.39819">
        <ele>336</ele>
        <time>2016-02-14T12:59:00Z</time>
      </trkpt>
      <trkpt lat="43.58897" lon="3.39822">
        <ele>336</ele>
        <time>2016-02-14T12:59:01Z</time>
      </trkpt>
      <trkpt lat="43.58892" lon="3.39825">
        <ele>336.5</ele>
        <time>2016-02-14T12:59:02Z</time>
      </trkpt>
      <trkpt lat="43.58888" lon="3.39827">
        <ele>336.5</ele>
        <time>2016-02-14T12:59:03Z</time>
      </trkpt>
      <trkpt lat="43.58883" lon="3.39829">
        <ele>337</ele>
        <time>2016-02-14T12:59:04Z</time>
      </trkpt>
      <trkpt lat="43.58879" lon="3.3983">
        <ele>337</ele>
        <time>2016-02-14T12:59:05Z</time>
      </trkpt>
      <trkpt lat="43.58874" lon="3.39832">
        <ele>337.5</ele>
        <time>2016-02-14T12:59:06Z</time>
      </trkpt>
      <trkpt lat="43.5887" lon="3.39833">
        <ele>337.5</ele>
        <time>2016-02-14T12:59:07Z</time>
      </trkpt>
      <trkpt lat="43.58866" lon="3.39834">
        <ele>338</ele>
        <time>2016-02-14T12:59:08Z</time>
      </trkpt>
      <trkpt lat="43.58862" lon="3.39835">
        <ele>338</ele>
        <time>2016-02-14T12:59:09Z</time>
      </trkpt>
      <trkpt lat="43.58857" lon="3.39836">
        <ele>338</ele>
        <time>2016-02-14T12:59:10Z</time>
      </trkpt>
      <trkpt lat="43.58853" lon="3.39837">
        <ele>338.5</ele>
        <time>2016-02-14T12:59:11Z</time>
      </trkpt>
      <trkpt lat="43.58849" lon="3.39838">
        <ele>338</ele>
        <time>2016-02-14T12:59:12Z</time>
      </trkpt>
      <trkpt lat="43.58845" lon="3.39838">
        <ele>338</ele>
        <time>2016-02-14T12:59:13Z</time>
      </trkpt>
      <trkpt lat="43.58841" lon="3.39838">
        <ele>338</ele>
        <time>2016-02-14T12:59:14Z</time>
      </trkpt>
      <trkpt lat="43.58836" lon="3.39838">
        <ele>338</ele>
        <time>2016-02-14T12:59:15Z</time>
      </trkpt>
      <trkpt lat="43.58832" lon="3.39838">
        <ele>338</ele>
        <time>2016-02-14T12:59:16Z</time>
      </trkpt>
      <trkpt lat="43.58828" lon="3.39838">
        <ele>338</ele>
        <time>2016-02-14T12:59:17Z</time>
      </trkpt>
      <trkpt lat="43.58825" lon="3.39839">
        <ele>338</ele>
        <time>2016-02-14T12:59:18Z</time>
      </trkpt>
      <trkpt lat="43.58821" lon="3.39839">
        <ele>338</ele>
        <time>2016-02-14T12:59:19Z</time>
      </trkpt>
      <trkpt lat="43.58817" lon="3.39839">
        <ele>338</ele>
        <time>2016-02-14T12:59:20Z</time>
      </trkpt>
      <trkpt lat="43.58813" lon="3.39838">
        <ele>337.5</ele>
        <time>2016-02-14T12:59:21Z</time>
      </trkpt>
      <trkpt lat="43.58809" lon="3.39839">
        <ele>338</ele>
        <time>2016-02-14T12:59:22Z</time>
      </trkpt>
      <trkpt lat="43.58805" lon="3.39839">
        <ele>337.5</ele>
        <time>2016-02-14T12:59:23Z</time>
      </trkpt>
      <trkpt lat="43.58801" lon="3.3984">
        <ele>337.5</ele>
        <time>2016-02-14T12:59:24Z</time>
      </trkpt>
      <trkpt lat="43.58796" lon="3.39842">
        <ele>339</ele>
        <time>2016-02-14T12:59:25Z</time>
      </trkpt>
      <trkpt lat="43.58793" lon="3.39841">
        <ele>338</ele>
        <time>2016-02-14T12:59:26Z</time>
      </trkpt>
      <trkpt lat="43.58788" lon="3.3984">
        <ele>337.5</ele>
        <time>2016-02-14T12:59:27Z</time>
      </trkpt>
      <trkpt lat="43.58784" lon="3.39838">
        <ele>336.5</ele>
        <time>2016-02-14T12:59:28Z</time>
      </trkpt>
      <trkpt lat="43.5878" lon="3.39838">
        <ele>336.5</ele>
        <time>2016-02-14T12:59:29Z</time>
      </trkpt>
      <trkpt lat="43.58776" lon="3.39838">
        <ele>337</ele>
        <time>2016-02-14T12:59:30Z</time>
      </trkpt>
      <trkpt lat="43.58772" lon="3.39838">
        <ele>337</ele>
        <time>2016-02-14T12:59:31Z</time>
      </trkpt>
      <trkpt lat="43.58768" lon="3.39838">
        <ele>337</ele>
        <time>2016-02-14T12:59:32Z</time>
      </trkpt>
      <trkpt lat="43.58764" lon="3.39839">
        <ele>337</ele>
        <time>2016-02-14T12:59:33Z</time>
      </trkpt>
      <trkpt lat="43.5876" lon="3.3984">
        <ele>337</ele>
        <time>2016-02-14T12:59:34Z</time>
      </trkpt>
      <trkpt lat="43.58756" lon="3.3984">
        <ele>337.5</ele>
        <time>2016-02-14T12:59:35Z</time>
      </trkpt>
      <trkpt lat="43.58752" lon="3.39839">
        <ele>337.5</ele>
        <time>2016-02-14T12:59:36Z</time>
      </trkpt>
      <trkpt lat="43.58748" lon="3.39837">
        <ele>337</ele>
        <time>2016-02-14T12:59:36Z</time>
      </trkpt>
      <trkpt lat="43.58744" lon="3.39837">
        <ele>337.5</ele>
        <time>2016-02-14T12:59:38Z</time>
      </trkpt>
      <trkpt lat="43.5874" lon="3.39836">
        <ele>337.5</ele>
        <time>2016-02-14T12:59:38Z</time>
      </trkpt>
      <trkpt lat="43.58737" lon="3.39836">
        <ele>337</ele>
        <time>2016-02-14T12:59:39Z</time>
      </trkpt>
      <trkpt lat="43.58733" lon="3.39835">
        <ele>336.5</ele>
        <time>2016-02-14T12:59:40Z</time>
      </trkpt>
      <trkpt lat="43.58729" lon="3.39835">
        <ele>336.5</ele>
        <time>2016-02-14T12:59:41Z</time>
      </trkpt>
      <trkpt lat="43.58725" lon="3.39835">
        <ele>336.5</ele>
        <time>2016-02-14T12:59:42Z</time>
      </trkpt>
      <trkpt lat="43.58721" lon="3.39835">
        <ele>336</ele>
        <time>2016-02-14T12:59:43Z</time>
      </trkpt>
      <trkpt lat="43.58718" lon="3.39834">
        <ele>335</ele>
        <time>2016-02-14T12:59:44Z</time>
      </trkpt>
      <trkpt lat="43.58714" lon="3.39834">
        <ele>335</ele>
        <time>2016-02-14T12:59:45Z</time>
      </trkpt>
      <trkpt lat="43.5871" lon="3.39835">
        <ele>335</ele>
        <time>2016-02-14T12:59:47Z</time>
      </trkpt>
      <trkpt lat="43.58706" lon="3.39836">
        <ele>335.5</ele>
        <time>2016-02-14T12:59:47Z</time>
      </trkpt>
      <trkpt lat="43.58702" lon="3.39837">
        <ele>336</ele>
        <time>2016-02-14T12:59:48Z</time>
      </trkpt>
      <trkpt lat="43.58698" lon="3.39837">
        <ele>336</ele>
        <time>2016-02-14T12:59:49Z</time>
      </trkpt>
      <trkpt lat="43.58694" lon="3.39837">
        <ele>335.5</ele>
        <time>2016-02-14T12:59:50Z</time>
      </trkpt>
      <trkpt lat="43.5869" lon="3.39837">
        <ele>335.5</ele>
        <time>2016-02-14T12:59:52Z</time>
      </trkpt>
      <trkpt lat="43.58686" lon="3.39837">
        <ele>335</ele>
        <time>2016-02-14T12:59:52Z</time>
      </trkpt>
      <trkpt lat="43.58681" lon="3.39837">
        <ele>335.5</ele>
        <time>2016-02-14T12:59:53Z</time>
      </trkpt>
      <trkpt lat="43.58677" lon="3.39836">
        <ele>335.5</ele>
        <time>2016-02-14T12:59:54Z</time>
      </trkpt>
      <trkpt lat="43.58673" lon="3.39836">
        <ele>335.5</ele>
        <time>2016-02-14T12:59:55Z</time>
      </trkpt>
      <trkpt lat="43.58669" lon="3.39836">
        <ele>336</ele>
        <time>2016-02-14T12:59:56Z</time>
      </trkpt>
      <trkpt lat="43.58665" lon="3.39836">
        <ele>336</ele>
        <time>2016-02-14T12:59:57Z</time>
      </trkpt>
      <trkpt lat="43.58661" lon="3.39838">
        <ele>337.5</ele>
        <time>2016-02-14T12:59:58Z</time>
      </trkpt>
      <trkpt lat="43.58656" lon="3.39839">
        <ele>338.5</ele>
        <time>2016-02-14T12:59:59Z</time>
      </trkpt>
      <trkpt lat="43.58653" lon="3.39838">
        <ele>338.5</ele>
        <time>2016-02-14T13:00:00Z</time>
      </trkpt>
      <trkpt lat="43.58649" lon="3.39838">
        <ele>338.5</ele>
        <time>2016-02-14T13:00:01Z</time>
      </trkpt>
      <trkpt lat="43.58645" lon="3.39837">
        <ele>338</ele>
        <time>2016-02-14T13:00:02Z</time>
      </trkpt>
      <trkpt lat="43.58641" lon="3.39837">
        <ele>337.5</ele>
        <time>2016-02-14T13:00:03Z</time>
      </trkpt>
      <trkpt lat="43.58638" lon="3.39838">
        <ele>338</ele>
        <time>2016-02-14T13:00:04Z</time>
      </trkpt>
      <trkpt lat="43.58634" lon="3.39839">
        <ele>338</ele>
        <time>2016-02-14T13:00:05Z</time>
      </trkpt>
      <trkpt lat="43.5863" lon="3.39843">
        <ele>340</ele>
        <time>2016-02-14T13:00:06Z</time>
      </trkpt>
      <trkpt lat="43.58626" lon="3.39844">
        <ele>339.5</ele>
        <time>2016-02-14T13:00:07Z</time>
      </trkpt>
      <trkpt lat="43.58623" lon="3.39847">
        <ele>340.5</ele>
        <time>2016-02-14T13:00:08Z</time>
      </trkpt>
      <trkpt lat="43.58619" lon="3.39849">
        <ele>341</ele>
        <time>2016-02-14T13:00:09Z</time>
      </trkpt>
      <trkpt lat="43.58615" lon="3.39851">
        <ele>341</ele>
        <time>2016-02-14T13:00:10Z</time>
      </trkpt>
      <trkpt lat="43.58612" lon="3.39854">
        <ele>341.5</ele>
        <time>2016-02-14T13:00:11Z</time>
      </trkpt>
      <trkpt lat="43.58609" lon="3.39856">
        <ele>341.5</ele>
        <time>2016-02-14T13:00:12Z</time>
      </trkpt>
      <trkpt lat="43.58606" lon="3.39859">
        <ele>341</ele>
        <time>2016-02-14T13:00:13Z</time>
      </trkpt>
      <trkpt lat="43.58603" lon="3.39861">
        <ele>341.5</ele>
        <time>2016-02-14T13:00:14Z</time>
      </trkpt>
      <trkpt lat="43.586" lon="3.39864">
        <ele>341</ele>
        <time>2016-02-14T13:00:15Z</time>
      </trkpt>
      <trkpt lat="43.58596" lon="3.39867">
        <ele>341</ele>
        <time>2016-02-14T13:00:16Z</time>
      </trkpt>
      <trkpt lat="43.58593" lon="3.3987">
        <ele>341</ele>
        <time>2016-02-14T13:00:17Z</time>
      </trkpt>
      <trkpt lat="43.5859" lon="3.39873">
        <ele>341</ele>
        <time>2016-02-14T13:00:18Z</time>
      </trkpt>
      <trkpt lat="43.58587" lon="3.39877">
        <ele>341.5</ele>
        <time>2016-02-14T13:00:19Z</time>
      </trkpt>
      <trkpt lat="43.58584" lon="3.3988">
        <ele>341.5</ele>
        <time>2016-02-14T13:00:20Z</time>
      </trkpt>
      <trkpt lat="43.58581" lon="3.39883">
        <ele>342</ele>
        <time>2016-02-14T13:00:21Z</time>
      </trkpt>
      <trkpt lat="43.58577" lon="3.39886">
        <ele>342</ele>
        <time>2016-02-14T13:00:22Z</time>
      </trkpt>
      <trkpt lat="43.58574" lon="3.39889">
        <ele>342.5</ele>
        <time>2016-02-14T13:00:23Z</time>
      </trkpt>
      <trkpt lat="43.58571" lon="3.39892">
        <ele>342.5</ele>
        <time>2016-02-14T13:00:24Z</time>
      </trkpt>
      <trkpt lat="43.58568" lon="3.39894">
        <ele>342.5</ele>
        <time>2016-02-14T13:00:25Z</time>
      </trkpt>
      <trkpt lat="43.58564" lon="3.39897">
        <ele>342</ele>
        <time>2016-02-14T13:00:26Z</time>
      </trkpt>
      <trkpt lat="43.58561" lon="3.39899">
        <ele>342.5</ele>
        <time>2016-02-14T13:00:27Z</time>
      </trkpt>
      <trkpt lat="43.58558" lon="3.39902">
        <ele>343</ele>
        <time>2016-02-14T13:00:28Z</time>
      </trkpt>
      <trkpt lat="43.58554" lon="3.39905">
        <ele>343</ele>
        <time>2016-02-14T13:00:29Z</time>
      </trkpt>
      <trkpt lat="43.58551" lon="3.39907">
        <ele>343</ele>
        <time>2016-02-14T13:00:30Z</time>
      </trkpt>
      <trkpt lat="43.58547" lon="3.3991">
        <ele>343</ele>
        <time>2016-02-14T13:00:31Z</time>
      </trkpt>
      <trkpt lat="43.58543" lon="3.39912">
        <ele>343</ele>
        <time>2016-02-14T13:00:32Z</time>
      </trkpt>
      <trkpt lat="43.58539" lon="3.39914">
        <ele>343</ele>
        <time>2016-02-14T13:00:33Z</time>
      </trkpt>
      <trkpt lat="43.58535" lon="3.39915">
        <ele>343</ele>
        <time>2016-02-14T13:00:34Z</time>
      </trkpt>
      <trkpt lat="43.58531" lon="3.39917">
        <ele>343</ele>
        <time>2016-02-14T13:00:35Z</time>
      </trkpt>
      <trkpt lat="43.58527" lon="3.39918">
        <ele>343.5</ele>
        <time>2016-02-14T13:00:36Z</time>
      </trkpt>
      <trkpt lat="43.58523" lon="3.39919">
        <ele>344</ele>
        <time>2016-02-14T13:00:37Z</time>
      </trkpt>
      <trkpt lat="43.5852" lon="3.3992">
        <ele>343.5</ele>
        <time>2016-02-14T13:00:38Z</time>
      </trkpt>
      <trkpt lat="43.58516" lon="3.39921">
        <ele>344</ele>
        <time>2016-02-14T13:00:39Z</time>
      </trkpt>
      <trkpt lat="43.58512" lon="3.39922">
        <ele>344.5</ele>
        <time>2016-02-14T13:00:40Z</time>
      </trkpt>
      <trkpt lat="43.58509" lon="3.39923">
        <ele>345</ele>
        <time>2016-02-14T13:00:41Z</time>
      </trkpt>
      <trkpt lat="43.58506" lon="3.39924">
        <ele>345.5</ele>
        <time>2016-02-14T13:00:42Z</time>
      </trkpt>
      <trkpt lat="43.58502" lon="3.39925">
        <ele>345.5</ele>
        <time>2016-02-14T13:00:43Z</time>
      </trkpt>
      <trkpt lat="43.58499" lon="3.39926">
        <ele>346</ele>
        <time>2016-02-14T13:00:44Z</time>
      </trkpt>
      <trkpt lat="43.58496" lon="3.39927">
        <ele>346</ele>
        <time>2016-02-14T13:00:45Z</time>
      </trkpt>
      <trkpt lat="43.58493" lon="3.39928">
        <ele>346</ele>
        <time>2016-02-14T13:00:46Z</time>
      </trkpt>
      <trkpt lat="43.5849" lon="3.39928">
        <ele>346.5</ele>
        <time>2016-02-14T13:00:47Z</time>
      </trkpt>
      <trkpt lat="43.58486" lon="3.39928">
        <ele>346.5</ele>
        <time>2016-02-14T13:00:48Z</time>
      </trkpt>
      <trkpt lat="43.58483" lon="3.39928">
        <ele>346</ele>
        <time>2016-02-14T13:00:49Z</time>
      </trkpt>
      <trkpt lat="43.5848" lon="3.39928">
        <ele>346</ele>
        <time>2016-02-14T13:00:50Z</time>
      </trkpt>
      <trkpt lat="43.58477" lon="3.39928">
        <ele>346</ele>
        <time>2016-02-14T13:00:51Z</time>
      </trkpt>
      <trkpt lat="43.58473" lon="3.39928">
        <ele>346</ele>
        <time>2016-02-14T13:00:52Z</time>
      </trkpt>
      <trkpt lat="43.5847" lon="3.39929">
        <ele>346</ele>
        <time>2016-02-14T13:00:53Z</time>
      </trkpt>
      <trkpt lat="43.58466" lon="3.39928">
        <ele>346.5</ele>
        <time>2016-02-14T13:00:54Z</time>
      </trkpt>
      <trkpt lat="43.58463" lon="3.39927">
        <ele>346</ele>
        <time>2016-02-14T13:00:55Z</time>
      </trkpt>
      <trkpt lat="43.58459" lon="3.39927">
        <ele>345.5</ele>
        <time>2016-02-14T13:00:56Z</time>
      </trkpt>
      <trkpt lat="43.58455" lon="3.39927">
        <ele>345.5</ele>
        <time>2016-02-14T13:00:57Z</time>
      </trkpt>
      <trkpt lat="43.5845" lon="3.39927">
        <ele>345</ele>
        <time>2016-02-14T13:00:58Z</time>
      </trkpt>
      <trkpt lat="43.58446" lon="3.39927">
        <ele>345</ele>
        <time>2016-02-14T13:00:59Z</time>
      </trkpt>
      <trkpt lat="43.58441" lon="3.39928">
        <ele>345</ele>
        <time>2016-02-14T13:01:00Z</time>
      </trkpt>
      <trkpt lat="43.58436" lon="3.39929">
        <ele>344.5</ele>
        <time>2016-02-14T13:01:01Z</time>
      </trkpt>
      <trkpt lat="43.58431" lon="3.39931">
        <ele>344.5</ele>
        <time>2016-02-14T13:01:02Z</time>
      </trkpt>
      <trkpt lat="43.58426" lon="3.39933">
        <ele>344</ele>
        <time>2016-02-14T13:01:03Z</time>
      </trkpt>
      <trkpt lat="43.58421" lon="3.39937">
        <ele>345</ele>
        <time>2016-02-14T13:01:04Z</time>
      </trkpt>
      <trkpt lat="43.58416" lon="3.3994">
        <ele>344.5</ele>
        <time>2016-02-14T13:01:05Z</time>
      </trkpt>
      <trkpt lat="43.58412" lon="3.39942">
        <ele>344.5</ele>
        <time>2016-02-14T13:01:06Z</time>
      </trkpt>
      <trkpt lat="43.58408" lon="3.39943">
        <ele>344</ele>
        <time>2016-02-14T13:01:07Z</time>
      </trkpt>
      <trkpt lat="43.58404" lon="3.39942">
        <ele>344</ele>
        <time>2016-02-14T13:01:08Z</time>
      </trkpt>
      <trkpt lat="43.58402" lon="3.39937">
        <ele>342.5</ele>
        <time>2016-02-14T13:01:09Z</time>
      </trkpt>
      <trkpt lat="43.58399" lon="3.39931">
        <ele>341.5</ele>
        <time>2016-02-14T13:01:10Z</time>
      </trkpt>
      <trkpt lat="43.58398" lon="3.39924">
        <ele>340.5</ele>
        <time>2016-02-14T13:01:11Z</time>
      </trkpt>
      <trkpt lat="43.58398" lon="3.39916">
        <ele>338.5</ele>
        <time>2016-02-14T13:01:12Z</time>
      </trkpt>
      <trkpt lat="43.584" lon="3.39909">
        <ele>338.5</ele>
        <time>2016-02-14T13:01:13Z</time>
      </trkpt>
      <trkpt lat="43.58401" lon="3.39903">
        <ele>338.5</ele>
        <time>2016-02-14T13:01:14Z</time>
      </trkpt>
      <trkpt lat="43.58403" lon="3.39898">
        <ele>338.5</ele>
        <time>2016-02-14T13:01:15Z</time>
      </trkpt>
      <trkpt lat="43.58404" lon="3.39894">
        <ele>337.5</ele>
        <time>2016-02-14T13:01:17Z</time>
      </trkpt>
      <trkpt lat="43.58405" lon="3.39892">
        <ele>337</ele>
        <time>2016-02-14T13:01:18Z</time>
      </trkpt>
      <trkpt lat="43.58406" lon="3.3989">
        <ele>336.5</ele>
        <time>2016-02-14T13:01:19Z</time>
      </trkpt>
      <trkpt lat="43.58407" lon="3.39888">
        <ele>337.5</ele>
        <time>2016-02-14T13:01:20Z</time>
      </trkpt>
      <trkpt lat="43.58408" lon="3.39886">
        <ele>337.5</ele>
        <time>2016-02-14T13:01:21Z</time>
      </trkpt>
      <trkpt lat="43.58409" lon="3.39884">
        <ele>337.5</ele>
        <time>2016-02-14T13:01:22Z</time>
      </trkpt>
      <trkpt lat="43.5841" lon="3.39883">
        <ele>337.5</ele>
        <time>2016-02-14T13:01:23Z</time>
      </trkpt>
      <trkpt lat="43.58413" lon="3.39881">
        <ele>336</ele>
        <time>2016-02-14T13:01:24Z</time>
      </trkpt>
      <trkpt lat="43.58414" lon="3.39879">
        <ele>335.5</ele>
        <time>2016-02-14T13:01:25Z</time>
      </trkpt>
      <trkpt lat="43.58416" lon="3.39875">
        <ele>334.5</ele>
        <time>2016-02-14T13:01:26Z</time>
      </trkpt>
      <trkpt lat="43.58422" lon="3.39864">
        <ele>333</ele>
        <time>2016-02-14T13:01:28Z</time>
      </trkpt>
      <trkpt lat="43.58424" lon="3.39858">
        <ele>333</ele>
        <time>2016-02-14T13:01:29Z</time>
      </trkpt>
      <trkpt lat="43.58426" lon="3.39852">
        <ele>332.5</ele>
        <time>2016-02-14T13:01:30Z</time>
      </trkpt>
      <trkpt lat="43.58429" lon="3.39845">
        <ele>331.5</ele>
        <time>2016-02-14T13:01:31Z</time>
      </trkpt>
      <trkpt lat="43.58432" lon="3.39838">
        <ele>330</ele>
        <time>2016-02-14T13:01:32Z</time>
      </trkpt>
      <trkpt lat="43.58435" lon="3.39831">
        <ele>328.5</ele>
        <time>2016-02-14T13:01:33Z</time>
      </trkpt>
      <trkpt lat="43.58435" lon="3.39823">
        <ele>327.5</ele>
        <time>2016-02-14T13:01:34Z</time>
      </trkpt>
      <trkpt lat="43.58434" lon="3.39813">
        <ele>327</ele>
        <time>2016-02-14T13:01:35Z</time>
      </trkpt>
      <trkpt lat="43.5843" lon="3.39805">
        <ele>326.5</ele>
        <time>2016-02-14T13:01:36Z</time>
      </trkpt>
      <trkpt lat="43.58424" lon="3.398">
        <ele>326.5</ele>
        <time>2016-02-14T13:01:37Z</time>
      </trkpt>
      <trkpt lat="43.58418" lon="3.39794">
        <ele>326.5</ele>
        <time>2016-02-14T13:01:38Z</time>
      </trkpt>
      <trkpt lat="43.58412" lon="3.3979">
        <ele>326</ele>
        <time>2016-02-14T13:01:39Z</time>
      </trkpt>
      <trkpt lat="43.58406" lon="3.39786">
        <ele>326</ele>
        <time>2016-02-14T13:01:40Z</time>
      </trkpt>
      <trkpt lat="43.58399" lon="3.39781">
        <ele>325.5</ele>
        <time>2016-02-14T13:01:41Z</time>
      </trkpt>
      <trkpt lat="43.58393" lon="3.39776">
        <ele>325</ele>
        <time>2016-02-14T13:01:42Z</time>
      </trkpt>
      <trkpt lat="43.58387" lon="3.39769">
        <ele>323.5</ele>
        <time>2016-02-14T13:01:43Z</time>
      </trkpt>
      <trkpt lat="43.58378" lon="3.39753">
        <ele>321.5</ele>
        <time>2016-02-14T13:01:45Z</time>
      </trkpt>
      <trkpt lat="43.58374" lon="3.39744">
        <ele>321</ele>
        <time>2016-02-14T13:01:46Z</time>
      </trkpt>
      <trkpt lat="43.58374" lon="3.39721">
        <ele>318</ele>
        <time>2016-02-14T13:01:54Z</time>
      </trkpt>
      <trkpt lat="43.58374" lon="3.39708">
        <ele>317</ele>
        <time>2016-02-14T13:01:55Z</time>
      </trkpt>
      <trkpt lat="43.58372" lon="3.39695">
        <ele>318</ele>
        <time>2016-02-14T13:01:56Z</time>
      </trkpt>
      <trkpt lat="43.58371" lon="3.39682">
        <ele>317.5</ele>
        <time>2016-02-14T13:01:57Z</time>
      </trkpt>
      <trkpt lat="43.5837" lon="3.3967">
        <ele>315.5</ele>
        <time>2016-02-14T13:01:58Z</time>
      </trkpt>
      <trkpt lat="43.58368" lon="3.39659">
        <ele>315</ele>
        <time>2016-02-14T13:01:59Z</time>
      </trkpt>
      <trkpt lat="43.58367" lon="3.39647">
        <ele>314.5</ele>
        <time>2016-02-14T13:02:00Z</time>
      </trkpt>
      <trkpt lat="43.58367" lon="3.39636">
        <ele>313.5</ele>
        <time>2016-02-14T13:02:01Z</time>
      </trkpt>
      <trkpt lat="43.58368" lon="3.39626">
        <ele>312</ele>
        <time>2016-02-14T13:02:02Z</time>
      </trkpt>
      <trkpt lat="43.5837" lon="3.39615">
        <ele>310.5</ele>
        <time>2016-02-14T13:02:03Z</time>
      </trkpt>
      <trkpt lat="43.58374" lon="3.39607">
        <ele>309</ele>
        <time>2016-02-14T13:02:04Z</time>
      </trkpt>
      <trkpt lat="43.58379" lon="3.39601">
        <ele>308</ele>
        <time>2016-02-14T13:02:05Z</time>
      </trkpt>
      <trkpt lat="43.5839" lon="3.39589">
        <ele>307</ele>
        <time>2016-02-14T13:02:07Z</time>
      </trkpt>
      <trkpt lat="43.58393" lon="3.39582">
        <ele>306</ele>
        <time>2016-02-14T13:02:08Z</time>
      </trkpt>
      <trkpt lat="43.58392" lon="3.39575">
        <ele>306</ele>
        <time>2016-02-14T13:02:09Z</time>
      </trkpt>
      <trkpt lat="43.58382" lon="3.39547">
        <ele>303.5</ele>
        <time>2016-02-14T13:02:12Z</time>
      </trkpt>
      <trkpt lat="43.58376" lon="3.39537">
        <ele>303.5</ele>
        <time>2016-02-14T13:02:13Z</time>
      </trkpt>
      <trkpt lat="43.58371" lon="3.39526">
        <ele>302.5</ele>
        <time>2016-02-14T13:02:14Z</time>
      </trkpt>
      <trkpt lat="43.58367" lon="3.39514">
        <ele>302.5</ele>
        <time>2016-02-14T13:02:15Z</time>
      </trkpt>
      <trkpt lat="43.58364" lon="3.39503">
        <ele>303</ele>
        <time>2016-02-14T13:02:16Z</time>
      </trkpt>
      <trkpt lat="43.58362" lon="3.39492">
        <ele>302.5</ele>
        <time>2016-02-14T13:02:17Z</time>
      </trkpt>
      <trkpt lat="43.58359" lon="3.3948">
        <ele>302</ele>
        <time>2016-02-14T13:02:18Z</time>
      </trkpt>
      <trkpt lat="43.58356" lon="3.3947">
        <ele>302.5</ele>
        <time>2016-02-14T13:02:19Z</time>
      </trkpt>
      <trkpt lat="43.58354" lon="3.3946">
        <ele>302.5</ele>
        <time>2016-02-14T13:02:20Z</time>
      </trkpt>
      <trkpt lat="43.58351" lon="3.39451">
        <ele>303</ele>
        <time>2016-02-14T13:02:21Z</time>
      </trkpt>
      <trkpt lat="43.58348" lon="3.39444">
        <ele>303</ele>
        <time>2016-02-14T13:02:22Z</time>
      </trkpt>
      <trkpt lat="43.58344" lon="3.39436">
        <ele>303</ele>
        <time>2016-02-14T13:02:23Z</time>
      </trkpt>
      <trkpt lat="43.5834" lon="3.3943">
        <ele>303.5</ele>
        <time>2016-02-14T13:02:24Z</time>
      </trkpt>
      <trkpt lat="43.58335" lon="3.39425">
        <ele>303.5</ele>
        <time>2016-02-14T13:02:25Z</time>
      </trkpt>
      <trkpt lat="43.5833" lon="3.3942">
        <ele>303.5</ele>
        <time>2016-02-14T13:02:26Z</time>
      </trkpt>
      <trkpt lat="43.58325" lon="3.39416">
        <ele>303</ele>
        <time>2016-02-14T13:02:27Z</time>
      </trkpt>
      <trkpt lat="43.58321" lon="3.39412">
        <ele>303</ele>
        <time>2016-02-14T13:02:28Z</time>
      </trkpt>
      <trkpt lat="43.58317" lon="3.39409">
        <ele>302.5</ele>
        <time>2016-02-14T13:02:29Z</time>
      </trkpt>
      <trkpt lat="43.58312" lon="3.39405">
        <ele>302</ele>
        <time>2016-02-14T13:02:30Z</time>
      </trkpt>
      <trkpt lat="43.58308" lon="3.39402">
        <ele>300.5</ele>
        <time>2016-02-14T13:02:31Z</time>
      </trkpt>
      <trkpt lat="43.58304" lon="3.39398">
        <ele>299.5</ele>
        <time>2016-02-14T13:02:32Z</time>
      </trkpt>
      <trkpt lat="43.58299" lon="3.39393">
        <ele>299.5</ele>
        <time>2016-02-14T13:02:33Z</time>
      </trkpt>
      <trkpt lat="43.58294" lon="3.39388">
        <ele>298</ele>
        <time>2016-02-14T13:02:34Z</time>
      </trkpt>
      <trkpt lat="43.58288" lon="3.39383">
        <ele>297</ele>
        <time>2016-02-14T13:02:35Z</time>
      </trkpt>
      <trkpt lat="43.58281" lon="3.39378">
        <ele>297</ele>
        <time>2016-02-14T13:02:36Z</time>
      </trkpt>
      <trkpt lat="43.58274" lon="3.39377">
        <ele>294.5</ele>
        <time>2016-02-14T13:02:37Z</time>
      </trkpt>
      <trkpt lat="43.58268" lon="3.39379">
        <ele>293.5</ele>
        <time>2016-02-14T13:02:38Z</time>
      </trkpt>
      <trkpt lat="43.58264" lon="3.39384">
        <ele>292.5</ele>
        <time>2016-02-14T13:02:39Z</time>
      </trkpt>
      <trkpt lat="43.58259" lon="3.39388">
        <ele>293</ele>
        <time>2016-02-14T13:02:40Z</time>
      </trkpt>
      <trkpt lat="43.58256" lon="3.39391">
        <ele>293</ele>
        <time>2016-02-14T13:02:41Z</time>
      </trkpt>
      <trkpt lat="43.58252" lon="3.39394">
        <ele>293.5</ele>
        <time>2016-02-14T13:02:42Z</time>
      </trkpt>
      <trkpt lat="43.5825" lon="3.39395">
        <ele>294</ele>
        <time>2016-02-14T13:02:43Z</time>
      </trkpt>
      <trkpt lat="43.58245" lon="3.39397">
        <ele>294.5</ele>
        <time>2016-02-14T13:02:45Z</time>
      </trkpt>
      <trkpt lat="43.58243" lon="3.39397">
        <ele>294.5</ele>
        <time>2016-02-14T13:02:46Z</time>
      </trkpt>
      <trkpt lat="43.58242" lon="3.39397">
        <ele>294.5</ele>
        <time>2016-02-14T13:02:47Z</time>
      </trkpt>
      <trkpt lat="43.5824" lon="3.39396">
        <ele>295.5</ele>
        <time>2016-02-14T13:02:48Z</time>
      </trkpt>
      <trkpt lat="43.58238" lon="3.39392">
        <ele>293.5</ele>
        <time>2016-02-14T13:02:49Z</time>
      </trkpt>
      <trkpt lat="43.58237" lon="3.39389">
        <ele>293</ele>
        <time>2016-02-14T13:02:50Z</time>
      </trkpt>
      <trkpt lat="43.58237" lon="3.39386">
        <ele>293</ele>
        <time>2016-02-14T13:02:51Z</time>
      </trkpt>
      <trkpt lat="43.58237" lon="3.39382">
        <ele>293.5</ele>
        <time>2016-02-14T13:02:51Z</time>
      </trkpt>
      <trkpt lat="43.58238" lon="3.39378">
        <ele>293.5</ele>
        <time>2016-02-14T13:02:52Z</time>
      </trkpt>
      <trkpt lat="43.5824" lon="3.39374">
        <ele>293.5</ele>
        <time>2016-02-14T13:02:53Z</time>
      </trkpt>
      <trkpt lat="43.58241" lon="3.39371">
        <ele>294</ele>
        <time>2016-02-14T13:02:54Z</time>
      </trkpt>
      <trkpt lat="43.58242" lon="3.39367">
        <ele>294</ele>
        <time>2016-02-14T13:02:55Z</time>
      </trkpt>
      <trkpt lat="43.58243" lon="3.39363">
        <ele>294.5</ele>
        <time>2016-02-14T13:02:56Z</time>
      </trkpt>
      <trkpt lat="43.58244" lon="3.39359">
        <ele>295</ele>
        <time>2016-02-14T13:02:57Z</time>
      </trkpt>
      <trkpt lat="43.58244" lon="3.39355">
        <ele>295</ele>
        <time>2016-02-14T13:02:58Z</time>
      </trkpt>
      <trkpt lat="43.58243" lon="3.39351">
        <ele>295</ele>
        <time>2016-02-14T13:02:59Z</time>
      </trkpt>
      <trkpt lat="43.58241" lon="3.39347">
        <ele>294.5</ele>
        <time>2016-02-14T13:03:00Z</time>
      </trkpt>
      <trkpt lat="43.58238" lon="3.39344">
        <ele>294.5</ele>
        <time>2016-02-14T13:03:01Z</time>
      </trkpt>
      <trkpt lat="43.58236" lon="3.3934">
        <ele>294.5</ele>
        <time>2016-02-14T13:03:02Z</time>
      </trkpt>
      <trkpt lat="43.58233" lon="3.39337">
        <ele>294</ele>
        <time>2016-02-14T13:03:03Z</time>
      </trkpt>
      <trkpt lat="43.5823" lon="3.39334">
        <ele>293.5</ele>
        <time>2016-02-14T13:03:04Z</time>
      </trkpt>
      <trkpt lat="43.58227" lon="3.39331">
        <ele>293.5</ele>
        <time>2016-02-14T13:03:05Z</time>
      </trkpt>
      <trkpt lat="43.58224" lon="3.39328">
        <ele>293</ele>
        <time>2016-02-14T13:03:06Z</time>
      </trkpt>
      <trkpt lat="43.5822" lon="3.39325">
        <ele>293</ele>
        <time>2016-02-14T13:03:07Z</time>
      </trkpt>
      <trkpt lat="43.58216" lon="3.39322">
        <ele>293</ele>
        <time>2016-02-14T13:03:09Z</time>
      </trkpt>
      <trkpt lat="43.58212" lon="3.39322">
        <ele>294.5</ele>
        <time>2016-02-14T13:03:09Z</time>
      </trkpt>
      <trkpt lat="43.58207" lon="3.39319">
        <ele>294.5</ele>
        <time>2016-02-14T13:03:10Z</time>
      </trkpt>
      <trkpt lat="43.58203" lon="3.39316">
        <ele>294.5</ele>
        <time>2016-02-14T13:03:12Z</time>
      </trkpt>
      <trkpt lat="43.58198" lon="3.39314">
        <ele>294</ele>
        <time>2016-02-14T13:03:12Z</time>
      </trkpt>
      <trkpt lat="43.58194" lon="3.39312">
        <ele>294</ele>
        <time>2016-02-14T13:03:13Z</time>
      </trkpt>
      <trkpt lat="43.58189" lon="3.3931">
        <ele>293.5</ele>
        <time>2016-02-14T13:03:15Z</time>
      </trkpt>
      <trkpt lat="43.58185" lon="3.39308">
        <ele>293.5</ele>
        <time>2016-02-14T13:03:15Z</time>
      </trkpt>
      <trkpt lat="43.58181" lon="3.39305">
        <ele>293.5</ele>
        <time>2016-02-14T13:03:16Z</time>
      </trkpt>
      <trkpt lat="43.58177" lon="3.39303">
        <ele>293.5</ele>
        <time>2016-02-14T13:03:17Z</time>
      </trkpt>
      <trkpt lat="43.58172" lon="3.393">
        <ele>293.5</ele>
        <time>2016-02-14T13:03:19Z</time>
      </trkpt>
      <trkpt lat="43.58168" lon="3.39298">
        <ele>293.5</ele>
        <time>2016-02-14T13:03:19Z</time>
      </trkpt>
      <trkpt lat="43.58165" lon="3.39295">
        <ele>293.5</ele>
        <time>2016-02-14T13:03:20Z</time>
      </trkpt>
      <trkpt lat="43.58161" lon="3.39293">
        <ele>294</ele>
        <time>2016-02-14T13:03:21Z</time>
      </trkpt>
      <trkpt lat="43.58157" lon="3.3929">
        <ele>294</ele>
        <time>2016-02-14T13:03:22Z</time>
      </trkpt>
      <trkpt lat="43.58154" lon="3.39288">
        <ele>294</ele>
        <time>2016-02-14T13:03:23Z</time>
      </trkpt>
      <trkpt lat="43.58151" lon="3.39286">
        <ele>294.5</ele>
        <time>2016-02-14T13:03:24Z</time>
      </trkpt>
      <trkpt lat="43.58148" lon="3.39284">
        <ele>294.5</ele>
        <time>2016-02-14T13:03:25Z</time>
      </trkpt>
      <trkpt lat="43.58145" lon="3.39281">
        <ele>294</ele>
        <time>2016-02-14T13:03:26Z</time>
      </trkpt>
      <trkpt lat="43.58143" lon="3.3928">
        <ele>294</ele>
        <time>2016-02-14T13:03:27Z</time>
      </trkpt>
      <trkpt lat="43.5814" lon="3.39281">
        <ele>295</ele>
        <time>2016-02-14T13:03:28Z</time>
      </trkpt>
      <trkpt lat="43.58137" lon="3.39281">
        <ele>295.5</ele>
        <time>2016-02-14T13:03:30Z</time>
      </trkpt>
      <trkpt lat="43.58132" lon="3.39281">
        <ele>296</ele>
        <time>2016-02-14T13:03:31Z</time>
      </trkpt>
      <trkpt lat="43.58129" lon="3.39281">
        <ele>296.5</ele>
        <time>2016-02-14T13:03:32Z</time>
      </trkpt>
      <trkpt lat="43.58126" lon="3.39284">
        <ele>296.5</ele>
        <time>2016-02-14T13:03:33Z</time>
      </trkpt>
      <trkpt lat="43.58123" lon="3.39285">
        <ele>297</ele>
        <time>2016-02-14T13:03:34Z</time>
      </trkpt>
      <trkpt lat="43.58119" lon="3.39286">
        <ele>297</ele>
        <time>2016-02-14T13:03:35Z</time>
      </trkpt>
      <trkpt lat="43.58115" lon="3.39285">
        <ele>296</ele>
        <time>2016-02-14T13:03:36Z</time>
      </trkpt>
      <trkpt lat="43.58111" lon="3.39288">
        <ele>298</ele>
        <time>2016-02-14T13:03:37Z</time>
      </trkpt>
      <trkpt lat="43.58107" lon="3.39289">
        <ele>298</ele>
        <time>2016-02-14T13:03:38Z</time>
      </trkpt>
      <trkpt lat="43.58102" lon="3.39288">
        <ele>297.5</ele>
        <time>2016-02-14T13:03:39Z</time>
      </trkpt>
      <trkpt lat="43.58097" lon="3.39288">
        <ele>296.5</ele>
        <time>2016-02-14T13:03:40Z</time>
      </trkpt>
      <trkpt lat="43.58092" lon="3.39287">
        <ele>295.5</ele>
        <time>2016-02-14T13:03:41Z</time>
      </trkpt>
      <trkpt lat="43.58083" lon="3.393">
        <ele>295</ele>
        <time>2016-02-14T13:03:43Z</time>
      </trkpt>
      <trkpt lat="43.58078" lon="3.39308">
        <ele>294.5</ele>
        <time>2016-02-14T13:03:44Z</time>
      </trkpt>
      <trkpt lat="43.58074" lon="3.39316">
        <ele>293</ele>
        <time>2016-02-14T13:03:45Z</time>
      </trkpt>
      <trkpt lat="43.58069" lon="3.39323">
        <ele>291.5</ele>
        <time>2016-02-14T13:03:46Z</time>
      </trkpt>
      <trkpt lat="43.58065" lon="3.39331">
        <ele>290</ele>
        <time>2016-02-14T13:03:47Z</time>
      </trkpt>
      <trkpt lat="43.58061" lon="3.39338">
        <ele>288.5</ele>
        <time>2016-02-14T13:03:48Z</time>
      </trkpt>
      <trkpt lat="43.58061" lon="3.39346">
        <ele>287.5</ele>
        <time>2016-02-14T13:03:49Z</time>
      </trkpt>
      <trkpt lat="43.5806" lon="3.39353">
        <ele>287</ele>
        <time>2016-02-14T13:03:50Z</time>
      </trkpt>
      <trkpt lat="43.5806" lon="3.39362">
        <ele>286.5</ele>
        <time>2016-02-14T13:03:51Z</time>
      </trkpt>
      <trkpt lat="43.58058" lon="3.3937">
        <ele>285.5</ele>
        <time>2016-02-14T13:03:52Z</time>
      </trkpt>
      <trkpt lat="43.58054" lon="3.39376">
        <ele>284</ele>
        <time>2016-02-14T13:03:53Z</time>
      </trkpt>
      <trkpt lat="43.58048" lon="3.39382">
        <ele>284</ele>
        <time>2016-02-14T13:03:54Z</time>
      </trkpt>
      <trkpt lat="43.58041" lon="3.39385">
        <ele>284</ele>
        <time>2016-02-14T13:03:55Z</time>
      </trkpt>
      <trkpt lat="43.58033" lon="3.39388">
        <ele>284</ele>
        <time>2016-02-14T13:03:56Z</time>
      </trkpt>
      <trkpt lat="43.58026" lon="3.39389">
        <ele>284</ele>
        <time>2016-02-14T13:03:57Z</time>
      </trkpt>
      <trkpt lat="43.58018" lon="3.39389">
        <ele>283</ele>
        <time>2016-02-14T13:03:58Z</time>
      </trkpt>
      <trkpt lat="43.58012" lon="3.39387">
        <ele>282.5</ele>
        <time>2016-02-14T13:03:59Z</time>
      </trkpt>
      <trkpt lat="43.58007" lon="3.39384">
        <ele>280.5</ele>
        <time>2016-02-14T13:04:00Z</time>
      </trkpt>
      <trkpt lat="43.58002" lon="3.39378">
        <ele>279.5</ele>
        <time>2016-02-14T13:04:01Z</time>
      </trkpt>
      <trkpt lat="43.57999" lon="3.3937">
        <ele>279</ele>
        <time>2016-02-14T13:04:02Z</time>
      </trkpt>
      <trkpt lat="43.57998" lon="3.39361">
        <ele>278</ele>
        <time>2016-02-14T13:04:03Z</time>
      </trkpt>
      <trkpt lat="43.57998" lon="3.39351">
        <ele>277.5</ele>
        <time>2016-02-14T13:04:04Z</time>
      </trkpt>
      <trkpt lat="43.57999" lon="3.39341">
        <ele>276.5</ele>
        <time>2016-02-14T13:04:05Z</time>
      </trkpt>
      <trkpt lat="43.58" lon="3.3933">
        <ele>276</ele>
        <time>2016-02-14T13:04:06Z</time>
      </trkpt>
      <trkpt lat="43.58" lon="3.39319">
        <ele>275.5</ele>
        <time>2016-02-14T13:04:07Z</time>
      </trkpt>
      <trkpt lat="43.57998" lon="3.39309">
        <ele>276</ele>
        <time>2016-02-14T13:04:08Z</time>
      </trkpt>
      <trkpt lat="43.57995" lon="3.393">
        <ele>276</ele>
        <time>2016-02-14T13:04:09Z</time>
      </trkpt>
      <trkpt lat="43.5799" lon="3.39291">
        <ele>275.5</ele>
        <time>2016-02-14T13:04:10Z</time>
      </trkpt>
      <trkpt lat="43.57982" lon="3.39283">
        <ele>275.5</ele>
        <time>2016-02-14T13:04:11Z</time>
      </trkpt>
      <trkpt lat="43.57975" lon="3.39276">
        <ele>275.5</ele>
        <time>2016-02-14T13:04:12Z</time>
      </trkpt>
      <trkpt lat="43.57967" lon="3.39269">
        <ele>276</ele>
        <time>2016-02-14T13:04:13Z</time>
      </trkpt>
      <trkpt lat="43.5796" lon="3.39264">
        <ele>276</ele>
        <time>2016-02-14T13:04:14Z</time>
      </trkpt>
      <trkpt lat="43.5795" lon="3.39268">
        <ele>276</ele>
        <time>2016-02-14T13:04:17Z</time>
      </trkpt>
      <trkpt lat="43.57946" lon="3.39269">
        <ele>276</ele>
        <time>2016-02-14T13:04:18Z</time>
      </trkpt>
      <trkpt lat="43.57943" lon="3.39268">
        <ele>276</ele>
        <time>2016-02-14T13:04:19Z</time>
      </trkpt>
      <trkpt lat="43.5794" lon="3.39268">
        <ele>276</ele>
        <time>2016-02-14T13:04:20Z</time>
      </trkpt>
      <trkpt lat="43.57937" lon="3.39267">
        <ele>276</ele>
        <time>2016-02-14T13:04:21Z</time>
      </trkpt>
      <trkpt lat="43.57934" lon="3.39266">
        <ele>276.5</ele>
        <time>2016-02-14T13:04:22Z</time>
      </trkpt>
      <trkpt lat="43.57932" lon="3.39264">
        <ele>277</ele>
        <time>2016-02-14T13:04:23Z</time>
      </trkpt>
      <trkpt lat="43.57931" lon="3.39262">
        <ele>277</ele>
        <time>2016-02-14T13:04:24Z</time>
      </trkpt>
      <trkpt lat="43.5793" lon="3.39259">
        <ele>277</ele>
        <time>2016-02-14T13:04:25Z</time>
      </trkpt>
      <trkpt lat="43.5793" lon="3.39257">
        <ele>277.5</ele>
        <time>2016-02-14T13:04:26Z</time>
      </trkpt>
      <trkpt lat="43.57929" lon="3.39254">
        <ele>277.5</ele>
        <time>2016-02-14T13:04:27Z</time>
      </trkpt>
      <trkpt lat="43.5793" lon="3.39252">
        <ele>278.5</ele>
        <time>2016-02-14T13:04:28Z</time>
      </trkpt>
      <trkpt lat="43.5793" lon="3.3925">
        <ele>279.5</ele>
        <time>2016-02-14T13:04:29Z</time>
      </trkpt>
      <trkpt lat="43.57931" lon="3.39248">
        <ele>280</ele>
        <time>2016-02-14T13:04:30Z</time>
      </trkpt>
      <trkpt lat="43.57932" lon="3.39246">
        <ele>280.5</ele>
        <time>2016-02-14T13:04:31Z</time>
      </trkpt>
      <trkpt lat="43.57933" lon="3.39244">
        <ele>280</ele>
        <time>2016-02-14T13:04:32Z</time>
      </trkpt>
      <trkpt lat="43.57935" lon="3.39243">
        <ele>281</ele>
        <time>2016-02-14T13:04:33Z</time>
      </trkpt>
      <trkpt lat="43.57936" lon="3.39242">
        <ele>280.5</ele>
        <time>2016-02-14T13:04:34Z</time>
      </trkpt>
      <trkpt lat="43.57937" lon="3.39241">
        <ele>280.5</ele>
        <time>2016-02-14T13:04:35Z</time>
      </trkpt>
      <trkpt lat="43.57939" lon="3.39241">
        <ele>280.5</ele>
        <time>2016-02-14T13:04:36Z</time>
      </trkpt>
      <trkpt lat="43.5794" lon="3.3924">
        <ele>280.5</ele>
        <time>2016-02-14T13:04:37Z</time>
      </trkpt>
      <trkpt lat="43.57941" lon="3.39238">
        <ele>280</ele>
        <time>2016-02-14T13:04:38Z</time>
      </trkpt>
      <trkpt lat="43.57943" lon="3.39237">
        <ele>280.5</ele>
        <time>2016-02-14T13:04:39Z</time>
      </trkpt>
      <trkpt lat="43.57945" lon="3.39236">
        <ele>280.5</ele>
        <time>2016-02-14T13:04:40Z</time>
      </trkpt>
      <trkpt lat="43.57946" lon="3.39235">
        <ele>280.5</ele>
        <time>2016-02-14T13:04:41Z</time>
      </trkpt>
      <trkpt lat="43.57947" lon="3.39234">
        <ele>281</ele>
        <time>2016-02-14T13:04:42Z</time>
      </trkpt>
      <trkpt lat="43.57948" lon="3.39232">
        <ele>281</ele>
        <time>2016-02-14T13:04:43Z</time>
      </trkpt>
      <trkpt lat="43.57949" lon="3.3923">
        <ele>281</ele>
        <time>2016-02-14T13:04:44Z</time>
      </trkpt>
      <trkpt lat="43.5795" lon="3.39228">
        <ele>281.5</ele>
        <time>2016-02-14T13:04:45Z</time>
      </trkpt>
      <trkpt lat="43.57951" lon="3.39226">
        <ele>282.5</ele>
        <time>2016-02-14T13:04:46Z</time>
      </trkpt>
      <trkpt lat="43.57952" lon="3.39224">
        <ele>282.5</ele>
        <time>2016-02-14T13:04:47Z</time>
      </trkpt>
      <trkpt lat="43.57953" lon="3.39222">
        <ele>282.5</ele>
        <time>2016-02-14T13:04:48Z</time>
      </trkpt>
      <trkpt lat="43.57953" lon="3.3922">
        <ele>282.5</ele>
        <time>2016-02-14T13:04:49Z</time>
      </trkpt>
      <trkpt lat="43.57954" lon="3.39218">
        <ele>283.5</ele>
        <time>2016-02-14T13:04:50Z</time>
      </trkpt>
      <trkpt lat="43.57954" lon="3.39216">
        <ele>284</ele>
        <time>2016-02-14T13:04:51Z</time>
      </trkpt>
      <trkpt lat="43.57953" lon="3.39214">
        <ele>284</ele>
        <time>2016-02-14T13:04:52Z</time>
      </trkpt>
      <trkpt lat="43.57953" lon="3.39213">
        <ele>285</ele>
        <time>2016-02-14T13:04:53Z</time>
      </trkpt>
      <trkpt lat="43.57951" lon="3.39211">
        <ele>285</ele>
        <time>2016-02-14T13:04:54Z</time>
      </trkpt>
      <trkpt lat="43.5795" lon="3.3921">
        <ele>286</ele>
        <time>2016-02-14T13:04:55Z</time>
      </trkpt>
      <trkpt lat="43.57949" lon="3.39209">
        <ele>286</ele>
        <time>2016-02-14T13:04:56Z</time>
      </trkpt>
      <trkpt lat="43.57948" lon="3.39208">
        <ele>286.5</ele>
        <time>2016-02-14T13:04:57Z</time>
      </trkpt>
      <trkpt lat="43.57944" lon="3.39207">
        <ele>288</ele>
        <time>2016-02-14T13:04:59Z</time>
      </trkpt>
      <trkpt lat="43.57943" lon="3.39207">
        <ele>288</ele>
        <time>2016-02-14T13:05:00Z</time>
      </trkpt>
      <trkpt lat="43.57942" lon="3.39207">
        <ele>288</ele>
        <time>2016-02-14T13:05:01Z</time>
      </trkpt>
      <trkpt lat="43.5794" lon="3.39206">
        <ele>288</ele>
        <time>2016-02-14T13:05:02Z</time>
      </trkpt>
      <trkpt lat="43.57938" lon="3.39205">
        <ele>287.5</ele>
        <time>2016-02-14T13:05:03Z</time>
      </trkpt>
      <trkpt lat="43.57936" lon="3.39204">
        <ele>287.5</ele>
        <time>2016-02-14T13:05:04Z</time>
      </trkpt>
      <trkpt lat="43.57935" lon="3.39203">
        <ele>287.5</ele>
        <time>2016-02-14T13:05:05Z</time>
      </trkpt>
      <trkpt lat="43.57934" lon="3.39202">
        <ele>287</ele>
        <time>2016-02-14T13:05:06Z</time>
      </trkpt>
      <trkpt lat="43.57932" lon="3.392">
        <ele>286.5</ele>
        <time>2016-02-14T13:05:07Z</time>
      </trkpt>
      <trkpt lat="43.57931" lon="3.39199">
        <ele>287</ele>
        <time>2016-02-14T13:05:08Z</time>
      </trkpt>
      <trkpt lat="43.57928" lon="3.39196">
        <ele>287</ele>
        <time>2016-02-14T13:05:10Z</time>
      </trkpt>
      <trkpt lat="43.57927" lon="3.39195">
        <ele>287.5</ele>
        <time>2016-02-14T13:05:11Z</time>
      </trkpt>
      <trkpt lat="43.57926" lon="3.39193">
        <ele>287.5</ele>
        <time>2016-02-14T13:05:12Z</time>
      </trkpt>
      <trkpt lat="43.57925" lon="3.39192">
        <ele>288</ele>
        <time>2016-02-14T13:05:13Z</time>
      </trkpt>
      <trkpt lat="43.57924" lon="3.39191">
        <ele>288.5</ele>
        <time>2016-02-14T13:05:14Z</time>
      </trkpt>
      <trkpt lat="43.57923" lon="3.3919">
        <ele>289</ele>
        <time>2016-02-14T13:05:15Z</time>
      </trkpt>
      <trkpt lat="43.57922" lon="3.39189">
        <ele>290</ele>
        <time>2016-02-14T13:05:16Z</time>
      </trkpt>
      <trkpt lat="43.57922" lon="3.39188">
        <ele>290.5</ele>
        <time>2016-02-14T13:05:17Z</time>
      </trkpt>
      <trkpt lat="43.57921" lon="3.39186">
        <ele>291</ele>
        <time>2016-02-14T13:05:18Z</time>
      </trkpt>
      <trkpt lat="43.57921" lon="3.39184">
        <ele>291</ele>
        <time>2016-02-14T13:05:19Z</time>
      </trkpt>
      <trkpt lat="43.5792" lon="3.39182">
        <ele>291</ele>
        <time>2016-02-14T13:05:20Z</time>
      </trkpt>
      <trkpt lat="43.5792" lon="3.39178">
        <ele>291</ele>
        <time>2016-02-14T13:05:22Z</time>
      </trkpt>
      <trkpt lat="43.57921" lon="3.39176">
        <ele>290</ele>
        <time>2016-02-14T13:05:23Z</time>
      </trkpt>
      <trkpt lat="43.57921" lon="3.39173">
        <ele>290</ele>
        <time>2016-02-14T13:05:24Z</time>
      </trkpt>
      <trkpt lat="43.57921" lon="3.39171">
        <ele>289</ele>
        <time>2016-02-14T13:05:25Z</time>
      </trkpt>
      <trkpt lat="43.57922" lon="3.39169">
        <ele>288</ele>
        <time>2016-02-14T13:05:26Z</time>
      </trkpt>
      <trkpt lat="43.57922" lon="3.39166">
        <ele>289</ele>
        <time>2016-02-14T13:05:27Z</time>
      </trkpt>
      <trkpt lat="43.57923" lon="3.39165">
        <ele>289.5</ele>
        <time>2016-02-14T13:05:28Z</time>
      </trkpt>
      <trkpt lat="43.57922" lon="3.39162">
        <ele>291.5</ele>
        <time>2016-02-14T13:05:29Z</time>
      </trkpt>
      <trkpt lat="43.57922" lon="3.3916">
        <ele>292</ele>
        <time>2016-02-14T13:05:30Z</time>
      </trkpt>
      <trkpt lat="43.57923" lon="3.39158">
        <ele>292.5</ele>
        <time>2016-02-14T13:05:31Z</time>
      </trkpt>
      <trkpt lat="43.57924" lon="3.39157">
        <ele>293</ele>
        <time>2016-02-14T13:05:32Z</time>
      </trkpt>
      <trkpt lat="43.57925" lon="3.39155">
        <ele>293.5</ele>
        <time>2016-02-14T13:05:33Z</time>
      </trkpt>
      <trkpt lat="43.57925" lon="3.39153">
        <ele>293.5</ele>
        <time>2016-02-14T13:05:34Z</time>
      </trkpt>
      <trkpt lat="43.57926" lon="3.39151">
        <ele>293.5</ele>
        <time>2016-02-14T13:05:35Z</time>
      </trkpt>
      <trkpt lat="43.57927" lon="3.39149">
        <ele>293</ele>
        <time>2016-02-14T13:05:36Z</time>
      </trkpt>
      <trkpt lat="43.57928" lon="3.39147">
        <ele>293</ele>
        <time>2016-02-14T13:05:37Z</time>
      </trkpt>
      <trkpt lat="43.57929" lon="3.39144">
        <ele>293</ele>
        <time>2016-02-14T13:05:39Z</time>
      </trkpt>
      <trkpt lat="43.5793" lon="3.39143">
        <ele>293</ele>
        <time>2016-02-14T13:05:40Z</time>
      </trkpt>
      <trkpt lat="43.5793" lon="3.39141">
        <ele>293.5</ele>
        <time>2016-02-14T13:05:41Z</time>
      </trkpt>
      <trkpt lat="43.57931" lon="3.39139">
        <ele>294</ele>
        <time>2016-02-14T13:05:42Z</time>
      </trkpt>
      <trkpt lat="43.57932" lon="3.39138">
        <ele>294</ele>
        <time>2016-02-14T13:05:43Z</time>
      </trkpt>
      <trkpt lat="43.57933" lon="3.39136">
        <ele>294.5</ele>
        <time>2016-02-14T13:05:44Z</time>
      </trkpt>
      <trkpt lat="43.57933" lon="3.39134">
        <ele>295.5</ele>
        <time>2016-02-14T13:05:45Z</time>
      </trkpt>
      <trkpt lat="43.57933" lon="3.39133">
        <ele>296</ele>
        <time>2016-02-14T13:05:46Z</time>
      </trkpt>
      <trkpt lat="43.57933" lon="3.39131">
        <ele>297.5</ele>
        <time>2016-02-14T13:05:47Z</time>
      </trkpt>
      <trkpt lat="43.57933" lon="3.3913">
        <ele>298.5</ele>
        <time>2016-02-14T13:05:48Z</time>
      </trkpt>
      <trkpt lat="43.57934" lon="3.39128">
        <ele>299</ele>
        <time>2016-02-14T13:05:49Z</time>
      </trkpt>
      <trkpt lat="43.57934" lon="3.39126">
        <ele>299.5</ele>
        <time>2016-02-14T13:05:50Z</time>
      </trkpt>
      <trkpt lat="43.57935" lon="3.39125">
        <ele>300.5</ele>
        <time>2016-02-14T13:05:51Z</time>
      </trkpt>
      <trkpt lat="43.57935" lon="3.39123">
        <ele>301</ele>
        <time>2016-02-14T13:05:52Z</time>
      </trkpt>
      <trkpt lat="43.57935" lon="3.39122">
        <ele>302</ele>
        <time>2016-02-14T13:05:53Z</time>
      </trkpt>
      <trkpt lat="43.57935" lon="3.3912">
        <ele>303.5</ele>
        <time>2016-02-14T13:05:54Z</time>
      </trkpt>
      <trkpt lat="43.57936" lon="3.39119">
        <ele>303.5</ele>
        <time>2016-02-14T13:05:55Z</time>
      </trkpt>
      <trkpt lat="43.57936" lon="3.39118">
        <ele>305</ele>
        <time>2016-02-14T13:05:56Z</time>
      </trkpt>
      <trkpt lat="43.57936" lon="3.39117">
        <ele>305.5</ele>
        <time>2016-02-14T13:05:57Z</time>
      </trkpt>
      <trkpt lat="43.57937" lon="3.39116">
        <ele>307.5</ele>
        <time>2016-02-14T13:05:58Z</time>
      </trkpt>
      <trkpt lat="43.57937" lon="3.39114">
        <ele>308</ele>
        <time>2016-02-14T13:05:59Z</time>
      </trkpt>
      <trkpt lat="43.57937" lon="3.39112">
        <ele>308.5</ele>
        <time>2016-02-14T13:06:00Z</time>
      </trkpt>
      <trkpt lat="43.57938" lon="3.3911">
        <ele>309.5</ele>
        <time>2016-02-14T13:06:01Z</time>
      </trkpt>
      <trkpt lat="43.57938" lon="3.39108">
        <ele>310</ele>
        <time>2016-02-14T13:06:02Z</time>
      </trkpt>
      <trkpt lat="43.57939" lon="3.39106">
        <ele>309.5</ele>
        <time>2016-02-14T13:06:03Z</time>
      </trkpt>
      <trkpt lat="43.57939" lon="3.39104">
        <ele>310</ele>
        <time>2016-02-14T13:06:04Z</time>
      </trkpt>
      <trkpt lat="43.57939" lon="3.39103">
        <ele>310.5</ele>
        <time>2016-02-14T13:06:05Z</time>
      </trkpt>
      <trkpt lat="43.5794" lon="3.39101">
        <ele>311</ele>
        <time>2016-02-14T13:06:06Z</time>
      </trkpt>
      <trkpt lat="43.5794" lon="3.39099">
        <ele>311</ele>
        <time>2016-02-14T13:06:07Z</time>
      </trkpt>
      <trkpt lat="43.57941" lon="3.39098">
        <ele>310</ele>
        <time>2016-02-14T13:06:08Z</time>
      </trkpt>
      <trkpt lat="43.57942" lon="3.39095">
        <ele>310.5</ele>
        <time>2016-02-14T13:06:09Z</time>
      </trkpt>
      <trkpt lat="43.57942" lon="3.39093">
        <ele>310.5</ele>
        <time>2016-02-14T13:06:10Z</time>
      </trkpt>
      <trkpt lat="43.57943" lon="3.39091">
        <ele>311</ele>
        <time>2016-02-14T13:06:11Z</time>
      </trkpt>
      <trkpt lat="43.57943" lon="3.3909">
        <ele>310.5</ele>
        <time>2016-02-14T13:06:12Z</time>
      </trkpt>
      <trkpt lat="43.57944" lon="3.39088">
        <ele>311</ele>
        <time>2016-02-14T13:06:13Z</time>
      </trkpt>
      <trkpt lat="43.57945" lon="3.39087">
        <ele>311</ele>
        <time>2016-02-14T13:06:14Z</time>
      </trkpt>
      <trkpt lat="43.57945" lon="3.39085">
        <ele>311</ele>
        <time>2016-02-14T13:06:15Z</time>
      </trkpt>
      <trkpt lat="43.57945" lon="3.39084">
        <ele>312</ele>
        <time>2016-02-14T13:06:16Z</time>
      </trkpt>
      <trkpt lat="43.57946" lon="3.39082">
        <ele>312.5</ele>
        <time>2016-02-14T13:06:17Z</time>
      </trkpt>
      <trkpt lat="43.57946" lon="3.3908">
        <ele>313.5</ele>
        <time>2016-02-14T13:06:18Z</time>
      </trkpt>
      <trkpt lat="43.57946" lon="3.39078">
        <ele>314</ele>
        <time>2016-02-14T13:06:19Z</time>
      </trkpt>
      <trkpt lat="43.57947" lon="3.39077">
        <ele>313.5</ele>
        <time>2016-02-14T13:06:20Z</time>
      </trkpt>
      <trkpt lat="43.57947" lon="3.39075">
        <ele>314.5</ele>
        <time>2016-02-14T13:06:21Z</time>
      </trkpt>
      <trkpt lat="43.57947" lon="3.39073">
        <ele>315</ele>
        <time>2016-02-14T13:06:22Z</time>
      </trkpt>
      <trkpt lat="43.57946" lon="3.39071">
        <ele>315</ele>
        <time>2016-02-14T13:06:23Z</time>
      </trkpt>
      <trkpt lat="43.57947" lon="3.39068">
        <ele>315.5</ele>
        <time>2016-02-14T13:06:24Z</time>
      </trkpt>
      <trkpt lat="43.57947" lon="3.39067">
        <ele>315.5</ele>
        <time>2016-02-14T13:06:25Z</time>
      </trkpt>
      <trkpt lat="43.57947" lon="3.39065">
        <ele>316</ele>
        <time>2016-02-14T13:06:26Z</time>
      </trkpt>
      <trkpt lat="43.57946" lon="3.39062">
        <ele>316.5</ele>
        <time>2016-02-14T13:06:27Z</time>
      </trkpt>
      <trkpt lat="43.57947" lon="3.3906">
        <ele>316.5</ele>
        <time>2016-02-14T13:06:28Z</time>
      </trkpt>
      <trkpt lat="43.57947" lon="3.39058">
        <ele>317</ele>
        <time>2016-02-14T13:06:29Z</time>
      </trkpt>
      <trkpt lat="43.57947" lon="3.39056">
        <ele>317</ele>
        <time>2016-02-14T13:06:30Z</time>
      </trkpt>
      <trkpt lat="43.57947" lon="3.39054">
        <ele>317.5</ele>
        <time>2016-02-14T13:06:31Z</time>
      </trkpt>
      <trkpt lat="43.57947" lon="3.39052">
        <ele>317.5</ele>
        <time>2016-02-14T13:06:32Z</time>
      </trkpt>
      <trkpt lat="43.57947" lon="3.3905">
        <ele>317.5</ele>
        <time>2016-02-14T13:06:33Z</time>
      </trkpt>
      <trkpt lat="43.57947" lon="3.39049">
        <ele>318</ele>
        <time>2016-02-14T13:06:34Z</time>
      </trkpt>
      <trkpt lat="43.57947" lon="3.39047">
        <ele>318.5</ele>
        <time>2016-02-14T13:06:35Z</time>
      </trkpt>
      <trkpt lat="43.57948" lon="3.39045">
        <ele>318.5</ele>
        <time>2016-02-14T13:06:36Z</time>
      </trkpt>
      <trkpt lat="43.57949" lon="3.39043">
        <ele>318</ele>
        <time>2016-02-14T13:06:37Z</time>
      </trkpt>
      <trkpt lat="43.57949" lon="3.39041">
        <ele>318</ele>
        <time>2016-02-14T13:06:38Z</time>
      </trkpt>
      <trkpt lat="43.5795" lon="3.3904">
        <ele>318</ele>
        <time>2016-02-14T13:06:39Z</time>
      </trkpt>
      <trkpt lat="43.57951" lon="3.39038">
        <ele>318</ele>
        <time>2016-02-14T13:06:40Z</time>
      </trkpt>
      <trkpt lat="43.57951" lon="3.39036">
        <ele>317.5</ele>
        <time>2016-02-14T13:06:41Z</time>
      </trkpt>
      <trkpt lat="43.57952" lon="3.39034">
        <ele>317.5</ele>
        <time>2016-02-14T13:06:42Z</time>
      </trkpt>
      <trkpt lat="43.57953" lon="3.39033">
        <ele>317.5</ele>
        <time>2016-02-14T13:06:43Z</time>
      </trkpt>
      <trkpt lat="43.57953" lon="3.39032">
        <ele>318</ele>
        <time>2016-02-14T13:06:44Z</time>
      </trkpt>
      <trkpt lat="43.57954" lon="3.3903">
        <ele>318.5</ele>
        <time>2016-02-14T13:06:45Z</time>
      </trkpt>
      <trkpt lat="43.57955" lon="3.39027">
        <ele>319</ele>
        <time>2016-02-14T13:06:47Z</time>
      </trkpt>
      <trkpt lat="43.57956" lon="3.39025">
        <ele>319.5</ele>
        <time>2016-02-14T13:06:48Z</time>
      </trkpt>
      <trkpt lat="43.57956" lon="3.39023">
        <ele>318.5</ele>
        <time>2016-02-14T13:06:49Z</time>
      </trkpt>
      <trkpt lat="43.57956" lon="3.39022">
        <ele>319</ele>
        <time>2016-02-14T13:06:49Z</time>
      </trkpt>
      <trkpt lat="43.57956" lon="3.3902">
        <ele>319</ele>
        <time>2016-02-14T13:06:50Z</time>
      </trkpt>
      <trkpt lat="43.57957" lon="3.39018">
        <ele>319.5</ele>
        <time>2016-02-14T13:06:52Z</time>
      </trkpt>
      <trkpt lat="43.57958" lon="3.39016">
        <ele>320</ele>
        <time>2016-02-14T13:06:52Z</time>
      </trkpt>
      <trkpt lat="43.57958" lon="3.39015">
        <ele>320.5</ele>
        <time>2016-02-14T13:06:53Z</time>
      </trkpt>
      <trkpt lat="43.57959" lon="3.39013">
        <ele>320.5</ele>
        <time>2016-02-14T13:06:54Z</time>
      </trkpt>
      <trkpt lat="43.5796" lon="3.39012">
        <ele>321</ele>
        <time>2016-02-14T13:06:55Z</time>
      </trkpt>
      <trkpt lat="43.57961" lon="3.3901">
        <ele>321.5</ele>
        <time>2016-02-14T13:06:57Z</time>
      </trkpt>
      <trkpt lat="43.57961" lon="3.39009">
        <ele>322.5</ele>
        <time>2016-02-14T13:06:57Z</time>
      </trkpt>
      <trkpt lat="43.57963" lon="3.39008">
        <ele>321.5</ele>
        <time>2016-02-14T13:06:58Z</time>
      </trkpt>
      <trkpt lat="43.57963" lon="3.39006">
        <ele>321</ele>
        <time>2016-02-14T13:07:00Z</time>
      </trkpt>
      <trkpt lat="43.57963" lon="3.39005">
        <ele>322</ele>
        <time>2016-02-14T13:07:01Z</time>
      </trkpt>
      <trkpt lat="43.57964" lon="3.39003">
        <ele>323</ele>
        <time>2016-02-14T13:07:02Z</time>
      </trkpt>
      <trkpt lat="43.57964" lon="3.39002">
        <ele>323</ele>
        <time>2016-02-14T13:07:03Z</time>
      </trkpt>
      <trkpt lat="43.57967" lon="3.38999">
        <ele>322</ele>
        <time>2016-02-14T13:07:05Z</time>
      </trkpt>
      <trkpt lat="43.57967" lon="3.38996">
        <ele>323</ele>
        <time>2016-02-14T13:07:06Z</time>
      </trkpt>
      <trkpt lat="43.57968" lon="3.38994">
        <ele>323.5</ele>
        <time>2016-02-14T13:07:07Z</time>
      </trkpt>
      <trkpt lat="43.57968" lon="3.38993">
        <ele>323</ele>
        <time>2016-02-14T13:07:08Z</time>
      </trkpt>
      <trkpt lat="43.57969" lon="3.38991">
        <ele>324</ele>
        <time>2016-02-14T13:07:10Z</time>
      </trkpt>
      <trkpt lat="43.57969" lon="3.38989">
        <ele>324.5</ele>
        <time>2016-02-14T13:07:10Z</time>
      </trkpt>
      <trkpt lat="43.57969" lon="3.38987">
        <ele>325</ele>
        <time>2016-02-14T13:07:11Z</time>
      </trkpt>
      <trkpt lat="43.5797" lon="3.38986">
        <ele>325.5</ele>
        <time>2016-02-14T13:07:12Z</time>
      </trkpt>
      <trkpt lat="43.57971" lon="3.38984">
        <ele>325.5</ele>
        <time>2016-02-14T13:07:13Z</time>
      </trkpt>
      <trkpt lat="43.57971" lon="3.38983">
        <ele>325.5</ele>
        <time>2016-02-14T13:07:14Z</time>
      </trkpt>
      <trkpt lat="43.57972" lon="3.38982">
        <ele>326</ele>
        <time>2016-02-14T13:07:15Z</time>
      </trkpt>
      <trkpt lat="43.57973" lon="3.3898">
        <ele>326</ele>
        <time>2016-02-14T13:07:16Z</time>
      </trkpt>
      <trkpt lat="43.57973" lon="3.38979">
        <ele>326.5</ele>
        <time>2016-02-14T13:07:17Z</time>
      </trkpt>
      <trkpt lat="43.57975" lon="3.38977">
        <ele>326.5</ele>
        <time>2016-02-14T13:07:18Z</time>
      </trkpt>
      <trkpt lat="43.57977" lon="3.38976">
        <ele>326</ele>
        <time>2016-02-14T13:07:19Z</time>
      </trkpt>
      <trkpt lat="43.57978" lon="3.38975">
        <ele>325.5</ele>
        <time>2016-02-14T13:07:20Z</time>
      </trkpt>
      <trkpt lat="43.5798" lon="3.38974">
        <ele>325</ele>
        <time>2016-02-14T13:07:21Z</time>
      </trkpt>
      <trkpt lat="43.57982" lon="3.38974">
        <ele>325</ele>
        <time>2016-02-14T13:07:22Z</time>
      </trkpt>
      <trkpt lat="43.57983" lon="3.38973">
        <ele>324.5</ele>
        <time>2016-02-14T13:07:23Z</time>
      </trkpt>
      <trkpt lat="43.57985" lon="3.38973">
        <ele>324</ele>
        <time>2016-02-14T13:07:24Z</time>
      </trkpt>
      <trkpt lat="43.57987" lon="3.38973">
        <ele>324.5</ele>
        <time>2016-02-14T13:07:25Z</time>
      </trkpt>
      <trkpt lat="43.57989" lon="3.38973">
        <ele>324.5</ele>
        <time>2016-02-14T13:07:26Z</time>
      </trkpt>
      <trkpt lat="43.5799" lon="3.38973">
        <ele>324.5</ele>
        <time>2016-02-14T13:07:27Z</time>
      </trkpt>
      <trkpt lat="43.57992" lon="3.38973">
        <ele>324.5</ele>
        <time>2016-02-14T13:07:28Z</time>
      </trkpt>
      <trkpt lat="43.57994" lon="3.38973">
        <ele>324.5</ele>
        <time>2016-02-14T13:07:29Z</time>
      </trkpt>
      <trkpt lat="43.57996" lon="3.38973">
        <ele>324.5</ele>
        <time>2016-02-14T13:07:30Z</time>
      </trkpt>
      <trkpt lat="43.57999" lon="3.38973">
        <ele>324</ele>
        <time>2016-02-14T13:07:31Z</time>
      </trkpt>
      <trkpt lat="43.58001" lon="3.38973">
        <ele>324</ele>
        <time>2016-02-14T13:07:33Z</time>
      </trkpt>
      <trkpt lat="43.58002" lon="3.38972">
        <ele>324</ele>
        <time>2016-02-14T13:07:33Z</time>
      </trkpt>
      <trkpt lat="43.58004" lon="3.38972">
        <ele>324</ele>
        <time>2016-02-14T13:07:34Z</time>
      </trkpt>
      <trkpt lat="43.58006" lon="3.38971">
        <ele>324</ele>
        <time>2016-02-14T13:07:35Z</time>
      </trkpt>
      <trkpt lat="43.58007" lon="3.3897">
        <ele>324</ele>
        <time>2016-02-14T13:07:36Z</time>
      </trkpt>
      <trkpt lat="43.58008" lon="3.38969">
        <ele>324</ele>
        <time>2016-02-14T13:07:37Z</time>
      </trkpt>
      <trkpt lat="43.58011" lon="3.38966">
        <ele>324.5</ele>
        <time>2016-02-14T13:07:39Z</time>
      </trkpt>
      <trkpt lat="43.58012" lon="3.38964">
        <ele>325</ele>
        <time>2016-02-14T13:07:40Z</time>
      </trkpt>
      <trkpt lat="43.58013" lon="3.38963">
        <ele>325</ele>
        <time>2016-02-14T13:07:41Z</time>
      </trkpt>
      <trkpt lat="43.58015" lon="3.38961">
        <ele>325</ele>
        <time>2016-02-14T13:07:42Z</time>
      </trkpt>
      <trkpt lat="43.58016" lon="3.3896">
        <ele>325.5</ele>
        <time>2016-02-14T13:07:43Z</time>
      </trkpt>
      <trkpt lat="43.58017" lon="3.38958">
        <ele>325.5</ele>
        <time>2016-02-14T13:07:44Z</time>
      </trkpt>
      <trkpt lat="43.58018" lon="3.38957">
        <ele>325.5</ele>
        <time>2016-02-14T13:07:45Z</time>
      </trkpt>
      <trkpt lat="43.58019" lon="3.38955">
        <ele>326</ele>
        <time>2016-02-14T13:07:46Z</time>
      </trkpt>
      <trkpt lat="43.58021" lon="3.38953">
        <ele>326</ele>
        <time>2016-02-14T13:07:47Z</time>
      </trkpt>
      <trkpt lat="43.58022" lon="3.38952">
        <ele>326</ele>
        <time>2016-02-14T13:07:48Z</time>
      </trkpt>
      <trkpt lat="43.58022" lon="3.3895">
        <ele>326</ele>
        <time>2016-02-14T13:07:49Z</time>
      </trkpt>
      <trkpt lat="43.58024" lon="3.38948">
        <ele>326.5</ele>
        <time>2016-02-14T13:07:50Z</time>
      </trkpt>
      <trkpt lat="43.58025" lon="3.38947">
        <ele>326</ele>
        <time>2016-02-14T13:07:51Z</time>
      </trkpt>
      <trkpt lat="43.58026" lon="3.38946">
        <ele>326.5</ele>
        <time>2016-02-14T13:07:52Z</time>
      </trkpt>
      <trkpt lat="43.58027" lon="3.38944">
        <ele>327</ele>
        <time>2016-02-14T13:07:53Z</time>
      </trkpt>
      <trkpt lat="43.58028" lon="3.38942">
        <ele>327</ele>
        <time>2016-02-14T13:07:54Z</time>
      </trkpt>
      <trkpt lat="43.58029" lon="3.38941">
        <ele>328</ele>
        <time>2016-02-14T13:07:55Z</time>
      </trkpt>
      <trkpt lat="43.58031" lon="3.3894">
        <ele>327.5</ele>
        <time>2016-02-14T13:07:56Z</time>
      </trkpt>
      <trkpt lat="43.58032" lon="3.38939">
        <ele>327.5</ele>
        <time>2016-02-14T13:07:57Z</time>
      </trkpt>
      <trkpt lat="43.58033" lon="3.38938">
        <ele>327.5</ele>
        <time>2016-02-14T13:07:58Z</time>
      </trkpt>
      <trkpt lat="43.58035" lon="3.38938">
        <ele>328</ele>
        <time>2016-02-14T13:07:59Z</time>
      </trkpt>
      <trkpt lat="43.58036" lon="3.38937">
        <ele>328.5</ele>
        <time>2016-02-14T13:08:00Z</time>
      </trkpt>
      <trkpt lat="43.58038" lon="3.38936">
        <ele>328.5</ele>
        <time>2016-02-14T13:08:01Z</time>
      </trkpt>
      <trkpt lat="43.58039" lon="3.38936">
        <ele>329</ele>
        <time>2016-02-14T13:08:02Z</time>
      </trkpt>
      <trkpt lat="43.58041" lon="3.38935">
        <ele>328.5</ele>
        <time>2016-02-14T13:08:03Z</time>
      </trkpt>
      <trkpt lat="43.58042" lon="3.38934">
        <ele>328</ele>
        <time>2016-02-14T13:08:04Z</time>
      </trkpt>
      <trkpt lat="43.58042" lon="3.38932">
        <ele>326.5</ele>
        <time>2016-02-14T13:08:05Z</time>
      </trkpt>
      <trkpt lat="43.58044" lon="3.38931">
        <ele>326.5</ele>
        <time>2016-02-14T13:08:06Z</time>
      </trkpt>
      <trkpt lat="43.58046" lon="3.38931">
        <ele>326</ele>
        <time>2016-02-14T13:08:07Z</time>
      </trkpt>
      <trkpt lat="43.58047" lon="3.38931">
        <ele>326</ele>
        <time>2016-02-14T13:08:08Z</time>
      </trkpt>
      <trkpt lat="43.58048" lon="3.38931">
        <ele>325.5</ele>
        <time>2016-02-14T13:08:09Z</time>
      </trkpt>
      <trkpt lat="43.58049" lon="3.3893">
        <ele>324.5</ele>
        <time>2016-02-14T13:08:10Z</time>
      </trkpt>
      <trkpt lat="43.58051" lon="3.38931">
        <ele>324.5</ele>
        <time>2016-02-14T13:08:11Z</time>
      </trkpt>
      <trkpt lat="43.58053" lon="3.38932">
        <ele>325</ele>
        <time>2016-02-14T13:08:12Z</time>
      </trkpt>
      <trkpt lat="43.58055" lon="3.38931">
        <ele>324.5</ele>
        <time>2016-02-14T13:08:13Z</time>
      </trkpt>
      <trkpt lat="43.58058" lon="3.38931">
        <ele>324.5</ele>
        <time>2016-02-14T13:08:15Z</time>
      </trkpt>
      <trkpt lat="43.58059" lon="3.3893">
        <ele>323.5</ele>
        <time>2016-02-14T13:08:16Z</time>
      </trkpt>
      <trkpt lat="43.5806" lon="3.3893">
        <ele>323</ele>
        <time>2016-02-14T13:08:17Z</time>
      </trkpt>
      <trkpt lat="43.58064" lon="3.38932">
        <ele>323</ele>
        <time>2016-02-14T13:08:19Z</time>
      </trkpt>
      <trkpt lat="43.58066" lon="3.38931">
        <ele>323</ele>
        <time>2016-02-14T13:08:20Z</time>
      </trkpt>
      <trkpt lat="43.58068" lon="3.3893">
        <ele>322.5</ele>
        <time>2016-02-14T13:08:21Z</time>
      </trkpt>
      <trkpt lat="43.5807" lon="3.3893">
        <ele>323</ele>
        <time>2016-02-14T13:08:22Z</time>
      </trkpt>
      <trkpt lat="43.58072" lon="3.3893">
        <ele>324</ele>
        <time>2016-02-14T13:08:23Z</time>
      </trkpt>
      <trkpt lat="43.58072" lon="3.38928">
        <ele>322.5</ele>
        <time>2016-02-14T13:08:24Z</time>
      </trkpt>
      <trkpt lat="43.58072" lon="3.38925">
        <ele>321.5</ele>
        <time>2016-02-14T13:08:25Z</time>
      </trkpt>
      <trkpt lat="43.58074" lon="3.38924">
        <ele>321.5</ele>
        <time>2016-02-14T13:08:26Z</time>
      </trkpt>
      <trkpt lat="43.58075" lon="3.38923">
        <ele>321.5</ele>
        <time>2016-02-14T13:08:27Z</time>
      </trkpt>
      <trkpt lat="43.58075" lon="3.38921">
        <ele>322</ele>
        <time>2016-02-14T13:08:28Z</time>
      </trkpt>
      <trkpt lat="43.58076" lon="3.38918">
        <ele>321</ele>
        <time>2016-02-14T13:08:29Z</time>
      </trkpt>
      <trkpt lat="43.58077" lon="3.38917">
        <ele>321</ele>
        <time>2016-02-14T13:08:30Z</time>
      </trkpt>
      <trkpt lat="43.58079" lon="3.38916">
        <ele>322.5</ele>
        <time>2016-02-14T13:08:31Z</time>
      </trkpt>
      <trkpt lat="43.5808" lon="3.38915">
        <ele>324</ele>
        <time>2016-02-14T13:08:32Z</time>
      </trkpt>
      <trkpt lat="43.58082" lon="3.38914">
        <ele>324.5</ele>
        <time>2016-02-14T13:08:33Z</time>
      </trkpt>
      <trkpt lat="43.58084" lon="3.38913">
        <ele>325.5</ele>
        <time>2016-02-14T13:08:34Z</time>
      </trkpt>
      <trkpt lat="43.58085" lon="3.38912">
        <ele>326</ele>
        <time>2016-02-14T13:08:35Z</time>
      </trkpt>
      <trkpt lat="43.58087" lon="3.38911">
        <ele>327</ele>
        <time>2016-02-14T13:08:36Z</time>
      </trkpt>
      <trkpt lat="43.58088" lon="3.3891">
        <ele>328</ele>
        <time>2016-02-14T13:08:37Z</time>
      </trkpt>
      <trkpt lat="43.58089" lon="3.38909">
        <ele>328</ele>
        <time>2016-02-14T13:08:38Z</time>
      </trkpt>
      <trkpt lat="43.5809" lon="3.38908">
        <ele>328.5</ele>
        <time>2016-02-14T13:08:39Z</time>
      </trkpt>
      <trkpt lat="43.58091" lon="3.38907">
        <ele>329.5</ele>
        <time>2016-02-14T13:08:40Z</time>
      </trkpt>
      <trkpt lat="43.58093" lon="3.38907">
        <ele>330</ele>
        <time>2016-02-14T13:08:41Z</time>
      </trkpt>
      <trkpt lat="43.58096" lon="3.38907">
        <ele>332</ele>
        <time>2016-02-14T13:08:42Z</time>
      </trkpt>
      <trkpt lat="43.58098" lon="3.38907">
        <ele>332</ele>
        <time>2016-02-14T13:08:43Z</time>
      </trkpt>
      <trkpt lat="43.58099" lon="3.38906">
        <ele>332</ele>
        <time>2016-02-14T13:08:44Z</time>
      </trkpt>
      <trkpt lat="43.581" lon="3.38905">
        <ele>332.5</ele>
        <time>2016-02-14T13:08:45Z</time>
      </trkpt>
      <trkpt lat="43.58101" lon="3.38905">
        <ele>332</ele>
        <time>2016-02-14T13:08:46Z</time>
      </trkpt>
      <trkpt lat="43.58103" lon="3.38906">
        <ele>332.5</ele>
        <time>2016-02-14T13:08:47Z</time>
      </trkpt>
      <trkpt lat="43.58104" lon="3.38906">
        <ele>331.5</ele>
        <time>2016-02-14T13:08:48Z</time>
      </trkpt>
      <trkpt lat="43.58106" lon="3.38907">
        <ele>331</ele>
        <time>2016-02-14T13:08:49Z</time>
      </trkpt>
      <trkpt lat="43.58107" lon="3.38908">
        <ele>330.5</ele>
        <time>2016-02-14T13:08:50Z</time>
      </trkpt>
      <trkpt lat="43.58109" lon="3.38907">
        <ele>330</ele>
        <time>2016-02-14T13:08:51Z</time>
      </trkpt>
      <trkpt lat="43.5811" lon="3.38908">
        <ele>329.5</ele>
        <time>2016-02-14T13:08:52Z</time>
      </trkpt>
      <trkpt lat="43.58112" lon="3.38909">
        <ele>329</ele>
        <time>2016-02-14T13:08:53Z</time>
      </trkpt>
      <trkpt lat="43.58113" lon="3.3891">
        <ele>328</ele>
        <time>2016-02-14T13:08:54Z</time>
      </trkpt>
      <trkpt lat="43.58114" lon="3.38911">
        <ele>327</ele>
        <time>2016-02-14T13:08:55Z</time>
      </trkpt>
      <trkpt lat="43.58116" lon="3.38912">
        <ele>326</ele>
        <time>2016-02-14T13:08:56Z</time>
      </trkpt>
      <trkpt lat="43.58117" lon="3.38913">
        <ele>325</ele>
        <time>2016-02-14T13:08:57Z</time>
      </trkpt>
      <trkpt lat="43.58119" lon="3.38914">
        <ele>324</ele>
        <time>2016-02-14T13:08:58Z</time>
      </trkpt>
      <trkpt lat="43.5812" lon="3.38915">
        <ele>323.5</ele>
        <time>2016-02-14T13:08:59Z</time>
      </trkpt>
      <trkpt lat="43.58122" lon="3.38916">
        <ele>324</ele>
        <time>2016-02-14T13:09:00Z</time>
      </trkpt>
      <trkpt lat="43.58123" lon="3.38917">
        <ele>324</ele>
        <time>2016-02-14T13:09:01Z</time>
      </trkpt>
      <trkpt lat="43.58124" lon="3.38918">
        <ele>323</ele>
        <time>2016-02-14T13:09:02Z</time>
      </trkpt>
      <trkpt lat="43.58126" lon="3.38918">
        <ele>325</ele>
        <time>2016-02-14T13:09:03Z</time>
      </trkpt>
      <trkpt lat="43.58127" lon="3.38919">
        <ele>324.5</ele>
        <time>2016-02-14T13:09:04Z</time>
      </trkpt>
      <trkpt lat="43.58129" lon="3.38921">
        <ele>324.5</ele>
        <time>2016-02-14T13:09:05Z</time>
      </trkpt>
      <trkpt lat="43.5813" lon="3.38922">
        <ele>324</ele>
        <time>2016-02-14T13:09:06Z</time>
      </trkpt>
      <trkpt lat="43.58131" lon="3.3892">
        <ele>324</ele>
        <time>2016-02-14T13:09:07Z</time>
      </trkpt>
      <trkpt lat="43.58144" lon="3.38923">
        <ele>341.5</ele>
        <time>2016-02-14T13:09:11Z</time>
      </trkpt>
      <trkpt lat="43.5815" lon="3.38925">
        <ele>346</ele>
        <time>2016-02-14T13:09:13Z</time>
      </trkpt>
      <trkpt lat="43.58152" lon="3.38924">
        <ele>347.5</ele>
        <time>2016-02-14T13:09:14Z</time>
      </trkpt>
      <trkpt lat="43.58154" lon="3.38924">
        <ele>347.5</ele>
        <time>2016-02-14T13:09:15Z</time>
      </trkpt>
      <trkpt lat="43.58156" lon="3.38924">
        <ele>347.5</ele>
        <time>2016-02-14T13:09:17Z</time>
      </trkpt>
      <trkpt lat="43.58159" lon="3.38921">
        <ele>348.5</ele>
        <time>2016-02-14T13:09:18Z</time>
      </trkpt>
      <trkpt lat="43.5816" lon="3.38919">
        <ele>349</ele>
        <time>2016-02-14T13:09:19Z</time>
      </trkpt>
      <trkpt lat="43.58162" lon="3.38918">
        <ele>349</ele>
        <time>2016-02-14T13:09:20Z</time>
      </trkpt>
      <trkpt lat="43.58164" lon="3.38918">
        <ele>349</ele>
        <time>2016-02-14T13:09:21Z</time>
      </trkpt>
      <trkpt lat="43.58166" lon="3.38917">
        <ele>349.5</ele>
        <time>2016-02-14T13:09:22Z</time>
      </trkpt>
      <trkpt lat="43.58168" lon="3.38918">
        <ele>349.5</ele>
        <time>2016-02-14T13:09:23Z</time>
      </trkpt>
      <trkpt lat="43.58169" lon="3.38917">
        <ele>350</ele>
        <time>2016-02-14T13:09:24Z</time>
      </trkpt>
      <trkpt lat="43.58171" lon="3.38916">
        <ele>350</ele>
        <time>2016-02-14T13:09:25Z</time>
      </trkpt>
      <trkpt lat="43.58173" lon="3.38915">
        <ele>350.5</ele>
        <time>2016-02-14T13:09:26Z</time>
      </trkpt>
      <trkpt lat="43.58174" lon="3.38915">
        <ele>350.5</ele>
        <time>2016-02-14T13:09:27Z</time>
      </trkpt>
      <trkpt lat="43.58176" lon="3.38914">
        <ele>351</ele>
        <time>2016-02-14T13:09:28Z</time>
      </trkpt>
      <trkpt lat="43.58177" lon="3.38913">
        <ele>351</ele>
        <time>2016-02-14T13:09:29Z</time>
      </trkpt>
      <trkpt lat="43.58179" lon="3.38912">
        <ele>351.5</ele>
        <time>2016-02-14T13:09:30Z</time>
      </trkpt>
      <trkpt lat="43.5818" lon="3.3891">
        <ele>352</ele>
        <time>2016-02-14T13:09:31Z</time>
      </trkpt>
      <trkpt lat="43.58181" lon="3.38909">
        <ele>352</ele>
        <time>2016-02-14T13:09:32Z</time>
      </trkpt>
      <trkpt lat="43.58183" lon="3.38908">
        <ele>352</ele>
        <time>2016-02-14T13:09:33Z</time>
      </trkpt>
      <trkpt lat="43.58184" lon="3.38908">
        <ele>351</ele>
        <time>2016-02-14T13:09:34Z</time>
      </trkpt>
      <trkpt lat="43.58186" lon="3.38907">
        <ele>351.5</ele>
        <time>2016-02-14T13:09:35Z</time>
      </trkpt>
      <trkpt lat="43.58187" lon="3.38905">
        <ele>352</ele>
        <time>2016-02-14T13:09:36Z</time>
      </trkpt>
      <trkpt lat="43.58188" lon="3.38904">
        <ele>352</ele>
        <time>2016-02-14T13:09:37Z</time>
      </trkpt>
      <trkpt lat="43.58189" lon="3.38902">
        <ele>352</ele>
        <time>2016-02-14T13:09:38Z</time>
      </trkpt>
      <trkpt lat="43.58189" lon="3.389">
        <ele>352</ele>
        <time>2016-02-14T13:09:39Z</time>
      </trkpt>
      <trkpt lat="43.5819" lon="3.38899">
        <ele>352.5</ele>
        <time>2016-02-14T13:09:40Z</time>
      </trkpt>
      <trkpt lat="43.58191" lon="3.38897">
        <ele>353</ele>
        <time>2016-02-14T13:09:41Z</time>
      </trkpt>
      <trkpt lat="43.58192" lon="3.38895">
        <ele>353</ele>
        <time>2016-02-14T13:09:42Z</time>
      </trkpt>
      <trkpt lat="43.58193" lon="3.38893">
        <ele>353</ele>
        <time>2016-02-14T13:09:43Z</time>
      </trkpt>
      <trkpt lat="43.58194" lon="3.38891">
        <ele>353</ele>
        <time>2016-02-14T13:09:44Z</time>
      </trkpt>
      <trkpt lat="43.58195" lon="3.38889">
        <ele>353</ele>
        <time>2016-02-14T13:09:45Z</time>
      </trkpt>
      <trkpt lat="43.58196" lon="3.38887">
        <ele>353</ele>
        <time>2016-02-14T13:09:46Z</time>
      </trkpt>
      <trkpt lat="43.58196" lon="3.38885">
        <ele>353</ele>
        <time>2016-02-14T13:09:47Z</time>
      </trkpt>
      <trkpt lat="43.58197" lon="3.38883">
        <ele>353</ele>
        <time>2016-02-14T13:09:48Z</time>
      </trkpt>
      <trkpt lat="43.58198" lon="3.38881">
        <ele>353</ele>
        <time>2016-02-14T13:09:49Z</time>
      </trkpt>
      <trkpt lat="43.58199" lon="3.38879">
        <ele>353</ele>
        <time>2016-02-14T13:09:50Z</time>
      </trkpt>
      <trkpt lat="43.582" lon="3.38877">
        <ele>353.5</ele>
        <time>2016-02-14T13:09:51Z</time>
      </trkpt>
      <trkpt lat="43.58202" lon="3.38874">
        <ele>353.5</ele>
        <time>2016-02-14T13:09:52Z</time>
      </trkpt>
      <trkpt lat="43.58203" lon="3.38872">
        <ele>353.5</ele>
        <time>2016-02-14T13:09:53Z</time>
      </trkpt>
      <trkpt lat="43.58204" lon="3.38869">
        <ele>353.5</ele>
        <time>2016-02-14T13:09:54Z</time>
      </trkpt>
      <trkpt lat="43.58205" lon="3.38867">
        <ele>354</ele>
        <time>2016-02-14T13:09:55Z</time>
      </trkpt>
      <trkpt lat="43.58206" lon="3.38865">
        <ele>354</ele>
        <time>2016-02-14T13:09:56Z</time>
      </trkpt>
      <trkpt lat="43.58207" lon="3.38863">
        <ele>353.5</ele>
        <time>2016-02-14T13:09:57Z</time>
      </trkpt>
      <trkpt lat="43.58208" lon="3.38861">
        <ele>354</ele>
        <time>2016-02-14T13:09:58Z</time>
      </trkpt>
      <trkpt lat="43.58209" lon="3.38858">
        <ele>353</ele>
        <time>2016-02-14T13:09:59Z</time>
      </trkpt>
      <trkpt lat="43.5821" lon="3.38856">
        <ele>353</ele>
        <time>2016-02-14T13:10:00Z</time>
      </trkpt>
      <trkpt lat="43.58211" lon="3.38854">
        <ele>353</ele>
        <time>2016-02-14T13:10:01Z</time>
      </trkpt>
      <trkpt lat="43.58212" lon="3.38853">
        <ele>353.5</ele>
        <time>2016-02-14T13:10:02Z</time>
      </trkpt>
      <trkpt lat="43.58212" lon="3.38851">
        <ele>353.5</ele>
        <time>2016-02-14T13:10:03Z</time>
      </trkpt>
      <trkpt lat="43.58213" lon="3.38849">
        <ele>354</ele>
        <time>2016-02-14T13:10:04Z</time>
      </trkpt>
      <trkpt lat="43.58213" lon="3.38846">
        <ele>354</ele>
        <time>2016-02-14T13:10:05Z</time>
      </trkpt>
      <trkpt lat="43.58214" lon="3.38844">
        <ele>354.5</ele>
        <time>2016-02-14T13:10:06Z</time>
      </trkpt>
      <trkpt lat="43.58215" lon="3.38842">
        <ele>355</ele>
        <time>2016-02-14T13:10:07Z</time>
      </trkpt>
      <trkpt lat="43.58216" lon="3.3884">
        <ele>355</ele>
        <time>2016-02-14T13:10:08Z</time>
      </trkpt>
      <trkpt lat="43.58217" lon="3.38838">
        <ele>355</ele>
        <time>2016-02-14T13:10:09Z</time>
      </trkpt>
      <trkpt lat="43.58218" lon="3.38836">
        <ele>354.5</ele>
        <time>2016-02-14T13:10:10Z</time>
      </trkpt>
      <trkpt lat="43.58219" lon="3.38833">
        <ele>355</ele>
        <time>2016-02-14T13:10:11Z</time>
      </trkpt>
      <trkpt lat="43.58219" lon="3.38831">
        <ele>355</ele>
        <time>2016-02-14T13:10:12Z</time>
      </trkpt>
      <trkpt lat="43.5822" lon="3.38829">
        <ele>355</ele>
        <time>2016-02-14T13:10:13Z</time>
      </trkpt>
      <trkpt lat="43.58222" lon="3.38826">
        <ele>355</ele>
        <time>2016-02-14T13:10:14Z</time>
      </trkpt>
      <trkpt lat="43.58222" lon="3.38824">
        <ele>355</ele>
        <time>2016-02-14T13:10:15Z</time>
      </trkpt>
      <trkpt lat="43.58224" lon="3.38821">
        <ele>355.5</ele>
        <time>2016-02-14T13:10:16Z</time>
      </trkpt>
      <trkpt lat="43.58225" lon="3.38818">
        <ele>355</ele>
        <time>2016-02-14T13:10:17Z</time>
      </trkpt>
      <trkpt lat="43.58226" lon="3.38815">
        <ele>355</ele>
        <time>2016-02-14T13:10:18Z</time>
      </trkpt>
      <trkpt lat="43.58227" lon="3.38813">
        <ele>355</ele>
        <time>2016-02-14T13:10:19Z</time>
      </trkpt>
      <trkpt lat="43.58228" lon="3.3881">
        <ele>355</ele>
        <time>2016-02-14T13:10:20Z</time>
      </trkpt>
      <trkpt lat="43.58229" lon="3.38807">
        <ele>354.5</ele>
        <time>2016-02-14T13:10:21Z</time>
      </trkpt>
      <trkpt lat="43.5823" lon="3.38804">
        <ele>354</ele>
        <time>2016-02-14T13:10:22Z</time>
      </trkpt>
      <trkpt lat="43.58232" lon="3.388">
        <ele>354</ele>
        <time>2016-02-14T13:10:23Z</time>
      </trkpt>
      <trkpt lat="43.58233" lon="3.38797">
        <ele>354</ele>
        <time>2016-02-14T13:10:24Z</time>
      </trkpt>
      <trkpt lat="43.58234" lon="3.38794">
        <ele>354</ele>
        <time>2016-02-14T13:10:25Z</time>
      </trkpt>
      <trkpt lat="43.58235" lon="3.38791">
        <ele>354</ele>
        <time>2016-02-14T13:10:26Z</time>
      </trkpt>
      <trkpt lat="43.58236" lon="3.38788">
        <ele>354</ele>
        <time>2016-02-14T13:10:27Z</time>
      </trkpt>
      <trkpt lat="43.58237" lon="3.38785">
        <ele>354</ele>
        <time>2016-02-14T13:10:28Z</time>
      </trkpt>
      <trkpt lat="43.58238" lon="3.38782">
        <ele>354</ele>
        <time>2016-02-14T13:10:29Z</time>
      </trkpt>
      <trkpt lat="43.5824" lon="3.38779">
        <ele>354.5</ele>
        <time>2016-02-14T13:10:30Z</time>
      </trkpt>
      <trkpt lat="43.58241" lon="3.38775">
        <ele>354.5</ele>
        <time>2016-02-14T13:10:31Z</time>
      </trkpt>
      <trkpt lat="43.58242" lon="3.38772">
        <ele>354.5</ele>
        <time>2016-02-14T13:10:32Z</time>
      </trkpt>
      <trkpt lat="43.58243" lon="3.38768">
        <ele>354.5</ele>
        <time>2016-02-14T13:10:33Z</time>
      </trkpt>
      <trkpt lat="43.58243" lon="3.38765">
        <ele>355</ele>
        <time>2016-02-14T13:10:34Z</time>
      </trkpt>
      <trkpt lat="43.58244" lon="3.38762">
        <ele>355</ele>
        <time>2016-02-14T13:10:35Z</time>
      </trkpt>
      <trkpt lat="43.58245" lon="3.38758">
        <ele>355</ele>
        <time>2016-02-14T13:10:36Z</time>
      </trkpt>
      <trkpt lat="43.58246" lon="3.38754">
        <ele>353.5</ele>
        <time>2016-02-14T13:10:37Z</time>
      </trkpt>
      <trkpt lat="43.58246" lon="3.38751">
        <ele>354</ele>
        <time>2016-02-14T13:10:38Z</time>
      </trkpt>
      <trkpt lat="43.58246" lon="3.38748">
        <ele>353.5</ele>
        <time>2016-02-14T13:10:39Z</time>
      </trkpt>
      <trkpt lat="43.58246" lon="3.38744">
        <ele>353.5</ele>
        <time>2016-02-14T13:10:40Z</time>
      </trkpt>
      <trkpt lat="43.58246" lon="3.38741">
        <ele>354</ele>
        <time>2016-02-14T13:10:41Z</time>
      </trkpt>
      <trkpt lat="43.58246" lon="3.38737">
        <ele>354</ele>
        <time>2016-02-14T13:10:42Z</time>
      </trkpt>
      <trkpt lat="43.58245" lon="3.38731">
        <ele>354</ele>
        <time>2016-02-14T13:10:44Z</time>
      </trkpt>
      <trkpt lat="43.58245" lon="3.38728">
        <ele>354.5</ele>
        <time>2016-02-14T13:10:45Z</time>
      </trkpt>
      <trkpt lat="43.58245" lon="3.38725">
        <ele>354.5</ele>
        <time>2016-02-14T13:10:46Z</time>
      </trkpt>
      <trkpt lat="43.58243" lon="3.38721">
        <ele>354</ele>
        <time>2016-02-14T13:10:47Z</time>
      </trkpt>
      <trkpt lat="43.58242" lon="3.38718">
        <ele>354</ele>
        <time>2016-02-14T13:10:48Z</time>
      </trkpt>
      <trkpt lat="43.58241" lon="3.38716">
        <ele>354</ele>
        <time>2016-02-14T13:10:49Z</time>
      </trkpt>
      <trkpt lat="43.5824" lon="3.38713">
        <ele>354</ele>
        <time>2016-02-14T13:10:50Z</time>
      </trkpt>
      <trkpt lat="43.58239" lon="3.3871">
        <ele>354.5</ele>
        <time>2016-02-14T13:10:51Z</time>
      </trkpt>
      <trkpt lat="43.58238" lon="3.38708">
        <ele>355</ele>
        <time>2016-02-14T13:10:52Z</time>
      </trkpt>
      <trkpt lat="43.58237" lon="3.38705">
        <ele>355</ele>
        <time>2016-02-14T13:10:53Z</time>
      </trkpt>
      <trkpt lat="43.58236" lon="3.38702">
        <ele>355</ele>
        <time>2016-02-14T13:10:54Z</time>
      </trkpt>
      <trkpt lat="43.58235" lon="3.387">
        <ele>355</ele>
        <time>2016-02-14T13:10:55Z</time>
      </trkpt>
      <trkpt lat="43.58234" lon="3.38698">
        <ele>355.5</ele>
        <time>2016-02-14T13:10:56Z</time>
      </trkpt>
      <trkpt lat="43.58232" lon="3.38696">
        <ele>355.5</ele>
        <time>2016-02-14T13:10:57Z</time>
      </trkpt>
      <trkpt lat="43.58231" lon="3.38693">
        <ele>355.5</ele>
        <time>2016-02-14T13:10:58Z</time>
      </trkpt>
      <trkpt lat="43.58229" lon="3.3869">
        <ele>355</ele>
        <time>2016-02-14T13:10:59Z</time>
      </trkpt>
      <trkpt lat="43.58222" lon="3.38683">
        <ele>354.5</ele>
        <time>2016-02-14T13:11:01Z</time>
      </trkpt>
      <trkpt lat="43.58218" lon="3.38679">
        <ele>354.5</ele>
        <time>2016-02-14T13:11:02Z</time>
      </trkpt>
      <trkpt lat="43.58214" lon="3.38675">
        <ele>354</ele>
        <time>2016-02-14T13:11:03Z</time>
      </trkpt>
      <trkpt lat="43.58209" lon="3.38672">
        <ele>354</ele>
        <time>2016-02-14T13:11:04Z</time>
      </trkpt>
      <trkpt lat="43.58204" lon="3.38668">
        <ele>354</ele>
        <time>2016-02-14T13:11:05Z</time>
      </trkpt>
      <trkpt lat="43.58199" lon="3.38666">
        <ele>353.5</ele>
        <time>2016-02-14T13:11:06Z</time>
      </trkpt>
      <trkpt lat="43.58194" lon="3.38663">
        <ele>353.5</ele>
        <time>2016-02-14T13:11:07Z</time>
      </trkpt>
      <trkpt lat="43.58189" lon="3.3866">
        <ele>354.5</ele>
        <time>2016-02-14T13:11:08Z</time>
      </trkpt>
      <trkpt lat="43.58184" lon="3.38658">
        <ele>355</ele>
        <time>2016-02-14T13:11:09Z</time>
      </trkpt>
      <trkpt lat="43.58181" lon="3.38655">
        <ele>354</ele>
        <time>2016-02-14T13:11:10Z</time>
      </trkpt>
      <trkpt lat="43.58177" lon="3.38654">
        <ele>354</ele>
        <time>2016-02-14T13:11:11Z</time>
      </trkpt>
      <trkpt lat="43.58173" lon="3.38652">
        <ele>354.5</ele>
        <time>2016-02-14T13:11:12Z</time>
      </trkpt>
      <trkpt lat="43.5817" lon="3.38651">
        <ele>354.5</ele>
        <time>2016-02-14T13:11:13Z</time>
      </trkpt>
      <trkpt lat="43.58167" lon="3.3865">
        <ele>354.5</ele>
        <time>2016-02-14T13:11:14Z</time>
      </trkpt>
      <trkpt lat="43.58161" lon="3.38646">
        <ele>354.5</ele>
        <time>2016-02-14T13:11:16Z</time>
      </trkpt>
      <trkpt lat="43.58158" lon="3.38642">
        <ele>354</ele>
        <time>2016-02-14T13:11:17Z</time>
      </trkpt>
      <trkpt lat="43.58155" lon="3.38639">
        <ele>354</ele>
        <time>2016-02-14T13:11:18Z</time>
      </trkpt>
      <trkpt lat="43.58152" lon="3.38636">
        <ele>354</ele>
        <time>2016-02-14T13:11:19Z</time>
      </trkpt>
      <trkpt lat="43.58149" lon="3.38633">
        <ele>354</ele>
        <time>2016-02-14T13:11:20Z</time>
      </trkpt>
      <trkpt lat="43.58147" lon="3.38629">
        <ele>354.5</ele>
        <time>2016-02-14T13:11:21Z</time>
      </trkpt>
      <trkpt lat="43.58145" lon="3.38625">
        <ele>354</ele>
        <time>2016-02-14T13:11:22Z</time>
      </trkpt>
      <trkpt lat="43.58143" lon="3.3862">
        <ele>354</ele>
        <time>2016-02-14T13:11:23Z</time>
      </trkpt>
      <trkpt lat="43.58142" lon="3.38615">
        <ele>354</ele>
        <time>2016-02-14T13:11:24Z</time>
      </trkpt>
      <trkpt lat="43.5814" lon="3.38611">
        <ele>354</ele>
        <time>2016-02-14T13:11:25Z</time>
      </trkpt>
      <trkpt lat="43.58139" lon="3.38606">
        <ele>353.5</ele>
        <time>2016-02-14T13:11:26Z</time>
      </trkpt>
      <trkpt lat="43.58138" lon="3.38601">
        <ele>353.5</ele>
        <time>2016-02-14T13:11:27Z</time>
      </trkpt>
      <trkpt lat="43.58136" lon="3.38596">
        <ele>353</ele>
        <time>2016-02-14T13:11:28Z</time>
      </trkpt>
      <trkpt lat="43.58135" lon="3.38591">
        <ele>353</ele>
        <time>2016-02-14T13:11:29Z</time>
      </trkpt>
      <trkpt lat="43.58134" lon="3.38586">
        <ele>353</ele>
        <time>2016-02-14T13:11:30Z</time>
      </trkpt>
      <trkpt lat="43.58132" lon="3.3858">
        <ele>352.5</ele>
        <time>2016-02-14T13:11:31Z</time>
      </trkpt>
      <trkpt lat="43.58131" lon="3.38574">
        <ele>352.5</ele>
        <time>2016-02-14T13:11:32Z</time>
      </trkpt>
      <trkpt lat="43.5813" lon="3.38569">
        <ele>352.5</ele>
        <time>2016-02-14T13:11:33Z</time>
      </trkpt>
      <trkpt lat="43.58128" lon="3.38564">
        <ele>352.5</ele>
        <time>2016-02-14T13:11:34Z</time>
      </trkpt>
      <trkpt lat="43.58127" lon="3.3856">
        <ele>352.5</ele>
        <time>2016-02-14T13:11:35Z</time>
      </trkpt>
      <trkpt lat="43.58126" lon="3.38554">
        <ele>352.5</ele>
        <time>2016-02-14T13:11:36Z</time>
      </trkpt>
      <trkpt lat="43.58125" lon="3.38549">
        <ele>352</ele>
        <time>2016-02-14T13:11:36Z</time>
      </trkpt>
      <trkpt lat="43.58124" lon="3.38543">
        <ele>352.5</ele>
        <time>2016-02-14T13:11:38Z</time>
      </trkpt>
      <trkpt lat="43.58123" lon="3.38537">
        <ele>352.5</ele>
        <time>2016-02-14T13:11:39Z</time>
      </trkpt>
      <trkpt lat="43.58123" lon="3.38532">
        <ele>353</ele>
        <time>2016-02-14T13:11:40Z</time>
      </trkpt>
      <trkpt lat="43.58121" lon="3.38527">
        <ele>353.5</ele>
        <time>2016-02-14T13:11:40Z</time>
      </trkpt>
      <trkpt lat="43.5812" lon="3.38522">
        <ele>354</ele>
        <time>2016-02-14T13:11:42Z</time>
      </trkpt>
      <trkpt lat="43.58119" lon="3.38517">
        <ele>354.5</ele>
        <time>2016-02-14T13:11:43Z</time>
      </trkpt>
      <trkpt lat="43.58117" lon="3.38513">
        <ele>355.5</ele>
        <time>2016-02-14T13:11:43Z</time>
      </trkpt>
      <trkpt lat="43.58115" lon="3.3851">
        <ele>356</ele>
        <time>2016-02-14T13:11:44Z</time>
      </trkpt>
      <trkpt lat="43.58114" lon="3.38506">
        <ele>356</ele>
        <time>2016-02-14T13:11:46Z</time>
      </trkpt>
      <trkpt lat="43.58113" lon="3.38503">
        <ele>357</ele>
        <time>2016-02-14T13:11:46Z</time>
      </trkpt>
      <trkpt lat="43.58111" lon="3.385">
        <ele>357.5</ele>
        <time>2016-02-14T13:11:47Z</time>
      </trkpt>
      <trkpt lat="43.5811" lon="3.38497">
        <ele>358</ele>
        <time>2016-02-14T13:11:48Z</time>
      </trkpt>
      <trkpt lat="43.58109" lon="3.38495">
        <ele>358.5</ele>
        <time>2016-02-14T13:11:50Z</time>
      </trkpt>
      <trkpt lat="43.58108" lon="3.38492">
        <ele>359</ele>
        <time>2016-02-14T13:11:50Z</time>
      </trkpt>
      <trkpt lat="43.58107" lon="3.3849">
        <ele>359.5</ele>
        <time>2016-02-14T13:11:51Z</time>
      </trkpt>
      <trkpt lat="43.58105" lon="3.38487">
        <ele>359</ele>
        <time>2016-02-14T13:11:52Z</time>
      </trkpt>
      <trkpt lat="43.58104" lon="3.38485">
        <ele>359.5</ele>
        <time>2016-02-14T13:11:53Z</time>
      </trkpt>
      <trkpt lat="43.58104" lon="3.38482">
        <ele>360</ele>
        <time>2016-02-14T13:11:54Z</time>
      </trkpt>
      <trkpt lat="43.58102" lon="3.3848">
        <ele>360.5</ele>
        <time>2016-02-14T13:11:55Z</time>
      </trkpt>
      <trkpt lat="43.58102" lon="3.38477">
        <ele>361</ele>
        <time>2016-02-14T13:11:56Z</time>
      </trkpt>
      <trkpt lat="43.58101" lon="3.38474">
        <ele>361</ele>
        <time>2016-02-14T13:11:57Z</time>
      </trkpt>
      <trkpt lat="43.581" lon="3.38471">
        <ele>361.5</ele>
        <time>2016-02-14T13:11:58Z</time>
      </trkpt>
      <trkpt lat="43.581" lon="3.38469">
        <ele>362</ele>
        <time>2016-02-14T13:11:59Z</time>
      </trkpt>
      <trkpt lat="43.58099" lon="3.38467">
        <ele>362.5</ele>
        <time>2016-02-14T13:12:00Z</time>
      </trkpt>
      <trkpt lat="43.58098" lon="3.38464">
        <ele>363.5</ele>
        <time>2016-02-14T13:12:02Z</time>
      </trkpt>
      <trkpt lat="43.58097" lon="3.38462">
        <ele>363.5</ele>
        <time>2016-02-14T13:12:02Z</time>
      </trkpt>
      <trkpt lat="43.58096" lon="3.3846">
        <ele>364</ele>
        <time>2016-02-14T13:12:03Z</time>
      </trkpt>
      <trkpt lat="43.58095" lon="3.38457">
        <ele>364.5</ele>
        <time>2016-02-14T13:12:04Z</time>
      </trkpt>
      <trkpt lat="43.58094" lon="3.38454">
        <ele>364</ele>
        <time>2016-02-14T13:12:05Z</time>
      </trkpt>
      <trkpt lat="43.58092" lon="3.38452">
        <ele>364.5</ele>
        <time>2016-02-14T13:12:06Z</time>
      </trkpt>
      <trkpt lat="43.58091" lon="3.3845">
        <ele>365</ele>
        <time>2016-02-14T13:12:07Z</time>
      </trkpt>
      <trkpt lat="43.5809" lon="3.38447">
        <ele>365</ele>
        <time>2016-02-14T13:12:08Z</time>
      </trkpt>
      <trkpt lat="43.58089" lon="3.38445">
        <ele>365</ele>
        <time>2016-02-14T13:12:09Z</time>
      </trkpt>
      <trkpt lat="43.58088" lon="3.38443">
        <ele>365</ele>
        <time>2016-02-14T13:12:10Z</time>
      </trkpt>
      <trkpt lat="43.58087" lon="3.3844">
        <ele>364.5</ele>
        <time>2016-02-14T13:12:11Z</time>
      </trkpt>
      <trkpt lat="43.58085" lon="3.38438">
        <ele>365</ele>
        <time>2016-02-14T13:12:12Z</time>
      </trkpt>
      <trkpt lat="43.58084" lon="3.38436">
        <ele>364.5</ele>
        <time>2016-02-14T13:12:13Z</time>
      </trkpt>
      <trkpt lat="43.58083" lon="3.38434">
        <ele>365</ele>
        <time>2016-02-14T13:12:14Z</time>
      </trkpt>
      <trkpt lat="43.58082" lon="3.38432">
        <ele>365</ele>
        <time>2016-02-14T13:12:15Z</time>
      </trkpt>
      <trkpt lat="43.58079" lon="3.3843">
        <ele>365</ele>
        <time>2016-02-14T13:12:16Z</time>
      </trkpt>
      <trkpt lat="43.58078" lon="3.38428">
        <ele>365</ele>
        <time>2016-02-14T13:12:17Z</time>
      </trkpt>
      <trkpt lat="43.58077" lon="3.38426">
        <ele>365</ele>
        <time>2016-02-14T13:12:18Z</time>
      </trkpt>
      <trkpt lat="43.58076" lon="3.38423">
        <ele>365</ele>
        <time>2016-02-14T13:12:19Z</time>
      </trkpt>
      <trkpt lat="43.58075" lon="3.38421">
        <ele>365</ele>
        <time>2016-02-14T13:12:20Z</time>
      </trkpt>
      <trkpt lat="43.58074" lon="3.38418">
        <ele>364.5</ele>
        <time>2016-02-14T13:12:21Z</time>
      </trkpt>
      <trkpt lat="43.58073" lon="3.38415">
        <ele>364.5</ele>
        <time>2016-02-14T13:12:22Z</time>
      </trkpt>
      <trkpt lat="43.58071" lon="3.38413">
        <ele>364.5</ele>
        <time>2016-02-14T13:12:23Z</time>
      </trkpt>
      <trkpt lat="43.5807" lon="3.38411">
        <ele>364.5</ele>
        <time>2016-02-14T13:12:24Z</time>
      </trkpt>
      <trkpt lat="43.58069" lon="3.38409">
        <ele>365</ele>
        <time>2016-02-14T13:12:25Z</time>
      </trkpt>
      <trkpt lat="43.58067" lon="3.38406">
        <ele>365</ele>
        <time>2016-02-14T13:12:26Z</time>
      </trkpt>
      <trkpt lat="43.58066" lon="3.38404">
        <ele>365</ele>
        <time>2016-02-14T13:12:27Z</time>
      </trkpt>
      <trkpt lat="43.58065" lon="3.38402">
        <ele>365</ele>
        <time>2016-02-14T13:12:28Z</time>
      </trkpt>
      <trkpt lat="43.58064" lon="3.384">
        <ele>365</ele>
        <time>2016-02-14T13:12:29Z</time>
      </trkpt>
      <trkpt lat="43.58064" lon="3.38398">
        <ele>365</ele>
        <time>2016-02-14T13:12:30Z</time>
      </trkpt>
      <trkpt lat="43.58063" lon="3.38395">
        <ele>364.5</ele>
        <time>2016-02-14T13:12:31Z</time>
      </trkpt>
      <trkpt lat="43.58062" lon="3.38393">
        <ele>364.5</ele>
        <time>2016-02-14T13:12:32Z</time>
      </trkpt>
      <trkpt lat="43.5806" lon="3.3839">
        <ele>364.5</ele>
        <time>2016-02-14T13:12:33Z</time>
      </trkpt>
      <trkpt lat="43.58058" lon="3.38387">
        <ele>364</ele>
        <time>2016-02-14T13:12:34Z</time>
      </trkpt>
      <trkpt lat="43.58056" lon="3.38383">
        <ele>364</ele>
        <time>2016-02-14T13:12:35Z</time>
      </trkpt>
      <trkpt lat="43.58054" lon="3.38378">
        <ele>364</ele>
        <time>2016-02-14T13:12:36Z</time>
      </trkpt>
      <trkpt lat="43.58051" lon="3.38373">
        <ele>363.5</ele>
        <time>2016-02-14T13:12:37Z</time>
      </trkpt>
      <trkpt lat="43.58047" lon="3.38367">
        <ele>362.5</ele>
        <time>2016-02-14T13:12:38Z</time>
      </trkpt>
      <trkpt lat="43.58044" lon="3.3836">
        <ele>361.5</ele>
        <time>2016-02-14T13:12:39Z</time>
      </trkpt>
      <trkpt lat="43.58039" lon="3.38352">
        <ele>360</ele>
        <time>2016-02-14T13:12:40Z</time>
      </trkpt>
      <trkpt lat="43.58034" lon="3.38344">
        <ele>359</ele>
        <time>2016-02-14T13:12:41Z</time>
      </trkpt>
      <trkpt lat="43.58029" lon="3.38336">
        <ele>357.5</ele>
        <time>2016-02-14T13:12:42Z</time>
      </trkpt>
      <trkpt lat="43.58023" lon="3.38328">
        <ele>356</ele>
        <time>2016-02-14T13:12:43Z</time>
      </trkpt>
      <trkpt lat="43.58018" lon="3.38321">
        <ele>354</ele>
        <time>2016-02-14T13:12:44Z</time>
      </trkpt>
      <trkpt lat="43.58013" lon="3.38314">
        <ele>352.5</ele>
        <time>2016-02-14T13:12:45Z</time>
      </trkpt>
      <trkpt lat="43.58009" lon="3.38307">
        <ele>351.5</ele>
        <time>2016-02-14T13:12:46Z</time>
      </trkpt>
      <trkpt lat="43.58005" lon="3.383">
        <ele>350</ele>
        <time>2016-02-14T13:12:47Z</time>
      </trkpt>
      <trkpt lat="43.58001" lon="3.38295">
        <ele>349</ele>
        <time>2016-02-14T13:12:48Z</time>
      </trkpt>
      <trkpt lat="43.57998" lon="3.3829">
        <ele>348</ele>
        <time>2016-02-14T13:12:49Z</time>
      </trkpt>
      <trkpt lat="43.57996" lon="3.38286">
        <ele>347</ele>
        <time>2016-02-14T13:12:50Z</time>
      </trkpt>
      <trkpt lat="43.57994" lon="3.3828">
        <ele>345.5</ele>
        <time>2016-02-14T13:12:51Z</time>
      </trkpt>
      <trkpt lat="43.57992" lon="3.38273">
        <ele>344.5</ele>
        <time>2016-02-14T13:12:52Z</time>
      </trkpt>
      <trkpt lat="43.57991" lon="3.38267">
        <ele>345.5</ele>
        <time>2016-02-14T13:12:53Z</time>
      </trkpt>
      <trkpt lat="43.57991" lon="3.38261">
        <ele>345</ele>
        <time>2016-02-14T13:12:54Z</time>
      </trkpt>
      <trkpt lat="43.57989" lon="3.38255">
        <ele>344.5</ele>
        <time>2016-02-14T13:12:55Z</time>
      </trkpt>
      <trkpt lat="43.57987" lon="3.38249">
        <ele>344.5</ele>
        <time>2016-02-14T13:12:56Z</time>
      </trkpt>
      <trkpt lat="43.57985" lon="3.38242">
        <ele>344</ele>
        <time>2016-02-14T13:12:57Z</time>
      </trkpt>
      <trkpt lat="43.57982" lon="3.38235">
        <ele>343.5</ele>
        <time>2016-02-14T13:12:58Z</time>
      </trkpt>
      <trkpt lat="43.5798" lon="3.38227">
        <ele>342.5</ele>
        <time>2016-02-14T13:12:59Z</time>
      </trkpt>
      <trkpt lat="43.57978" lon="3.3822">
        <ele>342</ele>
        <time>2016-02-14T13:13:00Z</time>
      </trkpt>
      <trkpt lat="43.57973" lon="3.38216">
        <ele>342</ele>
        <time>2016-02-14T13:13:01Z</time>
      </trkpt>
      <trkpt lat="43.57968" lon="3.38216">
        <ele>342</ele>
        <time>2016-02-14T13:13:02Z</time>
      </trkpt>
      <trkpt lat="43.57961" lon="3.38219">
        <ele>341</ele>
        <time>2016-02-14T13:13:04Z</time>
      </trkpt>
      <trkpt lat="43.57958" lon="3.3822">
        <ele>340.5</ele>
        <time>2016-02-14T13:13:05Z</time>
      </trkpt>
      <trkpt lat="43.57956" lon="3.38217">
        <ele>340</ele>
        <time>2016-02-14T13:13:06Z</time>
      </trkpt>
      <trkpt lat="43.57953" lon="3.38214">
        <ele>339</ele>
        <time>2016-02-14T13:13:07Z</time>
      </trkpt>
      <trkpt lat="43.57943" lon="3.3821">
        <ele>338.5</ele>
        <time>2016-02-14T13:13:09Z</time>
      </trkpt>
      <trkpt lat="43.57938" lon="3.3821">
        <ele>337.5</ele>
        <time>2016-02-14T13:13:10Z</time>
      </trkpt>
      <trkpt lat="43.57933" lon="3.38209">
        <ele>337</ele>
        <time>2016-02-14T13:13:11Z</time>
      </trkpt>
      <trkpt lat="43.57928" lon="3.38206">
        <ele>337.5</ele>
        <time>2016-02-14T13:13:12Z</time>
      </trkpt>
      <trkpt lat="43.57923" lon="3.38202">
        <ele>337</ele>
        <time>2016-02-14T13:13:13Z</time>
      </trkpt>
      <trkpt lat="43.57918" lon="3.38197">
        <ele>336</ele>
        <time>2016-02-14T13:13:14Z</time>
      </trkpt>
      <trkpt lat="43.57912" lon="3.38195">
        <ele>335.5</ele>
        <time>2016-02-14T13:13:15Z</time>
      </trkpt>
      <trkpt lat="43.57907" lon="3.38191">
        <ele>335</ele>
        <time>2016-02-14T13:13:16Z</time>
      </trkpt>
      <trkpt lat="43.57902" lon="3.38188">
        <ele>335</ele>
        <time>2016-02-14T13:13:17Z</time>
      </trkpt>
      <trkpt lat="43.57897" lon="3.38183">
        <ele>334.5</ele>
        <time>2016-02-14T13:13:18Z</time>
      </trkpt>
      <trkpt lat="43.57894" lon="3.38175">
        <ele>334</ele>
        <time>2016-02-14T13:13:19Z</time>
      </trkpt>
      <trkpt lat="43.57891" lon="3.38169">
        <ele>333.5</ele>
        <time>2016-02-14T13:13:20Z</time>
      </trkpt>
      <trkpt lat="43.57889" lon="3.38162">
        <ele>333.5</ele>
        <time>2016-02-14T13:13:21Z</time>
      </trkpt>
      <trkpt lat="43.57887" lon="3.38156">
        <ele>333</ele>
        <time>2016-02-14T13:13:22Z</time>
      </trkpt>
      <trkpt lat="43.57884" lon="3.3815">
        <ele>333</ele>
        <time>2016-02-14T13:13:23Z</time>
      </trkpt>
      <trkpt lat="43.57882" lon="3.38144">
        <ele>333</ele>
        <time>2016-02-14T13:13:24Z</time>
      </trkpt>
      <trkpt lat="43.57881" lon="3.38139">
        <ele>332.5</ele>
        <time>2016-02-14T13:13:25Z</time>
      </trkpt>
      <trkpt lat="43.57879" lon="3.38133">
        <ele>332</ele>
        <time>2016-02-14T13:13:26Z</time>
      </trkpt>
      <trkpt lat="43.57878" lon="3.38128">
        <ele>332</ele>
        <time>2016-02-14T13:13:27Z</time>
      </trkpt>
      <trkpt lat="43.57876" lon="3.38123">
        <ele>331.5</ele>
        <time>2016-02-14T13:13:28Z</time>
      </trkpt>
      <trkpt lat="43.57875" lon="3.38119">
        <ele>331.5</ele>
        <time>2016-02-14T13:13:29Z</time>
      </trkpt>
      <trkpt lat="43.57874" lon="3.38114">
        <ele>332</ele>
        <time>2016-02-14T13:13:30Z</time>
      </trkpt>
      <trkpt lat="43.57873" lon="3.3811">
        <ele>332</ele>
        <time>2016-02-14T13:13:31Z</time>
      </trkpt>
      <trkpt lat="43.57872" lon="3.38105">
        <ele>332.5</ele>
        <time>2016-02-14T13:13:32Z</time>
      </trkpt>
      <trkpt lat="43.57871" lon="3.381">
        <ele>332</ele>
        <time>2016-02-14T13:13:33Z</time>
      </trkpt>
      <trkpt lat="43.5787" lon="3.38094">
        <ele>331.5</ele>
        <time>2016-02-14T13:13:34Z</time>
      </trkpt>
      <trkpt lat="43.57868" lon="3.38087">
        <ele>331</ele>
        <time>2016-02-14T13:13:35Z</time>
      </trkpt>
      <trkpt lat="43.57867" lon="3.38081">
        <ele>331</ele>
        <time>2016-02-14T13:13:36Z</time>
      </trkpt>
      <trkpt lat="43.57865" lon="3.38074">
        <ele>330.5</ele>
        <time>2016-02-14T13:13:37Z</time>
      </trkpt>
      <trkpt lat="43.57864" lon="3.38066">
        <ele>330.5</ele>
        <time>2016-02-14T13:13:38Z</time>
      </trkpt>
      <trkpt lat="43.57863" lon="3.38059">
        <ele>330.5</ele>
        <time>2016-02-14T13:13:39Z</time>
      </trkpt>
      <trkpt lat="43.57862" lon="3.38052">
        <ele>330.5</ele>
        <time>2016-02-14T13:13:40Z</time>
      </trkpt>
      <trkpt lat="43.5786" lon="3.38045">
        <ele>331</ele>
        <time>2016-02-14T13:13:41Z</time>
      </trkpt>
      <trkpt lat="43.57857" lon="3.3804">
        <ele>330.5</ele>
        <time>2016-02-14T13:13:42Z</time>
      </trkpt>
      <trkpt lat="43.57853" lon="3.38034">
        <ele>331</ele>
        <time>2016-02-14T13:13:43Z</time>
      </trkpt>
      <trkpt lat="43.57847" lon="3.38032">
        <ele>330.5</ele>
        <time>2016-02-14T13:13:44Z</time>
      </trkpt>
      <trkpt lat="43.57842" lon="3.38028">
        <ele>330</ele>
        <time>2016-02-14T13:13:45Z</time>
      </trkpt>
      <trkpt lat="43.57837" lon="3.38026">
        <ele>329.5</ele>
        <time>2016-02-14T13:13:46Z</time>
      </trkpt>
      <trkpt lat="43.57832" lon="3.38024">
        <ele>328</ele>
        <time>2016-02-14T13:13:47Z</time>
      </trkpt>
      <trkpt lat="43.57826" lon="3.38026">
        <ele>328.5</ele>
        <time>2016-02-14T13:13:48Z</time>
      </trkpt>
      <trkpt lat="43.57821" lon="3.38028">
        <ele>328</ele>
        <time>2016-02-14T13:13:49Z</time>
      </trkpt>
      <trkpt lat="43.57818" lon="3.38029">
        <ele>328</ele>
        <time>2016-02-14T13:13:50Z</time>
      </trkpt>
      <trkpt lat="43.57814" lon="3.38031">
        <ele>327</ele>
        <time>2016-02-14T13:13:51Z</time>
      </trkpt>
      <trkpt lat="43.5781" lon="3.38031">
        <ele>325</ele>
        <time>2016-02-14T13:13:53Z</time>
      </trkpt>
      <trkpt lat="43.57808" lon="3.38031">
        <ele>324</ele>
        <time>2016-02-14T13:13:54Z</time>
      </trkpt>
      <trkpt lat="43.57806" lon="3.38031">
        <ele>322.5</ele>
        <time>2016-02-14T13:13:55Z</time>
      </trkpt>
      <trkpt lat="43.57804" lon="3.38032">
        <ele>322</ele>
        <time>2016-02-14T13:13:56Z</time>
      </trkpt>
      <trkpt lat="43.57801" lon="3.38033">
        <ele>321.5</ele>
        <time>2016-02-14T13:13:57Z</time>
      </trkpt>
      <trkpt lat="43.57799" lon="3.38034">
        <ele>321</ele>
        <time>2016-02-14T13:13:58Z</time>
      </trkpt>
      <trkpt lat="43.57797" lon="3.38035">
        <ele>320</ele>
        <time>2016-02-14T13:13:59Z</time>
      </trkpt>
      <trkpt lat="43.57794" lon="3.38036">
        <ele>320</ele>
        <time>2016-02-14T13:14:00Z</time>
      </trkpt>
      <trkpt lat="43.57793" lon="3.38037">
        <ele>319.5</ele>
        <time>2016-02-14T13:14:01Z</time>
      </trkpt>
      <trkpt lat="43.5779" lon="3.38037">
        <ele>318.5</ele>
        <time>2016-02-14T13:14:02Z</time>
      </trkpt>
      <trkpt lat="43.57787" lon="3.38039">
        <ele>318.5</ele>
        <time>2016-02-14T13:14:03Z</time>
      </trkpt>
      <trkpt lat="43.57784" lon="3.3804">
        <ele>318</ele>
        <time>2016-02-14T13:14:04Z</time>
      </trkpt>
      <trkpt lat="43.57781" lon="3.38041">
        <ele>317.5</ele>
        <time>2016-02-14T13:14:05Z</time>
      </trkpt>
      <trkpt lat="43.57777" lon="3.38042">
        <ele>317</ele>
        <time>2016-02-14T13:14:06Z</time>
      </trkpt>
      <trkpt lat="43.57773" lon="3.38044">
        <ele>317</ele>
        <time>2016-02-14T13:14:07Z</time>
      </trkpt>
      <trkpt lat="43.57767" lon="3.38045">
        <ele>317</ele>
        <time>2016-02-14T13:14:08Z</time>
      </trkpt>
      <trkpt lat="43.57761" lon="3.38048">
        <ele>316.5</ele>
        <time>2016-02-14T13:14:09Z</time>
      </trkpt>
      <trkpt lat="43.57755" lon="3.38049">
        <ele>316.5</ele>
        <time>2016-02-14T13:14:10Z</time>
      </trkpt>
      <trkpt lat="43.57748" lon="3.3805">
        <ele>316.5</ele>
        <time>2016-02-14T13:14:11Z</time>
      </trkpt>
      <trkpt lat="43.57741" lon="3.38049">
        <ele>315.5</ele>
        <time>2016-02-14T13:14:12Z</time>
      </trkpt>
      <trkpt lat="43.57734" lon="3.38048">
        <ele>315.5</ele>
        <time>2016-02-14T13:14:13Z</time>
      </trkpt>
      <trkpt lat="43.57729" lon="3.38044">
        <ele>315.5</ele>
        <time>2016-02-14T13:14:14Z</time>
      </trkpt>
      <trkpt lat="43.57724" lon="3.3804">
        <ele>315</ele>
        <time>2016-02-14T13:14:15Z</time>
      </trkpt>
      <trkpt lat="43.5772" lon="3.38034">
        <ele>313.5</ele>
        <time>2016-02-14T13:14:16Z</time>
      </trkpt>
      <trkpt lat="43.57715" lon="3.38029">
        <ele>313.5</ele>
        <time>2016-02-14T13:14:17Z</time>
      </trkpt>
      <trkpt lat="43.57712" lon="3.38026">
        <ele>314</ele>
        <time>2016-02-14T13:14:18Z</time>
      </trkpt>
      <trkpt lat="43.57709" lon="3.38022">
        <ele>314</ele>
        <time>2016-02-14T13:14:19Z</time>
      </trkpt>
      <trkpt lat="43.57705" lon="3.38019">
        <ele>314</ele>
        <time>2016-02-14T13:14:20Z</time>
      </trkpt>
      <trkpt lat="43.57702" lon="3.38016">
        <ele>314</ele>
        <time>2016-02-14T13:14:21Z</time>
      </trkpt>
      <trkpt lat="43.57698" lon="3.38012">
        <ele>314</ele>
        <time>2016-02-14T13:14:22Z</time>
      </trkpt>
      <trkpt lat="43.57694" lon="3.38009">
        <ele>313.5</ele>
        <time>2016-02-14T13:14:23Z</time>
      </trkpt>
      <trkpt lat="43.57691" lon="3.38006">
        <ele>313</ele>
        <time>2016-02-14T13:14:24Z</time>
      </trkpt>
      <trkpt lat="43.57688" lon="3.38004">
        <ele>314</ele>
        <time>2016-02-14T13:14:25Z</time>
      </trkpt>
      <trkpt lat="43.57685" lon="3.38003">
        <ele>314</ele>
        <time>2016-02-14T13:14:26Z</time>
      </trkpt>
      <trkpt lat="43.57683" lon="3.38001">
        <ele>314</ele>
        <time>2016-02-14T13:14:27Z</time>
      </trkpt>
      <trkpt lat="43.57681" lon="3.37999">
        <ele>314</ele>
        <time>2016-02-14T13:14:28Z</time>
      </trkpt>
      <trkpt lat="43.57678" lon="3.37999">
        <ele>313.5</ele>
        <time>2016-02-14T13:14:29Z</time>
      </trkpt>
      <trkpt lat="43.57676" lon="3.37999">
        <ele>313.5</ele>
        <time>2016-02-14T13:14:30Z</time>
      </trkpt>
      <trkpt lat="43.57674" lon="3.37998">
        <ele>313</ele>
        <time>2016-02-14T13:14:31Z</time>
      </trkpt>
      <trkpt lat="43.57672" lon="3.37997">
        <ele>313</ele>
        <time>2016-02-14T13:14:32Z</time>
      </trkpt>
      <trkpt lat="43.5767" lon="3.37996">
        <ele>313</ele>
        <time>2016-02-14T13:14:33Z</time>
      </trkpt>
      <trkpt lat="43.57667" lon="3.37994">
        <ele>313.5</ele>
        <time>2016-02-14T13:14:34Z</time>
      </trkpt>
      <trkpt lat="43.57664" lon="3.37993">
        <ele>313</ele>
        <time>2016-02-14T13:14:35Z</time>
      </trkpt>
      <trkpt lat="43.57661" lon="3.37991">
        <ele>313.5</ele>
        <time>2016-02-14T13:14:36Z</time>
      </trkpt>
      <trkpt lat="43.57658" lon="3.3799">
        <ele>314</ele>
        <time>2016-02-14T13:14:37Z</time>
      </trkpt>
      <trkpt lat="43.57652" lon="3.37987">
        <ele>314</ele>
        <time>2016-02-14T13:14:39Z</time>
      </trkpt>
      <trkpt lat="43.5765" lon="3.37985">
        <ele>313</ele>
        <time>2016-02-14T13:14:40Z</time>
      </trkpt>
      <trkpt lat="43.57647" lon="3.3798">
        <ele>311</ele>
        <time>2016-02-14T13:14:41Z</time>
      </trkpt>
      <trkpt lat="43.57644" lon="3.3798">
        <ele>312.5</ele>
        <time>2016-02-14T13:14:42Z</time>
      </trkpt>
      <trkpt lat="43.57641" lon="3.37979">
        <ele>313</ele>
        <time>2016-02-14T13:14:43Z</time>
      </trkpt>
      <trkpt lat="43.57639" lon="3.37978">
        <ele>313</ele>
        <time>2016-02-14T13:14:44Z</time>
      </trkpt>
      <trkpt lat="43.57637" lon="3.37977">
        <ele>313</ele>
        <time>2016-02-14T13:14:45Z</time>
      </trkpt>
      <trkpt lat="43.57634" lon="3.37976">
        <ele>313.5</ele>
        <time>2016-02-14T13:14:46Z</time>
      </trkpt>
      <trkpt lat="43.57632" lon="3.37974">
        <ele>313.5</ele>
        <time>2016-02-14T13:14:47Z</time>
      </trkpt>
      <trkpt lat="43.5763" lon="3.37973">
        <ele>314.5</ele>
        <time>2016-02-14T13:14:48Z</time>
      </trkpt>
      <trkpt lat="43.57628" lon="3.37972">
        <ele>314.5</ele>
        <time>2016-02-14T13:14:49Z</time>
      </trkpt>
      <trkpt lat="43.57626" lon="3.37971">
        <ele>314</ele>
        <time>2016-02-14T13:14:50Z</time>
      </trkpt>
      <trkpt lat="43.57624" lon="3.3797">
        <ele>314</ele>
        <time>2016-02-14T13:14:51Z</time>
      </trkpt>
      <trkpt lat="43.57622" lon="3.37968">
        <ele>313.5</ele>
        <time>2016-02-14T13:14:52Z</time>
      </trkpt>
      <trkpt lat="43.57619" lon="3.37967">
        <ele>313</ele>
        <time>2016-02-14T13:14:53Z</time>
      </trkpt>
      <trkpt lat="43.57616" lon="3.37966">
        <ele>313</ele>
        <time>2016-02-14T13:14:54Z</time>
      </trkpt>
      <trkpt lat="43.57613" lon="3.37966">
        <ele>312.5</ele>
        <time>2016-02-14T13:14:55Z</time>
      </trkpt>
      <trkpt lat="43.5761" lon="3.37964">
        <ele>312.5</ele>
        <time>2016-02-14T13:14:56Z</time>
      </trkpt>
      <trkpt lat="43.57606" lon="3.37964">
        <ele>313</ele>
        <time>2016-02-14T13:14:57Z</time>
      </trkpt>
      <trkpt lat="43.57604" lon="3.37962">
        <ele>313</ele>
        <time>2016-02-14T13:14:58Z</time>
      </trkpt>
      <trkpt lat="43.57599" lon="3.3796">
        <ele>313</ele>
        <time>2016-02-14T13:15:00Z</time>
      </trkpt>
      <trkpt lat="43.57597" lon="3.37958">
        <ele>313</ele>
        <time>2016-02-14T13:15:01Z</time>
      </trkpt>
      <trkpt lat="43.57595" lon="3.37957">
        <ele>313</ele>
        <time>2016-02-14T13:15:02Z</time>
      </trkpt>
      <trkpt lat="43.57593" lon="3.37956">
        <ele>313.5</ele>
        <time>2016-02-14T13:15:03Z</time>
      </trkpt>
      <trkpt lat="43.57591" lon="3.37954">
        <ele>313.5</ele>
        <time>2016-02-14T13:15:04Z</time>
      </trkpt>
      <trkpt lat="43.57589" lon="3.37953">
        <ele>314</ele>
        <time>2016-02-14T13:15:05Z</time>
      </trkpt>
      <trkpt lat="43.57587" lon="3.37951">
        <ele>314.5</ele>
        <time>2016-02-14T13:15:05Z</time>
      </trkpt>
      <trkpt lat="43.57585" lon="3.37949">
        <ele>314.5</ele>
        <time>2016-02-14T13:15:06Z</time>
      </trkpt>
      <trkpt lat="43.57583" lon="3.37945">
        <ele>313.5</ele>
        <time>2016-02-14T13:15:07Z</time>
      </trkpt>
      <trkpt lat="43.57581" lon="3.37943">
        <ele>313.5</ele>
        <time>2016-02-14T13:15:08Z</time>
      </trkpt>
      <trkpt lat="43.57578" lon="3.37941">
        <ele>313.5</ele>
        <time>2016-02-14T13:15:09Z</time>
      </trkpt>
      <trkpt lat="43.57576" lon="3.3794">
        <ele>314</ele>
        <time>2016-02-14T13:15:10Z</time>
      </trkpt>
      <trkpt lat="43.57573" lon="3.37939">
        <ele>314</ele>
        <time>2016-02-14T13:15:11Z</time>
      </trkpt>
      <trkpt lat="43.57571" lon="3.3794">
        <ele>315.5</ele>
        <time>2016-02-14T13:15:12Z</time>
      </trkpt>
      <trkpt lat="43.57568" lon="3.37939">
        <ele>316.5</ele>
        <time>2016-02-14T13:15:13Z</time>
      </trkpt>
      <trkpt lat="43.57566" lon="3.37938">
        <ele>317</ele>
        <time>2016-02-14T13:15:14Z</time>
      </trkpt>
      <trkpt lat="43.57563" lon="3.37937">
        <ele>316.5</ele>
        <time>2016-02-14T13:15:15Z</time>
      </trkpt>
      <trkpt lat="43.5756" lon="3.37933">
        <ele>315</ele>
        <time>2016-02-14T13:15:16Z</time>
      </trkpt>
      <trkpt lat="43.57557" lon="3.37931">
        <ele>314.5</ele>
        <time>2016-02-14T13:15:17Z</time>
      </trkpt>
      <trkpt lat="43.57554" lon="3.3793">
        <ele>314</ele>
        <time>2016-02-14T13:15:18Z</time>
      </trkpt>
      <trkpt lat="43.57552" lon="3.37928">
        <ele>314</ele>
        <time>2016-02-14T13:15:19Z</time>
      </trkpt>
      <trkpt lat="43.57549" lon="3.37927">
        <ele>314</ele>
        <time>2016-02-14T13:15:21Z</time>
      </trkpt>
      <trkpt lat="43.57544" lon="3.37926">
        <ele>314</ele>
        <time>2016-02-14T13:15:22Z</time>
      </trkpt>
      <trkpt lat="43.57541" lon="3.37925">
        <ele>314</ele>
        <time>2016-02-14T13:15:23Z</time>
      </trkpt>
      <trkpt lat="43.57538" lon="3.37923">
        <ele>314</ele>
        <time>2016-02-14T13:15:24Z</time>
      </trkpt>
      <trkpt lat="43.57535" lon="3.37922">
        <ele>314</ele>
        <time>2016-02-14T13:15:26Z</time>
      </trkpt>
      <trkpt lat="43.57528" lon="3.37919">
        <ele>312.5</ele>
        <time>2016-02-14T13:15:27Z</time>
      </trkpt>
      <trkpt lat="43.57524" lon="3.37916">
        <ele>311</ele>
        <time>2016-02-14T13:15:28Z</time>
      </trkpt>
      <trkpt lat="43.57519" lon="3.37913">
        <ele>310</ele>
        <time>2016-02-14T13:15:29Z</time>
      </trkpt>
      <trkpt lat="43.57513" lon="3.3791">
        <ele>309</ele>
        <time>2016-02-14T13:15:30Z</time>
      </trkpt>
      <trkpt lat="43.575" lon="3.37899">
        <ele>309</ele>
        <time>2016-02-14T13:15:32Z</time>
      </trkpt>
      <trkpt lat="43.57496" lon="3.37894">
        <ele>309</ele>
        <time>2016-02-14T13:15:33Z</time>
      </trkpt>
      <trkpt lat="43.57493" lon="3.37889">
        <ele>309</ele>
        <time>2016-02-14T13:15:34Z</time>
      </trkpt>
      <trkpt lat="43.5749" lon="3.37885">
        <ele>309</ele>
        <time>2016-02-14T13:15:35Z</time>
      </trkpt>
      <trkpt lat="43.57487" lon="3.37881">
        <ele>309.5</ele>
        <time>2016-02-14T13:15:36Z</time>
      </trkpt>
      <trkpt lat="43.57486" lon="3.37877">
        <ele>310</ele>
        <time>2016-02-14T13:15:38Z</time>
      </trkpt>
      <trkpt lat="43.57484" lon="3.37875">
        <ele>311</ele>
        <time>2016-02-14T13:15:38Z</time>
      </trkpt>
      <trkpt lat="43.57481" lon="3.37872">
        <ele>311.5</ele>
        <time>2016-02-14T13:15:39Z</time>
      </trkpt>
      <trkpt lat="43.57479" lon="3.37868">
        <ele>312</ele>
        <time>2016-02-14T13:15:40Z</time>
      </trkpt>
      <trkpt lat="43.57476" lon="3.37865">
        <ele>313</ele>
        <time>2016-02-14T13:15:41Z</time>
      </trkpt>
      <trkpt lat="43.57473" lon="3.37863">
        <ele>313.5</ele>
        <time>2016-02-14T13:15:42Z</time>
      </trkpt>
      <trkpt lat="43.57471" lon="3.37861">
        <ele>313.5</ele>
        <time>2016-02-14T13:15:43Z</time>
      </trkpt>
      <trkpt lat="43.57468" lon="3.37859">
        <ele>313.5</ele>
        <time>2016-02-14T13:15:44Z</time>
      </trkpt>
      <trkpt lat="43.57466" lon="3.37858">
        <ele>314</ele>
        <time>2016-02-14T13:15:45Z</time>
      </trkpt>
      <trkpt lat="43.57464" lon="3.37858">
        <ele>314.5</ele>
        <time>2016-02-14T13:15:46Z</time>
      </trkpt>
      <trkpt lat="43.57462" lon="3.37858">
        <ele>315</ele>
        <time>2016-02-14T13:15:47Z</time>
      </trkpt>
      <trkpt lat="43.57459" lon="3.37858">
        <ele>315.5</ele>
        <time>2016-02-14T13:15:48Z</time>
      </trkpt>
      <trkpt lat="43.57456" lon="3.37858">
        <ele>315.5</ele>
        <time>2016-02-14T13:15:49Z</time>
      </trkpt>
      <trkpt lat="43.57452" lon="3.37858">
        <ele>315</ele>
        <time>2016-02-14T13:15:50Z</time>
      </trkpt>
      <trkpt lat="43.57448" lon="3.37861">
        <ele>315.5</ele>
        <time>2016-02-14T13:15:51Z</time>
      </trkpt>
      <trkpt lat="43.57443" lon="3.37861">
        <ele>315.5</ele>
        <time>2016-02-14T13:15:52Z</time>
      </trkpt>
      <trkpt lat="43.57438" lon="3.37863">
        <ele>314.5</ele>
        <time>2016-02-14T13:15:53Z</time>
      </trkpt>
      <trkpt lat="43.57433" lon="3.37864">
        <ele>313</ele>
        <time>2016-02-14T13:15:54Z</time>
      </trkpt>
      <trkpt lat="43.57425" lon="3.37863">
        <ele>313.5</ele>
        <time>2016-02-14T13:15:55Z</time>
      </trkpt>
      <trkpt lat="43.57418" lon="3.37861">
        <ele>312.5</ele>
        <time>2016-02-14T13:15:56Z</time>
      </trkpt>
      <trkpt lat="43.57411" lon="3.37859">
        <ele>311.5</ele>
        <time>2016-02-14T13:15:57Z</time>
      </trkpt>
      <trkpt lat="43.57405" lon="3.37856">
        <ele>310</ele>
        <time>2016-02-14T13:15:58Z</time>
      </trkpt>
      <trkpt lat="43.574" lon="3.37853">
        <ele>309</ele>
        <time>2016-02-14T13:15:59Z</time>
      </trkpt>
      <trkpt lat="43.57396" lon="3.37848">
        <ele>307</ele>
        <time>2016-02-14T13:16:01Z</time>
      </trkpt>
      <trkpt lat="43.57394" lon="3.37847">
        <ele>307</ele>
        <time>2016-02-14T13:16:02Z</time>
      </trkpt>
      <trkpt lat="43.57393" lon="3.37845">
        <ele>307</ele>
        <time>2016-02-14T13:16:03Z</time>
      </trkpt>
      <trkpt lat="43.57393" lon="3.37843">
        <ele>307</ele>
        <time>2016-02-14T13:16:04Z</time>
      </trkpt>
      <trkpt lat="43.57392" lon="3.3784">
        <ele>306.5</ele>
        <time>2016-02-14T13:16:05Z</time>
      </trkpt>
      <trkpt lat="43.57393" lon="3.37837">
        <ele>306.5</ele>
        <time>2016-02-14T13:16:06Z</time>
      </trkpt>
      <trkpt lat="43.57395" lon="3.37834">
        <ele>307.5</ele>
        <time>2016-02-14T13:16:07Z</time>
      </trkpt>
      <trkpt lat="43.57398" lon="3.37832">
        <ele>308</ele>
        <time>2016-02-14T13:16:08Z</time>
      </trkpt>
      <trkpt lat="43.57401" lon="3.3783">
        <ele>308.5</ele>
        <time>2016-02-14T13:16:09Z</time>
      </trkpt>
      <trkpt lat="43.57404" lon="3.37828">
        <ele>309</ele>
        <time>2016-02-14T13:16:10Z</time>
      </trkpt>
      <trkpt lat="43.57407" lon="3.37827">
        <ele>309.5</ele>
        <time>2016-02-14T13:16:11Z</time>
      </trkpt>
      <trkpt lat="43.5741" lon="3.37825">
        <ele>309.5</ele>
        <time>2016-02-14T13:16:12Z</time>
      </trkpt>
      <trkpt lat="43.57412" lon="3.37823">
        <ele>309.5</ele>
        <time>2016-02-14T13:16:13Z</time>
      </trkpt>
      <trkpt lat="43.57415" lon="3.37821">
        <ele>309.5</ele>
        <time>2016-02-14T13:16:14Z</time>
      </trkpt>
      <trkpt lat="43.57419" lon="3.37819">
        <ele>309</ele>
        <time>2016-02-14T13:16:15Z</time>
      </trkpt>
      <trkpt lat="43.57421" lon="3.37816">
        <ele>308.5</ele>
        <time>2016-02-14T13:16:16Z</time>
      </trkpt>
      <trkpt lat="43.57424" lon="3.37814">
        <ele>308</ele>
        <time>2016-02-14T13:16:17Z</time>
      </trkpt>
      <trkpt lat="43.57425" lon="3.37812">
        <ele>308</ele>
        <time>2016-02-14T13:16:18Z</time>
      </trkpt>
      <trkpt lat="43.57427" lon="3.37803">
        <ele>309</ele>
        <time>2016-02-14T13:16:21Z</time>
      </trkpt>
      <trkpt lat="43.57429" lon="3.37795">
        <ele>309.5</ele>
        <time>2016-02-14T13:16:22Z</time>
      </trkpt>
      <trkpt lat="43.57429" lon="3.3779">
        <ele>309.5</ele>
        <time>2016-02-14T13:16:23Z</time>
      </trkpt>
      <trkpt lat="43.57429" lon="3.37784">
        <ele>309</ele>
        <time>2016-02-14T13:16:24Z</time>
      </trkpt>
      <trkpt lat="43.57429" lon="3.37778">
        <ele>309</ele>
        <time>2016-02-14T13:16:25Z</time>
      </trkpt>
      <trkpt lat="43.57429" lon="3.37772">
        <ele>308</ele>
        <time>2016-02-14T13:16:26Z</time>
      </trkpt>
      <trkpt lat="43.57429" lon="3.37767">
        <ele>307.5</ele>
        <time>2016-02-14T13:16:27Z</time>
      </trkpt>
      <trkpt lat="43.57429" lon="3.37762">
        <ele>306.5</ele>
        <time>2016-02-14T13:16:28Z</time>
      </trkpt>
      <trkpt lat="43.57429" lon="3.37757">
        <ele>306</ele>
        <time>2016-02-14T13:16:29Z</time>
      </trkpt>
      <trkpt lat="43.57428" lon="3.37751">
        <ele>305</ele>
        <time>2016-02-14T13:16:30Z</time>
      </trkpt>
      <trkpt lat="43.57427" lon="3.37745">
        <ele>304.5</ele>
        <time>2016-02-14T13:16:31Z</time>
      </trkpt>
      <trkpt lat="43.57426" lon="3.37739">
        <ele>303.5</ele>
        <time>2016-02-14T13:16:32Z</time>
      </trkpt>
      <trkpt lat="43.57424" lon="3.37732">
        <ele>303.5</ele>
        <time>2016-02-14T13:16:33Z</time>
      </trkpt>
      <trkpt lat="43.57424" lon="3.37724">
        <ele>302</ele>
        <time>2016-02-14T13:16:34Z</time>
      </trkpt>
      <trkpt lat="43.57422" lon="3.37717">
        <ele>302</ele>
        <time>2016-02-14T13:16:35Z</time>
      </trkpt>
      <trkpt lat="43.5742" lon="3.37709">
        <ele>301</ele>
        <time>2016-02-14T13:16:36Z</time>
      </trkpt>
      <trkpt lat="43.57419" lon="3.37701">
        <ele>300</ele>
        <time>2016-02-14T13:16:37Z</time>
      </trkpt>
      <trkpt lat="43.57419" lon="3.37692">
        <ele>298.5</ele>
        <time>2016-02-14T13:16:38Z</time>
      </trkpt>
      <trkpt lat="43.57422" lon="3.37671">
        <ele>296</ele>
        <time>2016-02-14T13:16:40Z</time>
      </trkpt>
      <trkpt lat="43.57425" lon="3.37662">
        <ele>295.5</ele>
        <time>2016-02-14T13:16:41Z</time>
      </trkpt>
      <trkpt lat="43.57426" lon="3.37654">
        <ele>294.5</ele>
        <time>2016-02-14T13:16:42Z</time>
      </trkpt>
      <trkpt lat="43.57425" lon="3.37644">
        <ele>293.5</ele>
        <time>2016-02-14T13:16:44Z</time>
      </trkpt>
      <trkpt lat="43.57423" lon="3.37639">
        <ele>293</ele>
        <time>2016-02-14T13:16:45Z</time>
      </trkpt>
      <trkpt lat="43.5742" lon="3.37634">
        <ele>293</ele>
        <time>2016-02-14T13:16:46Z</time>
      </trkpt>
      <trkpt lat="43.57415" lon="3.37629">
        <ele>292.5</ele>
        <time>2016-02-14T13:16:47Z</time>
      </trkpt>
      <trkpt lat="43.57411" lon="3.37625">
        <ele>291.5</ele>
        <time>2016-02-14T13:16:48Z</time>
      </trkpt>
      <trkpt lat="43.57405" lon="3.37623">
        <ele>290.5</ele>
        <time>2016-02-14T13:16:49Z</time>
      </trkpt>
      <trkpt lat="43.57398" lon="3.37621">
        <ele>289</ele>
        <time>2016-02-14T13:16:50Z</time>
      </trkpt>
      <trkpt lat="43.57392" lon="3.37619">
        <ele>288</ele>
        <time>2016-02-14T13:16:51Z</time>
      </trkpt>
      <trkpt lat="43.57386" lon="3.37617">
        <ele>287</ele>
        <time>2016-02-14T13:16:52Z</time>
      </trkpt>
      <trkpt lat="43.57381" lon="3.37614">
        <ele>285</ele>
        <time>2016-02-14T13:16:53Z</time>
      </trkpt>
      <trkpt lat="43.57378" lon="3.37609">
        <ele>284.5</ele>
        <time>2016-02-14T13:16:54Z</time>
      </trkpt>
      <trkpt lat="43.57374" lon="3.37604">
        <ele>284</ele>
        <time>2016-02-14T13:16:55Z</time>
      </trkpt>
      <trkpt lat="43.57372" lon="3.376">
        <ele>284.5</ele>
        <time>2016-02-14T13:16:56Z</time>
      </trkpt>
      <trkpt lat="43.5737" lon="3.37596">
        <ele>284.5</ele>
        <time>2016-02-14T13:16:57Z</time>
      </trkpt>
      <trkpt lat="43.57368" lon="3.37593">
        <ele>284</ele>
        <time>2016-02-14T13:16:58Z</time>
      </trkpt>
      <trkpt lat="43.57367" lon="3.37589">
        <ele>283</ele>
        <time>2016-02-14T13:16:59Z</time>
      </trkpt>
      <trkpt lat="43.57367" lon="3.37585">
        <ele>283</ele>
        <time>2016-02-14T13:17:00Z</time>
      </trkpt>
      <trkpt lat="43.57367" lon="3.37581">
        <ele>282.5</ele>
        <time>2016-02-14T13:17:01Z</time>
      </trkpt>
      <trkpt lat="43.57368" lon="3.37576">
        <ele>282</ele>
        <time>2016-02-14T13:17:02Z</time>
      </trkpt>
      <trkpt lat="43.57369" lon="3.3757">
        <ele>281.5</ele>
        <time>2016-02-14T13:17:03Z</time>
      </trkpt>
      <trkpt lat="43.57371" lon="3.37565">
        <ele>281</ele>
        <time>2016-02-14T13:17:04Z</time>
      </trkpt>
      <trkpt lat="43.57373" lon="3.37558">
        <ele>280.5</ele>
        <time>2016-02-14T13:17:05Z</time>
      </trkpt>
      <trkpt lat="43.57377" lon="3.37551">
        <ele>279</ele>
        <time>2016-02-14T13:17:06Z</time>
      </trkpt>
      <trkpt lat="43.5738" lon="3.37543">
        <ele>278</ele>
        <time>2016-02-14T13:17:07Z</time>
      </trkpt>
      <trkpt lat="43.57384" lon="3.37535">
        <ele>276.5</ele>
        <time>2016-02-14T13:17:08Z</time>
      </trkpt>
      <trkpt lat="43.57387" lon="3.37525">
        <ele>274.5</ele>
        <time>2016-02-14T13:17:09Z</time>
      </trkpt>
      <trkpt lat="43.57391" lon="3.37514">
        <ele>272.5</ele>
        <time>2016-02-14T13:17:10Z</time>
      </trkpt>
      <trkpt lat="43.57394" lon="3.37501">
        <ele>272</ele>
        <time>2016-02-14T13:17:11Z</time>
      </trkpt>
      <trkpt lat="43.57397" lon="3.37487">
        <ele>272</ele>
        <time>2016-02-14T13:17:12Z</time>
      </trkpt>
      <trkpt lat="43.574" lon="3.37473">
        <ele>271.5</ele>
        <time>2016-02-14T13:17:13Z</time>
      </trkpt>
      <trkpt lat="43.57404" lon="3.3746">
        <ele>269.5</ele>
        <time>2016-02-14T13:17:14Z</time>
      </trkpt>
      <trkpt lat="43.57407" lon="3.37449">
        <ele>268.5</ele>
        <time>2016-02-14T13:17:15Z</time>
      </trkpt>
      <trkpt lat="43.57411" lon="3.37439">
        <ele>267</ele>
        <time>2016-02-14T13:17:16Z</time>
      </trkpt>
      <trkpt lat="43.57415" lon="3.3743">
        <ele>266</ele>
        <time>2016-02-14T13:17:17Z</time>
      </trkpt>
      <trkpt lat="43.57418" lon="3.3742">
        <ele>265</ele>
        <time>2016-02-14T13:17:18Z</time>
      </trkpt>
      <trkpt lat="43.57421" lon="3.3741">
        <ele>264.5</ele>
        <time>2016-02-14T13:17:19Z</time>
      </trkpt>
      <trkpt lat="43.57424" lon="3.37399">
        <ele>262.5</ele>
        <time>2016-02-14T13:17:20Z</time>
      </trkpt>
      <trkpt lat="43.57424" lon="3.37386">
        <ele>261.5</ele>
        <time>2016-02-14T13:17:21Z</time>
      </trkpt>
      <trkpt lat="43.57424" lon="3.37373">
        <ele>261.5</ele>
        <time>2016-02-14T13:17:22Z</time>
      </trkpt>
      <trkpt lat="43.57423" lon="3.37359">
        <ele>260</ele>
        <time>2016-02-14T13:17:23Z</time>
      </trkpt>
      <trkpt lat="43.57423" lon="3.37345">
        <ele>258</ele>
        <time>2016-02-14T13:17:24Z</time>
      </trkpt>
      <trkpt lat="43.57423" lon="3.37331">
        <ele>258.5</ele>
        <time>2016-02-14T13:17:25Z</time>
      </trkpt>
      <trkpt lat="43.57422" lon="3.37317">
        <ele>258</ele>
        <time>2016-02-14T13:17:26Z</time>
      </trkpt>
      <trkpt lat="43.57421" lon="3.37303">
        <ele>257</ele>
        <time>2016-02-14T13:17:27Z</time>
      </trkpt>
      <trkpt lat="43.5742" lon="3.37289">
        <ele>257</ele>
        <time>2016-02-14T13:17:28Z</time>
      </trkpt>
      <trkpt lat="43.57418" lon="3.37275">
        <ele>255.5</ele>
        <time>2016-02-14T13:17:29Z</time>
      </trkpt>
      <trkpt lat="43.57416" lon="3.37261">
        <ele>254</ele>
        <time>2016-02-14T13:17:30Z</time>
      </trkpt>
      <trkpt lat="43.57415" lon="3.37248">
        <ele>253</ele>
        <time>2016-02-14T13:17:31Z</time>
      </trkpt>
      <trkpt lat="43.57415" lon="3.37237">
        <ele>252.5</ele>
        <time>2016-02-14T13:17:32Z</time>
      </trkpt>
      <trkpt lat="43.57413" lon="3.37226">
        <ele>252</ele>
        <time>2016-02-14T13:17:33Z</time>
      </trkpt>
      <trkpt lat="43.57412" lon="3.37216">
        <ele>250.5</ele>
        <time>2016-02-14T13:17:34Z</time>
      </trkpt>
      <trkpt lat="43.57409" lon="3.37205">
        <ele>249</ele>
        <time>2016-02-14T13:17:35Z</time>
      </trkpt>
      <trkpt lat="43.57407" lon="3.37196">
        <ele>247.5</ele>
        <time>2016-02-14T13:17:36Z</time>
      </trkpt>
      <trkpt lat="43.57404" lon="3.37186">
        <ele>245.5</ele>
        <time>2016-02-14T13:17:37Z</time>
      </trkpt>
      <trkpt lat="43.57399" lon="3.37179">
        <ele>244.5</ele>
        <time>2016-02-14T13:17:38Z</time>
      </trkpt>
      <trkpt lat="43.57394" lon="3.37172">
        <ele>242</ele>
        <time>2016-02-14T13:17:39Z</time>
      </trkpt>
      <trkpt lat="43.57389" lon="3.37163">
        <ele>241.5</ele>
        <time>2016-02-14T13:17:40Z</time>
      </trkpt>
      <trkpt lat="43.57386" lon="3.37155">
        <ele>241</ele>
        <time>2016-02-14T13:17:41Z</time>
      </trkpt>
      <trkpt lat="43.57383" lon="3.37148">
        <ele>240</ele>
        <time>2016-02-14T13:17:42Z</time>
      </trkpt>
      <trkpt lat="43.5738" lon="3.37139">
        <ele>238</ele>
        <time>2016-02-14T13:17:43Z</time>
      </trkpt>
      <trkpt lat="43.57378" lon="3.37131">
        <ele>237</ele>
        <time>2016-02-14T13:17:44Z</time>
      </trkpt>
      <trkpt lat="43.57376" lon="3.37122">
        <ele>236</ele>
        <time>2016-02-14T13:17:45Z</time>
      </trkpt>
      <trkpt lat="43.57376" lon="3.37113">
        <ele>235</ele>
        <time>2016-02-14T13:17:46Z</time>
      </trkpt>
      <trkpt lat="43.57376" lon="3.37105">
        <ele>233.5</ele>
        <time>2016-02-14T13:17:47Z</time>
      </trkpt>
      <trkpt lat="43.57377" lon="3.37096">
        <ele>233.5</ele>
        <time>2016-02-14T13:17:48Z</time>
      </trkpt>
      <trkpt lat="43.57378" lon="3.37087">
        <ele>232</ele>
        <time>2016-02-14T13:17:49Z</time>
      </trkpt>
      <trkpt lat="43.57378" lon="3.37079">
        <ele>232.5</ele>
        <time>2016-02-14T13:17:50Z</time>
      </trkpt>
      <trkpt lat="43.57375" lon="3.37068">
        <ele>230.5</ele>
        <time>2016-02-14T13:17:51Z</time>
      </trkpt>
      <trkpt lat="43.57374" lon="3.37058">
        <ele>228.5</ele>
        <time>2016-02-14T13:17:52Z</time>
      </trkpt>
      <trkpt lat="43.57372" lon="3.37047">
        <ele>227.5</ele>
        <time>2016-02-14T13:17:53Z</time>
      </trkpt>
      <trkpt lat="43.57371" lon="3.37037">
        <ele>226</ele>
        <time>2016-02-14T13:17:54Z</time>
      </trkpt>
      <trkpt lat="43.57367" lon="3.37027">
        <ele>225</ele>
        <time>2016-02-14T13:17:55Z</time>
      </trkpt>
      <trkpt lat="43.57362" lon="3.37019">
        <ele>225</ele>
        <time>2016-02-14T13:17:56Z</time>
      </trkpt>
      <trkpt lat="43.57357" lon="3.3701">
        <ele>224</ele>
        <time>2016-02-14T13:17:57Z</time>
      </trkpt>
      <trkpt lat="43.57352" lon="3.37">
        <ele>222.5</ele>
        <time>2016-02-14T13:17:58Z</time>
      </trkpt>
      <trkpt lat="43.57347" lon="3.36989">
        <ele>221.5</ele>
        <time>2016-02-14T13:17:59Z</time>
      </trkpt>
      <trkpt lat="43.57343" lon="3.36978">
        <ele>221</ele>
        <time>2016-02-14T13:18:00Z</time>
      </trkpt>
      <trkpt lat="43.57338" lon="3.36968">
        <ele>220</ele>
        <time>2016-02-14T13:18:01Z</time>
      </trkpt>
      <trkpt lat="43.57332" lon="3.36959">
        <ele>219.5</ele>
        <time>2016-02-14T13:18:02Z</time>
      </trkpt>
      <trkpt lat="43.57326" lon="3.36951">
        <ele>219</ele>
        <time>2016-02-14T13:18:03Z</time>
      </trkpt>
      <trkpt lat="43.57319" lon="3.36944">
        <ele>218.5</ele>
        <time>2016-02-14T13:18:04Z</time>
      </trkpt>
      <trkpt lat="43.57312" lon="3.36937">
        <ele>218</ele>
        <time>2016-02-14T13:18:05Z</time>
      </trkpt>
      <trkpt lat="43.57306" lon="3.36929">
        <ele>217</ele>
        <time>2016-02-14T13:18:06Z</time>
      </trkpt>
      <trkpt lat="43.573" lon="3.3692">
        <ele>216.5</ele>
        <time>2016-02-14T13:18:07Z</time>
      </trkpt>
      <trkpt lat="43.57296" lon="3.36909">
        <ele>216</ele>
        <time>2016-02-14T13:18:08Z</time>
      </trkpt>
      <trkpt lat="43.57292" lon="3.36898">
        <ele>215.5</ele>
        <time>2016-02-14T13:18:09Z</time>
      </trkpt>
      <trkpt lat="43.57288" lon="3.36886">
        <ele>215</ele>
        <time>2016-02-14T13:18:10Z</time>
      </trkpt>
      <trkpt lat="43.57282" lon="3.36874">
        <ele>214.5</ele>
        <time>2016-02-14T13:18:11Z</time>
      </trkpt>
      <trkpt lat="43.57276" lon="3.36864">
        <ele>213.5</ele>
        <time>2016-02-14T13:18:12Z</time>
      </trkpt>
      <trkpt lat="43.5727" lon="3.36854">
        <ele>213</ele>
        <time>2016-02-14T13:18:13Z</time>
      </trkpt>
      <trkpt lat="43.57264" lon="3.36844">
        <ele>213</ele>
        <time>2016-02-14T13:18:14Z</time>
      </trkpt>
      <trkpt lat="43.57258" lon="3.36833">
        <ele>212.5</ele>
        <time>2016-02-14T13:18:15Z</time>
      </trkpt>
      <trkpt lat="43.57253" lon="3.36824">
        <ele>212.5</ele>
        <time>2016-02-14T13:18:16Z</time>
      </trkpt>
      <trkpt lat="43.5724" lon="3.36804">
        <ele>212</ele>
        <time>2016-02-14T13:18:18Z</time>
      </trkpt>
      <trkpt lat="43.57233" lon="3.36796">
        <ele>212</ele>
        <time>2016-02-14T13:18:19Z</time>
      </trkpt>
      <trkpt lat="43.57226" lon="3.36788">
        <ele>210.5</ele>
        <time>2016-02-14T13:18:20Z</time>
      </trkpt>
      <trkpt lat="43.57218" lon="3.36782">
        <ele>210.5</ele>
        <time>2016-02-14T13:18:21Z</time>
      </trkpt>
      <trkpt lat="43.57211" lon="3.36776">
        <ele>210.5</ele>
        <time>2016-02-14T13:18:22Z</time>
      </trkpt>
      <trkpt lat="43.57203" lon="3.3677">
        <ele>210</ele>
        <time>2016-02-14T13:18:23Z</time>
      </trkpt>
      <trkpt lat="43.57195" lon="3.36763">
        <ele>210</ele>
        <time>2016-02-14T13:18:24Z</time>
      </trkpt>
      <trkpt lat="43.57187" lon="3.36753">
        <ele>210</ele>
        <time>2016-02-14T13:18:25Z</time>
      </trkpt>
      <trkpt lat="43.5718" lon="3.36745">
        <ele>210</ele>
        <time>2016-02-14T13:18:26Z</time>
      </trkpt>
      <trkpt lat="43.57172" lon="3.36737">
        <ele>210</ele>
        <time>2016-02-14T13:18:27Z</time>
      </trkpt>
      <trkpt lat="43.57164" lon="3.36731">
        <ele>210</ele>
        <time>2016-02-14T13:18:28Z</time>
      </trkpt>
      <trkpt lat="43.57156" lon="3.36724">
        <ele>210</ele>
        <time>2016-02-14T13:18:29Z</time>
      </trkpt>
      <trkpt lat="43.57148" lon="3.36717">
        <ele>209</ele>
        <time>2016-02-14T13:18:30Z</time>
      </trkpt>
      <trkpt lat="43.57141" lon="3.36709">
        <ele>208.5</ele>
        <time>2016-02-14T13:18:31Z</time>
      </trkpt>
      <trkpt lat="43.57134" lon="3.36701">
        <ele>208</ele>
        <time>2016-02-14T13:18:32Z</time>
      </trkpt>
      <trkpt lat="43.57127" lon="3.36692">
        <ele>207.5</ele>
        <time>2016-02-14T13:18:33Z</time>
      </trkpt>
      <trkpt lat="43.57121" lon="3.36681">
        <ele>207.5</ele>
        <time>2016-02-14T13:18:34Z</time>
      </trkpt>
      <trkpt lat="43.57115" lon="3.36671">
        <ele>207.5</ele>
        <time>2016-02-14T13:18:35Z</time>
      </trkpt>
      <trkpt lat="43.57109" lon="3.3666">
        <ele>207.5</ele>
        <time>2016-02-14T13:18:36Z</time>
      </trkpt>
      <trkpt lat="43.57105" lon="3.36651">
        <ele>207</ele>
        <time>2016-02-14T13:18:37Z</time>
      </trkpt>
      <trkpt lat="43.57101" lon="3.36641">
        <ele>207</ele>
        <time>2016-02-14T13:18:38Z</time>
      </trkpt>
      <trkpt lat="43.57098" lon="3.36631">
        <ele>207</ele>
        <time>2016-02-14T13:18:39Z</time>
      </trkpt>
      <trkpt lat="43.57095" lon="3.36621">
        <ele>207</ele>
        <time>2016-02-14T13:18:40Z</time>
      </trkpt>
      <trkpt lat="43.57094" lon="3.36612">
        <ele>207</ele>
        <time>2016-02-14T13:18:41Z</time>
      </trkpt>
      <trkpt lat="43.57096" lon="3.36603">
        <ele>207</ele>
        <time>2016-02-14T13:18:42Z</time>
      </trkpt>
      <trkpt lat="43.57101" lon="3.36595">
        <ele>207</ele>
        <time>2016-02-14T13:18:42Z</time>
      </trkpt>
      <trkpt lat="43.57106" lon="3.36587">
        <ele>206.5</ele>
        <time>2016-02-14T13:18:43Z</time>
      </trkpt>
      <trkpt lat="43.57112" lon="3.36579">
        <ele>205</ele>
        <time>2016-02-14T13:18:44Z</time>
      </trkpt>
      <trkpt lat="43.57118" lon="3.36571">
        <ele>203.5</ele>
        <time>2016-02-14T13:18:45Z</time>
      </trkpt>
      <trkpt lat="43.57125" lon="3.36564">
        <ele>201.5</ele>
        <time>2016-02-14T13:18:46Z</time>
      </trkpt>
      <trkpt lat="43.57132" lon="3.36556">
        <ele>200.5</ele>
        <time>2016-02-14T13:18:47Z</time>
      </trkpt>
      <trkpt lat="43.5714" lon="3.3655">
        <ele>198</ele>
        <time>2016-02-14T13:18:48Z</time>
      </trkpt>
      <trkpt lat="43.57147" lon="3.36542">
        <ele>197</ele>
        <time>2016-02-14T13:18:49Z</time>
      </trkpt>
      <trkpt lat="43.57155" lon="3.36534">
        <ele>196</ele>
        <time>2016-02-14T13:18:50Z</time>
      </trkpt>
      <trkpt lat="43.57162" lon="3.36528">
        <ele>196</ele>
        <time>2016-02-14T13:18:51Z</time>
      </trkpt>
      <trkpt lat="43.57169" lon="3.36522">
        <ele>196</ele>
        <time>2016-02-14T13:18:52Z</time>
      </trkpt>
      <trkpt lat="43.57175" lon="3.36516">
        <ele>194</ele>
        <time>2016-02-14T13:18:53Z</time>
      </trkpt>
      <trkpt lat="43.57181" lon="3.3651">
        <ele>191.5</ele>
        <time>2016-02-14T13:18:54Z</time>
      </trkpt>
      <trkpt lat="43.57187" lon="3.36505">
        <ele>189.5</ele>
        <time>2016-02-14T13:18:55Z</time>
      </trkpt>
      <trkpt lat="43.57193" lon="3.365">
        <ele>189.5</ele>
        <time>2016-02-14T13:18:56Z</time>
      </trkpt>
      <trkpt lat="43.57198" lon="3.36496">
        <ele>188</ele>
        <time>2016-02-14T13:18:57Z</time>
      </trkpt>
      <trkpt lat="43.57203" lon="3.36492">
        <ele>186.5</ele>
        <time>2016-02-14T13:18:58Z</time>
      </trkpt>
      <trkpt lat="43.57208" lon="3.36488">
        <ele>184.5</ele>
        <time>2016-02-14T13:18:59Z</time>
      </trkpt>
      <trkpt lat="43.57213" lon="3.36484">
        <ele>184</ele>
        <time>2016-02-14T13:19:00Z</time>
      </trkpt>
      <trkpt lat="43.57217" lon="3.36481">
        <ele>183</ele>
        <time>2016-02-14T13:19:01Z</time>
      </trkpt>
      <trkpt lat="43.57222" lon="3.36478">
        <ele>182</ele>
        <time>2016-02-14T13:19:02Z</time>
      </trkpt>
      <trkpt lat="43.57227" lon="3.36476">
        <ele>180</ele>
        <time>2016-02-14T13:19:03Z</time>
      </trkpt>
      <trkpt lat="43.57231" lon="3.36474">
        <ele>178.5</ele>
        <time>2016-02-14T13:19:04Z</time>
      </trkpt>
      <trkpt lat="43.57236" lon="3.36472">
        <ele>177</ele>
        <time>2016-02-14T13:19:05Z</time>
      </trkpt>
      <trkpt lat="43.57241" lon="3.36471">
        <ele>175.5</ele>
        <time>2016-02-14T13:19:06Z</time>
      </trkpt>
      <trkpt lat="43.57246" lon="3.3647">
        <ele>174</ele>
        <time>2016-02-14T13:19:07Z</time>
      </trkpt>
      <trkpt lat="43.57251" lon="3.36469">
        <ele>172.5</ele>
        <time>2016-02-14T13:19:08Z</time>
      </trkpt>
      <trkpt lat="43.57255" lon="3.36468">
        <ele>172.5</ele>
        <time>2016-02-14T13:19:09Z</time>
      </trkpt>
      <trkpt lat="43.5726" lon="3.36467">
        <ele>172.5</ele>
        <time>2016-02-14T13:19:10Z</time>
      </trkpt>
      <trkpt lat="43.57266" lon="3.36467">
        <ele>172.5</ele>
        <time>2016-02-14T13:19:11Z</time>
      </trkpt>
      <trkpt lat="43.5727" lon="3.36466">
        <ele>172.5</ele>
        <time>2016-02-14T13:19:12Z</time>
      </trkpt>
      <trkpt lat="43.57276" lon="3.36468">
        <ele>171</ele>
        <time>2016-02-14T13:19:13Z</time>
      </trkpt>
      <trkpt lat="43.57281" lon="3.36466">
        <ele>172</ele>
        <time>2016-02-14T13:19:14Z</time>
      </trkpt>
      <trkpt lat="43.57285" lon="3.36465">
        <ele>171</ele>
        <time>2016-02-14T13:19:15Z</time>
      </trkpt>
      <trkpt lat="43.57289" lon="3.36463">
        <ele>170.5</ele>
        <time>2016-02-14T13:19:16Z</time>
      </trkpt>
      <trkpt lat="43.57293" lon="3.3646">
        <ele>170</ele>
        <time>2016-02-14T13:19:17Z</time>
      </trkpt>
      <trkpt lat="43.57298" lon="3.36459">
        <ele>169.5</ele>
        <time>2016-02-14T13:19:18Z</time>
      </trkpt>
      <trkpt lat="43.57304" lon="3.36458">
        <ele>169.5</ele>
        <time>2016-02-14T13:19:19Z</time>
      </trkpt>
      <trkpt lat="43.5731" lon="3.36459">
        <ele>169.5</ele>
        <time>2016-02-14T13:19:20Z</time>
      </trkpt>
      <trkpt lat="43.57314" lon="3.36457">
        <ele>169</ele>
        <time>2016-02-14T13:19:21Z</time>
      </trkpt>
      <trkpt lat="43.57319" lon="3.36455">
        <ele>169</ele>
        <time>2016-02-14T13:19:22Z</time>
      </trkpt>
      <trkpt lat="43.57324" lon="3.36453">
        <ele>169.5</ele>
        <time>2016-02-14T13:19:23Z</time>
      </trkpt>
      <trkpt lat="43.57329" lon="3.36452">
        <ele>169.5</ele>
        <time>2016-02-14T13:19:24Z</time>
      </trkpt>
      <trkpt lat="43.57334" lon="3.36451">
        <ele>169</ele>
        <time>2016-02-14T13:19:25Z</time>
      </trkpt>
      <trkpt lat="43.57339" lon="3.36449">
        <ele>169</ele>
        <time>2016-02-14T13:19:26Z</time>
      </trkpt>
      <trkpt lat="43.57344" lon="3.36448">
        <ele>169.5</ele>
        <time>2016-02-14T13:19:27Z</time>
      </trkpt>
      <trkpt lat="43.57348" lon="3.36444">
        <ele>169.5</ele>
        <time>2016-02-14T13:19:28Z</time>
      </trkpt>
      <trkpt lat="43.57352" lon="3.36441">
        <ele>169.5</ele>
        <time>2016-02-14T13:19:29Z</time>
      </trkpt>
      <trkpt lat="43.57356" lon="3.36436">
        <ele>169.5</ele>
        <time>2016-02-14T13:19:30Z</time>
      </trkpt>
      <trkpt lat="43.57358" lon="3.3643">
        <ele>168.5</ele>
        <time>2016-02-14T13:19:31Z</time>
      </trkpt>
      <trkpt lat="43.5736" lon="3.36423">
        <ele>168.5</ele>
        <time>2016-02-14T13:19:32Z</time>
      </trkpt>
      <trkpt lat="43.5736" lon="3.36416">
        <ele>168.5</ele>
        <time>2016-02-14T13:19:33Z</time>
      </trkpt>
      <trkpt lat="43.57361" lon="3.36409">
        <ele>168</ele>
        <time>2016-02-14T13:19:34Z</time>
      </trkpt>
      <trkpt lat="43.57362" lon="3.36402">
        <ele>168</ele>
        <time>2016-02-14T13:19:35Z</time>
      </trkpt>
      <trkpt lat="43.57362" lon="3.36397">
        <ele>169</ele>
        <time>2016-02-14T13:19:36Z</time>
      </trkpt>
      <trkpt lat="43.57362" lon="3.3639">
        <ele>169</ele>
        <time>2016-02-14T13:19:37Z</time>
      </trkpt>
      <trkpt lat="43.57362" lon="3.36384">
        <ele>169</ele>
        <time>2016-02-14T13:19:38Z</time>
      </trkpt>
      <trkpt lat="43.57362" lon="3.36378">
        <ele>169.5</ele>
        <time>2016-02-14T13:19:39Z</time>
      </trkpt>
      <trkpt lat="43.57364" lon="3.36372">
        <ele>169.5</ele>
        <time>2016-02-14T13:19:40Z</time>
      </trkpt>
      <trkpt lat="43.57368" lon="3.36369">
        <ele>170</ele>
        <time>2016-02-14T13:19:41Z</time>
      </trkpt>
      <trkpt lat="43.57371" lon="3.36367">
        <ele>170</ele>
        <time>2016-02-14T13:19:42Z</time>
      </trkpt>
      <trkpt lat="43.57374" lon="3.36365">
        <ele>170</ele>
        <time>2016-02-14T13:19:43Z</time>
      </trkpt>
      <trkpt lat="43.57377" lon="3.36362">
        <ele>170</ele>
        <time>2016-02-14T13:19:44Z</time>
      </trkpt>
      <trkpt lat="43.5738" lon="3.36358">
        <ele>171</ele>
        <time>2016-02-14T13:19:45Z</time>
      </trkpt>
      <trkpt lat="43.57383" lon="3.36356">
        <ele>171.5</ele>
        <time>2016-02-14T13:19:46Z</time>
      </trkpt>
      <trkpt lat="43.57387" lon="3.36354">
        <ele>172</ele>
        <time>2016-02-14T13:19:47Z</time>
      </trkpt>
      <trkpt lat="43.57391" lon="3.36353">
        <ele>172</ele>
        <time>2016-02-14T13:19:48Z</time>
      </trkpt>
      <trkpt lat="43.57395" lon="3.36351">
        <ele>172</ele>
        <time>2016-02-14T13:19:49Z</time>
      </trkpt>
      <trkpt lat="43.57398" lon="3.36352">
        <ele>171.5</ele>
        <time>2016-02-14T13:19:50Z</time>
      </trkpt>
      <trkpt lat="43.57402" lon="3.36351">
        <ele>172</ele>
        <time>2016-02-14T13:19:51Z</time>
      </trkpt>
      <trkpt lat="43.57406" lon="3.36349">
        <ele>171.5</ele>
        <time>2016-02-14T13:19:52Z</time>
      </trkpt>
      <trkpt lat="43.57411" lon="3.36349">
        <ele>171.5</ele>
        <time>2016-02-14T13:19:53Z</time>
      </trkpt>
      <trkpt lat="43.57416" lon="3.36349">
        <ele>172.5</ele>
        <time>2016-02-14T13:19:54Z</time>
      </trkpt>
      <trkpt lat="43.57423" lon="3.36347">
        <ele>171</ele>
        <time>2016-02-14T13:19:56Z</time>
      </trkpt>
      <trkpt lat="43.57426" lon="3.36346">
        <ele>170</ele>
        <time>2016-02-14T13:19:57Z</time>
      </trkpt>
      <trkpt lat="43.5743" lon="3.36345">
        <ele>170</ele>
        <time>2016-02-14T13:19:58Z</time>
      </trkpt>
      <trkpt lat="43.57434" lon="3.36345">
        <ele>170.5</ele>
        <time>2016-02-14T13:19:59Z</time>
      </trkpt>
      <trkpt lat="43.57438" lon="3.36345">
        <ele>170</ele>
        <time>2016-02-14T13:20:00Z</time>
      </trkpt>
      <trkpt lat="43.57442" lon="3.36345">
        <ele>170</ele>
        <time>2016-02-14T13:20:01Z</time>
      </trkpt>
      <trkpt lat="43.57446" lon="3.36345">
        <ele>170.5</ele>
        <time>2016-02-14T13:20:02Z</time>
      </trkpt>
      <trkpt lat="43.5745" lon="3.36345">
        <ele>170</ele>
        <time>2016-02-14T13:20:03Z</time>
      </trkpt>
      <trkpt lat="43.57453" lon="3.36346">
        <ele>168.5</ele>
        <time>2016-02-14T13:20:04Z</time>
      </trkpt>
      <trkpt lat="43.57457" lon="3.36347">
        <ele>168</ele>
        <time>2016-02-14T13:20:05Z</time>
      </trkpt>
      <trkpt lat="43.5746" lon="3.36348">
        <ele>167.5</ele>
        <time>2016-02-14T13:20:06Z</time>
      </trkpt>
      <trkpt lat="43.57463" lon="3.36349">
        <ele>167.5</ele>
        <time>2016-02-14T13:20:07Z</time>
      </trkpt>
      <trkpt lat="43.57467" lon="3.36349">
        <ele>168</ele>
        <time>2016-02-14T13:20:08Z</time>
      </trkpt>
      <trkpt lat="43.57471" lon="3.36349">
        <ele>169</ele>
        <time>2016-02-14T13:20:09Z</time>
      </trkpt>
      <trkpt lat="43.57475" lon="3.36349">
        <ele>169</ele>
        <time>2016-02-14T13:20:10Z</time>
      </trkpt>
      <trkpt lat="43.57479" lon="3.3635">
        <ele>168</ele>
        <time>2016-02-14T13:20:11Z</time>
      </trkpt>
      <trkpt lat="43.57484" lon="3.36351">
        <ele>167.5</ele>
        <time>2016-02-14T13:20:12Z</time>
      </trkpt>
      <trkpt lat="43.57487" lon="3.3635">
        <ele>167</ele>
        <time>2016-02-14T13:20:13Z</time>
      </trkpt>
      <trkpt lat="43.57491" lon="3.36351">
        <ele>167</ele>
        <time>2016-02-14T13:20:14Z</time>
      </trkpt>
      <trkpt lat="43.57495" lon="3.36351">
        <ele>167</ele>
        <time>2016-02-14T13:20:15Z</time>
      </trkpt>
      <trkpt lat="43.57498" lon="3.36351">
        <ele>165.5</ele>
        <time>2016-02-14T13:20:16Z</time>
      </trkpt>
      <trkpt lat="43.57501" lon="3.36351">
        <ele>164.5</ele>
        <time>2016-02-14T13:20:17Z</time>
      </trkpt>
      <trkpt lat="43.57505" lon="3.36352">
        <ele>164.5</ele>
        <time>2016-02-14T13:20:18Z</time>
      </trkpt>
      <trkpt lat="43.57507" lon="3.36351">
        <ele>164.5</ele>
        <time>2016-02-14T13:20:19Z</time>
      </trkpt>
      <trkpt lat="43.5751" lon="3.36351">
        <ele>164.5</ele>
        <time>2016-02-14T13:20:20Z</time>
      </trkpt>
      <trkpt lat="43.57514" lon="3.36353">
        <ele>164</ele>
        <time>2016-02-14T13:20:21Z</time>
      </trkpt>
      <trkpt lat="43.57518" lon="3.36353">
        <ele>164.5</ele>
        <time>2016-02-14T13:20:22Z</time>
      </trkpt>
      <trkpt lat="43.57521" lon="3.36354">
        <ele>165.5</ele>
        <time>2016-02-14T13:20:23Z</time>
      </trkpt>
      <trkpt lat="43.57525" lon="3.36354">
        <ele>166</ele>
        <time>2016-02-14T13:20:24Z</time>
      </trkpt>
      <trkpt lat="43.57529" lon="3.36355">
        <ele>166</ele>
        <time>2016-02-14T13:20:25Z</time>
      </trkpt>
      <trkpt lat="43.57532" lon="3.36356">
        <ele>166</ele>
        <time>2016-02-14T13:20:26Z</time>
      </trkpt>
      <trkpt lat="43.57536" lon="3.36357">
        <ele>166</ele>
        <time>2016-02-14T13:20:27Z</time>
      </trkpt>
      <trkpt lat="43.57539" lon="3.36358">
        <ele>166.5</ele>
        <time>2016-02-14T13:20:28Z</time>
      </trkpt>
      <trkpt lat="43.57542" lon="3.36358">
        <ele>167</ele>
        <time>2016-02-14T13:20:29Z</time>
      </trkpt>
      <trkpt lat="43.57545" lon="3.36359">
        <ele>167</ele>
        <time>2016-02-14T13:20:30Z</time>
      </trkpt>
      <trkpt lat="43.57548" lon="3.36359">
        <ele>167.5</ele>
        <time>2016-02-14T13:20:31Z</time>
      </trkpt>
      <trkpt lat="43.57551" lon="3.3636">
        <ele>168</ele>
        <time>2016-02-14T13:20:32Z</time>
      </trkpt>
      <trkpt lat="43.57555" lon="3.36361">
        <ele>168.5</ele>
        <time>2016-02-14T13:20:33Z</time>
      </trkpt>
      <trkpt lat="43.57558" lon="3.36361">
        <ele>168</ele>
        <time>2016-02-14T13:20:34Z</time>
      </trkpt>
      <trkpt lat="43.57561" lon="3.3636">
        <ele>168</ele>
        <time>2016-02-14T13:20:35Z</time>
      </trkpt>
      <trkpt lat="43.57564" lon="3.36356">
        <ele>170.5</ele>
        <time>2016-02-14T13:20:36Z</time>
      </trkpt>
      <trkpt lat="43.57565" lon="3.36353">
        <ele>170.5</ele>
        <time>2016-02-14T13:20:37Z</time>
      </trkpt>
      <trkpt lat="43.57567" lon="3.36349">
        <ele>170.5</ele>
        <time>2016-02-14T13:20:38Z</time>
      </trkpt>
      <trkpt lat="43.57567" lon="3.36345">
        <ele>170.5</ele>
        <time>2016-02-14T13:20:39Z</time>
      </trkpt>
      <trkpt lat="43.57568" lon="3.36341">
        <ele>171</ele>
        <time>2016-02-14T13:20:40Z</time>
      </trkpt>
      <trkpt lat="43.57569" lon="3.36338">
        <ele>171.5</ele>
        <time>2016-02-14T13:20:41Z</time>
      </trkpt>
      <trkpt lat="43.5757" lon="3.36334">
        <ele>172</ele>
        <time>2016-02-14T13:20:42Z</time>
      </trkpt>
      <trkpt lat="43.57571" lon="3.36331">
        <ele>172</ele>
        <time>2016-02-14T13:20:43Z</time>
      </trkpt>
      <trkpt lat="43.57572" lon="3.36327">
        <ele>173.5</ele>
        <time>2016-02-14T13:20:44Z</time>
      </trkpt>
      <trkpt lat="43.57572" lon="3.36324">
        <ele>173.5</ele>
        <time>2016-02-14T13:20:45Z</time>
      </trkpt>
      <trkpt lat="43.57573" lon="3.36321">
        <ele>175.5</ele>
        <time>2016-02-14T13:20:46Z</time>
      </trkpt>
      <trkpt lat="43.57573" lon="3.36317">
        <ele>175.5</ele>
        <time>2016-02-14T13:20:47Z</time>
      </trkpt>
      <trkpt lat="43.57573" lon="3.36314">
        <ele>176</ele>
        <time>2016-02-14T13:20:48Z</time>
      </trkpt>
      <trkpt lat="43.57573" lon="3.36311">
        <ele>176.5</ele>
        <time>2016-02-14T13:20:49Z</time>
      </trkpt>
      <trkpt lat="43.57573" lon="3.36308">
        <ele>177.5</ele>
        <time>2016-02-14T13:20:50Z</time>
      </trkpt>
      <trkpt lat="43.57573" lon="3.36305">
        <ele>177.5</ele>
        <time>2016-02-14T13:20:51Z</time>
      </trkpt>
      <trkpt lat="43.57573" lon="3.36302">
        <ele>178</ele>
        <time>2016-02-14T13:20:52Z</time>
      </trkpt>
      <trkpt lat="43.57573" lon="3.36298">
        <ele>178</ele>
        <time>2016-02-14T13:20:53Z</time>
      </trkpt>
      <trkpt lat="43.57573" lon="3.36295">
        <ele>178.5</ele>
        <time>2016-02-14T13:20:54Z</time>
      </trkpt>
      <trkpt lat="43.57574" lon="3.36292">
        <ele>178.5</ele>
        <time>2016-02-14T13:20:55Z</time>
      </trkpt>
      <trkpt lat="43.57575" lon="3.36289">
        <ele>177.5</ele>
        <time>2016-02-14T13:20:56Z</time>
      </trkpt>
      <trkpt lat="43.57576" lon="3.36286">
        <ele>176</ele>
        <time>2016-02-14T13:20:57Z</time>
      </trkpt>
      <trkpt lat="43.57578" lon="3.36284">
        <ele>176.5</ele>
        <time>2016-02-14T13:20:58Z</time>
      </trkpt>
      <trkpt lat="43.5758" lon="3.36281">
        <ele>176.5</ele>
        <time>2016-02-14T13:20:59Z</time>
      </trkpt>
      <trkpt lat="43.57582" lon="3.36278">
        <ele>177</ele>
        <time>2016-02-14T13:21:00Z</time>
      </trkpt>
      <trkpt lat="43.57584" lon="3.36276">
        <ele>177</ele>
        <time>2016-02-14T13:21:01Z</time>
      </trkpt>
      <trkpt lat="43.57585" lon="3.36273">
        <ele>177</ele>
        <time>2016-02-14T13:21:02Z</time>
      </trkpt>
      <trkpt lat="43.57587" lon="3.36271">
        <ele>177</ele>
        <time>2016-02-14T13:21:03Z</time>
      </trkpt>
      <trkpt lat="43.57588" lon="3.36269">
        <ele>178</ele>
        <time>2016-02-14T13:21:04Z</time>
      </trkpt>
      <trkpt lat="43.5759" lon="3.36267">
        <ele>178</ele>
        <time>2016-02-14T13:21:05Z</time>
      </trkpt>
      <trkpt lat="43.57591" lon="3.36264">
        <ele>178</ele>
        <time>2016-02-14T13:21:06Z</time>
      </trkpt>
      <trkpt lat="43.57591" lon="3.36262">
        <ele>178</ele>
        <time>2016-02-14T13:21:07Z</time>
      </trkpt>
      <trkpt lat="43.57592" lon="3.3626">
        <ele>178</ele>
        <time>2016-02-14T13:21:08Z</time>
      </trkpt>
      <trkpt lat="43.57594" lon="3.36258">
        <ele>178</ele>
        <time>2016-02-14T13:21:09Z</time>
      </trkpt>
      <trkpt lat="43.57595" lon="3.36256">
        <ele>178</ele>
        <time>2016-02-14T13:21:10Z</time>
      </trkpt>
      <trkpt lat="43.57597" lon="3.36254">
        <ele>178</ele>
        <time>2016-02-14T13:21:11Z</time>
      </trkpt>
      <trkpt lat="43.57598" lon="3.36251">
        <ele>177.5</ele>
        <time>2016-02-14T13:21:12Z</time>
      </trkpt>
      <trkpt lat="43.57599" lon="3.36248">
        <ele>177</ele>
        <time>2016-02-14T13:21:13Z</time>
      </trkpt>
      <trkpt lat="43.576" lon="3.36244">
        <ele>176</ele>
        <time>2016-02-14T13:21:14Z</time>
      </trkpt>
      <trkpt lat="43.57601" lon="3.36242">
        <ele>176</ele>
        <time>2016-02-14T13:21:15Z</time>
      </trkpt>
      <trkpt lat="43.57602" lon="3.36239">
        <ele>175.5</ele>
        <time>2016-02-14T13:21:16Z</time>
      </trkpt>
      <trkpt lat="43.57605" lon="3.36237">
        <ele>175</ele>
        <time>2016-02-14T13:21:17Z</time>
      </trkpt>
      <trkpt lat="43.57607" lon="3.36235">
        <ele>174.5</ele>
        <time>2016-02-14T13:21:18Z</time>
      </trkpt>
      <trkpt lat="43.57609" lon="3.36233">
        <ele>174</ele>
        <time>2016-02-14T13:21:19Z</time>
      </trkpt>
      <trkpt lat="43.57612" lon="3.36231">
        <ele>173.5</ele>
        <time>2016-02-14T13:21:20Z</time>
      </trkpt>
      <trkpt lat="43.57615" lon="3.3623">
        <ele>174</ele>
        <time>2016-02-14T13:21:21Z</time>
      </trkpt>
      <trkpt lat="43.57617" lon="3.36227">
        <ele>173.5</ele>
        <time>2016-02-14T13:21:22Z</time>
      </trkpt>
      <trkpt lat="43.5762" lon="3.36225">
        <ele>173</ele>
        <time>2016-02-14T13:21:23Z</time>
      </trkpt>
      <trkpt lat="43.57622" lon="3.36223">
        <ele>174</ele>
        <time>2016-02-14T13:21:24Z</time>
      </trkpt>
      <trkpt lat="43.57624" lon="3.36222">
        <ele>174</ele>
        <time>2016-02-14T13:21:25Z</time>
      </trkpt>
      <trkpt lat="43.57625" lon="3.36219">
        <ele>173.5</ele>
        <time>2016-02-14T13:21:26Z</time>
      </trkpt>
      <trkpt lat="43.57626" lon="3.36217">
        <ele>173</ele>
        <time>2016-02-14T13:21:27Z</time>
      </trkpt>
      <trkpt lat="43.57627" lon="3.36214">
        <ele>173</ele>
        <time>2016-02-14T13:21:28Z</time>
      </trkpt>
      <trkpt lat="43.57629" lon="3.36212">
        <ele>173</ele>
        <time>2016-02-14T13:21:29Z</time>
      </trkpt>
      <trkpt lat="43.57631" lon="3.3621">
        <ele>173</ele>
        <time>2016-02-14T13:21:30Z</time>
      </trkpt>
      <trkpt lat="43.57632" lon="3.36208">
        <ele>172.5</ele>
        <time>2016-02-14T13:21:31Z</time>
      </trkpt>
      <trkpt lat="43.57634" lon="3.36205">
        <ele>171.5</ele>
        <time>2016-02-14T13:21:32Z</time>
      </trkpt>
      <trkpt lat="43.57635" lon="3.36203">
        <ele>170.5</ele>
        <time>2016-02-14T13:21:33Z</time>
      </trkpt>
      <trkpt lat="43.57637" lon="3.36201">
        <ele>171</ele>
        <time>2016-02-14T13:21:34Z</time>
      </trkpt>
      <trkpt lat="43.57639" lon="3.36199">
        <ele>172</ele>
        <time>2016-02-14T13:21:35Z</time>
      </trkpt>
      <trkpt lat="43.5764" lon="3.36197">
        <ele>172</ele>
        <time>2016-02-14T13:21:36Z</time>
      </trkpt>
      <trkpt lat="43.57642" lon="3.36195">
        <ele>172</ele>
        <time>2016-02-14T13:21:37Z</time>
      </trkpt>
      <trkpt lat="43.57644" lon="3.36193">
        <ele>172</ele>
        <time>2016-02-14T13:21:38Z</time>
      </trkpt>
      <trkpt lat="43.57646" lon="3.36191">
        <ele>171.5</ele>
        <time>2016-02-14T13:21:39Z</time>
      </trkpt>
      <trkpt lat="43.57648" lon="3.36189">
        <ele>172</ele>
        <time>2016-02-14T13:21:40Z</time>
      </trkpt>
      <trkpt lat="43.5765" lon="3.36187">
        <ele>172</ele>
        <time>2016-02-14T13:21:41Z</time>
      </trkpt>
      <trkpt lat="43.57652" lon="3.36185">
        <ele>172</ele>
        <time>2016-02-14T13:21:42Z</time>
      </trkpt>
      <trkpt lat="43.57655" lon="3.36183">
        <ele>172</ele>
        <time>2016-02-14T13:21:43Z</time>
      </trkpt>
      <trkpt lat="43.57657" lon="3.36182">
        <ele>172</ele>
        <time>2016-02-14T13:21:44Z</time>
      </trkpt>
      <trkpt lat="43.5766" lon="3.36181">
        <ele>173</ele>
        <time>2016-02-14T13:21:45Z</time>
      </trkpt>
      <trkpt lat="43.57662" lon="3.36178">
        <ele>173</ele>
        <time>2016-02-14T13:21:46Z</time>
      </trkpt>
      <trkpt lat="43.57664" lon="3.36176">
        <ele>173.5</ele>
        <time>2016-02-14T13:21:47Z</time>
      </trkpt>
      <trkpt lat="43.57666" lon="3.36173">
        <ele>174</ele>
        <time>2016-02-14T13:21:48Z</time>
      </trkpt>
      <trkpt lat="43.57668" lon="3.3617">
        <ele>174</ele>
        <time>2016-02-14T13:21:49Z</time>
      </trkpt>
      <trkpt lat="43.5767" lon="3.36168">
        <ele>174.5</ele>
        <time>2016-02-14T13:21:50Z</time>
      </trkpt>
      <trkpt lat="43.57672" lon="3.36166">
        <ele>176</ele>
        <time>2016-02-14T13:21:51Z</time>
      </trkpt>
      <trkpt lat="43.57675" lon="3.36164">
        <ele>176</ele>
        <time>2016-02-14T13:21:52Z</time>
      </trkpt>
      <trkpt lat="43.57677" lon="3.36162">
        <ele>175.5</ele>
        <time>2016-02-14T13:21:53Z</time>
      </trkpt>
      <trkpt lat="43.57679" lon="3.3616">
        <ele>175.5</ele>
        <time>2016-02-14T13:21:54Z</time>
      </trkpt>
      <trkpt lat="43.57681" lon="3.36158">
        <ele>175</ele>
        <time>2016-02-14T13:21:55Z</time>
      </trkpt>
      <trkpt lat="43.57683" lon="3.36156">
        <ele>173.5</ele>
        <time>2016-02-14T13:21:56Z</time>
      </trkpt>
      <trkpt lat="43.57685" lon="3.36154">
        <ele>173.5</ele>
        <time>2016-02-14T13:21:57Z</time>
      </trkpt>
      <trkpt lat="43.57688" lon="3.36153">
        <ele>174.5</ele>
        <time>2016-02-14T13:21:58Z</time>
      </trkpt>
      <trkpt lat="43.5769" lon="3.36151">
        <ele>174.5</ele>
        <time>2016-02-14T13:21:59Z</time>
      </trkpt>
      <trkpt lat="43.57692" lon="3.36149">
        <ele>175</ele>
        <time>2016-02-14T13:22:00Z</time>
      </trkpt>
      <trkpt lat="43.57694" lon="3.36147">
        <ele>175.5</ele>
        <time>2016-02-14T13:22:01Z</time>
      </trkpt>
      <trkpt lat="43.57696" lon="3.36145">
        <ele>175.5</ele>
        <time>2016-02-14T13:22:02Z</time>
      </trkpt>
      <trkpt lat="43.57698" lon="3.36142">
        <ele>175.5</ele>
        <time>2016-02-14T13:22:03Z</time>
      </trkpt>
      <trkpt lat="43.577" lon="3.36141">
        <ele>177</ele>
        <time>2016-02-14T13:22:04Z</time>
      </trkpt>
      <trkpt lat="43.57703" lon="3.36139">
        <ele>177.5</ele>
        <time>2016-02-14T13:22:05Z</time>
      </trkpt>
      <trkpt lat="43.57705" lon="3.36138">
        <ele>177.5</ele>
        <time>2016-02-14T13:22:06Z</time>
      </trkpt>
      <trkpt lat="43.57706" lon="3.36137">
        <ele>177</ele>
        <time>2016-02-14T13:22:07Z</time>
      </trkpt>
      <trkpt lat="43.57708" lon="3.36134">
        <ele>177</ele>
        <time>2016-02-14T13:22:07Z</time>
      </trkpt>
      <trkpt lat="43.5771" lon="3.36133">
        <ele>177</ele>
        <time>2016-02-14T13:22:08Z</time>
      </trkpt>
      <trkpt lat="43.57711" lon="3.3613">
        <ele>177</ele>
        <time>2016-02-14T13:22:09Z</time>
      </trkpt>
      <trkpt lat="43.57714" lon="3.36127">
        <ele>176.5</ele>
        <time>2016-02-14T13:22:10Z</time>
      </trkpt>
      <trkpt lat="43.57716" lon="3.36125">
        <ele>176.5</ele>
        <time>2016-02-14T13:22:11Z</time>
      </trkpt>
      <trkpt lat="43.57717" lon="3.36122">
        <ele>175.5</ele>
        <time>2016-02-14T13:22:12Z</time>
      </trkpt>
      <trkpt lat="43.57719" lon="3.3612">
        <ele>175.5</ele>
        <time>2016-02-14T13:22:13Z</time>
      </trkpt>
      <trkpt lat="43.57721" lon="3.36117">
        <ele>176</ele>
        <time>2016-02-14T13:22:14Z</time>
      </trkpt>
      <trkpt lat="43.57722" lon="3.36115">
        <ele>176</ele>
        <time>2016-02-14T13:22:15Z</time>
      </trkpt>
      <trkpt lat="43.57724" lon="3.36112">
        <ele>176.5</ele>
        <time>2016-02-14T13:22:16Z</time>
      </trkpt>
      <trkpt lat="43.57725" lon="3.3611">
        <ele>176.5</ele>
        <time>2016-02-14T13:22:17Z</time>
      </trkpt>
      <trkpt lat="43.57726" lon="3.36107">
        <ele>176.5</ele>
        <time>2016-02-14T13:22:18Z</time>
      </trkpt>
      <trkpt lat="43.57728" lon="3.36105">
        <ele>177</ele>
        <time>2016-02-14T13:22:19Z</time>
      </trkpt>
      <trkpt lat="43.5773" lon="3.36103">
        <ele>177</ele>
        <time>2016-02-14T13:22:20Z</time>
      </trkpt>
      <trkpt lat="43.57731" lon="3.36101">
        <ele>177.5</ele>
        <time>2016-02-14T13:22:21Z</time>
      </trkpt>
      <trkpt lat="43.57733" lon="3.36099">
        <ele>177</ele>
        <time>2016-02-14T13:22:22Z</time>
      </trkpt>
      <trkpt lat="43.57734" lon="3.36097">
        <ele>175.5</ele>
        <time>2016-02-14T13:22:23Z</time>
      </trkpt>
      <trkpt lat="43.57735" lon="3.36095">
        <ele>175.5</ele>
        <time>2016-02-14T13:22:24Z</time>
      </trkpt>
      <trkpt lat="43.57737" lon="3.36092">
        <ele>175.5</ele>
        <time>2016-02-14T13:22:25Z</time>
      </trkpt>
      <trkpt lat="43.57739" lon="3.3609">
        <ele>176</ele>
        <time>2016-02-14T13:22:26Z</time>
      </trkpt>
      <trkpt lat="43.57739" lon="3.36089">
        <ele>176</ele>
        <time>2016-02-14T13:22:27Z</time>
      </trkpt>
      <trkpt lat="43.5774" lon="3.36088">
        <ele>176.5</ele>
        <time>2016-02-14T13:22:28Z</time>
      </trkpt>
      <trkpt lat="43.57742" lon="3.36088">
        <ele>176</ele>
        <time>2016-02-14T13:22:29Z</time>
      </trkpt>
      <trkpt lat="43.57744" lon="3.36088">
        <ele>175</ele>
        <time>2016-02-14T13:22:30Z</time>
      </trkpt>
      <trkpt lat="43.57745" lon="3.36088">
        <ele>174.5</ele>
        <time>2016-02-14T13:22:31Z</time>
      </trkpt>
      <trkpt lat="43.57747" lon="3.36089">
        <ele>174.5</ele>
        <time>2016-02-14T13:22:32Z</time>
      </trkpt>
      <trkpt lat="43.5775" lon="3.36088">
        <ele>174.5</ele>
        <time>2016-02-14T13:22:33Z</time>
      </trkpt>
      <trkpt lat="43.57752" lon="3.36088">
        <ele>174</ele>
        <time>2016-02-14T13:22:34Z</time>
      </trkpt>
      <trkpt lat="43.57755" lon="3.3609">
        <ele>174.5</ele>
        <time>2016-02-14T13:22:35Z</time>
      </trkpt>
      <trkpt lat="43.57759" lon="3.36092">
        <ele>175</ele>
        <time>2016-02-14T13:22:36Z</time>
      </trkpt>
      <trkpt lat="43.57762" lon="3.36093">
        <ele>176</ele>
        <time>2016-02-14T13:22:37Z</time>
      </trkpt>
      <trkpt lat="43.57767" lon="3.36094">
        <ele>176.5</ele>
        <time>2016-02-14T13:22:38Z</time>
      </trkpt>
      <trkpt lat="43.57772" lon="3.36095">
        <ele>177.5</ele>
        <time>2016-02-14T13:22:39Z</time>
      </trkpt>
      <trkpt lat="43.57776" lon="3.36097">
        <ele>177.5</ele>
        <time>2016-02-14T13:22:40Z</time>
      </trkpt>
      <trkpt lat="43.57781" lon="3.36099">
        <ele>181</ele>
        <time>2016-02-14T13:22:41Z</time>
      </trkpt>
      <trkpt lat="43.57785" lon="3.36102">
        <ele>181.5</ele>
        <time>2016-02-14T13:22:42Z</time>
      </trkpt>
      <trkpt lat="43.57788" lon="3.36105">
        <ele>182</ele>
        <time>2016-02-14T13:22:43Z</time>
      </trkpt>
      <trkpt lat="43.5779" lon="3.36109">
        <ele>180</ele>
        <time>2016-02-14T13:22:44Z</time>
      </trkpt>
      <trkpt lat="43.57793" lon="3.36114">
        <ele>179.5</ele>
        <time>2016-02-14T13:22:45Z</time>
      </trkpt>
      <trkpt lat="43.57795" lon="3.36118">
        <ele>179</ele>
        <time>2016-02-14T13:22:46Z</time>
      </trkpt>
      <trkpt lat="43.57797" lon="3.36121">
        <ele>178.5</ele>
        <time>2016-02-14T13:22:47Z</time>
      </trkpt>
      <trkpt lat="43.57799" lon="3.36125">
        <ele>177</ele>
        <time>2016-02-14T13:22:48Z</time>
      </trkpt>
      <trkpt lat="43.57802" lon="3.36128">
        <ele>177</ele>
        <time>2016-02-14T13:22:49Z</time>
      </trkpt>
      <trkpt lat="43.57804" lon="3.36132">
        <ele>177.5</ele>
        <time>2016-02-14T13:22:50Z</time>
      </trkpt>
      <trkpt lat="43.57806" lon="3.36135">
        <ele>178</ele>
        <time>2016-02-14T13:22:51Z</time>
      </trkpt>
      <trkpt lat="43.57808" lon="3.36138">
        <ele>178.5</ele>
        <time>2016-02-14T13:22:52Z</time>
      </trkpt>
      <trkpt lat="43.57811" lon="3.36141">
        <ele>179.5</ele>
        <time>2016-02-14T13:22:53Z</time>
      </trkpt>
      <trkpt lat="43.57813" lon="3.36144">
        <ele>180</ele>
        <time>2016-02-14T13:22:54Z</time>
      </trkpt>
      <trkpt lat="43.57814" lon="3.36147">
        <ele>178.5</ele>
        <time>2016-02-14T13:22:55Z</time>
      </trkpt>
      <trkpt lat="43.57816" lon="3.36149">
        <ele>179</ele>
        <time>2016-02-14T13:22:56Z</time>
      </trkpt>
      <trkpt lat="43.57818" lon="3.36152">
        <ele>179</ele>
        <time>2016-02-14T13:22:57Z</time>
      </trkpt>
      <trkpt lat="43.57819" lon="3.36155">
        <ele>179.5</ele>
        <time>2016-02-14T13:22:58Z</time>
      </trkpt>
      <trkpt lat="43.57822" lon="3.36164">
        <ele>180</ele>
        <time>2016-02-14T13:23:00Z</time>
      </trkpt>
      <trkpt lat="43.57825" lon="3.36167">
        <ele>180</ele>
        <time>2016-02-14T13:23:01Z</time>
      </trkpt>
      <trkpt lat="43.57829" lon="3.3617">
        <ele>180</ele>
        <time>2016-02-14T13:23:02Z</time>
      </trkpt>
      <trkpt lat="43.57831" lon="3.36174">
        <ele>180.5</ele>
        <time>2016-02-14T13:23:03Z</time>
      </trkpt>
      <trkpt lat="43.57834" lon="3.36178">
        <ele>180</ele>
        <time>2016-02-14T13:23:04Z</time>
      </trkpt>
      <trkpt lat="43.57836" lon="3.36182">
        <ele>180</ele>
        <time>2016-02-14T13:23:05Z</time>
      </trkpt>
      <trkpt lat="43.57839" lon="3.36184">
        <ele>180</ele>
        <time>2016-02-14T13:23:06Z</time>
      </trkpt>
      <trkpt lat="43.57843" lon="3.36185">
        <ele>180</ele>
        <time>2016-02-14T13:23:07Z</time>
      </trkpt>
      <trkpt lat="43.57847" lon="3.36184">
        <ele>180</ele>
        <time>2016-02-14T13:23:08Z</time>
      </trkpt>
      <trkpt lat="43.5785" lon="3.36181">
        <ele>180.5</ele>
        <time>2016-02-14T13:23:09Z</time>
      </trkpt>
      <trkpt lat="43.57853" lon="3.36179">
        <ele>181</ele>
        <time>2016-02-14T13:23:10Z</time>
      </trkpt>
      <trkpt lat="43.57855" lon="3.36178">
        <ele>181</ele>
        <time>2016-02-14T13:23:11Z</time>
      </trkpt>
      <trkpt lat="43.57858" lon="3.36175">
        <ele>181</ele>
        <time>2016-02-14T13:23:12Z</time>
      </trkpt>
      <trkpt lat="43.57859" lon="3.36173">
        <ele>180.5</ele>
        <time>2016-02-14T13:23:13Z</time>
      </trkpt>
      <trkpt lat="43.57861" lon="3.3617">
        <ele>180.5</ele>
        <time>2016-02-14T13:23:14Z</time>
      </trkpt>
      <trkpt lat="43.57862" lon="3.36168">
        <ele>181</ele>
        <time>2016-02-14T13:23:15Z</time>
      </trkpt>
      <trkpt lat="43.57863" lon="3.36166">
        <ele>181</ele>
        <time>2016-02-14T13:23:16Z</time>
      </trkpt>
      <trkpt lat="43.57864" lon="3.36163">
        <ele>181.5</ele>
        <time>2016-02-14T13:23:17Z</time>
      </trkpt>
      <trkpt lat="43.57866" lon="3.36161">
        <ele>182</ele>
        <time>2016-02-14T13:23:18Z</time>
      </trkpt>
      <trkpt lat="43.57867" lon="3.36159">
        <ele>182</ele>
        <time>2016-02-14T13:23:19Z</time>
      </trkpt>
      <trkpt lat="43.57868" lon="3.36157">
        <ele>182.5</ele>
        <time>2016-02-14T13:23:20Z</time>
      </trkpt>
      <trkpt lat="43.5787" lon="3.36156">
        <ele>182.5</ele>
        <time>2016-02-14T13:23:21Z</time>
      </trkpt>
      <trkpt lat="43.57871" lon="3.36155">
        <ele>182</ele>
        <time>2016-02-14T13:23:22Z</time>
      </trkpt>
      <trkpt lat="43.57873" lon="3.36154">
        <ele>183.5</ele>
        <time>2016-02-14T13:23:23Z</time>
      </trkpt>
      <trkpt lat="43.57875" lon="3.36153">
        <ele>184.5</ele>
        <time>2016-02-14T13:23:24Z</time>
      </trkpt>
      <trkpt lat="43.57876" lon="3.36153">
        <ele>184.5</ele>
        <time>2016-02-14T13:23:25Z</time>
      </trkpt>
      <trkpt lat="43.57877" lon="3.36153">
        <ele>184.5</ele>
        <time>2016-02-14T13:23:26Z</time>
      </trkpt>
      <trkpt lat="43.57879" lon="3.36152">
        <ele>185</ele>
        <time>2016-02-14T13:23:27Z</time>
      </trkpt>
      <trkpt lat="43.5788" lon="3.36151">
        <ele>185.5</ele>
        <time>2016-02-14T13:23:28Z</time>
      </trkpt>
      <trkpt lat="43.57882" lon="3.3615">
        <ele>185.5</ele>
        <time>2016-02-14T13:23:29Z</time>
      </trkpt>
      <trkpt lat="43.57884" lon="3.3615">
        <ele>186</ele>
        <time>2016-02-14T13:23:30Z</time>
      </trkpt>
      <trkpt lat="43.57886" lon="3.36149">
        <ele>187.5</ele>
        <time>2016-02-14T13:23:31Z</time>
      </trkpt>
      <trkpt lat="43.57888" lon="3.36149">
        <ele>187.5</ele>
        <time>2016-02-14T13:23:32Z</time>
      </trkpt>
      <trkpt lat="43.5789" lon="3.36149">
        <ele>187.5</ele>
        <time>2016-02-14T13:23:33Z</time>
      </trkpt>
      <trkpt lat="43.57892" lon="3.36148">
        <ele>187.5</ele>
        <time>2016-02-14T13:23:34Z</time>
      </trkpt>
      <trkpt lat="43.57894" lon="3.36148">
        <ele>187.5</ele>
        <time>2016-02-14T13:23:35Z</time>
      </trkpt>
      <trkpt lat="43.57896" lon="3.36147">
        <ele>186.5</ele>
        <time>2016-02-14T13:23:36Z</time>
      </trkpt>
      <trkpt lat="43.57898" lon="3.36147">
        <ele>187</ele>
        <time>2016-02-14T13:23:37Z</time>
      </trkpt>
      <trkpt lat="43.579" lon="3.36146">
        <ele>187.5</ele>
        <time>2016-02-14T13:23:38Z</time>
      </trkpt>
      <trkpt lat="43.57902" lon="3.36145">
        <ele>188</ele>
        <time>2016-02-14T13:23:39Z</time>
      </trkpt>
      <trkpt lat="43.57904" lon="3.36145">
        <ele>188.5</ele>
        <time>2016-02-14T13:23:40Z</time>
      </trkpt>
      <trkpt lat="43.57906" lon="3.36144">
        <ele>189</ele>
        <time>2016-02-14T13:23:41Z</time>
      </trkpt>
      <trkpt lat="43.57908" lon="3.36144">
        <ele>189.5</ele>
        <time>2016-02-14T13:23:42Z</time>
      </trkpt>
      <trkpt lat="43.5791" lon="3.36144">
        <ele>190</ele>
        <time>2016-02-14T13:23:43Z</time>
      </trkpt>
      <trkpt lat="43.57912" lon="3.36143">
        <ele>191</ele>
        <time>2016-02-14T13:23:44Z</time>
      </trkpt>
      <trkpt lat="43.57914" lon="3.36143">
        <ele>191.5</ele>
        <time>2016-02-14T13:23:45Z</time>
      </trkpt>
      <trkpt lat="43.57916" lon="3.36142">
        <ele>191</ele>
        <time>2016-02-14T13:23:46Z</time>
      </trkpt>
      <trkpt lat="43.57917" lon="3.3614">
        <ele>190.5</ele>
        <time>2016-02-14T13:23:47Z</time>
      </trkpt>
      <trkpt lat="43.57919" lon="3.36138">
        <ele>190</ele>
        <time>2016-02-14T13:23:48Z</time>
      </trkpt>
      <trkpt lat="43.5792" lon="3.36137">
        <ele>191</ele>
        <time>2016-02-14T13:23:49Z</time>
      </trkpt>
      <trkpt lat="43.57922" lon="3.36135">
        <ele>191.5</ele>
        <time>2016-02-14T13:23:50Z</time>
      </trkpt>
      <trkpt lat="43.57923" lon="3.36133">
        <ele>191.5</ele>
        <time>2016-02-14T13:23:51Z</time>
      </trkpt>
      <trkpt lat="43.57925" lon="3.36131">
        <ele>191.5</ele>
        <time>2016-02-14T13:23:52Z</time>
      </trkpt>
      <trkpt lat="43.57927" lon="3.36129">
        <ele>191</ele>
        <time>2016-02-14T13:23:53Z</time>
      </trkpt>
      <trkpt lat="43.57928" lon="3.36127">
        <ele>191</ele>
        <time>2016-02-14T13:23:54Z</time>
      </trkpt>
      <trkpt lat="43.57929" lon="3.36125">
        <ele>190.5</ele>
        <time>2016-02-14T13:23:55Z</time>
      </trkpt>
      <trkpt lat="43.5793" lon="3.36123">
        <ele>190</ele>
        <time>2016-02-14T13:23:56Z</time>
      </trkpt>
      <trkpt lat="43.57932" lon="3.36121">
        <ele>190.5</ele>
        <time>2016-02-14T13:23:57Z</time>
      </trkpt>
      <trkpt lat="43.57933" lon="3.36119">
        <ele>191</ele>
        <time>2016-02-14T13:23:58Z</time>
      </trkpt>
      <trkpt lat="43.57934" lon="3.36117">
        <ele>191</ele>
        <time>2016-02-14T13:23:59Z</time>
      </trkpt>
      <trkpt lat="43.57936" lon="3.36115">
        <ele>191</ele>
        <time>2016-02-14T13:24:00Z</time>
      </trkpt>
      <trkpt lat="43.57938" lon="3.36113">
        <ele>192</ele>
        <time>2016-02-14T13:24:01Z</time>
      </trkpt>
      <trkpt lat="43.5794" lon="3.3611">
        <ele>193</ele>
        <time>2016-02-14T13:24:02Z</time>
      </trkpt>
      <trkpt lat="43.57942" lon="3.36108">
        <ele>193.5</ele>
        <time>2016-02-14T13:24:03Z</time>
      </trkpt>
      <trkpt lat="43.57944" lon="3.36105">
        <ele>194.5</ele>
        <time>2016-02-14T13:24:04Z</time>
      </trkpt>
      <trkpt lat="43.57946" lon="3.36103">
        <ele>196.5</ele>
        <time>2016-02-14T13:24:05Z</time>
      </trkpt>
      <trkpt lat="43.57949" lon="3.361">
        <ele>198</ele>
        <time>2016-02-14T13:24:06Z</time>
      </trkpt>
      <trkpt lat="43.5795" lon="3.36098">
        <ele>198.5</ele>
        <time>2016-02-14T13:24:07Z</time>
      </trkpt>
      <trkpt lat="43.57952" lon="3.36095">
        <ele>199</ele>
        <time>2016-02-14T13:24:08Z</time>
      </trkpt>
      <trkpt lat="43.57954" lon="3.36093">
        <ele>200</ele>
        <time>2016-02-14T13:24:09Z</time>
      </trkpt>
      <trkpt lat="43.57956" lon="3.36091">
        <ele>201.5</ele>
        <time>2016-02-14T13:24:10Z</time>
      </trkpt>
      <trkpt lat="43.57958" lon="3.36088">
        <ele>202</ele>
        <time>2016-02-14T13:24:11Z</time>
      </trkpt>
      <trkpt lat="43.57959" lon="3.36084">
        <ele>202</ele>
        <time>2016-02-14T13:24:12Z</time>
      </trkpt>
      <trkpt lat="43.57961" lon="3.36081">
        <ele>202.5</ele>
        <time>2016-02-14T13:24:13Z</time>
      </trkpt>
      <trkpt lat="43.57963" lon="3.36078">
        <ele>203</ele>
        <time>2016-02-14T13:24:14Z</time>
      </trkpt>
      <trkpt lat="43.57965" lon="3.36075">
        <ele>203.5</ele>
        <time>2016-02-14T13:24:15Z</time>
      </trkpt>
      <trkpt lat="43.57967" lon="3.36073">
        <ele>203.5</ele>
        <time>2016-02-14T13:24:16Z</time>
      </trkpt>
      <trkpt lat="43.57968" lon="3.36069">
        <ele>203</ele>
        <time>2016-02-14T13:24:17Z</time>
      </trkpt>
      <trkpt lat="43.5797" lon="3.36067">
        <ele>203</ele>
        <time>2016-02-14T13:24:18Z</time>
      </trkpt>
      <trkpt lat="43.57972" lon="3.36064">
        <ele>203.5</ele>
        <time>2016-02-14T13:24:19Z</time>
      </trkpt>
      <trkpt lat="43.57973" lon="3.36061">
        <ele>203.5</ele>
        <time>2016-02-14T13:24:20Z</time>
      </trkpt>
      <trkpt lat="43.57974" lon="3.36058">
        <ele>203</ele>
        <time>2016-02-14T13:24:21Z</time>
      </trkpt>
      <trkpt lat="43.57976" lon="3.36055">
        <ele>203.5</ele>
        <time>2016-02-14T13:24:22Z</time>
      </trkpt>
      <trkpt lat="43.57978" lon="3.36053">
        <ele>203.5</ele>
        <time>2016-02-14T13:24:23Z</time>
      </trkpt>
      <trkpt lat="43.5798" lon="3.3605">
        <ele>204</ele>
        <time>2016-02-14T13:24:24Z</time>
      </trkpt>
      <trkpt lat="43.57982" lon="3.36048">
        <ele>204.5</ele>
        <time>2016-02-14T13:24:25Z</time>
      </trkpt>
      <trkpt lat="43.57983" lon="3.36045">
        <ele>204.5</ele>
        <time>2016-02-14T13:24:26Z</time>
      </trkpt>
      <trkpt lat="43.57985" lon="3.36042">
        <ele>205</ele>
        <time>2016-02-14T13:24:27Z</time>
      </trkpt>
      <trkpt lat="43.57986" lon="3.36039">
        <ele>205</ele>
        <time>2016-02-14T13:24:28Z</time>
      </trkpt>
      <trkpt lat="43.57988" lon="3.36036">
        <ele>204</ele>
        <time>2016-02-14T13:24:29Z</time>
      </trkpt>
      <trkpt lat="43.57989" lon="3.36033">
        <ele>203.5</ele>
        <time>2016-02-14T13:24:30Z</time>
      </trkpt>
      <trkpt lat="43.5799" lon="3.36029">
        <ele>202</ele>
        <time>2016-02-14T13:24:31Z</time>
      </trkpt>
      <trkpt lat="43.57991" lon="3.36026">
        <ele>200.5</ele>
        <time>2016-02-14T13:24:32Z</time>
      </trkpt>
      <trkpt lat="43.57992" lon="3.36023">
        <ele>199</ele>
        <time>2016-02-14T13:24:33Z</time>
      </trkpt>
      <trkpt lat="43.57994" lon="3.36021">
        <ele>198.5</ele>
        <time>2016-02-14T13:24:34Z</time>
      </trkpt>
      <trkpt lat="43.57995" lon="3.36018">
        <ele>198</ele>
        <time>2016-02-14T13:24:35Z</time>
      </trkpt>
      <trkpt lat="43.57997" lon="3.36015">
        <ele>197.5</ele>
        <time>2016-02-14T13:24:36Z</time>
      </trkpt>
      <trkpt lat="43.57999" lon="3.36013">
        <ele>197.5</ele>
        <time>2016-02-14T13:24:37Z</time>
      </trkpt>
      <trkpt lat="43.58" lon="3.3601">
        <ele>197</ele>
        <time>2016-02-14T13:24:38Z</time>
      </trkpt>
      <trkpt lat="43.58003" lon="3.36008">
        <ele>197.5</ele>
        <time>2016-02-14T13:24:39Z</time>
      </trkpt>
      <trkpt lat="43.58004" lon="3.36005">
        <ele>197.5</ele>
        <time>2016-02-14T13:24:40Z</time>
      </trkpt>
      <trkpt lat="43.58006" lon="3.36002">
        <ele>197</ele>
        <time>2016-02-14T13:24:41Z</time>
      </trkpt>
      <trkpt lat="43.58007" lon="3.35999">
        <ele>196.5</ele>
        <time>2016-02-14T13:24:42Z</time>
      </trkpt>
      <trkpt lat="43.58008" lon="3.35996">
        <ele>197</ele>
        <time>2016-02-14T13:24:43Z</time>
      </trkpt>
      <trkpt lat="43.5801" lon="3.35994">
        <ele>197.5</ele>
        <time>2016-02-14T13:24:44Z</time>
      </trkpt>
      <trkpt lat="43.58011" lon="3.35989">
        <ele>196</ele>
        <time>2016-02-14T13:24:45Z</time>
      </trkpt>
      <trkpt lat="43.58012" lon="3.35985">
        <ele>195.5</ele>
        <time>2016-02-14T13:24:46Z</time>
      </trkpt>
      <trkpt lat="43.58014" lon="3.35981">
        <ele>194.5</ele>
        <time>2016-02-14T13:24:47Z</time>
      </trkpt>
      <trkpt lat="43.58016" lon="3.35978">
        <ele>194.5</ele>
        <time>2016-02-14T13:24:48Z</time>
      </trkpt>
      <trkpt lat="43.58017" lon="3.35975">
        <ele>194</ele>
        <time>2016-02-14T13:24:49Z</time>
      </trkpt>
      <trkpt lat="43.58018" lon="3.3597">
        <ele>191.5</ele>
        <time>2016-02-14T13:24:50Z</time>
      </trkpt>
      <trkpt lat="43.58019" lon="3.35967">
        <ele>191</ele>
        <time>2016-02-14T13:24:51Z</time>
      </trkpt>
      <trkpt lat="43.5802" lon="3.35965">
        <ele>191</ele>
        <time>2016-02-14T13:24:52Z</time>
      </trkpt>
      <trkpt lat="43.58022" lon="3.35962">
        <ele>191.5</ele>
        <time>2016-02-14T13:24:53Z</time>
      </trkpt>
      <trkpt lat="43.58025" lon="3.3596">
        <ele>192</ele>
        <time>2016-02-14T13:24:54Z</time>
      </trkpt>
      <trkpt lat="43.58026" lon="3.35957">
        <ele>192</ele>
        <time>2016-02-14T13:24:55Z</time>
      </trkpt>
      <trkpt lat="43.58028" lon="3.35954">
        <ele>192</ele>
        <time>2016-02-14T13:24:56Z</time>
      </trkpt>
      <trkpt lat="43.5803" lon="3.35952">
        <ele>192</ele>
        <time>2016-02-14T13:24:57Z</time>
      </trkpt>
      <trkpt lat="43.58031" lon="3.35949">
        <ele>192</ele>
        <time>2016-02-14T13:24:58Z</time>
      </trkpt>
      <trkpt lat="43.58033" lon="3.35946">
        <ele>192</ele>
        <time>2016-02-14T13:24:59Z</time>
      </trkpt>
      <trkpt lat="43.58034" lon="3.35943">
        <ele>191</ele>
        <time>2016-02-14T13:25:00Z</time>
      </trkpt>
      <trkpt lat="43.58035" lon="3.3594">
        <ele>190.5</ele>
        <time>2016-02-14T13:25:01Z</time>
      </trkpt>
      <trkpt lat="43.58036" lon="3.35937">
        <ele>190</ele>
        <time>2016-02-14T13:25:02Z</time>
      </trkpt>
      <trkpt lat="43.58038" lon="3.35934">
        <ele>190.5</ele>
        <time>2016-02-14T13:25:03Z</time>
      </trkpt>
      <trkpt lat="43.58039" lon="3.3593">
        <ele>190.5</ele>
        <time>2016-02-14T13:25:04Z</time>
      </trkpt>
      <trkpt lat="43.58041" lon="3.35928">
        <ele>190.5</ele>
        <time>2016-02-14T13:25:05Z</time>
      </trkpt>
      <trkpt lat="43.58042" lon="3.35926">
        <ele>191</ele>
        <time>2016-02-14T13:25:06Z</time>
      </trkpt>
      <trkpt lat="43.58044" lon="3.35924">
        <ele>191.5</ele>
        <time>2016-02-14T13:25:07Z</time>
      </trkpt>
      <trkpt lat="43.58045" lon="3.35921">
        <ele>191.5</ele>
        <time>2016-02-14T13:25:08Z</time>
      </trkpt>
      <trkpt lat="43.58046" lon="3.35919">
        <ele>192.5</ele>
        <time>2016-02-14T13:25:09Z</time>
      </trkpt>
      <trkpt lat="43.58048" lon="3.35916">
        <ele>193.5</ele>
        <time>2016-02-14T13:25:10Z</time>
      </trkpt>
      <trkpt lat="43.5805" lon="3.35913">
        <ele>194.5</ele>
        <time>2016-02-14T13:25:11Z</time>
      </trkpt>
      <trkpt lat="43.58051" lon="3.35911">
        <ele>195</ele>
        <time>2016-02-14T13:25:12Z</time>
      </trkpt>
      <trkpt lat="43.58052" lon="3.35908">
        <ele>194.5</ele>
        <time>2016-02-14T13:25:13Z</time>
      </trkpt>
      <trkpt lat="43.58053" lon="3.35905">
        <ele>195.5</ele>
        <time>2016-02-14T13:25:14Z</time>
      </trkpt>
      <trkpt lat="43.58054" lon="3.35903">
        <ele>195.5</ele>
        <time>2016-02-14T13:25:15Z</time>
      </trkpt>
      <trkpt lat="43.58055" lon="3.359">
        <ele>196</ele>
        <time>2016-02-14T13:25:16Z</time>
      </trkpt>
      <trkpt lat="43.58057" lon="3.35898">
        <ele>196.5</ele>
        <time>2016-02-14T13:25:17Z</time>
      </trkpt>
      <trkpt lat="43.58058" lon="3.35896">
        <ele>197</ele>
        <time>2016-02-14T13:25:18Z</time>
      </trkpt>
      <trkpt lat="43.58059" lon="3.35894">
        <ele>197</ele>
        <time>2016-02-14T13:25:19Z</time>
      </trkpt>
      <trkpt lat="43.5806" lon="3.35891">
        <ele>197.5</ele>
        <time>2016-02-14T13:25:20Z</time>
      </trkpt>
      <trkpt lat="43.58061" lon="3.35889">
        <ele>198.5</ele>
        <time>2016-02-14T13:25:21Z</time>
      </trkpt>
      <trkpt lat="43.58062" lon="3.35887">
        <ele>198.5</ele>
        <time>2016-02-14T13:25:22Z</time>
      </trkpt>
      <trkpt lat="43.58063" lon="3.35885">
        <ele>198.5</ele>
        <time>2016-02-14T13:25:23Z</time>
      </trkpt>
      <trkpt lat="43.58064" lon="3.35883">
        <ele>198.5</ele>
        <time>2016-02-14T13:25:24Z</time>
      </trkpt>
      <trkpt lat="43.58065" lon="3.3588">
        <ele>198.5</ele>
        <time>2016-02-14T13:25:25Z</time>
      </trkpt>
      <trkpt lat="43.58066" lon="3.35878">
        <ele>198.5</ele>
        <time>2016-02-14T13:25:26Z</time>
      </trkpt>
      <trkpt lat="43.58067" lon="3.35875">
        <ele>198.5</ele>
        <time>2016-02-14T13:25:27Z</time>
      </trkpt>
      <trkpt lat="43.58068" lon="3.35873">
        <ele>198</ele>
        <time>2016-02-14T13:25:27Z</time>
      </trkpt>
      <trkpt lat="43.58069" lon="3.35871">
        <ele>198.5</ele>
        <time>2016-02-14T13:25:29Z</time>
      </trkpt>
      <trkpt lat="43.5807" lon="3.35868">
        <ele>199</ele>
        <time>2016-02-14T13:25:29Z</time>
      </trkpt>
      <trkpt lat="43.58071" lon="3.35866">
        <ele>199</ele>
        <time>2016-02-14T13:25:30Z</time>
      </trkpt>
      <trkpt lat="43.58072" lon="3.35863">
        <ele>199</ele>
        <time>2016-02-14T13:25:31Z</time>
      </trkpt>
      <trkpt lat="43.58073" lon="3.3586">
        <ele>199.5</ele>
        <time>2016-02-14T13:25:32Z</time>
      </trkpt>
      <trkpt lat="43.58074" lon="3.35858">
        <ele>199</ele>
        <time>2016-02-14T13:25:34Z</time>
      </trkpt>
      <trkpt lat="43.58075" lon="3.35855">
        <ele>199</ele>
        <time>2016-02-14T13:25:34Z</time>
      </trkpt>
      <trkpt lat="43.58076" lon="3.35853">
        <ele>198.5</ele>
        <time>2016-02-14T13:25:35Z</time>
      </trkpt>
      <trkpt lat="43.58078" lon="3.35851">
        <ele>199</ele>
        <time>2016-02-14T13:25:37Z</time>
      </trkpt>
      <trkpt lat="43.58077" lon="3.35846">
        <ele>196.5</ele>
        <time>2016-02-14T13:25:37Z</time>
      </trkpt>
      <trkpt lat="43.58078" lon="3.35843">
        <ele>196.5</ele>
        <time>2016-02-14T13:25:39Z</time>
      </trkpt>
      <trkpt lat="43.58078" lon="3.35841">
        <ele>196</ele>
        <time>2016-02-14T13:25:39Z</time>
      </trkpt>
      <trkpt lat="43.58079" lon="3.35838">
        <ele>195.5</ele>
        <time>2016-02-14T13:25:40Z</time>
      </trkpt>
      <trkpt lat="43.58079" lon="3.35836">
        <ele>194.5</ele>
        <time>2016-02-14T13:25:41Z</time>
      </trkpt>
      <trkpt lat="43.5808" lon="3.35833">
        <ele>194.5</ele>
        <time>2016-02-14T13:25:43Z</time>
      </trkpt>
      <trkpt lat="43.58081" lon="3.3583">
        <ele>195.5</ele>
        <time>2016-02-14T13:25:43Z</time>
      </trkpt>
      <trkpt lat="43.58082" lon="3.35827">
        <ele>195.5</ele>
        <time>2016-02-14T13:25:44Z</time>
      </trkpt>
      <trkpt lat="43.58084" lon="3.35824">
        <ele>195.5</ele>
        <time>2016-02-14T13:25:45Z</time>
      </trkpt>
      <trkpt lat="43.58085" lon="3.35821">
        <ele>196.5</ele>
        <time>2016-02-14T13:25:46Z</time>
      </trkpt>
      <trkpt lat="43.58086" lon="3.35819">
        <ele>196.5</ele>
        <time>2016-02-14T13:25:48Z</time>
      </trkpt>
      <trkpt lat="43.58087" lon="3.35817">
        <ele>197.5</ele>
        <time>2016-02-14T13:25:48Z</time>
      </trkpt>
      <trkpt lat="43.58088" lon="3.35815">
        <ele>197.5</ele>
        <time>2016-02-14T13:25:49Z</time>
      </trkpt>
      <trkpt lat="43.58089" lon="3.35814">
        <ele>197.5</ele>
        <time>2016-02-14T13:25:51Z</time>
      </trkpt>
      <trkpt lat="43.5809" lon="3.35812">
        <ele>197.5</ele>
        <time>2016-02-14T13:25:52Z</time>
      </trkpt>
      <trkpt lat="43.58091" lon="3.3581">
        <ele>197.5</ele>
        <time>2016-02-14T13:25:53Z</time>
      </trkpt>
      <trkpt lat="43.58092" lon="3.35808">
        <ele>197</ele>
        <time>2016-02-14T13:25:53Z</time>
      </trkpt>
      <trkpt lat="43.58093" lon="3.35806">
        <ele>196.5</ele>
        <time>2016-02-14T13:25:54Z</time>
      </trkpt>
      <trkpt lat="43.58094" lon="3.35804">
        <ele>196</ele>
        <time>2016-02-14T13:25:55Z</time>
      </trkpt>
      <trkpt lat="43.58095" lon="3.35801">
        <ele>196</ele>
        <time>2016-02-14T13:25:56Z</time>
      </trkpt>
      <trkpt lat="43.58096" lon="3.35799">
        <ele>196</ele>
        <time>2016-02-14T13:25:57Z</time>
      </trkpt>
      <trkpt lat="43.58097" lon="3.35797">
        <ele>196</ele>
        <time>2016-02-14T13:25:58Z</time>
      </trkpt>
      <trkpt lat="43.58098" lon="3.35795">
        <ele>196</ele>
        <time>2016-02-14T13:26:00Z</time>
      </trkpt>
      <trkpt lat="43.58099" lon="3.35793">
        <ele>195.5</ele>
        <time>2016-02-14T13:26:00Z</time>
      </trkpt>
      <trkpt lat="43.58099" lon="3.3579">
        <ele>195.5</ele>
        <time>2016-02-14T13:26:01Z</time>
      </trkpt>
      <trkpt lat="43.581" lon="3.35788">
        <ele>195</ele>
        <time>2016-02-14T13:26:02Z</time>
      </trkpt>
      <trkpt lat="43.58101" lon="3.35786">
        <ele>195</ele>
        <time>2016-02-14T13:26:03Z</time>
      </trkpt>
      <trkpt lat="43.58101" lon="3.35784">
        <ele>195</ele>
        <time>2016-02-14T13:26:04Z</time>
      </trkpt>
      <trkpt lat="43.58102" lon="3.35781">
        <ele>195</ele>
        <time>2016-02-14T13:26:05Z</time>
      </trkpt>
      <trkpt lat="43.58102" lon="3.35779">
        <ele>194.5</ele>
        <time>2016-02-14T13:26:06Z</time>
      </trkpt>
      <trkpt lat="43.58102" lon="3.35777">
        <ele>194</ele>
        <time>2016-02-14T13:26:07Z</time>
      </trkpt>
      <trkpt lat="43.58103" lon="3.35774">
        <ele>194</ele>
        <time>2016-02-14T13:26:08Z</time>
      </trkpt>
      <trkpt lat="43.58104" lon="3.35772">
        <ele>194</ele>
        <time>2016-02-14T13:26:09Z</time>
      </trkpt>
      <trkpt lat="43.58104" lon="3.3577">
        <ele>193.5</ele>
        <time>2016-02-14T13:26:11Z</time>
      </trkpt>
      <trkpt lat="43.58104" lon="3.35767">
        <ele>194</ele>
        <time>2016-02-14T13:26:11Z</time>
      </trkpt>
      <trkpt lat="43.58105" lon="3.35765">
        <ele>194</ele>
        <time>2016-02-14T13:26:12Z</time>
      </trkpt>
      <trkpt lat="43.58106" lon="3.35762">
        <ele>194</ele>
        <time>2016-02-14T13:26:13Z</time>
      </trkpt>
      <trkpt lat="43.58106" lon="3.3576">
        <ele>194.5</ele>
        <time>2016-02-14T13:26:14Z</time>
      </trkpt>
      <trkpt lat="43.58107" lon="3.35757">
        <ele>194.5</ele>
        <time>2016-02-14T13:26:15Z</time>
      </trkpt>
      <trkpt lat="43.58107" lon="3.35755">
        <ele>194.5</ele>
        <time>2016-02-14T13:26:16Z</time>
      </trkpt>
      <trkpt lat="43.58108" lon="3.35752">
        <ele>195</ele>
        <time>2016-02-14T13:26:17Z</time>
      </trkpt>
      <trkpt lat="43.58109" lon="3.3575">
        <ele>195</ele>
        <time>2016-02-14T13:26:18Z</time>
      </trkpt>
      <trkpt lat="43.5811" lon="3.35748">
        <ele>194.5</ele>
        <time>2016-02-14T13:26:19Z</time>
      </trkpt>
      <trkpt lat="43.58111" lon="3.35745">
        <ele>195.5</ele>
        <time>2016-02-14T13:26:20Z</time>
      </trkpt>
      <trkpt lat="43.58112" lon="3.35743">
        <ele>195.5</ele>
        <time>2016-02-14T13:26:21Z</time>
      </trkpt>
      <trkpt lat="43.58113" lon="3.3574">
        <ele>195.5</ele>
        <time>2016-02-14T13:26:22Z</time>
      </trkpt>
      <trkpt lat="43.58113" lon="3.35738">
        <ele>196</ele>
        <time>2016-02-14T13:26:23Z</time>
      </trkpt>
      <trkpt lat="43.58114" lon="3.35735">
        <ele>197</ele>
        <time>2016-02-14T13:26:24Z</time>
      </trkpt>
      <trkpt lat="43.58115" lon="3.35733">
        <ele>197.5</ele>
        <time>2016-02-14T13:26:25Z</time>
      </trkpt>
      <trkpt lat="43.58116" lon="3.3573">
        <ele>198</ele>
        <time>2016-02-14T13:26:26Z</time>
      </trkpt>
      <trkpt lat="43.58116" lon="3.35728">
        <ele>198.5</ele>
        <time>2016-02-14T13:26:27Z</time>
      </trkpt>
      <trkpt lat="43.58117" lon="3.35725">
        <ele>200.5</ele>
        <time>2016-02-14T13:26:28Z</time>
      </trkpt>
      <trkpt lat="43.58118" lon="3.35723">
        <ele>202.5</ele>
        <time>2016-02-14T13:26:29Z</time>
      </trkpt>
      <trkpt lat="43.58119" lon="3.35721">
        <ele>203.5</ele>
        <time>2016-02-14T13:26:30Z</time>
      </trkpt>
      <trkpt lat="43.5812" lon="3.35718">
        <ele>204</ele>
        <time>2016-02-14T13:26:31Z</time>
      </trkpt>
      <trkpt lat="43.58121" lon="3.35715">
        <ele>204.5</ele>
        <time>2016-02-14T13:26:32Z</time>
      </trkpt>
      <trkpt lat="43.58123" lon="3.35711">
        <ele>205.5</ele>
        <time>2016-02-14T13:26:33Z</time>
      </trkpt>
      <trkpt lat="43.58124" lon="3.35709">
        <ele>206</ele>
        <time>2016-02-14T13:26:34Z</time>
      </trkpt>
      <trkpt lat="43.58125" lon="3.35706">
        <ele>206.5</ele>
        <time>2016-02-14T13:26:35Z</time>
      </trkpt>
      <trkpt lat="43.58126" lon="3.35704">
        <ele>206.5</ele>
        <time>2016-02-14T13:26:36Z</time>
      </trkpt>
      <trkpt lat="43.58128" lon="3.35701">
        <ele>207</ele>
        <time>2016-02-14T13:26:37Z</time>
      </trkpt>
      <trkpt lat="43.58129" lon="3.35698">
        <ele>207.5</ele>
        <time>2016-02-14T13:26:38Z</time>
      </trkpt>
      <trkpt lat="43.58131" lon="3.35695">
        <ele>207.5</ele>
        <time>2016-02-14T13:26:39Z</time>
      </trkpt>
      <trkpt lat="43.58132" lon="3.35692">
        <ele>207.5</ele>
        <time>2016-02-14T13:26:40Z</time>
      </trkpt>
      <trkpt lat="43.58134" lon="3.35689">
        <ele>208.5</ele>
        <time>2016-02-14T13:26:41Z</time>
      </trkpt>
      <trkpt lat="43.58136" lon="3.35686">
        <ele>209.5</ele>
        <time>2016-02-14T13:26:42Z</time>
      </trkpt>
      <trkpt lat="43.58138" lon="3.35682">
        <ele>210.5</ele>
        <time>2016-02-14T13:26:43Z</time>
      </trkpt>
      <trkpt lat="43.5814" lon="3.35679">
        <ele>210</ele>
        <time>2016-02-14T13:26:44Z</time>
      </trkpt>
      <trkpt lat="43.58141" lon="3.35675">
        <ele>210</ele>
        <time>2016-02-14T13:26:45Z</time>
      </trkpt>
      <trkpt lat="43.58143" lon="3.35671">
        <ele>211</ele>
        <time>2016-02-14T13:26:46Z</time>
      </trkpt>
      <trkpt lat="43.58144" lon="3.35666">
        <ele>210</ele>
        <time>2016-02-14T13:26:47Z</time>
      </trkpt>
      <trkpt lat="43.58145" lon="3.35661">
        <ele>210</ele>
        <time>2016-02-14T13:26:48Z</time>
      </trkpt>
      <trkpt lat="43.58147" lon="3.35657">
        <ele>210</ele>
        <time>2016-02-14T13:26:49Z</time>
      </trkpt>
      <trkpt lat="43.58149" lon="3.35653">
        <ele>211.5</ele>
        <time>2016-02-14T13:26:50Z</time>
      </trkpt>
      <trkpt lat="43.5815" lon="3.35649">
        <ele>211</ele>
        <time>2016-02-14T13:26:51Z</time>
      </trkpt>
      <trkpt lat="43.58151" lon="3.35645">
        <ele>210</ele>
        <time>2016-02-14T13:26:52Z</time>
      </trkpt>
      <trkpt lat="43.58153" lon="3.3564">
        <ele>209</ele>
        <time>2016-02-14T13:26:53Z</time>
      </trkpt>
      <trkpt lat="43.58154" lon="3.35635">
        <ele>207.5</ele>
        <time>2016-02-14T13:26:54Z</time>
      </trkpt>
      <trkpt lat="43.58155" lon="3.35629">
        <ele>207.5</ele>
        <time>2016-02-14T13:26:55Z</time>
      </trkpt>
      <trkpt lat="43.58157" lon="3.35624">
        <ele>208</ele>
        <time>2016-02-14T13:26:56Z</time>
      </trkpt>
      <trkpt lat="43.58159" lon="3.35619">
        <ele>208.5</ele>
        <time>2016-02-14T13:26:57Z</time>
      </trkpt>
      <trkpt lat="43.58161" lon="3.35614">
        <ele>208</ele>
        <time>2016-02-14T13:26:58Z</time>
      </trkpt>
      <trkpt lat="43.58163" lon="3.35609">
        <ele>208.5</ele>
        <time>2016-02-14T13:26:59Z</time>
      </trkpt>
      <trkpt lat="43.58164" lon="3.35603">
        <ele>209</ele>
        <time>2016-02-14T13:27:01Z</time>
      </trkpt>
      <trkpt lat="43.58166" lon="3.35591">
        <ele>208.5</ele>
        <time>2016-02-14T13:27:02Z</time>
      </trkpt>
      <trkpt lat="43.58166" lon="3.35585">
        <ele>208.5</ele>
        <time>2016-02-14T13:27:03Z</time>
      </trkpt>
      <trkpt lat="43.58167" lon="3.35578">
        <ele>208.5</ele>
        <time>2016-02-14T13:27:04Z</time>
      </trkpt>
      <trkpt lat="43.58167" lon="3.35571">
        <ele>208</ele>
        <time>2016-02-14T13:27:05Z</time>
      </trkpt>
      <trkpt lat="43.58168" lon="3.35564">
        <ele>208.5</ele>
        <time>2016-02-14T13:27:06Z</time>
      </trkpt>
      <trkpt lat="43.5817" lon="3.35558">
        <ele>208.5</ele>
        <time>2016-02-14T13:27:07Z</time>
      </trkpt>
      <trkpt lat="43.5817" lon="3.35553">
        <ele>207.5</ele>
        <time>2016-02-14T13:27:08Z</time>
      </trkpt>
      <trkpt lat="43.5817" lon="3.35546">
        <ele>205.5</ele>
        <time>2016-02-14T13:27:09Z</time>
      </trkpt>
      <trkpt lat="43.58171" lon="3.3554">
        <ele>204</ele>
        <time>2016-02-14T13:27:10Z</time>
      </trkpt>
      <trkpt lat="43.58172" lon="3.35533">
        <ele>204</ele>
        <time>2016-02-14T13:27:11Z</time>
      </trkpt>
      <trkpt lat="43.58173" lon="3.35526">
        <ele>204</ele>
        <time>2016-02-14T13:27:12Z</time>
      </trkpt>
      <trkpt lat="43.58173" lon="3.35519">
        <ele>203</ele>
        <time>2016-02-14T13:27:13Z</time>
      </trkpt>
      <trkpt lat="43.58174" lon="3.35512">
        <ele>203.5</ele>
        <time>2016-02-14T13:27:14Z</time>
      </trkpt>
      <trkpt lat="43.58175" lon="3.35504">
        <ele>203</ele>
        <time>2016-02-14T13:27:15Z</time>
      </trkpt>
      <trkpt lat="43.58176" lon="3.35499">
        <ele>203.5</ele>
        <time>2016-02-14T13:27:16Z</time>
      </trkpt>
      <trkpt lat="43.58177" lon="3.35494">
        <ele>202.5</ele>
        <time>2016-02-14T13:27:17Z</time>
      </trkpt>
      <trkpt lat="43.5818" lon="3.35489">
        <ele>203</ele>
        <time>2016-02-14T13:27:18Z</time>
      </trkpt>
      <trkpt lat="43.58183" lon="3.35486">
        <ele>201.5</ele>
        <time>2016-02-14T13:27:19Z</time>
      </trkpt>
      <trkpt lat="43.58184" lon="3.35482">
        <ele>202</ele>
        <time>2016-02-14T13:27:20Z</time>
      </trkpt>
      <trkpt lat="43.58185" lon="3.35477">
        <ele>201.5</ele>
        <time>2016-02-14T13:27:21Z</time>
      </trkpt>
      <trkpt lat="43.58186" lon="3.35472">
        <ele>202.5</ele>
        <time>2016-02-14T13:27:22Z</time>
      </trkpt>
      <trkpt lat="43.58187" lon="3.35468">
        <ele>204.5</ele>
        <time>2016-02-14T13:27:23Z</time>
      </trkpt>
      <trkpt lat="43.58188" lon="3.35464">
        <ele>205</ele>
        <time>2016-02-14T13:27:24Z</time>
      </trkpt>
      <trkpt lat="43.58188" lon="3.3546">
        <ele>205</ele>
        <time>2016-02-14T13:27:25Z</time>
      </trkpt>
      <trkpt lat="43.58188" lon="3.35455">
        <ele>206</ele>
        <time>2016-02-14T13:27:26Z</time>
      </trkpt>
      <trkpt lat="43.58188" lon="3.3545">
        <ele>207</ele>
        <time>2016-02-14T13:27:27Z</time>
      </trkpt>
      <trkpt lat="43.58187" lon="3.35445">
        <ele>207</ele>
        <time>2016-02-14T13:27:28Z</time>
      </trkpt>
      <trkpt lat="43.58186" lon="3.35443">
        <ele>207</ele>
        <time>2016-02-14T13:27:29Z</time>
      </trkpt>
      <trkpt lat="43.58185" lon="3.35439">
        <ele>209.5</ele>
        <time>2016-02-14T13:27:30Z</time>
      </trkpt>
      <trkpt lat="43.58183" lon="3.35435">
        <ele>210</ele>
        <time>2016-02-14T13:27:31Z</time>
      </trkpt>
      <trkpt lat="43.58182" lon="3.35432">
        <ele>210.5</ele>
        <time>2016-02-14T13:27:32Z</time>
      </trkpt>
      <trkpt lat="43.58181" lon="3.35428">
        <ele>211</ele>
        <time>2016-02-14T13:27:33Z</time>
      </trkpt>
      <trkpt lat="43.58179" lon="3.35425">
        <ele>211.5</ele>
        <time>2016-02-14T13:27:34Z</time>
      </trkpt>
      <trkpt lat="43.58178" lon="3.35421">
        <ele>212</ele>
        <time>2016-02-14T13:27:35Z</time>
      </trkpt>
      <trkpt lat="43.58177" lon="3.35418">
        <ele>212.5</ele>
        <time>2016-02-14T13:27:36Z</time>
      </trkpt>
      <trkpt lat="43.58176" lon="3.35416">
        <ele>212.5</ele>
        <time>2016-02-14T13:27:37Z</time>
      </trkpt>
      <trkpt lat="43.58175" lon="3.35413">
        <ele>212.5</ele>
        <time>2016-02-14T13:27:38Z</time>
      </trkpt>
      <trkpt lat="43.58174" lon="3.3541">
        <ele>213</ele>
        <time>2016-02-14T13:27:39Z</time>
      </trkpt>
      <trkpt lat="43.58173" lon="3.35408">
        <ele>213.5</ele>
        <time>2016-02-14T13:27:40Z</time>
      </trkpt>
      <trkpt lat="43.58172" lon="3.35406">
        <ele>214.5</ele>
        <time>2016-02-14T13:27:41Z</time>
      </trkpt>
      <trkpt lat="43.58171" lon="3.35403">
        <ele>215</ele>
        <time>2016-02-14T13:27:42Z</time>
      </trkpt>
      <trkpt lat="43.5817" lon="3.35401">
        <ele>215</ele>
        <time>2016-02-14T13:27:43Z</time>
      </trkpt>
      <trkpt lat="43.5817" lon="3.35398">
        <ele>216</ele>
        <time>2016-02-14T13:27:44Z</time>
      </trkpt>
      <trkpt lat="43.5817" lon="3.35396">
        <ele>217</ele>
        <time>2016-02-14T13:27:45Z</time>
      </trkpt>
      <trkpt lat="43.58169" lon="3.35393">
        <ele>217</ele>
        <time>2016-02-14T13:27:46Z</time>
      </trkpt>
      <trkpt lat="43.58169" lon="3.35391">
        <ele>218.5</ele>
        <time>2016-02-14T13:27:47Z</time>
      </trkpt>
      <trkpt lat="43.58169" lon="3.35389">
        <ele>219</ele>
        <time>2016-02-14T13:27:48Z</time>
      </trkpt>
      <trkpt lat="43.58169" lon="3.35386">
        <ele>219.5</ele>
        <time>2016-02-14T13:27:49Z</time>
      </trkpt>
      <trkpt lat="43.58168" lon="3.35385">
        <ele>221</ele>
        <time>2016-02-14T13:27:50Z</time>
      </trkpt>
      <trkpt lat="43.58168" lon="3.35382">
        <ele>222</ele>
        <time>2016-02-14T13:27:51Z</time>
      </trkpt>
      <trkpt lat="43.58168" lon="3.35379">
        <ele>222.5</ele>
        <time>2016-02-14T13:27:52Z</time>
      </trkpt>
      <trkpt lat="43.58168" lon="3.35377">
        <ele>223.5</ele>
        <time>2016-02-14T13:27:53Z</time>
      </trkpt>
      <trkpt lat="43.58168" lon="3.35375">
        <ele>223.5</ele>
        <time>2016-02-14T13:27:54Z</time>
      </trkpt>
      <trkpt lat="43.58168" lon="3.35373">
        <ele>223</ele>
        <time>2016-02-14T13:27:55Z</time>
      </trkpt>
      <trkpt lat="43.58168" lon="3.35371">
        <ele>223.5</ele>
        <time>2016-02-14T13:27:56Z</time>
      </trkpt>
      <trkpt lat="43.58167" lon="3.35369">
        <ele>223.5</ele>
        <time>2016-02-14T13:27:57Z</time>
      </trkpt>
      <trkpt lat="43.58167" lon="3.35366">
        <ele>223.5</ele>
        <time>2016-02-14T13:27:58Z</time>
      </trkpt>
      <trkpt lat="43.58167" lon="3.35363">
        <ele>223.5</ele>
        <time>2016-02-14T13:27:59Z</time>
      </trkpt>
      <trkpt lat="43.58166" lon="3.35361">
        <ele>224.5</ele>
        <time>2016-02-14T13:28:00Z</time>
      </trkpt>
      <trkpt lat="43.58166" lon="3.35357">
        <ele>225</ele>
        <time>2016-02-14T13:28:01Z</time>
      </trkpt>
      <trkpt lat="43.58166" lon="3.35354">
        <ele>226</ele>
        <time>2016-02-14T13:28:02Z</time>
      </trkpt>
      <trkpt lat="43.58166" lon="3.35352">
        <ele>227</ele>
        <time>2016-02-14T13:28:03Z</time>
      </trkpt>
      <trkpt lat="43.58166" lon="3.3535">
        <ele>227.5</ele>
        <time>2016-02-14T13:28:04Z</time>
      </trkpt>
      <trkpt lat="43.58165" lon="3.35347">
        <ele>227.5</ele>
        <time>2016-02-14T13:28:05Z</time>
      </trkpt>
      <trkpt lat="43.58165" lon="3.35343">
        <ele>227.5</ele>
        <time>2016-02-14T13:28:06Z</time>
      </trkpt>
      <trkpt lat="43.58165" lon="3.3534">
        <ele>228.5</ele>
        <time>2016-02-14T13:28:07Z</time>
      </trkpt>
      <trkpt lat="43.58165" lon="3.35337">
        <ele>228</ele>
        <time>2016-02-14T13:28:08Z</time>
      </trkpt>
      <trkpt lat="43.58165" lon="3.35334">
        <ele>228</ele>
        <time>2016-02-14T13:28:09Z</time>
      </trkpt>
      <trkpt lat="43.58164" lon="3.35331">
        <ele>227.5</ele>
        <time>2016-02-14T13:28:10Z</time>
      </trkpt>
      <trkpt lat="43.58164" lon="3.35328">
        <ele>226.5</ele>
        <time>2016-02-14T13:28:11Z</time>
      </trkpt>
      <trkpt lat="43.58164" lon="3.35325">
        <ele>227</ele>
        <time>2016-02-14T13:28:12Z</time>
      </trkpt>
      <trkpt lat="43.58164" lon="3.35321">
        <ele>226.5</ele>
        <time>2016-02-14T13:28:13Z</time>
      </trkpt>
      <trkpt lat="43.58163" lon="3.35318">
        <ele>227.5</ele>
        <time>2016-02-14T13:28:14Z</time>
      </trkpt>
      <trkpt lat="43.58163" lon="3.35315">
        <ele>226.5</ele>
        <time>2016-02-14T13:28:15Z</time>
      </trkpt>
      <trkpt lat="43.58163" lon="3.35312">
        <ele>226.5</ele>
        <time>2016-02-14T13:28:16Z</time>
      </trkpt>
      <trkpt lat="43.58162" lon="3.35309">
        <ele>227.5</ele>
        <time>2016-02-14T13:28:17Z</time>
      </trkpt>
      <trkpt lat="43.58163" lon="3.35308">
        <ele>228.5</ele>
        <time>2016-02-14T13:28:18Z</time>
      </trkpt>
      <trkpt lat="43.58163" lon="3.35306">
        <ele>229.5</ele>
        <time>2016-02-14T13:28:19Z</time>
      </trkpt>
      <trkpt lat="43.58162" lon="3.35304">
        <ele>230</ele>
        <time>2016-02-14T13:28:20Z</time>
      </trkpt>
      <trkpt lat="43.58162" lon="3.35302">
        <ele>231</ele>
        <time>2016-02-14T13:28:21Z</time>
      </trkpt>
      <trkpt lat="43.58161" lon="3.35299">
        <ele>231.5</ele>
        <time>2016-02-14T13:28:22Z</time>
      </trkpt>
      <trkpt lat="43.58161" lon="3.35297">
        <ele>232</ele>
        <time>2016-02-14T13:28:23Z</time>
      </trkpt>
      <trkpt lat="43.58161" lon="3.35295">
        <ele>233</ele>
        <time>2016-02-14T13:28:24Z</time>
      </trkpt>
      <trkpt lat="43.5816" lon="3.35292">
        <ele>233</ele>
        <time>2016-02-14T13:28:25Z</time>
      </trkpt>
      <trkpt lat="43.5816" lon="3.35288">
        <ele>231.5</ele>
        <time>2016-02-14T13:28:26Z</time>
      </trkpt>
      <trkpt lat="43.58159" lon="3.35285">
        <ele>230</ele>
        <time>2016-02-14T13:28:27Z</time>
      </trkpt>
      <trkpt lat="43.58158" lon="3.35283">
        <ele>230.5</ele>
        <time>2016-02-14T13:28:28Z</time>
      </trkpt>
      <trkpt lat="43.58157" lon="3.3528">
        <ele>231.5</ele>
        <time>2016-02-14T13:28:29Z</time>
      </trkpt>
      <trkpt lat="43.58157" lon="3.35278">
        <ele>232.5</ele>
        <time>2016-02-14T13:28:30Z</time>
      </trkpt>
      <trkpt lat="43.58156" lon="3.35276">
        <ele>233</ele>
        <time>2016-02-14T13:28:31Z</time>
      </trkpt>
      <trkpt lat="43.58156" lon="3.35274">
        <ele>233</ele>
        <time>2016-02-14T13:28:32Z</time>
      </trkpt>
      <trkpt lat="43.58156" lon="3.35271">
        <ele>233.5</ele>
        <time>2016-02-14T13:28:33Z</time>
      </trkpt>
      <trkpt lat="43.58157" lon="3.35269">
        <ele>233.5</ele>
        <time>2016-02-14T13:28:34Z</time>
      </trkpt>
      <trkpt lat="43.58156" lon="3.35266">
        <ele>232.5</ele>
        <time>2016-02-14T13:28:35Z</time>
      </trkpt>
      <trkpt lat="43.58156" lon="3.35263">
        <ele>232.5</ele>
        <time>2016-02-14T13:28:36Z</time>
      </trkpt>
      <trkpt lat="43.58156" lon="3.35261">
        <ele>232.5</ele>
        <time>2016-02-14T13:28:37Z</time>
      </trkpt>
      <trkpt lat="43.58156" lon="3.35258">
        <ele>234</ele>
        <time>2016-02-14T13:28:38Z</time>
      </trkpt>
      <trkpt lat="43.58155" lon="3.35256">
        <ele>234.5</ele>
        <time>2016-02-14T13:28:39Z</time>
      </trkpt>
      <trkpt lat="43.58155" lon="3.35253">
        <ele>235</ele>
        <time>2016-02-14T13:28:40Z</time>
      </trkpt>
      <trkpt lat="43.58154" lon="3.35249">
        <ele>235</ele>
        <time>2016-02-14T13:28:41Z</time>
      </trkpt>
      <trkpt lat="43.58154" lon="3.35247">
        <ele>235.5</ele>
        <time>2016-02-14T13:28:42Z</time>
      </trkpt>
      <trkpt lat="43.58153" lon="3.35243">
        <ele>235.5</ele>
        <time>2016-02-14T13:28:43Z</time>
      </trkpt>
      <trkpt lat="43.58153" lon="3.3524">
        <ele>236</ele>
        <time>2016-02-14T13:28:44Z</time>
      </trkpt>
      <trkpt lat="43.58153" lon="3.35237">
        <ele>235.5</ele>
        <time>2016-02-14T13:28:45Z</time>
      </trkpt>
      <trkpt lat="43.58153" lon="3.35235">
        <ele>236.5</ele>
        <time>2016-02-14T13:28:46Z</time>
      </trkpt>
      <trkpt lat="43.58152" lon="3.35232">
        <ele>235</ele>
        <time>2016-02-14T13:28:47Z</time>
      </trkpt>
      <trkpt lat="43.58152" lon="3.3523">
        <ele>235.5</ele>
        <time>2016-02-14T13:28:48Z</time>
      </trkpt>
      <trkpt lat="43.58151" lon="3.35227">
        <ele>234.5</ele>
        <time>2016-02-14T13:28:49Z</time>
      </trkpt>
      <trkpt lat="43.58151" lon="3.35224">
        <ele>235.5</ele>
        <time>2016-02-14T13:28:50Z</time>
      </trkpt>
      <trkpt lat="43.5815" lon="3.35221">
        <ele>235.5</ele>
        <time>2016-02-14T13:28:51Z</time>
      </trkpt>
      <trkpt lat="43.58149" lon="3.35218">
        <ele>234.5</ele>
        <time>2016-02-14T13:28:52Z</time>
      </trkpt>
      <trkpt lat="43.58148" lon="3.35216">
        <ele>234.5</ele>
        <time>2016-02-14T13:28:53Z</time>
      </trkpt>
      <trkpt lat="43.58148" lon="3.35214">
        <ele>235.5</ele>
        <time>2016-02-14T13:28:54Z</time>
      </trkpt>
      <trkpt lat="43.58148" lon="3.35211">
        <ele>236</ele>
        <time>2016-02-14T13:28:55Z</time>
      </trkpt>
      <trkpt lat="43.58148" lon="3.35208">
        <ele>234.5</ele>
        <time>2016-02-14T13:28:56Z</time>
      </trkpt>
      <trkpt lat="43.58147" lon="3.35205">
        <ele>233</ele>
        <time>2016-02-14T13:28:57Z</time>
      </trkpt>
      <trkpt lat="43.58147" lon="3.35202">
        <ele>234</ele>
        <time>2016-02-14T13:28:58Z</time>
      </trkpt>
      <trkpt lat="43.58146" lon="3.35198">
        <ele>234</ele>
        <time>2016-02-14T13:28:59Z</time>
      </trkpt>
      <trkpt lat="43.58146" lon="3.35195">
        <ele>233.5</ele>
        <time>2016-02-14T13:28:59Z</time>
      </trkpt>
      <trkpt lat="43.58145" lon="3.35191">
        <ele>233.5</ele>
        <time>2016-02-14T13:29:00Z</time>
      </trkpt>
      <trkpt lat="43.58144" lon="3.35187">
        <ele>234.5</ele>
        <time>2016-02-14T13:29:02Z</time>
      </trkpt>
      <trkpt lat="43.58144" lon="3.35183">
        <ele>233.5</ele>
        <time>2016-02-14T13:29:03Z</time>
      </trkpt>
      <trkpt lat="43.58143" lon="3.3518">
        <ele>235</ele>
        <time>2016-02-14T13:29:03Z</time>
      </trkpt>
      <trkpt lat="43.58143" lon="3.35176">
        <ele>234.5</ele>
        <time>2016-02-14T13:29:04Z</time>
      </trkpt>
      <trkpt lat="43.58143" lon="3.35172">
        <ele>234.5</ele>
        <time>2016-02-14T13:29:06Z</time>
      </trkpt>
      <trkpt lat="43.58143" lon="3.35168">
        <ele>235</ele>
        <time>2016-02-14T13:29:06Z</time>
      </trkpt>
      <trkpt lat="43.58142" lon="3.35165">
        <ele>235.5</ele>
        <time>2016-02-14T13:29:07Z</time>
      </trkpt>
      <trkpt lat="43.58141" lon="3.35161">
        <ele>238</ele>
        <time>2016-02-14T13:29:08Z</time>
      </trkpt>
      <trkpt lat="43.58141" lon="3.35159">
        <ele>239.5</ele>
        <time>2016-02-14T13:29:09Z</time>
      </trkpt>
      <trkpt lat="43.58141" lon="3.35157">
        <ele>242</ele>
        <time>2016-02-14T13:29:10Z</time>
      </trkpt>
      <trkpt lat="43.58141" lon="3.35154">
        <ele>243.5</ele>
        <time>2016-02-14T13:29:11Z</time>
      </trkpt>
      <trkpt lat="43.58141" lon="3.35151">
        <ele>244</ele>
        <time>2016-02-14T13:29:12Z</time>
      </trkpt>
      <trkpt lat="43.5814" lon="3.35147">
        <ele>245.5</ele>
        <time>2016-02-14T13:29:13Z</time>
      </trkpt>
      <trkpt lat="43.5814" lon="3.35144">
        <ele>247.5</ele>
        <time>2016-02-14T13:29:14Z</time>
      </trkpt>
      <trkpt lat="43.5814" lon="3.35141">
        <ele>247.5</ele>
        <time>2016-02-14T13:29:15Z</time>
      </trkpt>
      <trkpt lat="43.58139" lon="3.35137">
        <ele>248</ele>
        <time>2016-02-14T13:29:16Z</time>
      </trkpt>
      <trkpt lat="43.58139" lon="3.35134">
        <ele>249</ele>
        <time>2016-02-14T13:29:17Z</time>
      </trkpt>
      <trkpt lat="43.58139" lon="3.35132">
        <ele>251</ele>
        <time>2016-02-14T13:29:18Z</time>
      </trkpt>
      <trkpt lat="43.58139" lon="3.35127">
        <ele>251</ele>
        <time>2016-02-14T13:29:19Z</time>
      </trkpt>
      <trkpt lat="43.58138" lon="3.35125">
        <ele>251.5</ele>
        <time>2016-02-14T13:29:20Z</time>
      </trkpt>
      <trkpt lat="43.58138" lon="3.35121">
        <ele>252</ele>
        <time>2016-02-14T13:29:21Z</time>
      </trkpt>
      <trkpt lat="43.58138" lon="3.3512">
        <ele>253</ele>
        <time>2016-02-14T13:29:22Z</time>
      </trkpt>
      <trkpt lat="43.58137" lon="3.35117">
        <ele>253.5</ele>
        <time>2016-02-14T13:29:23Z</time>
      </trkpt>
      <trkpt lat="43.58136" lon="3.35114">
        <ele>254</ele>
        <time>2016-02-14T13:29:24Z</time>
      </trkpt>
      <trkpt lat="43.58136" lon="3.35111">
        <ele>254</ele>
        <time>2016-02-14T13:29:25Z</time>
      </trkpt>
      <trkpt lat="43.58135" lon="3.35108">
        <ele>255.5</ele>
        <time>2016-02-14T13:29:26Z</time>
      </trkpt>
      <trkpt lat="43.58135" lon="3.35106">
        <ele>256.5</ele>
        <time>2016-02-14T13:29:27Z</time>
      </trkpt>
      <trkpt lat="43.58135" lon="3.35103">
        <ele>257</ele>
        <time>2016-02-14T13:29:28Z</time>
      </trkpt>
      <trkpt lat="43.58135" lon="3.35098">
        <ele>255.5</ele>
        <time>2016-02-14T13:29:29Z</time>
      </trkpt>
      <trkpt lat="43.58134" lon="3.35096">
        <ele>255</ele>
        <time>2016-02-14T13:29:30Z</time>
      </trkpt>
      <trkpt lat="43.58134" lon="3.35093">
        <ele>255</ele>
        <time>2016-02-14T13:29:31Z</time>
      </trkpt>
      <trkpt lat="43.58134" lon="3.3509">
        <ele>255</ele>
        <time>2016-02-14T13:29:32Z</time>
      </trkpt>
      <trkpt lat="43.58134" lon="3.35087">
        <ele>255</ele>
        <time>2016-02-14T13:29:33Z</time>
      </trkpt>
      <trkpt lat="43.58134" lon="3.35084">
        <ele>255</ele>
        <time>2016-02-14T13:29:34Z</time>
      </trkpt>
      <trkpt lat="43.58134" lon="3.35081">
        <ele>254.5</ele>
        <time>2016-02-14T13:29:35Z</time>
      </trkpt>
      <trkpt lat="43.58134" lon="3.35077">
        <ele>253.5</ele>
        <time>2016-02-14T13:29:36Z</time>
      </trkpt>
      <trkpt lat="43.58133" lon="3.35075">
        <ele>254</ele>
        <time>2016-02-14T13:29:37Z</time>
      </trkpt>
      <trkpt lat="43.58133" lon="3.35072">
        <ele>254.5</ele>
        <time>2016-02-14T13:29:38Z</time>
      </trkpt>
      <trkpt lat="43.58132" lon="3.3507">
        <ele>254.5</ele>
        <time>2016-02-14T13:29:40Z</time>
      </trkpt>
      <trkpt lat="43.58132" lon="3.35067">
        <ele>255</ele>
        <time>2016-02-14T13:29:40Z</time>
      </trkpt>
      <trkpt lat="43.58131" lon="3.35064">
        <ele>255</ele>
        <time>2016-02-14T13:29:41Z</time>
      </trkpt>
      <trkpt lat="43.5813" lon="3.35061">
        <ele>255</ele>
        <time>2016-02-14T13:29:42Z</time>
      </trkpt>
      <trkpt lat="43.5813" lon="3.35059">
        <ele>255.5</ele>
        <time>2016-02-14T13:29:43Z</time>
      </trkpt>
      <trkpt lat="43.5813" lon="3.35056">
        <ele>257.5</ele>
        <time>2016-02-14T13:29:44Z</time>
      </trkpt>
      <trkpt lat="43.58129" lon="3.35053">
        <ele>258.5</ele>
        <time>2016-02-14T13:29:45Z</time>
      </trkpt>
      <trkpt lat="43.58128" lon="3.35051">
        <ele>259</ele>
        <time>2016-02-14T13:29:46Z</time>
      </trkpt>
      <trkpt lat="43.58128" lon="3.35049">
        <ele>259</ele>
        <time>2016-02-14T13:29:47Z</time>
      </trkpt>
      <trkpt lat="43.58127" lon="3.35046">
        <ele>259</ele>
        <time>2016-02-14T13:29:48Z</time>
      </trkpt>
      <trkpt lat="43.58127" lon="3.35043">
        <ele>258</ele>
        <time>2016-02-14T13:29:49Z</time>
      </trkpt>
      <trkpt lat="43.58127" lon="3.3504">
        <ele>258</ele>
        <time>2016-02-14T13:29:50Z</time>
      </trkpt>
      <trkpt lat="43.58127" lon="3.35037">
        <ele>258</ele>
        <time>2016-02-14T13:29:51Z</time>
      </trkpt>
      <trkpt lat="43.58127" lon="3.35033">
        <ele>258</ele>
        <time>2016-02-14T13:29:52Z</time>
      </trkpt>
      <trkpt lat="43.58127" lon="3.35029">
        <ele>258.5</ele>
        <time>2016-02-14T13:29:54Z</time>
      </trkpt>
      <trkpt lat="43.58127" lon="3.35026">
        <ele>259.5</ele>
        <time>2016-02-14T13:29:54Z</time>
      </trkpt>
      <trkpt lat="43.58126" lon="3.35023">
        <ele>261</ele>
        <time>2016-02-14T13:29:55Z</time>
      </trkpt>
      <trkpt lat="43.58125" lon="3.35018">
        <ele>259.5</ele>
        <time>2016-02-14T13:29:56Z</time>
      </trkpt>
      <trkpt lat="43.58126" lon="3.35017">
        <ele>260</ele>
        <time>2016-02-14T13:29:58Z</time>
      </trkpt>
      <trkpt lat="43.58126" lon="3.35014">
        <ele>261</ele>
        <time>2016-02-14T13:29:58Z</time>
      </trkpt>
      <trkpt lat="43.58126" lon="3.3501">
        <ele>261.5</ele>
        <time>2016-02-14T13:29:59Z</time>
      </trkpt>
      <trkpt lat="43.58126" lon="3.35008">
        <ele>261</ele>
        <time>2016-02-14T13:30:00Z</time>
      </trkpt>
      <trkpt lat="43.58126" lon="3.35005">
        <ele>261</ele>
        <time>2016-02-14T13:30:01Z</time>
      </trkpt>
      <trkpt lat="43.58127" lon="3.35001">
        <ele>260.5</ele>
        <time>2016-02-14T13:30:02Z</time>
      </trkpt>
      <trkpt lat="43.58128" lon="3.34997">
        <ele>261</ele>
        <time>2016-02-14T13:30:03Z</time>
      </trkpt>
      <trkpt lat="43.58129" lon="3.34993">
        <ele>261.5</ele>
        <time>2016-02-14T13:30:04Z</time>
      </trkpt>
      <trkpt lat="43.58129" lon="3.3499">
        <ele>261.5</ele>
        <time>2016-02-14T13:30:05Z</time>
      </trkpt>
      <trkpt lat="43.58129" lon="3.34987">
        <ele>261</ele>
        <time>2016-02-14T13:30:06Z</time>
      </trkpt>
      <trkpt lat="43.58128" lon="3.34984">
        <ele>260.5</ele>
        <time>2016-02-14T13:30:07Z</time>
      </trkpt>
      <trkpt lat="43.58128" lon="3.34981">
        <ele>260.5</ele>
        <time>2016-02-14T13:30:08Z</time>
      </trkpt>
      <trkpt lat="43.58127" lon="3.34978">
        <ele>260</ele>
        <time>2016-02-14T13:30:09Z</time>
      </trkpt>
      <trkpt lat="43.58128" lon="3.34976">
        <ele>262</ele>
        <time>2016-02-14T13:30:10Z</time>
      </trkpt>
      <trkpt lat="43.58127" lon="3.34974">
        <ele>262.5</ele>
        <time>2016-02-14T13:30:11Z</time>
      </trkpt>
      <trkpt lat="43.58127" lon="3.34972">
        <ele>262.5</ele>
        <time>2016-02-14T13:30:12Z</time>
      </trkpt>
      <trkpt lat="43.58127" lon="3.34969">
        <ele>262.5</ele>
        <time>2016-02-14T13:30:13Z</time>
      </trkpt>
      <trkpt lat="43.58125" lon="3.34969">
        <ele>264.5</ele>
        <time>2016-02-14T13:30:14Z</time>
      </trkpt>
      <trkpt lat="43.58124" lon="3.34966">
        <ele>264.5</ele>
        <time>2016-02-14T13:30:15Z</time>
      </trkpt>
      <trkpt lat="43.58124" lon="3.34964">
        <ele>263.5</ele>
        <time>2016-02-14T13:30:16Z</time>
      </trkpt>
      <trkpt lat="43.58124" lon="3.34961">
        <ele>263</ele>
        <time>2016-02-14T13:30:17Z</time>
      </trkpt>
      <trkpt lat="43.58123" lon="3.34959">
        <ele>265</ele>
        <time>2016-02-14T13:30:18Z</time>
      </trkpt>
      <trkpt lat="43.58123" lon="3.34956">
        <ele>265</ele>
        <time>2016-02-14T13:30:19Z</time>
      </trkpt>
      <trkpt lat="43.58123" lon="3.34953">
        <ele>265.5</ele>
        <time>2016-02-14T13:30:20Z</time>
      </trkpt>
      <trkpt lat="43.58124" lon="3.3495">
        <ele>265</ele>
        <time>2016-02-14T13:30:21Z</time>
      </trkpt>
      <trkpt lat="43.58123" lon="3.34949">
        <ele>264.5</ele>
        <time>2016-02-14T13:30:22Z</time>
      </trkpt>
      <trkpt lat="43.58123" lon="3.34946">
        <ele>264.5</ele>
        <time>2016-02-14T13:30:23Z</time>
      </trkpt>
      <trkpt lat="43.58123" lon="3.34943">
        <ele>264</ele>
        <time>2016-02-14T13:30:24Z</time>
      </trkpt>
      <trkpt lat="43.58122" lon="3.3494">
        <ele>263</ele>
        <time>2016-02-14T13:30:25Z</time>
      </trkpt>
      <trkpt lat="43.58122" lon="3.34939">
        <ele>265</ele>
        <time>2016-02-14T13:30:26Z</time>
      </trkpt>
      <trkpt lat="43.58122" lon="3.34937">
        <ele>264.5</ele>
        <time>2016-02-14T13:30:27Z</time>
      </trkpt>
      <trkpt lat="43.58121" lon="3.34934">
        <ele>264.5</ele>
        <time>2016-02-14T13:30:28Z</time>
      </trkpt>
      <trkpt lat="43.58121" lon="3.34932">
        <ele>263</ele>
        <time>2016-02-14T13:30:29Z</time>
      </trkpt>
      <trkpt lat="43.58121" lon="3.3493">
        <ele>264</ele>
        <time>2016-02-14T13:30:30Z</time>
      </trkpt>
      <trkpt lat="43.5812" lon="3.34927">
        <ele>263.5</ele>
        <time>2016-02-14T13:30:31Z</time>
      </trkpt>
      <trkpt lat="43.5812" lon="3.34924">
        <ele>265</ele>
        <time>2016-02-14T13:30:32Z</time>
      </trkpt>
      <trkpt lat="43.58119" lon="3.34921">
        <ele>265</ele>
        <time>2016-02-14T13:30:33Z</time>
      </trkpt>
      <trkpt lat="43.58119" lon="3.34918">
        <ele>264</ele>
        <time>2016-02-14T13:30:34Z</time>
      </trkpt>
      <trkpt lat="43.5812" lon="3.34914">
        <ele>263.5</ele>
        <time>2016-02-14T13:30:35Z</time>
      </trkpt>
      <trkpt lat="43.5812" lon="3.34911">
        <ele>262</ele>
        <time>2016-02-14T13:30:36Z</time>
      </trkpt>
      <trkpt lat="43.58119" lon="3.34908">
        <ele>262.5</ele>
        <time>2016-02-14T13:30:37Z</time>
      </trkpt>
      <trkpt lat="43.5812" lon="3.34905">
        <ele>263.5</ele>
        <time>2016-02-14T13:30:38Z</time>
      </trkpt>
      <trkpt lat="43.5812" lon="3.34903">
        <ele>262.5</ele>
        <time>2016-02-14T13:30:39Z</time>
      </trkpt>
      <trkpt lat="43.58119" lon="3.349">
        <ele>262.5</ele>
        <time>2016-02-14T13:30:40Z</time>
      </trkpt>
      <trkpt lat="43.5812" lon="3.34897">
        <ele>263</ele>
        <time>2016-02-14T13:30:41Z</time>
      </trkpt>
      <trkpt lat="43.58119" lon="3.34895">
        <ele>262.5</ele>
        <time>2016-02-14T13:30:42Z</time>
      </trkpt>
      <trkpt lat="43.5812" lon="3.34893">
        <ele>263.5</ele>
        <time>2016-02-14T13:30:43Z</time>
      </trkpt>
      <trkpt lat="43.58119" lon="3.34891">
        <ele>264.5</ele>
        <time>2016-02-14T13:30:44Z</time>
      </trkpt>
      <trkpt lat="43.58119" lon="3.34888">
        <ele>264</ele>
        <time>2016-02-14T13:30:45Z</time>
      </trkpt>
      <trkpt lat="43.58119" lon="3.34885">
        <ele>264</ele>
        <time>2016-02-14T13:30:46Z</time>
      </trkpt>
      <trkpt lat="43.58119" lon="3.34884">
        <ele>264.5</ele>
        <time>2016-02-14T13:30:47Z</time>
      </trkpt>
      <trkpt lat="43.58118" lon="3.34882">
        <ele>262.5</ele>
        <time>2016-02-14T13:30:48Z</time>
      </trkpt>
      <trkpt lat="43.58118" lon="3.34879">
        <ele>264</ele>
        <time>2016-02-14T13:30:49Z</time>
      </trkpt>
      <trkpt lat="43.58117" lon="3.34877">
        <ele>266</ele>
        <time>2016-02-14T13:30:50Z</time>
      </trkpt>
      <trkpt lat="43.58117" lon="3.34875">
        <ele>268</ele>
        <time>2016-02-14T13:30:51Z</time>
      </trkpt>
      <trkpt lat="43.58116" lon="3.34874">
        <ele>267.5</ele>
        <time>2016-02-14T13:30:52Z</time>
      </trkpt>
      <trkpt lat="43.58115" lon="3.34872">
        <ele>268</ele>
        <time>2016-02-14T13:30:53Z</time>
      </trkpt>
      <trkpt lat="43.58115" lon="3.34869">
        <ele>269</ele>
        <time>2016-02-14T13:30:54Z</time>
      </trkpt>
      <trkpt lat="43.58114" lon="3.34868">
        <ele>271.5</ele>
        <time>2016-02-14T13:30:55Z</time>
      </trkpt>
      <trkpt lat="43.58112" lon="3.34866">
        <ele>273</ele>
        <time>2016-02-14T13:30:56Z</time>
      </trkpt>
      <trkpt lat="43.58111" lon="3.34864">
        <ele>275</ele>
        <time>2016-02-14T13:30:57Z</time>
      </trkpt>
      <trkpt lat="43.5811" lon="3.34861">
        <ele>275.5</ele>
        <time>2016-02-14T13:30:58Z</time>
      </trkpt>
      <trkpt lat="43.58109" lon="3.34858">
        <ele>275.5</ele>
        <time>2016-02-14T13:30:59Z</time>
      </trkpt>
      <trkpt lat="43.58108" lon="3.34856">
        <ele>276.5</ele>
        <time>2016-02-14T13:31:00Z</time>
      </trkpt>
      <trkpt lat="43.58107" lon="3.34856">
        <ele>276.5</ele>
        <time>2016-02-14T13:31:01Z</time>
      </trkpt>
      <trkpt lat="43.58106" lon="3.34855">
        <ele>277.5</ele>
        <time>2016-02-14T13:31:02Z</time>
      </trkpt>
      <trkpt lat="43.58105" lon="3.34853">
        <ele>278</ele>
        <time>2016-02-14T13:31:03Z</time>
      </trkpt>
      <trkpt lat="43.58104" lon="3.34849">
        <ele>278</ele>
        <time>2016-02-14T13:31:04Z</time>
      </trkpt>
      <trkpt lat="43.58103" lon="3.34847">
        <ele>279</ele>
        <time>2016-02-14T13:31:05Z</time>
      </trkpt>
      <trkpt lat="43.58102" lon="3.34846">
        <ele>279.5</ele>
        <time>2016-02-14T13:31:06Z</time>
      </trkpt>
      <trkpt lat="43.581" lon="3.34845">
        <ele>280.5</ele>
        <time>2016-02-14T13:31:07Z</time>
      </trkpt>
      <trkpt lat="43.58099" lon="3.34843">
        <ele>280.5</ele>
        <time>2016-02-14T13:31:08Z</time>
      </trkpt>
      <trkpt lat="43.58098" lon="3.34841">
        <ele>281.5</ele>
        <time>2016-02-14T13:31:09Z</time>
      </trkpt>
      <trkpt lat="43.58098" lon="3.34839">
        <ele>282</ele>
        <time>2016-02-14T13:31:10Z</time>
      </trkpt>
      <trkpt lat="43.58096" lon="3.34838">
        <ele>282</ele>
        <time>2016-02-14T13:31:11Z</time>
      </trkpt>
      <trkpt lat="43.58095" lon="3.34834">
        <ele>282</ele>
        <time>2016-02-14T13:31:12Z</time>
      </trkpt>
      <trkpt lat="43.58094" lon="3.34831">
        <ele>282</ele>
        <time>2016-02-14T13:31:13Z</time>
      </trkpt>
      <trkpt lat="43.58093" lon="3.3483">
        <ele>282.5</ele>
        <time>2016-02-14T13:31:14Z</time>
      </trkpt>
      <trkpt lat="43.58092" lon="3.34828">
        <ele>282.5</ele>
        <time>2016-02-14T13:31:15Z</time>
      </trkpt>
      <trkpt lat="43.58091" lon="3.34827">
        <ele>283.5</ele>
        <time>2016-02-14T13:31:16Z</time>
      </trkpt>
      <trkpt lat="43.5809" lon="3.34825">
        <ele>283.5</ele>
        <time>2016-02-14T13:31:17Z</time>
      </trkpt>
      <trkpt lat="43.58089" lon="3.34823">
        <ele>284</ele>
        <time>2016-02-14T13:31:18Z</time>
      </trkpt>
      <trkpt lat="43.58088" lon="3.34822">
        <ele>284.5</ele>
        <time>2016-02-14T13:31:19Z</time>
      </trkpt>
      <trkpt lat="43.58087" lon="3.34819">
        <ele>284.5</ele>
        <time>2016-02-14T13:31:20Z</time>
      </trkpt>
      <trkpt lat="43.58086" lon="3.34817">
        <ele>285</ele>
        <time>2016-02-14T13:31:21Z</time>
      </trkpt>
      <trkpt lat="43.58085" lon="3.34815">
        <ele>285</ele>
        <time>2016-02-14T13:31:22Z</time>
      </trkpt>
      <trkpt lat="43.58083" lon="3.34814">
        <ele>286</ele>
        <time>2016-02-14T13:31:23Z</time>
      </trkpt>
      <trkpt lat="43.58082" lon="3.34812">
        <ele>285</ele>
        <time>2016-02-14T13:31:24Z</time>
      </trkpt>
      <trkpt lat="43.5808" lon="3.34811">
        <ele>285</ele>
        <time>2016-02-14T13:31:25Z</time>
      </trkpt>
      <trkpt lat="43.58079" lon="3.34811">
        <ele>286</ele>
        <time>2016-02-14T13:31:26Z</time>
      </trkpt>
      <trkpt lat="43.58078" lon="3.3481">
        <ele>285.5</ele>
        <time>2016-02-14T13:31:27Z</time>
      </trkpt>
      <trkpt lat="43.58076" lon="3.3481">
        <ele>285</ele>
        <time>2016-02-14T13:31:28Z</time>
      </trkpt>
      <trkpt lat="43.58075" lon="3.34811">
        <ele>285.5</ele>
        <time>2016-02-14T13:31:29Z</time>
      </trkpt>
      <trkpt lat="43.58074" lon="3.34813">
        <ele>286</ele>
        <time>2016-02-14T13:31:30Z</time>
      </trkpt>
      <trkpt lat="43.58074" lon="3.34812">
        <ele>286.5</ele>
        <time>2016-02-14T13:31:31Z</time>
      </trkpt>
      <trkpt lat="43.58075" lon="3.34814">
        <ele>288</ele>
        <time>2016-02-14T13:31:32Z</time>
      </trkpt>
      <trkpt lat="43.58074" lon="3.34813">
        <ele>284.5</ele>
        <time>2016-02-14T13:31:33Z</time>
      </trkpt>
      <trkpt lat="43.58075" lon="3.34812">
        <ele>281</ele>
        <time>2016-02-14T13:31:34Z</time>
      </trkpt>
      <trkpt lat="43.58076" lon="3.34813">
        <ele>281.5</ele>
        <time>2016-02-14T13:31:35Z</time>
      </trkpt>
      <trkpt lat="43.58077" lon="3.34815">
        <ele>282</ele>
        <time>2016-02-14T13:31:36Z</time>
      </trkpt>
      <trkpt lat="43.58078" lon="3.34816">
        <ele>282.5</ele>
        <time>2016-02-14T13:31:37Z</time>
      </trkpt>
      <trkpt lat="43.58078" lon="3.34818">
        <ele>283</ele>
        <time>2016-02-14T13:31:38Z</time>
      </trkpt>
      <trkpt lat="43.58078" lon="3.34819">
        <ele>281.5</ele>
        <time>2016-02-14T13:31:39Z</time>
      </trkpt>
      <trkpt lat="43.58079" lon="3.34819">
        <ele>281.5</ele>
        <time>2016-02-14T13:31:40Z</time>
      </trkpt>
      <trkpt lat="43.5808" lon="3.3482">
        <ele>282.5</ele>
        <time>2016-02-14T13:31:41Z</time>
      </trkpt>
      <trkpt lat="43.58081" lon="3.34822">
        <ele>282.5</ele>
        <time>2016-02-14T13:31:42Z</time>
      </trkpt>
      <trkpt lat="43.58082" lon="3.34823">
        <ele>281.5</ele>
        <time>2016-02-14T13:31:43Z</time>
      </trkpt>
      <trkpt lat="43.58082" lon="3.34826">
        <ele>281</ele>
        <time>2016-02-14T13:31:44Z</time>
      </trkpt>
      <trkpt lat="43.58083" lon="3.34829">
        <ele>280</ele>
        <time>2016-02-14T13:31:45Z</time>
      </trkpt>
      <trkpt lat="43.58085" lon="3.34831">
        <ele>280</ele>
        <time>2016-02-14T13:31:46Z</time>
      </trkpt>
      <trkpt lat="43.58085" lon="3.34833">
        <ele>279.5</ele>
        <time>2016-02-14T13:31:47Z</time>
      </trkpt>
      <trkpt lat="43.58085" lon="3.34835">
        <ele>278</ele>
        <time>2016-02-14T13:31:48Z</time>
      </trkpt>
      <trkpt lat="43.58085" lon="3.34837">
        <ele>277</ele>
        <time>2016-02-14T13:31:49Z</time>
      </trkpt>
      <trkpt lat="43.58085" lon="3.34838">
        <ele>276.5</ele>
        <time>2016-02-14T13:31:50Z</time>
      </trkpt>
      <trkpt lat="43.58084" lon="3.3484">
        <ele>274</ele>
        <time>2016-02-14T13:31:51Z</time>
      </trkpt>
      <trkpt lat="43.58084" lon="3.34842">
        <ele>271.5</ele>
        <time>2016-02-14T13:31:52Z</time>
      </trkpt>
      <trkpt lat="43.58084" lon="3.34843">
        <ele>268.5</ele>
        <time>2016-02-14T13:31:53Z</time>
      </trkpt>
      <trkpt lat="43.58084" lon="3.34847">
        <ele>268.5</ele>
        <time>2016-02-14T13:31:54Z</time>
      </trkpt>
      <trkpt lat="43.58084" lon="3.34849">
        <ele>267.5</ele>
        <time>2016-02-14T13:31:55Z</time>
      </trkpt>
      <trkpt lat="43.58084" lon="3.34851">
        <ele>267.5</ele>
        <time>2016-02-14T13:31:56Z</time>
      </trkpt>
      <trkpt lat="43.58084" lon="3.34854">
        <ele>265.5</ele>
        <time>2016-02-14T13:31:57Z</time>
      </trkpt>
      <trkpt lat="43.58085" lon="3.34856">
        <ele>265.5</ele>
        <time>2016-02-14T13:31:58Z</time>
      </trkpt>
      <trkpt lat="43.58085" lon="3.3486">
        <ele>265.5</ele>
        <time>2016-02-14T13:31:59Z</time>
      </trkpt>
      <trkpt lat="43.58088" lon="3.34862">
        <ele>267</ele>
        <time>2016-02-14T13:32:00Z</time>
      </trkpt>
      <trkpt lat="43.5809" lon="3.34868">
        <ele>267.5</ele>
        <time>2016-02-14T13:32:02Z</time>
      </trkpt>
      <trkpt lat="43.5809" lon="3.34872">
        <ele>269.5</ele>
        <time>2016-02-14T13:32:03Z</time>
      </trkpt>
      <trkpt lat="43.58089" lon="3.34875">
        <ele>268.5</ele>
        <time>2016-02-14T13:32:04Z</time>
      </trkpt>
      <trkpt lat="43.58088" lon="3.34878">
        <ele>268</ele>
        <time>2016-02-14T13:32:05Z</time>
      </trkpt>
      <trkpt lat="43.58088" lon="3.34882">
        <ele>268.5</ele>
        <time>2016-02-14T13:32:06Z</time>
      </trkpt>
      <trkpt lat="43.58088" lon="3.34885">
        <ele>269.5</ele>
        <time>2016-02-14T13:32:07Z</time>
      </trkpt>
      <trkpt lat="43.58088" lon="3.34889">
        <ele>270.5</ele>
        <time>2016-02-14T13:32:08Z</time>
      </trkpt>
      <trkpt lat="43.58088" lon="3.34892">
        <ele>271</ele>
        <time>2016-02-14T13:32:09Z</time>
      </trkpt>
      <trkpt lat="43.58088" lon="3.34895">
        <ele>272</ele>
        <time>2016-02-14T13:32:10Z</time>
      </trkpt>
      <trkpt lat="43.58088" lon="3.34898">
        <ele>271.5</ele>
        <time>2016-02-14T13:32:11Z</time>
      </trkpt>
      <trkpt lat="43.58088" lon="3.34902">
        <ele>272</ele>
        <time>2016-02-14T13:32:12Z</time>
      </trkpt>
      <trkpt lat="43.58087" lon="3.34905">
        <ele>271.5</ele>
        <time>2016-02-14T13:32:13Z</time>
      </trkpt>
      <trkpt lat="43.58086" lon="3.34908">
        <ele>271.5</ele>
        <time>2016-02-14T13:32:14Z</time>
      </trkpt>
      <trkpt lat="43.58085" lon="3.34911">
        <ele>271.5</ele>
        <time>2016-02-14T13:32:15Z</time>
      </trkpt>
      <trkpt lat="43.58084" lon="3.34913">
        <ele>271.5</ele>
        <time>2016-02-14T13:32:16Z</time>
      </trkpt>
      <trkpt lat="43.58084" lon="3.34916">
        <ele>272</ele>
        <time>2016-02-14T13:32:17Z</time>
      </trkpt>
      <trkpt lat="43.58083" lon="3.34919">
        <ele>272.5</ele>
        <time>2016-02-14T13:32:18Z</time>
      </trkpt>
      <trkpt lat="43.58083" lon="3.34921">
        <ele>273</ele>
        <time>2016-02-14T13:32:19Z</time>
      </trkpt>
      <trkpt lat="43.58084" lon="3.34923">
        <ele>274</ele>
        <time>2016-02-14T13:32:20Z</time>
      </trkpt>
      <trkpt lat="43.58084" lon="3.34926">
        <ele>274</ele>
        <time>2016-02-14T13:32:21Z</time>
      </trkpt>
      <trkpt lat="43.58084" lon="3.34928">
        <ele>274.5</ele>
        <time>2016-02-14T13:32:22Z</time>
      </trkpt>
      <trkpt lat="43.58083" lon="3.34931">
        <ele>274.5</ele>
        <time>2016-02-14T13:32:23Z</time>
      </trkpt>
      <trkpt lat="43.58082" lon="3.34934">
        <ele>274.5</ele>
        <time>2016-02-14T13:32:24Z</time>
      </trkpt>
      <trkpt lat="43.58081" lon="3.34938">
        <ele>275</ele>
        <time>2016-02-14T13:32:25Z</time>
      </trkpt>
      <trkpt lat="43.5808" lon="3.34941">
        <ele>274.5</ele>
        <time>2016-02-14T13:32:26Z</time>
      </trkpt>
      <trkpt lat="43.58079" lon="3.34944">
        <ele>274</ele>
        <time>2016-02-14T13:32:26Z</time>
      </trkpt>
      <trkpt lat="43.58078" lon="3.34947">
        <ele>274</ele>
        <time>2016-02-14T13:32:27Z</time>
      </trkpt>
      <trkpt lat="43.58078" lon="3.34949">
        <ele>274.5</ele>
        <time>2016-02-14T13:32:28Z</time>
      </trkpt>
      <trkpt lat="43.58077" lon="3.34952">
        <ele>275</ele>
        <time>2016-02-14T13:32:29Z</time>
      </trkpt>
      <trkpt lat="43.58076" lon="3.34954">
        <ele>275</ele>
        <time>2016-02-14T13:32:30Z</time>
      </trkpt>
      <trkpt lat="43.58075" lon="3.34957">
        <ele>275</ele>
        <time>2016-02-14T13:32:31Z</time>
      </trkpt>
      <trkpt lat="43.58073" lon="3.3496">
        <ele>274.5</ele>
        <time>2016-02-14T13:32:32Z</time>
      </trkpt>
      <trkpt lat="43.58072" lon="3.34963">
        <ele>274</ele>
        <time>2016-02-14T13:32:33Z</time>
      </trkpt>
      <trkpt lat="43.58071" lon="3.34966">
        <ele>274</ele>
        <time>2016-02-14T13:32:34Z</time>
      </trkpt>
      <trkpt lat="43.5807" lon="3.34969">
        <ele>274</ele>
        <time>2016-02-14T13:32:35Z</time>
      </trkpt>
      <trkpt lat="43.58069" lon="3.34971">
        <ele>274</ele>
        <time>2016-02-14T13:32:36Z</time>
      </trkpt>
      <trkpt lat="43.58063" lon="3.34977">
        <ele>273.5</ele>
        <time>2016-02-14T13:32:38Z</time>
      </trkpt>
      <trkpt lat="43.58061" lon="3.3498">
        <ele>273</ele>
        <time>2016-02-14T13:32:39Z</time>
      </trkpt>
      <trkpt lat="43.5806" lon="3.34983">
        <ele>273</ele>
        <time>2016-02-14T13:32:40Z</time>
      </trkpt>
      <trkpt lat="43.58059" lon="3.34986">
        <ele>273</ele>
        <time>2016-02-14T13:32:41Z</time>
      </trkpt>
      <trkpt lat="43.58058" lon="3.34988">
        <ele>273</ele>
        <time>2016-02-14T13:32:42Z</time>
      </trkpt>
      <trkpt lat="43.58059" lon="3.34991">
        <ele>274</ele>
        <time>2016-02-14T13:32:43Z</time>
      </trkpt>
      <trkpt lat="43.58058" lon="3.34994">
        <ele>273.5</ele>
        <time>2016-02-14T13:32:44Z</time>
      </trkpt>
      <trkpt lat="43.5806" lon="3.34996">
        <ele>275</ele>
        <time>2016-02-14T13:32:45Z</time>
      </trkpt>
      <trkpt lat="43.5806" lon="3.34998">
        <ele>275.5</ele>
        <time>2016-02-14T13:32:46Z</time>
      </trkpt>
      <trkpt lat="43.58061" lon="3.35001">
        <ele>276.5</ele>
        <time>2016-02-14T13:32:47Z</time>
      </trkpt>
      <trkpt lat="43.58061" lon="3.35004">
        <ele>277</ele>
        <time>2016-02-14T13:32:48Z</time>
      </trkpt>
      <trkpt lat="43.58059" lon="3.35006">
        <ele>276.5</ele>
        <time>2016-02-14T13:32:49Z</time>
      </trkpt>
      <trkpt lat="43.58061" lon="3.35009">
        <ele>277.5</ele>
        <time>2016-02-14T13:32:50Z</time>
      </trkpt>
      <trkpt lat="43.5806" lon="3.35012">
        <ele>277</ele>
        <time>2016-02-14T13:32:51Z</time>
      </trkpt>
      <trkpt lat="43.58057" lon="3.35015">
        <ele>277</ele>
        <time>2016-02-14T13:32:52Z</time>
      </trkpt>
      <trkpt lat="43.58055" lon="3.35017">
        <ele>276.5</ele>
        <time>2016-02-14T13:32:53Z</time>
      </trkpt>
      <trkpt lat="43.58053" lon="3.3502">
        <ele>277.5</ele>
        <time>2016-02-14T13:32:54Z</time>
      </trkpt>
      <trkpt lat="43.58052" lon="3.35023">
        <ele>278</ele>
        <time>2016-02-14T13:32:55Z</time>
      </trkpt>
      <trkpt lat="43.58051" lon="3.35025">
        <ele>278</ele>
        <time>2016-02-14T13:32:56Z</time>
      </trkpt>
      <trkpt lat="43.5805" lon="3.35028">
        <ele>278.5</ele>
        <time>2016-02-14T13:32:57Z</time>
      </trkpt>
      <trkpt lat="43.58049" lon="3.3503">
        <ele>278</ele>
        <time>2016-02-14T13:32:58Z</time>
      </trkpt>
      <trkpt lat="43.58047" lon="3.35032">
        <ele>278.5</ele>
        <time>2016-02-14T13:32:59Z</time>
      </trkpt>
      <trkpt lat="43.58045" lon="3.35035">
        <ele>278</ele>
        <time>2016-02-14T13:33:00Z</time>
      </trkpt>
      <trkpt lat="43.58044" lon="3.35038">
        <ele>278.5</ele>
        <time>2016-02-14T13:33:01Z</time>
      </trkpt>
      <trkpt lat="43.58042" lon="3.35042">
        <ele>278.5</ele>
        <time>2016-02-14T13:33:02Z</time>
      </trkpt>
      <trkpt lat="43.5804" lon="3.35045">
        <ele>278.5</ele>
        <time>2016-02-14T13:33:03Z</time>
      </trkpt>
      <trkpt lat="43.58039" lon="3.35048">
        <ele>278.5</ele>
        <time>2016-02-14T13:33:04Z</time>
      </trkpt>
      <trkpt lat="43.58037" lon="3.3505">
        <ele>279</ele>
        <time>2016-02-14T13:33:05Z</time>
      </trkpt>
      <trkpt lat="43.58036" lon="3.35053">
        <ele>280</ele>
        <time>2016-02-14T13:33:06Z</time>
      </trkpt>
      <trkpt lat="43.58033" lon="3.35055">
        <ele>280</ele>
        <time>2016-02-14T13:33:07Z</time>
      </trkpt>
      <trkpt lat="43.58031" lon="3.35056">
        <ele>280</ele>
        <time>2016-02-14T13:33:08Z</time>
      </trkpt>
      <trkpt lat="43.58028" lon="3.35057">
        <ele>279.5</ele>
        <time>2016-02-14T13:33:09Z</time>
      </trkpt>
      <trkpt lat="43.58025" lon="3.35057">
        <ele>279.5</ele>
        <time>2016-02-14T13:33:10Z</time>
      </trkpt>
      <trkpt lat="43.58023" lon="3.35059">
        <ele>280.5</ele>
        <time>2016-02-14T13:33:11Z</time>
      </trkpt>
      <trkpt lat="43.5802" lon="3.35059">
        <ele>281.5</ele>
        <time>2016-02-14T13:33:12Z</time>
      </trkpt>
      <trkpt lat="43.58018" lon="3.35057">
        <ele>280</ele>
        <time>2016-02-14T13:33:13Z</time>
      </trkpt>
      <trkpt lat="43.58016" lon="3.35055">
        <ele>280</ele>
        <time>2016-02-14T13:33:14Z</time>
      </trkpt>
      <trkpt lat="43.58015" lon="3.35053">
        <ele>280</ele>
        <time>2016-02-14T13:33:15Z</time>
      </trkpt>
      <trkpt lat="43.58014" lon="3.3505">
        <ele>280</ele>
        <time>2016-02-14T13:33:16Z</time>
      </trkpt>
      <trkpt lat="43.58013" lon="3.35047">
        <ele>279.5</ele>
        <time>2016-02-14T13:33:17Z</time>
      </trkpt>
      <trkpt lat="43.58013" lon="3.35044">
        <ele>280</ele>
        <time>2016-02-14T13:33:18Z</time>
      </trkpt>
      <trkpt lat="43.58012" lon="3.35042">
        <ele>281.5</ele>
        <time>2016-02-14T13:33:19Z</time>
      </trkpt>
      <trkpt lat="43.58012" lon="3.35039">
        <ele>281.5</ele>
        <time>2016-02-14T13:33:20Z</time>
      </trkpt>
      <trkpt lat="43.58011" lon="3.35037">
        <ele>281.5</ele>
        <time>2016-02-14T13:33:21Z</time>
      </trkpt>
      <trkpt lat="43.58012" lon="3.35035">
        <ele>281.5</ele>
        <time>2016-02-14T13:33:22Z</time>
      </trkpt>
      <trkpt lat="43.58012" lon="3.35033">
        <ele>281.5</ele>
        <time>2016-02-14T13:33:23Z</time>
      </trkpt>
      <trkpt lat="43.58012" lon="3.35032">
        <ele>281.5</ele>
        <time>2016-02-14T13:33:24Z</time>
      </trkpt>
      <trkpt lat="43.58011" lon="3.3503">
        <ele>281.5</ele>
        <time>2016-02-14T13:33:25Z</time>
      </trkpt>
      <trkpt lat="43.58011" lon="3.35028">
        <ele>282</ele>
        <time>2016-02-14T13:33:26Z</time>
      </trkpt>
      <trkpt lat="43.58011" lon="3.35026">
        <ele>283</ele>
        <time>2016-02-14T13:33:27Z</time>
      </trkpt>
      <trkpt lat="43.58012" lon="3.35023">
        <ele>282</ele>
        <time>2016-02-14T13:33:28Z</time>
      </trkpt>
      <trkpt lat="43.58011" lon="3.3502">
        <ele>282.5</ele>
        <time>2016-02-14T13:33:29Z</time>
      </trkpt>
      <trkpt lat="43.58011" lon="3.35017">
        <ele>281.5</ele>
        <time>2016-02-14T13:33:30Z</time>
      </trkpt>
      <trkpt lat="43.58011" lon="3.35015">
        <ele>281.5</ele>
        <time>2016-02-14T13:33:31Z</time>
      </trkpt>
      <trkpt lat="43.58011" lon="3.35012">
        <ele>281</ele>
        <time>2016-02-14T13:33:32Z</time>
      </trkpt>
      <trkpt lat="43.5801" lon="3.3501">
        <ele>280.5</ele>
        <time>2016-02-14T13:33:33Z</time>
      </trkpt>
      <trkpt lat="43.5801" lon="3.35007">
        <ele>281</ele>
        <time>2016-02-14T13:33:34Z</time>
      </trkpt>
      <trkpt lat="43.5801" lon="3.35005">
        <ele>281</ele>
        <time>2016-02-14T13:33:35Z</time>
      </trkpt>
      <trkpt lat="43.5801" lon="3.35002">
        <ele>281</ele>
        <time>2016-02-14T13:33:36Z</time>
      </trkpt>
      <trkpt lat="43.5801" lon="3.35">
        <ele>282</ele>
        <time>2016-02-14T13:33:37Z</time>
      </trkpt>
      <trkpt lat="43.5801" lon="3.34997">
        <ele>283</ele>
        <time>2016-02-14T13:33:38Z</time>
      </trkpt>
      <trkpt lat="43.5801" lon="3.34994">
        <ele>283.5</ele>
        <time>2016-02-14T13:33:39Z</time>
      </trkpt>
      <trkpt lat="43.58009" lon="3.34991">
        <ele>283.5</ele>
        <time>2016-02-14T13:33:40Z</time>
      </trkpt>
      <trkpt lat="43.58009" lon="3.34988">
        <ele>284.5</ele>
        <time>2016-02-14T13:33:41Z</time>
      </trkpt>
      <trkpt lat="43.58008" lon="3.34985">
        <ele>284.5</ele>
        <time>2016-02-14T13:33:42Z</time>
      </trkpt>
      <trkpt lat="43.58007" lon="3.34983">
        <ele>284</ele>
        <time>2016-02-14T13:33:43Z</time>
      </trkpt>
      <trkpt lat="43.58007" lon="3.34981">
        <ele>284</ele>
        <time>2016-02-14T13:33:44Z</time>
      </trkpt>
      <trkpt lat="43.58007" lon="3.34978">
        <ele>284</ele>
        <time>2016-02-14T13:33:45Z</time>
      </trkpt>
      <trkpt lat="43.58006" lon="3.34976">
        <ele>284</ele>
        <time>2016-02-14T13:33:46Z</time>
      </trkpt>
      <trkpt lat="43.58006" lon="3.34974">
        <ele>284</ele>
        <time>2016-02-14T13:33:47Z</time>
      </trkpt>
      <trkpt lat="43.58005" lon="3.34971">
        <ele>284</ele>
        <time>2016-02-14T13:33:48Z</time>
      </trkpt>
      <trkpt lat="43.58004" lon="3.34969">
        <ele>284.5</ele>
        <time>2016-02-14T13:33:49Z</time>
      </trkpt>
      <trkpt lat="43.58003" lon="3.34966">
        <ele>285</ele>
        <time>2016-02-14T13:33:50Z</time>
      </trkpt>
      <trkpt lat="43.58003" lon="3.34963">
        <ele>285</ele>
        <time>2016-02-14T13:33:51Z</time>
      </trkpt>
      <trkpt lat="43.58002" lon="3.34961">
        <ele>285</ele>
        <time>2016-02-14T13:33:52Z</time>
      </trkpt>
      <trkpt lat="43.58001" lon="3.34958">
        <ele>284.5</ele>
        <time>2016-02-14T13:33:53Z</time>
      </trkpt>
      <trkpt lat="43.58" lon="3.34956">
        <ele>283</ele>
        <time>2016-02-14T13:33:54Z</time>
      </trkpt>
      <trkpt lat="43.57999" lon="3.34954">
        <ele>285</ele>
        <time>2016-02-14T13:33:55Z</time>
      </trkpt>
      <trkpt lat="43.57999" lon="3.34951">
        <ele>283.5</ele>
        <time>2016-02-14T13:33:56Z</time>
      </trkpt>
      <trkpt lat="43.57998" lon="3.34949">
        <ele>283.5</ele>
        <time>2016-02-14T13:33:57Z</time>
      </trkpt>
      <trkpt lat="43.57997" lon="3.34947">
        <ele>283.5</ele>
        <time>2016-02-14T13:33:58Z</time>
      </trkpt>
      <trkpt lat="43.57996" lon="3.34945">
        <ele>284</ele>
        <time>2016-02-14T13:33:59Z</time>
      </trkpt>
      <trkpt lat="43.57996" lon="3.34943">
        <ele>285</ele>
        <time>2016-02-14T13:34:00Z</time>
      </trkpt>
      <trkpt lat="43.57995" lon="3.3494">
        <ele>284.5</ele>
        <time>2016-02-14T13:34:01Z</time>
      </trkpt>
      <trkpt lat="43.57995" lon="3.34938">
        <ele>284.5</ele>
        <time>2016-02-14T13:34:02Z</time>
      </trkpt>
      <trkpt lat="43.57994" lon="3.34935">
        <ele>284.5</ele>
        <time>2016-02-14T13:34:03Z</time>
      </trkpt>
      <trkpt lat="43.57994" lon="3.34932">
        <ele>285</ele>
        <time>2016-02-14T13:34:04Z</time>
      </trkpt>
      <trkpt lat="43.57994" lon="3.34929">
        <ele>286</ele>
        <time>2016-02-14T13:34:05Z</time>
      </trkpt>
      <trkpt lat="43.57994" lon="3.34926">
        <ele>284</ele>
        <time>2016-02-14T13:34:06Z</time>
      </trkpt>
      <trkpt lat="43.57994" lon="3.34923">
        <ele>284</ele>
        <time>2016-02-14T13:34:07Z</time>
      </trkpt>
      <trkpt lat="43.57993" lon="3.3492">
        <ele>285.5</ele>
        <time>2016-02-14T13:34:08Z</time>
      </trkpt>
      <trkpt lat="43.57993" lon="3.34917">
        <ele>285.5</ele>
        <time>2016-02-14T13:34:09Z</time>
      </trkpt>
      <trkpt lat="43.57993" lon="3.34914">
        <ele>286</ele>
        <time>2016-02-14T13:34:10Z</time>
      </trkpt>
      <trkpt lat="43.57994" lon="3.34911">
        <ele>286</ele>
        <time>2016-02-14T13:34:11Z</time>
      </trkpt>
      <trkpt lat="43.57995" lon="3.34907">
        <ele>286</ele>
        <time>2016-02-14T13:34:12Z</time>
      </trkpt>
      <trkpt lat="43.57995" lon="3.34904">
        <ele>287</ele>
        <time>2016-02-14T13:34:13Z</time>
      </trkpt>
      <trkpt lat="43.57996" lon="3.34901">
        <ele>287.5</ele>
        <time>2016-02-14T13:34:14Z</time>
      </trkpt>
      <trkpt lat="43.57996" lon="3.34898">
        <ele>287.5</ele>
        <time>2016-02-14T13:34:15Z</time>
      </trkpt>
      <trkpt lat="43.57996" lon="3.34895">
        <ele>288</ele>
        <time>2016-02-14T13:34:16Z</time>
      </trkpt>
      <trkpt lat="43.57996" lon="3.34892">
        <ele>287.5</ele>
        <time>2016-02-14T13:34:17Z</time>
      </trkpt>
      <trkpt lat="43.57996" lon="3.34889">
        <ele>287</ele>
        <time>2016-02-14T13:34:18Z</time>
      </trkpt>
      <trkpt lat="43.57996" lon="3.34886">
        <ele>287.5</ele>
        <time>2016-02-14T13:34:19Z</time>
      </trkpt>
      <trkpt lat="43.57997" lon="3.34883">
        <ele>288</ele>
        <time>2016-02-14T13:34:20Z</time>
      </trkpt>
      <trkpt lat="43.57997" lon="3.3488">
        <ele>288.5</ele>
        <time>2016-02-14T13:34:21Z</time>
      </trkpt>
      <trkpt lat="43.57997" lon="3.34877">
        <ele>288</ele>
        <time>2016-02-14T13:34:22Z</time>
      </trkpt>
      <trkpt lat="43.57998" lon="3.34874">
        <ele>288</ele>
        <time>2016-02-14T13:34:23Z</time>
      </trkpt>
      <trkpt lat="43.57999" lon="3.34871">
        <ele>287.5</ele>
        <time>2016-02-14T13:34:24Z</time>
      </trkpt>
      <trkpt lat="43.58" lon="3.34868">
        <ele>288</ele>
        <time>2016-02-14T13:34:25Z</time>
      </trkpt>
      <trkpt lat="43.58001" lon="3.34864">
        <ele>289</ele>
        <time>2016-02-14T13:34:26Z</time>
      </trkpt>
      <trkpt lat="43.58001" lon="3.34861">
        <ele>288.5</ele>
        <time>2016-02-14T13:34:27Z</time>
      </trkpt>
      <trkpt lat="43.58002" lon="3.34858">
        <ele>288.5</ele>
        <time>2016-02-14T13:34:28Z</time>
      </trkpt>
      <trkpt lat="43.58002" lon="3.34854">
        <ele>290</ele>
        <time>2016-02-14T13:34:29Z</time>
      </trkpt>
      <trkpt lat="43.58002" lon="3.34851">
        <ele>290</ele>
        <time>2016-02-14T13:34:30Z</time>
      </trkpt>
      <trkpt lat="43.58003" lon="3.34848">
        <ele>292</ele>
        <time>2016-02-14T13:34:31Z</time>
      </trkpt>
      <trkpt lat="43.58003" lon="3.34844">
        <ele>292</ele>
        <time>2016-02-14T13:34:32Z</time>
      </trkpt>
      <trkpt lat="43.58004" lon="3.3484">
        <ele>293</ele>
        <time>2016-02-14T13:34:33Z</time>
      </trkpt>
      <trkpt lat="43.58004" lon="3.34836">
        <ele>293.5</ele>
        <time>2016-02-14T13:34:34Z</time>
      </trkpt>
      <trkpt lat="43.58004" lon="3.34832">
        <ele>294.5</ele>
        <time>2016-02-14T13:34:35Z</time>
      </trkpt>
      <trkpt lat="43.58004" lon="3.34828">
        <ele>295</ele>
        <time>2016-02-14T13:34:36Z</time>
      </trkpt>
      <trkpt lat="43.58003" lon="3.34824">
        <ele>295</ele>
        <time>2016-02-14T13:34:37Z</time>
      </trkpt>
      <trkpt lat="43.58002" lon="3.34821">
        <ele>294</ele>
        <time>2016-02-14T13:34:38Z</time>
      </trkpt>
      <trkpt lat="43.58001" lon="3.34817">
        <ele>293</ele>
        <time>2016-02-14T13:34:39Z</time>
      </trkpt>
      <trkpt lat="43.58" lon="3.34815">
        <ele>292.5</ele>
        <time>2016-02-14T13:34:40Z</time>
      </trkpt>
      <trkpt lat="43.57999" lon="3.34811">
        <ele>292</ele>
        <time>2016-02-14T13:34:41Z</time>
      </trkpt>
      <trkpt lat="43.57998" lon="3.34806">
        <ele>292</ele>
        <time>2016-02-14T13:34:42Z</time>
      </trkpt>
      <trkpt lat="43.57997" lon="3.34802">
        <ele>292.5</ele>
        <time>2016-02-14T13:34:43Z</time>
      </trkpt>
      <trkpt lat="43.57996" lon="3.34798">
        <ele>292.5</ele>
        <time>2016-02-14T13:34:44Z</time>
      </trkpt>
      <trkpt lat="43.57996" lon="3.34795">
        <ele>293</ele>
        <time>2016-02-14T13:34:45Z</time>
      </trkpt>
      <trkpt lat="43.57996" lon="3.34791">
        <ele>293</ele>
        <time>2016-02-14T13:34:46Z</time>
      </trkpt>
      <trkpt lat="43.57995" lon="3.34788">
        <ele>293.5</ele>
        <time>2016-02-14T13:34:47Z</time>
      </trkpt>
      <trkpt lat="43.57996" lon="3.34785">
        <ele>293.5</ele>
        <time>2016-02-14T13:34:48Z</time>
      </trkpt>
      <trkpt lat="43.57999" lon="3.34778">
        <ele>292.5</ele>
        <time>2016-02-14T13:34:50Z</time>
      </trkpt>
      <trkpt lat="43.57999" lon="3.34775">
        <ele>294</ele>
        <time>2016-02-14T13:34:51Z</time>
      </trkpt>
      <trkpt lat="43.58" lon="3.34772">
        <ele>295.5</ele>
        <time>2016-02-14T13:34:52Z</time>
      </trkpt>
      <trkpt lat="43.58" lon="3.34769">
        <ele>296</ele>
        <time>2016-02-14T13:34:53Z</time>
      </trkpt>
      <trkpt lat="43.58" lon="3.34765">
        <ele>296.5</ele>
        <time>2016-02-14T13:34:54Z</time>
      </trkpt>
      <trkpt lat="43.58" lon="3.34762">
        <ele>298.5</ele>
        <time>2016-02-14T13:34:55Z</time>
      </trkpt>
      <trkpt lat="43.58001" lon="3.34758">
        <ele>299.5</ele>
        <time>2016-02-14T13:34:56Z</time>
      </trkpt>
      <trkpt lat="43.58001" lon="3.34754">
        <ele>297.5</ele>
        <time>2016-02-14T13:34:57Z</time>
      </trkpt>
      <trkpt lat="43.58001" lon="3.34751">
        <ele>296.5</ele>
        <time>2016-02-14T13:34:58Z</time>
      </trkpt>
      <trkpt lat="43.58002" lon="3.34748">
        <ele>295</ele>
        <time>2016-02-14T13:34:59Z</time>
      </trkpt>
      <trkpt lat="43.58002" lon="3.34745">
        <ele>295.5</ele>
        <time>2016-02-14T13:35:00Z</time>
      </trkpt>
      <trkpt lat="43.58002" lon="3.34742">
        <ele>295.5</ele>
        <time>2016-02-14T13:35:01Z</time>
      </trkpt>
      <trkpt lat="43.58002" lon="3.34739">
        <ele>297.5</ele>
        <time>2016-02-14T13:35:02Z</time>
      </trkpt>
      <trkpt lat="43.58002" lon="3.34736">
        <ele>299</ele>
        <time>2016-02-14T13:35:03Z</time>
      </trkpt>
      <trkpt lat="43.58002" lon="3.34733">
        <ele>299.5</ele>
        <time>2016-02-14T13:35:04Z</time>
      </trkpt>
      <trkpt lat="43.58001" lon="3.3473">
        <ele>296</ele>
        <time>2016-02-14T13:35:05Z</time>
      </trkpt>
      <trkpt lat="43.58001" lon="3.34726">
        <ele>293.5</ele>
        <time>2016-02-14T13:35:06Z</time>
      </trkpt>
      <trkpt lat="43.58001" lon="3.34724">
        <ele>294.5</ele>
        <time>2016-02-14T13:35:07Z</time>
      </trkpt>
      <trkpt lat="43.58001" lon="3.34721">
        <ele>296</ele>
        <time>2016-02-14T13:35:08Z</time>
      </trkpt>
      <trkpt lat="43.58001" lon="3.34718">
        <ele>298</ele>
        <time>2016-02-14T13:35:09Z</time>
      </trkpt>
      <trkpt lat="43.58" lon="3.34715">
        <ele>297.5</ele>
        <time>2016-02-14T13:35:10Z</time>
      </trkpt>
      <trkpt lat="43.57999" lon="3.34712">
        <ele>296</ele>
        <time>2016-02-14T13:35:11Z</time>
      </trkpt>
      <trkpt lat="43.57999" lon="3.34709">
        <ele>296</ele>
        <time>2016-02-14T13:35:12Z</time>
      </trkpt>
      <trkpt lat="43.57998" lon="3.34706">
        <ele>294.5</ele>
        <time>2016-02-14T13:35:13Z</time>
      </trkpt>
      <trkpt lat="43.57998" lon="3.34703">
        <ele>294.5</ele>
        <time>2016-02-14T13:35:14Z</time>
      </trkpt>
      <trkpt lat="43.57997" lon="3.34701">
        <ele>293.5</ele>
        <time>2016-02-14T13:35:15Z</time>
      </trkpt>
      <trkpt lat="43.57996" lon="3.34698">
        <ele>293</ele>
        <time>2016-02-14T13:35:16Z</time>
      </trkpt>
      <trkpt lat="43.57995" lon="3.34694">
        <ele>293.5</ele>
        <time>2016-02-14T13:35:17Z</time>
      </trkpt>
      <trkpt lat="43.57995" lon="3.34691">
        <ele>294</ele>
        <time>2016-02-14T13:35:18Z</time>
      </trkpt>
      <trkpt lat="43.57994" lon="3.34688">
        <ele>294</ele>
        <time>2016-02-14T13:35:19Z</time>
      </trkpt>
      <trkpt lat="43.57994" lon="3.34686">
        <ele>295</ele>
        <time>2016-02-14T13:35:20Z</time>
      </trkpt>
      <trkpt lat="43.57994" lon="3.34683">
        <ele>294.5</ele>
        <time>2016-02-14T13:35:21Z</time>
      </trkpt>
      <trkpt lat="43.57993" lon="3.3468">
        <ele>294</ele>
        <time>2016-02-14T13:35:22Z</time>
      </trkpt>
      <trkpt lat="43.57992" lon="3.34678">
        <ele>293.5</ele>
        <time>2016-02-14T13:35:23Z</time>
      </trkpt>
      <trkpt lat="43.57992" lon="3.34675">
        <ele>291.5</ele>
        <time>2016-02-14T13:35:24Z</time>
      </trkpt>
      <trkpt lat="43.57991" lon="3.34672">
        <ele>292.5</ele>
        <time>2016-02-14T13:35:25Z</time>
      </trkpt>
      <trkpt lat="43.5799" lon="3.34669">
        <ele>290.5</ele>
        <time>2016-02-14T13:35:26Z</time>
      </trkpt>
      <trkpt lat="43.5799" lon="3.34666">
        <ele>289</ele>
        <time>2016-02-14T13:35:27Z</time>
      </trkpt>
      <trkpt lat="43.57989" lon="3.34664">
        <ele>289</ele>
        <time>2016-02-14T13:35:28Z</time>
      </trkpt>
      <trkpt lat="43.57989" lon="3.34661">
        <ele>289.5</ele>
        <time>2016-02-14T13:35:29Z</time>
      </trkpt>
      <trkpt lat="43.57989" lon="3.34659">
        <ele>290</ele>
        <time>2016-02-14T13:35:30Z</time>
      </trkpt>
      <trkpt lat="43.57988" lon="3.34656">
        <ele>289.5</ele>
        <time>2016-02-14T13:35:31Z</time>
      </trkpt>
      <trkpt lat="43.57987" lon="3.34654">
        <ele>290.5</ele>
        <time>2016-02-14T13:35:32Z</time>
      </trkpt>
      <trkpt lat="43.57987" lon="3.34652">
        <ele>291</ele>
        <time>2016-02-14T13:35:33Z</time>
      </trkpt>
      <trkpt lat="43.57986" lon="3.34649">
        <ele>291.5</ele>
        <time>2016-02-14T13:35:34Z</time>
      </trkpt>
      <trkpt lat="43.57986" lon="3.34647">
        <ele>292</ele>
        <time>2016-02-14T13:35:35Z</time>
      </trkpt>
      <trkpt lat="43.57985" lon="3.34644">
        <ele>293</ele>
        <time>2016-02-14T13:35:36Z</time>
      </trkpt>
      <trkpt lat="43.57985" lon="3.34642">
        <ele>294</ele>
        <time>2016-02-14T13:35:37Z</time>
      </trkpt>
      <trkpt lat="43.57985" lon="3.34639">
        <ele>294.5</ele>
        <time>2016-02-14T13:35:38Z</time>
      </trkpt>
      <trkpt lat="43.57984" lon="3.34636">
        <ele>294.5</ele>
        <time>2016-02-14T13:35:39Z</time>
      </trkpt>
      <trkpt lat="43.57983" lon="3.34634">
        <ele>293</ele>
        <time>2016-02-14T13:35:40Z</time>
      </trkpt>
      <trkpt lat="43.57983" lon="3.34631">
        <ele>294</ele>
        <time>2016-02-14T13:35:41Z</time>
      </trkpt>
      <trkpt lat="43.57983" lon="3.34629">
        <ele>294</ele>
        <time>2016-02-14T13:35:42Z</time>
      </trkpt>
      <trkpt lat="43.57982" lon="3.34626">
        <ele>293.5</ele>
        <time>2016-02-14T13:35:43Z</time>
      </trkpt>
      <trkpt lat="43.57982" lon="3.34623">
        <ele>293</ele>
        <time>2016-02-14T13:35:44Z</time>
      </trkpt>
      <trkpt lat="43.57981" lon="3.3462">
        <ele>293.5</ele>
        <time>2016-02-14T13:35:44Z</time>
      </trkpt>
      <trkpt lat="43.57981" lon="3.34618">
        <ele>293</ele>
        <time>2016-02-14T13:35:46Z</time>
      </trkpt>
      <trkpt lat="43.57981" lon="3.34615">
        <ele>293.5</ele>
        <time>2016-02-14T13:35:46Z</time>
      </trkpt>
      <trkpt lat="43.5798" lon="3.34613">
        <ele>294</ele>
        <time>2016-02-14T13:35:47Z</time>
      </trkpt>
      <trkpt lat="43.5798" lon="3.3461">
        <ele>294.5</ele>
        <time>2016-02-14T13:35:48Z</time>
      </trkpt>
      <trkpt lat="43.5798" lon="3.34608">
        <ele>295</ele>
        <time>2016-02-14T13:35:49Z</time>
      </trkpt>
      <trkpt lat="43.5798" lon="3.34606">
        <ele>295</ele>
        <time>2016-02-14T13:35:50Z</time>
      </trkpt>
      <trkpt lat="43.57979" lon="3.34604">
        <ele>295</ele>
        <time>2016-02-14T13:35:51Z</time>
      </trkpt>
      <trkpt lat="43.57979" lon="3.34601">
        <ele>295</ele>
        <time>2016-02-14T13:35:52Z</time>
      </trkpt>
      <trkpt lat="43.57979" lon="3.34599">
        <ele>296</ele>
        <time>2016-02-14T13:35:53Z</time>
      </trkpt>
      <trkpt lat="43.57979" lon="3.34596">
        <ele>297.5</ele>
        <time>2016-02-14T13:35:54Z</time>
      </trkpt>
      <trkpt lat="43.57978" lon="3.34594">
        <ele>297.5</ele>
        <time>2016-02-14T13:35:55Z</time>
      </trkpt>
      <trkpt lat="43.57978" lon="3.34592">
        <ele>297.5</ele>
        <time>2016-02-14T13:35:56Z</time>
      </trkpt>
      <trkpt lat="43.57977" lon="3.34589">
        <ele>297.5</ele>
        <time>2016-02-14T13:35:57Z</time>
      </trkpt>
      <trkpt lat="43.57977" lon="3.34587">
        <ele>299</ele>
        <time>2016-02-14T13:35:58Z</time>
      </trkpt>
      <trkpt lat="43.57977" lon="3.34584">
        <ele>299.5</ele>
        <time>2016-02-14T13:35:59Z</time>
      </trkpt>
      <trkpt lat="43.57977" lon="3.34582">
        <ele>299.5</ele>
        <time>2016-02-14T13:36:00Z</time>
      </trkpt>
      <trkpt lat="43.57977" lon="3.3458">
        <ele>299.5</ele>
        <time>2016-02-14T13:36:01Z</time>
      </trkpt>
      <trkpt lat="43.57976" lon="3.34577">
        <ele>299</ele>
        <time>2016-02-14T13:36:02Z</time>
      </trkpt>
      <trkpt lat="43.57976" lon="3.34575">
        <ele>299.5</ele>
        <time>2016-02-14T13:36:03Z</time>
      </trkpt>
      <trkpt lat="43.57976" lon="3.34573">
        <ele>299.5</ele>
        <time>2016-02-14T13:36:04Z</time>
      </trkpt>
      <trkpt lat="43.57975" lon="3.3457">
        <ele>298.5</ele>
        <time>2016-02-14T13:36:05Z</time>
      </trkpt>
      <trkpt lat="43.57974" lon="3.34567">
        <ele>298</ele>
        <time>2016-02-14T13:36:06Z</time>
      </trkpt>
      <trkpt lat="43.57974" lon="3.34564">
        <ele>298</ele>
        <time>2016-02-14T13:36:07Z</time>
      </trkpt>
      <trkpt lat="43.57973" lon="3.34562">
        <ele>298.5</ele>
        <time>2016-02-14T13:36:08Z</time>
      </trkpt>
      <trkpt lat="43.57973" lon="3.34559">
        <ele>299</ele>
        <time>2016-02-14T13:36:09Z</time>
      </trkpt>
      <trkpt lat="43.57972" lon="3.34557">
        <ele>299</ele>
        <time>2016-02-14T13:36:10Z</time>
      </trkpt>
      <trkpt lat="43.57972" lon="3.34554">
        <ele>299</ele>
        <time>2016-02-14T13:36:11Z</time>
      </trkpt>
      <trkpt lat="43.57972" lon="3.34552">
        <ele>299</ele>
        <time>2016-02-14T13:36:12Z</time>
      </trkpt>
      <trkpt lat="43.57972" lon="3.34549">
        <ele>300</ele>
        <time>2016-02-14T13:36:13Z</time>
      </trkpt>
      <trkpt lat="43.57971" lon="3.34546">
        <ele>300</ele>
        <time>2016-02-14T13:36:14Z</time>
      </trkpt>
      <trkpt lat="43.5797" lon="3.34544">
        <ele>300</ele>
        <time>2016-02-14T13:36:15Z</time>
      </trkpt>
      <trkpt lat="43.5797" lon="3.34542">
        <ele>300.5</ele>
        <time>2016-02-14T13:36:16Z</time>
      </trkpt>
      <trkpt lat="43.5797" lon="3.3454">
        <ele>302</ele>
        <time>2016-02-14T13:36:17Z</time>
      </trkpt>
      <trkpt lat="43.57969" lon="3.34537">
        <ele>302</ele>
        <time>2016-02-14T13:36:18Z</time>
      </trkpt>
      <trkpt lat="43.57968" lon="3.34535">
        <ele>301.5</ele>
        <time>2016-02-14T13:36:19Z</time>
      </trkpt>
      <trkpt lat="43.57968" lon="3.34532">
        <ele>302</ele>
        <time>2016-02-14T13:36:20Z</time>
      </trkpt>
      <trkpt lat="43.57967" lon="3.3453">
        <ele>301.5</ele>
        <time>2016-02-14T13:36:21Z</time>
      </trkpt>
      <trkpt lat="43.57966" lon="3.34527">
        <ele>302.5</ele>
        <time>2016-02-14T13:36:22Z</time>
      </trkpt>
      <trkpt lat="43.57966" lon="3.34525">
        <ele>302</ele>
        <time>2016-02-14T13:36:23Z</time>
      </trkpt>
      <trkpt lat="43.57965" lon="3.34523">
        <ele>303.5</ele>
        <time>2016-02-14T13:36:24Z</time>
      </trkpt>
      <trkpt lat="43.57964" lon="3.3452">
        <ele>304</ele>
        <time>2016-02-14T13:36:25Z</time>
      </trkpt>
      <trkpt lat="43.57963" lon="3.34518">
        <ele>305</ele>
        <time>2016-02-14T13:36:26Z</time>
      </trkpt>
      <trkpt lat="43.57963" lon="3.34516">
        <ele>304.5</ele>
        <time>2016-02-14T13:36:27Z</time>
      </trkpt>
      <trkpt lat="43.57962" lon="3.34513">
        <ele>306</ele>
        <time>2016-02-14T13:36:28Z</time>
      </trkpt>
      <trkpt lat="43.57962" lon="3.34511">
        <ele>306.5</ele>
        <time>2016-02-14T13:36:29Z</time>
      </trkpt>
      <trkpt lat="43.57961" lon="3.34509">
        <ele>307.5</ele>
        <time>2016-02-14T13:36:30Z</time>
      </trkpt>
      <trkpt lat="43.57962" lon="3.34506">
        <ele>308.5</ele>
        <time>2016-02-14T13:36:31Z</time>
      </trkpt>
      <trkpt lat="43.57962" lon="3.34503">
        <ele>309</ele>
        <time>2016-02-14T13:36:32Z</time>
      </trkpt>
      <trkpt lat="43.57961" lon="3.34501">
        <ele>310</ele>
        <time>2016-02-14T13:36:33Z</time>
      </trkpt>
      <trkpt lat="43.57961" lon="3.34498">
        <ele>311</ele>
        <time>2016-02-14T13:36:34Z</time>
      </trkpt>
      <trkpt lat="43.57961" lon="3.34496">
        <ele>311</ele>
        <time>2016-02-14T13:36:35Z</time>
      </trkpt>
      <trkpt lat="43.57961" lon="3.34493">
        <ele>311.5</ele>
        <time>2016-02-14T13:36:36Z</time>
      </trkpt>
      <trkpt lat="43.57961" lon="3.3449">
        <ele>313.5</ele>
        <time>2016-02-14T13:36:37Z</time>
      </trkpt>
      <trkpt lat="43.57961" lon="3.34488">
        <ele>314.5</ele>
        <time>2016-02-14T13:36:38Z</time>
      </trkpt>
      <trkpt lat="43.57961" lon="3.34486">
        <ele>314.5</ele>
        <time>2016-02-14T13:36:39Z</time>
      </trkpt>
      <trkpt lat="43.57961" lon="3.34484">
        <ele>316.5</ele>
        <time>2016-02-14T13:36:40Z</time>
      </trkpt>
      <trkpt lat="43.57961" lon="3.34481">
        <ele>317</ele>
        <time>2016-02-14T13:36:41Z</time>
      </trkpt>
      <trkpt lat="43.57961" lon="3.34478">
        <ele>317.5</ele>
        <time>2016-02-14T13:36:42Z</time>
      </trkpt>
      <trkpt lat="43.57961" lon="3.34475">
        <ele>318.5</ele>
        <time>2016-02-14T13:36:43Z</time>
      </trkpt>
      <trkpt lat="43.5796" lon="3.34472">
        <ele>320</ele>
        <time>2016-02-14T13:36:44Z</time>
      </trkpt>
      <trkpt lat="43.5796" lon="3.34469">
        <ele>319</ele>
        <time>2016-02-14T13:36:45Z</time>
      </trkpt>
      <trkpt lat="43.5796" lon="3.34466">
        <ele>319.5</ele>
        <time>2016-02-14T13:36:46Z</time>
      </trkpt>
      <trkpt lat="43.5796" lon="3.34463">
        <ele>320.5</ele>
        <time>2016-02-14T13:36:47Z</time>
      </trkpt>
      <trkpt lat="43.5796" lon="3.34461">
        <ele>324</ele>
        <time>2016-02-14T13:36:48Z</time>
      </trkpt>
      <trkpt lat="43.5796" lon="3.34458">
        <ele>325</ele>
        <time>2016-02-14T13:36:49Z</time>
      </trkpt>
      <trkpt lat="43.57959" lon="3.34455">
        <ele>325.5</ele>
        <time>2016-02-14T13:36:50Z</time>
      </trkpt>
      <trkpt lat="43.57959" lon="3.34452">
        <ele>324.5</ele>
        <time>2016-02-14T13:36:51Z</time>
      </trkpt>
      <trkpt lat="43.57959" lon="3.34449">
        <ele>322.5</ele>
        <time>2016-02-14T13:36:52Z</time>
      </trkpt>
      <trkpt lat="43.57959" lon="3.34446">
        <ele>321.5</ele>
        <time>2016-02-14T13:36:53Z</time>
      </trkpt>
      <trkpt lat="43.57959" lon="3.34444">
        <ele>321</ele>
        <time>2016-02-14T13:36:54Z</time>
      </trkpt>
      <trkpt lat="43.57959" lon="3.34441">
        <ele>321.5</ele>
        <time>2016-02-14T13:36:55Z</time>
      </trkpt>
      <trkpt lat="43.57959" lon="3.34438">
        <ele>320.5</ele>
        <time>2016-02-14T13:36:56Z</time>
      </trkpt>
      <trkpt lat="43.57959" lon="3.34435">
        <ele>318</ele>
        <time>2016-02-14T13:36:57Z</time>
      </trkpt>
      <trkpt lat="43.57959" lon="3.34432">
        <ele>318.5</ele>
        <time>2016-02-14T13:36:58Z</time>
      </trkpt>
      <trkpt lat="43.57959" lon="3.3443">
        <ele>319.5</ele>
        <time>2016-02-14T13:36:59Z</time>
      </trkpt>
      <trkpt lat="43.57959" lon="3.34427">
        <ele>321</ele>
        <time>2016-02-14T13:37:00Z</time>
      </trkpt>
      <trkpt lat="43.57959" lon="3.34424">
        <ele>319.5</ele>
        <time>2016-02-14T13:37:01Z</time>
      </trkpt>
      <trkpt lat="43.5796" lon="3.34421">
        <ele>318</ele>
        <time>2016-02-14T13:37:02Z</time>
      </trkpt>
      <trkpt lat="43.5796" lon="3.34418">
        <ele>316.5</ele>
        <time>2016-02-14T13:37:03Z</time>
      </trkpt>
      <trkpt lat="43.5796" lon="3.34415">
        <ele>317</ele>
        <time>2016-02-14T13:37:04Z</time>
      </trkpt>
      <trkpt lat="43.5796" lon="3.34412">
        <ele>317</ele>
        <time>2016-02-14T13:37:05Z</time>
      </trkpt>
      <trkpt lat="43.57961" lon="3.34409">
        <ele>317</ele>
        <time>2016-02-14T13:37:06Z</time>
      </trkpt>
      <trkpt lat="43.57961" lon="3.34406">
        <ele>317.5</ele>
        <time>2016-02-14T13:37:07Z</time>
      </trkpt>
      <trkpt lat="43.57961" lon="3.34404">
        <ele>317.5</ele>
        <time>2016-02-14T13:37:08Z</time>
      </trkpt>
      <trkpt lat="43.57961" lon="3.34401">
        <ele>318</ele>
        <time>2016-02-14T13:37:09Z</time>
      </trkpt>
      <trkpt lat="43.57961" lon="3.34398">
        <ele>318.5</ele>
        <time>2016-02-14T13:37:10Z</time>
      </trkpt>
      <trkpt lat="43.57961" lon="3.34396">
        <ele>318.5</ele>
        <time>2016-02-14T13:37:11Z</time>
      </trkpt>
      <trkpt lat="43.57962" lon="3.34394">
        <ele>319</ele>
        <time>2016-02-14T13:37:12Z</time>
      </trkpt>
      <trkpt lat="43.57962" lon="3.34392">
        <ele>319.5</ele>
        <time>2016-02-14T13:37:13Z</time>
      </trkpt>
      <trkpt lat="43.57962" lon="3.34389">
        <ele>319.5</ele>
        <time>2016-02-14T13:37:14Z</time>
      </trkpt>
      <trkpt lat="43.57962" lon="3.34386">
        <ele>320</ele>
        <time>2016-02-14T13:37:15Z</time>
      </trkpt>
      <trkpt lat="43.57963" lon="3.34384">
        <ele>320.5</ele>
        <time>2016-02-14T13:37:16Z</time>
      </trkpt>
      <trkpt lat="43.57964" lon="3.34381">
        <ele>321</ele>
        <time>2016-02-14T13:37:17Z</time>
      </trkpt>
      <trkpt lat="43.57964" lon="3.34378">
        <ele>320.5</ele>
        <time>2016-02-14T13:37:18Z</time>
      </trkpt>
      <trkpt lat="43.57964" lon="3.34376">
        <ele>321</ele>
        <time>2016-02-14T13:37:19Z</time>
      </trkpt>
      <trkpt lat="43.57965" lon="3.34374">
        <ele>321.5</ele>
        <time>2016-02-14T13:37:20Z</time>
      </trkpt>
      <trkpt lat="43.57965" lon="3.34371">
        <ele>320.5</ele>
        <time>2016-02-14T13:37:21Z</time>
      </trkpt>
      <trkpt lat="43.57966" lon="3.34369">
        <ele>320.5</ele>
        <time>2016-02-14T13:37:22Z</time>
      </trkpt>
      <trkpt lat="43.57967" lon="3.34366">
        <ele>320</ele>
        <time>2016-02-14T13:37:23Z</time>
      </trkpt>
      <trkpt lat="43.57967" lon="3.34363">
        <ele>319.5</ele>
        <time>2016-02-14T13:37:24Z</time>
      </trkpt>
      <trkpt lat="43.57967" lon="3.3436">
        <ele>318</ele>
        <time>2016-02-14T13:37:25Z</time>
      </trkpt>
      <trkpt lat="43.57967" lon="3.34357">
        <ele>318</ele>
        <time>2016-02-14T13:37:26Z</time>
      </trkpt>
      <trkpt lat="43.57968" lon="3.34355">
        <ele>318</ele>
        <time>2016-02-14T13:37:27Z</time>
      </trkpt>
      <trkpt lat="43.57968" lon="3.34352">
        <ele>319</ele>
        <time>2016-02-14T13:37:28Z</time>
      </trkpt>
      <trkpt lat="43.57969" lon="3.3435">
        <ele>320.5</ele>
        <time>2016-02-14T13:37:29Z</time>
      </trkpt>
      <trkpt lat="43.5797" lon="3.34347">
        <ele>320.5</ele>
        <time>2016-02-14T13:37:30Z</time>
      </trkpt>
      <trkpt lat="43.5797" lon="3.34344">
        <ele>321</ele>
        <time>2016-02-14T13:37:31Z</time>
      </trkpt>
      <trkpt lat="43.57971" lon="3.34341">
        <ele>320.5</ele>
        <time>2016-02-14T13:37:32Z</time>
      </trkpt>
      <trkpt lat="43.57972" lon="3.34339">
        <ele>320.5</ele>
        <time>2016-02-14T13:37:33Z</time>
      </trkpt>
      <trkpt lat="43.57973" lon="3.34336">
        <ele>320</ele>
        <time>2016-02-14T13:37:34Z</time>
      </trkpt>
      <trkpt lat="43.57975" lon="3.34333">
        <ele>319</ele>
        <time>2016-02-14T13:37:35Z</time>
      </trkpt>
      <trkpt lat="43.57975" lon="3.3433">
        <ele>319</ele>
        <time>2016-02-14T13:37:36Z</time>
      </trkpt>
      <trkpt lat="43.57976" lon="3.34328">
        <ele>319</ele>
        <time>2016-02-14T13:37:37Z</time>
      </trkpt>
      <trkpt lat="43.57976" lon="3.34326">
        <ele>318.5</ele>
        <time>2016-02-14T13:37:38Z</time>
      </trkpt>
      <trkpt lat="43.57977" lon="3.34323">
        <ele>318.5</ele>
        <time>2016-02-14T13:37:39Z</time>
      </trkpt>
      <trkpt lat="43.57978" lon="3.3432">
        <ele>318</ele>
        <time>2016-02-14T13:37:40Z</time>
      </trkpt>
      <trkpt lat="43.57978" lon="3.34318">
        <ele>317.5</ele>
        <time>2016-02-14T13:37:41Z</time>
      </trkpt>
      <trkpt lat="43.57979" lon="3.34316">
        <ele>317.5</ele>
        <time>2016-02-14T13:37:42Z</time>
      </trkpt>
      <trkpt lat="43.5798" lon="3.34313">
        <ele>317.5</ele>
        <time>2016-02-14T13:37:43Z</time>
      </trkpt>
      <trkpt lat="43.5798" lon="3.3431">
        <ele>318.5</ele>
        <time>2016-02-14T13:37:44Z</time>
      </trkpt>
      <trkpt lat="43.57981" lon="3.34308">
        <ele>317.5</ele>
        <time>2016-02-14T13:37:45Z</time>
      </trkpt>
      <trkpt lat="43.57981" lon="3.34305">
        <ele>317.5</ele>
        <time>2016-02-14T13:37:46Z</time>
      </trkpt>
      <trkpt lat="43.57982" lon="3.34303">
        <ele>317.5</ele>
        <time>2016-02-14T13:37:47Z</time>
      </trkpt>
      <trkpt lat="43.57983" lon="3.343">
        <ele>318</ele>
        <time>2016-02-14T13:37:48Z</time>
      </trkpt>
      <trkpt lat="43.57984" lon="3.34298">
        <ele>318</ele>
        <time>2016-02-14T13:37:49Z</time>
      </trkpt>
      <trkpt lat="43.57985" lon="3.34297">
        <ele>319.5</ele>
        <time>2016-02-14T13:37:50Z</time>
      </trkpt>
      <trkpt lat="43.57986" lon="3.34294">
        <ele>319.5</ele>
        <time>2016-02-14T13:37:51Z</time>
      </trkpt>
      <trkpt lat="43.57987" lon="3.34292">
        <ele>320</ele>
        <time>2016-02-14T13:37:52Z</time>
      </trkpt>
      <trkpt lat="43.57987" lon="3.34289">
        <ele>319</ele>
        <time>2016-02-14T13:37:53Z</time>
      </trkpt>
      <trkpt lat="43.57989" lon="3.34287">
        <ele>319.5</ele>
        <time>2016-02-14T13:37:54Z</time>
      </trkpt>
      <trkpt lat="43.57991" lon="3.34286">
        <ele>320.5</ele>
        <time>2016-02-14T13:37:55Z</time>
      </trkpt>
      <trkpt lat="43.57992" lon="3.34284">
        <ele>321.5</ele>
        <time>2016-02-14T13:37:56Z</time>
      </trkpt>
      <trkpt lat="43.57994" lon="3.34282">
        <ele>321.5</ele>
        <time>2016-02-14T13:37:57Z</time>
      </trkpt>
      <trkpt lat="43.57996" lon="3.3428">
        <ele>322</ele>
        <time>2016-02-14T13:37:58Z</time>
      </trkpt>
      <trkpt lat="43.57998" lon="3.34278">
        <ele>323</ele>
        <time>2016-02-14T13:37:59Z</time>
      </trkpt>
      <trkpt lat="43.57999" lon="3.34276">
        <ele>323.5</ele>
        <time>2016-02-14T13:38:00Z</time>
      </trkpt>
      <trkpt lat="43.58001" lon="3.34274">
        <ele>324</ele>
        <time>2016-02-14T13:38:01Z</time>
      </trkpt>
      <trkpt lat="43.58003" lon="3.34273">
        <ele>324</ele>
        <time>2016-02-14T13:38:02Z</time>
      </trkpt>
      <trkpt lat="43.58005" lon="3.34272">
        <ele>324</ele>
        <time>2016-02-14T13:38:03Z</time>
      </trkpt>
      <trkpt lat="43.58006" lon="3.3427">
        <ele>323.5</ele>
        <time>2016-02-14T13:38:04Z</time>
      </trkpt>
      <trkpt lat="43.58008" lon="3.34268">
        <ele>324</ele>
        <time>2016-02-14T13:38:05Z</time>
      </trkpt>
      <trkpt lat="43.58009" lon="3.34267">
        <ele>323.5</ele>
        <time>2016-02-14T13:38:06Z</time>
      </trkpt>
      <trkpt lat="43.58011" lon="3.34266">
        <ele>323.5</ele>
        <time>2016-02-14T13:38:07Z</time>
      </trkpt>
      <trkpt lat="43.58012" lon="3.34264">
        <ele>323.5</ele>
        <time>2016-02-14T13:38:08Z</time>
      </trkpt>
      <trkpt lat="43.58014" lon="3.34262">
        <ele>323.5</ele>
        <time>2016-02-14T13:38:09Z</time>
      </trkpt>
      <trkpt lat="43.58015" lon="3.34261">
        <ele>324.5</ele>
        <time>2016-02-14T13:38:10Z</time>
      </trkpt>
      <trkpt lat="43.58017" lon="3.34259">
        <ele>325</ele>
        <time>2016-02-14T13:38:11Z</time>
      </trkpt>
      <trkpt lat="43.58018" lon="3.34258">
        <ele>324.5</ele>
        <time>2016-02-14T13:38:12Z</time>
      </trkpt>
      <trkpt lat="43.58019" lon="3.34256">
        <ele>323</ele>
        <time>2016-02-14T13:38:13Z</time>
      </trkpt>
      <trkpt lat="43.5802" lon="3.34255">
        <ele>323</ele>
        <time>2016-02-14T13:38:14Z</time>
      </trkpt>
      <trkpt lat="43.58022" lon="3.34254">
        <ele>323.5</ele>
        <time>2016-02-14T13:38:25Z</time>
      </trkpt>
      <trkpt lat="43.58024" lon="3.34252">
        <ele>324.5</ele>
        <time>2016-02-14T13:38:26Z</time>
      </trkpt>
      <trkpt lat="43.58026" lon="3.34251">
        <ele>326.5</ele>
        <time>2016-02-14T13:38:27Z</time>
      </trkpt>
      <trkpt lat="43.58027" lon="3.34249">
        <ele>327</ele>
        <time>2016-02-14T13:38:28Z</time>
      </trkpt>
      <trkpt lat="43.58029" lon="3.34248">
        <ele>328</ele>
        <time>2016-02-14T13:38:29Z</time>
      </trkpt>
      <trkpt lat="43.5803" lon="3.34248">
        <ele>328.5</ele>
        <time>2016-02-14T13:38:30Z</time>
      </trkpt>
      <trkpt lat="43.58032" lon="3.34247">
        <ele>328.5</ele>
        <time>2016-02-14T13:38:31Z</time>
      </trkpt>
      <trkpt lat="43.58034" lon="3.34247">
        <ele>329</ele>
        <time>2016-02-14T13:38:32Z</time>
      </trkpt>
      <trkpt lat="43.58035" lon="3.34246">
        <ele>331</ele>
        <time>2016-02-14T13:38:33Z</time>
      </trkpt>
      <trkpt lat="43.58037" lon="3.34246">
        <ele>331</ele>
        <time>2016-02-14T13:38:34Z</time>
      </trkpt>
      <trkpt lat="43.58039" lon="3.34245">
        <ele>331.5</ele>
        <time>2016-02-14T13:38:35Z</time>
      </trkpt>
      <trkpt lat="43.58041" lon="3.34244">
        <ele>332</ele>
        <time>2016-02-14T13:38:36Z</time>
      </trkpt>
      <trkpt lat="43.58042" lon="3.34244">
        <ele>333</ele>
        <time>2016-02-14T13:38:37Z</time>
      </trkpt>
      <trkpt lat="43.58044" lon="3.34243">
        <ele>333</ele>
        <time>2016-02-14T13:38:38Z</time>
      </trkpt>
      <trkpt lat="43.58046" lon="3.34243">
        <ele>333</ele>
        <time>2016-02-14T13:38:39Z</time>
      </trkpt>
      <trkpt lat="43.58048" lon="3.34243">
        <ele>333</ele>
        <time>2016-02-14T13:38:40Z</time>
      </trkpt>
      <trkpt lat="43.58049" lon="3.34241">
        <ele>333.5</ele>
        <time>2016-02-14T13:38:41Z</time>
      </trkpt>
      <trkpt lat="43.5805" lon="3.34241">
        <ele>333.5</ele>
        <time>2016-02-14T13:38:42Z</time>
      </trkpt>
      <trkpt lat="43.58052" lon="3.34241">
        <ele>333.5</ele>
        <time>2016-02-14T13:38:43Z</time>
      </trkpt>
      <trkpt lat="43.58054" lon="3.3424">
        <ele>333.5</ele>
        <time>2016-02-14T13:38:44Z</time>
      </trkpt>
      <trkpt lat="43.58055" lon="3.34239">
        <ele>333.5</ele>
        <time>2016-02-14T13:38:45Z</time>
      </trkpt>
      <trkpt lat="43.58057" lon="3.34239">
        <ele>334</ele>
        <time>2016-02-14T13:38:46Z</time>
      </trkpt>
      <trkpt lat="43.58058" lon="3.34238">
        <ele>334.5</ele>
        <time>2016-02-14T13:38:47Z</time>
      </trkpt>
      <trkpt lat="43.5806" lon="3.34238">
        <ele>336</ele>
        <time>2016-02-14T13:38:48Z</time>
      </trkpt>
      <trkpt lat="43.58061" lon="3.34237">
        <ele>336</ele>
        <time>2016-02-14T13:38:49Z</time>
      </trkpt>
      <trkpt lat="43.58063" lon="3.34237">
        <ele>337.5</ele>
        <time>2016-02-14T13:38:50Z</time>
      </trkpt>
      <trkpt lat="43.58064" lon="3.34236">
        <ele>337.5</ele>
        <time>2016-02-14T13:38:51Z</time>
      </trkpt>
      <trkpt lat="43.58066" lon="3.34236">
        <ele>337.5</ele>
        <time>2016-02-14T13:38:52Z</time>
      </trkpt>
      <trkpt lat="43.58068" lon="3.34235">
        <ele>338.5</ele>
        <time>2016-02-14T13:38:53Z</time>
      </trkpt>
      <trkpt lat="43.58071" lon="3.34235">
        <ele>339.5</ele>
        <time>2016-02-14T13:38:54Z</time>
      </trkpt>
      <trkpt lat="43.58073" lon="3.34235">
        <ele>340</ele>
        <time>2016-02-14T13:38:55Z</time>
      </trkpt>
      <trkpt lat="43.58075" lon="3.34235">
        <ele>341</ele>
        <time>2016-02-14T13:38:56Z</time>
      </trkpt>
      <trkpt lat="43.58077" lon="3.34234">
        <ele>341</ele>
        <time>2016-02-14T13:38:57Z</time>
      </trkpt>
      <trkpt lat="43.58079" lon="3.34234">
        <ele>341</ele>
        <time>2016-02-14T13:38:58Z</time>
      </trkpt>
      <trkpt lat="43.58081" lon="3.34234">
        <ele>340.5</ele>
        <time>2016-02-14T13:38:59Z</time>
      </trkpt>
      <trkpt lat="43.58083" lon="3.34234">
        <ele>339.5</ele>
        <time>2016-02-14T13:39:00Z</time>
      </trkpt>
      <trkpt lat="43.58085" lon="3.34234">
        <ele>339.5</ele>
        <time>2016-02-14T13:39:01Z</time>
      </trkpt>
      <trkpt lat="43.58087" lon="3.34235">
        <ele>339.5</ele>
        <time>2016-02-14T13:39:02Z</time>
      </trkpt>
      <trkpt lat="43.58089" lon="3.34235">
        <ele>339.5</ele>
        <time>2016-02-14T13:39:03Z</time>
      </trkpt>
      <trkpt lat="43.5809" lon="3.34235">
        <ele>339.5</ele>
        <time>2016-02-14T13:39:04Z</time>
      </trkpt>
      <trkpt lat="43.58092" lon="3.34236">
        <ele>341</ele>
        <time>2016-02-14T13:39:04Z</time>
      </trkpt>
      <trkpt lat="43.58094" lon="3.34237">
        <ele>340.5</ele>
        <time>2016-02-14T13:39:06Z</time>
      </trkpt>
      <trkpt lat="43.58095" lon="3.34238">
        <ele>340.5</ele>
        <time>2016-02-14T13:39:07Z</time>
      </trkpt>
      <trkpt lat="43.58097" lon="3.3424">
        <ele>340.5</ele>
        <time>2016-02-14T13:39:07Z</time>
      </trkpt>
      <trkpt lat="43.58098" lon="3.34242">
        <ele>340.5</ele>
        <time>2016-02-14T13:39:08Z</time>
      </trkpt>
      <trkpt lat="43.58099" lon="3.34245">
        <ele>341</ele>
        <time>2016-02-14T13:39:09Z</time>
      </trkpt>
      <trkpt lat="43.58099" lon="3.34247">
        <ele>341.5</ele>
        <time>2016-02-14T13:39:10Z</time>
      </trkpt>
      <trkpt lat="43.581" lon="3.3425">
        <ele>342.5</ele>
        <time>2016-02-14T13:39:11Z</time>
      </trkpt>
      <trkpt lat="43.58101" lon="3.34252">
        <ele>342.5</ele>
        <time>2016-02-14T13:39:12Z</time>
      </trkpt>
      <trkpt lat="43.58101" lon="3.34255">
        <ele>342.5</ele>
        <time>2016-02-14T13:39:13Z</time>
      </trkpt>
      <trkpt lat="43.58102" lon="3.34257">
        <ele>343.5</ele>
        <time>2016-02-14T13:39:14Z</time>
      </trkpt>
      <trkpt lat="43.58102" lon="3.34259">
        <ele>343</ele>
        <time>2016-02-14T13:39:15Z</time>
      </trkpt>
      <trkpt lat="43.58102" lon="3.34262">
        <ele>343</ele>
        <time>2016-02-14T13:39:16Z</time>
      </trkpt>
      <trkpt lat="43.58103" lon="3.34265">
        <ele>343</ele>
        <time>2016-02-14T13:39:17Z</time>
      </trkpt>
      <trkpt lat="43.58103" lon="3.34267">
        <ele>343</ele>
        <time>2016-02-14T13:39:18Z</time>
      </trkpt>
      <trkpt lat="43.58103" lon="3.34269">
        <ele>341.5</ele>
        <time>2016-02-14T13:39:19Z</time>
      </trkpt>
      <trkpt lat="43.58103" lon="3.34271">
        <ele>341</ele>
        <time>2016-02-14T13:39:20Z</time>
      </trkpt>
      <trkpt lat="43.58103" lon="3.34273">
        <ele>341.5</ele>
        <time>2016-02-14T13:39:21Z</time>
      </trkpt>
      <trkpt lat="43.58104" lon="3.34276">
        <ele>342</ele>
        <time>2016-02-14T13:39:22Z</time>
      </trkpt>
      <trkpt lat="43.58104" lon="3.34278">
        <ele>343</ele>
        <time>2016-02-14T13:39:23Z</time>
      </trkpt>
      <trkpt lat="43.58105" lon="3.34281">
        <ele>343</ele>
        <time>2016-02-14T13:39:24Z</time>
      </trkpt>
      <trkpt lat="43.58105" lon="3.34283">
        <ele>343.5</ele>
        <time>2016-02-14T13:39:25Z</time>
      </trkpt>
      <trkpt lat="43.58106" lon="3.34286">
        <ele>344</ele>
        <time>2016-02-14T13:39:26Z</time>
      </trkpt>
      <trkpt lat="43.58106" lon="3.34289">
        <ele>344.5</ele>
        <time>2016-02-14T13:39:27Z</time>
      </trkpt>
      <trkpt lat="43.58107" lon="3.34292">
        <ele>345.5</ele>
        <time>2016-02-14T13:39:29Z</time>
      </trkpt>
      <trkpt lat="43.58107" lon="3.34295">
        <ele>345</ele>
        <time>2016-02-14T13:39:29Z</time>
      </trkpt>
      <trkpt lat="43.58108" lon="3.34298">
        <ele>345</ele>
        <time>2016-02-14T13:39:30Z</time>
      </trkpt>
      <trkpt lat="43.58109" lon="3.34301">
        <ele>345</ele>
        <time>2016-02-14T13:39:31Z</time>
      </trkpt>
      <trkpt lat="43.5811" lon="3.34304">
        <ele>344.5</ele>
        <time>2016-02-14T13:39:32Z</time>
      </trkpt>
      <trkpt lat="43.58111" lon="3.34306">
        <ele>344</ele>
        <time>2016-02-14T13:39:33Z</time>
      </trkpt>
      <trkpt lat="43.58112" lon="3.34309">
        <ele>344</ele>
        <time>2016-02-14T13:39:34Z</time>
      </trkpt>
      <trkpt lat="43.58113" lon="3.34312">
        <ele>344</ele>
        <time>2016-02-14T13:39:35Z</time>
      </trkpt>
      <trkpt lat="43.58114" lon="3.34314">
        <ele>344</ele>
        <time>2016-02-14T13:39:36Z</time>
      </trkpt>
      <trkpt lat="43.58115" lon="3.34316">
        <ele>344</ele>
        <time>2016-02-14T13:39:37Z</time>
      </trkpt>
      <trkpt lat="43.58116" lon="3.34319">
        <ele>344.5</ele>
        <time>2016-02-14T13:39:38Z</time>
      </trkpt>
      <trkpt lat="43.58117" lon="3.34321">
        <ele>345</ele>
        <time>2016-02-14T13:39:39Z</time>
      </trkpt>
      <trkpt lat="43.58117" lon="3.34324">
        <ele>345</ele>
        <time>2016-02-14T13:39:40Z</time>
      </trkpt>
      <trkpt lat="43.58118" lon="3.34326">
        <ele>346</ele>
        <time>2016-02-14T13:39:41Z</time>
      </trkpt>
      <trkpt lat="43.58119" lon="3.34328">
        <ele>346.5</ele>
        <time>2016-02-14T13:39:42Z</time>
      </trkpt>
      <trkpt lat="43.5812" lon="3.34331">
        <ele>347</ele>
        <time>2016-02-14T13:39:43Z</time>
      </trkpt>
      <trkpt lat="43.58121" lon="3.34333">
        <ele>347.5</ele>
        <time>2016-02-14T13:39:44Z</time>
      </trkpt>
      <trkpt lat="43.58122" lon="3.34336">
        <ele>347.5</ele>
        <time>2016-02-14T13:39:45Z</time>
      </trkpt>
      <trkpt lat="43.58123" lon="3.34339">
        <ele>347</ele>
        <time>2016-02-14T13:39:46Z</time>
      </trkpt>
      <trkpt lat="43.58124" lon="3.34341">
        <ele>347</ele>
        <time>2016-02-14T13:39:47Z</time>
      </trkpt>
      <trkpt lat="43.58125" lon="3.34343">
        <ele>346.5</ele>
        <time>2016-02-14T13:39:48Z</time>
      </trkpt>
      <trkpt lat="43.58126" lon="3.34346">
        <ele>346</ele>
        <time>2016-02-14T13:39:49Z</time>
      </trkpt>
      <trkpt lat="43.58127" lon="3.34348">
        <ele>346.5</ele>
        <time>2016-02-14T13:39:50Z</time>
      </trkpt>
      <trkpt lat="43.58128" lon="3.34351">
        <ele>347.5</ele>
        <time>2016-02-14T13:39:51Z</time>
      </trkpt>
      <trkpt lat="43.58128" lon="3.34353">
        <ele>346.5</ele>
        <time>2016-02-14T13:39:52Z</time>
      </trkpt>
      <trkpt lat="43.5813" lon="3.34356">
        <ele>348</ele>
        <time>2016-02-14T13:39:53Z</time>
      </trkpt>
      <trkpt lat="43.58131" lon="3.34358">
        <ele>348.5</ele>
        <time>2016-02-14T13:39:54Z</time>
      </trkpt>
      <trkpt lat="43.58132" lon="3.3436">
        <ele>348.5</ele>
        <time>2016-02-14T13:39:55Z</time>
      </trkpt>
      <trkpt lat="43.58133" lon="3.34362">
        <ele>348</ele>
        <time>2016-02-14T13:39:56Z</time>
      </trkpt>
      <trkpt lat="43.58134" lon="3.34364">
        <ele>348.5</ele>
        <time>2016-02-14T13:39:57Z</time>
      </trkpt>
      <trkpt lat="43.58135" lon="3.34367">
        <ele>348</ele>
        <time>2016-02-14T13:39:58Z</time>
      </trkpt>
      <trkpt lat="43.58136" lon="3.34369">
        <ele>347.5</ele>
        <time>2016-02-14T13:39:59Z</time>
      </trkpt>
      <trkpt lat="43.58137" lon="3.34371">
        <ele>347.5</ele>
        <time>2016-02-14T13:40:00Z</time>
      </trkpt>
      <trkpt lat="43.58139" lon="3.34373">
        <ele>348</ele>
        <time>2016-02-14T13:40:01Z</time>
      </trkpt>
      <trkpt lat="43.5814" lon="3.34376">
        <ele>349</ele>
        <time>2016-02-14T13:40:02Z</time>
      </trkpt>
      <trkpt lat="43.58142" lon="3.34378">
        <ele>349.5</ele>
        <time>2016-02-14T13:40:03Z</time>
      </trkpt>
      <trkpt lat="43.58143" lon="3.3438">
        <ele>350</ele>
        <time>2016-02-14T13:40:04Z</time>
      </trkpt>
      <trkpt lat="43.58145" lon="3.34382">
        <ele>351</ele>
        <time>2016-02-14T13:40:05Z</time>
      </trkpt>
      <trkpt lat="43.58147" lon="3.34384">
        <ele>350.5</ele>
        <time>2016-02-14T13:40:06Z</time>
      </trkpt>
      <trkpt lat="43.58148" lon="3.34386">
        <ele>351</ele>
        <time>2016-02-14T13:40:07Z</time>
      </trkpt>
      <trkpt lat="43.58149" lon="3.34388">
        <ele>351</ele>
        <time>2016-02-14T13:40:08Z</time>
      </trkpt>
      <trkpt lat="43.58151" lon="3.3439">
        <ele>350.5</ele>
        <time>2016-02-14T13:40:09Z</time>
      </trkpt>
      <trkpt lat="43.58152" lon="3.34392">
        <ele>350.5</ele>
        <time>2016-02-14T13:40:10Z</time>
      </trkpt>
      <trkpt lat="43.58154" lon="3.34394">
        <ele>350.5</ele>
        <time>2016-02-14T13:40:11Z</time>
      </trkpt>
      <trkpt lat="43.58155" lon="3.34396">
        <ele>351</ele>
        <time>2016-02-14T13:40:12Z</time>
      </trkpt>
      <trkpt lat="43.58157" lon="3.34398">
        <ele>351</ele>
        <time>2016-02-14T13:40:13Z</time>
      </trkpt>
      <trkpt lat="43.58158" lon="3.34398">
        <ele>353</ele>
        <time>2016-02-14T13:40:14Z</time>
      </trkpt>
      <trkpt lat="43.58159" lon="3.344">
        <ele>353.5</ele>
        <time>2016-02-14T13:40:15Z</time>
      </trkpt>
      <trkpt lat="43.58161" lon="3.34401">
        <ele>354</ele>
        <time>2016-02-14T13:40:16Z</time>
      </trkpt>
      <trkpt lat="43.58162" lon="3.34403">
        <ele>354</ele>
        <time>2016-02-14T13:40:17Z</time>
      </trkpt>
      <trkpt lat="43.58164" lon="3.34405">
        <ele>354.5</ele>
        <time>2016-02-14T13:40:18Z</time>
      </trkpt>
      <trkpt lat="43.58165" lon="3.34407">
        <ele>355</ele>
        <time>2016-02-14T13:40:19Z</time>
      </trkpt>
      <trkpt lat="43.58166" lon="3.34408">
        <ele>355.5</ele>
        <time>2016-02-14T13:40:20Z</time>
      </trkpt>
      <trkpt lat="43.58168" lon="3.3441">
        <ele>356</ele>
        <time>2016-02-14T13:40:21Z</time>
      </trkpt>
      <trkpt lat="43.58169" lon="3.34412">
        <ele>356.5</ele>
        <time>2016-02-14T13:40:22Z</time>
      </trkpt>
      <trkpt lat="43.58171" lon="3.34413">
        <ele>356.5</ele>
        <time>2016-02-14T13:40:23Z</time>
      </trkpt>
      <trkpt lat="43.58172" lon="3.34415">
        <ele>357</ele>
        <time>2016-02-14T13:40:24Z</time>
      </trkpt>
      <trkpt lat="43.58174" lon="3.34416">
        <ele>357.5</ele>
        <time>2016-02-14T13:40:25Z</time>
      </trkpt>
      <trkpt lat="43.58175" lon="3.34418">
        <ele>358</ele>
        <time>2016-02-14T13:40:26Z</time>
      </trkpt>
      <trkpt lat="43.58176" lon="3.34419">
        <ele>358.5</ele>
        <time>2016-02-14T13:40:27Z</time>
      </trkpt>
      <trkpt lat="43.58178" lon="3.34421">
        <ele>358.5</ele>
        <time>2016-02-14T13:40:28Z</time>
      </trkpt>
      <trkpt lat="43.58179" lon="3.34423">
        <ele>359</ele>
        <time>2016-02-14T13:40:29Z</time>
      </trkpt>
      <trkpt lat="43.5818" lon="3.34424">
        <ele>359.5</ele>
        <time>2016-02-14T13:40:30Z</time>
      </trkpt>
      <trkpt lat="43.58182" lon="3.34426">
        <ele>360</ele>
        <time>2016-02-14T13:40:31Z</time>
      </trkpt>
      <trkpt lat="43.58183" lon="3.34427">
        <ele>360.5</ele>
        <time>2016-02-14T13:40:32Z</time>
      </trkpt>
      <trkpt lat="43.58184" lon="3.34429">
        <ele>361</ele>
        <time>2016-02-14T13:40:33Z</time>
      </trkpt>
      <trkpt lat="43.58186" lon="3.34431">
        <ele>361.5</ele>
        <time>2016-02-14T13:40:34Z</time>
      </trkpt>
      <trkpt lat="43.58188" lon="3.34432">
        <ele>362.5</ele>
        <time>2016-02-14T13:40:35Z</time>
      </trkpt>
      <trkpt lat="43.5819" lon="3.34434">
        <ele>362.5</ele>
        <time>2016-02-14T13:40:36Z</time>
      </trkpt>
      <trkpt lat="43.58191" lon="3.34435">
        <ele>362.5</ele>
        <time>2016-02-14T13:40:37Z</time>
      </trkpt>
      <trkpt lat="43.58193" lon="3.34437">
        <ele>363</ele>
        <time>2016-02-14T13:40:38Z</time>
      </trkpt>
      <trkpt lat="43.58194" lon="3.34439">
        <ele>363.5</ele>
        <time>2016-02-14T13:40:39Z</time>
      </trkpt>
      <trkpt lat="43.58196" lon="3.3444">
        <ele>364</ele>
        <time>2016-02-14T13:40:40Z</time>
      </trkpt>
      <trkpt lat="43.58198" lon="3.34442">
        <ele>364.5</ele>
        <time>2016-02-14T13:40:41Z</time>
      </trkpt>
      <trkpt lat="43.582" lon="3.34443">
        <ele>365</ele>
        <time>2016-02-14T13:40:42Z</time>
      </trkpt>
      <trkpt lat="43.58201" lon="3.34443">
        <ele>365.5</ele>
        <time>2016-02-14T13:40:43Z</time>
      </trkpt>
      <trkpt lat="43.58202" lon="3.34443">
        <ele>366</ele>
        <time>2016-02-14T13:40:44Z</time>
      </trkpt>
      <trkpt lat="43.58204" lon="3.34444">
        <ele>367</ele>
        <time>2016-02-14T13:40:45Z</time>
      </trkpt>
      <trkpt lat="43.58205" lon="3.34445">
        <ele>367</ele>
        <time>2016-02-14T13:40:46Z</time>
      </trkpt>
      <trkpt lat="43.58207" lon="3.34446">
        <ele>367</ele>
        <time>2016-02-14T13:40:47Z</time>
      </trkpt>
      <trkpt lat="43.58209" lon="3.34447">
        <ele>366.5</ele>
        <time>2016-02-14T13:40:48Z</time>
      </trkpt>
      <trkpt lat="43.58211" lon="3.34448">
        <ele>367</ele>
        <time>2016-02-14T13:40:49Z</time>
      </trkpt>
      <trkpt lat="43.58213" lon="3.34448">
        <ele>367</ele>
        <time>2016-02-14T13:40:50Z</time>
      </trkpt>
      <trkpt lat="43.58214" lon="3.34449">
        <ele>367</ele>
        <time>2016-02-14T13:40:51Z</time>
      </trkpt>
      <trkpt lat="43.58216" lon="3.34449">
        <ele>367</ele>
        <time>2016-02-14T13:40:52Z</time>
      </trkpt>
      <trkpt lat="43.58218" lon="3.34449">
        <ele>367.5</ele>
        <time>2016-02-14T13:40:53Z</time>
      </trkpt>
      <trkpt lat="43.5822" lon="3.3445">
        <ele>367.5</ele>
        <time>2016-02-14T13:40:54Z</time>
      </trkpt>
      <trkpt lat="43.58221" lon="3.3445">
        <ele>367.5</ele>
        <time>2016-02-14T13:40:55Z</time>
      </trkpt>
      <trkpt lat="43.58223" lon="3.3445">
        <ele>367.5</ele>
        <time>2016-02-14T13:40:56Z</time>
      </trkpt>
      <trkpt lat="43.58225" lon="3.34451">
        <ele>367.5</ele>
        <time>2016-02-14T13:40:57Z</time>
      </trkpt>
      <trkpt lat="43.58226" lon="3.34451">
        <ele>367</ele>
        <time>2016-02-14T13:40:58Z</time>
      </trkpt>
      <trkpt lat="43.58228" lon="3.34451">
        <ele>367.5</ele>
        <time>2016-02-14T13:40:59Z</time>
      </trkpt>
      <trkpt lat="43.5823" lon="3.34451">
        <ele>368</ele>
        <time>2016-02-14T13:41:00Z</time>
      </trkpt>
      <trkpt lat="43.58231" lon="3.34451">
        <ele>368</ele>
        <time>2016-02-14T13:41:01Z</time>
      </trkpt>
      <trkpt lat="43.58233" lon="3.34452">
        <ele>368</ele>
        <time>2016-02-14T13:41:02Z</time>
      </trkpt>
      <trkpt lat="43.58234" lon="3.34451">
        <ele>368</ele>
        <time>2016-02-14T13:41:03Z</time>
      </trkpt>
      <trkpt lat="43.58236" lon="3.34452">
        <ele>367.5</ele>
        <time>2016-02-14T13:41:04Z</time>
      </trkpt>
      <trkpt lat="43.58238" lon="3.34452">
        <ele>367</ele>
        <time>2016-02-14T13:41:05Z</time>
      </trkpt>
      <trkpt lat="43.58239" lon="3.34451">
        <ele>368</ele>
        <time>2016-02-14T13:41:06Z</time>
      </trkpt>
      <trkpt lat="43.58241" lon="3.34451">
        <ele>368</ele>
        <time>2016-02-14T13:41:07Z</time>
      </trkpt>
      <trkpt lat="43.58243" lon="3.34451">
        <ele>367.5</ele>
        <time>2016-02-14T13:41:08Z</time>
      </trkpt>
      <trkpt lat="43.58244" lon="3.34451">
        <ele>367.5</ele>
        <time>2016-02-14T13:41:09Z</time>
      </trkpt>
      <trkpt lat="43.58246" lon="3.34451">
        <ele>367</ele>
        <time>2016-02-14T13:41:10Z</time>
      </trkpt>
      <trkpt lat="43.58248" lon="3.3445">
        <ele>366.5</ele>
        <time>2016-02-14T13:41:11Z</time>
      </trkpt>
      <trkpt lat="43.5825" lon="3.34451">
        <ele>366</ele>
        <time>2016-02-14T13:41:12Z</time>
      </trkpt>
      <trkpt lat="43.58252" lon="3.3445">
        <ele>366</ele>
        <time>2016-02-14T13:41:13Z</time>
      </trkpt>
      <trkpt lat="43.58253" lon="3.3445">
        <ele>365.5</ele>
        <time>2016-02-14T13:41:14Z</time>
      </trkpt>
      <trkpt lat="43.58255" lon="3.3445">
        <ele>365</ele>
        <time>2016-02-14T13:41:15Z</time>
      </trkpt>
      <trkpt lat="43.58257" lon="3.34449">
        <ele>364.5</ele>
        <time>2016-02-14T13:41:16Z</time>
      </trkpt>
      <trkpt lat="43.58258" lon="3.34448">
        <ele>364.5</ele>
        <time>2016-02-14T13:41:17Z</time>
      </trkpt>
      <trkpt lat="43.5826" lon="3.34447">
        <ele>364</ele>
        <time>2016-02-14T13:41:18Z</time>
      </trkpt>
      <trkpt lat="43.58262" lon="3.34447">
        <ele>364.5</ele>
        <time>2016-02-14T13:41:19Z</time>
      </trkpt>
      <trkpt lat="43.58264" lon="3.34446">
        <ele>365</ele>
        <time>2016-02-14T13:41:20Z</time>
      </trkpt>
      <trkpt lat="43.58265" lon="3.34445">
        <ele>365</ele>
        <time>2016-02-14T13:41:21Z</time>
      </trkpt>
      <trkpt lat="43.58267" lon="3.34444">
        <ele>364.5</ele>
        <time>2016-02-14T13:41:22Z</time>
      </trkpt>
      <trkpt lat="43.58269" lon="3.34443">
        <ele>365</ele>
        <time>2016-02-14T13:41:23Z</time>
      </trkpt>
      <trkpt lat="43.58271" lon="3.34442">
        <ele>364.5</ele>
        <time>2016-02-14T13:41:24Z</time>
      </trkpt>
      <trkpt lat="43.58272" lon="3.3444">
        <ele>364</ele>
        <time>2016-02-14T13:41:25Z</time>
      </trkpt>
      <trkpt lat="43.58274" lon="3.34439">
        <ele>364</ele>
        <time>2016-02-14T13:41:26Z</time>
      </trkpt>
      <trkpt lat="43.58275" lon="3.34437">
        <ele>364.5</ele>
        <time>2016-02-14T13:41:27Z</time>
      </trkpt>
      <trkpt lat="43.58275" lon="3.34435">
        <ele>365.5</ele>
        <time>2016-02-14T13:41:28Z</time>
      </trkpt>
      <trkpt lat="43.58276" lon="3.34433">
        <ele>365</ele>
        <time>2016-02-14T13:41:29Z</time>
      </trkpt>
      <trkpt lat="43.58275" lon="3.34431">
        <ele>365</ele>
        <time>2016-02-14T13:41:30Z</time>
      </trkpt>
      <trkpt lat="43.58274" lon="3.3443">
        <ele>364.5</ele>
        <time>2016-02-14T13:41:31Z</time>
      </trkpt>
      <trkpt lat="43.58273" lon="3.34431">
        <ele>365.5</ele>
        <time>2016-02-14T13:41:32Z</time>
      </trkpt>
      <trkpt lat="43.58271" lon="3.34431">
        <ele>366.5</ele>
        <time>2016-02-14T13:41:33Z</time>
      </trkpt>
      <trkpt lat="43.5827" lon="3.3443">
        <ele>366.5</ele>
        <time>2016-02-14T13:41:34Z</time>
      </trkpt>
      <trkpt lat="43.58269" lon="3.3443">
        <ele>366.5</ele>
        <time>2016-02-14T13:41:35Z</time>
      </trkpt>
      <trkpt lat="43.58267" lon="3.3443">
        <ele>367</ele>
        <time>2016-02-14T13:41:36Z</time>
      </trkpt>
      <trkpt lat="43.58266" lon="3.3443">
        <ele>367</ele>
        <time>2016-02-14T13:41:37Z</time>
      </trkpt>
      <trkpt lat="43.58264" lon="3.3443">
        <ele>367</ele>
        <time>2016-02-14T13:41:38Z</time>
      </trkpt>
      <trkpt lat="43.58262" lon="3.3443">
        <ele>366.5</ele>
        <time>2016-02-14T13:41:39Z</time>
      </trkpt>
      <trkpt lat="43.58261" lon="3.3443">
        <ele>367</ele>
        <time>2016-02-14T13:41:40Z</time>
      </trkpt>
      <trkpt lat="43.58259" lon="3.3443">
        <ele>367.5</ele>
        <time>2016-02-14T13:41:41Z</time>
      </trkpt>
      <trkpt lat="43.58258" lon="3.34429">
        <ele>367.5</ele>
        <time>2016-02-14T13:41:42Z</time>
      </trkpt>
      <trkpt lat="43.58256" lon="3.34428">
        <ele>367.5</ele>
        <time>2016-02-14T13:41:43Z</time>
      </trkpt>
      <trkpt lat="43.58255" lon="3.34427">
        <ele>367</ele>
        <time>2016-02-14T13:41:44Z</time>
      </trkpt>
      <trkpt lat="43.58254" lon="3.34426">
        <ele>366.5</ele>
        <time>2016-02-14T13:41:45Z</time>
      </trkpt>
      <trkpt lat="43.58253" lon="3.34423">
        <ele>366.5</ele>
        <time>2016-02-14T13:41:46Z</time>
      </trkpt>
      <trkpt lat="43.58251" lon="3.34421">
        <ele>366.5</ele>
        <time>2016-02-14T13:41:47Z</time>
      </trkpt>
      <trkpt lat="43.5825" lon="3.3442">
        <ele>366.5</ele>
        <time>2016-02-14T13:41:48Z</time>
      </trkpt>
      <trkpt lat="43.58249" lon="3.34418">
        <ele>367.5</ele>
        <time>2016-02-14T13:41:49Z</time>
      </trkpt>
      <trkpt lat="43.58248" lon="3.34415">
        <ele>367.5</ele>
        <time>2016-02-14T13:41:50Z</time>
      </trkpt>
      <trkpt lat="43.58247" lon="3.34414">
        <ele>368</ele>
        <time>2016-02-14T13:41:51Z</time>
      </trkpt>
      <trkpt lat="43.58246" lon="3.34412">
        <ele>368.5</ele>
        <time>2016-02-14T13:41:52Z</time>
      </trkpt>
      <trkpt lat="43.58245" lon="3.3441">
        <ele>369</ele>
        <time>2016-02-14T13:41:53Z</time>
      </trkpt>
      <trkpt lat="43.58244" lon="3.34408">
        <ele>369</ele>
        <time>2016-02-14T13:41:54Z</time>
      </trkpt>
      <trkpt lat="43.58243" lon="3.34405">
        <ele>369</ele>
        <time>2016-02-14T13:41:55Z</time>
      </trkpt>
      <trkpt lat="43.58242" lon="3.34403">
        <ele>369.5</ele>
        <time>2016-02-14T13:41:56Z</time>
      </trkpt>
      <trkpt lat="43.58241" lon="3.34401">
        <ele>370</ele>
        <time>2016-02-14T13:41:57Z</time>
      </trkpt>
      <trkpt lat="43.5824" lon="3.34399">
        <ele>370</ele>
        <time>2016-02-14T13:41:58Z</time>
      </trkpt>
      <trkpt lat="43.5824" lon="3.34396">
        <ele>370</ele>
        <time>2016-02-14T13:41:59Z</time>
      </trkpt>
      <trkpt lat="43.58239" lon="3.34394">
        <ele>370.5</ele>
        <time>2016-02-14T13:42:00Z</time>
      </trkpt>
      <trkpt lat="43.58238" lon="3.34392">
        <ele>370.5</ele>
        <time>2016-02-14T13:42:01Z</time>
      </trkpt>
      <trkpt lat="43.58237" lon="3.3439">
        <ele>370</ele>
        <time>2016-02-14T13:42:02Z</time>
      </trkpt>
      <trkpt lat="43.58237" lon="3.34387">
        <ele>370.5</ele>
        <time>2016-02-14T13:42:03Z</time>
      </trkpt>
      <trkpt lat="43.58236" lon="3.34384">
        <ele>371</ele>
        <time>2016-02-14T13:42:04Z</time>
      </trkpt>
      <trkpt lat="43.58236" lon="3.34382">
        <ele>371.5</ele>
        <time>2016-02-14T13:42:05Z</time>
      </trkpt>
      <trkpt lat="43.58235" lon="3.3438">
        <ele>371.5</ele>
        <time>2016-02-14T13:42:06Z</time>
      </trkpt>
      <trkpt lat="43.58234" lon="3.34377">
        <ele>371</ele>
        <time>2016-02-14T13:42:07Z</time>
      </trkpt>
      <trkpt lat="43.58232" lon="3.34375">
        <ele>370.5</ele>
        <time>2016-02-14T13:42:08Z</time>
      </trkpt>
      <trkpt lat="43.58231" lon="3.34373">
        <ele>370</ele>
        <time>2016-02-14T13:42:09Z</time>
      </trkpt>
      <trkpt lat="43.5823" lon="3.3437">
        <ele>369.5</ele>
        <time>2016-02-14T13:42:10Z</time>
      </trkpt>
      <trkpt lat="43.58229" lon="3.34368">
        <ele>369</ele>
        <time>2016-02-14T13:42:11Z</time>
      </trkpt>
      <trkpt lat="43.58229" lon="3.34365">
        <ele>368.5</ele>
        <time>2016-02-14T13:42:12Z</time>
      </trkpt>
      <trkpt lat="43.58228" lon="3.34363">
        <ele>368.5</ele>
        <time>2016-02-14T13:42:13Z</time>
      </trkpt>
      <trkpt lat="43.58227" lon="3.3436">
        <ele>369</ele>
        <time>2016-02-14T13:42:14Z</time>
      </trkpt>
      <trkpt lat="43.58226" lon="3.34358">
        <ele>369</ele>
        <time>2016-02-14T13:42:15Z</time>
      </trkpt>
      <trkpt lat="43.58225" lon="3.34356">
        <ele>369.5</ele>
        <time>2016-02-14T13:42:16Z</time>
      </trkpt>
      <trkpt lat="43.58225" lon="3.34353">
        <ele>369.5</ele>
        <time>2016-02-14T13:42:17Z</time>
      </trkpt>
      <trkpt lat="43.58224" lon="3.34351">
        <ele>369.5</ele>
        <time>2016-02-14T13:42:18Z</time>
      </trkpt>
      <trkpt lat="43.58223" lon="3.34348">
        <ele>369.5</ele>
        <time>2016-02-14T13:42:19Z</time>
      </trkpt>
      <trkpt lat="43.58222" lon="3.34346">
        <ele>369.5</ele>
        <time>2016-02-14T13:42:20Z</time>
      </trkpt>
      <trkpt lat="43.58221" lon="3.34343">
        <ele>370</ele>
        <time>2016-02-14T13:42:21Z</time>
      </trkpt>
      <trkpt lat="43.58221" lon="3.34341">
        <ele>370</ele>
        <time>2016-02-14T13:42:22Z</time>
      </trkpt>
      <trkpt lat="43.58221" lon="3.34338">
        <ele>370</ele>
        <time>2016-02-14T13:42:23Z</time>
      </trkpt>
      <trkpt lat="43.58222" lon="3.34335">
        <ele>371</ele>
        <time>2016-02-14T13:42:23Z</time>
      </trkpt>
      <trkpt lat="43.58222" lon="3.34333">
        <ele>371</ele>
        <time>2016-02-14T13:42:24Z</time>
      </trkpt>
      <trkpt lat="43.58221" lon="3.3433">
        <ele>371.5</ele>
        <time>2016-02-14T13:42:25Z</time>
      </trkpt>
      <trkpt lat="43.58221" lon="3.34327">
        <ele>371</ele>
        <time>2016-02-14T13:42:26Z</time>
      </trkpt>
      <trkpt lat="43.5822" lon="3.34325">
        <ele>371</ele>
        <time>2016-02-14T13:42:28Z</time>
      </trkpt>
      <trkpt lat="43.5822" lon="3.34322">
        <ele>371.5</ele>
        <time>2016-02-14T13:42:28Z</time>
      </trkpt>
      <trkpt lat="43.5822" lon="3.3432">
        <ele>371</ele>
        <time>2016-02-14T13:42:29Z</time>
      </trkpt>
      <trkpt lat="43.5822" lon="3.34317">
        <ele>371</ele>
        <time>2016-02-14T13:42:30Z</time>
      </trkpt>
      <trkpt lat="43.58219" lon="3.34316">
        <ele>372</ele>
        <time>2016-02-14T13:42:31Z</time>
      </trkpt>
      <trkpt lat="43.58219" lon="3.34313">
        <ele>372</ele>
        <time>2016-02-14T13:42:32Z</time>
      </trkpt>
      <trkpt lat="43.58219" lon="3.34311">
        <ele>372</ele>
        <time>2016-02-14T13:42:33Z</time>
      </trkpt>
      <trkpt lat="43.58219" lon="3.34308">
        <ele>372</ele>
        <time>2016-02-14T13:42:34Z</time>
      </trkpt>
      <trkpt lat="43.58219" lon="3.34305">
        <ele>372</ele>
        <time>2016-02-14T13:42:35Z</time>
      </trkpt>
      <trkpt lat="43.58219" lon="3.34303">
        <ele>374.5</ele>
        <time>2016-02-14T13:42:36Z</time>
      </trkpt>
      <trkpt lat="43.58219" lon="3.343">
        <ele>374.5</ele>
        <time>2016-02-14T13:42:37Z</time>
      </trkpt>
      <trkpt lat="43.58218" lon="3.34297">
        <ele>375</ele>
        <time>2016-02-14T13:42:39Z</time>
      </trkpt>
      <trkpt lat="43.58218" lon="3.34294">
        <ele>377</ele>
        <time>2016-02-14T13:42:39Z</time>
      </trkpt>
      <trkpt lat="43.58219" lon="3.34292">
        <ele>378.5</ele>
        <time>2016-02-14T13:42:40Z</time>
      </trkpt>
      <trkpt lat="43.58219" lon="3.34289">
        <ele>380</ele>
        <time>2016-02-14T13:42:42Z</time>
      </trkpt>
      <trkpt lat="43.58219" lon="3.34286">
        <ele>381</ele>
        <time>2016-02-14T13:42:42Z</time>
      </trkpt>
      <trkpt lat="43.58219" lon="3.34283">
        <ele>383</ele>
        <time>2016-02-14T13:42:43Z</time>
      </trkpt>
      <trkpt lat="43.58219" lon="3.3428">
        <ele>383</ele>
        <time>2016-02-14T13:42:44Z</time>
      </trkpt>
      <trkpt lat="43.58218" lon="3.34277">
        <ele>383.5</ele>
        <time>2016-02-14T13:42:45Z</time>
      </trkpt>
      <trkpt lat="43.58218" lon="3.34274">
        <ele>384.5</ele>
        <time>2016-02-14T13:42:46Z</time>
      </trkpt>
      <trkpt lat="43.58219" lon="3.34271">
        <ele>386</ele>
        <time>2016-02-14T13:42:47Z</time>
      </trkpt>
      <trkpt lat="43.5822" lon="3.34269">
        <ele>386</ele>
        <time>2016-02-14T13:42:48Z</time>
      </trkpt>
      <trkpt lat="43.5822" lon="3.34266">
        <ele>385.5</ele>
        <time>2016-02-14T13:42:49Z</time>
      </trkpt>
      <trkpt lat="43.5822" lon="3.34263">
        <ele>386</ele>
        <time>2016-02-14T13:42:50Z</time>
      </trkpt>
      <trkpt lat="43.58219" lon="3.3426">
        <ele>386</ele>
        <time>2016-02-14T13:42:51Z</time>
      </trkpt>
      <trkpt lat="43.5822" lon="3.34257">
        <ele>387</ele>
        <time>2016-02-14T13:42:52Z</time>
      </trkpt>
      <trkpt lat="43.5822" lon="3.34254">
        <ele>387</ele>
        <time>2016-02-14T13:42:53Z</time>
      </trkpt>
      <trkpt lat="43.5822" lon="3.34252">
        <ele>388</ele>
        <time>2016-02-14T13:42:54Z</time>
      </trkpt>
      <trkpt lat="43.58221" lon="3.34249">
        <ele>388.5</ele>
        <time>2016-02-14T13:42:55Z</time>
      </trkpt>
      <trkpt lat="43.58221" lon="3.34246">
        <ele>388.5</ele>
        <time>2016-02-14T13:42:57Z</time>
      </trkpt>
      <trkpt lat="43.58221" lon="3.34243">
        <ele>387.5</ele>
        <time>2016-02-14T13:42:57Z</time>
      </trkpt>
      <trkpt lat="43.58221" lon="3.3424">
        <ele>388.5</ele>
        <time>2016-02-14T13:42:58Z</time>
      </trkpt>
      <trkpt lat="43.5822" lon="3.34237">
        <ele>386.5</ele>
        <time>2016-02-14T13:42:59Z</time>
      </trkpt>
      <trkpt lat="43.5822" lon="3.34234">
        <ele>384</ele>
        <time>2016-02-14T13:43:00Z</time>
      </trkpt>
      <trkpt lat="43.5822" lon="3.34231">
        <ele>382.5</ele>
        <time>2016-02-14T13:43:01Z</time>
      </trkpt>
      <trkpt lat="43.58221" lon="3.34228">
        <ele>383</ele>
        <time>2016-02-14T13:43:02Z</time>
      </trkpt>
      <trkpt lat="43.58221" lon="3.34225">
        <ele>383.5</ele>
        <time>2016-02-14T13:43:03Z</time>
      </trkpt>
      <trkpt lat="43.58222" lon="3.34222">
        <ele>383.5</ele>
        <time>2016-02-14T13:43:04Z</time>
      </trkpt>
      <trkpt lat="43.58222" lon="3.34219">
        <ele>383.5</ele>
        <time>2016-02-14T13:43:05Z</time>
      </trkpt>
      <trkpt lat="43.58223" lon="3.34216">
        <ele>382</ele>
        <time>2016-02-14T13:43:06Z</time>
      </trkpt>
      <trkpt lat="43.58223" lon="3.34213">
        <ele>381</ele>
        <time>2016-02-14T13:43:07Z</time>
      </trkpt>
      <trkpt lat="43.58224" lon="3.3421">
        <ele>379.5</ele>
        <time>2016-02-14T13:43:08Z</time>
      </trkpt>
      <trkpt lat="43.58225" lon="3.34207">
        <ele>379</ele>
        <time>2016-02-14T13:43:09Z</time>
      </trkpt>
      <trkpt lat="43.58225" lon="3.34204">
        <ele>378.5</ele>
        <time>2016-02-14T13:43:10Z</time>
      </trkpt>
      <trkpt lat="43.58226" lon="3.34201">
        <ele>377</ele>
        <time>2016-02-14T13:43:11Z</time>
      </trkpt>
      <trkpt lat="43.58227" lon="3.34199">
        <ele>376</ele>
        <time>2016-02-14T13:43:12Z</time>
      </trkpt>
      <trkpt lat="43.58227" lon="3.34196">
        <ele>374.5</ele>
        <time>2016-02-14T13:43:13Z</time>
      </trkpt>
      <trkpt lat="43.58228" lon="3.34193">
        <ele>373</ele>
        <time>2016-02-14T13:43:14Z</time>
      </trkpt>
      <trkpt lat="43.58229" lon="3.34191">
        <ele>371</ele>
        <time>2016-02-14T13:43:15Z</time>
      </trkpt>
      <trkpt lat="43.58229" lon="3.34188">
        <ele>369</ele>
        <time>2016-02-14T13:43:16Z</time>
      </trkpt>
      <trkpt lat="43.5823" lon="3.34186">
        <ele>368.5</ele>
        <time>2016-02-14T13:43:17Z</time>
      </trkpt>
      <trkpt lat="43.58231" lon="3.34183">
        <ele>367.5</ele>
        <time>2016-02-14T13:43:18Z</time>
      </trkpt>
      <trkpt lat="43.58231" lon="3.3418">
        <ele>367</ele>
        <time>2016-02-14T13:43:19Z</time>
      </trkpt>
      <trkpt lat="43.58232" lon="3.34178">
        <ele>366</ele>
        <time>2016-02-14T13:43:20Z</time>
      </trkpt>
      <trkpt lat="43.58233" lon="3.34175">
        <ele>366</ele>
        <time>2016-02-14T13:43:21Z</time>
      </trkpt>
      <trkpt lat="43.58234" lon="3.34173">
        <ele>365.5</ele>
        <time>2016-02-14T13:43:22Z</time>
      </trkpt>
      <trkpt lat="43.58235" lon="3.34171">
        <ele>365</ele>
        <time>2016-02-14T13:43:23Z</time>
      </trkpt>
      <trkpt lat="43.58236" lon="3.34168">
        <ele>364.5</ele>
        <time>2016-02-14T13:43:24Z</time>
      </trkpt>
      <trkpt lat="43.58237" lon="3.34166">
        <ele>364.5</ele>
        <time>2016-02-14T13:43:25Z</time>
      </trkpt>
      <trkpt lat="43.58238" lon="3.34163">
        <ele>364</ele>
        <time>2016-02-14T13:43:26Z</time>
      </trkpt>
      <trkpt lat="43.58239" lon="3.3416">
        <ele>364.5</ele>
        <time>2016-02-14T13:43:27Z</time>
      </trkpt>
      <trkpt lat="43.5824" lon="3.34158">
        <ele>365</ele>
        <time>2016-02-14T13:43:28Z</time>
      </trkpt>
      <trkpt lat="43.58242" lon="3.34156">
        <ele>365</ele>
        <time>2016-02-14T13:43:29Z</time>
      </trkpt>
      <trkpt lat="43.58243" lon="3.34154">
        <ele>365.5</ele>
        <time>2016-02-14T13:43:30Z</time>
      </trkpt>
      <trkpt lat="43.58244" lon="3.34151">
        <ele>366.5</ele>
        <time>2016-02-14T13:43:31Z</time>
      </trkpt>
      <trkpt lat="43.58245" lon="3.34149">
        <ele>367</ele>
        <time>2016-02-14T13:43:32Z</time>
      </trkpt>
      <trkpt lat="43.58246" lon="3.34146">
        <ele>367</ele>
        <time>2016-02-14T13:43:33Z</time>
      </trkpt>
      <trkpt lat="43.58248" lon="3.34144">
        <ele>367.5</ele>
        <time>2016-02-14T13:43:34Z</time>
      </trkpt>
      <trkpt lat="43.58249" lon="3.34141">
        <ele>367</ele>
        <time>2016-02-14T13:43:35Z</time>
      </trkpt>
      <trkpt lat="43.5825" lon="3.34138">
        <ele>367.5</ele>
        <time>2016-02-14T13:43:36Z</time>
      </trkpt>
      <trkpt lat="43.58252" lon="3.34135">
        <ele>367.5</ele>
        <time>2016-02-14T13:43:37Z</time>
      </trkpt>
      <trkpt lat="43.58253" lon="3.34133">
        <ele>367</ele>
        <time>2016-02-14T13:43:38Z</time>
      </trkpt>
      <trkpt lat="43.58254" lon="3.3413">
        <ele>365.5</ele>
        <time>2016-02-14T13:43:39Z</time>
      </trkpt>
      <trkpt lat="43.58255" lon="3.34127">
        <ele>366</ele>
        <time>2016-02-14T13:43:40Z</time>
      </trkpt>
      <trkpt lat="43.58256" lon="3.34123">
        <ele>365.5</ele>
        <time>2016-02-14T13:43:41Z</time>
      </trkpt>
      <trkpt lat="43.58257" lon="3.3412">
        <ele>364</ele>
        <time>2016-02-14T13:43:42Z</time>
      </trkpt>
      <trkpt lat="43.58258" lon="3.34117">
        <ele>363.5</ele>
        <time>2016-02-14T13:43:43Z</time>
      </trkpt>
      <trkpt lat="43.5826" lon="3.34114">
        <ele>363</ele>
        <time>2016-02-14T13:43:44Z</time>
      </trkpt>
      <trkpt lat="43.58261" lon="3.34111">
        <ele>363</ele>
        <time>2016-02-14T13:43:45Z</time>
      </trkpt>
      <trkpt lat="43.58262" lon="3.34109">
        <ele>363.5</ele>
        <time>2016-02-14T13:43:46Z</time>
      </trkpt>
      <trkpt lat="43.58264" lon="3.34106">
        <ele>363.5</ele>
        <time>2016-02-14T13:43:47Z</time>
      </trkpt>
      <trkpt lat="43.58265" lon="3.34103">
        <ele>363.5</ele>
        <time>2016-02-14T13:43:48Z</time>
      </trkpt>
      <trkpt lat="43.58266" lon="3.34101">
        <ele>363</ele>
        <time>2016-02-14T13:43:49Z</time>
      </trkpt>
      <trkpt lat="43.58268" lon="3.34099">
        <ele>365.5</ele>
        <time>2016-02-14T13:43:50Z</time>
      </trkpt>
      <trkpt lat="43.5827" lon="3.34096">
        <ele>365</ele>
        <time>2016-02-14T13:43:51Z</time>
      </trkpt>
      <trkpt lat="43.58271" lon="3.34093">
        <ele>366</ele>
        <time>2016-02-14T13:43:52Z</time>
      </trkpt>
      <trkpt lat="43.58273" lon="3.34091">
        <ele>367</ele>
        <time>2016-02-14T13:43:53Z</time>
      </trkpt>
      <trkpt lat="43.58274" lon="3.34087">
        <ele>368</ele>
        <time>2016-02-14T13:43:54Z</time>
      </trkpt>
      <trkpt lat="43.58275" lon="3.34084">
        <ele>368.5</ele>
        <time>2016-02-14T13:43:55Z</time>
      </trkpt>
      <trkpt lat="43.58275" lon="3.34081">
        <ele>368.5</ele>
        <time>2016-02-14T13:43:56Z</time>
      </trkpt>
      <trkpt lat="43.58276" lon="3.34078">
        <ele>368.5</ele>
        <time>2016-02-14T13:43:57Z</time>
      </trkpt>
      <trkpt lat="43.58276" lon="3.34074">
        <ele>369</ele>
        <time>2016-02-14T13:43:58Z</time>
      </trkpt>
      <trkpt lat="43.58276" lon="3.34071">
        <ele>369</ele>
        <time>2016-02-14T13:43:59Z</time>
      </trkpt>
      <trkpt lat="43.58275" lon="3.34068">
        <ele>369.5</ele>
        <time>2016-02-14T13:44:00Z</time>
      </trkpt>
      <trkpt lat="43.58275" lon="3.34064">
        <ele>371.5</ele>
        <time>2016-02-14T13:44:01Z</time>
      </trkpt>
      <trkpt lat="43.58274" lon="3.34062">
        <ele>371.5</ele>
        <time>2016-02-14T13:44:02Z</time>
      </trkpt>
      <trkpt lat="43.58272" lon="3.34059">
        <ele>372.5</ele>
        <time>2016-02-14T13:44:03Z</time>
      </trkpt>
      <trkpt lat="43.58271" lon="3.34057">
        <ele>373</ele>
        <time>2016-02-14T13:44:04Z</time>
      </trkpt>
      <trkpt lat="43.58269" lon="3.34055">
        <ele>374</ele>
        <time>2016-02-14T13:44:05Z</time>
      </trkpt>
      <trkpt lat="43.58267" lon="3.34056">
        <ele>375.5</ele>
        <time>2016-02-14T13:44:06Z</time>
      </trkpt>
      <trkpt lat="43.58265" lon="3.34052">
        <ele>376.5</ele>
        <time>2016-02-14T13:44:07Z</time>
      </trkpt>
      <trkpt lat="43.58263" lon="3.34051">
        <ele>377</ele>
        <time>2016-02-14T13:44:08Z</time>
      </trkpt>
      <trkpt lat="43.58261" lon="3.34049">
        <ele>377.5</ele>
        <time>2016-02-14T13:44:09Z</time>
      </trkpt>
      <trkpt lat="43.58259" lon="3.34048">
        <ele>378.5</ele>
        <time>2016-02-14T13:44:10Z</time>
      </trkpt>
      <trkpt lat="43.58257" lon="3.34047">
        <ele>379</ele>
        <time>2016-02-14T13:44:11Z</time>
      </trkpt>
      <trkpt lat="43.58256" lon="3.34045">
        <ele>380.5</ele>
        <time>2016-02-14T13:44:12Z</time>
      </trkpt>
      <trkpt lat="43.58254" lon="3.34044">
        <ele>380.5</ele>
        <time>2016-02-14T13:44:13Z</time>
      </trkpt>
      <trkpt lat="43.58252" lon="3.34042">
        <ele>381.5</ele>
        <time>2016-02-14T13:44:14Z</time>
      </trkpt>
      <trkpt lat="43.5825" lon="3.34041">
        <ele>381.5</ele>
        <time>2016-02-14T13:44:15Z</time>
      </trkpt>
      <trkpt lat="43.58248" lon="3.34039">
        <ele>381.5</ele>
        <time>2016-02-14T13:44:16Z</time>
      </trkpt>
      <trkpt lat="43.58246" lon="3.34037">
        <ele>382.5</ele>
        <time>2016-02-14T13:44:17Z</time>
      </trkpt>
      <trkpt lat="43.58245" lon="3.34034">
        <ele>383</ele>
        <time>2016-02-14T13:44:18Z</time>
      </trkpt>
      <trkpt lat="43.58243" lon="3.34032">
        <ele>383.5</ele>
        <time>2016-02-14T13:44:19Z</time>
      </trkpt>
      <trkpt lat="43.58242" lon="3.3403">
        <ele>384</ele>
        <time>2016-02-14T13:44:20Z</time>
      </trkpt>
      <trkpt lat="43.5824" lon="3.34028">
        <ele>384.5</ele>
        <time>2016-02-14T13:44:21Z</time>
      </trkpt>
      <trkpt lat="43.58238" lon="3.34026">
        <ele>385</ele>
        <time>2016-02-14T13:44:22Z</time>
      </trkpt>
      <trkpt lat="43.58236" lon="3.34025">
        <ele>384.5</ele>
        <time>2016-02-14T13:44:23Z</time>
      </trkpt>
      <trkpt lat="43.58235" lon="3.34022">
        <ele>384.5</ele>
        <time>2016-02-14T13:44:24Z</time>
      </trkpt>
      <trkpt lat="43.58234" lon="3.3402">
        <ele>384.5</ele>
        <time>2016-02-14T13:44:25Z</time>
      </trkpt>
      <trkpt lat="43.58232" lon="3.34018">
        <ele>385</ele>
        <time>2016-02-14T13:44:26Z</time>
      </trkpt>
      <trkpt lat="43.58231" lon="3.34015">
        <ele>385.5</ele>
        <time>2016-02-14T13:44:27Z</time>
      </trkpt>
      <trkpt lat="43.5823" lon="3.34013">
        <ele>386</ele>
        <time>2016-02-14T13:44:28Z</time>
      </trkpt>
      <trkpt lat="43.58228" lon="3.34011">
        <ele>386.5</ele>
        <time>2016-02-14T13:44:29Z</time>
      </trkpt>
      <trkpt lat="43.58227" lon="3.3401">
        <ele>387.5</ele>
        <time>2016-02-14T13:44:30Z</time>
      </trkpt>
      <trkpt lat="43.58225" lon="3.34008">
        <ele>387.5</ele>
        <time>2016-02-14T13:44:31Z</time>
      </trkpt>
      <trkpt lat="43.58224" lon="3.34005">
        <ele>388</ele>
        <time>2016-02-14T13:44:32Z</time>
      </trkpt>
      <trkpt lat="43.58222" lon="3.34003">
        <ele>388</ele>
        <time>2016-02-14T13:44:33Z</time>
      </trkpt>
      <trkpt lat="43.5822" lon="3.34001">
        <ele>389</ele>
        <time>2016-02-14T13:44:34Z</time>
      </trkpt>
      <trkpt lat="43.58219" lon="3.33999">
        <ele>389.5</ele>
        <time>2016-02-14T13:44:35Z</time>
      </trkpt>
      <trkpt lat="43.58217" lon="3.33996">
        <ele>389</ele>
        <time>2016-02-14T13:44:36Z</time>
      </trkpt>
      <trkpt lat="43.58215" lon="3.33994">
        <ele>389.5</ele>
        <time>2016-02-14T13:44:37Z</time>
      </trkpt>
      <trkpt lat="43.58214" lon="3.33991">
        <ele>390</ele>
        <time>2016-02-14T13:44:38Z</time>
      </trkpt>
      <trkpt lat="43.58212" lon="3.33989">
        <ele>390.5</ele>
        <time>2016-02-14T13:44:39Z</time>
      </trkpt>
      <trkpt lat="43.58211" lon="3.33987">
        <ele>390.5</ele>
        <time>2016-02-14T13:44:40Z</time>
      </trkpt>
      <trkpt lat="43.58209" lon="3.33985">
        <ele>390.5</ele>
        <time>2016-02-14T13:44:41Z</time>
      </trkpt>
      <trkpt lat="43.58208" lon="3.33982">
        <ele>390.5</ele>
        <time>2016-02-14T13:44:42Z</time>
      </trkpt>
      <trkpt lat="43.58207" lon="3.33979">
        <ele>390.5</ele>
        <time>2016-02-14T13:44:43Z</time>
      </trkpt>
      <trkpt lat="43.58206" lon="3.33976">
        <ele>391</ele>
        <time>2016-02-14T13:44:44Z</time>
      </trkpt>
      <trkpt lat="43.58205" lon="3.33973">
        <ele>391</ele>
        <time>2016-02-14T13:44:45Z</time>
      </trkpt>
      <trkpt lat="43.58204" lon="3.33971">
        <ele>391.5</ele>
        <time>2016-02-14T13:44:46Z</time>
      </trkpt>
      <trkpt lat="43.58203" lon="3.33967">
        <ele>391.5</ele>
        <time>2016-02-14T13:44:47Z</time>
      </trkpt>
      <trkpt lat="43.58202" lon="3.33964">
        <ele>391.5</ele>
        <time>2016-02-14T13:44:48Z</time>
      </trkpt>
      <trkpt lat="43.58202" lon="3.33961">
        <ele>391.5</ele>
        <time>2016-02-14T13:44:49Z</time>
      </trkpt>
      <trkpt lat="43.58202" lon="3.33957">
        <ele>391.5</ele>
        <time>2016-02-14T13:44:50Z</time>
      </trkpt>
      <trkpt lat="43.58202" lon="3.33954">
        <ele>391.5</ele>
        <time>2016-02-14T13:44:51Z</time>
      </trkpt>
      <trkpt lat="43.58202" lon="3.33952">
        <ele>393.5</ele>
        <time>2016-02-14T13:44:52Z</time>
      </trkpt>
      <trkpt lat="43.58202" lon="3.33949">
        <ele>394</ele>
        <time>2016-02-14T13:44:53Z</time>
      </trkpt>
      <trkpt lat="43.58202" lon="3.33946">
        <ele>395</ele>
        <time>2016-02-14T13:44:54Z</time>
      </trkpt>
      <trkpt lat="43.58202" lon="3.33943">
        <ele>396</ele>
        <time>2016-02-14T13:44:55Z</time>
      </trkpt>
      <trkpt lat="43.58203" lon="3.3394">
        <ele>396</ele>
        <time>2016-02-14T13:44:56Z</time>
      </trkpt>
      <trkpt lat="43.58204" lon="3.33936">
        <ele>396</ele>
        <time>2016-02-14T13:44:57Z</time>
      </trkpt>
      <trkpt lat="43.58204" lon="3.33933">
        <ele>396</ele>
        <time>2016-02-14T13:44:58Z</time>
      </trkpt>
      <trkpt lat="43.58204" lon="3.33929">
        <ele>396</ele>
        <time>2016-02-14T13:44:59Z</time>
      </trkpt>
      <trkpt lat="43.58206" lon="3.33925">
        <ele>396</ele>
        <time>2016-02-14T13:45:00Z</time>
      </trkpt>
      <trkpt lat="43.58206" lon="3.33922">
        <ele>395.5</ele>
        <time>2016-02-14T13:45:01Z</time>
      </trkpt>
      <trkpt lat="43.58207" lon="3.33918">
        <ele>395</ele>
        <time>2016-02-14T13:45:02Z</time>
      </trkpt>
      <trkpt lat="43.58207" lon="3.33915">
        <ele>394.5</ele>
        <time>2016-02-14T13:45:03Z</time>
      </trkpt>
      <trkpt lat="43.58208" lon="3.33911">
        <ele>394</ele>
        <time>2016-02-14T13:45:04Z</time>
      </trkpt>
      <trkpt lat="43.58208" lon="3.33907">
        <ele>393.5</ele>
        <time>2016-02-14T13:45:05Z</time>
      </trkpt>
      <trkpt lat="43.58209" lon="3.33904">
        <ele>393</ele>
        <time>2016-02-14T13:45:06Z</time>
      </trkpt>
      <trkpt lat="43.5821" lon="3.33901">
        <ele>392.5</ele>
        <time>2016-02-14T13:45:07Z</time>
      </trkpt>
      <trkpt lat="43.5821" lon="3.33898">
        <ele>392</ele>
        <time>2016-02-14T13:45:08Z</time>
      </trkpt>
      <trkpt lat="43.58211" lon="3.33894">
        <ele>392</ele>
        <time>2016-02-14T13:45:09Z</time>
      </trkpt>
      <trkpt lat="43.58212" lon="3.33891">
        <ele>392</ele>
        <time>2016-02-14T13:45:10Z</time>
      </trkpt>
      <trkpt lat="43.58212" lon="3.33888">
        <ele>391.5</ele>
        <time>2016-02-14T13:45:11Z</time>
      </trkpt>
      <trkpt lat="43.58213" lon="3.33885">
        <ele>391</ele>
        <time>2016-02-14T13:45:12Z</time>
      </trkpt>
      <trkpt lat="43.58213" lon="3.33882">
        <ele>391</ele>
        <time>2016-02-14T13:45:13Z</time>
      </trkpt>
      <trkpt lat="43.58214" lon="3.33879">
        <ele>391.5</ele>
        <time>2016-02-14T13:45:14Z</time>
      </trkpt>
      <trkpt lat="43.58215" lon="3.33876">
        <ele>391.5</ele>
        <time>2016-02-14T13:45:15Z</time>
      </trkpt>
      <trkpt lat="43.58216" lon="3.33873">
        <ele>391.5</ele>
        <time>2016-02-14T13:45:16Z</time>
      </trkpt>
      <trkpt lat="43.58217" lon="3.3387">
        <ele>392</ele>
        <time>2016-02-14T13:45:17Z</time>
      </trkpt>
      <trkpt lat="43.58218" lon="3.33867">
        <ele>392.5</ele>
        <time>2016-02-14T13:45:18Z</time>
      </trkpt>
      <trkpt lat="43.58219" lon="3.33864">
        <ele>391.5</ele>
        <time>2016-02-14T13:45:19Z</time>
      </trkpt>
      <trkpt lat="43.58219" lon="3.33861">
        <ele>391.5</ele>
        <time>2016-02-14T13:45:20Z</time>
      </trkpt>
      <trkpt lat="43.5822" lon="3.33857">
        <ele>391</ele>
        <time>2016-02-14T13:45:21Z</time>
      </trkpt>
      <trkpt lat="43.5822" lon="3.33855">
        <ele>389.5</ele>
        <time>2016-02-14T13:45:22Z</time>
      </trkpt>
      <trkpt lat="43.58221" lon="3.33852">
        <ele>389</ele>
        <time>2016-02-14T13:45:23Z</time>
      </trkpt>
      <trkpt lat="43.58222" lon="3.33849">
        <ele>389</ele>
        <time>2016-02-14T13:45:24Z</time>
      </trkpt>
      <trkpt lat="43.58223" lon="3.33846">
        <ele>389.5</ele>
        <time>2016-02-14T13:45:25Z</time>
      </trkpt>
      <trkpt lat="43.58224" lon="3.33843">
        <ele>388</ele>
        <time>2016-02-14T13:45:26Z</time>
      </trkpt>
      <trkpt lat="43.58225" lon="3.33839">
        <ele>388</ele>
        <time>2016-02-14T13:45:27Z</time>
      </trkpt>
      <trkpt lat="43.58226" lon="3.33836">
        <ele>389</ele>
        <time>2016-02-14T13:45:28Z</time>
      </trkpt>
      <trkpt lat="43.58227" lon="3.33832">
        <ele>389.5</ele>
        <time>2016-02-14T13:45:29Z</time>
      </trkpt>
      <trkpt lat="43.58227" lon="3.33829">
        <ele>390</ele>
        <time>2016-02-14T13:45:30Z</time>
      </trkpt>
      <trkpt lat="43.58228" lon="3.33826">
        <ele>391</ele>
        <time>2016-02-14T13:45:31Z</time>
      </trkpt>
      <trkpt lat="43.5823" lon="3.33816">
        <ele>393</ele>
        <time>2016-02-14T13:45:32Z</time>
      </trkpt>
      <trkpt lat="43.5823" lon="3.33813">
        <ele>393.5</ele>
        <time>2016-02-14T13:45:33Z</time>
      </trkpt>
      <trkpt lat="43.5823" lon="3.3381">
        <ele>393.5</ele>
        <time>2016-02-14T13:45:34Z</time>
      </trkpt>
      <trkpt lat="43.5823" lon="3.33806">
        <ele>394</ele>
        <time>2016-02-14T13:45:35Z</time>
      </trkpt>
      <trkpt lat="43.5823" lon="3.33803">
        <ele>394</ele>
        <time>2016-02-14T13:45:36Z</time>
      </trkpt>
      <trkpt lat="43.58231" lon="3.33799">
        <ele>394.5</ele>
        <time>2016-02-14T13:45:37Z</time>
      </trkpt>
      <trkpt lat="43.58232" lon="3.33795">
        <ele>394.5</ele>
        <time>2016-02-14T13:45:38Z</time>
      </trkpt>
      <trkpt lat="43.58233" lon="3.33791">
        <ele>394.5</ele>
        <time>2016-02-14T13:45:39Z</time>
      </trkpt>
      <trkpt lat="43.58233" lon="3.33788">
        <ele>395</ele>
        <time>2016-02-14T13:45:40Z</time>
      </trkpt>
      <trkpt lat="43.58233" lon="3.33784">
        <ele>395.5</ele>
        <time>2016-02-14T13:45:41Z</time>
      </trkpt>
      <trkpt lat="43.58232" lon="3.33781">
        <ele>396</ele>
        <time>2016-02-14T13:45:42Z</time>
      </trkpt>
      <trkpt lat="43.58232" lon="3.33778">
        <ele>396.5</ele>
        <time>2016-02-14T13:45:43Z</time>
      </trkpt>
      <trkpt lat="43.58233" lon="3.33775">
        <ele>399</ele>
        <time>2016-02-14T13:45:44Z</time>
      </trkpt>
      <trkpt lat="43.58233" lon="3.33771">
        <ele>400.5</ele>
        <time>2016-02-14T13:45:45Z</time>
      </trkpt>
      <trkpt lat="43.58234" lon="3.33767">
        <ele>401.5</ele>
        <time>2016-02-14T13:45:46Z</time>
      </trkpt>
      <trkpt lat="43.58234" lon="3.33764">
        <ele>401.5</ele>
        <time>2016-02-14T13:45:47Z</time>
      </trkpt>
      <trkpt lat="43.58235" lon="3.3376">
        <ele>403.5</ele>
        <time>2016-02-14T13:45:48Z</time>
      </trkpt>
      <trkpt lat="43.58236" lon="3.33756">
        <ele>403</ele>
        <time>2016-02-14T13:45:49Z</time>
      </trkpt>
      <trkpt lat="43.58236" lon="3.33752">
        <ele>402</ele>
        <time>2016-02-14T13:45:50Z</time>
      </trkpt>
      <trkpt lat="43.58236" lon="3.33749">
        <ele>399.5</ele>
        <time>2016-02-14T13:45:51Z</time>
      </trkpt>
      <trkpt lat="43.58236" lon="3.33746">
        <ele>399.5</ele>
        <time>2016-02-14T13:45:52Z</time>
      </trkpt>
      <trkpt lat="43.58236" lon="3.33743">
        <ele>400</ele>
        <time>2016-02-14T13:45:53Z</time>
      </trkpt>
      <trkpt lat="43.58236" lon="3.3374">
        <ele>400.5</ele>
        <time>2016-02-14T13:45:54Z</time>
      </trkpt>
      <trkpt lat="43.58236" lon="3.33737">
        <ele>404</ele>
        <time>2016-02-14T13:45:55Z</time>
      </trkpt>
      <trkpt lat="43.58237" lon="3.33734">
        <ele>405</ele>
        <time>2016-02-14T13:45:56Z</time>
      </trkpt>
      <trkpt lat="43.58236" lon="3.3373">
        <ele>405.5</ele>
        <time>2016-02-14T13:45:57Z</time>
      </trkpt>
      <trkpt lat="43.58236" lon="3.33726">
        <ele>405.5</ele>
        <time>2016-02-14T13:45:58Z</time>
      </trkpt>
      <trkpt lat="43.58235" lon="3.33723">
        <ele>406</ele>
        <time>2016-02-14T13:45:59Z</time>
      </trkpt>
      <trkpt lat="43.58235" lon="3.33719">
        <ele>406.5</ele>
        <time>2016-02-14T13:46:00Z</time>
      </trkpt>
      <trkpt lat="43.58235" lon="3.33716">
        <ele>406.5</ele>
        <time>2016-02-14T13:46:01Z</time>
      </trkpt>
      <trkpt lat="43.58234" lon="3.33712">
        <ele>406.5</ele>
        <time>2016-02-14T13:46:02Z</time>
      </trkpt>
      <trkpt lat="43.58234" lon="3.33708">
        <ele>407</ele>
        <time>2016-02-14T13:46:03Z</time>
      </trkpt>
      <trkpt lat="43.58234" lon="3.33705">
        <ele>407</ele>
        <time>2016-02-14T13:46:04Z</time>
      </trkpt>
      <trkpt lat="43.58233" lon="3.33701">
        <ele>406.5</ele>
        <time>2016-02-14T13:46:05Z</time>
      </trkpt>
      <trkpt lat="43.58233" lon="3.33698">
        <ele>406.5</ele>
        <time>2016-02-14T13:46:06Z</time>
      </trkpt>
      <trkpt lat="43.58234" lon="3.33695">
        <ele>406.5</ele>
        <time>2016-02-14T13:46:07Z</time>
      </trkpt>
      <trkpt lat="43.58234" lon="3.33691">
        <ele>406.5</ele>
        <time>2016-02-14T13:46:08Z</time>
      </trkpt>
      <trkpt lat="43.58235" lon="3.33689">
        <ele>408.5</ele>
        <time>2016-02-14T13:46:09Z</time>
      </trkpt>
      <trkpt lat="43.58235" lon="3.33685">
        <ele>407.5</ele>
        <time>2016-02-14T13:46:10Z</time>
      </trkpt>
      <trkpt lat="43.58235" lon="3.33682">
        <ele>405.5</ele>
        <time>2016-02-14T13:46:11Z</time>
      </trkpt>
      <trkpt lat="43.58235" lon="3.33679">
        <ele>404</ele>
        <time>2016-02-14T13:46:12Z</time>
      </trkpt>
      <trkpt lat="43.58235" lon="3.33675">
        <ele>404.5</ele>
        <time>2016-02-14T13:46:13Z</time>
      </trkpt>
      <trkpt lat="43.58235" lon="3.33672">
        <ele>404.5</ele>
        <time>2016-02-14T13:46:14Z</time>
      </trkpt>
      <trkpt lat="43.58236" lon="3.33669">
        <ele>403.5</ele>
        <time>2016-02-14T13:46:15Z</time>
      </trkpt>
      <trkpt lat="43.58236" lon="3.33666">
        <ele>402.5</ele>
        <time>2016-02-14T13:46:16Z</time>
      </trkpt>
      <trkpt lat="43.58237" lon="3.33662">
        <ele>401.5</ele>
        <time>2016-02-14T13:46:17Z</time>
      </trkpt>
      <trkpt lat="43.58237" lon="3.33659">
        <ele>400</ele>
        <time>2016-02-14T13:46:18Z</time>
      </trkpt>
      <trkpt lat="43.58238" lon="3.33655">
        <ele>399.5</ele>
        <time>2016-02-14T13:46:19Z</time>
      </trkpt>
      <trkpt lat="43.58239" lon="3.33652">
        <ele>400</ele>
        <time>2016-02-14T13:46:20Z</time>
      </trkpt>
      <trkpt lat="43.5824" lon="3.33649">
        <ele>399.5</ele>
        <time>2016-02-14T13:46:21Z</time>
      </trkpt>
      <trkpt lat="43.5824" lon="3.33646">
        <ele>399</ele>
        <time>2016-02-14T13:46:22Z</time>
      </trkpt>
      <trkpt lat="43.58241" lon="3.33643">
        <ele>400</ele>
        <time>2016-02-14T13:46:23Z</time>
      </trkpt>
      <trkpt lat="43.58242" lon="3.33639">
        <ele>399.5</ele>
        <time>2016-02-14T13:46:24Z</time>
      </trkpt>
      <trkpt lat="43.58242" lon="3.33636">
        <ele>399</ele>
        <time>2016-02-14T13:46:25Z</time>
      </trkpt>
      <trkpt lat="43.58243" lon="3.33632">
        <ele>398</ele>
        <time>2016-02-14T13:46:26Z</time>
      </trkpt>
      <trkpt lat="43.58244" lon="3.33628">
        <ele>398</ele>
        <time>2016-02-14T13:46:27Z</time>
      </trkpt>
      <trkpt lat="43.58245" lon="3.33625">
        <ele>398</ele>
        <time>2016-02-14T13:46:28Z</time>
      </trkpt>
      <trkpt lat="43.58247" lon="3.33622">
        <ele>398</ele>
        <time>2016-02-14T13:46:29Z</time>
      </trkpt>
      <trkpt lat="43.58248" lon="3.33619">
        <ele>398</ele>
        <time>2016-02-14T13:46:30Z</time>
      </trkpt>
      <trkpt lat="43.58249" lon="3.33615">
        <ele>399</ele>
        <time>2016-02-14T13:46:31Z</time>
      </trkpt>
      <trkpt lat="43.5825" lon="3.33612">
        <ele>399</ele>
        <time>2016-02-14T13:46:32Z</time>
      </trkpt>
      <trkpt lat="43.58251" lon="3.33608">
        <ele>400</ele>
        <time>2016-02-14T13:46:33Z</time>
      </trkpt>
      <trkpt lat="43.58252" lon="3.33604">
        <ele>398.5</ele>
        <time>2016-02-14T13:46:34Z</time>
      </trkpt>
      <trkpt lat="43.58254" lon="3.33601">
        <ele>399.5</ele>
        <time>2016-02-14T13:46:35Z</time>
      </trkpt>
      <trkpt lat="43.58256" lon="3.33598">
        <ele>399</ele>
        <time>2016-02-14T13:46:36Z</time>
      </trkpt>
      <trkpt lat="43.58258" lon="3.33595">
        <ele>398</ele>
        <time>2016-02-14T13:46:37Z</time>
      </trkpt>
      <trkpt lat="43.5826" lon="3.33591">
        <ele>397.5</ele>
        <time>2016-02-14T13:46:38Z</time>
      </trkpt>
      <trkpt lat="43.58261" lon="3.33588">
        <ele>397</ele>
        <time>2016-02-14T13:46:39Z</time>
      </trkpt>
      <trkpt lat="43.58262" lon="3.33584">
        <ele>397</ele>
        <time>2016-02-14T13:46:40Z</time>
      </trkpt>
      <trkpt lat="43.58263" lon="3.3358">
        <ele>397.5</ele>
        <time>2016-02-14T13:46:41Z</time>
      </trkpt>
      <trkpt lat="43.58265" lon="3.33577">
        <ele>397</ele>
        <time>2016-02-14T13:46:42Z</time>
      </trkpt>
      <trkpt lat="43.58267" lon="3.33573">
        <ele>397</ele>
        <time>2016-02-14T13:46:43Z</time>
      </trkpt>
      <trkpt lat="43.58268" lon="3.33569">
        <ele>397.5</ele>
        <time>2016-02-14T13:46:44Z</time>
      </trkpt>
      <trkpt lat="43.5827" lon="3.33564">
        <ele>398</ele>
        <time>2016-02-14T13:46:45Z</time>
      </trkpt>
      <trkpt lat="43.58271" lon="3.3356">
        <ele>398</ele>
        <time>2016-02-14T13:46:46Z</time>
      </trkpt>
      <trkpt lat="43.58272" lon="3.33555">
        <ele>397.5</ele>
        <time>2016-02-14T13:46:47Z</time>
      </trkpt>
      <trkpt lat="43.58272" lon="3.3355">
        <ele>397</ele>
        <time>2016-02-14T13:46:48Z</time>
      </trkpt>
      <trkpt lat="43.58273" lon="3.33545">
        <ele>396.5</ele>
        <time>2016-02-14T13:46:49Z</time>
      </trkpt>
      <trkpt lat="43.58275" lon="3.33539">
        <ele>397.5</ele>
        <time>2016-02-14T13:46:50Z</time>
      </trkpt>
      <trkpt lat="43.58276" lon="3.33534">
        <ele>397.5</ele>
        <time>2016-02-14T13:46:51Z</time>
      </trkpt>
      <trkpt lat="43.58277" lon="3.33529">
        <ele>397.5</ele>
        <time>2016-02-14T13:46:52Z</time>
      </trkpt>
      <trkpt lat="43.58277" lon="3.33524">
        <ele>397</ele>
        <time>2016-02-14T13:46:53Z</time>
      </trkpt>
      <trkpt lat="43.58278" lon="3.33519">
        <ele>397.5</ele>
        <time>2016-02-14T13:46:54Z</time>
      </trkpt>
      <trkpt lat="43.58279" lon="3.33514">
        <ele>399.5</ele>
        <time>2016-02-14T13:46:55Z</time>
      </trkpt>
      <trkpt lat="43.5828" lon="3.33509">
        <ele>400.5</ele>
        <time>2016-02-14T13:46:56Z</time>
      </trkpt>
      <trkpt lat="43.5828" lon="3.33504">
        <ele>399.5</ele>
        <time>2016-02-14T13:46:57Z</time>
      </trkpt>
      <trkpt lat="43.58281" lon="3.33498">
        <ele>401</ele>
        <time>2016-02-14T13:46:58Z</time>
      </trkpt>
      <trkpt lat="43.58282" lon="3.33493">
        <ele>401.5</ele>
        <time>2016-02-14T13:46:59Z</time>
      </trkpt>
      <trkpt lat="43.58282" lon="3.33488">
        <ele>402</ele>
        <time>2016-02-14T13:47:00Z</time>
      </trkpt>
      <trkpt lat="43.58283" lon="3.33483">
        <ele>402.5</ele>
        <time>2016-02-14T13:47:01Z</time>
      </trkpt>
      <trkpt lat="43.58284" lon="3.33478">
        <ele>403.5</ele>
        <time>2016-02-14T13:47:02Z</time>
      </trkpt>
      <trkpt lat="43.58285" lon="3.33473">
        <ele>405</ele>
        <time>2016-02-14T13:47:03Z</time>
      </trkpt>
      <trkpt lat="43.58285" lon="3.33469">
        <ele>407.5</ele>
        <time>2016-02-14T13:47:04Z</time>
      </trkpt>
      <trkpt lat="43.58286" lon="3.33464">
        <ele>409</ele>
        <time>2016-02-14T13:47:05Z</time>
      </trkpt>
      <trkpt lat="43.58287" lon="3.33459">
        <ele>410</ele>
        <time>2016-02-14T13:47:06Z</time>
      </trkpt>
      <trkpt lat="43.58288" lon="3.33454">
        <ele>410.5</ele>
        <time>2016-02-14T13:47:07Z</time>
      </trkpt>
      <trkpt lat="43.58289" lon="3.33449">
        <ele>410.5</ele>
        <time>2016-02-14T13:47:08Z</time>
      </trkpt>
      <trkpt lat="43.58289" lon="3.33444">
        <ele>410.5</ele>
        <time>2016-02-14T13:47:09Z</time>
      </trkpt>
      <trkpt lat="43.5829" lon="3.33439">
        <ele>410.5</ele>
        <time>2016-02-14T13:47:10Z</time>
      </trkpt>
      <trkpt lat="43.58291" lon="3.33434">
        <ele>410.5</ele>
        <time>2016-02-14T13:47:11Z</time>
      </trkpt>
      <trkpt lat="43.58293" lon="3.33429">
        <ele>412</ele>
        <time>2016-02-14T13:47:12Z</time>
      </trkpt>
      <trkpt lat="43.58293" lon="3.33424">
        <ele>410.5</ele>
        <time>2016-02-14T13:47:13Z</time>
      </trkpt>
      <trkpt lat="43.58295" lon="3.33419">
        <ele>411</ele>
        <time>2016-02-14T13:47:14Z</time>
      </trkpt>
      <trkpt lat="43.58296" lon="3.33414">
        <ele>410.5</ele>
        <time>2016-02-14T13:47:15Z</time>
      </trkpt>
      <trkpt lat="43.58297" lon="3.33408">
        <ele>409.5</ele>
        <time>2016-02-14T13:47:16Z</time>
      </trkpt>
      <trkpt lat="43.58297" lon="3.33404">
        <ele>409.5</ele>
        <time>2016-02-14T13:47:17Z</time>
      </trkpt>
      <trkpt lat="43.58298" lon="3.33399">
        <ele>411</ele>
        <time>2016-02-14T13:47:18Z</time>
      </trkpt>
      <trkpt lat="43.58298" lon="3.33393">
        <ele>409</ele>
        <time>2016-02-14T13:47:19Z</time>
      </trkpt>
      <trkpt lat="43.58299" lon="3.33388">
        <ele>407.5</ele>
        <time>2016-02-14T13:47:20Z</time>
      </trkpt>
      <trkpt lat="43.58301" lon="3.33383">
        <ele>407</ele>
        <time>2016-02-14T13:47:21Z</time>
      </trkpt>
      <trkpt lat="43.58301" lon="3.33379">
        <ele>407</ele>
        <time>2016-02-14T13:47:22Z</time>
      </trkpt>
      <trkpt lat="43.58302" lon="3.33373">
        <ele>407.5</ele>
        <time>2016-02-14T13:47:23Z</time>
      </trkpt>
      <trkpt lat="43.58303" lon="3.33368">
        <ele>408.5</ele>
        <time>2016-02-14T13:47:24Z</time>
      </trkpt>
      <trkpt lat="43.58303" lon="3.33362">
        <ele>408.5</ele>
        <time>2016-02-14T13:47:25Z</time>
      </trkpt>
      <trkpt lat="43.58303" lon="3.33356">
        <ele>407.5</ele>
        <time>2016-02-14T13:47:26Z</time>
      </trkpt>
      <trkpt lat="43.58303" lon="3.3335">
        <ele>407.5</ele>
        <time>2016-02-14T13:47:27Z</time>
      </trkpt>
      <trkpt lat="43.58302" lon="3.33344">
        <ele>406.5</ele>
        <time>2016-02-14T13:47:28Z</time>
      </trkpt>
      <trkpt lat="43.58301" lon="3.33339">
        <ele>406.5</ele>
        <time>2016-02-14T13:47:29Z</time>
      </trkpt>
      <trkpt lat="43.58301" lon="3.33333">
        <ele>406.5</ele>
        <time>2016-02-14T13:47:30Z</time>
      </trkpt>
      <trkpt lat="43.583" lon="3.33327">
        <ele>406.5</ele>
        <time>2016-02-14T13:47:31Z</time>
      </trkpt>
      <trkpt lat="43.583" lon="3.33321">
        <ele>406.5</ele>
        <time>2016-02-14T13:47:32Z</time>
      </trkpt>
      <trkpt lat="43.58299" lon="3.33314">
        <ele>407</ele>
        <time>2016-02-14T13:47:33Z</time>
      </trkpt>
      <trkpt lat="43.58299" lon="3.33307">
        <ele>407</ele>
        <time>2016-02-14T13:47:34Z</time>
      </trkpt>
      <trkpt lat="43.58299" lon="3.333">
        <ele>407.5</ele>
        <time>2016-02-14T13:47:35Z</time>
      </trkpt>
      <trkpt lat="43.58299" lon="3.33293">
        <ele>407.5</ele>
        <time>2016-02-14T13:47:36Z</time>
      </trkpt>
      <trkpt lat="43.58299" lon="3.33286">
        <ele>408</ele>
        <time>2016-02-14T13:47:37Z</time>
      </trkpt>
      <trkpt lat="43.58299" lon="3.33279">
        <ele>408</ele>
        <time>2016-02-14T13:47:38Z</time>
      </trkpt>
      <trkpt lat="43.58298" lon="3.33271">
        <ele>407.5</ele>
        <time>2016-02-14T13:47:39Z</time>
      </trkpt>
      <trkpt lat="43.58298" lon="3.33264">
        <ele>407</ele>
        <time>2016-02-14T13:47:40Z</time>
      </trkpt>
      <trkpt lat="43.58296" lon="3.33259">
        <ele>406</ele>
        <time>2016-02-14T13:47:41Z</time>
      </trkpt>
      <trkpt lat="43.58296" lon="3.33252">
        <ele>405.5</ele>
        <time>2016-02-14T13:47:42Z</time>
      </trkpt>
      <trkpt lat="43.58297" lon="3.33246">
        <ele>405.5</ele>
        <time>2016-02-14T13:47:43Z</time>
      </trkpt>
      <trkpt lat="43.58298" lon="3.3324">
        <ele>406</ele>
        <time>2016-02-14T13:47:44Z</time>
      </trkpt>
      <trkpt lat="43.58299" lon="3.33233">
        <ele>405.5</ele>
        <time>2016-02-14T13:47:45Z</time>
      </trkpt>
      <trkpt lat="43.583" lon="3.33227">
        <ele>406</ele>
        <time>2016-02-14T13:47:46Z</time>
      </trkpt>
      <trkpt lat="43.58302" lon="3.33221">
        <ele>404.5</ele>
        <time>2016-02-14T13:47:47Z</time>
      </trkpt>
      <trkpt lat="43.58303" lon="3.33215">
        <ele>404</ele>
        <time>2016-02-14T13:47:47Z</time>
      </trkpt>
      <trkpt lat="43.58305" lon="3.33209">
        <ele>404</ele>
        <time>2016-02-14T13:47:48Z</time>
      </trkpt>
      <trkpt lat="43.58307" lon="3.33203">
        <ele>405</ele>
        <time>2016-02-14T13:47:50Z</time>
      </trkpt>
      <trkpt lat="43.58309" lon="3.33197">
        <ele>404.5</ele>
        <time>2016-02-14T13:47:50Z</time>
      </trkpt>
      <trkpt lat="43.58311" lon="3.33191">
        <ele>405</ele>
        <time>2016-02-14T13:47:51Z</time>
      </trkpt>
      <trkpt lat="43.58312" lon="3.33186">
        <ele>403.5</ele>
        <time>2016-02-14T13:47:52Z</time>
      </trkpt>
      <trkpt lat="43.58313" lon="3.33181">
        <ele>402.5</ele>
        <time>2016-02-14T13:47:53Z</time>
      </trkpt>
      <trkpt lat="43.58314" lon="3.33176">
        <ele>402.5</ele>
        <time>2016-02-14T13:47:54Z</time>
      </trkpt>
      <trkpt lat="43.58314" lon="3.3317">
        <ele>403.5</ele>
        <time>2016-02-14T13:47:55Z</time>
      </trkpt>
      <trkpt lat="43.58315" lon="3.33165">
        <ele>404</ele>
        <time>2016-02-14T13:47:56Z</time>
      </trkpt>
      <trkpt lat="43.58314" lon="3.33158">
        <ele>403.5</ele>
        <time>2016-02-14T13:47:57Z</time>
      </trkpt>
      <trkpt lat="43.58314" lon="3.33152">
        <ele>404</ele>
        <time>2016-02-14T13:47:58Z</time>
      </trkpt>
      <trkpt lat="43.58313" lon="3.33145">
        <ele>404.5</ele>
        <time>2016-02-14T13:47:59Z</time>
      </trkpt>
      <trkpt lat="43.58313" lon="3.33137">
        <ele>405.5</ele>
        <time>2016-02-14T13:48:00Z</time>
      </trkpt>
      <trkpt lat="43.58312" lon="3.33131">
        <ele>406</ele>
        <time>2016-02-14T13:48:01Z</time>
      </trkpt>
      <trkpt lat="43.58312" lon="3.33124">
        <ele>406.5</ele>
        <time>2016-02-14T13:48:03Z</time>
      </trkpt>
      <trkpt lat="43.58311" lon="3.33117">
        <ele>407</ele>
        <time>2016-02-14T13:48:03Z</time>
      </trkpt>
      <trkpt lat="43.58311" lon="3.3311">
        <ele>407</ele>
        <time>2016-02-14T13:48:04Z</time>
      </trkpt>
      <trkpt lat="43.58312" lon="3.33103">
        <ele>408.5</ele>
        <time>2016-02-14T13:48:05Z</time>
      </trkpt>
      <trkpt lat="43.58312" lon="3.33095">
        <ele>408.5</ele>
        <time>2016-02-14T13:48:06Z</time>
      </trkpt>
      <trkpt lat="43.58313" lon="3.33087">
        <ele>408</ele>
        <time>2016-02-14T13:48:08Z</time>
      </trkpt>
      <trkpt lat="43.58315" lon="3.33079">
        <ele>408.5</ele>
        <time>2016-02-14T13:48:08Z</time>
      </trkpt>
      <trkpt lat="43.58316" lon="3.33072">
        <ele>406.5</ele>
        <time>2016-02-14T13:48:09Z</time>
      </trkpt>
      <trkpt lat="43.58318" lon="3.33064">
        <ele>405</ele>
        <time>2016-02-14T13:48:10Z</time>
      </trkpt>
      <trkpt lat="43.58321" lon="3.33055">
        <ele>403.5</ele>
        <time>2016-02-14T13:48:11Z</time>
      </trkpt>
      <trkpt lat="43.58324" lon="3.33046">
        <ele>403</ele>
        <time>2016-02-14T13:48:12Z</time>
      </trkpt>
      <trkpt lat="43.58329" lon="3.33037">
        <ele>402</ele>
        <time>2016-02-14T13:48:13Z</time>
      </trkpt>
      <trkpt lat="43.58332" lon="3.33028">
        <ele>402</ele>
        <time>2016-02-14T13:48:14Z</time>
      </trkpt>
      <trkpt lat="43.58335" lon="3.33019">
        <ele>401.5</ele>
        <time>2016-02-14T13:48:15Z</time>
      </trkpt>
      <trkpt lat="43.58337" lon="3.3301">
        <ele>402</ele>
        <time>2016-02-14T13:48:16Z</time>
      </trkpt>
      <trkpt lat="43.58339" lon="3.33002">
        <ele>401.5</ele>
        <time>2016-02-14T13:48:17Z</time>
      </trkpt>
      <trkpt lat="43.5834" lon="3.32993">
        <ele>401.5</ele>
        <time>2016-02-14T13:48:18Z</time>
      </trkpt>
      <trkpt lat="43.58341" lon="3.32984">
        <ele>401.5</ele>
        <time>2016-02-14T13:48:19Z</time>
      </trkpt>
      <trkpt lat="43.58342" lon="3.32975">
        <ele>402</ele>
        <time>2016-02-14T13:48:20Z</time>
      </trkpt>
      <trkpt lat="43.58343" lon="3.32967">
        <ele>403.5</ele>
        <time>2016-02-14T13:48:21Z</time>
      </trkpt>
      <trkpt lat="43.58344" lon="3.32958">
        <ele>404</ele>
        <time>2016-02-14T13:48:22Z</time>
      </trkpt>
      <trkpt lat="43.58344" lon="3.32951">
        <ele>404</ele>
        <time>2016-02-14T13:48:23Z</time>
      </trkpt>
      <trkpt lat="43.58345" lon="3.32943">
        <ele>404.5</ele>
        <time>2016-02-14T13:48:24Z</time>
      </trkpt>
      <trkpt lat="43.58345" lon="3.32935">
        <ele>404</ele>
        <time>2016-02-14T13:48:25Z</time>
      </trkpt>
      <trkpt lat="43.58345" lon="3.32929">
        <ele>404.5</ele>
        <time>2016-02-14T13:48:26Z</time>
      </trkpt>
      <trkpt lat="43.58345" lon="3.32921">
        <ele>404.5</ele>
        <time>2016-02-14T13:48:27Z</time>
      </trkpt>
      <trkpt lat="43.58345" lon="3.32914">
        <ele>405</ele>
        <time>2016-02-14T13:48:28Z</time>
      </trkpt>
      <trkpt lat="43.58344" lon="3.32907">
        <ele>405</ele>
        <time>2016-02-14T13:48:29Z</time>
      </trkpt>
      <trkpt lat="43.58344" lon="3.32901">
        <ele>405</ele>
        <time>2016-02-14T13:48:30Z</time>
      </trkpt>
      <trkpt lat="43.58343" lon="3.32895">
        <ele>405.5</ele>
        <time>2016-02-14T13:48:31Z</time>
      </trkpt>
      <trkpt lat="43.58342" lon="3.32889">
        <ele>406</ele>
        <time>2016-02-14T13:48:32Z</time>
      </trkpt>
      <trkpt lat="43.58342" lon="3.32883">
        <ele>405</ele>
        <time>2016-02-14T13:48:33Z</time>
      </trkpt>
      <trkpt lat="43.58342" lon="3.32877">
        <ele>404.5</ele>
        <time>2016-02-14T13:48:34Z</time>
      </trkpt>
      <trkpt lat="43.58341" lon="3.32871">
        <ele>405</ele>
        <time>2016-02-14T13:48:35Z</time>
      </trkpt>
      <trkpt lat="43.5834" lon="3.32867">
        <ele>405.5</ele>
        <time>2016-02-14T13:48:36Z</time>
      </trkpt>
      <trkpt lat="43.58339" lon="3.32863">
        <ele>406</ele>
        <time>2016-02-14T13:48:37Z</time>
      </trkpt>
      <trkpt lat="43.58338" lon="3.32859">
        <ele>406</ele>
        <time>2016-02-14T13:48:38Z</time>
      </trkpt>
      <trkpt lat="43.58337" lon="3.32856">
        <ele>406.5</ele>
        <time>2016-02-14T13:48:39Z</time>
      </trkpt>
      <trkpt lat="43.58335" lon="3.32853">
        <ele>406.5</ele>
        <time>2016-02-14T13:48:40Z</time>
      </trkpt>
      <trkpt lat="43.58334" lon="3.3285">
        <ele>406.5</ele>
        <time>2016-02-14T13:48:41Z</time>
      </trkpt>
      <trkpt lat="43.58332" lon="3.32848">
        <ele>406.5</ele>
        <time>2016-02-14T13:48:42Z</time>
      </trkpt>
      <trkpt lat="43.58331" lon="3.32846">
        <ele>407</ele>
        <time>2016-02-14T13:48:43Z</time>
      </trkpt>
      <trkpt lat="43.58329" lon="3.32844">
        <ele>407.5</ele>
        <time>2016-02-14T13:48:44Z</time>
      </trkpt>
      <trkpt lat="43.58327" lon="3.32842">
        <ele>407.5</ele>
        <time>2016-02-14T13:48:45Z</time>
      </trkpt>
      <trkpt lat="43.58326" lon="3.3284">
        <ele>407.5</ele>
        <time>2016-02-14T13:48:46Z</time>
      </trkpt>
      <trkpt lat="43.58324" lon="3.32838">
        <ele>408.5</ele>
        <time>2016-02-14T13:48:47Z</time>
      </trkpt>
      <trkpt lat="43.58322" lon="3.32836">
        <ele>408.5</ele>
        <time>2016-02-14T13:48:48Z</time>
      </trkpt>
      <trkpt lat="43.5832" lon="3.32835">
        <ele>409</ele>
        <time>2016-02-14T13:48:49Z</time>
      </trkpt>
      <trkpt lat="43.58317" lon="3.32833">
        <ele>409</ele>
        <time>2016-02-14T13:48:50Z</time>
      </trkpt>
      <trkpt lat="43.58314" lon="3.32831">
        <ele>408.5</ele>
        <time>2016-02-14T13:48:51Z</time>
      </trkpt>
      <trkpt lat="43.58312" lon="3.32828">
        <ele>408.5</ele>
        <time>2016-02-14T13:48:52Z</time>
      </trkpt>
      <trkpt lat="43.58309" lon="3.32826">
        <ele>408</ele>
        <time>2016-02-14T13:48:53Z</time>
      </trkpt>
      <trkpt lat="43.58307" lon="3.32824">
        <ele>407.5</ele>
        <time>2016-02-14T13:48:54Z</time>
      </trkpt>
      <trkpt lat="43.58304" lon="3.32822">
        <ele>407</ele>
        <time>2016-02-14T13:48:55Z</time>
      </trkpt>
      <trkpt lat="43.58301" lon="3.32817">
        <ele>406.5</ele>
        <time>2016-02-14T13:48:56Z</time>
      </trkpt>
      <trkpt lat="43.58296" lon="3.32815">
        <ele>408.5</ele>
        <time>2016-02-14T13:48:58Z</time>
      </trkpt>
      <trkpt lat="43.58293" lon="3.32813">
        <ele>408.5</ele>
        <time>2016-02-14T13:48:59Z</time>
      </trkpt>
      <trkpt lat="43.5829" lon="3.3281">
        <ele>408.5</ele>
        <time>2016-02-14T13:49:00Z</time>
      </trkpt>
      <trkpt lat="43.58287" lon="3.32808">
        <ele>408</ele>
        <time>2016-02-14T13:49:01Z</time>
      </trkpt>
      <trkpt lat="43.58283" lon="3.32805">
        <ele>407.5</ele>
        <time>2016-02-14T13:49:02Z</time>
      </trkpt>
      <trkpt lat="43.5828" lon="3.32803">
        <ele>407.5</ele>
        <time>2016-02-14T13:49:03Z</time>
      </trkpt>
      <trkpt lat="43.58276" lon="3.328">
        <ele>407</ele>
        <time>2016-02-14T13:49:04Z</time>
      </trkpt>
      <trkpt lat="43.58273" lon="3.32798">
        <ele>407</ele>
        <time>2016-02-14T13:49:05Z</time>
      </trkpt>
      <trkpt lat="43.58269" lon="3.32795">
        <ele>406.5</ele>
        <time>2016-02-14T13:49:06Z</time>
      </trkpt>
      <trkpt lat="43.58266" lon="3.32792">
        <ele>406</ele>
        <time>2016-02-14T13:49:07Z</time>
      </trkpt>
      <trkpt lat="43.58262" lon="3.3279">
        <ele>406</ele>
        <time>2016-02-14T13:49:08Z</time>
      </trkpt>
      <trkpt lat="43.58258" lon="3.32787">
        <ele>405.5</ele>
        <time>2016-02-14T13:49:09Z</time>
      </trkpt>
      <trkpt lat="43.58255" lon="3.32785">
        <ele>405.5</ele>
        <time>2016-02-14T13:49:10Z</time>
      </trkpt>
      <trkpt lat="43.58251" lon="3.32782">
        <ele>405.5</ele>
        <time>2016-02-14T13:49:11Z</time>
      </trkpt>
      <trkpt lat="43.58248" lon="3.32779">
        <ele>405.5</ele>
        <time>2016-02-14T13:49:12Z</time>
      </trkpt>
      <trkpt lat="43.58245" lon="3.32776">
        <ele>406</ele>
        <time>2016-02-14T13:49:13Z</time>
      </trkpt>
      <trkpt lat="43.58242" lon="3.32773">
        <ele>405.5</ele>
        <time>2016-02-14T13:49:14Z</time>
      </trkpt>
      <trkpt lat="43.58239" lon="3.32769">
        <ele>405.5</ele>
        <time>2016-02-14T13:49:15Z</time>
      </trkpt>
      <trkpt lat="43.58237" lon="3.32766">
        <ele>405.5</ele>
        <time>2016-02-14T13:49:16Z</time>
      </trkpt>
      <trkpt lat="43.58235" lon="3.32762">
        <ele>405.5</ele>
        <time>2016-02-14T13:49:17Z</time>
      </trkpt>
      <trkpt lat="43.58233" lon="3.32758">
        <ele>406</ele>
        <time>2016-02-14T13:49:18Z</time>
      </trkpt>
      <trkpt lat="43.58232" lon="3.32753">
        <ele>406</ele>
        <time>2016-02-14T13:49:19Z</time>
      </trkpt>
      <trkpt lat="43.58231" lon="3.32748">
        <ele>406</ele>
        <time>2016-02-14T13:49:20Z</time>
      </trkpt>
      <trkpt lat="43.5823" lon="3.32744">
        <ele>406</ele>
        <time>2016-02-14T13:49:21Z</time>
      </trkpt>
      <trkpt lat="43.58229" lon="3.3274">
        <ele>406</ele>
        <time>2016-02-14T13:49:22Z</time>
      </trkpt>
      <trkpt lat="43.58228" lon="3.32735">
        <ele>406</ele>
        <time>2016-02-14T13:49:23Z</time>
      </trkpt>
      <trkpt lat="43.58227" lon="3.32731">
        <ele>406</ele>
        <time>2016-02-14T13:49:24Z</time>
      </trkpt>
      <trkpt lat="43.58226" lon="3.32727">
        <ele>406</ele>
        <time>2016-02-14T13:49:25Z</time>
      </trkpt>
      <trkpt lat="43.58226" lon="3.32722">
        <ele>405.5</ele>
        <time>2016-02-14T13:49:26Z</time>
      </trkpt>
      <trkpt lat="43.58225" lon="3.32717">
        <ele>405</ele>
        <time>2016-02-14T13:49:27Z</time>
      </trkpt>
      <trkpt lat="43.58225" lon="3.32712">
        <ele>404.5</ele>
        <time>2016-02-14T13:49:28Z</time>
      </trkpt>
      <trkpt lat="43.58225" lon="3.32707">
        <ele>404.5</ele>
        <time>2016-02-14T13:49:29Z</time>
      </trkpt>
      <trkpt lat="43.58226" lon="3.32702">
        <ele>405.5</ele>
        <time>2016-02-14T13:49:30Z</time>
      </trkpt>
      <trkpt lat="43.58225" lon="3.32698">
        <ele>405</ele>
        <time>2016-02-14T13:49:31Z</time>
      </trkpt>
      <trkpt lat="43.58225" lon="3.32694">
        <ele>405</ele>
        <time>2016-02-14T13:49:32Z</time>
      </trkpt>
      <trkpt lat="43.58225" lon="3.3269">
        <ele>405.5</ele>
        <time>2016-02-14T13:49:33Z</time>
      </trkpt>
      <trkpt lat="43.58224" lon="3.32686">
        <ele>405</ele>
        <time>2016-02-14T13:49:34Z</time>
      </trkpt>
      <trkpt lat="43.58224" lon="3.32682">
        <ele>404.5</ele>
        <time>2016-02-14T13:49:35Z</time>
      </trkpt>
      <trkpt lat="43.58224" lon="3.32679">
        <ele>404.5</ele>
        <time>2016-02-14T13:49:36Z</time>
      </trkpt>
      <trkpt lat="43.58224" lon="3.32675">
        <ele>403.5</ele>
        <time>2016-02-14T13:49:37Z</time>
      </trkpt>
      <trkpt lat="43.58224" lon="3.32671">
        <ele>402</ele>
        <time>2016-02-14T13:49:38Z</time>
      </trkpt>
      <trkpt lat="43.58224" lon="3.32666">
        <ele>401.5</ele>
        <time>2016-02-14T13:49:39Z</time>
      </trkpt>
      <trkpt lat="43.58225" lon="3.32661">
        <ele>401</ele>
        <time>2016-02-14T13:49:40Z</time>
      </trkpt>
      <trkpt lat="43.58225" lon="3.32657">
        <ele>401</ele>
        <time>2016-02-14T13:49:41Z</time>
      </trkpt>
      <trkpt lat="43.58225" lon="3.32654">
        <ele>401</ele>
        <time>2016-02-14T13:49:42Z</time>
      </trkpt>
      <trkpt lat="43.58226" lon="3.3265">
        <ele>401.5</ele>
        <time>2016-02-14T13:49:43Z</time>
      </trkpt>
      <trkpt lat="43.58226" lon="3.32647">
        <ele>401.5</ele>
        <time>2016-02-14T13:49:44Z</time>
      </trkpt>
      <trkpt lat="43.58227" lon="3.32643">
        <ele>401</ele>
        <time>2016-02-14T13:49:45Z</time>
      </trkpt>
      <trkpt lat="43.58227" lon="3.32639">
        <ele>401</ele>
        <time>2016-02-14T13:49:46Z</time>
      </trkpt>
      <trkpt lat="43.58228" lon="3.32636">
        <ele>402.5</ele>
        <time>2016-02-14T13:49:47Z</time>
      </trkpt>
      <trkpt lat="43.58228" lon="3.32632">
        <ele>403.5</ele>
        <time>2016-02-14T13:49:48Z</time>
      </trkpt>
      <trkpt lat="43.58229" lon="3.32629">
        <ele>403.5</ele>
        <time>2016-02-14T13:49:49Z</time>
      </trkpt>
      <trkpt lat="43.58229" lon="3.32626">
        <ele>403.5</ele>
        <time>2016-02-14T13:49:50Z</time>
      </trkpt>
      <trkpt lat="43.58229" lon="3.32623">
        <ele>403.5</ele>
        <time>2016-02-14T13:49:51Z</time>
      </trkpt>
      <trkpt lat="43.58229" lon="3.32619">
        <ele>403</ele>
        <time>2016-02-14T13:49:52Z</time>
      </trkpt>
      <trkpt lat="43.5823" lon="3.32616">
        <ele>403</ele>
        <time>2016-02-14T13:49:53Z</time>
      </trkpt>
      <trkpt lat="43.5823" lon="3.32613">
        <ele>402</ele>
        <time>2016-02-14T13:49:54Z</time>
      </trkpt>
      <trkpt lat="43.5823" lon="3.32611">
        <ele>401</ele>
        <time>2016-02-14T13:49:55Z</time>
      </trkpt>
      <trkpt lat="43.5823" lon="3.32608">
        <ele>400</ele>
        <time>2016-02-14T13:49:56Z</time>
      </trkpt>
      <trkpt lat="43.5823" lon="3.32605">
        <ele>399.5</ele>
        <time>2016-02-14T13:49:57Z</time>
      </trkpt>
      <trkpt lat="43.58231" lon="3.32602">
        <ele>399</ele>
        <time>2016-02-14T13:49:58Z</time>
      </trkpt>
      <trkpt lat="43.58231" lon="3.32599">
        <ele>398.5</ele>
        <time>2016-02-14T13:49:59Z</time>
      </trkpt>
      <trkpt lat="43.58231" lon="3.32596">
        <ele>397</ele>
        <time>2016-02-14T13:50:00Z</time>
      </trkpt>
      <trkpt lat="43.58232" lon="3.32592">
        <ele>396</ele>
        <time>2016-02-14T13:50:01Z</time>
      </trkpt>
      <trkpt lat="43.58233" lon="3.32588">
        <ele>394</ele>
        <time>2016-02-14T13:50:02Z</time>
      </trkpt>
      <trkpt lat="43.58233" lon="3.32585">
        <ele>393</ele>
        <time>2016-02-14T13:50:03Z</time>
      </trkpt>
      <trkpt lat="43.58234" lon="3.32581">
        <ele>393.5</ele>
        <time>2016-02-14T13:50:04Z</time>
      </trkpt>
      <trkpt lat="43.58235" lon="3.32578">
        <ele>393.5</ele>
        <time>2016-02-14T13:50:05Z</time>
      </trkpt>
      <trkpt lat="43.58236" lon="3.32575">
        <ele>393</ele>
        <time>2016-02-14T13:50:06Z</time>
      </trkpt>
      <trkpt lat="43.58237" lon="3.32573">
        <ele>393</ele>
        <time>2016-02-14T13:50:07Z</time>
      </trkpt>
      <trkpt lat="43.58238" lon="3.3257">
        <ele>394</ele>
        <time>2016-02-14T13:50:08Z</time>
      </trkpt>
      <trkpt lat="43.58239" lon="3.32567">
        <ele>395</ele>
        <time>2016-02-14T13:50:09Z</time>
      </trkpt>
      <trkpt lat="43.58239" lon="3.32564">
        <ele>395.5</ele>
        <time>2016-02-14T13:50:10Z</time>
      </trkpt>
      <trkpt lat="43.58239" lon="3.3256">
        <ele>395</ele>
        <time>2016-02-14T13:50:11Z</time>
      </trkpt>
      <trkpt lat="43.58239" lon="3.32557">
        <ele>395</ele>
        <time>2016-02-14T13:50:12Z</time>
      </trkpt>
      <trkpt lat="43.58239" lon="3.32554">
        <ele>395.5</ele>
        <time>2016-02-14T13:50:13Z</time>
      </trkpt>
      <trkpt lat="43.58239" lon="3.3255">
        <ele>396</ele>
        <time>2016-02-14T13:50:14Z</time>
      </trkpt>
      <trkpt lat="43.58239" lon="3.32547">
        <ele>399</ele>
        <time>2016-02-14T13:50:15Z</time>
      </trkpt>
      <trkpt lat="43.58239" lon="3.32544">
        <ele>400.5</ele>
        <time>2016-02-14T13:50:16Z</time>
      </trkpt>
      <trkpt lat="43.58238" lon="3.3254">
        <ele>401.5</ele>
        <time>2016-02-14T13:50:17Z</time>
      </trkpt>
      <trkpt lat="43.58238" lon="3.32537">
        <ele>402.5</ele>
        <time>2016-02-14T13:50:18Z</time>
      </trkpt>
      <trkpt lat="43.58237" lon="3.32534">
        <ele>404</ele>
        <time>2016-02-14T13:50:19Z</time>
      </trkpt>
      <trkpt lat="43.58236" lon="3.32532">
        <ele>405</ele>
        <time>2016-02-14T13:50:20Z</time>
      </trkpt>
      <trkpt lat="43.58236" lon="3.32528">
        <ele>405.5</ele>
        <time>2016-02-14T13:50:21Z</time>
      </trkpt>
      <trkpt lat="43.58235" lon="3.32525">
        <ele>406</ele>
        <time>2016-02-14T13:50:22Z</time>
      </trkpt>
      <trkpt lat="43.58234" lon="3.32522">
        <ele>406.5</ele>
        <time>2016-02-14T13:50:23Z</time>
      </trkpt>
      <trkpt lat="43.58233" lon="3.32519">
        <ele>406.5</ele>
        <time>2016-02-14T13:50:24Z</time>
      </trkpt>
      <trkpt lat="43.58233" lon="3.32515">
        <ele>407</ele>
        <time>2016-02-14T13:50:25Z</time>
      </trkpt>
      <trkpt lat="43.58232" lon="3.32512">
        <ele>407.5</ele>
        <time>2016-02-14T13:50:26Z</time>
      </trkpt>
      <trkpt lat="43.58231" lon="3.32509">
        <ele>407.5</ele>
        <time>2016-02-14T13:50:27Z</time>
      </trkpt>
      <trkpt lat="43.58231" lon="3.32505">
        <ele>408.5</ele>
        <time>2016-02-14T13:50:28Z</time>
      </trkpt>
      <trkpt lat="43.58232" lon="3.32502">
        <ele>410</ele>
        <time>2016-02-14T13:50:29Z</time>
      </trkpt>
      <trkpt lat="43.58232" lon="3.32499">
        <ele>410</ele>
        <time>2016-02-14T13:50:30Z</time>
      </trkpt>
      <trkpt lat="43.58232" lon="3.32495">
        <ele>410</ele>
        <time>2016-02-14T13:50:31Z</time>
      </trkpt>
      <trkpt lat="43.58232" lon="3.32492">
        <ele>410.5</ele>
        <time>2016-02-14T13:50:32Z</time>
      </trkpt>
      <trkpt lat="43.58233" lon="3.32488">
        <ele>411</ele>
        <time>2016-02-14T13:50:33Z</time>
      </trkpt>
      <trkpt lat="43.58234" lon="3.32484">
        <ele>412</ele>
        <time>2016-02-14T13:50:34Z</time>
      </trkpt>
      <trkpt lat="43.58235" lon="3.3248">
        <ele>411.5</ele>
        <time>2016-02-14T13:50:35Z</time>
      </trkpt>
      <trkpt lat="43.58236" lon="3.32477">
        <ele>411</ele>
        <time>2016-02-14T13:50:36Z</time>
      </trkpt>
      <trkpt lat="43.58238" lon="3.32474">
        <ele>410.5</ele>
        <time>2016-02-14T13:50:37Z</time>
      </trkpt>
      <trkpt lat="43.58239" lon="3.32471">
        <ele>410.5</ele>
        <time>2016-02-14T13:50:38Z</time>
      </trkpt>
      <trkpt lat="43.58241" lon="3.32468">
        <ele>412</ele>
        <time>2016-02-14T13:50:39Z</time>
      </trkpt>
      <trkpt lat="43.58242" lon="3.32466">
        <ele>412</ele>
        <time>2016-02-14T13:50:40Z</time>
      </trkpt>
      <trkpt lat="43.58243" lon="3.32464">
        <ele>410</ele>
        <time>2016-02-14T13:50:41Z</time>
      </trkpt>
      <trkpt lat="43.58245" lon="3.32461">
        <ele>409</ele>
        <time>2016-02-14T13:50:42Z</time>
      </trkpt>
      <trkpt lat="43.58247" lon="3.32458">
        <ele>408.5</ele>
        <time>2016-02-14T13:50:43Z</time>
      </trkpt>
      <trkpt lat="43.58248" lon="3.32455">
        <ele>408</ele>
        <time>2016-02-14T13:50:44Z</time>
      </trkpt>
      <trkpt lat="43.5825" lon="3.32453">
        <ele>407</ele>
        <time>2016-02-14T13:50:45Z</time>
      </trkpt>
      <trkpt lat="43.58252" lon="3.3245">
        <ele>406.5</ele>
        <time>2016-02-14T13:50:46Z</time>
      </trkpt>
      <trkpt lat="43.58254" lon="3.32448">
        <ele>406</ele>
        <time>2016-02-14T13:50:47Z</time>
      </trkpt>
      <trkpt lat="43.58256" lon="3.32446">
        <ele>405.5</ele>
        <time>2016-02-14T13:50:48Z</time>
      </trkpt>
      <trkpt lat="43.58257" lon="3.32443">
        <ele>404.5</ele>
        <time>2016-02-14T13:50:49Z</time>
      </trkpt>
      <trkpt lat="43.5826" lon="3.3244">
        <ele>405.5</ele>
        <time>2016-02-14T13:50:50Z</time>
      </trkpt>
      <trkpt lat="43.58262" lon="3.32437">
        <ele>407.5</ele>
        <time>2016-02-14T13:50:51Z</time>
      </trkpt>
      <trkpt lat="43.58265" lon="3.32434">
        <ele>408.5</ele>
        <time>2016-02-14T13:50:52Z</time>
      </trkpt>
      <trkpt lat="43.58267" lon="3.32432">
        <ele>409.5</ele>
        <time>2016-02-14T13:50:53Z</time>
      </trkpt>
      <trkpt lat="43.58269" lon="3.32429">
        <ele>410</ele>
        <time>2016-02-14T13:50:54Z</time>
      </trkpt>
      <trkpt lat="43.58271" lon="3.32427">
        <ele>411</ele>
        <time>2016-02-14T13:50:55Z</time>
      </trkpt>
      <trkpt lat="43.58273" lon="3.32424">
        <ele>411</ele>
        <time>2016-02-14T13:50:56Z</time>
      </trkpt>
      <trkpt lat="43.58275" lon="3.32422">
        <ele>411.5</ele>
        <time>2016-02-14T13:50:57Z</time>
      </trkpt>
      <trkpt lat="43.58277" lon="3.32419">
        <ele>411.5</ele>
        <time>2016-02-14T13:50:58Z</time>
      </trkpt>
      <trkpt lat="43.5828" lon="3.32417">
        <ele>412</ele>
        <time>2016-02-14T13:50:59Z</time>
      </trkpt>
      <trkpt lat="43.58282" lon="3.32414">
        <ele>411.5</ele>
        <time>2016-02-14T13:51:00Z</time>
      </trkpt>
      <trkpt lat="43.58284" lon="3.32412">
        <ele>411.5</ele>
        <time>2016-02-14T13:51:01Z</time>
      </trkpt>
      <trkpt lat="43.58286" lon="3.3241">
        <ele>410.5</ele>
        <time>2016-02-14T13:51:02Z</time>
      </trkpt>
      <trkpt lat="43.58288" lon="3.32408">
        <ele>409.5</ele>
        <time>2016-02-14T13:51:03Z</time>
      </trkpt>
      <trkpt lat="43.58291" lon="3.32406">
        <ele>409</ele>
        <time>2016-02-14T13:51:04Z</time>
      </trkpt>
      <trkpt lat="43.58292" lon="3.32404">
        <ele>408.5</ele>
        <time>2016-02-14T13:51:04Z</time>
      </trkpt>
      <trkpt lat="43.58294" lon="3.32403">
        <ele>406.5</ele>
        <time>2016-02-14T13:51:06Z</time>
      </trkpt>
      <trkpt lat="43.58296" lon="3.32402">
        <ele>407</ele>
        <time>2016-02-14T13:51:06Z</time>
      </trkpt>
      <trkpt lat="43.58299" lon="3.32401">
        <ele>407.5</ele>
        <time>2016-02-14T13:51:07Z</time>
      </trkpt>
      <trkpt lat="43.58301" lon="3.324">
        <ele>408.5</ele>
        <time>2016-02-14T13:51:08Z</time>
      </trkpt>
      <trkpt lat="43.58303" lon="3.32399">
        <ele>409</ele>
        <time>2016-02-14T13:51:09Z</time>
      </trkpt>
      <trkpt lat="43.58306" lon="3.32399">
        <ele>409.5</ele>
        <time>2016-02-14T13:51:10Z</time>
      </trkpt>
      <trkpt lat="43.58308" lon="3.32398">
        <ele>409.5</ele>
        <time>2016-02-14T13:51:11Z</time>
      </trkpt>
      <trkpt lat="43.58311" lon="3.32398">
        <ele>409.5</ele>
        <time>2016-02-14T13:51:12Z</time>
      </trkpt>
      <trkpt lat="43.58313" lon="3.32398">
        <ele>410</ele>
        <time>2016-02-14T13:51:13Z</time>
      </trkpt>
      <trkpt lat="43.58316" lon="3.32396">
        <ele>410.5</ele>
        <time>2016-02-14T13:51:14Z</time>
      </trkpt>
      <trkpt lat="43.58318" lon="3.32396">
        <ele>411</ele>
        <time>2016-02-14T13:51:15Z</time>
      </trkpt>
      <trkpt lat="43.5832" lon="3.32396">
        <ele>411.5</ele>
        <time>2016-02-14T13:51:16Z</time>
      </trkpt>
      <trkpt lat="43.58323" lon="3.32396">
        <ele>411.5</ele>
        <time>2016-02-14T13:51:17Z</time>
      </trkpt>
      <trkpt lat="43.58325" lon="3.32396">
        <ele>412</ele>
        <time>2016-02-14T13:51:18Z</time>
      </trkpt>
      <trkpt lat="43.58328" lon="3.32395">
        <ele>413</ele>
        <time>2016-02-14T13:51:19Z</time>
      </trkpt>
      <trkpt lat="43.5833" lon="3.32395">
        <ele>414.5</ele>
        <time>2016-02-14T13:51:20Z</time>
      </trkpt>
      <trkpt lat="43.58332" lon="3.32394">
        <ele>415.5</ele>
        <time>2016-02-14T13:51:21Z</time>
      </trkpt>
      <trkpt lat="43.58334" lon="3.32394">
        <ele>416</ele>
        <time>2016-02-14T13:51:22Z</time>
      </trkpt>
      <trkpt lat="43.58336" lon="3.32392">
        <ele>417</ele>
        <time>2016-02-14T13:51:23Z</time>
      </trkpt>
      <trkpt lat="43.58339" lon="3.32391">
        <ele>418.5</ele>
        <time>2016-02-14T13:51:24Z</time>
      </trkpt>
      <trkpt lat="43.58341" lon="3.32391">
        <ele>419</ele>
        <time>2016-02-14T13:51:25Z</time>
      </trkpt>
      <trkpt lat="43.58343" lon="3.32391">
        <ele>419.5</ele>
        <time>2016-02-14T13:51:26Z</time>
      </trkpt>
      <trkpt lat="43.58346" lon="3.32391">
        <ele>420</ele>
        <time>2016-02-14T13:51:27Z</time>
      </trkpt>
      <trkpt lat="43.58348" lon="3.32391">
        <ele>420</ele>
        <time>2016-02-14T13:51:28Z</time>
      </trkpt>
      <trkpt lat="43.5835" lon="3.3239">
        <ele>420</ele>
        <time>2016-02-14T13:51:29Z</time>
      </trkpt>
      <trkpt lat="43.58352" lon="3.3239">
        <ele>420</ele>
        <time>2016-02-14T13:51:30Z</time>
      </trkpt>
      <trkpt lat="43.58354" lon="3.32391">
        <ele>420.5</ele>
        <time>2016-02-14T13:51:31Z</time>
      </trkpt>
      <trkpt lat="43.58356" lon="3.3239">
        <ele>421</ele>
        <time>2016-02-14T13:51:32Z</time>
      </trkpt>
      <trkpt lat="43.58358" lon="3.3239">
        <ele>422</ele>
        <time>2016-02-14T13:51:33Z</time>
      </trkpt>
      <trkpt lat="43.5836" lon="3.3239">
        <ele>422</ele>
        <time>2016-02-14T13:51:34Z</time>
      </trkpt>
      <trkpt lat="43.58361" lon="3.32389">
        <ele>422.5</ele>
        <time>2016-02-14T13:51:35Z</time>
      </trkpt>
      <trkpt lat="43.58363" lon="3.32388">
        <ele>423</ele>
        <time>2016-02-14T13:51:36Z</time>
      </trkpt>
      <trkpt lat="43.58365" lon="3.32388">
        <ele>423</ele>
        <time>2016-02-14T13:51:37Z</time>
      </trkpt>
      <trkpt lat="43.58367" lon="3.32387">
        <ele>424</ele>
        <time>2016-02-14T13:51:38Z</time>
      </trkpt>
      <trkpt lat="43.58369" lon="3.32386">
        <ele>424</ele>
        <time>2016-02-14T13:51:39Z</time>
      </trkpt>
      <trkpt lat="43.58371" lon="3.32385">
        <ele>424</ele>
        <time>2016-02-14T13:51:40Z</time>
      </trkpt>
      <trkpt lat="43.58372" lon="3.32383">
        <ele>425.5</ele>
        <time>2016-02-14T13:51:41Z</time>
      </trkpt>
      <trkpt lat="43.58374" lon="3.32383">
        <ele>425</ele>
        <time>2016-02-14T13:51:42Z</time>
      </trkpt>
      <trkpt lat="43.58376" lon="3.32381">
        <ele>425.5</ele>
        <time>2016-02-14T13:51:43Z</time>
      </trkpt>
      <trkpt lat="43.58378" lon="3.32381">
        <ele>425</ele>
        <time>2016-02-14T13:51:44Z</time>
      </trkpt>
      <trkpt lat="43.58381" lon="3.32379">
        <ele>424.5</ele>
        <time>2016-02-14T13:51:45Z</time>
      </trkpt>
      <trkpt lat="43.58383" lon="3.32377">
        <ele>424</ele>
        <time>2016-02-14T13:51:46Z</time>
      </trkpt>
      <trkpt lat="43.58385" lon="3.32376">
        <ele>424</ele>
        <time>2016-02-14T13:51:47Z</time>
      </trkpt>
      <trkpt lat="43.58387" lon="3.32374">
        <ele>423.5</ele>
        <time>2016-02-14T13:51:48Z</time>
      </trkpt>
      <trkpt lat="43.58389" lon="3.32373">
        <ele>423.5</ele>
        <time>2016-02-14T13:51:49Z</time>
      </trkpt>
      <trkpt lat="43.5839" lon="3.32371">
        <ele>423</ele>
        <time>2016-02-14T13:51:50Z</time>
      </trkpt>
      <trkpt lat="43.58391" lon="3.3237">
        <ele>421.5</ele>
        <time>2016-02-14T13:51:51Z</time>
      </trkpt>
      <trkpt lat="43.58393" lon="3.32369">
        <ele>421</ele>
        <time>2016-02-14T13:51:52Z</time>
      </trkpt>
      <trkpt lat="43.58395" lon="3.32367">
        <ele>421.5</ele>
        <time>2016-02-14T13:51:53Z</time>
      </trkpt>
      <trkpt lat="43.58397" lon="3.32365">
        <ele>421.5</ele>
        <time>2016-02-14T13:51:54Z</time>
      </trkpt>
      <trkpt lat="43.58399" lon="3.32363">
        <ele>421.5</ele>
        <time>2016-02-14T13:51:55Z</time>
      </trkpt>
      <trkpt lat="43.58401" lon="3.32361">
        <ele>421.5</ele>
        <time>2016-02-14T13:51:56Z</time>
      </trkpt>
      <trkpt lat="43.58402" lon="3.3236">
        <ele>421</ele>
        <time>2016-02-14T13:51:57Z</time>
      </trkpt>
      <trkpt lat="43.58404" lon="3.32358">
        <ele>420.5</ele>
        <time>2016-02-14T13:51:58Z</time>
      </trkpt>
      <trkpt lat="43.58406" lon="3.32356">
        <ele>420.5</ele>
        <time>2016-02-14T13:51:59Z</time>
      </trkpt>
      <trkpt lat="43.58408" lon="3.32354">
        <ele>420.5</ele>
        <time>2016-02-14T13:52:00Z</time>
      </trkpt>
      <trkpt lat="43.58411" lon="3.32353">
        <ele>420</ele>
        <time>2016-02-14T13:52:01Z</time>
      </trkpt>
      <trkpt lat="43.58413" lon="3.32351">
        <ele>420.5</ele>
        <time>2016-02-14T13:52:02Z</time>
      </trkpt>
      <trkpt lat="43.58415" lon="3.3235">
        <ele>421</ele>
        <time>2016-02-14T13:52:03Z</time>
      </trkpt>
      <trkpt lat="43.58417" lon="3.32348">
        <ele>421</ele>
        <time>2016-02-14T13:52:04Z</time>
      </trkpt>
      <trkpt lat="43.58419" lon="3.32346">
        <ele>420.5</ele>
        <time>2016-02-14T13:52:05Z</time>
      </trkpt>
      <trkpt lat="43.58421" lon="3.32345">
        <ele>420</ele>
        <time>2016-02-14T13:52:06Z</time>
      </trkpt>
      <trkpt lat="43.58423" lon="3.32343">
        <ele>420.5</ele>
        <time>2016-02-14T13:52:07Z</time>
      </trkpt>
      <trkpt lat="43.58425" lon="3.32341">
        <ele>420</ele>
        <time>2016-02-14T13:52:08Z</time>
      </trkpt>
      <trkpt lat="43.58427" lon="3.32339">
        <ele>419.5</ele>
        <time>2016-02-14T13:52:09Z</time>
      </trkpt>
      <trkpt lat="43.58429" lon="3.32338">
        <ele>419.5</ele>
        <time>2016-02-14T13:52:10Z</time>
      </trkpt>
      <trkpt lat="43.58431" lon="3.32336">
        <ele>420</ele>
        <time>2016-02-14T13:52:11Z</time>
      </trkpt>
      <trkpt lat="43.58433" lon="3.32334">
        <ele>420</ele>
        <time>2016-02-14T13:52:12Z</time>
      </trkpt>
      <trkpt lat="43.58436" lon="3.32333">
        <ele>419.5</ele>
        <time>2016-02-14T13:52:13Z</time>
      </trkpt>
      <trkpt lat="43.58438" lon="3.32331">
        <ele>419.5</ele>
        <time>2016-02-14T13:52:14Z</time>
      </trkpt>
      <trkpt lat="43.5844" lon="3.3233">
        <ele>419.5</ele>
        <time>2016-02-14T13:52:15Z</time>
      </trkpt>
      <trkpt lat="43.58441" lon="3.32328">
        <ele>419.5</ele>
        <time>2016-02-14T13:52:16Z</time>
      </trkpt>
      <trkpt lat="43.58443" lon="3.32327">
        <ele>419</ele>
        <time>2016-02-14T13:52:17Z</time>
      </trkpt>
      <trkpt lat="43.58446" lon="3.32325">
        <ele>419</ele>
        <time>2016-02-14T13:52:18Z</time>
      </trkpt>
      <trkpt lat="43.58448" lon="3.32324">
        <ele>419</ele>
        <time>2016-02-14T13:52:19Z</time>
      </trkpt>
      <trkpt lat="43.5845" lon="3.32322">
        <ele>419</ele>
        <time>2016-02-14T13:52:20Z</time>
      </trkpt>
      <trkpt lat="43.58452" lon="3.32321">
        <ele>419</ele>
        <time>2016-02-14T13:52:21Z</time>
      </trkpt>
      <trkpt lat="43.58455" lon="3.32319">
        <ele>420</ele>
        <time>2016-02-14T13:52:22Z</time>
      </trkpt>
      <trkpt lat="43.58457" lon="3.32317">
        <ele>420.5</ele>
        <time>2016-02-14T13:52:23Z</time>
      </trkpt>
      <trkpt lat="43.5846" lon="3.32315">
        <ele>420.5</ele>
        <time>2016-02-14T13:52:24Z</time>
      </trkpt>
      <trkpt lat="43.58462" lon="3.32313">
        <ele>420.5</ele>
        <time>2016-02-14T13:52:25Z</time>
      </trkpt>
      <trkpt lat="43.58464" lon="3.32311">
        <ele>420.5</ele>
        <time>2016-02-14T13:52:26Z</time>
      </trkpt>
      <trkpt lat="43.58465" lon="3.32309">
        <ele>420.5</ele>
        <time>2016-02-14T13:52:27Z</time>
      </trkpt>
      <trkpt lat="43.58467" lon="3.32306">
        <ele>420</ele>
        <time>2016-02-14T13:52:28Z</time>
      </trkpt>
      <trkpt lat="43.58469" lon="3.32304">
        <ele>420.5</ele>
        <time>2016-02-14T13:52:29Z</time>
      </trkpt>
      <trkpt lat="43.58471" lon="3.32302">
        <ele>421</ele>
        <time>2016-02-14T13:52:30Z</time>
      </trkpt>
      <trkpt lat="43.58472" lon="3.32299">
        <ele>421</ele>
        <time>2016-02-14T13:52:31Z</time>
      </trkpt>
      <trkpt lat="43.58474" lon="3.32296">
        <ele>421</ele>
        <time>2016-02-14T13:52:32Z</time>
      </trkpt>
      <trkpt lat="43.58475" lon="3.32293">
        <ele>421</ele>
        <time>2016-02-14T13:52:33Z</time>
      </trkpt>
      <trkpt lat="43.58476" lon="3.32291">
        <ele>419</ele>
        <time>2016-02-14T13:52:34Z</time>
      </trkpt>
      <trkpt lat="43.58478" lon="3.32288">
        <ele>418.5</ele>
        <time>2016-02-14T13:52:35Z</time>
      </trkpt>
      <trkpt lat="43.5848" lon="3.32285">
        <ele>418.5</ele>
        <time>2016-02-14T13:52:36Z</time>
      </trkpt>
      <trkpt lat="43.58482" lon="3.32283">
        <ele>418.5</ele>
        <time>2016-02-14T13:52:37Z</time>
      </trkpt>
      <trkpt lat="43.58483" lon="3.32281">
        <ele>418.5</ele>
        <time>2016-02-14T13:52:38Z</time>
      </trkpt>
      <trkpt lat="43.58485" lon="3.32278">
        <ele>418.5</ele>
        <time>2016-02-14T13:52:39Z</time>
      </trkpt>
      <trkpt lat="43.58487" lon="3.32276">
        <ele>418.5</ele>
        <time>2016-02-14T13:52:40Z</time>
      </trkpt>
      <trkpt lat="43.58489" lon="3.32274">
        <ele>418.5</ele>
        <time>2016-02-14T13:52:41Z</time>
      </trkpt>
      <trkpt lat="43.5849" lon="3.32272">
        <ele>417.5</ele>
        <time>2016-02-14T13:52:42Z</time>
      </trkpt>
      <trkpt lat="43.58492" lon="3.32269">
        <ele>417.5</ele>
        <time>2016-02-14T13:52:43Z</time>
      </trkpt>
      <trkpt lat="43.58494" lon="3.32267">
        <ele>418</ele>
        <time>2016-02-14T13:52:44Z</time>
      </trkpt>
      <trkpt lat="43.58495" lon="3.32264">
        <ele>417</ele>
        <time>2016-02-14T13:52:45Z</time>
      </trkpt>
      <trkpt lat="43.58497" lon="3.32261">
        <ele>416.5</ele>
        <time>2016-02-14T13:52:46Z</time>
      </trkpt>
      <trkpt lat="43.58498" lon="3.32258">
        <ele>416.5</ele>
        <time>2016-02-14T13:52:47Z</time>
      </trkpt>
      <trkpt lat="43.58499" lon="3.32255">
        <ele>415.5</ele>
        <time>2016-02-14T13:52:48Z</time>
      </trkpt>
      <trkpt lat="43.585" lon="3.32253">
        <ele>415</ele>
        <time>2016-02-14T13:52:49Z</time>
      </trkpt>
      <trkpt lat="43.58501" lon="3.3225">
        <ele>414</ele>
        <time>2016-02-14T13:52:50Z</time>
      </trkpt>
      <trkpt lat="43.58502" lon="3.32247">
        <ele>414</ele>
        <time>2016-02-14T13:52:51Z</time>
      </trkpt>
      <trkpt lat="43.58503" lon="3.32245">
        <ele>414</ele>
        <time>2016-02-14T13:52:52Z</time>
      </trkpt>
      <trkpt lat="43.58503" lon="3.32242">
        <ele>414</ele>
        <time>2016-02-14T13:52:53Z</time>
      </trkpt>
      <trkpt lat="43.58503" lon="3.32238">
        <ele>414</ele>
        <time>2016-02-14T13:52:54Z</time>
      </trkpt>
      <trkpt lat="43.58504" lon="3.32234">
        <ele>413.5</ele>
        <time>2016-02-14T13:52:55Z</time>
      </trkpt>
      <trkpt lat="43.58505" lon="3.32231">
        <ele>413.5</ele>
        <time>2016-02-14T13:52:56Z</time>
      </trkpt>
      <trkpt lat="43.58508" lon="3.32226">
        <ele>413.5</ele>
        <time>2016-02-14T13:52:58Z</time>
      </trkpt>
      <trkpt lat="43.58509" lon="3.32223">
        <ele>413.5</ele>
        <time>2016-02-14T13:52:59Z</time>
      </trkpt>
      <trkpt lat="43.58509" lon="3.3222">
        <ele>413.5</ele>
        <time>2016-02-14T13:53:00Z</time>
      </trkpt>
      <trkpt lat="43.58509" lon="3.32217">
        <ele>413.5</ele>
        <time>2016-02-14T13:53:01Z</time>
      </trkpt>
      <trkpt lat="43.58509" lon="3.32215">
        <ele>413.5</ele>
        <time>2016-02-14T13:53:02Z</time>
      </trkpt>
      <trkpt lat="43.58508" lon="3.32212">
        <ele>413.5</ele>
        <time>2016-02-14T13:53:03Z</time>
      </trkpt>
      <trkpt lat="43.58509" lon="3.32207">
        <ele>413.5</ele>
        <time>2016-02-14T13:53:04Z</time>
      </trkpt>
      <trkpt lat="43.58508" lon="3.32204">
        <ele>413.5</ele>
        <time>2016-02-14T13:53:05Z</time>
      </trkpt>
      <trkpt lat="43.585" lon="3.32206">
        <ele>413.5</ele>
        <time>2016-02-14T13:53:07Z</time>
      </trkpt>
      <trkpt lat="43.58498" lon="3.32204">
        <ele>412</ele>
        <time>2016-02-14T13:53:08Z</time>
      </trkpt>
      <trkpt lat="43.58493" lon="3.322">
        <ele>412.5</ele>
        <time>2016-02-14T13:53:15Z</time>
      </trkpt>
      <trkpt lat="43.58491" lon="3.32197">
        <ele>412.5</ele>
        <time>2016-02-14T13:53:16Z</time>
      </trkpt>
      <trkpt lat="43.58489" lon="3.32192">
        <ele>413</ele>
        <time>2016-02-14T13:53:17Z</time>
      </trkpt>
      <trkpt lat="43.58487" lon="3.32189">
        <ele>413.5</ele>
        <time>2016-02-14T13:53:18Z</time>
      </trkpt>
      <trkpt lat="43.58485" lon="3.32185">
        <ele>414.5</ele>
        <time>2016-02-14T13:53:19Z</time>
      </trkpt>
      <trkpt lat="43.58483" lon="3.32181">
        <ele>415</ele>
        <time>2016-02-14T13:53:20Z</time>
      </trkpt>
      <trkpt lat="43.58482" lon="3.32177">
        <ele>415</ele>
        <time>2016-02-14T13:53:21Z</time>
      </trkpt>
      <trkpt lat="43.5848" lon="3.32172">
        <ele>415.5</ele>
        <time>2016-02-14T13:53:22Z</time>
      </trkpt>
      <trkpt lat="43.58479" lon="3.32168">
        <ele>417</ele>
        <time>2016-02-14T13:53:23Z</time>
      </trkpt>
      <trkpt lat="43.58478" lon="3.32163">
        <ele>417.5</ele>
        <time>2016-02-14T13:53:24Z</time>
      </trkpt>
      <trkpt lat="43.58477" lon="3.32158">
        <ele>418.5</ele>
        <time>2016-02-14T13:53:25Z</time>
      </trkpt>
      <trkpt lat="43.58478" lon="3.32154">
        <ele>418.5</ele>
        <time>2016-02-14T13:53:26Z</time>
      </trkpt>
      <trkpt lat="43.58479" lon="3.32148">
        <ele>419</ele>
        <time>2016-02-14T13:53:27Z</time>
      </trkpt>
      <trkpt lat="43.58479" lon="3.32143">
        <ele>419</ele>
        <time>2016-02-14T13:53:28Z</time>
      </trkpt>
      <trkpt lat="43.58479" lon="3.32138">
        <ele>418</ele>
        <time>2016-02-14T13:53:29Z</time>
      </trkpt>
      <trkpt lat="43.58478" lon="3.32135">
        <ele>417</ele>
        <time>2016-02-14T13:53:30Z</time>
      </trkpt>
      <trkpt lat="43.58477" lon="3.32131">
        <ele>418</ele>
        <time>2016-02-14T13:53:31Z</time>
      </trkpt>
      <trkpt lat="43.58476" lon="3.32128">
        <ele>419.5</ele>
        <time>2016-02-14T13:53:32Z</time>
      </trkpt>
      <trkpt lat="43.58474" lon="3.32124">
        <ele>420</ele>
        <time>2016-02-14T13:53:33Z</time>
      </trkpt>
      <trkpt lat="43.58472" lon="3.32121">
        <ele>421.5</ele>
        <time>2016-02-14T13:53:34Z</time>
      </trkpt>
      <trkpt lat="43.58471" lon="3.32118">
        <ele>424.5</ele>
        <time>2016-02-14T13:53:35Z</time>
      </trkpt>
      <trkpt lat="43.58469" lon="3.32115">
        <ele>424.5</ele>
        <time>2016-02-14T13:53:36Z</time>
      </trkpt>
      <trkpt lat="43.58467" lon="3.32112">
        <ele>425.5</ele>
        <time>2016-02-14T13:53:37Z</time>
      </trkpt>
      <trkpt lat="43.58465" lon="3.3211">
        <ele>426</ele>
        <time>2016-02-14T13:53:38Z</time>
      </trkpt>
      <trkpt lat="43.58463" lon="3.32107">
        <ele>426</ele>
        <time>2016-02-14T13:53:39Z</time>
      </trkpt>
      <trkpt lat="43.58462" lon="3.32107">
        <ele>425.5</ele>
        <time>2016-02-14T13:53:40Z</time>
      </trkpt>
      <trkpt lat="43.58461" lon="3.32105">
        <ele>426</ele>
        <time>2016-02-14T13:53:41Z</time>
      </trkpt>
      <trkpt lat="43.58459" lon="3.32104">
        <ele>426.5</ele>
        <time>2016-02-14T13:53:42Z</time>
      </trkpt>
      <trkpt lat="43.58457" lon="3.32103">
        <ele>428</ele>
        <time>2016-02-14T13:53:43Z</time>
      </trkpt>
      <trkpt lat="43.58455" lon="3.32102">
        <ele>429</ele>
        <time>2016-02-14T13:53:44Z</time>
      </trkpt>
      <trkpt lat="43.58453" lon="3.32101">
        <ele>429</ele>
        <time>2016-02-14T13:53:45Z</time>
      </trkpt>
      <trkpt lat="43.58451" lon="3.321">
        <ele>428</ele>
        <time>2016-02-14T13:53:46Z</time>
      </trkpt>
      <trkpt lat="43.5845" lon="3.32098">
        <ele>427.5</ele>
        <time>2016-02-14T13:53:47Z</time>
      </trkpt>
      <trkpt lat="43.58448" lon="3.32097">
        <ele>428.5</ele>
        <time>2016-02-14T13:53:48Z</time>
      </trkpt>
      <trkpt lat="43.58442" lon="3.32099">
        <ele>428.5</ele>
        <time>2016-02-14T13:53:50Z</time>
      </trkpt>
      <trkpt lat="43.58441" lon="3.32099">
        <ele>429</ele>
        <time>2016-02-14T13:53:51Z</time>
      </trkpt>
      <trkpt lat="43.58439" lon="3.32098">
        <ele>430</ele>
        <time>2016-02-14T13:53:52Z</time>
      </trkpt>
      <trkpt lat="43.58437" lon="3.32098">
        <ele>430.5</ele>
        <time>2016-02-14T13:53:53Z</time>
      </trkpt>
      <trkpt lat="43.58435" lon="3.32098">
        <ele>431.5</ele>
        <time>2016-02-14T13:53:54Z</time>
      </trkpt>
      <trkpt lat="43.58433" lon="3.32098">
        <ele>433</ele>
        <time>2016-02-14T13:53:55Z</time>
      </trkpt>
      <trkpt lat="43.58431" lon="3.32099">
        <ele>433</ele>
        <time>2016-02-14T13:53:56Z</time>
      </trkpt>
      <trkpt lat="43.58428" lon="3.32099">
        <ele>431.5</ele>
        <time>2016-02-14T13:53:57Z</time>
      </trkpt>
      <trkpt lat="43.58426" lon="3.321">
        <ele>432</ele>
        <time>2016-02-14T13:53:58Z</time>
      </trkpt>
      <trkpt lat="43.58424" lon="3.321">
        <ele>433</ele>
        <time>2016-02-14T13:53:59Z</time>
      </trkpt>
      <trkpt lat="43.58421" lon="3.32101">
        <ele>434.5</ele>
        <time>2016-02-14T13:54:00Z</time>
      </trkpt>
      <trkpt lat="43.58418" lon="3.32102">
        <ele>435</ele>
        <time>2016-02-14T13:54:01Z</time>
      </trkpt>
      <trkpt lat="43.58415" lon="3.32104">
        <ele>436</ele>
        <time>2016-02-14T13:54:02Z</time>
      </trkpt>
      <trkpt lat="43.58413" lon="3.32103">
        <ele>436</ele>
        <time>2016-02-14T13:54:03Z</time>
      </trkpt>
      <trkpt lat="43.58404" lon="3.32105">
        <ele>437</ele>
        <time>2016-02-14T13:54:05Z</time>
      </trkpt>
      <trkpt lat="43.584" lon="3.32107">
        <ele>438</ele>
        <time>2016-02-14T13:54:06Z</time>
      </trkpt>
      <trkpt lat="43.58394" lon="3.32109">
        <ele>438</ele>
        <time>2016-02-14T13:54:07Z</time>
      </trkpt>
      <trkpt lat="43.58389" lon="3.3211">
        <ele>435</ele>
        <time>2016-02-14T13:54:08Z</time>
      </trkpt>
      <trkpt lat="43.58382" lon="3.32112">
        <ele>432.5</ele>
        <time>2016-02-14T13:54:09Z</time>
      </trkpt>
      <trkpt lat="43.58376" lon="3.32115">
        <ele>434</ele>
        <time>2016-02-14T13:54:10Z</time>
      </trkpt>
      <trkpt lat="43.58368" lon="3.32117">
        <ele>432.5</ele>
        <time>2016-02-14T13:54:11Z</time>
      </trkpt>
      <trkpt lat="43.5836" lon="3.32119">
        <ele>432</ele>
        <time>2016-02-14T13:54:12Z</time>
      </trkpt>
      <trkpt lat="43.58353" lon="3.32121">
        <ele>431.5</ele>
        <time>2016-02-14T13:54:13Z</time>
      </trkpt>
      <trkpt lat="43.58345" lon="3.32122">
        <ele>431</ele>
        <time>2016-02-14T13:54:14Z</time>
      </trkpt>
      <trkpt lat="43.58338" lon="3.32123">
        <ele>430.5</ele>
        <time>2016-02-14T13:54:15Z</time>
      </trkpt>
      <trkpt lat="43.58331" lon="3.32124">
        <ele>430.5</ele>
        <time>2016-02-14T13:54:16Z</time>
      </trkpt>
      <trkpt lat="43.58323" lon="3.32125">
        <ele>430</ele>
        <time>2016-02-14T13:54:17Z</time>
      </trkpt>
      <trkpt lat="43.58316" lon="3.32125">
        <ele>429.5</ele>
        <time>2016-02-14T13:54:18Z</time>
      </trkpt>
      <trkpt lat="43.58309" lon="3.32126">
        <ele>429</ele>
        <time>2016-02-14T13:54:19Z</time>
      </trkpt>
      <trkpt lat="43.58301" lon="3.32127">
        <ele>429</ele>
        <time>2016-02-14T13:54:20Z</time>
      </trkpt>
      <trkpt lat="43.58293" lon="3.32128">
        <ele>428.5</ele>
        <time>2016-02-14T13:54:21Z</time>
      </trkpt>
      <trkpt lat="43.58286" lon="3.32128">
        <ele>427.5</ele>
        <time>2016-02-14T13:54:22Z</time>
      </trkpt>
      <trkpt lat="43.58278" lon="3.32129">
        <ele>427</ele>
        <time>2016-02-14T13:54:23Z</time>
      </trkpt>
      <trkpt lat="43.5827" lon="3.3213">
        <ele>426.5</ele>
        <time>2016-02-14T13:54:24Z</time>
      </trkpt>
      <trkpt lat="43.58262" lon="3.32131">
        <ele>425.5</ele>
        <time>2016-02-14T13:54:25Z</time>
      </trkpt>
      <trkpt lat="43.58255" lon="3.32134">
        <ele>425</ele>
        <time>2016-02-14T13:54:26Z</time>
      </trkpt>
      <trkpt lat="43.58247" lon="3.32138">
        <ele>424.5</ele>
        <time>2016-02-14T13:54:27Z</time>
      </trkpt>
      <trkpt lat="43.58241" lon="3.32142">
        <ele>425</ele>
        <time>2016-02-14T13:54:28Z</time>
      </trkpt>
      <trkpt lat="43.58233" lon="3.32146">
        <ele>424.5</ele>
        <time>2016-02-14T13:54:29Z</time>
      </trkpt>
      <trkpt lat="43.58225" lon="3.3215">
        <ele>423</ele>
        <time>2016-02-14T13:54:30Z</time>
      </trkpt>
      <trkpt lat="43.58217" lon="3.32155">
        <ele>422</ele>
        <time>2016-02-14T13:54:31Z</time>
      </trkpt>
      <trkpt lat="43.58209" lon="3.3216">
        <ele>421</ele>
        <time>2016-02-14T13:54:32Z</time>
      </trkpt>
      <trkpt lat="43.58201" lon="3.32164">
        <ele>421</ele>
        <time>2016-02-14T13:54:33Z</time>
      </trkpt>
      <trkpt lat="43.58193" lon="3.32169">
        <ele>420.5</ele>
        <time>2016-02-14T13:54:34Z</time>
      </trkpt>
      <trkpt lat="43.58185" lon="3.32175">
        <ele>421</ele>
        <time>2016-02-14T13:54:35Z</time>
      </trkpt>
      <trkpt lat="43.58177" lon="3.32181">
        <ele>421</ele>
        <time>2016-02-14T13:54:36Z</time>
      </trkpt>
      <trkpt lat="43.58169" lon="3.32187">
        <ele>421</ele>
        <time>2016-02-14T13:54:37Z</time>
      </trkpt>
      <trkpt lat="43.58161" lon="3.32193">
        <ele>421</ele>
        <time>2016-02-14T13:54:38Z</time>
      </trkpt>
      <trkpt lat="43.58152" lon="3.32199">
        <ele>420.5</ele>
        <time>2016-02-14T13:54:39Z</time>
      </trkpt>
      <trkpt lat="43.58144" lon="3.32205">
        <ele>420</ele>
        <time>2016-02-14T13:54:40Z</time>
      </trkpt>
      <trkpt lat="43.58135" lon="3.3221">
        <ele>419.5</ele>
        <time>2016-02-14T13:54:41Z</time>
      </trkpt>
      <trkpt lat="43.58127" lon="3.32216">
        <ele>418</ele>
        <time>2016-02-14T13:54:42Z</time>
      </trkpt>
      <trkpt lat="43.58118" lon="3.32225">
        <ele>418</ele>
        <time>2016-02-14T13:54:43Z</time>
      </trkpt>
      <trkpt lat="43.5811" lon="3.32233">
        <ele>417.5</ele>
        <time>2016-02-14T13:54:44Z</time>
      </trkpt>
      <trkpt lat="43.58102" lon="3.32242">
        <ele>416.5</ele>
        <time>2016-02-14T13:54:45Z</time>
      </trkpt>
      <trkpt lat="43.58094" lon="3.32251">
        <ele>416</ele>
        <time>2016-02-14T13:54:46Z</time>
      </trkpt>
      <trkpt lat="43.58086" lon="3.3226">
        <ele>415</ele>
        <time>2016-02-14T13:54:47Z</time>
      </trkpt>
      <trkpt lat="43.58078" lon="3.32271">
        <ele>414</ele>
        <time>2016-02-14T13:54:48Z</time>
      </trkpt>
      <trkpt lat="43.58071" lon="3.32282">
        <ele>413.5</ele>
        <time>2016-02-14T13:54:49Z</time>
      </trkpt>
      <trkpt lat="43.58063" lon="3.32294">
        <ele>412.5</ele>
        <time>2016-02-14T13:54:50Z</time>
      </trkpt>
      <trkpt lat="43.58056" lon="3.32306">
        <ele>412.5</ele>
        <time>2016-02-14T13:54:51Z</time>
      </trkpt>
      <trkpt lat="43.58049" lon="3.32318">
        <ele>412.5</ele>
        <time>2016-02-14T13:54:52Z</time>
      </trkpt>
      <trkpt lat="43.58041" lon="3.32328">
        <ele>411.5</ele>
        <time>2016-02-14T13:54:53Z</time>
      </trkpt>
      <trkpt lat="43.58033" lon="3.32338">
        <ele>411.5</ele>
        <time>2016-02-14T13:54:53Z</time>
      </trkpt>
      <trkpt lat="43.58025" lon="3.32349">
        <ele>411.5</ele>
        <time>2016-02-14T13:54:54Z</time>
      </trkpt>
      <trkpt lat="43.5802" lon="3.32362">
        <ele>411.5</ele>
        <time>2016-02-14T13:54:55Z</time>
      </trkpt>
      <trkpt lat="43.58015" lon="3.32374">
        <ele>410.5</ele>
        <time>2016-02-14T13:54:56Z</time>
      </trkpt>
      <trkpt lat="43.58009" lon="3.32386">
        <ele>409.5</ele>
        <time>2016-02-14T13:54:57Z</time>
      </trkpt>
      <trkpt lat="43.58002" lon="3.32397">
        <ele>408.5</ele>
        <time>2016-02-14T13:54:59Z</time>
      </trkpt>
      <trkpt lat="43.57995" lon="3.32407">
        <ele>408.5</ele>
        <time>2016-02-14T13:55:00Z</time>
      </trkpt>
      <trkpt lat="43.57988" lon="3.32419">
        <ele>409.5</ele>
        <time>2016-02-14T13:55:00Z</time>
      </trkpt>
      <trkpt lat="43.57981" lon="3.3243">
        <ele>409</ele>
        <time>2016-02-14T13:55:01Z</time>
      </trkpt>
      <trkpt lat="43.57974" lon="3.3244">
        <ele>409</ele>
        <time>2016-02-14T13:55:02Z</time>
      </trkpt>
      <trkpt lat="43.57967" lon="3.3245">
        <ele>409</ele>
        <time>2016-02-14T13:55:03Z</time>
      </trkpt>
      <trkpt lat="43.5796" lon="3.32459">
        <ele>409</ele>
        <time>2016-02-14T13:55:04Z</time>
      </trkpt>
      <trkpt lat="43.57953" lon="3.32467">
        <ele>408</ele>
        <time>2016-02-14T13:55:05Z</time>
      </trkpt>
      <trkpt lat="43.5794" lon="3.32483">
        <ele>407</ele>
        <time>2016-02-14T13:55:09Z</time>
      </trkpt>
      <trkpt lat="43.57933" lon="3.3249">
        <ele>406.5</ele>
        <time>2016-02-14T13:55:10Z</time>
      </trkpt>
      <trkpt lat="43.57926" lon="3.32497">
        <ele>406</ele>
        <time>2016-02-14T13:55:11Z</time>
      </trkpt>
      <trkpt lat="43.57918" lon="3.32502">
        <ele>406</ele>
        <time>2016-02-14T13:55:12Z</time>
      </trkpt>
      <trkpt lat="43.57911" lon="3.32507">
        <ele>406</ele>
        <time>2016-02-14T13:55:13Z</time>
      </trkpt>
      <trkpt lat="43.57905" lon="3.32511">
        <ele>406.5</ele>
        <time>2016-02-14T13:55:14Z</time>
      </trkpt>
      <trkpt lat="43.57899" lon="3.32514">
        <ele>406.5</ele>
        <time>2016-02-14T13:55:15Z</time>
      </trkpt>
      <trkpt lat="43.57893" lon="3.32516">
        <ele>408</ele>
        <time>2016-02-14T13:55:16Z</time>
      </trkpt>
      <trkpt lat="43.57887" lon="3.32517">
        <ele>408</ele>
        <time>2016-02-14T13:55:17Z</time>
      </trkpt>
      <trkpt lat="43.57882" lon="3.32518">
        <ele>409.5</ele>
        <time>2016-02-14T13:55:18Z</time>
      </trkpt>
      <trkpt lat="43.57876" lon="3.32521">
        <ele>408.5</ele>
        <time>2016-02-14T13:55:19Z</time>
      </trkpt>
      <trkpt lat="43.57871" lon="3.32522">
        <ele>409</ele>
        <time>2016-02-14T13:55:20Z</time>
      </trkpt>
      <trkpt lat="43.57866" lon="3.32523">
        <ele>409</ele>
        <time>2016-02-14T13:55:21Z</time>
      </trkpt>
      <trkpt lat="43.57862" lon="3.32524">
        <ele>409.5</ele>
        <time>2016-02-14T13:55:22Z</time>
      </trkpt>
      <trkpt lat="43.57857" lon="3.32525">
        <ele>409</ele>
        <time>2016-02-14T13:55:23Z</time>
      </trkpt>
      <trkpt lat="43.57853" lon="3.32527">
        <ele>409</ele>
        <time>2016-02-14T13:55:24Z</time>
      </trkpt>
      <trkpt lat="43.5785" lon="3.32529">
        <ele>408.5</ele>
        <time>2016-02-14T13:55:25Z</time>
      </trkpt>
      <trkpt lat="43.57846" lon="3.3253">
        <ele>408.5</ele>
        <time>2016-02-14T13:55:26Z</time>
      </trkpt>
      <trkpt lat="43.57843" lon="3.32531">
        <ele>408.5</ele>
        <time>2016-02-14T13:55:27Z</time>
      </trkpt>
      <trkpt lat="43.57839" lon="3.32531">
        <ele>408</ele>
        <time>2016-02-14T13:55:28Z</time>
      </trkpt>
      <trkpt lat="43.57837" lon="3.32534">
        <ele>408</ele>
        <time>2016-02-14T13:55:29Z</time>
      </trkpt>
      <trkpt lat="43.57833" lon="3.32534">
        <ele>408</ele>
        <time>2016-02-14T13:55:30Z</time>
      </trkpt>
      <trkpt lat="43.57829" lon="3.32535">
        <ele>408</ele>
        <time>2016-02-14T13:55:31Z</time>
      </trkpt>
      <trkpt lat="43.57826" lon="3.32537">
        <ele>407.5</ele>
        <time>2016-02-14T13:55:32Z</time>
      </trkpt>
      <trkpt lat="43.57818" lon="3.32539">
        <ele>407.5</ele>
        <time>2016-02-14T13:55:34Z</time>
      </trkpt>
      <trkpt lat="43.57816" lon="3.32542">
        <ele>408</ele>
        <time>2016-02-14T13:55:36Z</time>
      </trkpt>
      <trkpt lat="43.57816" lon="3.32543">
        <ele>408</ele>
        <time>2016-02-14T13:55:37Z</time>
      </trkpt>
      <trkpt lat="43.57814" lon="3.32544">
        <ele>408</ele>
        <time>2016-02-14T13:55:38Z</time>
      </trkpt>
      <trkpt lat="43.57813" lon="3.32546">
        <ele>407</ele>
        <time>2016-02-14T13:55:39Z</time>
      </trkpt>
      <trkpt lat="43.57813" lon="3.32551">
        <ele>407</ele>
        <time>2016-02-14T13:55:40Z</time>
      </trkpt>
      <trkpt lat="43.5781" lon="3.32554">
        <ele>406.5</ele>
        <time>2016-02-14T13:55:41Z</time>
      </trkpt>
      <trkpt lat="43.57807" lon="3.32557">
        <ele>406.5</ele>
        <time>2016-02-14T13:55:42Z</time>
      </trkpt>
      <trkpt lat="43.57803" lon="3.32561">
        <ele>406.5</ele>
        <time>2016-02-14T13:55:43Z</time>
      </trkpt>
      <trkpt lat="43.578" lon="3.32565">
        <ele>406.5</ele>
        <time>2016-02-14T13:55:44Z</time>
      </trkpt>
      <trkpt lat="43.57796" lon="3.32568">
        <ele>406.5</ele>
        <time>2016-02-14T13:55:45Z</time>
      </trkpt>
      <trkpt lat="43.57795" lon="3.32575">
        <ele>408.5</ele>
        <time>2016-02-14T13:55:47Z</time>
      </trkpt>
      <trkpt lat="43.57793" lon="3.32579">
        <ele>408</ele>
        <time>2016-02-14T13:55:48Z</time>
      </trkpt>
      <trkpt lat="43.5779" lon="3.32583">
        <ele>407.5</ele>
        <time>2016-02-14T13:55:49Z</time>
      </trkpt>
      <trkpt lat="43.57787" lon="3.32587">
        <ele>407</ele>
        <time>2016-02-14T13:55:50Z</time>
      </trkpt>
      <trkpt lat="43.57784" lon="3.32592">
        <ele>407</ele>
        <time>2016-02-14T13:55:51Z</time>
      </trkpt>
      <trkpt lat="43.57781" lon="3.32595">
        <ele>406.5</ele>
        <time>2016-02-14T13:55:52Z</time>
      </trkpt>
      <trkpt lat="43.57778" lon="3.326">
        <ele>408</ele>
        <time>2016-02-14T13:55:53Z</time>
      </trkpt>
      <trkpt lat="43.57776" lon="3.32604">
        <ele>408</ele>
        <time>2016-02-14T13:55:54Z</time>
      </trkpt>
      <trkpt lat="43.57773" lon="3.32608">
        <ele>407</ele>
        <time>2016-02-14T13:55:55Z</time>
      </trkpt>
      <trkpt lat="43.5777" lon="3.32612">
        <ele>406.5</ele>
        <time>2016-02-14T13:55:56Z</time>
      </trkpt>
      <trkpt lat="43.57768" lon="3.32617">
        <ele>406.5</ele>
        <time>2016-02-14T13:55:57Z</time>
      </trkpt>
      <trkpt lat="43.57765" lon="3.32622">
        <ele>405.5</ele>
        <time>2016-02-14T13:55:58Z</time>
      </trkpt>
      <trkpt lat="43.57763" lon="3.32625">
        <ele>405</ele>
        <time>2016-02-14T13:55:59Z</time>
      </trkpt>
      <trkpt lat="43.57761" lon="3.32628">
        <ele>405</ele>
        <time>2016-02-14T13:56:00Z</time>
      </trkpt>
      <trkpt lat="43.57759" lon="3.32632">
        <ele>405</ele>
        <time>2016-02-14T13:56:01Z</time>
      </trkpt>
      <trkpt lat="43.57755" lon="3.32633">
        <ele>407</ele>
        <time>2016-02-14T13:56:02Z</time>
      </trkpt>
      <trkpt lat="43.57754" lon="3.32638">
        <ele>407</ele>
        <time>2016-02-14T13:56:03Z</time>
      </trkpt>
      <trkpt lat="43.5775" lon="3.32642">
        <ele>406.5</ele>
        <time>2016-02-14T13:56:04Z</time>
      </trkpt>
      <trkpt lat="43.57744" lon="3.32652">
        <ele>405.5</ele>
        <time>2016-02-14T13:56:06Z</time>
      </trkpt>
      <trkpt lat="43.57742" lon="3.32656">
        <ele>405</ele>
        <time>2016-02-14T13:56:07Z</time>
      </trkpt>
      <trkpt lat="43.5774" lon="3.32659">
        <ele>405</ele>
        <time>2016-02-14T13:56:08Z</time>
      </trkpt>
      <trkpt lat="43.57732" lon="3.32664">
        <ele>404</ele>
        <time>2016-02-14T13:56:10Z</time>
      </trkpt>
      <trkpt lat="43.57731" lon="3.32668">
        <ele>404</ele>
        <time>2016-02-14T13:56:12Z</time>
      </trkpt>
      <trkpt lat="43.57727" lon="3.32671">
        <ele>404</ele>
        <time>2016-02-14T13:56:13Z</time>
      </trkpt>
      <trkpt lat="43.57722" lon="3.32672">
        <ele>403</ele>
        <time>2016-02-14T13:56:14Z</time>
      </trkpt>
      <trkpt lat="43.57718" lon="3.32674">
        <ele>403</ele>
        <time>2016-02-14T13:56:15Z</time>
      </trkpt>
      <trkpt lat="43.57713" lon="3.32677">
        <ele>403</ele>
        <time>2016-02-14T13:56:16Z</time>
      </trkpt>
      <trkpt lat="43.57702" lon="3.32681">
        <ele>401</ele>
        <time>2016-02-14T13:56:18Z</time>
      </trkpt>
      <trkpt lat="43.57697" lon="3.32684">
        <ele>400</ele>
        <time>2016-02-14T13:56:19Z</time>
      </trkpt>
      <trkpt lat="43.57693" lon="3.32685">
        <ele>400</ele>
        <time>2016-02-14T13:56:20Z</time>
      </trkpt>
      <trkpt lat="43.57691" lon="3.32687">
        <ele>399.5</ele>
        <time>2016-02-14T13:56:21Z</time>
      </trkpt>
      <trkpt lat="43.5769" lon="3.32687">
        <ele>399.5</ele>
        <time>2016-02-14T13:56:22Z</time>
      </trkpt>
      <trkpt lat="43.57687" lon="3.32688">
        <ele>398</ele>
        <time>2016-02-14T13:56:23Z</time>
      </trkpt>
      <trkpt lat="43.57685" lon="3.32689">
        <ele>398</ele>
        <time>2016-02-14T13:56:24Z</time>
      </trkpt>
      <trkpt lat="43.57685" lon="3.32689">
        <ele>397.5</ele>
        <time>2016-02-14T13:56:25Z</time>
      </trkpt>
      <trkpt lat="43.57684" lon="3.32689">
        <ele>397</ele>
        <time>2016-02-14T13:56:26Z</time>
      </trkpt>
      <trkpt lat="43.57684" lon="3.3269">
        <ele>396.5</ele>
        <time>2016-02-14T13:56:27Z</time>
      </trkpt>
      <trkpt lat="43.57682" lon="3.32693">
        <ele>395.5</ele>
        <time>2016-02-14T13:56:31Z</time>
      </trkpt>
      <trkpt lat="43.57676" lon="3.32694">
        <ele>394.5</ele>
        <time>2016-02-14T13:56:33Z</time>
      </trkpt>
      <trkpt lat="43.57673" lon="3.32696">
        <ele>393</ele>
        <time>2016-02-14T13:56:34Z</time>
      </trkpt>
      <trkpt lat="43.5767" lon="3.32697">
        <ele>392.5</ele>
        <time>2016-02-14T13:56:35Z</time>
      </trkpt>
      <trkpt lat="43.57665" lon="3.327">
        <ele>392.5</ele>
        <time>2016-02-14T13:56:36Z</time>
      </trkpt>
      <trkpt lat="43.57661" lon="3.32703">
        <ele>392.5</ele>
        <time>2016-02-14T13:56:37Z</time>
      </trkpt>
      <trkpt lat="43.57656" lon="3.32705">
        <ele>392.5</ele>
        <time>2016-02-14T13:56:38Z</time>
      </trkpt>
      <trkpt lat="43.57649" lon="3.32713">
        <ele>392</ele>
        <time>2016-02-14T13:56:40Z</time>
      </trkpt>
      <trkpt lat="43.57637" lon="3.32717">
        <ele>391.5</ele>
        <time>2016-02-14T13:56:42Z</time>
      </trkpt>
      <trkpt lat="43.57632" lon="3.3272">
        <ele>389.5</ele>
        <time>2016-02-14T13:56:42Z</time>
      </trkpt>
      <trkpt lat="43.57627" lon="3.32722">
        <ele>389</ele>
        <time>2016-02-14T13:56:43Z</time>
      </trkpt>
      <trkpt lat="43.57623" lon="3.32724">
        <ele>388.5</ele>
        <time>2016-02-14T13:56:44Z</time>
      </trkpt>
      <trkpt lat="43.57618" lon="3.32725">
        <ele>388.5</ele>
        <time>2016-02-14T13:56:45Z</time>
      </trkpt>
      <trkpt lat="43.57613" lon="3.32726">
        <ele>388.5</ele>
        <time>2016-02-14T13:56:46Z</time>
      </trkpt>
      <trkpt lat="43.57608" lon="3.32728">
        <ele>388.5</ele>
        <time>2016-02-14T13:56:47Z</time>
      </trkpt>
      <trkpt lat="43.57604" lon="3.32731">
        <ele>388</ele>
        <time>2016-02-14T13:56:48Z</time>
      </trkpt>
      <trkpt lat="43.57601" lon="3.32734">
        <ele>388</ele>
        <time>2016-02-14T13:56:49Z</time>
      </trkpt>
      <trkpt lat="43.57599" lon="3.32733">
        <ele>387</ele>
        <time>2016-02-14T13:56:51Z</time>
      </trkpt>
      <trkpt lat="43.57598" lon="3.32734">
        <ele>387</ele>
        <time>2016-02-14T13:56:51Z</time>
      </trkpt>
      <trkpt lat="43.57594" lon="3.32744">
        <ele>387</ele>
        <time>2016-02-14T13:56:53Z</time>
      </trkpt>
      <trkpt lat="43.57587" lon="3.32755">
        <ele>386.5</ele>
        <time>2016-02-14T13:56:55Z</time>
      </trkpt>
      <trkpt lat="43.57585" lon="3.32757">
        <ele>386.5</ele>
        <time>2016-02-14T13:56:56Z</time>
      </trkpt>
      <trkpt lat="43.57576" lon="3.32768">
        <ele>386.5</ele>
        <time>2016-02-14T13:56:58Z</time>
      </trkpt>
      <trkpt lat="43.57572" lon="3.32775">
        <ele>386.5</ele>
        <time>2016-02-14T13:56:59Z</time>
      </trkpt>
      <trkpt lat="43.57566" lon="3.32781">
        <ele>387</ele>
        <time>2016-02-14T13:57:00Z</time>
      </trkpt>
      <trkpt lat="43.57561" lon="3.32788">
        <ele>386.5</ele>
        <time>2016-02-14T13:57:01Z</time>
      </trkpt>
      <trkpt lat="43.57555" lon="3.32794">
        <ele>386.5</ele>
        <time>2016-02-14T13:57:02Z</time>
      </trkpt>
      <trkpt lat="43.57551" lon="3.32798">
        <ele>386.5</ele>
        <time>2016-02-14T13:57:04Z</time>
      </trkpt>
      <trkpt lat="43.57539" lon="3.32811">
        <ele>386.5</ele>
        <time>2016-02-14T13:57:05Z</time>
      </trkpt>
      <trkpt lat="43.57531" lon="3.32817">
        <ele>386</ele>
        <time>2016-02-14T13:57:06Z</time>
      </trkpt>
      <trkpt lat="43.57526" lon="3.32823">
        <ele>385</ele>
        <time>2016-02-14T13:57:07Z</time>
      </trkpt>
      <trkpt lat="43.57521" lon="3.32828">
        <ele>385</ele>
        <time>2016-02-14T13:57:08Z</time>
      </trkpt>
      <trkpt lat="43.57516" lon="3.32834">
        <ele>385</ele>
        <time>2016-02-14T13:57:09Z</time>
      </trkpt>
      <trkpt lat="43.5751" lon="3.32841">
        <ele>384.5</ele>
        <time>2016-02-14T13:57:10Z</time>
      </trkpt>
      <trkpt lat="43.57502" lon="3.32849">
        <ele>384.5</ele>
        <time>2016-02-14T13:57:12Z</time>
      </trkpt>
      <trkpt lat="43.57491" lon="3.32861">
        <ele>384</ele>
        <time>2016-02-14T13:57:14Z</time>
      </trkpt>
      <trkpt lat="43.57486" lon="3.32866">
        <ele>383.5</ele>
        <time>2016-02-14T13:57:15Z</time>
      </trkpt>
      <trkpt lat="43.57483" lon="3.32875">
        <ele>382.5</ele>
        <time>2016-02-14T13:57:17Z</time>
      </trkpt>
      <trkpt lat="43.5748" lon="3.32879">
        <ele>380.5</ele>
        <time>2016-02-14T13:57:18Z</time>
      </trkpt>
      <trkpt lat="43.57475" lon="3.32883">
        <ele>381</ele>
        <time>2016-02-14T13:57:19Z</time>
      </trkpt>
      <trkpt lat="43.5747" lon="3.32887">
        <ele>381.5</ele>
        <time>2016-02-14T13:57:20Z</time>
      </trkpt>
      <trkpt lat="43.57465" lon="3.32891">
        <ele>381.5</ele>
        <time>2016-02-14T13:57:21Z</time>
      </trkpt>
      <trkpt lat="43.5746" lon="3.32895">
        <ele>381</ele>
        <time>2016-02-14T13:57:22Z</time>
      </trkpt>
      <trkpt lat="43.57455" lon="3.329">
        <ele>381</ele>
        <time>2016-02-14T13:57:23Z</time>
      </trkpt>
      <trkpt lat="43.57452" lon="3.32906">
        <ele>380</ele>
        <time>2016-02-14T13:57:24Z</time>
      </trkpt>
      <trkpt lat="43.57448" lon="3.32911">
        <ele>379.5</ele>
        <time>2016-02-14T13:57:25Z</time>
      </trkpt>
      <trkpt lat="43.57445" lon="3.32916">
        <ele>379</ele>
        <time>2016-02-14T13:57:26Z</time>
      </trkpt>
      <trkpt lat="43.57443" lon="3.32923">
        <ele>378.5</ele>
        <time>2016-02-14T13:57:27Z</time>
      </trkpt>
      <trkpt lat="43.57441" lon="3.32929">
        <ele>376.5</ele>
        <time>2016-02-14T13:57:28Z</time>
      </trkpt>
      <trkpt lat="43.57438" lon="3.32935">
        <ele>375.5</ele>
        <time>2016-02-14T13:57:29Z</time>
      </trkpt>
      <trkpt lat="43.57435" lon="3.32941">
        <ele>374.5</ele>
        <time>2016-02-14T13:57:30Z</time>
      </trkpt>
      <trkpt lat="43.57431" lon="3.32946">
        <ele>374.5</ele>
        <time>2016-02-14T13:57:31Z</time>
      </trkpt>
      <trkpt lat="43.57429" lon="3.32951">
        <ele>373</ele>
        <time>2016-02-14T13:57:32Z</time>
      </trkpt>
      <trkpt lat="43.57428" lon="3.32957">
        <ele>374</ele>
        <time>2016-02-14T13:57:33Z</time>
      </trkpt>
      <trkpt lat="43.57429" lon="3.32961">
        <ele>373.5</ele>
        <time>2016-02-14T13:57:34Z</time>
      </trkpt>
      <trkpt lat="43.57427" lon="3.32965">
        <ele>372</ele>
        <time>2016-02-14T13:57:35Z</time>
      </trkpt>
      <trkpt lat="43.57425" lon="3.32968">
        <ele>372</ele>
        <time>2016-02-14T13:57:36Z</time>
      </trkpt>
      <trkpt lat="43.57423" lon="3.32971">
        <ele>371.5</ele>
        <time>2016-02-14T13:57:37Z</time>
      </trkpt>
      <trkpt lat="43.57421" lon="3.32975">
        <ele>371.5</ele>
        <time>2016-02-14T13:57:38Z</time>
      </trkpt>
      <trkpt lat="43.5742" lon="3.32978">
        <ele>372</ele>
        <time>2016-02-14T13:57:39Z</time>
      </trkpt>
      <trkpt lat="43.57418" lon="3.32982">
        <ele>371.5</ele>
        <time>2016-02-14T13:57:40Z</time>
      </trkpt>
      <trkpt lat="43.57417" lon="3.32986">
        <ele>371.5</ele>
        <time>2016-02-14T13:57:41Z</time>
      </trkpt>
      <trkpt lat="43.57417" lon="3.32989">
        <ele>371</ele>
        <time>2016-02-14T13:57:42Z</time>
      </trkpt>
      <trkpt lat="43.57416" lon="3.32991">
        <ele>372.5</ele>
        <time>2016-02-14T13:57:43Z</time>
      </trkpt>
      <trkpt lat="43.57417" lon="3.32994">
        <ele>372.5</ele>
        <time>2016-02-14T13:57:44Z</time>
      </trkpt>
      <trkpt lat="43.57415" lon="3.32999">
        <ele>371</ele>
        <time>2016-02-14T13:57:45Z</time>
      </trkpt>
      <trkpt lat="43.57414" lon="3.33002">
        <ele>370.5</ele>
        <time>2016-02-14T13:57:46Z</time>
      </trkpt>
      <trkpt lat="43.57413" lon="3.33005">
        <ele>370.5</ele>
        <time>2016-02-14T13:57:47Z</time>
      </trkpt>
      <trkpt lat="43.57411" lon="3.33009">
        <ele>370.5</ele>
        <time>2016-02-14T13:57:48Z</time>
      </trkpt>
      <trkpt lat="43.57408" lon="3.33013">
        <ele>370</ele>
        <time>2016-02-14T13:57:49Z</time>
      </trkpt>
      <trkpt lat="43.57407" lon="3.33017">
        <ele>369.5</ele>
        <time>2016-02-14T13:57:50Z</time>
      </trkpt>
      <trkpt lat="43.57406" lon="3.33021">
        <ele>370.5</ele>
        <time>2016-02-14T13:57:51Z</time>
      </trkpt>
      <trkpt lat="43.57405" lon="3.33025">
        <ele>370.5</ele>
        <time>2016-02-14T13:57:52Z</time>
      </trkpt>
      <trkpt lat="43.57402" lon="3.33029">
        <ele>370</ele>
        <time>2016-02-14T13:57:53Z</time>
      </trkpt>
      <trkpt lat="43.574" lon="3.33033">
        <ele>370</ele>
        <time>2016-02-14T13:57:54Z</time>
      </trkpt>
      <trkpt lat="43.57398" lon="3.33038">
        <ele>369.5</ele>
        <time>2016-02-14T13:57:55Z</time>
      </trkpt>
      <trkpt lat="43.57397" lon="3.33042">
        <ele>369.5</ele>
        <time>2016-02-14T13:57:56Z</time>
      </trkpt>
      <trkpt lat="43.57396" lon="3.33045">
        <ele>369</ele>
        <time>2016-02-14T13:57:57Z</time>
      </trkpt>
      <trkpt lat="43.57394" lon="3.33049">
        <ele>367.5</ele>
        <time>2016-02-14T13:57:58Z</time>
      </trkpt>
      <trkpt lat="43.57393" lon="3.33053">
        <ele>366.5</ele>
        <time>2016-02-14T13:57:59Z</time>
      </trkpt>
      <trkpt lat="43.57392" lon="3.33057">
        <ele>366</ele>
        <time>2016-02-14T13:58:00Z</time>
      </trkpt>
      <trkpt lat="43.57391" lon="3.33055">
        <ele>366</ele>
        <time>2016-02-14T13:58:01Z</time>
      </trkpt>
      <trkpt lat="43.57389" lon="3.33055">
        <ele>368</ele>
        <time>2016-02-14T13:58:02Z</time>
      </trkpt>
      <trkpt lat="43.57389" lon="3.33055">
        <ele>368</ele>
        <time>2016-02-14T13:58:03Z</time>
      </trkpt>
      <trkpt lat="43.57388" lon="3.33055">
        <ele>369</ele>
        <time>2016-02-14T13:58:04Z</time>
      </trkpt>
      <trkpt lat="43.57387" lon="3.33056">
        <ele>370</ele>
        <time>2016-02-14T13:58:05Z</time>
      </trkpt>
      <trkpt lat="43.57386" lon="3.33056">
        <ele>371</ele>
        <time>2016-02-14T13:58:07Z</time>
      </trkpt>
      <trkpt lat="43.57384" lon="3.33058">
        <ele>372</ele>
        <time>2016-02-14T13:58:09Z</time>
      </trkpt>
      <trkpt lat="43.57383" lon="3.33059">
        <ele>372</ele>
        <time>2016-02-14T13:58:10Z</time>
      </trkpt>
      <trkpt lat="43.57383" lon="3.33059">
        <ele>372</ele>
        <time>2016-02-14T13:58:11Z</time>
      </trkpt>
      <trkpt lat="43.57377" lon="3.33063">
        <ele>368.5</ele>
        <time>2016-02-14T13:58:15Z</time>
      </trkpt>
      <trkpt lat="43.57377" lon="3.33063">
        <ele>368</ele>
        <time>2016-02-14T13:58:17Z</time>
      </trkpt>
      <trkpt lat="43.57377" lon="3.33065">
        <ele>367.5</ele>
        <time>2016-02-14T13:58:18Z</time>
      </trkpt>
      <trkpt lat="43.57376" lon="3.33066">
        <ele>367.5</ele>
        <time>2016-02-14T13:58:19Z</time>
      </trkpt>
      <trkpt lat="43.57376" lon="3.33066">
        <ele>367</ele>
        <time>2016-02-14T13:58:20Z</time>
      </trkpt>
      <trkpt lat="43.57375" lon="3.33067">
        <ele>367</ele>
        <time>2016-02-14T13:58:21Z</time>
      </trkpt>
      <trkpt lat="43.57375" lon="3.33068">
        <ele>366</ele>
        <time>2016-02-14T13:58:22Z</time>
      </trkpt>
      <trkpt lat="43.57374" lon="3.33069">
        <ele>366</ele>
        <time>2016-02-14T13:58:24Z</time>
      </trkpt>
      <trkpt lat="43.57374" lon="3.3307">
        <ele>366</ele>
        <time>2016-02-14T13:58:26Z</time>
      </trkpt>
      <trkpt lat="43.57372" lon="3.33078">
        <ele>364.5</ele>
        <time>2016-02-14T13:58:30Z</time>
      </trkpt>
      <trkpt lat="43.57371" lon="3.3308">
        <ele>363.5</ele>
        <time>2016-02-14T13:58:32Z</time>
      </trkpt>
      <trkpt lat="43.57371" lon="3.33081">
        <ele>363.5</ele>
        <time>2016-02-14T13:58:33Z</time>
      </trkpt>
      <trkpt lat="43.5737" lon="3.33081">
        <ele>363</ele>
        <time>2016-02-14T13:58:34Z</time>
      </trkpt>
      <trkpt lat="43.5737" lon="3.33081">
        <ele>363</ele>
        <time>2016-02-14T13:58:35Z</time>
      </trkpt>
      <trkpt lat="43.5737" lon="3.33081">
        <ele>363</ele>
        <time>2016-02-14T13:58:36Z</time>
      </trkpt>
      <trkpt lat="43.5737" lon="3.33081">
        <ele>363</ele>
        <time>2016-02-14T13:58:37Z</time>
      </trkpt>
      <trkpt lat="43.5737" lon="3.33081">
        <ele>363</ele>
        <time>2016-02-14T13:58:38Z</time>
      </trkpt>
      <trkpt lat="43.5737" lon="3.33081">
        <ele>363</ele>
        <time>2016-02-14T13:58:39Z</time>
      </trkpt>
      <trkpt lat="43.57368" lon="3.33087">
        <ele>363.5</ele>
        <time>2016-02-14T13:58:41Z</time>
      </trkpt>
      <trkpt lat="43.57367" lon="3.33088">
        <ele>363.5</ele>
        <time>2016-02-14T13:58:42Z</time>
      </trkpt>
      <trkpt lat="43.57367" lon="3.33091">
        <ele>363.5</ele>
        <time>2016-02-14T13:58:43Z</time>
      </trkpt>
      <trkpt lat="43.57366" lon="3.33098">
        <ele>363.5</ele>
        <time>2016-02-14T13:58:45Z</time>
      </trkpt>
      <trkpt lat="43.57365" lon="3.33103">
        <ele>363.5</ele>
        <time>2016-02-14T13:58:46Z</time>
      </trkpt>
      <trkpt lat="43.57359" lon="3.33112">
        <ele>363.5</ele>
        <time>2016-02-14T13:58:48Z</time>
      </trkpt>
      <trkpt lat="43.57356" lon="3.33116">
        <ele>363.5</ele>
        <time>2016-02-14T13:58:49Z</time>
      </trkpt>
      <trkpt lat="43.57344" lon="3.33144">
        <ele>363.5</ele>
        <time>2016-02-14T13:58:53Z</time>
      </trkpt>
      <trkpt lat="43.5734" lon="3.33151">
        <ele>363.5</ele>
        <time>2016-02-14T13:58:54Z</time>
      </trkpt>
      <trkpt lat="43.57333" lon="3.33166">
        <ele>363</ele>
        <time>2016-02-14T13:58:56Z</time>
      </trkpt>
      <trkpt lat="43.57333" lon="3.33172">
        <ele>363</ele>
        <time>2016-02-14T13:58:57Z</time>
      </trkpt>
      <trkpt lat="43.5732" lon="3.33201">
        <ele>363</ele>
        <time>2016-02-14T13:59:00Z</time>
      </trkpt>
      <trkpt lat="43.57316" lon="3.33209">
        <ele>363</ele>
        <time>2016-02-14T13:59:01Z</time>
      </trkpt>
      <trkpt lat="43.57313" lon="3.33218">
        <ele>363</ele>
        <time>2016-02-14T13:59:02Z</time>
      </trkpt>
      <trkpt lat="43.57307" lon="3.33236">
        <ele>363</ele>
        <time>2016-02-14T13:59:04Z</time>
      </trkpt>
      <trkpt lat="43.57307" lon="3.33245">
        <ele>363</ele>
        <time>2016-02-14T13:59:07Z</time>
      </trkpt>
      <trkpt lat="43.57307" lon="3.3325">
        <ele>363</ele>
        <time>2016-02-14T13:59:08Z</time>
      </trkpt>
      <trkpt lat="43.57304" lon="3.33256">
        <ele>363</ele>
        <time>2016-02-14T13:59:09Z</time>
      </trkpt>
      <trkpt lat="43.57303" lon="3.3326">
        <ele>363</ele>
        <time>2016-02-14T13:59:10Z</time>
      </trkpt>
      <trkpt lat="43.57301" lon="3.33263">
        <ele>363</ele>
        <time>2016-02-14T13:59:11Z</time>
      </trkpt>
      <trkpt lat="43.57293" lon="3.33274">
        <ele>363</ele>
        <time>2016-02-14T13:59:13Z</time>
      </trkpt>
      <trkpt lat="43.57283" lon="3.33284">
        <ele>363</ele>
        <time>2016-02-14T13:59:15Z</time>
      </trkpt>
      <trkpt lat="43.57276" lon="3.33297">
        <ele>363</ele>
        <time>2016-02-14T13:59:17Z</time>
      </trkpt>
      <trkpt lat="43.57273" lon="3.33302">
        <ele>363</ele>
        <time>2016-02-14T13:59:18Z</time>
      </trkpt>
      <trkpt lat="43.57265" lon="3.33316">
        <ele>363</ele>
        <time>2016-02-14T13:59:20Z</time>
      </trkpt>
      <trkpt lat="43.57259" lon="3.33328">
        <ele>363</ele>
        <time>2016-02-14T13:59:22Z</time>
      </trkpt>
      <trkpt lat="43.5726" lon="3.33331">
        <ele>363</ele>
        <time>2016-02-14T13:59:23Z</time>
      </trkpt>
      <trkpt lat="43.57255" lon="3.33345">
        <ele>363</ele>
        <time>2016-02-14T13:59:25Z</time>
      </trkpt>
      <trkpt lat="43.57252" lon="3.33349">
        <ele>363</ele>
        <time>2016-02-14T13:59:26Z</time>
      </trkpt>
      <trkpt lat="43.57248" lon="3.33353">
        <ele>361</ele>
        <time>2016-02-14T13:59:27Z</time>
      </trkpt>
      <trkpt lat="43.57245" lon="3.33355">
        <ele>360.5</ele>
        <time>2016-02-14T13:59:28Z</time>
      </trkpt>
      <trkpt lat="43.57244" lon="3.33358">
        <ele>359</ele>
        <time>2016-02-14T13:59:29Z</time>
      </trkpt>
      <trkpt lat="43.57242" lon="3.33361">
        <ele>359</ele>
        <time>2016-02-14T13:59:30Z</time>
      </trkpt>
      <trkpt lat="43.5724" lon="3.33364">
        <ele>358.5</ele>
        <time>2016-02-14T13:59:31Z</time>
      </trkpt>
      <trkpt lat="43.57238" lon="3.33368">
        <ele>358</ele>
        <time>2016-02-14T13:59:32Z</time>
      </trkpt>
      <trkpt lat="43.57237" lon="3.33372">
        <ele>357</ele>
        <time>2016-02-14T13:59:33Z</time>
      </trkpt>
      <trkpt lat="43.57236" lon="3.33377">
        <ele>356</ele>
        <time>2016-02-14T13:59:34Z</time>
      </trkpt>
      <trkpt lat="43.57235" lon="3.33384">
        <ele>355.5</ele>
        <time>2016-02-14T13:59:35Z</time>
      </trkpt>
      <trkpt lat="43.57233" lon="3.3339">
        <ele>354.5</ele>
        <time>2016-02-14T13:59:36Z</time>
      </trkpt>
      <trkpt lat="43.57232" lon="3.33397">
        <ele>353</ele>
        <time>2016-02-14T13:59:37Z</time>
      </trkpt>
      <trkpt lat="43.5723" lon="3.33404">
        <ele>352.5</ele>
        <time>2016-02-14T13:59:38Z</time>
      </trkpt>
      <trkpt lat="43.57228" lon="3.3341">
        <ele>352.5</ele>
        <time>2016-02-14T13:59:39Z</time>
      </trkpt>
      <trkpt lat="43.57227" lon="3.33417">
        <ele>352.5</ele>
        <time>2016-02-14T13:59:40Z</time>
      </trkpt>
      <trkpt lat="43.57227" lon="3.33422">
        <ele>352.5</ele>
        <time>2016-02-14T13:59:41Z</time>
      </trkpt>
      <trkpt lat="43.57224" lon="3.33427">
        <ele>352.5</ele>
        <time>2016-02-14T13:59:42Z</time>
      </trkpt>
      <trkpt lat="43.57225" lon="3.33433">
        <ele>351</ele>
        <time>2016-02-14T13:59:43Z</time>
      </trkpt>
      <trkpt lat="43.57224" lon="3.33437">
        <ele>352.5</ele>
        <time>2016-02-14T13:59:44Z</time>
      </trkpt>
      <trkpt lat="43.57224" lon="3.33441">
        <ele>351</ele>
        <time>2016-02-14T13:59:45Z</time>
      </trkpt>
      <trkpt lat="43.57223" lon="3.33445">
        <ele>351</ele>
        <time>2016-02-14T13:59:46Z</time>
      </trkpt>
      <trkpt lat="43.57222" lon="3.33448">
        <ele>351</ele>
        <time>2016-02-14T13:59:47Z</time>
      </trkpt>
      <trkpt lat="43.57221" lon="3.33452">
        <ele>350.5</ele>
        <time>2016-02-14T13:59:48Z</time>
      </trkpt>
      <trkpt lat="43.5722" lon="3.33456">
        <ele>350.5</ele>
        <time>2016-02-14T13:59:49Z</time>
      </trkpt>
      <trkpt lat="43.57222" lon="3.33461">
        <ele>350</ele>
        <time>2016-02-14T13:59:50Z</time>
      </trkpt>
      <trkpt lat="43.57222" lon="3.33469">
        <ele>349.5</ele>
        <time>2016-02-14T13:59:51Z</time>
      </trkpt>
      <trkpt lat="43.57222" lon="3.33477">
        <ele>348.5</ele>
        <time>2016-02-14T13:59:52Z</time>
      </trkpt>
      <trkpt lat="43.57221" lon="3.33484">
        <ele>348.5</ele>
        <time>2016-02-14T13:59:53Z</time>
      </trkpt>
      <trkpt lat="43.57221" lon="3.33493">
        <ele>348</ele>
        <time>2016-02-14T13:59:54Z</time>
      </trkpt>
      <trkpt lat="43.57222" lon="3.335">
        <ele>348</ele>
        <time>2016-02-14T13:59:55Z</time>
      </trkpt>
      <trkpt lat="43.57221" lon="3.33506">
        <ele>348</ele>
        <time>2016-02-14T13:59:56Z</time>
      </trkpt>
      <trkpt lat="43.57221" lon="3.33511">
        <ele>347.5</ele>
        <time>2016-02-14T13:59:57Z</time>
      </trkpt>
      <trkpt lat="43.5722" lon="3.33514">
        <ele>348</ele>
        <time>2016-02-14T13:59:58Z</time>
      </trkpt>
      <trkpt lat="43.5722" lon="3.33518">
        <ele>348</ele>
        <time>2016-02-14T13:59:59Z</time>
      </trkpt>
      <trkpt lat="43.57219" lon="3.33522">
        <ele>348</ele>
        <time>2016-02-14T14:00:00Z</time>
      </trkpt>
      <trkpt lat="43.57219" lon="3.33525">
        <ele>348.5</ele>
        <time>2016-02-14T14:00:01Z</time>
      </trkpt>
      <trkpt lat="43.57219" lon="3.33528">
        <ele>348.5</ele>
        <time>2016-02-14T14:00:02Z</time>
      </trkpt>
      <trkpt lat="43.57218" lon="3.33527">
        <ele>348.5</ele>
        <time>2016-02-14T14:00:03Z</time>
      </trkpt>
      <trkpt lat="43.57218" lon="3.33528">
        <ele>348.5</ele>
        <time>2016-02-14T14:00:04Z</time>
      </trkpt>
      <trkpt lat="43.57218" lon="3.33531">
        <ele>348.5</ele>
        <time>2016-02-14T14:00:05Z</time>
      </trkpt>
      <trkpt lat="43.57218" lon="3.33533">
        <ele>348.5</ele>
        <time>2016-02-14T14:00:06Z</time>
      </trkpt>
      <trkpt lat="43.57217" lon="3.33536">
        <ele>348</ele>
        <time>2016-02-14T14:00:07Z</time>
      </trkpt>
      <trkpt lat="43.57217" lon="3.33539">
        <ele>347</ele>
        <time>2016-02-14T14:00:08Z</time>
      </trkpt>
      <trkpt lat="43.57216" lon="3.33542">
        <ele>347</ele>
        <time>2016-02-14T14:00:09Z</time>
      </trkpt>
      <trkpt lat="43.57216" lon="3.33545">
        <ele>346.5</ele>
        <time>2016-02-14T14:00:10Z</time>
      </trkpt>
      <trkpt lat="43.57215" lon="3.33547">
        <ele>346.5</ele>
        <time>2016-02-14T14:00:11Z</time>
      </trkpt>
      <trkpt lat="43.57215" lon="3.3355">
        <ele>346</ele>
        <time>2016-02-14T14:00:12Z</time>
      </trkpt>
      <trkpt lat="43.57215" lon="3.33552">
        <ele>346.5</ele>
        <time>2016-02-14T14:00:13Z</time>
      </trkpt>
      <trkpt lat="43.57214" lon="3.33555">
        <ele>346</ele>
        <time>2016-02-14T14:00:14Z</time>
      </trkpt>
      <trkpt lat="43.57214" lon="3.33557">
        <ele>345</ele>
        <time>2016-02-14T14:00:15Z</time>
      </trkpt>
      <trkpt lat="43.57214" lon="3.33559">
        <ele>344.5</ele>
        <time>2016-02-14T14:00:16Z</time>
      </trkpt>
      <trkpt lat="43.57214" lon="3.33562">
        <ele>343.5</ele>
        <time>2016-02-14T14:00:17Z</time>
      </trkpt>
      <trkpt lat="43.57213" lon="3.33564">
        <ele>342.5</ele>
        <time>2016-02-14T14:00:18Z</time>
      </trkpt>
      <trkpt lat="43.57213" lon="3.33566">
        <ele>343</ele>
        <time>2016-02-14T14:00:19Z</time>
      </trkpt>
      <trkpt lat="43.57213" lon="3.33569">
        <ele>342</ele>
        <time>2016-02-14T14:00:20Z</time>
      </trkpt>
      <trkpt lat="43.57213" lon="3.33571">
        <ele>342.5</ele>
        <time>2016-02-14T14:00:21Z</time>
      </trkpt>
      <trkpt lat="43.57213" lon="3.33573">
        <ele>342.5</ele>
        <time>2016-02-14T14:00:22Z</time>
      </trkpt>
      <trkpt lat="43.57213" lon="3.33576">
        <ele>343</ele>
        <time>2016-02-14T14:00:23Z</time>
      </trkpt>
      <trkpt lat="43.57214" lon="3.3358">
        <ele>340.5</ele>
        <time>2016-02-14T14:00:23Z</time>
      </trkpt>
      <trkpt lat="43.57215" lon="3.33582">
        <ele>340.5</ele>
        <time>2016-02-14T14:00:24Z</time>
      </trkpt>
      <trkpt lat="43.57215" lon="3.33585">
        <ele>339</ele>
        <time>2016-02-14T14:00:25Z</time>
      </trkpt>
      <trkpt lat="43.57216" lon="3.33587">
        <ele>339.5</ele>
        <time>2016-02-14T14:00:26Z</time>
      </trkpt>
      <trkpt lat="43.57216" lon="3.33589">
        <ele>339</ele>
        <time>2016-02-14T14:00:27Z</time>
      </trkpt>
      <trkpt lat="43.57217" lon="3.33591">
        <ele>338</ele>
        <time>2016-02-14T14:00:28Z</time>
      </trkpt>
      <trkpt lat="43.57218" lon="3.33594">
        <ele>336.5</ele>
        <time>2016-02-14T14:00:29Z</time>
      </trkpt>
      <trkpt lat="43.57219" lon="3.33598">
        <ele>331</ele>
        <time>2016-02-14T14:00:30Z</time>
      </trkpt>
      <trkpt lat="43.5722" lon="3.336">
        <ele>330.5</ele>
        <time>2016-02-14T14:00:31Z</time>
      </trkpt>
      <trkpt lat="43.5722" lon="3.33603">
        <ele>329</ele>
        <time>2016-02-14T14:00:32Z</time>
      </trkpt>
      <trkpt lat="43.57221" lon="3.33604">
        <ele>327.5</ele>
        <time>2016-02-14T14:00:33Z</time>
      </trkpt>
      <trkpt lat="43.57222" lon="3.33605">
        <ele>327.5</ele>
        <time>2016-02-14T14:00:34Z</time>
      </trkpt>
      <trkpt lat="43.57223" lon="3.33607">
        <ele>327</ele>
        <time>2016-02-14T14:00:35Z</time>
      </trkpt>
      <trkpt lat="43.57224" lon="3.33611">
        <ele>323.5</ele>
        <time>2016-02-14T14:00:36Z</time>
      </trkpt>
      <trkpt lat="43.57225" lon="3.33613">
        <ele>323.5</ele>
        <time>2016-02-14T14:00:38Z</time>
      </trkpt>
      <trkpt lat="43.57226" lon="3.33615">
        <ele>323.5</ele>
        <time>2016-02-14T14:00:38Z</time>
      </trkpt>
      <trkpt lat="43.57227" lon="3.33617">
        <ele>323.5</ele>
        <time>2016-02-14T14:00:39Z</time>
      </trkpt>
      <trkpt lat="43.57228" lon="3.33619">
        <ele>323.5</ele>
        <time>2016-02-14T14:00:40Z</time>
      </trkpt>
      <trkpt lat="43.57229" lon="3.33621">
        <ele>323</ele>
        <time>2016-02-14T14:00:41Z</time>
      </trkpt>
      <trkpt lat="43.5723" lon="3.33623">
        <ele>322.5</ele>
        <time>2016-02-14T14:00:42Z</time>
      </trkpt>
      <trkpt lat="43.57231" lon="3.33625">
        <ele>321.5</ele>
        <time>2016-02-14T14:00:43Z</time>
      </trkpt>
      <trkpt lat="43.57232" lon="3.33627">
        <ele>321.5</ele>
        <time>2016-02-14T14:00:45Z</time>
      </trkpt>
      <trkpt lat="43.57234" lon="3.33629">
        <ele>321.5</ele>
        <time>2016-02-14T14:00:46Z</time>
      </trkpt>
      <trkpt lat="43.57236" lon="3.33631">
        <ele>321</ele>
        <time>2016-02-14T14:00:47Z</time>
      </trkpt>
      <trkpt lat="43.57238" lon="3.33633">
        <ele>320.5</ele>
        <time>2016-02-14T14:00:49Z</time>
      </trkpt>
      <trkpt lat="43.57239" lon="3.33636">
        <ele>319</ele>
        <time>2016-02-14T14:00:49Z</time>
      </trkpt>
      <trkpt lat="43.57241" lon="3.33637">
        <ele>319</ele>
        <time>2016-02-14T14:00:51Z</time>
      </trkpt>
      <trkpt lat="43.57242" lon="3.33639">
        <ele>318</ele>
        <time>2016-02-14T14:00:51Z</time>
      </trkpt>
      <trkpt lat="43.57243" lon="3.3364">
        <ele>318</ele>
        <time>2016-02-14T14:00:52Z</time>
      </trkpt>
      <trkpt lat="43.57245" lon="3.33641">
        <ele>318.5</ele>
        <time>2016-02-14T14:00:53Z</time>
      </trkpt>
      <trkpt lat="43.57246" lon="3.33641">
        <ele>318.5</ele>
        <time>2016-02-14T14:00:54Z</time>
      </trkpt>
      <trkpt lat="43.57248" lon="3.33642">
        <ele>318.5</ele>
        <time>2016-02-14T14:00:55Z</time>
      </trkpt>
      <trkpt lat="43.5725" lon="3.33643">
        <ele>318</ele>
        <time>2016-02-14T14:00:56Z</time>
      </trkpt>
      <trkpt lat="43.57251" lon="3.33644">
        <ele>317.5</ele>
        <time>2016-02-14T14:00:57Z</time>
      </trkpt>
      <trkpt lat="43.57252" lon="3.33644">
        <ele>317.5</ele>
        <time>2016-02-14T14:00:58Z</time>
      </trkpt>
      <trkpt lat="43.57254" lon="3.33645">
        <ele>317</ele>
        <time>2016-02-14T14:00:59Z</time>
      </trkpt>
      <trkpt lat="43.57256" lon="3.33646">
        <ele>317</ele>
        <time>2016-02-14T14:01:00Z</time>
      </trkpt>
      <trkpt lat="43.57258" lon="3.33646">
        <ele>316.5</ele>
        <time>2016-02-14T14:01:01Z</time>
      </trkpt>
      <trkpt lat="43.5726" lon="3.33647">
        <ele>316</ele>
        <time>2016-02-14T14:01:02Z</time>
      </trkpt>
      <trkpt lat="43.57262" lon="3.33648">
        <ele>315.5</ele>
        <time>2016-02-14T14:01:03Z</time>
      </trkpt>
      <trkpt lat="43.57263" lon="3.33648">
        <ele>315.5</ele>
        <time>2016-02-14T14:01:04Z</time>
      </trkpt>
      <trkpt lat="43.57265" lon="3.33648">
        <ele>315</ele>
        <time>2016-02-14T14:01:05Z</time>
      </trkpt>
      <trkpt lat="43.57267" lon="3.33649">
        <ele>314.5</ele>
        <time>2016-02-14T14:01:06Z</time>
      </trkpt>
      <trkpt lat="43.57268" lon="3.33648">
        <ele>314.5</ele>
        <time>2016-02-14T14:01:07Z</time>
      </trkpt>
      <trkpt lat="43.5727" lon="3.33648">
        <ele>314.5</ele>
        <time>2016-02-14T14:01:08Z</time>
      </trkpt>
      <trkpt lat="43.57272" lon="3.33648">
        <ele>314.5</ele>
        <time>2016-02-14T14:01:09Z</time>
      </trkpt>
      <trkpt lat="43.57274" lon="3.33648">
        <ele>314.5</ele>
        <time>2016-02-14T14:01:10Z</time>
      </trkpt>
      <trkpt lat="43.57275" lon="3.33648">
        <ele>314</ele>
        <time>2016-02-14T14:01:12Z</time>
      </trkpt>
      <trkpt lat="43.57277" lon="3.33648">
        <ele>314.5</ele>
        <time>2016-02-14T14:01:12Z</time>
      </trkpt>
      <trkpt lat="43.57279" lon="3.33648">
        <ele>314</ele>
        <time>2016-02-14T14:01:13Z</time>
      </trkpt>
      <trkpt lat="43.5728" lon="3.33647">
        <ele>314</ele>
        <time>2016-02-14T14:01:14Z</time>
      </trkpt>
      <trkpt lat="43.57282" lon="3.33646">
        <ele>314.5</ele>
        <time>2016-02-14T14:01:15Z</time>
      </trkpt>
      <trkpt lat="43.57284" lon="3.33645">
        <ele>314.5</ele>
        <time>2016-02-14T14:01:16Z</time>
      </trkpt>
      <trkpt lat="43.57285" lon="3.33645">
        <ele>313.5</ele>
        <time>2016-02-14T14:01:17Z</time>
      </trkpt>
      <trkpt lat="43.57287" lon="3.33645">
        <ele>312.5</ele>
        <time>2016-02-14T14:01:18Z</time>
      </trkpt>
      <trkpt lat="43.57289" lon="3.33646">
        <ele>312.5</ele>
        <time>2016-02-14T14:01:19Z</time>
      </trkpt>
      <trkpt lat="43.57291" lon="3.33646">
        <ele>312.5</ele>
        <time>2016-02-14T14:01:20Z</time>
      </trkpt>
      <trkpt lat="43.57293" lon="3.33645">
        <ele>312</ele>
        <time>2016-02-14T14:01:21Z</time>
      </trkpt>
      <trkpt lat="43.57295" lon="3.33645">
        <ele>310.5</ele>
        <time>2016-02-14T14:01:22Z</time>
      </trkpt>
      <trkpt lat="43.57298" lon="3.33645">
        <ele>310</ele>
        <time>2016-02-14T14:01:23Z</time>
      </trkpt>
      <trkpt lat="43.573" lon="3.33644">
        <ele>309.5</ele>
        <time>2016-02-14T14:01:24Z</time>
      </trkpt>
      <trkpt lat="43.57302" lon="3.33643">
        <ele>310</ele>
        <time>2016-02-14T14:01:25Z</time>
      </trkpt>
      <trkpt lat="43.57305" lon="3.33642">
        <ele>310</ele>
        <time>2016-02-14T14:01:26Z</time>
      </trkpt>
      <trkpt lat="43.57307" lon="3.33641">
        <ele>311</ele>
        <time>2016-02-14T14:01:27Z</time>
      </trkpt>
      <trkpt lat="43.5731" lon="3.33641">
        <ele>312</ele>
        <time>2016-02-14T14:01:28Z</time>
      </trkpt>
      <trkpt lat="43.57312" lon="3.3364">
        <ele>312</ele>
        <time>2016-02-14T14:01:29Z</time>
      </trkpt>
      <trkpt lat="43.57314" lon="3.33639">
        <ele>311.5</ele>
        <time>2016-02-14T14:01:30Z</time>
      </trkpt>
      <trkpt lat="43.57316" lon="3.3364">
        <ele>311.5</ele>
        <time>2016-02-14T14:01:31Z</time>
      </trkpt>
      <trkpt lat="43.57319" lon="3.3364">
        <ele>312.5</ele>
        <time>2016-02-14T14:01:32Z</time>
      </trkpt>
      <trkpt lat="43.57321" lon="3.33639">
        <ele>313</ele>
        <time>2016-02-14T14:01:33Z</time>
      </trkpt>
      <trkpt lat="43.57323" lon="3.33638">
        <ele>313</ele>
        <time>2016-02-14T14:01:34Z</time>
      </trkpt>
      <trkpt lat="43.57325" lon="3.33637">
        <ele>313.5</ele>
        <time>2016-02-14T14:01:35Z</time>
      </trkpt>
      <trkpt lat="43.57328" lon="3.33636">
        <ele>313.5</ele>
        <time>2016-02-14T14:01:36Z</time>
      </trkpt>
      <trkpt lat="43.5733" lon="3.33635">
        <ele>314</ele>
        <time>2016-02-14T14:01:37Z</time>
      </trkpt>
      <trkpt lat="43.57333" lon="3.33634">
        <ele>314.5</ele>
        <time>2016-02-14T14:01:38Z</time>
      </trkpt>
      <trkpt lat="43.57336" lon="3.33634">
        <ele>314</ele>
        <time>2016-02-14T14:01:39Z</time>
      </trkpt>
      <trkpt lat="43.57338" lon="3.33633">
        <ele>314</ele>
        <time>2016-02-14T14:01:40Z</time>
      </trkpt>
      <trkpt lat="43.57341" lon="3.33633">
        <ele>314</ele>
        <time>2016-02-14T14:01:41Z</time>
      </trkpt>
      <trkpt lat="43.57344" lon="3.33632">
        <ele>314.5</ele>
        <time>2016-02-14T14:01:42Z</time>
      </trkpt>
      <trkpt lat="43.57346" lon="3.33632">
        <ele>314.5</ele>
        <time>2016-02-14T14:01:43Z</time>
      </trkpt>
      <trkpt lat="43.57349" lon="3.33631">
        <ele>314</ele>
        <time>2016-02-14T14:01:44Z</time>
      </trkpt>
      <trkpt lat="43.57352" lon="3.33631">
        <ele>315</ele>
        <time>2016-02-14T14:01:45Z</time>
      </trkpt>
      <trkpt lat="43.57355" lon="3.3363">
        <ele>315.5</ele>
        <time>2016-02-14T14:01:46Z</time>
      </trkpt>
      <trkpt lat="43.57358" lon="3.33629">
        <ele>316</ele>
        <time>2016-02-14T14:01:47Z</time>
      </trkpt>
      <trkpt lat="43.57361" lon="3.33629">
        <ele>317</ele>
        <time>2016-02-14T14:01:48Z</time>
      </trkpt>
      <trkpt lat="43.57363" lon="3.33628">
        <ele>316.5</ele>
        <time>2016-02-14T14:01:49Z</time>
      </trkpt>
      <trkpt lat="43.57366" lon="3.33626">
        <ele>317</ele>
        <time>2016-02-14T14:01:50Z</time>
      </trkpt>
      <trkpt lat="43.57369" lon="3.33625">
        <ele>319</ele>
        <time>2016-02-14T14:01:51Z</time>
      </trkpt>
      <trkpt lat="43.57373" lon="3.33622">
        <ele>319</ele>
        <time>2016-02-14T14:01:52Z</time>
      </trkpt>
      <trkpt lat="43.57376" lon="3.33621">
        <ele>319</ele>
        <time>2016-02-14T14:01:53Z</time>
      </trkpt>
      <trkpt lat="43.57379" lon="3.33619">
        <ele>318</ele>
        <time>2016-02-14T14:01:54Z</time>
      </trkpt>
      <trkpt lat="43.57383" lon="3.33616">
        <ele>317.5</ele>
        <time>2016-02-14T14:01:55Z</time>
      </trkpt>
      <trkpt lat="43.57386" lon="3.33611">
        <ele>317.5</ele>
        <time>2016-02-14T14:01:56Z</time>
      </trkpt>
      <trkpt lat="43.57389" lon="3.33607">
        <ele>315.5</ele>
        <time>2016-02-14T14:01:57Z</time>
      </trkpt>
      <trkpt lat="43.57392" lon="3.33603">
        <ele>315.5</ele>
        <time>2016-02-14T14:01:58Z</time>
      </trkpt>
      <trkpt lat="43.57395" lon="3.33598">
        <ele>313.5</ele>
        <time>2016-02-14T14:01:59Z</time>
      </trkpt>
      <trkpt lat="43.57398" lon="3.33592">
        <ele>312.5</ele>
        <time>2016-02-14T14:02:00Z</time>
      </trkpt>
      <trkpt lat="43.57402" lon="3.33586">
        <ele>311</ele>
        <time>2016-02-14T14:02:01Z</time>
      </trkpt>
      <trkpt lat="43.57406" lon="3.33579">
        <ele>310.5</ele>
        <time>2016-02-14T14:02:02Z</time>
      </trkpt>
      <trkpt lat="43.57409" lon="3.33572">
        <ele>310</ele>
        <time>2016-02-14T14:02:03Z</time>
      </trkpt>
      <trkpt lat="43.57413" lon="3.33564">
        <ele>308.5</ele>
        <time>2016-02-14T14:02:04Z</time>
      </trkpt>
      <trkpt lat="43.57417" lon="3.33558">
        <ele>308</ele>
        <time>2016-02-14T14:02:05Z</time>
      </trkpt>
      <trkpt lat="43.57421" lon="3.33551">
        <ele>307.5</ele>
        <time>2016-02-14T14:02:06Z</time>
      </trkpt>
      <trkpt lat="43.57426" lon="3.33545">
        <ele>307.5</ele>
        <time>2016-02-14T14:02:07Z</time>
      </trkpt>
      <trkpt lat="43.5743" lon="3.33539">
        <ele>308.5</ele>
        <time>2016-02-14T14:02:08Z</time>
      </trkpt>
      <trkpt lat="43.57436" lon="3.33535">
        <ele>308.5</ele>
        <time>2016-02-14T14:02:09Z</time>
      </trkpt>
      <trkpt lat="43.57441" lon="3.33531">
        <ele>308.5</ele>
        <time>2016-02-14T14:02:10Z</time>
      </trkpt>
      <trkpt lat="43.57446" lon="3.33528">
        <ele>307.5</ele>
        <time>2016-02-14T14:02:11Z</time>
      </trkpt>
      <trkpt lat="43.57451" lon="3.33524">
        <ele>307.5</ele>
        <time>2016-02-14T14:02:12Z</time>
      </trkpt>
      <trkpt lat="43.57456" lon="3.33521">
        <ele>308</ele>
        <time>2016-02-14T14:02:13Z</time>
      </trkpt>
      <trkpt lat="43.57461" lon="3.33518">
        <ele>308</ele>
        <time>2016-02-14T14:02:14Z</time>
      </trkpt>
      <trkpt lat="43.57466" lon="3.33515">
        <ele>307.5</ele>
        <time>2016-02-14T14:02:15Z</time>
      </trkpt>
      <trkpt lat="43.57471" lon="3.33513">
        <ele>308</ele>
        <time>2016-02-14T14:02:16Z</time>
      </trkpt>
      <trkpt lat="43.57479" lon="3.33509">
        <ele>310</ele>
        <time>2016-02-14T14:02:18Z</time>
      </trkpt>
      <trkpt lat="43.57484" lon="3.33507">
        <ele>311</ele>
        <time>2016-02-14T14:02:19Z</time>
      </trkpt>
      <trkpt lat="43.57489" lon="3.33505">
        <ele>311</ele>
        <time>2016-02-14T14:02:20Z</time>
      </trkpt>
      <trkpt lat="43.57495" lon="3.33503">
        <ele>311.5</ele>
        <time>2016-02-14T14:02:21Z</time>
      </trkpt>
      <trkpt lat="43.575" lon="3.33502">
        <ele>313.5</ele>
        <time>2016-02-14T14:02:22Z</time>
      </trkpt>
      <trkpt lat="43.57507" lon="3.33501">
        <ele>313.5</ele>
        <time>2016-02-14T14:02:23Z</time>
      </trkpt>
      <trkpt lat="43.57513" lon="3.33499">
        <ele>315.5</ele>
        <time>2016-02-14T14:02:24Z</time>
      </trkpt>
      <trkpt lat="43.57519" lon="3.33497">
        <ele>317.5</ele>
        <time>2016-02-14T14:02:25Z</time>
      </trkpt>
      <trkpt lat="43.57526" lon="3.33494">
        <ele>317.5</ele>
        <time>2016-02-14T14:02:26Z</time>
      </trkpt>
      <trkpt lat="43.57532" lon="3.3349">
        <ele>317</ele>
        <time>2016-02-14T14:02:27Z</time>
      </trkpt>
      <trkpt lat="43.57539" lon="3.33487">
        <ele>317</ele>
        <time>2016-02-14T14:02:28Z</time>
      </trkpt>
      <trkpt lat="43.57545" lon="3.33483">
        <ele>316</ele>
        <time>2016-02-14T14:02:29Z</time>
      </trkpt>
      <trkpt lat="43.57551" lon="3.33478">
        <ele>315.5</ele>
        <time>2016-02-14T14:02:30Z</time>
      </trkpt>
      <trkpt lat="43.57557" lon="3.33473">
        <ele>315.5</ele>
        <time>2016-02-14T14:02:31Z</time>
      </trkpt>
      <trkpt lat="43.57562" lon="3.33469">
        <ele>316.5</ele>
        <time>2016-02-14T14:02:32Z</time>
      </trkpt>
      <trkpt lat="43.57567" lon="3.33464">
        <ele>315.5</ele>
        <time>2016-02-14T14:02:33Z</time>
      </trkpt>
      <trkpt lat="43.57571" lon="3.3346">
        <ele>315.5</ele>
        <time>2016-02-14T14:02:34Z</time>
      </trkpt>
      <trkpt lat="43.57576" lon="3.33455">
        <ele>314.5</ele>
        <time>2016-02-14T14:02:35Z</time>
      </trkpt>
      <trkpt lat="43.5758" lon="3.3345">
        <ele>314</ele>
        <time>2016-02-14T14:02:36Z</time>
      </trkpt>
      <trkpt lat="43.57584" lon="3.33446">
        <ele>313.5</ele>
        <time>2016-02-14T14:02:37Z</time>
      </trkpt>
      <trkpt lat="43.57588" lon="3.33446">
        <ele>313.5</ele>
        <time>2016-02-14T14:02:38Z</time>
      </trkpt>
      <trkpt lat="43.57592" lon="3.33444">
        <ele>313.5</ele>
        <time>2016-02-14T14:02:39Z</time>
      </trkpt>
      <trkpt lat="43.57595" lon="3.33442">
        <ele>313</ele>
        <time>2016-02-14T14:02:40Z</time>
      </trkpt>
      <trkpt lat="43.57598" lon="3.33447">
        <ele>313.5</ele>
        <time>2016-02-14T14:02:41Z</time>
      </trkpt>
      <trkpt lat="43.57603" lon="3.33446">
        <ele>313</ele>
        <time>2016-02-14T14:02:43Z</time>
      </trkpt>
      <trkpt lat="43.57605" lon="3.33447">
        <ele>313</ele>
        <time>2016-02-14T14:02:44Z</time>
      </trkpt>
      <trkpt lat="43.57607" lon="3.33448">
        <ele>313.5</ele>
        <time>2016-02-14T14:02:45Z</time>
      </trkpt>
      <trkpt lat="43.5761" lon="3.33449">
        <ele>313.5</ele>
        <time>2016-02-14T14:02:46Z</time>
      </trkpt>
      <trkpt lat="43.57612" lon="3.3345">
        <ele>313.5</ele>
        <time>2016-02-14T14:02:47Z</time>
      </trkpt>
      <trkpt lat="43.57614" lon="3.33452">
        <ele>313.5</ele>
        <time>2016-02-14T14:02:48Z</time>
      </trkpt>
      <trkpt lat="43.57617" lon="3.33451">
        <ele>313</ele>
        <time>2016-02-14T14:02:49Z</time>
      </trkpt>
      <trkpt lat="43.57617" lon="3.33456">
        <ele>313</ele>
        <time>2016-02-14T14:02:50Z</time>
      </trkpt>
      <trkpt lat="43.5762" lon="3.33459">
        <ele>312.5</ele>
        <time>2016-02-14T14:02:52Z</time>
      </trkpt>
      <trkpt lat="43.57622" lon="3.33462">
        <ele>312.5</ele>
        <time>2016-02-14T14:02:53Z</time>
      </trkpt>
      <trkpt lat="43.57623" lon="3.33464">
        <ele>312.5</ele>
        <time>2016-02-14T14:02:54Z</time>
      </trkpt>
      <trkpt lat="43.57626" lon="3.33466">
        <ele>312.5</ele>
        <time>2016-02-14T14:02:55Z</time>
      </trkpt>
      <trkpt lat="43.57628" lon="3.33469">
        <ele>312.5</ele>
        <time>2016-02-14T14:02:56Z</time>
      </trkpt>
      <trkpt lat="43.57629" lon="3.33472">
        <ele>312.5</ele>
        <time>2016-02-14T14:02:57Z</time>
      </trkpt>
      <trkpt lat="43.57631" lon="3.33477">
        <ele>311.5</ele>
        <time>2016-02-14T14:02:59Z</time>
      </trkpt>
      <trkpt lat="43.57632" lon="3.3348">
        <ele>312</ele>
        <time>2016-02-14T14:03:00Z</time>
      </trkpt>
      <trkpt lat="43.57633" lon="3.33483">
        <ele>311</ele>
        <time>2016-02-14T14:03:01Z</time>
      </trkpt>
      <trkpt lat="43.57635" lon="3.33486">
        <ele>310.5</ele>
        <time>2016-02-14T14:03:02Z</time>
      </trkpt>
      <trkpt lat="43.57636" lon="3.33489">
        <ele>310.5</ele>
        <time>2016-02-14T14:03:03Z</time>
      </trkpt>
      <trkpt lat="43.57637" lon="3.33491">
        <ele>310.5</ele>
        <time>2016-02-14T14:03:04Z</time>
      </trkpt>
      <trkpt lat="43.57638" lon="3.33493">
        <ele>308.5</ele>
        <time>2016-02-14T14:03:05Z</time>
      </trkpt>
      <trkpt lat="43.57639" lon="3.33495">
        <ele>307.5</ele>
        <time>2016-02-14T14:03:06Z</time>
      </trkpt>
      <trkpt lat="43.5764" lon="3.33497">
        <ele>306</ele>
        <time>2016-02-14T14:03:07Z</time>
      </trkpt>
      <trkpt lat="43.57641" lon="3.335">
        <ele>305.5</ele>
        <time>2016-02-14T14:03:08Z</time>
      </trkpt>
      <trkpt lat="43.57643" lon="3.33502">
        <ele>305.5</ele>
        <time>2016-02-14T14:03:09Z</time>
      </trkpt>
      <trkpt lat="43.57644" lon="3.33504">
        <ele>305.5</ele>
        <time>2016-02-14T14:03:10Z</time>
      </trkpt>
      <trkpt lat="43.57645" lon="3.33507">
        <ele>305.5</ele>
        <time>2016-02-14T14:03:11Z</time>
      </trkpt>
      <trkpt lat="43.57647" lon="3.33509">
        <ele>305.5</ele>
        <time>2016-02-14T14:03:12Z</time>
      </trkpt>
      <trkpt lat="43.57648" lon="3.33512">
        <ele>305.5</ele>
        <time>2016-02-14T14:03:13Z</time>
      </trkpt>
      <trkpt lat="43.57649" lon="3.33514">
        <ele>304.5</ele>
        <time>2016-02-14T14:03:14Z</time>
      </trkpt>
      <trkpt lat="43.5765" lon="3.33516">
        <ele>304</ele>
        <time>2016-02-14T14:03:15Z</time>
      </trkpt>
      <trkpt lat="43.57652" lon="3.33518">
        <ele>303.5</ele>
        <time>2016-02-14T14:03:16Z</time>
      </trkpt>
      <trkpt lat="43.57654" lon="3.3352">
        <ele>303.5</ele>
        <time>2016-02-14T14:03:17Z</time>
      </trkpt>
      <trkpt lat="43.57656" lon="3.3352">
        <ele>303.5</ele>
        <time>2016-02-14T14:03:18Z</time>
      </trkpt>
      <trkpt lat="43.57659" lon="3.33521">
        <ele>303.5</ele>
        <time>2016-02-14T14:03:19Z</time>
      </trkpt>
      <trkpt lat="43.57661" lon="3.33521">
        <ele>303.5</ele>
        <time>2016-02-14T14:03:20Z</time>
      </trkpt>
      <trkpt lat="43.57664" lon="3.33521">
        <ele>303.5</ele>
        <time>2016-02-14T14:03:21Z</time>
      </trkpt>
      <trkpt lat="43.57667" lon="3.33521">
        <ele>303</ele>
        <time>2016-02-14T14:03:22Z</time>
      </trkpt>
      <trkpt lat="43.57669" lon="3.33521">
        <ele>303.5</ele>
        <time>2016-02-14T14:03:23Z</time>
      </trkpt>
      <trkpt lat="43.57672" lon="3.3352">
        <ele>303</ele>
        <time>2016-02-14T14:03:24Z</time>
      </trkpt>
      <trkpt lat="43.57674" lon="3.33519">
        <ele>302.5</ele>
        <time>2016-02-14T14:03:25Z</time>
      </trkpt>
      <trkpt lat="43.57677" lon="3.33517">
        <ele>302</ele>
        <time>2016-02-14T14:03:26Z</time>
      </trkpt>
      <trkpt lat="43.57679" lon="3.33516">
        <ele>301.5</ele>
        <time>2016-02-14T14:03:27Z</time>
      </trkpt>
      <trkpt lat="43.57681" lon="3.33513">
        <ele>303</ele>
        <time>2016-02-14T14:03:28Z</time>
      </trkpt>
      <trkpt lat="43.57684" lon="3.3351">
        <ele>304</ele>
        <time>2016-02-14T14:03:29Z</time>
      </trkpt>
      <trkpt lat="43.57686" lon="3.33508">
        <ele>304.5</ele>
        <time>2016-02-14T14:03:30Z</time>
      </trkpt>
      <trkpt lat="43.57689" lon="3.33507">
        <ele>303.5</ele>
        <time>2016-02-14T14:03:31Z</time>
      </trkpt>
      <trkpt lat="43.57691" lon="3.33504">
        <ele>304.5</ele>
        <time>2016-02-14T14:03:32Z</time>
      </trkpt>
      <trkpt lat="43.57693" lon="3.33502">
        <ele>305</ele>
        <time>2016-02-14T14:03:33Z</time>
      </trkpt>
      <trkpt lat="43.57695" lon="3.335">
        <ele>304</ele>
        <time>2016-02-14T14:03:34Z</time>
      </trkpt>
      <trkpt lat="43.57698" lon="3.33497">
        <ele>303.5</ele>
        <time>2016-02-14T14:03:35Z</time>
      </trkpt>
      <trkpt lat="43.577" lon="3.33493">
        <ele>303.5</ele>
        <time>2016-02-14T14:03:36Z</time>
      </trkpt>
      <trkpt lat="43.57702" lon="3.3349">
        <ele>303</ele>
        <time>2016-02-14T14:03:37Z</time>
      </trkpt>
      <trkpt lat="43.57704" lon="3.33487">
        <ele>303</ele>
        <time>2016-02-14T14:03:38Z</time>
      </trkpt>
      <trkpt lat="43.57707" lon="3.33484">
        <ele>302.5</ele>
        <time>2016-02-14T14:03:39Z</time>
      </trkpt>
      <trkpt lat="43.57709" lon="3.3348">
        <ele>302</ele>
        <time>2016-02-14T14:03:40Z</time>
      </trkpt>
      <trkpt lat="43.57712" lon="3.33477">
        <ele>301.5</ele>
        <time>2016-02-14T14:03:41Z</time>
      </trkpt>
      <trkpt lat="43.57715" lon="3.33474">
        <ele>301</ele>
        <time>2016-02-14T14:03:42Z</time>
      </trkpt>
      <trkpt lat="43.57718" lon="3.3347">
        <ele>300</ele>
        <time>2016-02-14T14:03:43Z</time>
      </trkpt>
      <trkpt lat="43.57722" lon="3.33467">
        <ele>299.5</ele>
        <time>2016-02-14T14:03:44Z</time>
      </trkpt>
      <trkpt lat="43.57725" lon="3.33463">
        <ele>299.5</ele>
        <time>2016-02-14T14:03:45Z</time>
      </trkpt>
      <trkpt lat="43.57729" lon="3.33459">
        <ele>299</ele>
        <time>2016-02-14T14:03:46Z</time>
      </trkpt>
      <trkpt lat="43.57733" lon="3.33456">
        <ele>298</ele>
        <time>2016-02-14T14:03:47Z</time>
      </trkpt>
      <trkpt lat="43.57737" lon="3.33453">
        <ele>297</ele>
        <time>2016-02-14T14:03:48Z</time>
      </trkpt>
      <trkpt lat="43.57741" lon="3.3345">
        <ele>295</ele>
        <time>2016-02-14T14:03:49Z</time>
      </trkpt>
      <trkpt lat="43.57746" lon="3.33446">
        <ele>295</ele>
        <time>2016-02-14T14:03:50Z</time>
      </trkpt>
      <trkpt lat="43.5775" lon="3.33444">
        <ele>294.5</ele>
        <time>2016-02-14T14:03:51Z</time>
      </trkpt>
      <trkpt lat="43.57755" lon="3.33441">
        <ele>295</ele>
        <time>2016-02-14T14:03:52Z</time>
      </trkpt>
      <trkpt lat="43.5776" lon="3.33438">
        <ele>295</ele>
        <time>2016-02-14T14:03:53Z</time>
      </trkpt>
      <trkpt lat="43.57765" lon="3.33436">
        <ele>295.5</ele>
        <time>2016-02-14T14:03:54Z</time>
      </trkpt>
      <trkpt lat="43.5777" lon="3.33433">
        <ele>295.5</ele>
        <time>2016-02-14T14:03:55Z</time>
      </trkpt>
      <trkpt lat="43.57775" lon="3.3343">
        <ele>294.5</ele>
        <time>2016-02-14T14:03:56Z</time>
      </trkpt>
      <trkpt lat="43.5778" lon="3.33428">
        <ele>294.5</ele>
        <time>2016-02-14T14:03:57Z</time>
      </trkpt>
      <trkpt lat="43.57785" lon="3.33426">
        <ele>294</ele>
        <time>2016-02-14T14:03:58Z</time>
      </trkpt>
      <trkpt lat="43.57789" lon="3.33424">
        <ele>295</ele>
        <time>2016-02-14T14:03:59Z</time>
      </trkpt>
      <trkpt lat="43.57794" lon="3.33421">
        <ele>295</ele>
        <time>2016-02-14T14:04:00Z</time>
      </trkpt>
      <trkpt lat="43.57799" lon="3.33418">
        <ele>295</ele>
        <time>2016-02-14T14:04:01Z</time>
      </trkpt>
      <trkpt lat="43.57804" lon="3.33417">
        <ele>296.5</ele>
        <time>2016-02-14T14:04:02Z</time>
      </trkpt>
      <trkpt lat="43.57808" lon="3.33414">
        <ele>296.5</ele>
        <time>2016-02-14T14:04:03Z</time>
      </trkpt>
      <trkpt lat="43.57813" lon="3.33412">
        <ele>296.5</ele>
        <time>2016-02-14T14:04:03Z</time>
      </trkpt>
      <trkpt lat="43.57817" lon="3.33409">
        <ele>296.5</ele>
        <time>2016-02-14T14:04:04Z</time>
      </trkpt>
      <trkpt lat="43.57822" lon="3.33407">
        <ele>295</ele>
        <time>2016-02-14T14:04:06Z</time>
      </trkpt>
      <trkpt lat="43.57826" lon="3.33403">
        <ele>293.5</ele>
        <time>2016-02-14T14:04:06Z</time>
      </trkpt>
      <trkpt lat="43.5783" lon="3.33399">
        <ele>293.5</ele>
        <time>2016-02-14T14:04:07Z</time>
      </trkpt>
      <trkpt lat="43.57834" lon="3.33396">
        <ele>292.5</ele>
        <time>2016-02-14T14:04:08Z</time>
      </trkpt>
      <trkpt lat="43.57838" lon="3.33392">
        <ele>291.5</ele>
        <time>2016-02-14T14:04:09Z</time>
      </trkpt>
      <trkpt lat="43.57842" lon="3.33388">
        <ele>291.5</ele>
        <time>2016-02-14T14:04:10Z</time>
      </trkpt>
      <trkpt lat="43.57846" lon="3.33384">
        <ele>291.5</ele>
        <time>2016-02-14T14:04:12Z</time>
      </trkpt>
      <trkpt lat="43.5785" lon="3.33379">
        <ele>291.5</ele>
        <time>2016-02-14T14:04:12Z</time>
      </trkpt>
      <trkpt lat="43.57853" lon="3.33375">
        <ele>292</ele>
        <time>2016-02-14T14:04:13Z</time>
      </trkpt>
      <trkpt lat="43.57856" lon="3.3337">
        <ele>291</ele>
        <time>2016-02-14T14:04:14Z</time>
      </trkpt>
      <trkpt lat="43.57858" lon="3.33363">
        <ele>292.5</ele>
        <time>2016-02-14T14:04:15Z</time>
      </trkpt>
      <trkpt lat="43.57861" lon="3.33357">
        <ele>292.5</ele>
        <time>2016-02-14T14:04:17Z</time>
      </trkpt>
      <trkpt lat="43.57862" lon="3.33351">
        <ele>292.5</ele>
        <time>2016-02-14T14:04:17Z</time>
      </trkpt>
      <trkpt lat="43.57863" lon="3.33346">
        <ele>292</ele>
        <time>2016-02-14T14:04:18Z</time>
      </trkpt>
      <trkpt lat="43.57864" lon="3.33341">
        <ele>292.5</ele>
        <time>2016-02-14T14:04:20Z</time>
      </trkpt>
      <trkpt lat="43.57866" lon="3.33336">
        <ele>292.5</ele>
        <time>2016-02-14T14:04:20Z</time>
      </trkpt>
      <trkpt lat="43.57868" lon="3.33331">
        <ele>292</ele>
        <time>2016-02-14T14:04:21Z</time>
      </trkpt>
      <trkpt lat="43.57868" lon="3.33327">
        <ele>291.5</ele>
        <time>2016-02-14T14:04:22Z</time>
      </trkpt>
      <trkpt lat="43.57869" lon="3.33323">
        <ele>291.5</ele>
        <time>2016-02-14T14:04:23Z</time>
      </trkpt>
      <trkpt lat="43.57869" lon="3.33319">
        <ele>291.5</ele>
        <time>2016-02-14T14:04:24Z</time>
      </trkpt>
      <trkpt lat="43.57871" lon="3.33315">
        <ele>291.5</ele>
        <time>2016-02-14T14:04:25Z</time>
      </trkpt>
      <trkpt lat="43.57871" lon="3.33313">
        <ele>289.5</ele>
        <time>2016-02-14T14:04:26Z</time>
      </trkpt>
      <trkpt lat="43.57872" lon="3.3331">
        <ele>288.5</ele>
        <time>2016-02-14T14:04:27Z</time>
      </trkpt>
      <trkpt lat="43.57873" lon="3.33306">
        <ele>288.5</ele>
        <time>2016-02-14T14:04:29Z</time>
      </trkpt>
      <trkpt lat="43.57874" lon="3.33303">
        <ele>288.5</ele>
        <time>2016-02-14T14:04:30Z</time>
      </trkpt>
      <trkpt lat="43.57875" lon="3.333">
        <ele>287.5</ele>
        <time>2016-02-14T14:04:30Z</time>
      </trkpt>
      <trkpt lat="43.57877" lon="3.33297">
        <ele>287.5</ele>
        <time>2016-02-14T14:04:31Z</time>
      </trkpt>
      <trkpt lat="43.5788" lon="3.3329">
        <ele>287</ele>
        <time>2016-02-14T14:04:33Z</time>
      </trkpt>
      <trkpt lat="43.57882" lon="3.33288">
        <ele>287</ele>
        <time>2016-02-14T14:04:34Z</time>
      </trkpt>
      <trkpt lat="43.57884" lon="3.33285">
        <ele>288</ele>
        <time>2016-02-14T14:04:35Z</time>
      </trkpt>
      <trkpt lat="43.57885" lon="3.33282">
        <ele>288</ele>
        <time>2016-02-14T14:04:36Z</time>
      </trkpt>
      <trkpt lat="43.57886" lon="3.33279">
        <ele>288.5</ele>
        <time>2016-02-14T14:04:37Z</time>
      </trkpt>
      <trkpt lat="43.57887" lon="3.33277">
        <ele>287.5</ele>
        <time>2016-02-14T14:04:38Z</time>
      </trkpt>
      <trkpt lat="43.57889" lon="3.33274">
        <ele>288</ele>
        <time>2016-02-14T14:04:39Z</time>
      </trkpt>
      <trkpt lat="43.5789" lon="3.33272">
        <ele>287</ele>
        <time>2016-02-14T14:04:40Z</time>
      </trkpt>
      <trkpt lat="43.57892" lon="3.33269">
        <ele>287.5</ele>
        <time>2016-02-14T14:04:41Z</time>
      </trkpt>
      <trkpt lat="43.57893" lon="3.33267">
        <ele>287</ele>
        <time>2016-02-14T14:04:42Z</time>
      </trkpt>
      <trkpt lat="43.57894" lon="3.33265">
        <ele>288.5</ele>
        <time>2016-02-14T14:04:43Z</time>
      </trkpt>
      <trkpt lat="43.57895" lon="3.33262">
        <ele>289.5</ele>
        <time>2016-02-14T14:04:44Z</time>
      </trkpt>
      <trkpt lat="43.57897" lon="3.3326">
        <ele>290.5</ele>
        <time>2016-02-14T14:04:45Z</time>
      </trkpt>
      <trkpt lat="43.57899" lon="3.33258">
        <ele>291</ele>
        <time>2016-02-14T14:04:46Z</time>
      </trkpt>
      <trkpt lat="43.57901" lon="3.33255">
        <ele>292</ele>
        <time>2016-02-14T14:04:47Z</time>
      </trkpt>
      <trkpt lat="43.57903" lon="3.33252">
        <ele>292</ele>
        <time>2016-02-14T14:04:48Z</time>
      </trkpt>
      <trkpt lat="43.57905" lon="3.3325">
        <ele>292</ele>
        <time>2016-02-14T14:04:49Z</time>
      </trkpt>
      <trkpt lat="43.57908" lon="3.33249">
        <ele>292</ele>
        <time>2016-02-14T14:04:50Z</time>
      </trkpt>
      <trkpt lat="43.57911" lon="3.3325">
        <ele>293</ele>
        <time>2016-02-14T14:04:51Z</time>
      </trkpt>
      <trkpt lat="43.57914" lon="3.33251">
        <ele>293.5</ele>
        <time>2016-02-14T14:04:52Z</time>
      </trkpt>
      <trkpt lat="43.57916" lon="3.33253">
        <ele>295</ele>
        <time>2016-02-14T14:04:53Z</time>
      </trkpt>
      <trkpt lat="43.57917" lon="3.33256">
        <ele>296</ele>
        <time>2016-02-14T14:04:54Z</time>
      </trkpt>
      <trkpt lat="43.57917" lon="3.33259">
        <ele>297</ele>
        <time>2016-02-14T14:04:55Z</time>
      </trkpt>
      <trkpt lat="43.57918" lon="3.33261">
        <ele>298.5</ele>
        <time>2016-02-14T14:04:56Z</time>
      </trkpt>
      <trkpt lat="43.57916" lon="3.33264">
        <ele>299.5</ele>
        <time>2016-02-14T14:04:57Z</time>
      </trkpt>
      <trkpt lat="43.57915" lon="3.33267">
        <ele>300</ele>
        <time>2016-02-14T14:04:58Z</time>
      </trkpt>
      <trkpt lat="43.57914" lon="3.33271">
        <ele>300.5</ele>
        <time>2016-02-14T14:04:59Z</time>
      </trkpt>
      <trkpt lat="43.57914" lon="3.33274">
        <ele>300.5</ele>
        <time>2016-02-14T14:05:00Z</time>
      </trkpt>
      <trkpt lat="43.57914" lon="3.33277">
        <ele>302</ele>
        <time>2016-02-14T14:05:01Z</time>
      </trkpt>
      <trkpt lat="43.57914" lon="3.33281">
        <ele>302.5</ele>
        <time>2016-02-14T14:05:02Z</time>
      </trkpt>
      <trkpt lat="43.57914" lon="3.33285">
        <ele>303</ele>
        <time>2016-02-14T14:05:03Z</time>
      </trkpt>
      <trkpt lat="43.57913" lon="3.33288">
        <ele>303</ele>
        <time>2016-02-14T14:05:04Z</time>
      </trkpt>
      <trkpt lat="43.57914" lon="3.33292">
        <ele>303.5</ele>
        <time>2016-02-14T14:05:05Z</time>
      </trkpt>
      <trkpt lat="43.57914" lon="3.33296">
        <ele>304</ele>
        <time>2016-02-14T14:05:06Z</time>
      </trkpt>
      <trkpt lat="43.57913" lon="3.333">
        <ele>304.5</ele>
        <time>2016-02-14T14:05:07Z</time>
      </trkpt>
      <trkpt lat="43.57913" lon="3.33304">
        <ele>305</ele>
        <time>2016-02-14T14:05:08Z</time>
      </trkpt>
      <trkpt lat="43.57913" lon="3.33307">
        <ele>305.5</ele>
        <time>2016-02-14T14:05:09Z</time>
      </trkpt>
      <trkpt lat="43.57913" lon="3.3331">
        <ele>306</ele>
        <time>2016-02-14T14:05:10Z</time>
      </trkpt>
      <trkpt lat="43.57913" lon="3.33314">
        <ele>306.5</ele>
        <time>2016-02-14T14:05:11Z</time>
      </trkpt>
      <trkpt lat="43.57913" lon="3.33318">
        <ele>306.5</ele>
        <time>2016-02-14T14:05:12Z</time>
      </trkpt>
      <trkpt lat="43.57912" lon="3.33322">
        <ele>306.5</ele>
        <time>2016-02-14T14:05:13Z</time>
      </trkpt>
      <trkpt lat="43.57912" lon="3.33326">
        <ele>307</ele>
        <time>2016-02-14T14:05:14Z</time>
      </trkpt>
      <trkpt lat="43.57912" lon="3.33329">
        <ele>307.5</ele>
        <time>2016-02-14T14:05:15Z</time>
      </trkpt>
      <trkpt lat="43.57912" lon="3.33333">
        <ele>307.5</ele>
        <time>2016-02-14T14:05:16Z</time>
      </trkpt>
      <trkpt lat="43.57913" lon="3.33337">
        <ele>308</ele>
        <time>2016-02-14T14:05:17Z</time>
      </trkpt>
      <trkpt lat="43.57913" lon="3.33341">
        <ele>308.5</ele>
        <time>2016-02-14T14:05:18Z</time>
      </trkpt>
      <trkpt lat="43.57913" lon="3.33344">
        <ele>308.5</ele>
        <time>2016-02-14T14:05:19Z</time>
      </trkpt>
      <trkpt lat="43.57914" lon="3.33348">
        <ele>309</ele>
        <time>2016-02-14T14:05:20Z</time>
      </trkpt>
      <trkpt lat="43.57916" lon="3.33352">
        <ele>309</ele>
        <time>2016-02-14T14:05:21Z</time>
      </trkpt>
      <trkpt lat="43.57917" lon="3.33356">
        <ele>309.5</ele>
        <time>2016-02-14T14:05:22Z</time>
      </trkpt>
      <trkpt lat="43.57919" lon="3.3336">
        <ele>310</ele>
        <time>2016-02-14T14:05:23Z</time>
      </trkpt>
      <trkpt lat="43.57921" lon="3.33363">
        <ele>310</ele>
        <time>2016-02-14T14:05:24Z</time>
      </trkpt>
      <trkpt lat="43.57923" lon="3.33367">
        <ele>310.5</ele>
        <time>2016-02-14T14:05:25Z</time>
      </trkpt>
      <trkpt lat="43.57924" lon="3.3337">
        <ele>310.5</ele>
        <time>2016-02-14T14:05:26Z</time>
      </trkpt>
      <trkpt lat="43.57926" lon="3.33374">
        <ele>310.5</ele>
        <time>2016-02-14T14:05:27Z</time>
      </trkpt>
      <trkpt lat="43.57927" lon="3.33377">
        <ele>311</ele>
        <time>2016-02-14T14:05:28Z</time>
      </trkpt>
      <trkpt lat="43.57928" lon="3.33381">
        <ele>311</ele>
        <time>2016-02-14T14:05:29Z</time>
      </trkpt>
      <trkpt lat="43.5793" lon="3.33386">
        <ele>311</ele>
        <time>2016-02-14T14:05:30Z</time>
      </trkpt>
      <trkpt lat="43.57931" lon="3.33391">
        <ele>311.5</ele>
        <time>2016-02-14T14:05:31Z</time>
      </trkpt>
      <trkpt lat="43.57928" lon="3.33396">
        <ele>311</ele>
        <time>2016-02-14T14:05:32Z</time>
      </trkpt>
      <trkpt lat="43.57928" lon="3.334">
        <ele>312</ele>
        <time>2016-02-14T14:05:33Z</time>
      </trkpt>
      <trkpt lat="43.57927" lon="3.33403">
        <ele>312</ele>
        <time>2016-02-14T14:05:34Z</time>
      </trkpt>
      <trkpt lat="43.57925" lon="3.33406">
        <ele>312.5</ele>
        <time>2016-02-14T14:05:35Z</time>
      </trkpt>
      <trkpt lat="43.57923" lon="3.33409">
        <ele>312.5</ele>
        <time>2016-02-14T14:05:36Z</time>
      </trkpt>
      <trkpt lat="43.5792" lon="3.33412">
        <ele>312.5</ele>
        <time>2016-02-14T14:05:37Z</time>
      </trkpt>
      <trkpt lat="43.57918" lon="3.33412">
        <ele>312.5</ele>
        <time>2016-02-14T14:05:38Z</time>
      </trkpt>
      <trkpt lat="43.57917" lon="3.33415">
        <ele>313.5</ele>
        <time>2016-02-14T14:05:39Z</time>
      </trkpt>
      <trkpt lat="43.57916" lon="3.33417">
        <ele>314.5</ele>
        <time>2016-02-14T14:05:40Z</time>
      </trkpt>
      <trkpt lat="43.57914" lon="3.33419">
        <ele>314.5</ele>
        <time>2016-02-14T14:05:41Z</time>
      </trkpt>
      <trkpt lat="43.57912" lon="3.33422">
        <ele>314.5</ele>
        <time>2016-02-14T14:05:42Z</time>
      </trkpt>
      <trkpt lat="43.5791" lon="3.33424">
        <ele>314.5</ele>
        <time>2016-02-14T14:05:43Z</time>
      </trkpt>
      <trkpt lat="43.57908" lon="3.33426">
        <ele>314.5</ele>
        <time>2016-02-14T14:05:44Z</time>
      </trkpt>
      <trkpt lat="43.57906" lon="3.33428">
        <ele>314.5</ele>
        <time>2016-02-14T14:05:45Z</time>
      </trkpt>
      <trkpt lat="43.57904" lon="3.33431">
        <ele>314.5</ele>
        <time>2016-02-14T14:05:46Z</time>
      </trkpt>
      <trkpt lat="43.57902" lon="3.33434">
        <ele>315</ele>
        <time>2016-02-14T14:05:47Z</time>
      </trkpt>
      <trkpt lat="43.579" lon="3.33437">
        <ele>315</ele>
        <time>2016-02-14T14:05:48Z</time>
      </trkpt>
      <trkpt lat="43.57897" lon="3.3344">
        <ele>315</ele>
        <time>2016-02-14T14:05:49Z</time>
      </trkpt>
      <trkpt lat="43.57895" lon="3.33444">
        <ele>315</ele>
        <time>2016-02-14T14:05:50Z</time>
      </trkpt>
      <trkpt lat="43.57892" lon="3.33448">
        <ele>315</ele>
        <time>2016-02-14T14:05:51Z</time>
      </trkpt>
      <trkpt lat="43.5789" lon="3.33452">
        <ele>314.5</ele>
        <time>2016-02-14T14:05:52Z</time>
      </trkpt>
      <trkpt lat="43.57887" lon="3.33457">
        <ele>314.5</ele>
        <time>2016-02-14T14:05:53Z</time>
      </trkpt>
      <trkpt lat="43.57885" lon="3.33462">
        <ele>315</ele>
        <time>2016-02-14T14:05:54Z</time>
      </trkpt>
      <trkpt lat="43.57882" lon="3.33467">
        <ele>315</ele>
        <time>2016-02-14T14:05:55Z</time>
      </trkpt>
      <trkpt lat="43.5788" lon="3.33472">
        <ele>315</ele>
        <time>2016-02-14T14:05:56Z</time>
      </trkpt>
      <trkpt lat="43.57878" lon="3.33478">
        <ele>315</ele>
        <time>2016-02-14T14:05:57Z</time>
      </trkpt>
      <trkpt lat="43.57876" lon="3.33484">
        <ele>314.5</ele>
        <time>2016-02-14T14:05:58Z</time>
      </trkpt>
      <trkpt lat="43.57874" lon="3.3349">
        <ele>315</ele>
        <time>2016-02-14T14:05:59Z</time>
      </trkpt>
      <trkpt lat="43.57871" lon="3.33503">
        <ele>315</ele>
        <time>2016-02-14T14:06:01Z</time>
      </trkpt>
      <trkpt lat="43.5787" lon="3.33509">
        <ele>315</ele>
        <time>2016-02-14T14:06:02Z</time>
      </trkpt>
      <trkpt lat="43.5787" lon="3.33515">
        <ele>315.5</ele>
        <time>2016-02-14T14:06:03Z</time>
      </trkpt>
      <trkpt lat="43.57869" lon="3.33522">
        <ele>315</ele>
        <time>2016-02-14T14:06:04Z</time>
      </trkpt>
      <trkpt lat="43.57869" lon="3.33529">
        <ele>315</ele>
        <time>2016-02-14T14:06:05Z</time>
      </trkpt>
      <trkpt lat="43.57868" lon="3.33535">
        <ele>315</ele>
        <time>2016-02-14T14:06:06Z</time>
      </trkpt>
      <trkpt lat="43.57867" lon="3.33542">
        <ele>315</ele>
        <time>2016-02-14T14:06:07Z</time>
      </trkpt>
      <trkpt lat="43.57865" lon="3.33548">
        <ele>315</ele>
        <time>2016-02-14T14:06:08Z</time>
      </trkpt>
      <trkpt lat="43.57862" lon="3.33554">
        <ele>314.5</ele>
        <time>2016-02-14T14:06:09Z</time>
      </trkpt>
      <trkpt lat="43.57859" lon="3.33558">
        <ele>314.5</ele>
        <time>2016-02-14T14:06:10Z</time>
      </trkpt>
      <trkpt lat="43.57857" lon="3.33563">
        <ele>315.5</ele>
        <time>2016-02-14T14:06:11Z</time>
      </trkpt>
      <trkpt lat="43.57851" lon="3.33569">
        <ele>316.5</ele>
        <time>2016-02-14T14:06:13Z</time>
      </trkpt>
      <trkpt lat="43.57848" lon="3.33573">
        <ele>316.5</ele>
        <time>2016-02-14T14:06:14Z</time>
      </trkpt>
      <trkpt lat="43.57845" lon="3.33577">
        <ele>316.5</ele>
        <time>2016-02-14T14:06:15Z</time>
      </trkpt>
      <trkpt lat="43.57843" lon="3.33581">
        <ele>316.5</ele>
        <time>2016-02-14T14:06:16Z</time>
      </trkpt>
      <trkpt lat="43.5784" lon="3.33585">
        <ele>316.5</ele>
        <time>2016-02-14T14:06:17Z</time>
      </trkpt>
      <trkpt lat="43.57839" lon="3.3359">
        <ele>316.5</ele>
        <time>2016-02-14T14:06:18Z</time>
      </trkpt>
      <trkpt lat="43.57837" lon="3.33594">
        <ele>316.5</ele>
        <time>2016-02-14T14:06:19Z</time>
      </trkpt>
      <trkpt lat="43.57835" lon="3.33599">
        <ele>316.5</ele>
        <time>2016-02-14T14:06:20Z</time>
      </trkpt>
      <trkpt lat="43.57835" lon="3.33604">
        <ele>317.5</ele>
        <time>2016-02-14T14:06:21Z</time>
      </trkpt>
      <trkpt lat="43.57834" lon="3.33609">
        <ele>317.5</ele>
        <time>2016-02-14T14:06:22Z</time>
      </trkpt>
      <trkpt lat="43.57833" lon="3.33614">
        <ele>317.5</ele>
        <time>2016-02-14T14:06:23Z</time>
      </trkpt>
      <trkpt lat="43.57831" lon="3.33619">
        <ele>317.5</ele>
        <time>2016-02-14T14:06:24Z</time>
      </trkpt>
      <trkpt lat="43.5783" lon="3.33624">
        <ele>317.5</ele>
        <time>2016-02-14T14:06:25Z</time>
      </trkpt>
      <trkpt lat="43.57829" lon="3.33629">
        <ele>318</ele>
        <time>2016-02-14T14:06:26Z</time>
      </trkpt>
      <trkpt lat="43.57827" lon="3.33634">
        <ele>318</ele>
        <time>2016-02-14T14:06:27Z</time>
      </trkpt>
      <trkpt lat="43.57825" lon="3.33639">
        <ele>317.5</ele>
        <time>2016-02-14T14:06:28Z</time>
      </trkpt>
      <trkpt lat="43.57823" lon="3.33644">
        <ele>317</ele>
        <time>2016-02-14T14:06:29Z</time>
      </trkpt>
      <trkpt lat="43.57821" lon="3.33649">
        <ele>317</ele>
        <time>2016-02-14T14:06:30Z</time>
      </trkpt>
      <trkpt lat="43.5782" lon="3.33655">
        <ele>317</ele>
        <time>2016-02-14T14:06:31Z</time>
      </trkpt>
      <trkpt lat="43.57818" lon="3.3366">
        <ele>317</ele>
        <time>2016-02-14T14:06:32Z</time>
      </trkpt>
      <trkpt lat="43.57816" lon="3.33665">
        <ele>316.5</ele>
        <time>2016-02-14T14:06:33Z</time>
      </trkpt>
      <trkpt lat="43.57814" lon="3.3367">
        <ele>316.5</ele>
        <time>2016-02-14T14:06:34Z</time>
      </trkpt>
      <trkpt lat="43.57812" lon="3.33676">
        <ele>316.5</ele>
        <time>2016-02-14T14:06:35Z</time>
      </trkpt>
      <trkpt lat="43.5781" lon="3.33681">
        <ele>316.5</ele>
        <time>2016-02-14T14:06:36Z</time>
      </trkpt>
      <trkpt lat="43.57808" lon="3.33686">
        <ele>316.5</ele>
        <time>2016-02-14T14:06:37Z</time>
      </trkpt>
      <trkpt lat="43.57806" lon="3.33691">
        <ele>316.5</ele>
        <time>2016-02-14T14:06:38Z</time>
      </trkpt>
      <trkpt lat="43.57804" lon="3.33696">
        <ele>316.5</ele>
        <time>2016-02-14T14:06:39Z</time>
      </trkpt>
      <trkpt lat="43.57802" lon="3.33701">
        <ele>317</ele>
        <time>2016-02-14T14:06:40Z</time>
      </trkpt>
      <trkpt lat="43.578" lon="3.33706">
        <ele>317</ele>
        <time>2016-02-14T14:06:41Z</time>
      </trkpt>
      <trkpt lat="43.57799" lon="3.33711">
        <ele>317</ele>
        <time>2016-02-14T14:06:42Z</time>
      </trkpt>
      <trkpt lat="43.57796" lon="3.33716">
        <ele>317</ele>
        <time>2016-02-14T14:06:43Z</time>
      </trkpt>
      <trkpt lat="43.57794" lon="3.33721">
        <ele>317.5</ele>
        <time>2016-02-14T14:06:44Z</time>
      </trkpt>
      <trkpt lat="43.57792" lon="3.33725">
        <ele>317.5</ele>
        <time>2016-02-14T14:06:45Z</time>
      </trkpt>
      <trkpt lat="43.5779" lon="3.3373">
        <ele>318</ele>
        <time>2016-02-14T14:06:46Z</time>
      </trkpt>
      <trkpt lat="43.57788" lon="3.33734">
        <ele>318</ele>
        <time>2016-02-14T14:06:47Z</time>
      </trkpt>
      <trkpt lat="43.57785" lon="3.33739">
        <ele>318</ele>
        <time>2016-02-14T14:06:48Z</time>
      </trkpt>
      <trkpt lat="43.57783" lon="3.33744">
        <ele>318</ele>
        <time>2016-02-14T14:06:49Z</time>
      </trkpt>
      <trkpt lat="43.57781" lon="3.3375">
        <ele>318</ele>
        <time>2016-02-14T14:06:50Z</time>
      </trkpt>
      <trkpt lat="43.57779" lon="3.33755">
        <ele>318</ele>
        <time>2016-02-14T14:06:50Z</time>
      </trkpt>
      <trkpt lat="43.57777" lon="3.33761">
        <ele>317.5</ele>
        <time>2016-02-14T14:06:52Z</time>
      </trkpt>
      <trkpt lat="43.57775" lon="3.33766">
        <ele>318</ele>
        <time>2016-02-14T14:06:52Z</time>
      </trkpt>
      <trkpt lat="43.57773" lon="3.33772">
        <ele>318</ele>
        <time>2016-02-14T14:06:53Z</time>
      </trkpt>
      <trkpt lat="43.57771" lon="3.33777">
        <ele>318</ele>
        <time>2016-02-14T14:06:55Z</time>
      </trkpt>
      <trkpt lat="43.5777" lon="3.33783">
        <ele>318</ele>
        <time>2016-02-14T14:06:56Z</time>
      </trkpt>
      <trkpt lat="43.57769" lon="3.33788">
        <ele>318</ele>
        <time>2016-02-14T14:06:56Z</time>
      </trkpt>
      <trkpt lat="43.57768" lon="3.33794">
        <ele>318</ele>
        <time>2016-02-14T14:06:57Z</time>
      </trkpt>
      <trkpt lat="43.57765" lon="3.33799">
        <ele>317.5</ele>
        <time>2016-02-14T14:06:58Z</time>
      </trkpt>
      <trkpt lat="43.57763" lon="3.33805">
        <ele>317</ele>
        <time>2016-02-14T14:06:59Z</time>
      </trkpt>
      <trkpt lat="43.57761" lon="3.3381">
        <ele>317.5</ele>
        <time>2016-02-14T14:07:00Z</time>
      </trkpt>
      <trkpt lat="43.5776" lon="3.33814">
        <ele>319</ele>
        <time>2016-02-14T14:07:01Z</time>
      </trkpt>
      <trkpt lat="43.57759" lon="3.3382">
        <ele>318.5</ele>
        <time>2016-02-14T14:07:02Z</time>
      </trkpt>
      <trkpt lat="43.57758" lon="3.33825">
        <ele>318</ele>
        <time>2016-02-14T14:07:03Z</time>
      </trkpt>
      <trkpt lat="43.57758" lon="3.3383">
        <ele>318</ele>
        <time>2016-02-14T14:07:05Z</time>
      </trkpt>
      <trkpt lat="43.57757" lon="3.33835">
        <ele>318</ele>
        <time>2016-02-14T14:07:05Z</time>
      </trkpt>
      <trkpt lat="43.57756" lon="3.3384">
        <ele>318</ele>
        <time>2016-02-14T14:07:07Z</time>
      </trkpt>
      <trkpt lat="43.57756" lon="3.33845">
        <ele>318.5</ele>
        <time>2016-02-14T14:07:07Z</time>
      </trkpt>
      <trkpt lat="43.57756" lon="3.3385">
        <ele>318.5</ele>
        <time>2016-02-14T14:07:08Z</time>
      </trkpt>
      <trkpt lat="43.57756" lon="3.33856">
        <ele>319</ele>
        <time>2016-02-14T14:07:09Z</time>
      </trkpt>
      <trkpt lat="43.57754" lon="3.33861">
        <ele>319</ele>
        <time>2016-02-14T14:07:10Z</time>
      </trkpt>
      <trkpt lat="43.57754" lon="3.33866">
        <ele>319</ele>
        <time>2016-02-14T14:07:11Z</time>
      </trkpt>
      <trkpt lat="43.57753" lon="3.33872">
        <ele>318.5</ele>
        <time>2016-02-14T14:07:12Z</time>
      </trkpt>
      <trkpt lat="43.57752" lon="3.33877">
        <ele>318.5</ele>
        <time>2016-02-14T14:07:13Z</time>
      </trkpt>
      <trkpt lat="43.57751" lon="3.33883">
        <ele>318.5</ele>
        <time>2016-02-14T14:07:15Z</time>
      </trkpt>
      <trkpt lat="43.57751" lon="3.33888">
        <ele>319</ele>
        <time>2016-02-14T14:07:15Z</time>
      </trkpt>
      <trkpt lat="43.57751" lon="3.33894">
        <ele>319</ele>
        <time>2016-02-14T14:07:16Z</time>
      </trkpt>
      <trkpt lat="43.57752" lon="3.33899">
        <ele>319.5</ele>
        <time>2016-02-14T14:07:17Z</time>
      </trkpt>
      <trkpt lat="43.57753" lon="3.33903">
        <ele>319.5</ele>
        <time>2016-02-14T14:07:18Z</time>
      </trkpt>
      <trkpt lat="43.57755" lon="3.33908">
        <ele>319.5</ele>
        <time>2016-02-14T14:07:19Z</time>
      </trkpt>
      <trkpt lat="43.57757" lon="3.33912">
        <ele>320</ele>
        <time>2016-02-14T14:07:20Z</time>
      </trkpt>
      <trkpt lat="43.5776" lon="3.33915">
        <ele>320.5</ele>
        <time>2016-02-14T14:07:21Z</time>
      </trkpt>
      <trkpt lat="43.57762" lon="3.33918">
        <ele>320.5</ele>
        <time>2016-02-14T14:07:22Z</time>
      </trkpt>
      <trkpt lat="43.57766" lon="3.33921">
        <ele>320.5</ele>
        <time>2016-02-14T14:07:23Z</time>
      </trkpt>
      <trkpt lat="43.57769" lon="3.33923">
        <ele>320.5</ele>
        <time>2016-02-14T14:07:24Z</time>
      </trkpt>
      <trkpt lat="43.57773" lon="3.33924">
        <ele>321</ele>
        <time>2016-02-14T14:07:25Z</time>
      </trkpt>
      <trkpt lat="43.57777" lon="3.33925">
        <ele>320.5</ele>
        <time>2016-02-14T14:07:26Z</time>
      </trkpt>
      <trkpt lat="43.57781" lon="3.33924">
        <ele>321</ele>
        <time>2016-02-14T14:07:27Z</time>
      </trkpt>
      <trkpt lat="43.57784" lon="3.33923">
        <ele>323</ele>
        <time>2016-02-14T14:07:28Z</time>
      </trkpt>
      <trkpt lat="43.57788" lon="3.33923">
        <ele>323</ele>
        <time>2016-02-14T14:07:29Z</time>
      </trkpt>
      <trkpt lat="43.57793" lon="3.33922">
        <ele>323</ele>
        <time>2016-02-14T14:07:30Z</time>
      </trkpt>
      <trkpt lat="43.57797" lon="3.33921">
        <ele>323.5</ele>
        <time>2016-02-14T14:07:31Z</time>
      </trkpt>
      <trkpt lat="43.578" lon="3.33919">
        <ele>324</ele>
        <time>2016-02-14T14:07:32Z</time>
      </trkpt>
      <trkpt lat="43.57804" lon="3.33918">
        <ele>324</ele>
        <time>2016-02-14T14:07:33Z</time>
      </trkpt>
      <trkpt lat="43.57807" lon="3.33916">
        <ele>324.5</ele>
        <time>2016-02-14T14:07:34Z</time>
      </trkpt>
      <trkpt lat="43.57811" lon="3.33914">
        <ele>325</ele>
        <time>2016-02-14T14:07:35Z</time>
      </trkpt>
      <trkpt lat="43.57814" lon="3.33912">
        <ele>325.5</ele>
        <time>2016-02-14T14:07:36Z</time>
      </trkpt>
      <trkpt lat="43.57818" lon="3.3391">
        <ele>326.5</ele>
        <time>2016-02-14T14:07:37Z</time>
      </trkpt>
      <trkpt lat="43.57822" lon="3.33908">
        <ele>327</ele>
        <time>2016-02-14T14:07:38Z</time>
      </trkpt>
      <trkpt lat="43.57825" lon="3.33906">
        <ele>327.5</ele>
        <time>2016-02-14T14:07:39Z</time>
      </trkpt>
      <trkpt lat="43.57829" lon="3.33904">
        <ele>327.5</ele>
        <time>2016-02-14T14:07:40Z</time>
      </trkpt>
      <trkpt lat="43.57833" lon="3.33902">
        <ele>328</ele>
        <time>2016-02-14T14:07:41Z</time>
      </trkpt>
      <trkpt lat="43.57836" lon="3.33899">
        <ele>328.5</ele>
        <time>2016-02-14T14:07:42Z</time>
      </trkpt>
      <trkpt lat="43.5784" lon="3.33897">
        <ele>329.5</ele>
        <time>2016-02-14T14:07:43Z</time>
      </trkpt>
      <trkpt lat="43.57843" lon="3.33895">
        <ele>331</ele>
        <time>2016-02-14T14:07:44Z</time>
      </trkpt>
      <trkpt lat="43.57847" lon="3.33893">
        <ele>332.5</ele>
        <time>2016-02-14T14:07:45Z</time>
      </trkpt>
      <trkpt lat="43.57851" lon="3.33891">
        <ele>332.5</ele>
        <time>2016-02-14T14:07:47Z</time>
      </trkpt>
      <trkpt lat="43.57855" lon="3.3389">
        <ele>332.5</ele>
        <time>2016-02-14T14:07:47Z</time>
      </trkpt>
      <trkpt lat="43.57859" lon="3.33889">
        <ele>334</ele>
        <time>2016-02-14T14:07:48Z</time>
      </trkpt>
      <trkpt lat="43.57863" lon="3.33889">
        <ele>335</ele>
        <time>2016-02-14T14:07:49Z</time>
      </trkpt>
      <trkpt lat="43.57867" lon="3.33888">
        <ele>336.5</ele>
        <time>2016-02-14T14:07:50Z</time>
      </trkpt>
      <trkpt lat="43.57871" lon="3.33889">
        <ele>336.5</ele>
        <time>2016-02-14T14:07:51Z</time>
      </trkpt>
      <trkpt lat="43.57875" lon="3.33887">
        <ele>336.5</ele>
        <time>2016-02-14T14:07:52Z</time>
      </trkpt>
      <trkpt lat="43.57879" lon="3.33888">
        <ele>337</ele>
        <time>2016-02-14T14:07:53Z</time>
      </trkpt>
      <trkpt lat="43.57883" lon="3.33888">
        <ele>337.5</ele>
        <time>2016-02-14T14:07:54Z</time>
      </trkpt>
      <trkpt lat="43.57887" lon="3.33889">
        <ele>339</ele>
        <time>2016-02-14T14:07:55Z</time>
      </trkpt>
      <trkpt lat="43.57891" lon="3.3389">
        <ele>339.5</ele>
        <time>2016-02-14T14:07:56Z</time>
      </trkpt>
      <trkpt lat="43.57895" lon="3.33891">
        <ele>339.5</ele>
        <time>2016-02-14T14:07:57Z</time>
      </trkpt>
      <trkpt lat="43.57899" lon="3.33892">
        <ele>340.5</ele>
        <time>2016-02-14T14:07:58Z</time>
      </trkpt>
      <trkpt lat="43.57903" lon="3.33893">
        <ele>340.5</ele>
        <time>2016-02-14T14:07:59Z</time>
      </trkpt>
      <trkpt lat="43.57906" lon="3.33894">
        <ele>341</ele>
        <time>2016-02-14T14:08:00Z</time>
      </trkpt>
      <trkpt lat="43.5791" lon="3.33895">
        <ele>341.5</ele>
        <time>2016-02-14T14:08:01Z</time>
      </trkpt>
      <trkpt lat="43.57913" lon="3.33896">
        <ele>344</ele>
        <time>2016-02-14T14:08:02Z</time>
      </trkpt>
      <trkpt lat="43.57917" lon="3.33898">
        <ele>345</ele>
        <time>2016-02-14T14:08:03Z</time>
      </trkpt>
      <trkpt lat="43.5792" lon="3.33899">
        <ele>345</ele>
        <time>2016-02-14T14:08:04Z</time>
      </trkpt>
      <trkpt lat="43.57924" lon="3.33901">
        <ele>346.5</ele>
        <time>2016-02-14T14:08:05Z</time>
      </trkpt>
      <trkpt lat="43.57928" lon="3.33902">
        <ele>348</ele>
        <time>2016-02-14T14:08:06Z</time>
      </trkpt>
      <trkpt lat="43.57931" lon="3.33904">
        <ele>350.5</ele>
        <time>2016-02-14T14:08:07Z</time>
      </trkpt>
      <trkpt lat="43.57934" lon="3.33904">
        <ele>351</ele>
        <time>2016-02-14T14:08:08Z</time>
      </trkpt>
      <trkpt lat="43.57937" lon="3.33905">
        <ele>352</ele>
        <time>2016-02-14T14:08:09Z</time>
      </trkpt>
      <trkpt lat="43.5794" lon="3.33906">
        <ele>352</ele>
        <time>2016-02-14T14:08:10Z</time>
      </trkpt>
      <trkpt lat="43.57944" lon="3.33907">
        <ele>352.5</ele>
        <time>2016-02-14T14:08:11Z</time>
      </trkpt>
      <trkpt lat="43.57947" lon="3.33909">
        <ele>354.5</ele>
        <time>2016-02-14T14:08:12Z</time>
      </trkpt>
      <trkpt lat="43.5795" lon="3.3391">
        <ele>354.5</ele>
        <time>2016-02-14T14:08:13Z</time>
      </trkpt>
      <trkpt lat="43.57954" lon="3.33912">
        <ele>354.5</ele>
        <time>2016-02-14T14:08:14Z</time>
      </trkpt>
      <trkpt lat="43.57957" lon="3.33913">
        <ele>354.5</ele>
        <time>2016-02-14T14:08:15Z</time>
      </trkpt>
      <trkpt lat="43.5796" lon="3.33915">
        <ele>354</ele>
        <time>2016-02-14T14:08:16Z</time>
      </trkpt>
      <trkpt lat="43.57963" lon="3.33919">
        <ele>353</ele>
        <time>2016-02-14T14:08:17Z</time>
      </trkpt>
      <trkpt lat="43.57965" lon="3.33923">
        <ele>353</ele>
        <time>2016-02-14T14:08:18Z</time>
      </trkpt>
      <trkpt lat="43.57965" lon="3.33927">
        <ele>352</ele>
        <time>2016-02-14T14:08:19Z</time>
      </trkpt>
      <trkpt lat="43.57965" lon="3.33932">
        <ele>351</ele>
        <time>2016-02-14T14:08:20Z</time>
      </trkpt>
      <trkpt lat="43.57964" lon="3.33937">
        <ele>350</ele>
        <time>2016-02-14T14:08:21Z</time>
      </trkpt>
      <trkpt lat="43.57962" lon="3.3394">
        <ele>351.5</ele>
        <time>2016-02-14T14:08:22Z</time>
      </trkpt>
      <trkpt lat="43.5796" lon="3.33943">
        <ele>351</ele>
        <time>2016-02-14T14:08:23Z</time>
      </trkpt>
      <trkpt lat="43.57959" lon="3.33947">
        <ele>349.5</ele>
        <time>2016-02-14T14:08:24Z</time>
      </trkpt>
      <trkpt lat="43.57957" lon="3.33951">
        <ele>348.5</ele>
        <time>2016-02-14T14:08:25Z</time>
      </trkpt>
      <trkpt lat="43.57955" lon="3.33956">
        <ele>346</ele>
        <time>2016-02-14T14:08:26Z</time>
      </trkpt>
      <trkpt lat="43.57954" lon="3.33959">
        <ele>343.5</ele>
        <time>2016-02-14T14:08:27Z</time>
      </trkpt>
      <trkpt lat="43.57952" lon="3.33963">
        <ele>342.5</ele>
        <time>2016-02-14T14:08:28Z</time>
      </trkpt>
      <trkpt lat="43.57951" lon="3.33966">
        <ele>343.5</ele>
        <time>2016-02-14T14:08:29Z</time>
      </trkpt>
      <trkpt lat="43.57949" lon="3.33969">
        <ele>343</ele>
        <time>2016-02-14T14:08:30Z</time>
      </trkpt>
      <trkpt lat="43.57947" lon="3.33973">
        <ele>341.5</ele>
        <time>2016-02-14T14:08:31Z</time>
      </trkpt>
      <trkpt lat="43.57945" lon="3.33977">
        <ele>339.5</ele>
        <time>2016-02-14T14:08:32Z</time>
      </trkpt>
      <trkpt lat="43.57942" lon="3.33981">
        <ele>337.5</ele>
        <time>2016-02-14T14:08:33Z</time>
      </trkpt>
      <trkpt lat="43.5794" lon="3.33984">
        <ele>337</ele>
        <time>2016-02-14T14:08:34Z</time>
      </trkpt>
      <trkpt lat="43.57938" lon="3.33988">
        <ele>335</ele>
        <time>2016-02-14T14:08:35Z</time>
      </trkpt>
      <trkpt lat="43.57936" lon="3.33992">
        <ele>334</ele>
        <time>2016-02-14T14:08:36Z</time>
      </trkpt>
      <trkpt lat="43.57935" lon="3.33997">
        <ele>332.5</ele>
        <time>2016-02-14T14:08:37Z</time>
      </trkpt>
      <trkpt lat="43.57934" lon="3.34003">
        <ele>331</ele>
        <time>2016-02-14T14:08:38Z</time>
      </trkpt>
      <trkpt lat="43.57932" lon="3.34008">
        <ele>330.5</ele>
        <time>2016-02-14T14:08:39Z</time>
      </trkpt>
      <trkpt lat="43.57933" lon="3.34014">
        <ele>331</ele>
        <time>2016-02-14T14:08:40Z</time>
      </trkpt>
      <trkpt lat="43.57931" lon="3.34019">
        <ele>331</ele>
        <time>2016-02-14T14:08:41Z</time>
      </trkpt>
      <trkpt lat="43.5793" lon="3.34024">
        <ele>331</ele>
        <time>2016-02-14T14:08:42Z</time>
      </trkpt>
      <trkpt lat="43.5793" lon="3.34028">
        <ele>332.5</ele>
        <time>2016-02-14T14:08:43Z</time>
      </trkpt>
      <trkpt lat="43.5793" lon="3.34033">
        <ele>333</ele>
        <time>2016-02-14T14:08:44Z</time>
      </trkpt>
      <trkpt lat="43.5793" lon="3.34038">
        <ele>334.5</ele>
        <time>2016-02-14T14:08:45Z</time>
      </trkpt>
      <trkpt lat="43.57931" lon="3.34043">
        <ele>335.5</ele>
        <time>2016-02-14T14:08:46Z</time>
      </trkpt>
      <trkpt lat="43.57932" lon="3.34049">
        <ele>335</ele>
        <time>2016-02-14T14:08:47Z</time>
      </trkpt>
      <trkpt lat="43.57933" lon="3.34055">
        <ele>334.5</ele>
        <time>2016-02-14T14:08:48Z</time>
      </trkpt>
      <trkpt lat="43.57933" lon="3.34061">
        <ele>335</ele>
        <time>2016-02-14T14:08:49Z</time>
      </trkpt>
      <trkpt lat="43.57934" lon="3.34066">
        <ele>335.5</ele>
        <time>2016-02-14T14:08:50Z</time>
      </trkpt>
      <trkpt lat="43.57933" lon="3.34076">
        <ele>336</ele>
        <time>2016-02-14T14:08:52Z</time>
      </trkpt>
      <trkpt lat="43.57936" lon="3.34082">
        <ele>335</ele>
        <time>2016-02-14T14:08:53Z</time>
      </trkpt>
      <trkpt lat="43.57937" lon="3.34088">
        <ele>334.5</ele>
        <time>2016-02-14T14:08:54Z</time>
      </trkpt>
      <trkpt lat="43.57939" lon="3.34093">
        <ele>334</ele>
        <time>2016-02-14T14:08:55Z</time>
      </trkpt>
      <trkpt lat="43.5794" lon="3.341">
        <ele>334</ele>
        <time>2016-02-14T14:08:56Z</time>
      </trkpt>
      <trkpt lat="43.57944" lon="3.34111">
        <ele>332.5</ele>
        <time>2016-02-14T14:08:58Z</time>
      </trkpt>
      <trkpt lat="43.57946" lon="3.34118">
        <ele>334</ele>
        <time>2016-02-14T14:08:59Z</time>
      </trkpt>
      <trkpt lat="43.57949" lon="3.34123">
        <ele>332.5</ele>
        <time>2016-02-14T14:09:00Z</time>
      </trkpt>
      <trkpt lat="43.57951" lon="3.34129">
        <ele>332</ele>
        <time>2016-02-14T14:09:01Z</time>
      </trkpt>
      <trkpt lat="43.57954" lon="3.34134">
        <ele>331</ele>
        <time>2016-02-14T14:09:02Z</time>
      </trkpt>
      <trkpt lat="43.57956" lon="3.34139">
        <ele>330.5</ele>
        <time>2016-02-14T14:09:03Z</time>
      </trkpt>
      <trkpt lat="43.57958" lon="3.34144">
        <ele>330.5</ele>
        <time>2016-02-14T14:09:04Z</time>
      </trkpt>
      <trkpt lat="43.57959" lon="3.3415">
        <ele>330</ele>
        <time>2016-02-14T14:09:05Z</time>
      </trkpt>
      <trkpt lat="43.57961" lon="3.34155">
        <ele>330.5</ele>
        <time>2016-02-14T14:09:06Z</time>
      </trkpt>
      <trkpt lat="43.57962" lon="3.34159">
        <ele>331</ele>
        <time>2016-02-14T14:09:07Z</time>
      </trkpt>
      <trkpt lat="43.57964" lon="3.34164">
        <ele>330</ele>
        <time>2016-02-14T14:09:08Z</time>
      </trkpt>
      <trkpt lat="43.57966" lon="3.34168">
        <ele>329</ele>
        <time>2016-02-14T14:09:09Z</time>
      </trkpt>
      <trkpt lat="43.57967" lon="3.34171">
        <ele>329</ele>
        <time>2016-02-14T14:09:10Z</time>
      </trkpt>
      <trkpt lat="43.57968" lon="3.34176">
        <ele>329</ele>
        <time>2016-02-14T14:09:11Z</time>
      </trkpt>
      <trkpt lat="43.5797" lon="3.3418">
        <ele>329</ele>
        <time>2016-02-14T14:09:12Z</time>
      </trkpt>
      <trkpt lat="43.5797" lon="3.34185">
        <ele>328.5</ele>
        <time>2016-02-14T14:09:13Z</time>
      </trkpt>
      <trkpt lat="43.57971" lon="3.34189">
        <ele>330</ele>
        <time>2016-02-14T14:09:14Z</time>
      </trkpt>
      <trkpt lat="43.5797" lon="3.34192">
        <ele>329</ele>
        <time>2016-02-14T14:09:15Z</time>
      </trkpt>
      <trkpt lat="43.5797" lon="3.34196">
        <ele>329</ele>
        <time>2016-02-14T14:09:16Z</time>
      </trkpt>
      <trkpt lat="43.5797" lon="3.342">
        <ele>328.5</ele>
        <time>2016-02-14T14:09:17Z</time>
      </trkpt>
      <trkpt lat="43.57968" lon="3.34204">
        <ele>328.5</ele>
        <time>2016-02-14T14:09:18Z</time>
      </trkpt>
      <trkpt lat="43.57968" lon="3.34208">
        <ele>328.5</ele>
        <time>2016-02-14T14:09:19Z</time>
      </trkpt>
      <trkpt lat="43.57969" lon="3.34213">
        <ele>328.5</ele>
        <time>2016-02-14T14:09:20Z</time>
      </trkpt>
      <trkpt lat="43.57968" lon="3.34219">
        <ele>328.5</ele>
        <time>2016-02-14T14:09:21Z</time>
      </trkpt>
      <trkpt lat="43.57969" lon="3.34223">
        <ele>329</ele>
        <time>2016-02-14T14:09:22Z</time>
      </trkpt>
      <trkpt lat="43.5797" lon="3.34228">
        <ele>329.5</ele>
        <time>2016-02-14T14:09:23Z</time>
      </trkpt>
      <trkpt lat="43.57971" lon="3.34232">
        <ele>328.5</ele>
        <time>2016-02-14T14:09:24Z</time>
      </trkpt>
      <trkpt lat="43.57976" lon="3.34239">
        <ele>329.5</ele>
        <time>2016-02-14T14:09:26Z</time>
      </trkpt>
      <trkpt lat="43.57977" lon="3.34243">
        <ele>328.5</ele>
        <time>2016-02-14T14:09:27Z</time>
      </trkpt>
      <trkpt lat="43.57977" lon="3.34247">
        <ele>329.5</ele>
        <time>2016-02-14T14:09:28Z</time>
      </trkpt>
      <trkpt lat="43.57978" lon="3.34252">
        <ele>330.5</ele>
        <time>2016-02-14T14:09:29Z</time>
      </trkpt>
      <trkpt lat="43.57978" lon="3.34256">
        <ele>330</ele>
        <time>2016-02-14T14:09:30Z</time>
      </trkpt>
      <trkpt lat="43.57981" lon="3.34261">
        <ele>331.5</ele>
        <time>2016-02-14T14:09:31Z</time>
      </trkpt>
      <trkpt lat="43.57981" lon="3.34266">
        <ele>331.5</ele>
        <time>2016-02-14T14:09:32Z</time>
      </trkpt>
      <trkpt lat="43.57981" lon="3.34273">
        <ele>331.5</ele>
        <time>2016-02-14T14:09:33Z</time>
      </trkpt>
      <trkpt lat="43.57981" lon="3.3428">
        <ele>331</ele>
        <time>2016-02-14T14:09:34Z</time>
      </trkpt>
      <trkpt lat="43.57978" lon="3.34299">
        <ele>328.5</ele>
        <time>2016-02-14T14:09:36Z</time>
      </trkpt>
      <trkpt lat="43.57976" lon="3.34309">
        <ele>328</ele>
        <time>2016-02-14T14:09:37Z</time>
      </trkpt>
      <trkpt lat="43.57974" lon="3.34318">
        <ele>326.5</ele>
        <time>2016-02-14T14:09:38Z</time>
      </trkpt>
      <trkpt lat="43.57974" lon="3.34328">
        <ele>326</ele>
        <time>2016-02-14T14:09:39Z</time>
      </trkpt>
      <trkpt lat="43.57973" lon="3.3434">
        <ele>322.5</ele>
        <time>2016-02-14T14:09:40Z</time>
      </trkpt>
      <trkpt lat="43.57971" lon="3.3435">
        <ele>322</ele>
        <time>2016-02-14T14:09:41Z</time>
      </trkpt>
      <trkpt lat="43.57968" lon="3.34362">
        <ele>321</ele>
        <time>2016-02-14T14:09:42Z</time>
      </trkpt>
      <trkpt lat="43.57967" lon="3.34374">
        <ele>320.5</ele>
        <time>2016-02-14T14:09:43Z</time>
      </trkpt>
      <trkpt lat="43.57966" lon="3.34386">
        <ele>319.5</ele>
        <time>2016-02-14T14:09:44Z</time>
      </trkpt>
      <trkpt lat="43.57967" lon="3.34399">
        <ele>319.5</ele>
        <time>2016-02-14T14:09:45Z</time>
      </trkpt>
      <trkpt lat="43.57968" lon="3.34412">
        <ele>320</ele>
        <time>2016-02-14T14:09:46Z</time>
      </trkpt>
      <trkpt lat="43.57973" lon="3.34425">
        <ele>320.5</ele>
        <time>2016-02-14T14:09:47Z</time>
      </trkpt>
      <trkpt lat="43.57973" lon="3.34439">
        <ele>320.5</ele>
        <time>2016-02-14T14:09:48Z</time>
      </trkpt>
      <trkpt lat="43.57972" lon="3.34455">
        <ele>319</ele>
        <time>2016-02-14T14:09:49Z</time>
      </trkpt>
      <trkpt lat="43.57971" lon="3.34469">
        <ele>320</ele>
        <time>2016-02-14T14:09:50Z</time>
      </trkpt>
      <trkpt lat="43.57974" lon="3.34484">
        <ele>320.5</ele>
        <time>2016-02-14T14:09:51Z</time>
      </trkpt>
      <trkpt lat="43.57979" lon="3.345">
        <ele>319.5</ele>
        <time>2016-02-14T14:09:52Z</time>
      </trkpt>
      <trkpt lat="43.57983" lon="3.34515">
        <ele>318</ele>
        <time>2016-02-14T14:09:53Z</time>
      </trkpt>
      <trkpt lat="43.57986" lon="3.34531">
        <ele>317</ele>
        <time>2016-02-14T14:09:54Z</time>
      </trkpt>
      <trkpt lat="43.57988" lon="3.34548">
        <ele>316</ele>
        <time>2016-02-14T14:09:55Z</time>
      </trkpt>
      <trkpt lat="43.5799" lon="3.34566">
        <ele>312</ele>
        <time>2016-02-14T14:09:56Z</time>
      </trkpt>
      <trkpt lat="43.57992" lon="3.34584">
        <ele>309</ele>
        <time>2016-02-14T14:09:57Z</time>
      </trkpt>
      <trkpt lat="43.57994" lon="3.34602">
        <ele>307.5</ele>
        <time>2016-02-14T14:09:58Z</time>
      </trkpt>
      <trkpt lat="43.57997" lon="3.3462">
        <ele>306</ele>
        <time>2016-02-14T14:09:59Z</time>
      </trkpt>
      <trkpt lat="43.58" lon="3.34638">
        <ele>304.5</ele>
        <time>2016-02-14T14:10:00Z</time>
      </trkpt>
      <trkpt lat="43.58003" lon="3.34656">
        <ele>302</ele>
        <time>2016-02-14T14:10:01Z</time>
      </trkpt>
      <trkpt lat="43.58005" lon="3.34674">
        <ele>301</ele>
        <time>2016-02-14T14:10:02Z</time>
      </trkpt>
      <trkpt lat="43.58006" lon="3.34692">
        <ele>300</ele>
        <time>2016-02-14T14:10:03Z</time>
      </trkpt>
      <trkpt lat="43.58005" lon="3.34711">
        <ele>298</ele>
        <time>2016-02-14T14:10:04Z</time>
      </trkpt>
      <trkpt lat="43.58004" lon="3.34729">
        <ele>296.5</ele>
        <time>2016-02-14T14:10:05Z</time>
      </trkpt>
      <trkpt lat="43.58002" lon="3.34746">
        <ele>295.5</ele>
        <time>2016-02-14T14:10:06Z</time>
      </trkpt>
      <trkpt lat="43.58001" lon="3.34763">
        <ele>294</ele>
        <time>2016-02-14T14:10:07Z</time>
      </trkpt>
      <trkpt lat="43.58002" lon="3.3478">
        <ele>293</ele>
        <time>2016-02-14T14:10:08Z</time>
      </trkpt>
      <trkpt lat="43.58004" lon="3.34797">
        <ele>293</ele>
        <time>2016-02-14T14:10:09Z</time>
      </trkpt>
      <trkpt lat="43.58003" lon="3.34813">
        <ele>291.5</ele>
        <time>2016-02-14T14:10:10Z</time>
      </trkpt>
      <trkpt lat="43.58" lon="3.34829">
        <ele>290</ele>
        <time>2016-02-14T14:10:11Z</time>
      </trkpt>
      <trkpt lat="43.57997" lon="3.34843">
        <ele>289.5</ele>
        <time>2016-02-14T14:10:12Z</time>
      </trkpt>
      <trkpt lat="43.57995" lon="3.34858">
        <ele>289</ele>
        <time>2016-02-14T14:10:13Z</time>
      </trkpt>
      <trkpt lat="43.57993" lon="3.34872">
        <ele>289.5</ele>
        <time>2016-02-14T14:10:14Z</time>
      </trkpt>
      <trkpt lat="43.57992" lon="3.34887">
        <ele>289.5</ele>
        <time>2016-02-14T14:10:15Z</time>
      </trkpt>
      <trkpt lat="43.57994" lon="3.34901">
        <ele>289.5</ele>
        <time>2016-02-14T14:10:16Z</time>
      </trkpt>
      <trkpt lat="43.57996" lon="3.34916">
        <ele>289.5</ele>
        <time>2016-02-14T14:10:17Z</time>
      </trkpt>
      <trkpt lat="43.57999" lon="3.34929">
        <ele>288</ele>
        <time>2016-02-14T14:10:18Z</time>
      </trkpt>
      <trkpt lat="43.58003" lon="3.34942">
        <ele>286.5</ele>
        <time>2016-02-14T14:10:19Z</time>
      </trkpt>
      <trkpt lat="43.58006" lon="3.34956">
        <ele>286</ele>
        <time>2016-02-14T14:10:20Z</time>
      </trkpt>
      <trkpt lat="43.58008" lon="3.3497">
        <ele>285</ele>
        <time>2016-02-14T14:10:21Z</time>
      </trkpt>
      <trkpt lat="43.58009" lon="3.34985">
        <ele>284.5</ele>
        <time>2016-02-14T14:10:22Z</time>
      </trkpt>
      <trkpt lat="43.5801" lon="3.34999">
        <ele>283.5</ele>
        <time>2016-02-14T14:10:23Z</time>
      </trkpt>
      <trkpt lat="43.58009" lon="3.35013">
        <ele>282.5</ele>
        <time>2016-02-14T14:10:24Z</time>
      </trkpt>
      <trkpt lat="43.58009" lon="3.35025">
        <ele>282</ele>
        <time>2016-02-14T14:10:25Z</time>
      </trkpt>
      <trkpt lat="43.58007" lon="3.35036">
        <ele>280</ele>
        <time>2016-02-14T14:10:26Z</time>
      </trkpt>
      <trkpt lat="43.58007" lon="3.3505">
        <ele>277</ele>
        <time>2016-02-14T14:10:27Z</time>
      </trkpt>
      <trkpt lat="43.58008" lon="3.35056">
        <ele>276</ele>
        <time>2016-02-14T14:10:28Z</time>
      </trkpt>
      <trkpt lat="43.58012" lon="3.3506">
        <ele>275.5</ele>
        <time>2016-02-14T14:10:29Z</time>
      </trkpt>
      <trkpt lat="43.58014" lon="3.35063">
        <ele>275</ele>
        <time>2016-02-14T14:10:30Z</time>
      </trkpt>
      <trkpt lat="43.58016" lon="3.35065">
        <ele>275</ele>
        <time>2016-02-14T14:10:31Z</time>
      </trkpt>
      <trkpt lat="43.58018" lon="3.35067">
        <ele>275</ele>
        <time>2016-02-14T14:10:32Z</time>
      </trkpt>
      <trkpt lat="43.5802" lon="3.35068">
        <ele>275</ele>
        <time>2016-02-14T14:10:33Z</time>
      </trkpt>
      <trkpt lat="43.58021" lon="3.3507">
        <ele>275.5</ele>
        <time>2016-02-14T14:10:34Z</time>
      </trkpt>
      <trkpt lat="43.58022" lon="3.35071">
        <ele>276</ele>
        <time>2016-02-14T14:10:35Z</time>
      </trkpt>
      <trkpt lat="43.58023" lon="3.35073">
        <ele>276</ele>
        <time>2016-02-14T14:10:36Z</time>
      </trkpt>
      <trkpt lat="43.58023" lon="3.35076">
        <ele>275.5</ele>
        <time>2016-02-14T14:10:37Z</time>
      </trkpt>
      <trkpt lat="43.58023" lon="3.35079">
        <ele>274.5</ele>
        <time>2016-02-14T14:10:39Z</time>
      </trkpt>
      <trkpt lat="43.58022" lon="3.35084">
        <ele>274</ele>
        <time>2016-02-14T14:10:39Z</time>
      </trkpt>
      <trkpt lat="43.58023" lon="3.35088">
        <ele>272.5</ele>
        <time>2016-02-14T14:10:41Z</time>
      </trkpt>
      <trkpt lat="43.58024" lon="3.35092">
        <ele>272</ele>
        <time>2016-02-14T14:10:41Z</time>
      </trkpt>
      <trkpt lat="43.58025" lon="3.35096">
        <ele>272</ele>
        <time>2016-02-14T14:10:43Z</time>
      </trkpt>
      <trkpt lat="43.58027" lon="3.35101">
        <ele>271</ele>
        <time>2016-02-14T14:10:43Z</time>
      </trkpt>
      <trkpt lat="43.58028" lon="3.35106">
        <ele>270</ele>
        <time>2016-02-14T14:10:44Z</time>
      </trkpt>
      <trkpt lat="43.58028" lon="3.3511">
        <ele>270.5</ele>
        <time>2016-02-14T14:10:45Z</time>
      </trkpt>
      <trkpt lat="43.58029" lon="3.35116">
        <ele>272.5</ele>
        <time>2016-02-14T14:10:46Z</time>
      </trkpt>
      <trkpt lat="43.58029" lon="3.35122">
        <ele>272</ele>
        <time>2016-02-14T14:10:47Z</time>
      </trkpt>
      <trkpt lat="43.58029" lon="3.35127">
        <ele>272.5</ele>
        <time>2016-02-14T14:10:48Z</time>
      </trkpt>
      <trkpt lat="43.58029" lon="3.35133">
        <ele>271.5</ele>
        <time>2016-02-14T14:10:49Z</time>
      </trkpt>
      <trkpt lat="43.58026" lon="3.35138">
        <ele>270.5</ele>
        <time>2016-02-14T14:10:50Z</time>
      </trkpt>
      <trkpt lat="43.58027" lon="3.35143">
        <ele>270.5</ele>
        <time>2016-02-14T14:10:51Z</time>
      </trkpt>
      <trkpt lat="43.58026" lon="3.35148">
        <ele>270</ele>
        <time>2016-02-14T14:10:52Z</time>
      </trkpt>
      <trkpt lat="43.58026" lon="3.35152">
        <ele>270</ele>
        <time>2016-02-14T14:10:53Z</time>
      </trkpt>
      <trkpt lat="43.58027" lon="3.35157">
        <ele>270.5</ele>
        <time>2016-02-14T14:10:54Z</time>
      </trkpt>
      <trkpt lat="43.58025" lon="3.35161">
        <ele>270</ele>
        <time>2016-02-14T14:10:55Z</time>
      </trkpt>
      <trkpt lat="43.58024" lon="3.35166">
        <ele>270</ele>
        <time>2016-02-14T14:10:56Z</time>
      </trkpt>
      <trkpt lat="43.58023" lon="3.3517">
        <ele>270</ele>
        <time>2016-02-14T14:10:57Z</time>
      </trkpt>
      <trkpt lat="43.58022" lon="3.35174">
        <ele>269.5</ele>
        <time>2016-02-14T14:10:58Z</time>
      </trkpt>
      <trkpt lat="43.58021" lon="3.35178">
        <ele>270</ele>
        <time>2016-02-14T14:10:59Z</time>
      </trkpt>
      <trkpt lat="43.58022" lon="3.35182">
        <ele>270</ele>
        <time>2016-02-14T14:11:00Z</time>
      </trkpt>
      <trkpt lat="43.58021" lon="3.35185">
        <ele>270.5</ele>
        <time>2016-02-14T14:11:01Z</time>
      </trkpt>
      <trkpt lat="43.58021" lon="3.35188">
        <ele>271.5</ele>
        <time>2016-02-14T14:11:02Z</time>
      </trkpt>
      <trkpt lat="43.58021" lon="3.35191">
        <ele>271.5</ele>
        <time>2016-02-14T14:11:03Z</time>
      </trkpt>
      <trkpt lat="43.58021" lon="3.35193">
        <ele>271.5</ele>
        <time>2016-02-14T14:11:04Z</time>
      </trkpt>
      <trkpt lat="43.58023" lon="3.35195">
        <ele>272</ele>
        <time>2016-02-14T14:11:05Z</time>
      </trkpt>
      <trkpt lat="43.58024" lon="3.35196">
        <ele>273</ele>
        <time>2016-02-14T14:11:06Z</time>
      </trkpt>
      <trkpt lat="43.58024" lon="3.35199">
        <ele>272.5</ele>
        <time>2016-02-14T14:11:07Z</time>
      </trkpt>
      <trkpt lat="43.58024" lon="3.35202">
        <ele>272.5</ele>
        <time>2016-02-14T14:11:08Z</time>
      </trkpt>
      <trkpt lat="43.58023" lon="3.35206">
        <ele>273</ele>
        <time>2016-02-14T14:11:09Z</time>
      </trkpt>
      <trkpt lat="43.58022" lon="3.35211">
        <ele>273</ele>
        <time>2016-02-14T14:11:10Z</time>
      </trkpt>
      <trkpt lat="43.58021" lon="3.35213">
        <ele>274.5</ele>
        <time>2016-02-14T14:11:11Z</time>
      </trkpt>
      <trkpt lat="43.5802" lon="3.35216">
        <ele>275</ele>
        <time>2016-02-14T14:11:12Z</time>
      </trkpt>
      <trkpt lat="43.58019" lon="3.35218">
        <ele>276</ele>
        <time>2016-02-14T14:11:13Z</time>
      </trkpt>
      <trkpt lat="43.58019" lon="3.35221">
        <ele>277</ele>
        <time>2016-02-14T14:11:14Z</time>
      </trkpt>
      <trkpt lat="43.58019" lon="3.35223">
        <ele>277</ele>
        <time>2016-02-14T14:11:15Z</time>
      </trkpt>
      <trkpt lat="43.58018" lon="3.35225">
        <ele>277.5</ele>
        <time>2016-02-14T14:11:16Z</time>
      </trkpt>
      <trkpt lat="43.58018" lon="3.35226">
        <ele>277.5</ele>
        <time>2016-02-14T14:11:17Z</time>
      </trkpt>
      <trkpt lat="43.58019" lon="3.35231">
        <ele>278.5</ele>
        <time>2016-02-14T14:11:19Z</time>
      </trkpt>
      <trkpt lat="43.58019" lon="3.35233">
        <ele>279</ele>
        <time>2016-02-14T14:11:20Z</time>
      </trkpt>
      <trkpt lat="43.58019" lon="3.35234">
        <ele>278.5</ele>
        <time>2016-02-14T14:11:21Z</time>
      </trkpt>
      <trkpt lat="43.5802" lon="3.35237">
        <ele>278</ele>
        <time>2016-02-14T14:11:22Z</time>
      </trkpt>
      <trkpt lat="43.58021" lon="3.35239">
        <ele>278</ele>
        <time>2016-02-14T14:11:23Z</time>
      </trkpt>
      <trkpt lat="43.58022" lon="3.3524">
        <ele>278.5</ele>
        <time>2016-02-14T14:11:24Z</time>
      </trkpt>
      <trkpt lat="43.58021" lon="3.35242">
        <ele>278.5</ele>
        <time>2016-02-14T14:11:25Z</time>
      </trkpt>
      <trkpt lat="43.58019" lon="3.35244">
        <ele>278</ele>
        <time>2016-02-14T14:11:26Z</time>
      </trkpt>
      <trkpt lat="43.58019" lon="3.35246">
        <ele>279</ele>
        <time>2016-02-14T14:11:27Z</time>
      </trkpt>
      <trkpt lat="43.58019" lon="3.35248">
        <ele>279.5</ele>
        <time>2016-02-14T14:11:28Z</time>
      </trkpt>
      <trkpt lat="43.5802" lon="3.3525">
        <ele>281</ele>
        <time>2016-02-14T14:11:29Z</time>
      </trkpt>
      <trkpt lat="43.58019" lon="3.35254">
        <ele>279.5</ele>
        <time>2016-02-14T14:11:30Z</time>
      </trkpt>
      <trkpt lat="43.58018" lon="3.35257">
        <ele>279.5</ele>
        <time>2016-02-14T14:11:31Z</time>
      </trkpt>
      <trkpt lat="43.58019" lon="3.3526">
        <ele>280</ele>
        <time>2016-02-14T14:11:32Z</time>
      </trkpt>
      <trkpt lat="43.5802" lon="3.35262">
        <ele>280</ele>
        <time>2016-02-14T14:11:33Z</time>
      </trkpt>
      <trkpt lat="43.58021" lon="3.35263">
        <ele>282</ele>
        <time>2016-02-14T14:11:34Z</time>
      </trkpt>
      <trkpt lat="43.5802" lon="3.35267">
        <ele>282.5</ele>
        <time>2016-02-14T14:11:35Z</time>
      </trkpt>
      <trkpt lat="43.58019" lon="3.35269">
        <ele>284</ele>
        <time>2016-02-14T14:11:36Z</time>
      </trkpt>
      <trkpt lat="43.5802" lon="3.35271">
        <ele>285.5</ele>
        <time>2016-02-14T14:11:37Z</time>
      </trkpt>
      <trkpt lat="43.5802" lon="3.35274">
        <ele>287.5</ele>
        <time>2016-02-14T14:11:38Z</time>
      </trkpt>
      <trkpt lat="43.5802" lon="3.35277">
        <ele>288</ele>
        <time>2016-02-14T14:11:39Z</time>
      </trkpt>
      <trkpt lat="43.5802" lon="3.35279">
        <ele>288.5</ele>
        <time>2016-02-14T14:11:40Z</time>
      </trkpt>
      <trkpt lat="43.58021" lon="3.35281">
        <ele>290</ele>
        <time>2016-02-14T14:11:41Z</time>
      </trkpt>
      <trkpt lat="43.5802" lon="3.35287">
        <ele>288.5</ele>
        <time>2016-02-14T14:11:43Z</time>
      </trkpt>
      <trkpt lat="43.58019" lon="3.35289">
        <ele>288</ele>
        <time>2016-02-14T14:11:44Z</time>
      </trkpt>
      <trkpt lat="43.58019" lon="3.35292">
        <ele>286.5</ele>
        <time>2016-02-14T14:11:45Z</time>
      </trkpt>
      <trkpt lat="43.58019" lon="3.35293">
        <ele>287.5</ele>
        <time>2016-02-14T14:11:46Z</time>
      </trkpt>
      <trkpt lat="43.58019" lon="3.35294">
        <ele>288</ele>
        <time>2016-02-14T14:11:47Z</time>
      </trkpt>
      <trkpt lat="43.58019" lon="3.35296">
        <ele>289</ele>
        <time>2016-02-14T14:11:48Z</time>
      </trkpt>
      <trkpt lat="43.58019" lon="3.35297">
        <ele>289.5</ele>
        <time>2016-02-14T14:11:49Z</time>
      </trkpt>
      <trkpt lat="43.5802" lon="3.35301">
        <ele>288</ele>
        <time>2016-02-14T14:11:50Z</time>
      </trkpt>
      <trkpt lat="43.5802" lon="3.35302">
        <ele>289</ele>
        <time>2016-02-14T14:11:51Z</time>
      </trkpt>
      <trkpt lat="43.58021" lon="3.35303">
        <ele>291</ele>
        <time>2016-02-14T14:11:52Z</time>
      </trkpt>
      <trkpt lat="43.5802" lon="3.35304">
        <ele>291.5</ele>
        <time>2016-02-14T14:11:53Z</time>
      </trkpt>
      <trkpt lat="43.5802" lon="3.35306">
        <ele>291</ele>
        <time>2016-02-14T14:11:54Z</time>
      </trkpt>
      <trkpt lat="43.5802" lon="3.35307">
        <ele>291.5</ele>
        <time>2016-02-14T14:11:55Z</time>
      </trkpt>
      <trkpt lat="43.58021" lon="3.35309">
        <ele>291.5</ele>
        <time>2016-02-14T14:11:56Z</time>
      </trkpt>
      <trkpt lat="43.5802" lon="3.35312">
        <ele>291</ele>
        <time>2016-02-14T14:11:57Z</time>
      </trkpt>
      <trkpt lat="43.5802" lon="3.35313">
        <ele>290</ele>
        <time>2016-02-14T14:11:58Z</time>
      </trkpt>
      <trkpt lat="43.58021" lon="3.35315">
        <ele>291</ele>
        <time>2016-02-14T14:11:59Z</time>
      </trkpt>
      <trkpt lat="43.58022" lon="3.35318">
        <ele>290</ele>
        <time>2016-02-14T14:12:00Z</time>
      </trkpt>
      <trkpt lat="43.58022" lon="3.35321">
        <ele>290.5</ele>
        <time>2016-02-14T14:12:01Z</time>
      </trkpt>
      <trkpt lat="43.5802" lon="3.35323">
        <ele>290</ele>
        <time>2016-02-14T14:12:02Z</time>
      </trkpt>
      <trkpt lat="43.58019" lon="3.35325">
        <ele>289.5</ele>
        <time>2016-02-14T14:12:03Z</time>
      </trkpt>
      <trkpt lat="43.58018" lon="3.35328">
        <ele>289.5</ele>
        <time>2016-02-14T14:12:04Z</time>
      </trkpt>
      <trkpt lat="43.58019" lon="3.35329">
        <ele>291.5</ele>
        <time>2016-02-14T14:12:05Z</time>
      </trkpt>
      <trkpt lat="43.58019" lon="3.35331">
        <ele>291.5</ele>
        <time>2016-02-14T14:12:06Z</time>
      </trkpt>
      <trkpt lat="43.58019" lon="3.35332">
        <ele>292</ele>
        <time>2016-02-14T14:12:07Z</time>
      </trkpt>
      <trkpt lat="43.5802" lon="3.35334">
        <ele>292</ele>
        <time>2016-02-14T14:12:08Z</time>
      </trkpt>
      <trkpt lat="43.58021" lon="3.35337">
        <ele>292.5</ele>
        <time>2016-02-14T14:12:09Z</time>
      </trkpt>
      <trkpt lat="43.58032" lon="3.35343">
        <ele>288.5</ele>
        <time>2016-02-14T14:12:16Z</time>
      </trkpt>
      <trkpt lat="43.58032" lon="3.35346">
        <ele>288</ele>
        <time>2016-02-14T14:12:17Z</time>
      </trkpt>
      <trkpt lat="43.58032" lon="3.35349">
        <ele>289.5</ele>
        <time>2016-02-14T14:12:18Z</time>
      </trkpt>
      <trkpt lat="43.58031" lon="3.35351">
        <ele>290</ele>
        <time>2016-02-14T14:12:19Z</time>
      </trkpt>
      <trkpt lat="43.58032" lon="3.35353">
        <ele>293</ele>
        <time>2016-02-14T14:12:20Z</time>
      </trkpt>
      <trkpt lat="43.58032" lon="3.35355">
        <ele>295</ele>
        <time>2016-02-14T14:12:21Z</time>
      </trkpt>
      <trkpt lat="43.58032" lon="3.35363">
        <ele>293.5</ele>
        <time>2016-02-14T14:12:23Z</time>
      </trkpt>
      <trkpt lat="43.58033" lon="3.35371">
        <ele>289</ele>
        <time>2016-02-14T14:12:25Z</time>
      </trkpt>
      <trkpt lat="43.58032" lon="3.35373">
        <ele>290.5</ele>
        <time>2016-02-14T14:12:26Z</time>
      </trkpt>
      <trkpt lat="43.58033" lon="3.35375">
        <ele>291.5</ele>
        <time>2016-02-14T14:12:27Z</time>
      </trkpt>
      <trkpt lat="43.58033" lon="3.35377">
        <ele>290</ele>
        <time>2016-02-14T14:12:28Z</time>
      </trkpt>
      <trkpt lat="43.58031" lon="3.35379">
        <ele>290.5</ele>
        <time>2016-02-14T14:12:29Z</time>
      </trkpt>
      <trkpt lat="43.58034" lon="3.35392">
        <ele>279</ele>
        <time>2016-02-14T14:12:37Z</time>
      </trkpt>
      <trkpt lat="43.58031" lon="3.35399">
        <ele>275.5</ele>
        <time>2016-02-14T14:12:41Z</time>
      </trkpt>
      <trkpt lat="43.5803" lon="3.35402">
        <ele>275.5</ele>
        <time>2016-02-14T14:12:43Z</time>
      </trkpt>
      <trkpt lat="43.5803" lon="3.35403">
        <ele>276</ele>
        <time>2016-02-14T14:12:44Z</time>
      </trkpt>
      <trkpt lat="43.5803" lon="3.35404">
        <ele>277</ele>
        <time>2016-02-14T14:12:45Z</time>
      </trkpt>
      <trkpt lat="43.5803" lon="3.35406">
        <ele>277.5</ele>
        <time>2016-02-14T14:12:46Z</time>
      </trkpt>
      <trkpt lat="43.5803" lon="3.35407">
        <ele>278.5</ele>
        <time>2016-02-14T14:12:47Z</time>
      </trkpt>
      <trkpt lat="43.58031" lon="3.35409">
        <ele>280</ele>
        <time>2016-02-14T14:12:48Z</time>
      </trkpt>
      <trkpt lat="43.58031" lon="3.3541">
        <ele>281.5</ele>
        <time>2016-02-14T14:12:49Z</time>
      </trkpt>
      <trkpt lat="43.58031" lon="3.35411">
        <ele>280</ele>
        <time>2016-02-14T14:12:50Z</time>
      </trkpt>
      <trkpt lat="43.5803" lon="3.35413">
        <ele>277.5</ele>
        <time>2016-02-14T14:12:52Z</time>
      </trkpt>
      <trkpt lat="43.58026" lon="3.35418">
        <ele>277</ele>
        <time>2016-02-14T14:12:56Z</time>
      </trkpt>
      <trkpt lat="43.58027" lon="3.35421">
        <ele>276.5</ele>
        <time>2016-02-14T14:12:58Z</time>
      </trkpt>
      <trkpt lat="43.58027" lon="3.35423">
        <ele>276.5</ele>
        <time>2016-02-14T14:12:59Z</time>
      </trkpt>
      <trkpt lat="43.58027" lon="3.35425">
        <ele>277</ele>
        <time>2016-02-14T14:13:00Z</time>
      </trkpt>
      <trkpt lat="43.58027" lon="3.35427">
        <ele>277</ele>
        <time>2016-02-14T14:13:01Z</time>
      </trkpt>
      <trkpt lat="43.58028" lon="3.35429">
        <ele>277.5</ele>
        <time>2016-02-14T14:13:02Z</time>
      </trkpt>
      <trkpt lat="43.58028" lon="3.35431">
        <ele>278</ele>
        <time>2016-02-14T14:13:03Z</time>
      </trkpt>
      <trkpt lat="43.58028" lon="3.35433">
        <ele>279</ele>
        <time>2016-02-14T14:13:04Z</time>
      </trkpt>
      <trkpt lat="43.58029" lon="3.35434">
        <ele>279</ele>
        <time>2016-02-14T14:13:05Z</time>
      </trkpt>
      <trkpt lat="43.58029" lon="3.35436">
        <ele>280</ele>
        <time>2016-02-14T14:13:06Z</time>
      </trkpt>
      <trkpt lat="43.58028" lon="3.35438">
        <ele>279.5</ele>
        <time>2016-02-14T14:13:07Z</time>
      </trkpt>
      <trkpt lat="43.58028" lon="3.35439">
        <ele>280</ele>
        <time>2016-02-14T14:13:08Z</time>
      </trkpt>
      <trkpt lat="43.58027" lon="3.3544">
        <ele>280</ele>
        <time>2016-02-14T14:13:09Z</time>
      </trkpt>
      <trkpt lat="43.58027" lon="3.35441">
        <ele>280</ele>
        <time>2016-02-14T14:13:11Z</time>
      </trkpt>
      <trkpt lat="43.58027" lon="3.35443">
        <ele>279.5</ele>
        <time>2016-02-14T14:13:18Z</time>
      </trkpt>
      <trkpt lat="43.58026" lon="3.35445">
        <ele>281.5</ele>
        <time>2016-02-14T14:13:20Z</time>
      </trkpt>
      <trkpt lat="43.58026" lon="3.35447">
        <ele>282</ele>
        <time>2016-02-14T14:13:21Z</time>
      </trkpt>
      <trkpt lat="43.58026" lon="3.35449">
        <ele>283</ele>
        <time>2016-02-14T14:13:22Z</time>
      </trkpt>
      <trkpt lat="43.58025" lon="3.3545">
        <ele>284</ele>
        <time>2016-02-14T14:13:23Z</time>
      </trkpt>
      <trkpt lat="43.58025" lon="3.35452">
        <ele>284.5</ele>
        <time>2016-02-14T14:13:23Z</time>
      </trkpt>
      <trkpt lat="43.58025" lon="3.35453">
        <ele>285</ele>
        <time>2016-02-14T14:13:25Z</time>
      </trkpt>
      <trkpt lat="43.58024" lon="3.35455">
        <ele>285.5</ele>
        <time>2016-02-14T14:13:25Z</time>
      </trkpt>
      <trkpt lat="43.58025" lon="3.35456">
        <ele>287.5</ele>
        <time>2016-02-14T14:13:26Z</time>
      </trkpt>
      <trkpt lat="43.58025" lon="3.35458">
        <ele>288.5</ele>
        <time>2016-02-14T14:13:27Z</time>
      </trkpt>
      <trkpt lat="43.58024" lon="3.3546">
        <ele>290</ele>
        <time>2016-02-14T14:13:28Z</time>
      </trkpt>
      <trkpt lat="43.58024" lon="3.35462">
        <ele>292</ele>
        <time>2016-02-14T14:13:29Z</time>
      </trkpt>
      <trkpt lat="43.58023" lon="3.35464">
        <ele>291.5</ele>
        <time>2016-02-14T14:13:31Z</time>
      </trkpt>
      <trkpt lat="43.58023" lon="3.35468">
        <ele>291.5</ele>
        <time>2016-02-14T14:13:33Z</time>
      </trkpt>
      <trkpt lat="43.58023" lon="3.35469">
        <ele>292</ele>
        <time>2016-02-14T14:13:35Z</time>
      </trkpt>
      <trkpt lat="43.58022" lon="3.3547">
        <ele>291</ele>
        <time>2016-02-14T14:13:35Z</time>
      </trkpt>
      <trkpt lat="43.58021" lon="3.35472">
        <ele>290.5</ele>
        <time>2016-02-14T14:13:36Z</time>
      </trkpt>
      <trkpt lat="43.5802" lon="3.35473">
        <ele>290.5</ele>
        <time>2016-02-14T14:13:38Z</time>
      </trkpt>
      <trkpt lat="43.5802" lon="3.35475">
        <ele>291</ele>
        <time>2016-02-14T14:13:38Z</time>
      </trkpt>
      <trkpt lat="43.5802" lon="3.35477">
        <ele>292</ele>
        <time>2016-02-14T14:13:39Z</time>
      </trkpt>
      <trkpt lat="43.5802" lon="3.3548">
        <ele>292.5</ele>
        <time>2016-02-14T14:13:40Z</time>
      </trkpt>
      <trkpt lat="43.58019" lon="3.35483">
        <ele>292</ele>
        <time>2016-02-14T14:13:41Z</time>
      </trkpt>
      <trkpt lat="43.58018" lon="3.35485">
        <ele>292</ele>
        <time>2016-02-14T14:13:42Z</time>
      </trkpt>
      <trkpt lat="43.58019" lon="3.35486">
        <ele>292.5</ele>
        <time>2016-02-14T14:13:44Z</time>
      </trkpt>
      <trkpt lat="43.58019" lon="3.3549">
        <ele>293</ele>
        <time>2016-02-14T14:13:44Z</time>
      </trkpt>
      <trkpt lat="43.58019" lon="3.35493">
        <ele>296</ele>
        <time>2016-02-14T14:13:46Z</time>
      </trkpt>
      <trkpt lat="43.58019" lon="3.35497">
        <ele>296</ele>
        <time>2016-02-14T14:13:47Z</time>
      </trkpt>
      <trkpt lat="43.58019" lon="3.355">
        <ele>296.5</ele>
        <time>2016-02-14T14:13:48Z</time>
      </trkpt>
      <trkpt lat="43.58019" lon="3.35504">
        <ele>295.5</ele>
        <time>2016-02-14T14:13:49Z</time>
      </trkpt>
      <trkpt lat="43.58019" lon="3.35508">
        <ele>295.5</ele>
        <time>2016-02-14T14:13:50Z</time>
      </trkpt>
      <trkpt lat="43.58019" lon="3.3551">
        <ele>295.5</ele>
        <time>2016-02-14T14:13:51Z</time>
      </trkpt>
      <trkpt lat="43.58019" lon="3.35513">
        <ele>295.5</ele>
        <time>2016-02-14T14:13:52Z</time>
      </trkpt>
      <trkpt lat="43.58018" lon="3.35515">
        <ele>296</ele>
        <time>2016-02-14T14:13:53Z</time>
      </trkpt>
      <trkpt lat="43.58019" lon="3.3552">
        <ele>296.5</ele>
        <time>2016-02-14T14:13:54Z</time>
      </trkpt>
      <trkpt lat="43.58019" lon="3.35522">
        <ele>294.5</ele>
        <time>2016-02-14T14:13:55Z</time>
      </trkpt>
      <trkpt lat="43.58019" lon="3.35526">
        <ele>293.5</ele>
        <time>2016-02-14T14:13:56Z</time>
      </trkpt>
      <trkpt lat="43.58018" lon="3.35536">
        <ele>295</ele>
        <time>2016-02-14T14:13:58Z</time>
      </trkpt>
      <trkpt lat="43.58016" lon="3.35542">
        <ele>294</ele>
        <time>2016-02-14T14:13:59Z</time>
      </trkpt>
      <trkpt lat="43.58016" lon="3.35548">
        <ele>295.5</ele>
        <time>2016-02-14T14:14:01Z</time>
      </trkpt>
      <trkpt lat="43.58017" lon="3.35552">
        <ele>294</ele>
        <time>2016-02-14T14:14:02Z</time>
      </trkpt>
      <trkpt lat="43.58017" lon="3.35556">
        <ele>294</ele>
        <time>2016-02-14T14:14:03Z</time>
      </trkpt>
      <trkpt lat="43.58019" lon="3.35561">
        <ele>294</ele>
        <time>2016-02-14T14:14:04Z</time>
      </trkpt>
      <trkpt lat="43.58019" lon="3.35566">
        <ele>293.5</ele>
        <time>2016-02-14T14:14:05Z</time>
      </trkpt>
      <trkpt lat="43.58019" lon="3.35572">
        <ele>291.5</ele>
        <time>2016-02-14T14:14:06Z</time>
      </trkpt>
      <trkpt lat="43.58018" lon="3.35578">
        <ele>292.5</ele>
        <time>2016-02-14T14:14:07Z</time>
      </trkpt>
      <trkpt lat="43.58018" lon="3.35584">
        <ele>291</ele>
        <time>2016-02-14T14:14:08Z</time>
      </trkpt>
      <trkpt lat="43.58016" lon="3.3559">
        <ele>291.5</ele>
        <time>2016-02-14T14:14:09Z</time>
      </trkpt>
      <trkpt lat="43.58014" lon="3.35609">
        <ele>283</ele>
        <time>2016-02-14T14:14:11Z</time>
      </trkpt>
      <trkpt lat="43.58013" lon="3.35613">
        <ele>281.5</ele>
        <time>2016-02-14T14:14:12Z</time>
      </trkpt>
      <trkpt lat="43.58013" lon="3.35616">
        <ele>282</ele>
        <time>2016-02-14T14:14:13Z</time>
      </trkpt>
      <trkpt lat="43.58014" lon="3.3562">
        <ele>281.5</ele>
        <time>2016-02-14T14:14:14Z</time>
      </trkpt>
      <trkpt lat="43.58015" lon="3.35624">
        <ele>282</ele>
        <time>2016-02-14T14:14:15Z</time>
      </trkpt>
      <trkpt lat="43.58015" lon="3.35627">
        <ele>282.5</ele>
        <time>2016-02-14T14:14:16Z</time>
      </trkpt>
      <trkpt lat="43.58015" lon="3.35632">
        <ele>281</ele>
        <time>2016-02-14T14:14:17Z</time>
      </trkpt>
      <trkpt lat="43.58014" lon="3.35636">
        <ele>280</ele>
        <time>2016-02-14T14:14:18Z</time>
      </trkpt>
      <trkpt lat="43.58014" lon="3.35638">
        <ele>280.5</ele>
        <time>2016-02-14T14:14:19Z</time>
      </trkpt>
      <trkpt lat="43.58013" lon="3.35641">
        <ele>278</ele>
        <time>2016-02-14T14:14:20Z</time>
      </trkpt>
      <trkpt lat="43.58013" lon="3.35645">
        <ele>275</ele>
        <time>2016-02-14T14:14:21Z</time>
      </trkpt>
      <trkpt lat="43.58013" lon="3.35648">
        <ele>275</ele>
        <time>2016-02-14T14:14:22Z</time>
      </trkpt>
      <trkpt lat="43.58013" lon="3.35649">
        <ele>275.5</ele>
        <time>2016-02-14T14:14:23Z</time>
      </trkpt>
      <trkpt lat="43.58012" lon="3.35657">
        <ele>272.5</ele>
        <time>2016-02-14T14:14:25Z</time>
      </trkpt>
      <trkpt lat="43.58012" lon="3.35661">
        <ele>269.5</ele>
        <time>2016-02-14T14:14:26Z</time>
      </trkpt>
      <trkpt lat="43.58011" lon="3.35665">
        <ele>265</ele>
        <time>2016-02-14T14:14:27Z</time>
      </trkpt>
      <trkpt lat="43.58011" lon="3.3567">
        <ele>260.5</ele>
        <time>2016-02-14T14:14:28Z</time>
      </trkpt>
      <trkpt lat="43.5801" lon="3.35673">
        <ele>258.5</ele>
        <time>2016-02-14T14:14:29Z</time>
      </trkpt>
      <trkpt lat="43.5801" lon="3.35677">
        <ele>256.5</ele>
        <time>2016-02-14T14:14:30Z</time>
      </trkpt>
      <trkpt lat="43.58009" lon="3.35681">
        <ele>255.5</ele>
        <time>2016-02-14T14:14:31Z</time>
      </trkpt>
      <trkpt lat="43.58008" lon="3.35685">
        <ele>254</ele>
        <time>2016-02-14T14:14:32Z</time>
      </trkpt>
      <trkpt lat="43.58007" lon="3.35688">
        <ele>251.5</ele>
        <time>2016-02-14T14:14:33Z</time>
      </trkpt>
      <trkpt lat="43.58006" lon="3.35692">
        <ele>249.5</ele>
        <time>2016-02-14T14:14:35Z</time>
      </trkpt>
      <trkpt lat="43.58005" lon="3.35696">
        <ele>247.5</ele>
        <time>2016-02-14T14:14:35Z</time>
      </trkpt>
      <trkpt lat="43.58004" lon="3.35699">
        <ele>247</ele>
        <time>2016-02-14T14:14:36Z</time>
      </trkpt>
      <trkpt lat="43.58003" lon="3.35702">
        <ele>244.5</ele>
        <time>2016-02-14T14:14:37Z</time>
      </trkpt>
      <trkpt lat="43.58002" lon="3.35706">
        <ele>245</ele>
        <time>2016-02-14T14:14:38Z</time>
      </trkpt>
      <trkpt lat="43.58001" lon="3.35712">
        <ele>245</ele>
        <time>2016-02-14T14:14:39Z</time>
      </trkpt>
      <trkpt lat="43.58" lon="3.35717">
        <ele>243.5</ele>
        <time>2016-02-14T14:14:40Z</time>
      </trkpt>
      <trkpt lat="43.57999" lon="3.35721">
        <ele>243</ele>
        <time>2016-02-14T14:14:41Z</time>
      </trkpt>
      <trkpt lat="43.57998" lon="3.35724">
        <ele>242</ele>
        <time>2016-02-14T14:14:42Z</time>
      </trkpt>
      <trkpt lat="43.57996" lon="3.35728">
        <ele>241.5</ele>
        <time>2016-02-14T14:14:43Z</time>
      </trkpt>
      <trkpt lat="43.57995" lon="3.3573">
        <ele>241</ele>
        <time>2016-02-14T14:14:44Z</time>
      </trkpt>
      <trkpt lat="43.57992" lon="3.35731">
        <ele>240</ele>
        <time>2016-02-14T14:14:45Z</time>
      </trkpt>
      <trkpt lat="43.57989" lon="3.35732">
        <ele>238</ele>
        <time>2016-02-14T14:14:46Z</time>
      </trkpt>
      <trkpt lat="43.57986" lon="3.35735">
        <ele>237</ele>
        <time>2016-02-14T14:14:47Z</time>
      </trkpt>
      <trkpt lat="43.57984" lon="3.35739">
        <ele>235.5</ele>
        <time>2016-02-14T14:14:48Z</time>
      </trkpt>
      <trkpt lat="43.57984" lon="3.35743">
        <ele>234.5</ele>
        <time>2016-02-14T14:14:49Z</time>
      </trkpt>
      <trkpt lat="43.57983" lon="3.35748">
        <ele>234.5</ele>
        <time>2016-02-14T14:14:50Z</time>
      </trkpt>
      <trkpt lat="43.57981" lon="3.35753">
        <ele>236</ele>
        <time>2016-02-14T14:14:51Z</time>
      </trkpt>
      <trkpt lat="43.5798" lon="3.35759">
        <ele>237.5</ele>
        <time>2016-02-14T14:14:52Z</time>
      </trkpt>
      <trkpt lat="43.57979" lon="3.35763">
        <ele>237</ele>
        <time>2016-02-14T14:14:53Z</time>
      </trkpt>
      <trkpt lat="43.57978" lon="3.35767">
        <ele>235.5</ele>
        <time>2016-02-14T14:14:54Z</time>
      </trkpt>
      <trkpt lat="43.57978" lon="3.3577">
        <ele>234.5</ele>
        <time>2016-02-14T14:14:55Z</time>
      </trkpt>
      <trkpt lat="43.57978" lon="3.35774">
        <ele>234.5</ele>
        <time>2016-02-14T14:14:56Z</time>
      </trkpt>
      <trkpt lat="43.5798" lon="3.35777">
        <ele>235.5</ele>
        <time>2016-02-14T14:14:57Z</time>
      </trkpt>
      <trkpt lat="43.57981" lon="3.35779">
        <ele>236</ele>
        <time>2016-02-14T14:14:58Z</time>
      </trkpt>
      <trkpt lat="43.57982" lon="3.35783">
        <ele>236.5</ele>
        <time>2016-02-14T14:14:59Z</time>
      </trkpt>
      <trkpt lat="43.57982" lon="3.35787">
        <ele>236.5</ele>
        <time>2016-02-14T14:15:00Z</time>
      </trkpt>
      <trkpt lat="43.57981" lon="3.35791">
        <ele>235</ele>
        <time>2016-02-14T14:15:01Z</time>
      </trkpt>
      <trkpt lat="43.57981" lon="3.35796">
        <ele>234.5</ele>
        <time>2016-02-14T14:15:02Z</time>
      </trkpt>
      <trkpt lat="43.5798" lon="3.35801">
        <ele>233</ele>
        <time>2016-02-14T14:15:03Z</time>
      </trkpt>
      <trkpt lat="43.57979" lon="3.35805">
        <ele>231.5</ele>
        <time>2016-02-14T14:15:04Z</time>
      </trkpt>
      <trkpt lat="43.57978" lon="3.35809">
        <ele>230</ele>
        <time>2016-02-14T14:15:05Z</time>
      </trkpt>
      <trkpt lat="43.57977" lon="3.35814">
        <ele>230</ele>
        <time>2016-02-14T14:15:06Z</time>
      </trkpt>
      <trkpt lat="43.57976" lon="3.35818">
        <ele>230</ele>
        <time>2016-02-14T14:15:07Z</time>
      </trkpt>
      <trkpt lat="43.57974" lon="3.35822">
        <ele>230</ele>
        <time>2016-02-14T14:15:08Z</time>
      </trkpt>
      <trkpt lat="43.57972" lon="3.35826">
        <ele>230.5</ele>
        <time>2016-02-14T14:15:09Z</time>
      </trkpt>
      <trkpt lat="43.57971" lon="3.3583">
        <ele>229.5</ele>
        <time>2016-02-14T14:15:10Z</time>
      </trkpt>
      <trkpt lat="43.57971" lon="3.35834">
        <ele>230</ele>
        <time>2016-02-14T14:15:11Z</time>
      </trkpt>
      <trkpt lat="43.5797" lon="3.35838">
        <ele>228.5</ele>
        <time>2016-02-14T14:15:12Z</time>
      </trkpt>
      <trkpt lat="43.57969" lon="3.35844">
        <ele>228</ele>
        <time>2016-02-14T14:15:13Z</time>
      </trkpt>
      <trkpt lat="43.57972" lon="3.35852">
        <ele>229.5</ele>
        <time>2016-02-14T14:15:15Z</time>
      </trkpt>
      <trkpt lat="43.57971" lon="3.35855">
        <ele>228.5</ele>
        <time>2016-02-14T14:15:16Z</time>
      </trkpt>
      <trkpt lat="43.57969" lon="3.35857">
        <ele>228</ele>
        <time>2016-02-14T14:15:17Z</time>
      </trkpt>
      <trkpt lat="43.57967" lon="3.3586">
        <ele>228</ele>
        <time>2016-02-14T14:15:18Z</time>
      </trkpt>
      <trkpt lat="43.57966" lon="3.35863">
        <ele>227.5</ele>
        <time>2016-02-14T14:15:19Z</time>
      </trkpt>
      <trkpt lat="43.57965" lon="3.35866">
        <ele>227.5</ele>
        <time>2016-02-14T14:15:20Z</time>
      </trkpt>
      <trkpt lat="43.57963" lon="3.3587">
        <ele>227.5</ele>
        <time>2016-02-14T14:15:21Z</time>
      </trkpt>
      <trkpt lat="43.5796" lon="3.35873">
        <ele>226</ele>
        <time>2016-02-14T14:15:22Z</time>
      </trkpt>
      <trkpt lat="43.57959" lon="3.35878">
        <ele>225</ele>
        <time>2016-02-14T14:15:23Z</time>
      </trkpt>
      <trkpt lat="43.57957" lon="3.35881">
        <ele>222.5</ele>
        <time>2016-02-14T14:15:24Z</time>
      </trkpt>
      <trkpt lat="43.57954" lon="3.35885">
        <ele>222.5</ele>
        <time>2016-02-14T14:15:25Z</time>
      </trkpt>
      <trkpt lat="43.57952" lon="3.35889">
        <ele>220.5</ele>
        <time>2016-02-14T14:15:26Z</time>
      </trkpt>
      <trkpt lat="43.5795" lon="3.35893">
        <ele>221.5</ele>
        <time>2016-02-14T14:15:27Z</time>
      </trkpt>
      <trkpt lat="43.57949" lon="3.35899">
        <ele>221</ele>
        <time>2016-02-14T14:15:28Z</time>
      </trkpt>
      <trkpt lat="43.57947" lon="3.35904">
        <ele>220.5</ele>
        <time>2016-02-14T14:15:29Z</time>
      </trkpt>
      <trkpt lat="43.57948" lon="3.3591">
        <ele>220.5</ele>
        <time>2016-02-14T14:15:30Z</time>
      </trkpt>
      <trkpt lat="43.57947" lon="3.35914">
        <ele>219</ele>
        <time>2016-02-14T14:15:31Z</time>
      </trkpt>
      <trkpt lat="43.57945" lon="3.35919">
        <ele>218.5</ele>
        <time>2016-02-14T14:15:32Z</time>
      </trkpt>
      <trkpt lat="43.57944" lon="3.35925">
        <ele>218.5</ele>
        <time>2016-02-14T14:15:32Z</time>
      </trkpt>
      <trkpt lat="43.57942" lon="3.3593">
        <ele>217.5</ele>
        <time>2016-02-14T14:15:33Z</time>
      </trkpt>
      <trkpt lat="43.5794" lon="3.35935">
        <ele>216.5</ele>
        <time>2016-02-14T14:15:34Z</time>
      </trkpt>
      <trkpt lat="43.57938" lon="3.35939">
        <ele>215</ele>
        <time>2016-02-14T14:15:35Z</time>
      </trkpt>
      <trkpt lat="43.57937" lon="3.35943">
        <ele>214</ele>
        <time>2016-02-14T14:15:36Z</time>
      </trkpt>
      <trkpt lat="43.57935" lon="3.35948">
        <ele>213.5</ele>
        <time>2016-02-14T14:15:37Z</time>
      </trkpt>
      <trkpt lat="43.57934" lon="3.35952">
        <ele>212</ele>
        <time>2016-02-14T14:15:38Z</time>
      </trkpt>
      <trkpt lat="43.57932" lon="3.35957">
        <ele>211.5</ele>
        <time>2016-02-14T14:15:39Z</time>
      </trkpt>
      <trkpt lat="43.5793" lon="3.35962">
        <ele>210.5</ele>
        <time>2016-02-14T14:15:40Z</time>
      </trkpt>
      <trkpt lat="43.57928" lon="3.35966">
        <ele>210</ele>
        <time>2016-02-14T14:15:41Z</time>
      </trkpt>
      <trkpt lat="43.57927" lon="3.35971">
        <ele>210.5</ele>
        <time>2016-02-14T14:15:42Z</time>
      </trkpt>
      <trkpt lat="43.57925" lon="3.35975">
        <ele>210</ele>
        <time>2016-02-14T14:15:43Z</time>
      </trkpt>
      <trkpt lat="43.57923" lon="3.35978">
        <ele>208.5</ele>
        <time>2016-02-14T14:15:44Z</time>
      </trkpt>
      <trkpt lat="43.57922" lon="3.35981">
        <ele>207.5</ele>
        <time>2016-02-14T14:15:45Z</time>
      </trkpt>
      <trkpt lat="43.57922" lon="3.35985">
        <ele>207.5</ele>
        <time>2016-02-14T14:15:46Z</time>
      </trkpt>
      <trkpt lat="43.5792" lon="3.35988">
        <ele>208.5</ele>
        <time>2016-02-14T14:15:47Z</time>
      </trkpt>
      <trkpt lat="43.57918" lon="3.35991">
        <ele>208</ele>
        <time>2016-02-14T14:15:49Z</time>
      </trkpt>
      <trkpt lat="43.57916" lon="3.35993">
        <ele>206.5</ele>
        <time>2016-02-14T14:15:49Z</time>
      </trkpt>
      <trkpt lat="43.57914" lon="3.35996">
        <ele>205.5</ele>
        <time>2016-02-14T14:15:50Z</time>
      </trkpt>
      <trkpt lat="43.57911" lon="3.35999">
        <ele>203.5</ele>
        <time>2016-02-14T14:15:51Z</time>
      </trkpt>
      <trkpt lat="43.57908" lon="3.36001">
        <ele>202</ele>
        <time>2016-02-14T14:15:52Z</time>
      </trkpt>
      <trkpt lat="43.57905" lon="3.36003">
        <ele>200.5</ele>
        <time>2016-02-14T14:15:53Z</time>
      </trkpt>
      <trkpt lat="43.57902" lon="3.36004">
        <ele>199</ele>
        <time>2016-02-14T14:15:54Z</time>
      </trkpt>
      <trkpt lat="43.57898" lon="3.36006">
        <ele>198.5</ele>
        <time>2016-02-14T14:15:55Z</time>
      </trkpt>
      <trkpt lat="43.57895" lon="3.3601">
        <ele>197</ele>
        <time>2016-02-14T14:15:56Z</time>
      </trkpt>
      <trkpt lat="43.57893" lon="3.36013">
        <ele>195</ele>
        <time>2016-02-14T14:15:57Z</time>
      </trkpt>
      <trkpt lat="43.57895" lon="3.36019">
        <ele>196</ele>
        <time>2016-02-14T14:15:58Z</time>
      </trkpt>
      <trkpt lat="43.57895" lon="3.36024">
        <ele>196</ele>
        <time>2016-02-14T14:15:59Z</time>
      </trkpt>
      <trkpt lat="43.57896" lon="3.36028">
        <ele>197.5</ele>
        <time>2016-02-14T14:16:00Z</time>
      </trkpt>
      <trkpt lat="43.57896" lon="3.3603">
        <ele>198.5</ele>
        <time>2016-02-14T14:16:01Z</time>
      </trkpt>
      <trkpt lat="43.57896" lon="3.36032">
        <ele>200</ele>
        <time>2016-02-14T14:16:02Z</time>
      </trkpt>
      <trkpt lat="43.57897" lon="3.36035">
        <ele>203.5</ele>
        <time>2016-02-14T14:16:06Z</time>
      </trkpt>
      <trkpt lat="43.57898" lon="3.36037">
        <ele>204</ele>
        <time>2016-02-14T14:16:08Z</time>
      </trkpt>
      <trkpt lat="43.57898" lon="3.36038">
        <ele>204</ele>
        <time>2016-02-14T14:16:09Z</time>
      </trkpt>
      <trkpt lat="43.57899" lon="3.3604">
        <ele>203.5</ele>
        <time>2016-02-14T14:16:10Z</time>
      </trkpt>
      <trkpt lat="43.57899" lon="3.36042">
        <ele>204</ele>
        <time>2016-02-14T14:16:11Z</time>
      </trkpt>
      <trkpt lat="43.579" lon="3.36044">
        <ele>204</ele>
        <time>2016-02-14T14:16:12Z</time>
      </trkpt>
      <trkpt lat="43.57902" lon="3.36047">
        <ele>203.5</ele>
        <time>2016-02-14T14:16:13Z</time>
      </trkpt>
      <trkpt lat="43.57904" lon="3.36051">
        <ele>204</ele>
        <time>2016-02-14T14:16:14Z</time>
      </trkpt>
      <trkpt lat="43.57907" lon="3.36056">
        <ele>205</ele>
        <time>2016-02-14T14:16:15Z</time>
      </trkpt>
      <trkpt lat="43.5791" lon="3.36061">
        <ele>205</ele>
        <time>2016-02-14T14:16:16Z</time>
      </trkpt>
      <trkpt lat="43.57913" lon="3.36067">
        <ele>207</ele>
        <time>2016-02-14T14:16:17Z</time>
      </trkpt>
      <trkpt lat="43.57914" lon="3.36073">
        <ele>205</ele>
        <time>2016-02-14T14:16:18Z</time>
      </trkpt>
      <trkpt lat="43.57915" lon="3.3608">
        <ele>204.5</ele>
        <time>2016-02-14T14:16:19Z</time>
      </trkpt>
      <trkpt lat="43.57926" lon="3.36095">
        <ele>203.5</ele>
        <time>2016-02-14T14:16:21Z</time>
      </trkpt>
      <trkpt lat="43.57931" lon="3.36104">
        <ele>201.5</ele>
        <time>2016-02-14T14:16:23Z</time>
      </trkpt>
      <trkpt lat="43.57932" lon="3.3611">
        <ele>199.5</ele>
        <time>2016-02-14T14:16:25Z</time>
      </trkpt>
      <trkpt lat="43.57934" lon="3.36112">
        <ele>200</ele>
        <time>2016-02-14T14:16:26Z</time>
      </trkpt>
      <trkpt lat="43.57935" lon="3.36117">
        <ele>198.5</ele>
        <time>2016-02-14T14:16:27Z</time>
      </trkpt>
      <trkpt lat="43.57936" lon="3.36121">
        <ele>197.5</ele>
        <time>2016-02-14T14:16:28Z</time>
      </trkpt>
      <trkpt lat="43.57934" lon="3.36125">
        <ele>196.5</ele>
        <time>2016-02-14T14:16:29Z</time>
      </trkpt>
      <trkpt lat="43.5793" lon="3.36128">
        <ele>195</ele>
        <time>2016-02-14T14:16:30Z</time>
      </trkpt>
      <trkpt lat="43.57925" lon="3.3613">
        <ele>193.5</ele>
        <time>2016-02-14T14:16:31Z</time>
      </trkpt>
      <trkpt lat="43.5792" lon="3.36133">
        <ele>193</ele>
        <time>2016-02-14T14:16:32Z</time>
      </trkpt>
      <trkpt lat="43.57915" lon="3.36135">
        <ele>192</ele>
        <time>2016-02-14T14:16:33Z</time>
      </trkpt>
      <trkpt lat="43.57908" lon="3.36138">
        <ele>192</ele>
        <time>2016-02-14T14:16:34Z</time>
      </trkpt>
      <trkpt lat="43.57901" lon="3.3614">
        <ele>191</ele>
        <time>2016-02-14T14:16:35Z</time>
      </trkpt>
      <trkpt lat="43.57895" lon="3.36142">
        <ele>189.5</ele>
        <time>2016-02-14T14:16:36Z</time>
      </trkpt>
      <trkpt lat="43.57888" lon="3.36144">
        <ele>189</ele>
        <time>2016-02-14T14:16:37Z</time>
      </trkpt>
      <trkpt lat="43.57882" lon="3.36146">
        <ele>187</ele>
        <time>2016-02-14T14:16:38Z</time>
      </trkpt>
      <trkpt lat="43.57878" lon="3.36149">
        <ele>187</ele>
        <time>2016-02-14T14:16:39Z</time>
      </trkpt>
      <trkpt lat="43.57874" lon="3.36155">
        <ele>188</ele>
        <time>2016-02-14T14:16:40Z</time>
      </trkpt>
      <trkpt lat="43.57872" lon="3.36163">
        <ele>187.5</ele>
        <time>2016-02-14T14:16:41Z</time>
      </trkpt>
      <trkpt lat="43.57868" lon="3.36169">
        <ele>187.5</ele>
        <time>2016-02-14T14:16:42Z</time>
      </trkpt>
      <trkpt lat="43.57865" lon="3.36173">
        <ele>188</ele>
        <time>2016-02-14T14:16:43Z</time>
      </trkpt>
      <trkpt lat="43.57861" lon="3.36175">
        <ele>188</ele>
        <time>2016-02-14T14:16:44Z</time>
      </trkpt>
      <trkpt lat="43.57858" lon="3.36175">
        <ele>188</ele>
        <time>2016-02-14T14:16:45Z</time>
      </trkpt>
      <trkpt lat="43.57855" lon="3.36174">
        <ele>188</ele>
        <time>2016-02-14T14:16:46Z</time>
      </trkpt>
      <trkpt lat="43.57852" lon="3.36172">
        <ele>188</ele>
        <time>2016-02-14T14:16:47Z</time>
      </trkpt>
      <trkpt lat="43.57849" lon="3.36169">
        <ele>188</ele>
        <time>2016-02-14T14:16:48Z</time>
      </trkpt>
      <trkpt lat="43.57847" lon="3.36166">
        <ele>188</ele>
        <time>2016-02-14T14:16:49Z</time>
      </trkpt>
      <trkpt lat="43.57845" lon="3.36164">
        <ele>188</ele>
        <time>2016-02-14T14:16:50Z</time>
      </trkpt>
      <trkpt lat="43.57843" lon="3.36161">
        <ele>188</ele>
        <time>2016-02-14T14:16:51Z</time>
      </trkpt>
      <trkpt lat="43.57841" lon="3.36159">
        <ele>188</ele>
        <time>2016-02-14T14:16:52Z</time>
      </trkpt>
      <trkpt lat="43.5784" lon="3.36156">
        <ele>187.5</ele>
        <time>2016-02-14T14:16:53Z</time>
      </trkpt>
      <trkpt lat="43.57838" lon="3.36153">
        <ele>187.5</ele>
        <time>2016-02-14T14:16:54Z</time>
      </trkpt>
      <trkpt lat="43.57835" lon="3.3615">
        <ele>187.5</ele>
        <time>2016-02-14T14:16:55Z</time>
      </trkpt>
      <trkpt lat="43.57836" lon="3.36144">
        <ele>187.5</ele>
        <time>2016-02-14T14:16:56Z</time>
      </trkpt>
      <trkpt lat="43.57833" lon="3.36144">
        <ele>187.5</ele>
        <time>2016-02-14T14:16:57Z</time>
      </trkpt>
      <trkpt lat="43.57829" lon="3.36141">
        <ele>186.5</ele>
        <time>2016-02-14T14:16:58Z</time>
      </trkpt>
      <trkpt lat="43.57826" lon="3.36138">
        <ele>186.5</ele>
        <time>2016-02-14T14:16:59Z</time>
      </trkpt>
      <trkpt lat="43.57823" lon="3.36134">
        <ele>185.5</ele>
        <time>2016-02-14T14:17:00Z</time>
      </trkpt>
      <trkpt lat="43.57819" lon="3.3613">
        <ele>185</ele>
        <time>2016-02-14T14:17:01Z</time>
      </trkpt>
      <trkpt lat="43.57818" lon="3.36126">
        <ele>186.5</ele>
        <time>2016-02-14T14:17:02Z</time>
      </trkpt>
      <trkpt lat="43.5781" lon="3.36117">
        <ele>184.5</ele>
        <time>2016-02-14T14:17:04Z</time>
      </trkpt>
      <trkpt lat="43.57808" lon="3.36111">
        <ele>185</ele>
        <time>2016-02-14T14:17:05Z</time>
      </trkpt>
      <trkpt lat="43.57804" lon="3.36105">
        <ele>184.5</ele>
        <time>2016-02-14T14:17:06Z</time>
      </trkpt>
      <trkpt lat="43.57801" lon="3.36101">
        <ele>184</ele>
        <time>2016-02-14T14:17:07Z</time>
      </trkpt>
      <trkpt lat="43.57797" lon="3.36098">
        <ele>184</ele>
        <time>2016-02-14T14:17:08Z</time>
      </trkpt>
      <trkpt lat="43.57793" lon="3.36096">
        <ele>184</ele>
        <time>2016-02-14T14:17:09Z</time>
      </trkpt>
      <trkpt lat="43.57789" lon="3.36095">
        <ele>185</ele>
        <time>2016-02-14T14:17:10Z</time>
      </trkpt>
      <trkpt lat="43.57785" lon="3.36094">
        <ele>185.5</ele>
        <time>2016-02-14T14:17:11Z</time>
      </trkpt>
      <trkpt lat="43.57782" lon="3.36094">
        <ele>185.5</ele>
        <time>2016-02-14T14:17:12Z</time>
      </trkpt>
      <trkpt lat="43.57779" lon="3.36093">
        <ele>185.5</ele>
        <time>2016-02-14T14:17:13Z</time>
      </trkpt>
      <trkpt lat="43.57775" lon="3.36092">
        <ele>185.5</ele>
        <time>2016-02-14T14:17:14Z</time>
      </trkpt>
      <trkpt lat="43.57773" lon="3.3609">
        <ele>185.5</ele>
        <time>2016-02-14T14:17:15Z</time>
      </trkpt>
      <trkpt lat="43.57771" lon="3.36088">
        <ele>185</ele>
        <time>2016-02-14T14:17:16Z</time>
      </trkpt>
      <trkpt lat="43.57768" lon="3.36087">
        <ele>185</ele>
        <time>2016-02-14T14:17:17Z</time>
      </trkpt>
      <trkpt lat="43.57768" lon="3.36086">
        <ele>186</ele>
        <time>2016-02-14T14:17:18Z</time>
      </trkpt>
      <trkpt lat="43.57767" lon="3.36086">
        <ele>186</ele>
        <time>2016-02-14T14:17:19Z</time>
      </trkpt>
      <trkpt lat="43.57765" lon="3.36086">
        <ele>186</ele>
        <time>2016-02-14T14:17:20Z</time>
      </trkpt>
      <trkpt lat="43.57763" lon="3.36087">
        <ele>186</ele>
        <time>2016-02-14T14:17:21Z</time>
      </trkpt>
      <trkpt lat="43.57761" lon="3.36088">
        <ele>186</ele>
        <time>2016-02-14T14:17:22Z</time>
      </trkpt>
      <trkpt lat="43.57758" lon="3.36088">
        <ele>185.5</ele>
        <time>2016-02-14T14:17:23Z</time>
      </trkpt>
      <trkpt lat="43.5775" lon="3.36099">
        <ele>185.5</ele>
        <time>2016-02-14T14:17:25Z</time>
      </trkpt>
      <trkpt lat="43.57746" lon="3.36105">
        <ele>185.5</ele>
        <time>2016-02-14T14:17:26Z</time>
      </trkpt>
      <trkpt lat="43.57742" lon="3.36112">
        <ele>184.5</ele>
        <time>2016-02-14T14:17:27Z</time>
      </trkpt>
      <trkpt lat="43.57738" lon="3.36119">
        <ele>184.5</ele>
        <time>2016-02-14T14:17:28Z</time>
      </trkpt>
      <trkpt lat="43.57731" lon="3.36127">
        <ele>182.5</ele>
        <time>2016-02-14T14:17:29Z</time>
      </trkpt>
      <trkpt lat="43.57725" lon="3.36134">
        <ele>181.5</ele>
        <time>2016-02-14T14:17:30Z</time>
      </trkpt>
      <trkpt lat="43.5772" lon="3.36141">
        <ele>181</ele>
        <time>2016-02-14T14:17:31Z</time>
      </trkpt>
      <trkpt lat="43.57714" lon="3.36147">
        <ele>181</ele>
        <time>2016-02-14T14:17:32Z</time>
      </trkpt>
      <trkpt lat="43.57708" lon="3.36151">
        <ele>180.5</ele>
        <time>2016-02-14T14:17:33Z</time>
      </trkpt>
      <trkpt lat="43.57705" lon="3.36156">
        <ele>181.5</ele>
        <time>2016-02-14T14:17:34Z</time>
      </trkpt>
      <trkpt lat="43.577" lon="3.36161">
        <ele>181.5</ele>
        <time>2016-02-14T14:17:35Z</time>
      </trkpt>
      <trkpt lat="43.57696" lon="3.36165">
        <ele>181.5</ele>
        <time>2016-02-14T14:17:36Z</time>
      </trkpt>
      <trkpt lat="43.5769" lon="3.36169">
        <ele>180.5</ele>
        <time>2016-02-14T14:17:38Z</time>
      </trkpt>
      <trkpt lat="43.57689" lon="3.3617">
        <ele>180.5</ele>
        <time>2016-02-14T14:17:39Z</time>
      </trkpt>
      <trkpt lat="43.57688" lon="3.36171">
        <ele>180.5</ele>
        <time>2016-02-14T14:17:40Z</time>
      </trkpt>
      <trkpt lat="43.57686" lon="3.36172">
        <ele>180.5</ele>
        <time>2016-02-14T14:17:41Z</time>
      </trkpt>
      <trkpt lat="43.57684" lon="3.36174">
        <ele>180.5</ele>
        <time>2016-02-14T14:17:42Z</time>
      </trkpt>
      <trkpt lat="43.57682" lon="3.36176">
        <ele>180</ele>
        <time>2016-02-14T14:17:43Z</time>
      </trkpt>
      <trkpt lat="43.57679" lon="3.36179">
        <ele>180</ele>
        <time>2016-02-14T14:17:44Z</time>
      </trkpt>
      <trkpt lat="43.57677" lon="3.36181">
        <ele>180</ele>
        <time>2016-02-14T14:17:45Z</time>
      </trkpt>
      <trkpt lat="43.57674" lon="3.36184">
        <ele>180</ele>
        <time>2016-02-14T14:17:46Z</time>
      </trkpt>
      <trkpt lat="43.5767" lon="3.36186">
        <ele>178</ele>
        <time>2016-02-14T14:17:47Z</time>
      </trkpt>
      <trkpt lat="43.57667" lon="3.36189">
        <ele>177.5</ele>
        <time>2016-02-14T14:17:48Z</time>
      </trkpt>
      <trkpt lat="43.57664" lon="3.36192">
        <ele>177.5</ele>
        <time>2016-02-14T14:17:49Z</time>
      </trkpt>
      <trkpt lat="43.57664" lon="3.36195">
        <ele>177.5</ele>
        <time>2016-02-14T14:17:50Z</time>
      </trkpt>
      <trkpt lat="43.57661" lon="3.36199">
        <ele>177.5</ele>
        <time>2016-02-14T14:17:51Z</time>
      </trkpt>
      <trkpt lat="43.57658" lon="3.36203">
        <ele>178</ele>
        <time>2016-02-14T14:17:52Z</time>
      </trkpt>
      <trkpt lat="43.57654" lon="3.36206">
        <ele>177</ele>
        <time>2016-02-14T14:17:53Z</time>
      </trkpt>
      <trkpt lat="43.57651" lon="3.36211">
        <ele>177</ele>
        <time>2016-02-14T14:17:54Z</time>
      </trkpt>
      <trkpt lat="43.57646" lon="3.36217">
        <ele>178</ele>
        <time>2016-02-14T14:17:55Z</time>
      </trkpt>
      <trkpt lat="43.5764" lon="3.36222">
        <ele>177.5</ele>
        <time>2016-02-14T14:17:56Z</time>
      </trkpt>
      <trkpt lat="43.57628" lon="3.36234">
        <ele>178.5</ele>
        <time>2016-02-14T14:17:58Z</time>
      </trkpt>
      <trkpt lat="43.57623" lon="3.3624">
        <ele>179</ele>
        <time>2016-02-14T14:17:59Z</time>
      </trkpt>
      <trkpt lat="43.57611" lon="3.36253">
        <ele>178</ele>
        <time>2016-02-14T14:18:01Z</time>
      </trkpt>
      <trkpt lat="43.57607" lon="3.36257">
        <ele>178</ele>
        <time>2016-02-14T14:18:02Z</time>
      </trkpt>
      <trkpt lat="43.57602" lon="3.36263">
        <ele>178</ele>
        <time>2016-02-14T14:18:03Z</time>
      </trkpt>
      <trkpt lat="43.57599" lon="3.36268">
        <ele>178</ele>
        <time>2016-02-14T14:18:04Z</time>
      </trkpt>
      <trkpt lat="43.57597" lon="3.36273">
        <ele>178</ele>
        <time>2016-02-14T14:18:05Z</time>
      </trkpt>
      <trkpt lat="43.57596" lon="3.3628">
        <ele>178</ele>
        <time>2016-02-14T14:18:06Z</time>
      </trkpt>
      <trkpt lat="43.57594" lon="3.36287">
        <ele>177.5</ele>
        <time>2016-02-14T14:18:07Z</time>
      </trkpt>
      <trkpt lat="43.57594" lon="3.36294">
        <ele>177</ele>
        <time>2016-02-14T14:18:08Z</time>
      </trkpt>
      <trkpt lat="43.57594" lon="3.36301">
        <ele>176</ele>
        <time>2016-02-14T14:18:09Z</time>
      </trkpt>
      <trkpt lat="43.57593" lon="3.36308">
        <ele>175</ele>
        <time>2016-02-14T14:18:09Z</time>
      </trkpt>
      <trkpt lat="43.57592" lon="3.36315">
        <ele>174.5</ele>
        <time>2016-02-14T14:18:10Z</time>
      </trkpt>
      <trkpt lat="43.57592" lon="3.36322">
        <ele>174</ele>
        <time>2016-02-14T14:18:11Z</time>
      </trkpt>
      <trkpt lat="43.5759" lon="3.36329">
        <ele>173</ele>
        <time>2016-02-14T14:18:12Z</time>
      </trkpt>
      <trkpt lat="43.5759" lon="3.36336">
        <ele>172.5</ele>
        <time>2016-02-14T14:18:13Z</time>
      </trkpt>
      <trkpt lat="43.57588" lon="3.36343">
        <ele>171.5</ele>
        <time>2016-02-14T14:18:14Z</time>
      </trkpt>
      <trkpt lat="43.57587" lon="3.36349">
        <ele>171</ele>
        <time>2016-02-14T14:18:15Z</time>
      </trkpt>
      <trkpt lat="43.57585" lon="3.36354">
        <ele>171</ele>
        <time>2016-02-14T14:18:16Z</time>
      </trkpt>
      <trkpt lat="43.57583" lon="3.36359">
        <ele>170.5</ele>
        <time>2016-02-14T14:18:17Z</time>
      </trkpt>
      <trkpt lat="43.57583" lon="3.36364">
        <ele>170</ele>
        <time>2016-02-14T14:18:19Z</time>
      </trkpt>
      <trkpt lat="43.57583" lon="3.36364">
        <ele>170</ele>
        <time>2016-02-14T14:18:20Z</time>
      </trkpt>
      <trkpt lat="43.57583" lon="3.36366">
        <ele>170</ele>
        <time>2016-02-14T14:18:21Z</time>
      </trkpt>
      <trkpt lat="43.57584" lon="3.36367">
        <ele>170</ele>
        <time>2016-02-14T14:18:22Z</time>
      </trkpt>
      <trkpt lat="43.57584" lon="3.36369">
        <ele>170.5</ele>
        <time>2016-02-14T14:18:23Z</time>
      </trkpt>
      <trkpt lat="43.57584" lon="3.3637">
        <ele>170.5</ele>
        <time>2016-02-14T14:18:24Z</time>
      </trkpt>
      <trkpt lat="43.57583" lon="3.3637">
        <ele>170</ele>
        <time>2016-02-14T14:18:26Z</time>
      </trkpt>
      <trkpt lat="43.57583" lon="3.36371">
        <ele>170.5</ele>
        <time>2016-02-14T14:18:30Z</time>
      </trkpt>
      <trkpt lat="43.57583" lon="3.36371">
        <ele>171</ele>
        <time>2016-02-14T14:18:38Z</time>
      </trkpt>
      <trkpt lat="43.57583" lon="3.36371">
        <ele>171</ele>
        <time>2016-02-14T14:18:40Z</time>
      </trkpt>
      <trkpt lat="43.57583" lon="3.3637">
        <ele>171</ele>
        <time>2016-02-14T14:18:42Z</time>
      </trkpt>
      <trkpt lat="43.57582" lon="3.3637">
        <ele>170.5</ele>
        <time>2016-02-14T14:18:42Z</time>
      </trkpt>
      <trkpt lat="43.57581" lon="3.3637">
        <ele>171</ele>
        <time>2016-02-14T14:18:44Z</time>
      </trkpt>
      <trkpt lat="43.57583" lon="3.36373">
        <ele>171</ele>
        <time>2016-02-14T14:18:49Z</time>
      </trkpt>
      <trkpt lat="43.57587" lon="3.36373">
        <ele>171</ele>
        <time>2016-02-14T14:18:51Z</time>
      </trkpt>
      <trkpt lat="43.57589" lon="3.36374">
        <ele>171</ele>
        <time>2016-02-14T14:18:52Z</time>
      </trkpt>
      <trkpt lat="43.57592" lon="3.36374">
        <ele>171</ele>
        <time>2016-02-14T14:18:54Z</time>
      </trkpt>
      <trkpt lat="43.57594" lon="3.36374">
        <ele>171</ele>
        <time>2016-02-14T14:18:54Z</time>
      </trkpt>
      <trkpt lat="43.57597" lon="3.36376">
        <ele>170.5</ele>
        <time>2016-02-14T14:18:55Z</time>
      </trkpt>
      <trkpt lat="43.57601" lon="3.36378">
        <ele>170.5</ele>
        <time>2016-02-14T14:18:56Z</time>
      </trkpt>
      <trkpt lat="43.57603" lon="3.36382">
        <ele>170.5</ele>
        <time>2016-02-14T14:18:57Z</time>
      </trkpt>
      <trkpt lat="43.57606" lon="3.36383">
        <ele>170.5</ele>
        <time>2016-02-14T14:18:58Z</time>
      </trkpt>
      <trkpt lat="43.5761" lon="3.36383">
        <ele>170.5</ele>
        <time>2016-02-14T14:18:59Z</time>
      </trkpt>
      <trkpt lat="43.57613" lon="3.36383">
        <ele>170.5</ele>
        <time>2016-02-14T14:19:00Z</time>
      </trkpt>
      <trkpt lat="43.57615" lon="3.36383">
        <ele>170.5</ele>
        <time>2016-02-14T14:19:01Z</time>
      </trkpt>
      <trkpt lat="43.57619" lon="3.36383">
        <ele>170.5</ele>
        <time>2016-02-14T14:19:02Z</time>
      </trkpt>
      <trkpt lat="43.57622" lon="3.36383">
        <ele>170.5</ele>
        <time>2016-02-14T14:19:03Z</time>
      </trkpt>
      <trkpt lat="43.57626" lon="3.36383">
        <ele>170.5</ele>
        <time>2016-02-14T14:19:04Z</time>
      </trkpt>
      <trkpt lat="43.57629" lon="3.36383">
        <ele>170.5</ele>
        <time>2016-02-14T14:19:05Z</time>
      </trkpt>
      <trkpt lat="43.57632" lon="3.36384">
        <ele>170.5</ele>
        <time>2016-02-14T14:19:07Z</time>
      </trkpt>
      <trkpt lat="43.57635" lon="3.36384">
        <ele>170.5</ele>
        <time>2016-02-14T14:19:07Z</time>
      </trkpt>
      <trkpt lat="43.57638" lon="3.36385">
        <ele>170.5</ele>
        <time>2016-02-14T14:19:09Z</time>
      </trkpt>
      <trkpt lat="43.57642" lon="3.36384">
        <ele>170.5</ele>
        <time>2016-02-14T14:19:09Z</time>
      </trkpt>
      <trkpt lat="43.57645" lon="3.36382">
        <ele>170.5</ele>
        <time>2016-02-14T14:19:10Z</time>
      </trkpt>
      <trkpt lat="43.57649" lon="3.3638">
        <ele>170.5</ele>
        <time>2016-02-14T14:19:11Z</time>
      </trkpt>
      <trkpt lat="43.57652" lon="3.36381">
        <ele>170.5</ele>
        <time>2016-02-14T14:19:12Z</time>
      </trkpt>
      <trkpt lat="43.57656" lon="3.36381">
        <ele>170.5</ele>
        <time>2016-02-14T14:19:13Z</time>
      </trkpt>
      <trkpt lat="43.57659" lon="3.36382">
        <ele>170.5</ele>
        <time>2016-02-14T14:19:14Z</time>
      </trkpt>
      <trkpt lat="43.57663" lon="3.36382">
        <ele>170.5</ele>
        <time>2016-02-14T14:19:16Z</time>
      </trkpt>
      <trkpt lat="43.57666" lon="3.36383">
        <ele>170.5</ele>
        <time>2016-02-14T14:19:16Z</time>
      </trkpt>
      <trkpt lat="43.5767" lon="3.36382">
        <ele>170.5</ele>
        <time>2016-02-14T14:19:17Z</time>
      </trkpt>
      <trkpt lat="43.57673" lon="3.36383">
        <ele>170</ele>
        <time>2016-02-14T14:19:18Z</time>
      </trkpt>
      <trkpt lat="43.57677" lon="3.36383">
        <ele>170</ele>
        <time>2016-02-14T14:19:19Z</time>
      </trkpt>
      <trkpt lat="43.5768" lon="3.36383">
        <ele>170</ele>
        <time>2016-02-14T14:19:20Z</time>
      </trkpt>
      <trkpt lat="43.57683" lon="3.36382">
        <ele>170</ele>
        <time>2016-02-14T14:19:21Z</time>
      </trkpt>
      <trkpt lat="43.57687" lon="3.36382">
        <ele>170</ele>
        <time>2016-02-14T14:19:22Z</time>
      </trkpt>
      <trkpt lat="43.5769" lon="3.36382">
        <ele>170</ele>
        <time>2016-02-14T14:19:23Z</time>
      </trkpt>
      <trkpt lat="43.57693" lon="3.36383">
        <ele>170</ele>
        <time>2016-02-14T14:19:24Z</time>
      </trkpt>
      <trkpt lat="43.57695" lon="3.36385">
        <ele>170.5</ele>
        <time>2016-02-14T14:19:26Z</time>
      </trkpt>
      <trkpt lat="43.57699" lon="3.36387">
        <ele>170</ele>
        <time>2016-02-14T14:19:26Z</time>
      </trkpt>
      <trkpt lat="43.57702" lon="3.36387">
        <ele>169.5</ele>
        <time>2016-02-14T14:19:27Z</time>
      </trkpt>
      <trkpt lat="43.57705" lon="3.36388">
        <ele>169.5</ele>
        <time>2016-02-14T14:19:28Z</time>
      </trkpt>
      <trkpt lat="43.57708" lon="3.36389">
        <ele>169.5</ele>
        <time>2016-02-14T14:19:29Z</time>
      </trkpt>
      <trkpt lat="43.57709" lon="3.36395">
        <ele>169</ele>
        <time>2016-02-14T14:19:30Z</time>
      </trkpt>
      <trkpt lat="43.57709" lon="3.364">
        <ele>169</ele>
        <time>2016-02-14T14:19:31Z</time>
      </trkpt>
      <trkpt lat="43.57713" lon="3.364">
        <ele>169</ele>
        <time>2016-02-14T14:19:32Z</time>
      </trkpt>
      <trkpt lat="43.57717" lon="3.364">
        <ele>169</ele>
        <time>2016-02-14T14:19:33Z</time>
      </trkpt>
      <trkpt lat="43.57721" lon="3.364">
        <ele>169</ele>
        <time>2016-02-14T14:19:34Z</time>
      </trkpt>
      <trkpt lat="43.57725" lon="3.364">
        <ele>169</ele>
        <time>2016-02-14T14:19:35Z</time>
      </trkpt>
      <trkpt lat="43.57728" lon="3.36401">
        <ele>168.5</ele>
        <time>2016-02-14T14:19:36Z</time>
      </trkpt>
      <trkpt lat="43.57733" lon="3.36401">
        <ele>168.5</ele>
        <time>2016-02-14T14:19:37Z</time>
      </trkpt>
      <trkpt lat="43.57737" lon="3.364">
        <ele>168.5</ele>
        <time>2016-02-14T14:19:38Z</time>
      </trkpt>
      <trkpt lat="43.57741" lon="3.36401">
        <ele>168.5</ele>
        <time>2016-02-14T14:19:39Z</time>
      </trkpt>
      <trkpt lat="43.57744" lon="3.36401">
        <ele>168.5</ele>
        <time>2016-02-14T14:19:40Z</time>
      </trkpt>
      <trkpt lat="43.57747" lon="3.36401">
        <ele>168.5</ele>
        <time>2016-02-14T14:19:41Z</time>
      </trkpt>
      <trkpt lat="43.5775" lon="3.36401">
        <ele>168.5</ele>
        <time>2016-02-14T14:19:42Z</time>
      </trkpt>
      <trkpt lat="43.57754" lon="3.36398">
        <ele>168</ele>
        <time>2016-02-14T14:19:43Z</time>
      </trkpt>
      <trkpt lat="43.57758" lon="3.36399">
        <ele>168</ele>
        <time>2016-02-14T14:19:44Z</time>
      </trkpt>
      <trkpt lat="43.57761" lon="3.36399">
        <ele>169.5</ele>
        <time>2016-02-14T14:19:45Z</time>
      </trkpt>
      <trkpt lat="43.57765" lon="3.364">
        <ele>169.5</ele>
        <time>2016-02-14T14:19:46Z</time>
      </trkpt>
      <trkpt lat="43.57768" lon="3.364">
        <ele>169</ele>
        <time>2016-02-14T14:19:47Z</time>
      </trkpt>
      <trkpt lat="43.57771" lon="3.36399">
        <ele>169</ele>
        <time>2016-02-14T14:19:48Z</time>
      </trkpt>
      <trkpt lat="43.57775" lon="3.36399">
        <ele>170.5</ele>
        <time>2016-02-14T14:19:49Z</time>
      </trkpt>
      <trkpt lat="43.57779" lon="3.36398">
        <ele>170</ele>
        <time>2016-02-14T14:19:50Z</time>
      </trkpt>
      <trkpt lat="43.57782" lon="3.36397">
        <ele>170</ele>
        <time>2016-02-14T14:19:51Z</time>
      </trkpt>
      <trkpt lat="43.57787" lon="3.36397">
        <ele>169.5</ele>
        <time>2016-02-14T14:19:52Z</time>
      </trkpt>
      <trkpt lat="43.5779" lon="3.36397">
        <ele>169</ele>
        <time>2016-02-14T14:19:53Z</time>
      </trkpt>
      <trkpt lat="43.57794" lon="3.36397">
        <ele>169</ele>
        <time>2016-02-14T14:19:54Z</time>
      </trkpt>
      <trkpt lat="43.57796" lon="3.36393">
        <ele>168.5</ele>
        <time>2016-02-14T14:19:55Z</time>
      </trkpt>
      <trkpt lat="43.57801" lon="3.36395">
        <ele>168.5</ele>
        <time>2016-02-14T14:19:56Z</time>
      </trkpt>
      <trkpt lat="43.57805" lon="3.36395">
        <ele>168.5</ele>
        <time>2016-02-14T14:19:57Z</time>
      </trkpt>
      <trkpt lat="43.57809" lon="3.36396">
        <ele>168.5</ele>
        <time>2016-02-14T14:19:58Z</time>
      </trkpt>
      <trkpt lat="43.57813" lon="3.36397">
        <ele>168.5</ele>
        <time>2016-02-14T14:19:59Z</time>
      </trkpt>
      <trkpt lat="43.57816" lon="3.36396">
        <ele>168.5</ele>
        <time>2016-02-14T14:20:00Z</time>
      </trkpt>
      <trkpt lat="43.5782" lon="3.36395">
        <ele>168.5</ele>
        <time>2016-02-14T14:20:01Z</time>
      </trkpt>
      <trkpt lat="43.57823" lon="3.36394">
        <ele>168.5</ele>
        <time>2016-02-14T14:20:02Z</time>
      </trkpt>
      <trkpt lat="43.57827" lon="3.36394">
        <ele>168.5</ele>
        <time>2016-02-14T14:20:03Z</time>
      </trkpt>
      <trkpt lat="43.5783" lon="3.36392">
        <ele>168</ele>
        <time>2016-02-14T14:20:04Z</time>
      </trkpt>
      <trkpt lat="43.57834" lon="3.36391">
        <ele>168.5</ele>
        <time>2016-02-14T14:20:05Z</time>
      </trkpt>
      <trkpt lat="43.57837" lon="3.3639">
        <ele>168.5</ele>
        <time>2016-02-14T14:20:06Z</time>
      </trkpt>
      <trkpt lat="43.57841" lon="3.3639">
        <ele>168.5</ele>
        <time>2016-02-14T14:20:07Z</time>
      </trkpt>
      <trkpt lat="43.57844" lon="3.36388">
        <ele>168.5</ele>
        <time>2016-02-14T14:20:08Z</time>
      </trkpt>
      <trkpt lat="43.57848" lon="3.36388">
        <ele>169</ele>
        <time>2016-02-14T14:20:09Z</time>
      </trkpt>
      <trkpt lat="43.57851" lon="3.36387">
        <ele>169</ele>
        <time>2016-02-14T14:20:10Z</time>
      </trkpt>
      <trkpt lat="43.57855" lon="3.36386">
        <ele>169</ele>
        <time>2016-02-14T14:20:11Z</time>
      </trkpt>
      <trkpt lat="43.57858" lon="3.36386">
        <ele>169</ele>
        <time>2016-02-14T14:20:12Z</time>
      </trkpt>
      <trkpt lat="43.57862" lon="3.36385">
        <ele>169</ele>
        <time>2016-02-14T14:20:13Z</time>
      </trkpt>
      <trkpt lat="43.57866" lon="3.36385">
        <ele>169</ele>
        <time>2016-02-14T14:20:14Z</time>
      </trkpt>
      <trkpt lat="43.57869" lon="3.36384">
        <ele>169</ele>
        <time>2016-02-14T14:20:15Z</time>
      </trkpt>
      <trkpt lat="43.57872" lon="3.36384">
        <ele>168.5</ele>
        <time>2016-02-14T14:20:16Z</time>
      </trkpt>
      <trkpt lat="43.57876" lon="3.36388">
        <ele>168.5</ele>
        <time>2016-02-14T14:20:17Z</time>
      </trkpt>
      <trkpt lat="43.57878" lon="3.36392">
        <ele>168</ele>
        <time>2016-02-14T14:20:18Z</time>
      </trkpt>
      <trkpt lat="43.57881" lon="3.36396">
        <ele>167.5</ele>
        <time>2016-02-14T14:20:19Z</time>
      </trkpt>
      <trkpt lat="43.5788" lon="3.364">
        <ele>167</ele>
        <time>2016-02-14T14:20:20Z</time>
      </trkpt>
      <trkpt lat="43.57882" lon="3.36406">
        <ele>168</ele>
        <time>2016-02-14T14:20:21Z</time>
      </trkpt>
      <trkpt lat="43.57883" lon="3.36412">
        <ele>168.5</ele>
        <time>2016-02-14T14:20:22Z</time>
      </trkpt>
      <trkpt lat="43.57884" lon="3.36419">
        <ele>168</ele>
        <time>2016-02-14T14:20:23Z</time>
      </trkpt>
      <trkpt lat="43.57884" lon="3.36427">
        <ele>168</ele>
        <time>2016-02-14T14:20:24Z</time>
      </trkpt>
      <trkpt lat="43.57886" lon="3.36435">
        <ele>168</ele>
        <time>2016-02-14T14:20:25Z</time>
      </trkpt>
      <trkpt lat="43.57889" lon="3.36443">
        <ele>168</ele>
        <time>2016-02-14T14:20:26Z</time>
      </trkpt>
      <trkpt lat="43.57892" lon="3.36451">
        <ele>168</ele>
        <time>2016-02-14T14:20:27Z</time>
      </trkpt>
      <trkpt lat="43.57895" lon="3.3646">
        <ele>168</ele>
        <time>2016-02-14T14:20:28Z</time>
      </trkpt>
      <trkpt lat="43.57899" lon="3.36468">
        <ele>167</ele>
        <time>2016-02-14T14:20:29Z</time>
      </trkpt>
      <trkpt lat="43.57902" lon="3.36475">
        <ele>167.5</ele>
        <time>2016-02-14T14:20:30Z</time>
      </trkpt>
      <trkpt lat="43.57906" lon="3.36482">
        <ele>167.5</ele>
        <time>2016-02-14T14:20:31Z</time>
      </trkpt>
      <trkpt lat="43.5791" lon="3.36489">
        <ele>168</ele>
        <time>2016-02-14T14:20:32Z</time>
      </trkpt>
      <trkpt lat="43.57912" lon="3.36495">
        <ele>168</ele>
        <time>2016-02-14T14:20:33Z</time>
      </trkpt>
      <trkpt lat="43.57916" lon="3.365">
        <ele>169.5</ele>
        <time>2016-02-14T14:20:34Z</time>
      </trkpt>
      <trkpt lat="43.57917" lon="3.36505">
        <ele>170.5</ele>
        <time>2016-02-14T14:20:35Z</time>
      </trkpt>
      <trkpt lat="43.57916" lon="3.36508">
        <ele>169.5</ele>
        <time>2016-02-14T14:20:36Z</time>
      </trkpt>
      <trkpt lat="43.57914" lon="3.36511">
        <ele>169</ele>
        <time>2016-02-14T14:20:37Z</time>
      </trkpt>
      <trkpt lat="43.57913" lon="3.36512">
        <ele>169.5</ele>
        <time>2016-02-14T14:20:38Z</time>
      </trkpt>
      <trkpt lat="43.57912" lon="3.36514">
        <ele>169.5</ele>
        <time>2016-02-14T14:20:39Z</time>
      </trkpt>
      <trkpt lat="43.57912" lon="3.36514">
        <ele>169</ele>
        <time>2016-02-14T14:20:40Z</time>
      </trkpt>
      <trkpt lat="43.57911" lon="3.36516">
        <ele>169.5</ele>
        <time>2016-02-14T14:20:41Z</time>
      </trkpt>
      <trkpt lat="43.5791" lon="3.36516">
        <ele>169</ele>
        <time>2016-02-14T14:20:42Z</time>
      </trkpt>
      <trkpt lat="43.57909" lon="3.36517">
        <ele>169.5</ele>
        <time>2016-02-14T14:20:43Z</time>
      </trkpt>
      <trkpt lat="43.57908" lon="3.36518">
        <ele>169</ele>
        <time>2016-02-14T14:20:44Z</time>
      </trkpt>
      <trkpt lat="43.57906" lon="3.36518">
        <ele>168.5</ele>
        <time>2016-02-14T14:20:45Z</time>
      </trkpt>
      <trkpt lat="43.57905" lon="3.3652">
        <ele>168.5</ele>
        <time>2016-02-14T14:20:46Z</time>
      </trkpt>
      <trkpt lat="43.57904" lon="3.36521">
        <ele>168.5</ele>
        <time>2016-02-14T14:20:47Z</time>
      </trkpt>
      <trkpt lat="43.57902" lon="3.36521">
        <ele>167.5</ele>
        <time>2016-02-14T14:20:48Z</time>
      </trkpt>
      <trkpt lat="43.579" lon="3.36522">
        <ele>166.5</ele>
        <time>2016-02-14T14:20:49Z</time>
      </trkpt>
      <trkpt lat="43.57898" lon="3.36523">
        <ele>166.5</ele>
        <time>2016-02-14T14:20:50Z</time>
      </trkpt>
      <trkpt lat="43.57897" lon="3.36522">
        <ele>166.5</ele>
        <time>2016-02-14T14:20:51Z</time>
      </trkpt>
      <trkpt lat="43.57895" lon="3.36521">
        <ele>166.5</ele>
        <time>2016-02-14T14:20:52Z</time>
      </trkpt>
      <trkpt lat="43.57886" lon="3.36522">
        <ele>167</ele>
        <time>2016-02-14T14:20:54Z</time>
      </trkpt>
      <trkpt lat="43.5788" lon="3.36521">
        <ele>167</ele>
        <time>2016-02-14T14:20:56Z</time>
      </trkpt>
      <trkpt lat="43.57876" lon="3.36521">
        <ele>166.5</ele>
        <time>2016-02-14T14:20:58Z</time>
      </trkpt>
      <trkpt lat="43.57874" lon="3.36522">
        <ele>166.5</ele>
        <time>2016-02-14T14:20:59Z</time>
      </trkpt>
      <trkpt lat="43.57871" lon="3.36523">
        <ele>166.5</ele>
        <time>2016-02-14T14:21:00Z</time>
      </trkpt>
      <trkpt lat="43.57869" lon="3.36523">
        <ele>166.5</ele>
        <time>2016-02-14T14:21:01Z</time>
      </trkpt>
      <trkpt lat="43.57866" lon="3.36525">
        <ele>166.5</ele>
        <time>2016-02-14T14:21:02Z</time>
      </trkpt>
      <trkpt lat="43.57864" lon="3.36527">
        <ele>166.5</ele>
        <time>2016-02-14T14:21:03Z</time>
      </trkpt>
      <trkpt lat="43.57862" lon="3.36527">
        <ele>167</ele>
        <time>2016-02-14T14:21:04Z</time>
      </trkpt>
      <trkpt lat="43.5786" lon="3.36528">
        <ele>167</ele>
        <time>2016-02-14T14:21:05Z</time>
      </trkpt>
      <trkpt lat="43.57858" lon="3.36529">
        <ele>167.5</ele>
        <time>2016-02-14T14:21:06Z</time>
      </trkpt>
      <trkpt lat="43.57856" lon="3.36529">
        <ele>167.5</ele>
        <time>2016-02-14T14:21:07Z</time>
      </trkpt>
      <trkpt lat="43.57852" lon="3.36531">
        <ele>167.5</ele>
        <time>2016-02-14T14:21:08Z</time>
      </trkpt>
      <trkpt lat="43.5785" lon="3.36532">
        <ele>167.5</ele>
        <time>2016-02-14T14:21:09Z</time>
      </trkpt>
      <trkpt lat="43.57848" lon="3.36534">
        <ele>167.5</ele>
        <time>2016-02-14T14:21:10Z</time>
      </trkpt>
      <trkpt lat="43.57846" lon="3.36536">
        <ele>168</ele>
        <time>2016-02-14T14:21:11Z</time>
      </trkpt>
      <trkpt lat="43.57844" lon="3.36539">
        <ele>168</ele>
        <time>2016-02-14T14:21:12Z</time>
      </trkpt>
      <trkpt lat="43.57843" lon="3.36542">
        <ele>168</ele>
        <time>2016-02-14T14:21:13Z</time>
      </trkpt>
      <trkpt lat="43.57841" lon="3.36545">
        <ele>168</ele>
        <time>2016-02-14T14:21:14Z</time>
      </trkpt>
      <trkpt lat="43.5784" lon="3.3655">
        <ele>168</ele>
        <time>2016-02-14T14:21:15Z</time>
      </trkpt>
      <trkpt lat="43.5784" lon="3.36555">
        <ele>168</ele>
        <time>2016-02-14T14:21:16Z</time>
      </trkpt>
      <trkpt lat="43.57839" lon="3.3656">
        <ele>168.5</ele>
        <time>2016-02-14T14:21:17Z</time>
      </trkpt>
      <trkpt lat="43.5784" lon="3.36565">
        <ele>169.5</ele>
        <time>2016-02-14T14:21:18Z</time>
      </trkpt>
      <trkpt lat="43.57839" lon="3.3657">
        <ele>170</ele>
        <time>2016-02-14T14:21:19Z</time>
      </trkpt>
      <trkpt lat="43.57839" lon="3.36575">
        <ele>171</ele>
        <time>2016-02-14T14:21:20Z</time>
      </trkpt>
      <trkpt lat="43.57839" lon="3.3658">
        <ele>172.5</ele>
        <time>2016-02-14T14:21:21Z</time>
      </trkpt>
      <trkpt lat="43.57839" lon="3.36585">
        <ele>173</ele>
        <time>2016-02-14T14:21:22Z</time>
      </trkpt>
      <trkpt lat="43.57838" lon="3.36589">
        <ele>173</ele>
        <time>2016-02-14T14:21:23Z</time>
      </trkpt>
      <trkpt lat="43.57837" lon="3.36593">
        <ele>173</ele>
        <time>2016-02-14T14:21:24Z</time>
      </trkpt>
      <trkpt lat="43.57836" lon="3.36598">
        <ele>173.5</ele>
        <time>2016-02-14T14:21:25Z</time>
      </trkpt>
      <trkpt lat="43.57836" lon="3.36602">
        <ele>173.5</ele>
        <time>2016-02-14T14:21:26Z</time>
      </trkpt>
      <trkpt lat="43.57835" lon="3.36607">
        <ele>174</ele>
        <time>2016-02-14T14:21:27Z</time>
      </trkpt>
      <trkpt lat="43.57833" lon="3.3661">
        <ele>173.5</ele>
        <time>2016-02-14T14:21:28Z</time>
      </trkpt>
      <trkpt lat="43.57832" lon="3.36615">
        <ele>173.5</ele>
        <time>2016-02-14T14:21:29Z</time>
      </trkpt>
      <trkpt lat="43.57829" lon="3.36618">
        <ele>173</ele>
        <time>2016-02-14T14:21:30Z</time>
      </trkpt>
      <trkpt lat="43.57827" lon="3.36623">
        <ele>172.5</ele>
        <time>2016-02-14T14:21:31Z</time>
      </trkpt>
      <trkpt lat="43.57826" lon="3.36627">
        <ele>173</ele>
        <time>2016-02-14T14:21:32Z</time>
      </trkpt>
      <trkpt lat="43.57824" lon="3.3663">
        <ele>172.5</ele>
        <time>2016-02-14T14:21:33Z</time>
      </trkpt>
      <trkpt lat="43.57822" lon="3.36634">
        <ele>172</ele>
        <time>2016-02-14T14:21:34Z</time>
      </trkpt>
      <trkpt lat="43.5782" lon="3.36638">
        <ele>171.5</ele>
        <time>2016-02-14T14:21:35Z</time>
      </trkpt>
      <trkpt lat="43.57817" lon="3.36643">
        <ele>171</ele>
        <time>2016-02-14T14:21:36Z</time>
      </trkpt>
      <trkpt lat="43.57815" lon="3.36647">
        <ele>171.5</ele>
        <time>2016-02-14T14:21:37Z</time>
      </trkpt>
      <trkpt lat="43.57811" lon="3.36651">
        <ele>171.5</ele>
        <time>2016-02-14T14:21:38Z</time>
      </trkpt>
      <trkpt lat="43.57808" lon="3.36654">
        <ele>171.5</ele>
        <time>2016-02-14T14:21:39Z</time>
      </trkpt>
      <trkpt lat="43.57805" lon="3.36658">
        <ele>171.5</ele>
        <time>2016-02-14T14:21:40Z</time>
      </trkpt>
      <trkpt lat="43.57802" lon="3.36661">
        <ele>172</ele>
        <time>2016-02-14T14:21:41Z</time>
      </trkpt>
      <trkpt lat="43.57799" lon="3.36664">
        <ele>172</ele>
        <time>2016-02-14T14:21:42Z</time>
      </trkpt>
      <trkpt lat="43.57797" lon="3.36667">
        <ele>172</ele>
        <time>2016-02-14T14:21:43Z</time>
      </trkpt>
      <trkpt lat="43.57794" lon="3.36671">
        <ele>171.5</ele>
        <time>2016-02-14T14:21:44Z</time>
      </trkpt>
      <trkpt lat="43.57792" lon="3.36674">
        <ele>172</ele>
        <time>2016-02-14T14:21:45Z</time>
      </trkpt>
      <trkpt lat="43.5779" lon="3.36677">
        <ele>172</ele>
        <time>2016-02-14T14:21:46Z</time>
      </trkpt>
      <trkpt lat="43.57788" lon="3.3668">
        <ele>172</ele>
        <time>2016-02-14T14:21:47Z</time>
      </trkpt>
      <trkpt lat="43.57786" lon="3.36684">
        <ele>172</ele>
        <time>2016-02-14T14:21:48Z</time>
      </trkpt>
      <trkpt lat="43.57784" lon="3.36687">
        <ele>172.5</ele>
        <time>2016-02-14T14:21:49Z</time>
      </trkpt>
      <trkpt lat="43.57782" lon="3.36691">
        <ele>173</ele>
        <time>2016-02-14T14:21:50Z</time>
      </trkpt>
      <trkpt lat="43.57781" lon="3.36694">
        <ele>173</ele>
        <time>2016-02-14T14:21:51Z</time>
      </trkpt>
      <trkpt lat="43.5778" lon="3.36698">
        <ele>173.5</ele>
        <time>2016-02-14T14:21:52Z</time>
      </trkpt>
      <trkpt lat="43.57778" lon="3.36701">
        <ele>173.5</ele>
        <time>2016-02-14T14:21:53Z</time>
      </trkpt>
      <trkpt lat="43.57778" lon="3.36704">
        <ele>173.5</ele>
        <time>2016-02-14T14:21:54Z</time>
      </trkpt>
      <trkpt lat="43.57777" lon="3.36708">
        <ele>173.5</ele>
        <time>2016-02-14T14:21:55Z</time>
      </trkpt>
      <trkpt lat="43.57777" lon="3.36712">
        <ele>173</ele>
        <time>2016-02-14T14:21:56Z</time>
      </trkpt>
      <trkpt lat="43.57777" lon="3.36716">
        <ele>173</ele>
        <time>2016-02-14T14:21:57Z</time>
      </trkpt>
      <trkpt lat="43.57778" lon="3.3672">
        <ele>173</ele>
        <time>2016-02-14T14:21:58Z</time>
      </trkpt>
      <trkpt lat="43.57778" lon="3.36724">
        <ele>173</ele>
        <time>2016-02-14T14:21:59Z</time>
      </trkpt>
      <trkpt lat="43.57779" lon="3.36728">
        <ele>172.5</ele>
        <time>2016-02-14T14:22:00Z</time>
      </trkpt>
      <trkpt lat="43.5778" lon="3.36733">
        <ele>172.5</ele>
        <time>2016-02-14T14:22:01Z</time>
      </trkpt>
      <trkpt lat="43.57781" lon="3.36737">
        <ele>172.5</ele>
        <time>2016-02-14T14:22:02Z</time>
      </trkpt>
      <trkpt lat="43.57782" lon="3.36742">
        <ele>172.5</ele>
        <time>2016-02-14T14:22:03Z</time>
      </trkpt>
      <trkpt lat="43.57783" lon="3.36748">
        <ele>172.5</ele>
        <time>2016-02-14T14:22:04Z</time>
      </trkpt>
      <trkpt lat="43.57784" lon="3.36753">
        <ele>172.5</ele>
        <time>2016-02-14T14:22:05Z</time>
      </trkpt>
      <trkpt lat="43.57786" lon="3.36758">
        <ele>173</ele>
        <time>2016-02-14T14:22:06Z</time>
      </trkpt>
      <trkpt lat="43.57787" lon="3.36763">
        <ele>173</ele>
        <time>2016-02-14T14:22:07Z</time>
      </trkpt>
      <trkpt lat="43.57788" lon="3.36768">
        <ele>173</ele>
        <time>2016-02-14T14:22:08Z</time>
      </trkpt>
      <trkpt lat="43.57789" lon="3.36778">
        <ele>173.5</ele>
        <time>2016-02-14T14:22:10Z</time>
      </trkpt>
      <trkpt lat="43.57789" lon="3.36782">
        <ele>173.5</ele>
        <time>2016-02-14T14:22:11Z</time>
      </trkpt>
      <trkpt lat="43.5779" lon="3.36787">
        <ele>174</ele>
        <time>2016-02-14T14:22:12Z</time>
      </trkpt>
      <trkpt lat="43.5779" lon="3.36791">
        <ele>174</ele>
        <time>2016-02-14T14:22:12Z</time>
      </trkpt>
      <trkpt lat="43.57791" lon="3.36795">
        <ele>174.5</ele>
        <time>2016-02-14T14:22:14Z</time>
      </trkpt>
      <trkpt lat="43.57791" lon="3.36798">
        <ele>174.5</ele>
        <time>2016-02-14T14:22:14Z</time>
      </trkpt>
      <trkpt lat="43.57792" lon="3.36802">
        <ele>174.5</ele>
        <time>2016-02-14T14:22:15Z</time>
      </trkpt>
      <trkpt lat="43.57792" lon="3.36805">
        <ele>175</ele>
        <time>2016-02-14T14:22:16Z</time>
      </trkpt>
      <trkpt lat="43.57793" lon="3.36808">
        <ele>175.5</ele>
        <time>2016-02-14T14:22:17Z</time>
      </trkpt>
      <trkpt lat="43.57794" lon="3.36812">
        <ele>176</ele>
        <time>2016-02-14T14:22:18Z</time>
      </trkpt>
      <trkpt lat="43.57795" lon="3.36815">
        <ele>176</ele>
        <time>2016-02-14T14:22:19Z</time>
      </trkpt>
      <trkpt lat="43.57796" lon="3.36818">
        <ele>176.5</ele>
        <time>2016-02-14T14:22:20Z</time>
      </trkpt>
      <trkpt lat="43.57797" lon="3.36821">
        <ele>176.5</ele>
        <time>2016-02-14T14:22:21Z</time>
      </trkpt>
      <trkpt lat="43.57798" lon="3.36825">
        <ele>177</ele>
        <time>2016-02-14T14:22:22Z</time>
      </trkpt>
      <trkpt lat="43.57799" lon="3.36828">
        <ele>177</ele>
        <time>2016-02-14T14:22:23Z</time>
      </trkpt>
      <trkpt lat="43.578" lon="3.36831">
        <ele>177.5</ele>
        <time>2016-02-14T14:22:24Z</time>
      </trkpt>
      <trkpt lat="43.57801" lon="3.36834">
        <ele>178.5</ele>
        <time>2016-02-14T14:22:25Z</time>
      </trkpt>
      <trkpt lat="43.57802" lon="3.36838">
        <ele>178.5</ele>
        <time>2016-02-14T14:22:26Z</time>
      </trkpt>
      <trkpt lat="43.57803" lon="3.36841">
        <ele>179</ele>
        <time>2016-02-14T14:22:27Z</time>
      </trkpt>
      <trkpt lat="43.57803" lon="3.36845">
        <ele>179</ele>
        <time>2016-02-14T14:22:28Z</time>
      </trkpt>
      <trkpt lat="43.57803" lon="3.36848">
        <ele>179</ele>
        <time>2016-02-14T14:22:29Z</time>
      </trkpt>
      <trkpt lat="43.57804" lon="3.36852">
        <ele>179</ele>
        <time>2016-02-14T14:22:30Z</time>
      </trkpt>
      <trkpt lat="43.57805" lon="3.36855">
        <ele>179</ele>
        <time>2016-02-14T14:22:31Z</time>
      </trkpt>
      <trkpt lat="43.57806" lon="3.3686">
        <ele>179</ele>
        <time>2016-02-14T14:22:32Z</time>
      </trkpt>
      <trkpt lat="43.57806" lon="3.36864">
        <ele>178.5</ele>
        <time>2016-02-14T14:22:33Z</time>
      </trkpt>
      <trkpt lat="43.57806" lon="3.36869">
        <ele>178</ele>
        <time>2016-02-14T14:22:34Z</time>
      </trkpt>
      <trkpt lat="43.57807" lon="3.36874">
        <ele>178</ele>
        <time>2016-02-14T14:22:35Z</time>
      </trkpt>
      <trkpt lat="43.57807" lon="3.3688">
        <ele>177.5</ele>
        <time>2016-02-14T14:22:36Z</time>
      </trkpt>
      <trkpt lat="43.57809" lon="3.36887">
        <ele>177</ele>
        <time>2016-02-14T14:22:37Z</time>
      </trkpt>
      <trkpt lat="43.57809" lon="3.36895">
        <ele>177</ele>
        <time>2016-02-14T14:22:38Z</time>
      </trkpt>
      <trkpt lat="43.5781" lon="3.36903">
        <ele>177.5</ele>
        <time>2016-02-14T14:22:39Z</time>
      </trkpt>
      <trkpt lat="43.57809" lon="3.36911">
        <ele>177</ele>
        <time>2016-02-14T14:22:40Z</time>
      </trkpt>
      <trkpt lat="43.57808" lon="3.3692">
        <ele>176.5</ele>
        <time>2016-02-14T14:22:41Z</time>
      </trkpt>
      <trkpt lat="43.57808" lon="3.36929">
        <ele>176.5</ele>
        <time>2016-02-14T14:22:42Z</time>
      </trkpt>
      <trkpt lat="43.57807" lon="3.36938">
        <ele>176</ele>
        <time>2016-02-14T14:22:43Z</time>
      </trkpt>
      <trkpt lat="43.57807" lon="3.36947">
        <ele>176</ele>
        <time>2016-02-14T14:22:44Z</time>
      </trkpt>
      <trkpt lat="43.57805" lon="3.36957">
        <ele>174.5</ele>
        <time>2016-02-14T14:22:45Z</time>
      </trkpt>
      <trkpt lat="43.57804" lon="3.36966">
        <ele>174.5</ele>
        <time>2016-02-14T14:22:46Z</time>
      </trkpt>
      <trkpt lat="43.57802" lon="3.36976">
        <ele>174.5</ele>
        <time>2016-02-14T14:22:47Z</time>
      </trkpt>
      <trkpt lat="43.57798" lon="3.36985">
        <ele>174.5</ele>
        <time>2016-02-14T14:22:48Z</time>
      </trkpt>
      <trkpt lat="43.57795" lon="3.36994">
        <ele>174.5</ele>
        <time>2016-02-14T14:22:49Z</time>
      </trkpt>
      <trkpt lat="43.57791" lon="3.37004">
        <ele>174</ele>
        <time>2016-02-14T14:22:50Z</time>
      </trkpt>
      <trkpt lat="43.57789" lon="3.37014">
        <ele>174</ele>
        <time>2016-02-14T14:22:51Z</time>
      </trkpt>
      <trkpt lat="43.57786" lon="3.37024">
        <ele>174</ele>
        <time>2016-02-14T14:22:52Z</time>
      </trkpt>
      <trkpt lat="43.57782" lon="3.3704">
        <ele>174</ele>
        <time>2016-02-14T14:22:54Z</time>
      </trkpt>
      <trkpt lat="43.5778" lon="3.37048">
        <ele>174</ele>
        <time>2016-02-14T14:22:55Z</time>
      </trkpt>
      <trkpt lat="43.57778" lon="3.37054">
        <ele>173.5</ele>
        <time>2016-02-14T14:22:56Z</time>
      </trkpt>
      <trkpt lat="43.57778" lon="3.3706">
        <ele>174</ele>
        <time>2016-02-14T14:22:57Z</time>
      </trkpt>
      <trkpt lat="43.57777" lon="3.37065">
        <ele>174</ele>
        <time>2016-02-14T14:22:58Z</time>
      </trkpt>
      <trkpt lat="43.57777" lon="3.3707">
        <ele>173.5</ele>
        <time>2016-02-14T14:22:59Z</time>
      </trkpt>
      <trkpt lat="43.57777" lon="3.37074">
        <ele>173.5</ele>
        <time>2016-02-14T14:23:00Z</time>
      </trkpt>
      <trkpt lat="43.57777" lon="3.37077">
        <ele>173.5</ele>
        <time>2016-02-14T14:23:01Z</time>
      </trkpt>
      <trkpt lat="43.57776" lon="3.37081">
        <ele>173.5</ele>
        <time>2016-02-14T14:23:02Z</time>
      </trkpt>
      <trkpt lat="43.57779" lon="3.37084">
        <ele>173.5</ele>
        <time>2016-02-14T14:23:03Z</time>
      </trkpt>
      <trkpt lat="43.57778" lon="3.37088">
        <ele>173.5</ele>
        <time>2016-02-14T14:23:04Z</time>
      </trkpt>
      <trkpt lat="43.57777" lon="3.37091">
        <ele>173</ele>
        <time>2016-02-14T14:23:05Z</time>
      </trkpt>
      <trkpt lat="43.57776" lon="3.37094">
        <ele>172</ele>
        <time>2016-02-14T14:23:06Z</time>
      </trkpt>
      <trkpt lat="43.57775" lon="3.37097">
        <ele>172</ele>
        <time>2016-02-14T14:23:07Z</time>
      </trkpt>
      <trkpt lat="43.57774" lon="3.371">
        <ele>172</ele>
        <time>2016-02-14T14:23:08Z</time>
      </trkpt>
      <trkpt lat="43.57773" lon="3.37103">
        <ele>172</ele>
        <time>2016-02-14T14:23:09Z</time>
      </trkpt>
      <trkpt lat="43.57772" lon="3.37107">
        <ele>172</ele>
        <time>2016-02-14T14:23:10Z</time>
      </trkpt>
      <trkpt lat="43.57772" lon="3.3711">
        <ele>172</ele>
        <time>2016-02-14T14:23:11Z</time>
      </trkpt>
      <trkpt lat="43.57771" lon="3.37114">
        <ele>172.5</ele>
        <time>2016-02-14T14:23:12Z</time>
      </trkpt>
      <trkpt lat="43.5777" lon="3.37117">
        <ele>172.5</ele>
        <time>2016-02-14T14:23:13Z</time>
      </trkpt>
      <trkpt lat="43.5777" lon="3.3712">
        <ele>173</ele>
        <time>2016-02-14T14:23:14Z</time>
      </trkpt>
      <trkpt lat="43.57769" lon="3.37123">
        <ele>173</ele>
        <time>2016-02-14T14:23:15Z</time>
      </trkpt>
      <trkpt lat="43.57769" lon="3.37127">
        <ele>173.5</ele>
        <time>2016-02-14T14:23:16Z</time>
      </trkpt>
      <trkpt lat="43.57768" lon="3.3713">
        <ele>173.5</ele>
        <time>2016-02-14T14:23:17Z</time>
      </trkpt>
      <trkpt lat="43.57768" lon="3.37133">
        <ele>174</ele>
        <time>2016-02-14T14:23:18Z</time>
      </trkpt>
      <trkpt lat="43.57767" lon="3.37137">
        <ele>174</ele>
        <time>2016-02-14T14:23:19Z</time>
      </trkpt>
      <trkpt lat="43.57766" lon="3.3714">
        <ele>173.5</ele>
        <time>2016-02-14T14:23:20Z</time>
      </trkpt>
      <trkpt lat="43.57766" lon="3.37143">
        <ele>173.5</ele>
        <time>2016-02-14T14:23:21Z</time>
      </trkpt>
      <trkpt lat="43.57765" lon="3.37146">
        <ele>174</ele>
        <time>2016-02-14T14:23:22Z</time>
      </trkpt>
      <trkpt lat="43.57765" lon="3.37149">
        <ele>173.5</ele>
        <time>2016-02-14T14:23:23Z</time>
      </trkpt>
      <trkpt lat="43.57764" lon="3.37153">
        <ele>173.5</ele>
        <time>2016-02-14T14:23:24Z</time>
      </trkpt>
      <trkpt lat="43.57764" lon="3.37156">
        <ele>173.5</ele>
        <time>2016-02-14T14:23:25Z</time>
      </trkpt>
      <trkpt lat="43.57764" lon="3.37159">
        <ele>173.5</ele>
        <time>2016-02-14T14:23:26Z</time>
      </trkpt>
      <trkpt lat="43.57764" lon="3.37162">
        <ele>174</ele>
        <time>2016-02-14T14:23:27Z</time>
      </trkpt>
      <trkpt lat="43.57765" lon="3.37164">
        <ele>174</ele>
        <time>2016-02-14T14:23:28Z</time>
      </trkpt>
      <trkpt lat="43.57767" lon="3.37167">
        <ele>174.5</ele>
        <time>2016-02-14T14:23:29Z</time>
      </trkpt>
      <trkpt lat="43.57769" lon="3.37169">
        <ele>175</ele>
        <time>2016-02-14T14:23:30Z</time>
      </trkpt>
      <trkpt lat="43.57771" lon="3.37172">
        <ele>176</ele>
        <time>2016-02-14T14:23:31Z</time>
      </trkpt>
      <trkpt lat="43.57772" lon="3.37174">
        <ele>176</ele>
        <time>2016-02-14T14:23:32Z</time>
      </trkpt>
      <trkpt lat="43.57774" lon="3.37176">
        <ele>176.5</ele>
        <time>2016-02-14T14:23:33Z</time>
      </trkpt>
      <trkpt lat="43.57776" lon="3.37177">
        <ele>176.5</ele>
        <time>2016-02-14T14:23:34Z</time>
      </trkpt>
      <trkpt lat="43.57778" lon="3.37177">
        <ele>176.5</ele>
        <time>2016-02-14T14:23:35Z</time>
      </trkpt>
      <trkpt lat="43.57781" lon="3.37179">
        <ele>177</ele>
        <time>2016-02-14T14:23:36Z</time>
      </trkpt>
      <trkpt lat="43.57783" lon="3.37181">
        <ele>177</ele>
        <time>2016-02-14T14:23:37Z</time>
      </trkpt>
      <trkpt lat="43.57785" lon="3.37183">
        <ele>177</ele>
        <time>2016-02-14T14:23:38Z</time>
      </trkpt>
      <trkpt lat="43.57787" lon="3.37185">
        <ele>177</ele>
        <time>2016-02-14T14:23:39Z</time>
      </trkpt>
      <trkpt lat="43.57789" lon="3.37186">
        <ele>177</ele>
        <time>2016-02-14T14:23:40Z</time>
      </trkpt>
      <trkpt lat="43.57791" lon="3.37188">
        <ele>177</ele>
        <time>2016-02-14T14:23:41Z</time>
      </trkpt>
      <trkpt lat="43.57793" lon="3.3719">
        <ele>177</ele>
        <time>2016-02-14T14:23:42Z</time>
      </trkpt>
      <trkpt lat="43.57795" lon="3.37192">
        <ele>177</ele>
        <time>2016-02-14T14:23:43Z</time>
      </trkpt>
      <trkpt lat="43.57797" lon="3.37194">
        <ele>177.5</ele>
        <time>2016-02-14T14:23:44Z</time>
      </trkpt>
      <trkpt lat="43.57799" lon="3.37196">
        <ele>177.5</ele>
        <time>2016-02-14T14:23:45Z</time>
      </trkpt>
      <trkpt lat="43.57802" lon="3.37199">
        <ele>177.5</ele>
        <time>2016-02-14T14:23:46Z</time>
      </trkpt>
      <trkpt lat="43.57804" lon="3.37202">
        <ele>176</ele>
        <time>2016-02-14T14:23:47Z</time>
      </trkpt>
      <trkpt lat="43.57806" lon="3.37204">
        <ele>176</ele>
        <time>2016-02-14T14:23:48Z</time>
      </trkpt>
      <trkpt lat="43.57809" lon="3.37206">
        <ele>176</ele>
        <time>2016-02-14T14:23:49Z</time>
      </trkpt>
      <trkpt lat="43.57811" lon="3.37208">
        <ele>176</ele>
        <time>2016-02-14T14:23:50Z</time>
      </trkpt>
      <trkpt lat="43.57813" lon="3.3721">
        <ele>176</ele>
        <time>2016-02-14T14:23:51Z</time>
      </trkpt>
      <trkpt lat="43.57815" lon="3.37212">
        <ele>176</ele>
        <time>2016-02-14T14:23:52Z</time>
      </trkpt>
      <trkpt lat="43.57817" lon="3.37214">
        <ele>176</ele>
        <time>2016-02-14T14:23:53Z</time>
      </trkpt>
      <trkpt lat="43.57819" lon="3.37216">
        <ele>176</ele>
        <time>2016-02-14T14:23:54Z</time>
      </trkpt>
      <trkpt lat="43.57822" lon="3.37218">
        <ele>176</ele>
        <time>2016-02-14T14:23:55Z</time>
      </trkpt>
      <trkpt lat="43.57824" lon="3.3722">
        <ele>176</ele>
        <time>2016-02-14T14:23:56Z</time>
      </trkpt>
      <trkpt lat="43.57827" lon="3.37222">
        <ele>176</ele>
        <time>2016-02-14T14:23:57Z</time>
      </trkpt>
      <trkpt lat="43.57829" lon="3.37223">
        <ele>176</ele>
        <time>2016-02-14T14:23:58Z</time>
      </trkpt>
      <trkpt lat="43.57832" lon="3.37225">
        <ele>176</ele>
        <time>2016-02-14T14:23:59Z</time>
      </trkpt>
      <trkpt lat="43.57835" lon="3.37226">
        <ele>177.5</ele>
        <time>2016-02-14T14:24:00Z</time>
      </trkpt>
      <trkpt lat="43.57837" lon="3.37227">
        <ele>179</ele>
        <time>2016-02-14T14:24:01Z</time>
      </trkpt>
      <trkpt lat="43.5784" lon="3.37228">
        <ele>181</ele>
        <time>2016-02-14T14:24:02Z</time>
      </trkpt>
      <trkpt lat="43.57842" lon="3.37229">
        <ele>181.5</ele>
        <time>2016-02-14T14:24:03Z</time>
      </trkpt>
      <trkpt lat="43.57844" lon="3.37231">
        <ele>182.5</ele>
        <time>2016-02-14T14:24:04Z</time>
      </trkpt>
      <trkpt lat="43.57846" lon="3.37233">
        <ele>182.5</ele>
        <time>2016-02-14T14:24:05Z</time>
      </trkpt>
      <trkpt lat="43.57848" lon="3.37234">
        <ele>182.5</ele>
        <time>2016-02-14T14:24:06Z</time>
      </trkpt>
      <trkpt lat="43.57849" lon="3.37236">
        <ele>182.5</ele>
        <time>2016-02-14T14:24:07Z</time>
      </trkpt>
      <trkpt lat="43.57851" lon="3.37237">
        <ele>183</ele>
        <time>2016-02-14T14:24:08Z</time>
      </trkpt>
      <trkpt lat="43.57853" lon="3.37239">
        <ele>183.5</ele>
        <time>2016-02-14T14:24:09Z</time>
      </trkpt>
      <trkpt lat="43.57855" lon="3.3724">
        <ele>183.5</ele>
        <time>2016-02-14T14:24:10Z</time>
      </trkpt>
      <trkpt lat="43.57858" lon="3.37242">
        <ele>183.5</ele>
        <time>2016-02-14T14:24:11Z</time>
      </trkpt>
      <trkpt lat="43.5786" lon="3.37244">
        <ele>184</ele>
        <time>2016-02-14T14:24:12Z</time>
      </trkpt>
      <trkpt lat="43.57863" lon="3.37245">
        <ele>184</ele>
        <time>2016-02-14T14:24:13Z</time>
      </trkpt>
      <trkpt lat="43.57866" lon="3.37247">
        <ele>184.5</ele>
        <time>2016-02-14T14:24:14Z</time>
      </trkpt>
      <trkpt lat="43.57868" lon="3.37248">
        <ele>184.5</ele>
        <time>2016-02-14T14:24:15Z</time>
      </trkpt>
      <trkpt lat="43.5787" lon="3.3725">
        <ele>184.5</ele>
        <time>2016-02-14T14:24:16Z</time>
      </trkpt>
      <trkpt lat="43.57873" lon="3.37252">
        <ele>184.5</ele>
        <time>2016-02-14T14:24:17Z</time>
      </trkpt>
      <trkpt lat="43.57875" lon="3.37254">
        <ele>184.5</ele>
        <time>2016-02-14T14:24:18Z</time>
      </trkpt>
      <trkpt lat="43.57877" lon="3.37255">
        <ele>184.5</ele>
        <time>2016-02-14T14:24:19Z</time>
      </trkpt>
      <trkpt lat="43.5788" lon="3.37256">
        <ele>186.5</ele>
        <time>2016-02-14T14:24:20Z</time>
      </trkpt>
      <trkpt lat="43.57883" lon="3.37258">
        <ele>186.5</ele>
        <time>2016-02-14T14:24:21Z</time>
      </trkpt>
      <trkpt lat="43.57885" lon="3.37261">
        <ele>186.5</ele>
        <time>2016-02-14T14:24:22Z</time>
      </trkpt>
      <trkpt lat="43.57889" lon="3.37263">
        <ele>186.5</ele>
        <time>2016-02-14T14:24:23Z</time>
      </trkpt>
      <trkpt lat="43.57892" lon="3.37265">
        <ele>186</ele>
        <time>2016-02-14T14:24:24Z</time>
      </trkpt>
      <trkpt lat="43.57896" lon="3.37268">
        <ele>185.5</ele>
        <time>2016-02-14T14:24:25Z</time>
      </trkpt>
      <trkpt lat="43.57901" lon="3.37271">
        <ele>185.5</ele>
        <time>2016-02-14T14:24:26Z</time>
      </trkpt>
      <trkpt lat="43.57905" lon="3.37275">
        <ele>185.5</ele>
        <time>2016-02-14T14:24:27Z</time>
      </trkpt>
      <trkpt lat="43.5791" lon="3.37278">
        <ele>186</ele>
        <time>2016-02-14T14:24:28Z</time>
      </trkpt>
      <trkpt lat="43.57915" lon="3.37281">
        <ele>186</ele>
        <time>2016-02-14T14:24:29Z</time>
      </trkpt>
      <trkpt lat="43.5792" lon="3.37285">
        <ele>186</ele>
        <time>2016-02-14T14:24:30Z</time>
      </trkpt>
      <trkpt lat="43.57925" lon="3.37288">
        <ele>185.5</ele>
        <time>2016-02-14T14:24:31Z</time>
      </trkpt>
      <trkpt lat="43.5793" lon="3.37291">
        <ele>186.5</ele>
        <time>2016-02-14T14:24:32Z</time>
      </trkpt>
      <trkpt lat="43.57935" lon="3.37294">
        <ele>186.5</ele>
        <time>2016-02-14T14:24:33Z</time>
      </trkpt>
      <trkpt lat="43.5794" lon="3.37297">
        <ele>186</ele>
        <time>2016-02-14T14:24:34Z</time>
      </trkpt>
      <trkpt lat="43.57944" lon="3.373">
        <ele>186</ele>
        <time>2016-02-14T14:24:35Z</time>
      </trkpt>
      <trkpt lat="43.57948" lon="3.37302">
        <ele>186</ele>
        <time>2016-02-14T14:24:36Z</time>
      </trkpt>
      <trkpt lat="43.57953" lon="3.37304">
        <ele>186</ele>
        <time>2016-02-14T14:24:37Z</time>
      </trkpt>
      <trkpt lat="43.57958" lon="3.37306">
        <ele>186</ele>
        <time>2016-02-14T14:24:38Z</time>
      </trkpt>
      <trkpt lat="43.57963" lon="3.3731">
        <ele>186</ele>
        <time>2016-02-14T14:24:39Z</time>
      </trkpt>
      <trkpt lat="43.57967" lon="3.37313">
        <ele>186.5</ele>
        <time>2016-02-14T14:24:40Z</time>
      </trkpt>
      <trkpt lat="43.57972" lon="3.37317">
        <ele>187</ele>
        <time>2016-02-14T14:24:41Z</time>
      </trkpt>
      <trkpt lat="43.57978" lon="3.37318">
        <ele>189</ele>
        <time>2016-02-14T14:24:42Z</time>
      </trkpt>
      <trkpt lat="43.57982" lon="3.37321">
        <ele>189</ele>
        <time>2016-02-14T14:24:43Z</time>
      </trkpt>
      <trkpt lat="43.57986" lon="3.37325">
        <ele>189</ele>
        <time>2016-02-14T14:24:44Z</time>
      </trkpt>
      <trkpt lat="43.5799" lon="3.37328">
        <ele>188.5</ele>
        <time>2016-02-14T14:24:45Z</time>
      </trkpt>
      <trkpt lat="43.57993" lon="3.37332">
        <ele>188.5</ele>
        <time>2016-02-14T14:24:46Z</time>
      </trkpt>
      <trkpt lat="43.57996" lon="3.3734">
        <ele>189</ele>
        <time>2016-02-14T14:24:48Z</time>
      </trkpt>
      <trkpt lat="43.57998" lon="3.37345">
        <ele>189</ele>
        <time>2016-02-14T14:24:49Z</time>
      </trkpt>
      <trkpt lat="43.57999" lon="3.3735">
        <ele>189</ele>
        <time>2016-02-14T14:24:50Z</time>
      </trkpt>
      <trkpt lat="43.58" lon="3.37355">
        <ele>188.5</ele>
        <time>2016-02-14T14:24:51Z</time>
      </trkpt>
      <trkpt lat="43.58001" lon="3.37359">
        <ele>188</ele>
        <time>2016-02-14T14:24:52Z</time>
      </trkpt>
      <trkpt lat="43.58002" lon="3.37364">
        <ele>187.5</ele>
        <time>2016-02-14T14:24:53Z</time>
      </trkpt>
      <trkpt lat="43.58004" lon="3.37369">
        <ele>186.5</ele>
        <time>2016-02-14T14:24:54Z</time>
      </trkpt>
      <trkpt lat="43.58005" lon="3.37373">
        <ele>186.5</ele>
        <time>2016-02-14T14:24:55Z</time>
      </trkpt>
      <trkpt lat="43.58006" lon="3.37377">
        <ele>186</ele>
        <time>2016-02-14T14:24:56Z</time>
      </trkpt>
      <trkpt lat="43.58007" lon="3.37381">
        <ele>186</ele>
        <time>2016-02-14T14:24:57Z</time>
      </trkpt>
      <trkpt lat="43.58008" lon="3.37385">
        <ele>185.5</ele>
        <time>2016-02-14T14:24:58Z</time>
      </trkpt>
      <trkpt lat="43.5801" lon="3.37388">
        <ele>185.5</ele>
        <time>2016-02-14T14:24:59Z</time>
      </trkpt>
      <trkpt lat="43.58011" lon="3.37392">
        <ele>185.5</ele>
        <time>2016-02-14T14:25:00Z</time>
      </trkpt>
      <trkpt lat="43.58012" lon="3.37395">
        <ele>185.5</ele>
        <time>2016-02-14T14:25:01Z</time>
      </trkpt>
      <trkpt lat="43.58013" lon="3.37398">
        <ele>185.5</ele>
        <time>2016-02-14T14:25:02Z</time>
      </trkpt>
      <trkpt lat="43.58014" lon="3.37402">
        <ele>185</ele>
        <time>2016-02-14T14:25:03Z</time>
      </trkpt>
      <trkpt lat="43.58015" lon="3.37405">
        <ele>185.5</ele>
        <time>2016-02-14T14:25:04Z</time>
      </trkpt>
      <trkpt lat="43.58016" lon="3.37408">
        <ele>185.5</ele>
        <time>2016-02-14T14:25:05Z</time>
      </trkpt>
      <trkpt lat="43.58017" lon="3.37412">
        <ele>185.5</ele>
        <time>2016-02-14T14:25:06Z</time>
      </trkpt>
      <trkpt lat="43.58018" lon="3.37415">
        <ele>185</ele>
        <time>2016-02-14T14:25:07Z</time>
      </trkpt>
      <trkpt lat="43.58018" lon="3.37418">
        <ele>185.5</ele>
        <time>2016-02-14T14:25:08Z</time>
      </trkpt>
      <trkpt lat="43.58019" lon="3.37422">
        <ele>185</ele>
        <time>2016-02-14T14:25:09Z</time>
      </trkpt>
      <trkpt lat="43.5802" lon="3.37425">
        <ele>185</ele>
        <time>2016-02-14T14:25:10Z</time>
      </trkpt>
      <trkpt lat="43.5802" lon="3.37428">
        <ele>185</ele>
        <time>2016-02-14T14:25:11Z</time>
      </trkpt>
      <trkpt lat="43.58021" lon="3.3743">
        <ele>186</ele>
        <time>2016-02-14T14:25:12Z</time>
      </trkpt>
      <trkpt lat="43.58021" lon="3.37433">
        <ele>186.5</ele>
        <time>2016-02-14T14:25:13Z</time>
      </trkpt>
      <trkpt lat="43.58022" lon="3.37436">
        <ele>186.5</ele>
        <time>2016-02-14T14:25:14Z</time>
      </trkpt>
      <trkpt lat="43.58023" lon="3.37439">
        <ele>187</ele>
        <time>2016-02-14T14:25:15Z</time>
      </trkpt>
      <trkpt lat="43.58024" lon="3.37441">
        <ele>187</ele>
        <time>2016-02-14T14:25:16Z</time>
      </trkpt>
      <trkpt lat="43.58025" lon="3.37444">
        <ele>187</ele>
        <time>2016-02-14T14:25:17Z</time>
      </trkpt>
      <trkpt lat="43.58026" lon="3.37447">
        <ele>186.5</ele>
        <time>2016-02-14T14:25:18Z</time>
      </trkpt>
      <trkpt lat="43.58027" lon="3.3745">
        <ele>187</ele>
        <time>2016-02-14T14:25:19Z</time>
      </trkpt>
      <trkpt lat="43.58028" lon="3.37453">
        <ele>187</ele>
        <time>2016-02-14T14:25:20Z</time>
      </trkpt>
      <trkpt lat="43.58029" lon="3.37455">
        <ele>187.5</ele>
        <time>2016-02-14T14:25:21Z</time>
      </trkpt>
      <trkpt lat="43.58031" lon="3.37458">
        <ele>187.5</ele>
        <time>2016-02-14T14:25:22Z</time>
      </trkpt>
      <trkpt lat="43.58032" lon="3.3746">
        <ele>188.5</ele>
        <time>2016-02-14T14:25:23Z</time>
      </trkpt>
      <trkpt lat="43.58034" lon="3.37461">
        <ele>190</ele>
        <time>2016-02-14T14:25:24Z</time>
      </trkpt>
      <trkpt lat="43.58039" lon="3.37465">
        <ele>193</ele>
        <time>2016-02-14T14:25:26Z</time>
      </trkpt>
      <trkpt lat="43.58041" lon="3.37467">
        <ele>195</ele>
        <time>2016-02-14T14:25:27Z</time>
      </trkpt>
      <trkpt lat="43.58042" lon="3.37469">
        <ele>195.5</ele>
        <time>2016-02-14T14:25:28Z</time>
      </trkpt>
      <trkpt lat="43.58042" lon="3.37471">
        <ele>196</ele>
        <time>2016-02-14T14:25:29Z</time>
      </trkpt>
      <trkpt lat="43.58044" lon="3.37473">
        <ele>196</ele>
        <time>2016-02-14T14:25:30Z</time>
      </trkpt>
      <trkpt lat="43.58045" lon="3.37476">
        <ele>196.5</ele>
        <time>2016-02-14T14:25:31Z</time>
      </trkpt>
      <trkpt lat="43.58046" lon="3.37479">
        <ele>197</ele>
        <time>2016-02-14T14:25:32Z</time>
      </trkpt>
      <trkpt lat="43.58047" lon="3.37481">
        <ele>197.5</ele>
        <time>2016-02-14T14:25:33Z</time>
      </trkpt>
      <trkpt lat="43.58048" lon="3.37483">
        <ele>198</ele>
        <time>2016-02-14T14:25:34Z</time>
      </trkpt>
      <trkpt lat="43.58049" lon="3.37486">
        <ele>198</ele>
        <time>2016-02-14T14:25:35Z</time>
      </trkpt>
      <trkpt lat="43.5805" lon="3.37488">
        <ele>199</ele>
        <time>2016-02-14T14:25:36Z</time>
      </trkpt>
      <trkpt lat="43.58051" lon="3.37491">
        <ele>199</ele>
        <time>2016-02-14T14:25:36Z</time>
      </trkpt>
      <trkpt lat="43.58052" lon="3.37493">
        <ele>199.5</ele>
        <time>2016-02-14T14:25:38Z</time>
      </trkpt>
      <trkpt lat="43.58054" lon="3.37496">
        <ele>199.5</ele>
        <time>2016-02-14T14:25:38Z</time>
      </trkpt>
      <trkpt lat="43.58055" lon="3.37498">
        <ele>200</ele>
        <time>2016-02-14T14:25:39Z</time>
      </trkpt>
      <trkpt lat="43.58056" lon="3.375">
        <ele>200</ele>
        <time>2016-02-14T14:25:40Z</time>
      </trkpt>
      <trkpt lat="43.58057" lon="3.37502">
        <ele>201</ele>
        <time>2016-02-14T14:25:41Z</time>
      </trkpt>
      <trkpt lat="43.58058" lon="3.37504">
        <ele>201.5</ele>
        <time>2016-02-14T14:25:42Z</time>
      </trkpt>
      <trkpt lat="43.58059" lon="3.37506">
        <ele>201.5</ele>
        <time>2016-02-14T14:25:43Z</time>
      </trkpt>
      <trkpt lat="43.5806" lon="3.37509">
        <ele>202</ele>
        <time>2016-02-14T14:25:44Z</time>
      </trkpt>
      <trkpt lat="43.58061" lon="3.37511">
        <ele>202</ele>
        <time>2016-02-14T14:25:45Z</time>
      </trkpt>
      <trkpt lat="43.58062" lon="3.37512">
        <ele>202</ele>
        <time>2016-02-14T14:25:46Z</time>
      </trkpt>
      <trkpt lat="43.58063" lon="3.37514">
        <ele>203.5</ele>
        <time>2016-02-14T14:25:47Z</time>
      </trkpt>
      <trkpt lat="43.58064" lon="3.37515">
        <ele>205</ele>
        <time>2016-02-14T14:25:48Z</time>
      </trkpt>
      <trkpt lat="43.58065" lon="3.37517">
        <ele>206.5</ele>
        <time>2016-02-14T14:25:49Z</time>
      </trkpt>
      <trkpt lat="43.58069" lon="3.37521">
        <ele>207</ele>
        <time>2016-02-14T14:25:51Z</time>
      </trkpt>
      <trkpt lat="43.5807" lon="3.37523">
        <ele>207</ele>
        <time>2016-02-14T14:25:52Z</time>
      </trkpt>
      <trkpt lat="43.58072" lon="3.37524">
        <ele>207</ele>
        <time>2016-02-14T14:25:53Z</time>
      </trkpt>
      <trkpt lat="43.58074" lon="3.37525">
        <ele>208</ele>
        <time>2016-02-14T14:25:54Z</time>
      </trkpt>
      <trkpt lat="43.58076" lon="3.37526">
        <ele>208</ele>
        <time>2016-02-14T14:25:55Z</time>
      </trkpt>
      <trkpt lat="43.58077" lon="3.37527">
        <ele>208.5</ele>
        <time>2016-02-14T14:25:56Z</time>
      </trkpt>
      <trkpt lat="43.58078" lon="3.37528">
        <ele>208.5</ele>
        <time>2016-02-14T14:25:57Z</time>
      </trkpt>
      <trkpt lat="43.5808" lon="3.37529">
        <ele>208.5</ele>
        <time>2016-02-14T14:25:58Z</time>
      </trkpt>
      <trkpt lat="43.58082" lon="3.37531">
        <ele>209.5</ele>
        <time>2016-02-14T14:25:59Z</time>
      </trkpt>
      <trkpt lat="43.58083" lon="3.37532">
        <ele>210.5</ele>
        <time>2016-02-14T14:26:00Z</time>
      </trkpt>
      <trkpt lat="43.58084" lon="3.37534">
        <ele>210.5</ele>
        <time>2016-02-14T14:26:01Z</time>
      </trkpt>
      <trkpt lat="43.58084" lon="3.37537">
        <ele>210.5</ele>
        <time>2016-02-14T14:26:02Z</time>
      </trkpt>
      <trkpt lat="43.58085" lon="3.37539">
        <ele>210.5</ele>
        <time>2016-02-14T14:26:03Z</time>
      </trkpt>
      <trkpt lat="43.58088" lon="3.37542">
        <ele>211.5</ele>
        <time>2016-02-14T14:26:04Z</time>
      </trkpt>
      <trkpt lat="43.58089" lon="3.37544">
        <ele>211.5</ele>
        <time>2016-02-14T14:26:05Z</time>
      </trkpt>
      <trkpt lat="43.58091" lon="3.37547">
        <ele>212.5</ele>
        <time>2016-02-14T14:26:06Z</time>
      </trkpt>
      <trkpt lat="43.58092" lon="3.37549">
        <ele>212.5</ele>
        <time>2016-02-14T14:26:07Z</time>
      </trkpt>
      <trkpt lat="43.58094" lon="3.37552">
        <ele>212.5</ele>
        <time>2016-02-14T14:26:08Z</time>
      </trkpt>
      <trkpt lat="43.58095" lon="3.37554">
        <ele>212</ele>
        <time>2016-02-14T14:26:09Z</time>
      </trkpt>
      <trkpt lat="43.58096" lon="3.37557">
        <ele>212</ele>
        <time>2016-02-14T14:26:10Z</time>
      </trkpt>
      <trkpt lat="43.58098" lon="3.37559">
        <ele>212</ele>
        <time>2016-02-14T14:26:11Z</time>
      </trkpt>
      <trkpt lat="43.58099" lon="3.37562">
        <ele>212.5</ele>
        <time>2016-02-14T14:26:12Z</time>
      </trkpt>
      <trkpt lat="43.581" lon="3.37564">
        <ele>212.5</ele>
        <time>2016-02-14T14:26:13Z</time>
      </trkpt>
      <trkpt lat="43.58101" lon="3.37567">
        <ele>212.5</ele>
        <time>2016-02-14T14:26:14Z</time>
      </trkpt>
      <trkpt lat="43.58103" lon="3.3757">
        <ele>212</ele>
        <time>2016-02-14T14:26:15Z</time>
      </trkpt>
      <trkpt lat="43.58104" lon="3.37572">
        <ele>212</ele>
        <time>2016-02-14T14:26:16Z</time>
      </trkpt>
      <trkpt lat="43.58106" lon="3.37575">
        <ele>211.5</ele>
        <time>2016-02-14T14:26:17Z</time>
      </trkpt>
      <trkpt lat="43.58108" lon="3.37578">
        <ele>211</ele>
        <time>2016-02-14T14:26:18Z</time>
      </trkpt>
      <trkpt lat="43.58109" lon="3.3758">
        <ele>211.5</ele>
        <time>2016-02-14T14:26:19Z</time>
      </trkpt>
      <trkpt lat="43.58111" lon="3.37583">
        <ele>211</ele>
        <time>2016-02-14T14:26:20Z</time>
      </trkpt>
      <trkpt lat="43.58112" lon="3.37585">
        <ele>211.5</ele>
        <time>2016-02-14T14:26:21Z</time>
      </trkpt>
      <trkpt lat="43.58113" lon="3.37588">
        <ele>212</ele>
        <time>2016-02-14T14:26:22Z</time>
      </trkpt>
      <trkpt lat="43.58114" lon="3.3759">
        <ele>212</ele>
        <time>2016-02-14T14:26:23Z</time>
      </trkpt>
      <trkpt lat="43.58116" lon="3.37592">
        <ele>212</ele>
        <time>2016-02-14T14:26:24Z</time>
      </trkpt>
      <trkpt lat="43.58117" lon="3.37593">
        <ele>212.5</ele>
        <time>2016-02-14T14:26:25Z</time>
      </trkpt>
      <trkpt lat="43.58119" lon="3.37595">
        <ele>212.5</ele>
        <time>2016-02-14T14:26:26Z</time>
      </trkpt>
      <trkpt lat="43.58121" lon="3.37598">
        <ele>212</ele>
        <time>2016-02-14T14:26:27Z</time>
      </trkpt>
      <trkpt lat="43.58122" lon="3.376">
        <ele>212</ele>
        <time>2016-02-14T14:26:28Z</time>
      </trkpt>
      <trkpt lat="43.58122" lon="3.37603">
        <ele>212</ele>
        <time>2016-02-14T14:26:29Z</time>
      </trkpt>
      <trkpt lat="43.58123" lon="3.37605">
        <ele>211.5</ele>
        <time>2016-02-14T14:26:30Z</time>
      </trkpt>
      <trkpt lat="43.58124" lon="3.37608">
        <ele>211</ele>
        <time>2016-02-14T14:26:31Z</time>
      </trkpt>
      <trkpt lat="43.58124" lon="3.37611">
        <ele>210.5</ele>
        <time>2016-02-14T14:26:32Z</time>
      </trkpt>
      <trkpt lat="43.58124" lon="3.37614">
        <ele>210</ele>
        <time>2016-02-14T14:26:33Z</time>
      </trkpt>
      <trkpt lat="43.58124" lon="3.37616">
        <ele>209.5</ele>
        <time>2016-02-14T14:26:34Z</time>
      </trkpt>
      <trkpt lat="43.58124" lon="3.37619">
        <ele>209.5</ele>
        <time>2016-02-14T14:26:35Z</time>
      </trkpt>
      <trkpt lat="43.58124" lon="3.37622">
        <ele>209</ele>
        <time>2016-02-14T14:26:36Z</time>
      </trkpt>
      <trkpt lat="43.58123" lon="3.37625">
        <ele>208.5</ele>
        <time>2016-02-14T14:26:37Z</time>
      </trkpt>
      <trkpt lat="43.58123" lon="3.37627">
        <ele>208.5</ele>
        <time>2016-02-14T14:26:38Z</time>
      </trkpt>
      <trkpt lat="43.58123" lon="3.3763">
        <ele>208.5</ele>
        <time>2016-02-14T14:26:39Z</time>
      </trkpt>
      <trkpt lat="43.58124" lon="3.37633">
        <ele>208.5</ele>
        <time>2016-02-14T14:26:40Z</time>
      </trkpt>
      <trkpt lat="43.58123" lon="3.37635">
        <ele>208</ele>
        <time>2016-02-14T14:26:41Z</time>
      </trkpt>
      <trkpt lat="43.58123" lon="3.37638">
        <ele>208</ele>
        <time>2016-02-14T14:26:42Z</time>
      </trkpt>
      <trkpt lat="43.58123" lon="3.37641">
        <ele>208</ele>
        <time>2016-02-14T14:26:43Z</time>
      </trkpt>
      <trkpt lat="43.58123" lon="3.37644">
        <ele>207.5</ele>
        <time>2016-02-14T14:26:44Z</time>
      </trkpt>
      <trkpt lat="43.58123" lon="3.37647">
        <ele>207.5</ele>
        <time>2016-02-14T14:26:45Z</time>
      </trkpt>
      <trkpt lat="43.58123" lon="3.37649">
        <ele>207.5</ele>
        <time>2016-02-14T14:26:46Z</time>
      </trkpt>
      <trkpt lat="43.58123" lon="3.37652">
        <ele>207.5</ele>
        <time>2016-02-14T14:26:47Z</time>
      </trkpt>
      <trkpt lat="43.58123" lon="3.37655">
        <ele>207.5</ele>
        <time>2016-02-14T14:26:48Z</time>
      </trkpt>
      <trkpt lat="43.58123" lon="3.37658">
        <ele>208</ele>
        <time>2016-02-14T14:26:49Z</time>
      </trkpt>
      <trkpt lat="43.58123" lon="3.37661">
        <ele>208</ele>
        <time>2016-02-14T14:26:50Z</time>
      </trkpt>
      <trkpt lat="43.58122" lon="3.37664">
        <ele>207.5</ele>
        <time>2016-02-14T14:26:51Z</time>
      </trkpt>
      <trkpt lat="43.58122" lon="3.37667">
        <ele>207.5</ele>
        <time>2016-02-14T14:26:52Z</time>
      </trkpt>
      <trkpt lat="43.58122" lon="3.3767">
        <ele>207.5</ele>
        <time>2016-02-14T14:26:53Z</time>
      </trkpt>
      <trkpt lat="43.58121" lon="3.37673">
        <ele>207.5</ele>
        <time>2016-02-14T14:26:54Z</time>
      </trkpt>
      <trkpt lat="43.58121" lon="3.37676">
        <ele>208</ele>
        <time>2016-02-14T14:26:55Z</time>
      </trkpt>
      <trkpt lat="43.58121" lon="3.37679">
        <ele>208</ele>
        <time>2016-02-14T14:26:56Z</time>
      </trkpt>
      <trkpt lat="43.58121" lon="3.37681">
        <ele>208</ele>
        <time>2016-02-14T14:26:57Z</time>
      </trkpt>
      <trkpt lat="43.58121" lon="3.37684">
        <ele>208</ele>
        <time>2016-02-14T14:26:58Z</time>
      </trkpt>
      <trkpt lat="43.58121" lon="3.37687">
        <ele>207.5</ele>
        <time>2016-02-14T14:26:59Z</time>
      </trkpt>
      <trkpt lat="43.58121" lon="3.3769">
        <ele>207.5</ele>
        <time>2016-02-14T14:27:00Z</time>
      </trkpt>
      <trkpt lat="43.5812" lon="3.37693">
        <ele>206.5</ele>
        <time>2016-02-14T14:27:01Z</time>
      </trkpt>
      <trkpt lat="43.58119" lon="3.37696">
        <ele>206</ele>
        <time>2016-02-14T14:27:02Z</time>
      </trkpt>
      <trkpt lat="43.58119" lon="3.37699">
        <ele>206</ele>
        <time>2016-02-14T14:27:03Z</time>
      </trkpt>
      <trkpt lat="43.58119" lon="3.37702">
        <ele>206.5</ele>
        <time>2016-02-14T14:27:04Z</time>
      </trkpt>
      <trkpt lat="43.5812" lon="3.37705">
        <ele>206.5</ele>
        <time>2016-02-14T14:27:05Z</time>
      </trkpt>
      <trkpt lat="43.58121" lon="3.37708">
        <ele>206.5</ele>
        <time>2016-02-14T14:27:06Z</time>
      </trkpt>
      <trkpt lat="43.58128" lon="3.3771">
        <ele>208</ele>
        <time>2016-02-14T14:27:08Z</time>
      </trkpt>
      <trkpt lat="43.58129" lon="3.37712">
        <ele>208</ele>
        <time>2016-02-14T14:27:09Z</time>
      </trkpt>
      <trkpt lat="43.5813" lon="3.37714">
        <ele>207.5</ele>
        <time>2016-02-14T14:27:10Z</time>
      </trkpt>
      <trkpt lat="43.58131" lon="3.37716">
        <ele>207.5</ele>
        <time>2016-02-14T14:27:11Z</time>
      </trkpt>
      <trkpt lat="43.58133" lon="3.37718">
        <ele>207.5</ele>
        <time>2016-02-14T14:27:12Z</time>
      </trkpt>
      <trkpt lat="43.58134" lon="3.3772">
        <ele>207.5</ele>
        <time>2016-02-14T14:27:13Z</time>
      </trkpt>
      <trkpt lat="43.58135" lon="3.37723">
        <ele>208</ele>
        <time>2016-02-14T14:27:14Z</time>
      </trkpt>
      <trkpt lat="43.58136" lon="3.37725">
        <ele>208.5</ele>
        <time>2016-02-14T14:27:15Z</time>
      </trkpt>
      <trkpt lat="43.58137" lon="3.37728">
        <ele>210</ele>
        <time>2016-02-14T14:27:16Z</time>
      </trkpt>
      <trkpt lat="43.58138" lon="3.37731">
        <ele>211.5</ele>
        <time>2016-02-14T14:27:17Z</time>
      </trkpt>
      <trkpt lat="43.58139" lon="3.37734">
        <ele>213</ele>
        <time>2016-02-14T14:27:18Z</time>
      </trkpt>
      <trkpt lat="43.5814" lon="3.37738">
        <ele>214.5</ele>
        <time>2016-02-14T14:27:19Z</time>
      </trkpt>
      <trkpt lat="43.58142" lon="3.37741">
        <ele>216</ele>
        <time>2016-02-14T14:27:20Z</time>
      </trkpt>
      <trkpt lat="43.58143" lon="3.37743">
        <ele>216.5</ele>
        <time>2016-02-14T14:27:21Z</time>
      </trkpt>
      <trkpt lat="43.58145" lon="3.37746">
        <ele>217</ele>
        <time>2016-02-14T14:27:22Z</time>
      </trkpt>
      <trkpt lat="43.58147" lon="3.37749">
        <ele>217.5</ele>
        <time>2016-02-14T14:27:23Z</time>
      </trkpt>
      <trkpt lat="43.58148" lon="3.37752">
        <ele>218.5</ele>
        <time>2016-02-14T14:27:24Z</time>
      </trkpt>
      <trkpt lat="43.58149" lon="3.37755">
        <ele>219</ele>
        <time>2016-02-14T14:27:25Z</time>
      </trkpt>
      <trkpt lat="43.58151" lon="3.37758">
        <ele>219</ele>
        <time>2016-02-14T14:27:26Z</time>
      </trkpt>
      <trkpt lat="43.58152" lon="3.37761">
        <ele>219.5</ele>
        <time>2016-02-14T14:27:27Z</time>
      </trkpt>
      <trkpt lat="43.58153" lon="3.37764">
        <ele>219.5</ele>
        <time>2016-02-14T14:27:28Z</time>
      </trkpt>
      <trkpt lat="43.58154" lon="3.37767">
        <ele>220</ele>
        <time>2016-02-14T14:27:29Z</time>
      </trkpt>
      <trkpt lat="43.58156" lon="3.37771">
        <ele>220</ele>
        <time>2016-02-14T14:27:30Z</time>
      </trkpt>
      <trkpt lat="43.58157" lon="3.37775">
        <ele>220.5</ele>
        <time>2016-02-14T14:27:31Z</time>
      </trkpt>
      <trkpt lat="43.58158" lon="3.37779">
        <ele>220</ele>
        <time>2016-02-14T14:27:32Z</time>
      </trkpt>
      <trkpt lat="43.58159" lon="3.37784">
        <ele>220</ele>
        <time>2016-02-14T14:27:33Z</time>
      </trkpt>
      <trkpt lat="43.58161" lon="3.37788">
        <ele>220</ele>
        <time>2016-02-14T14:27:34Z</time>
      </trkpt>
      <trkpt lat="43.58164" lon="3.37792">
        <ele>220</ele>
        <time>2016-02-14T14:27:35Z</time>
      </trkpt>
      <trkpt lat="43.58165" lon="3.37796">
        <ele>219.5</ele>
        <time>2016-02-14T14:27:36Z</time>
      </trkpt>
      <trkpt lat="43.58168" lon="3.378">
        <ele>219.5</ele>
        <time>2016-02-14T14:27:37Z</time>
      </trkpt>
      <trkpt lat="43.58171" lon="3.37803">
        <ele>219</ele>
        <time>2016-02-14T14:27:38Z</time>
      </trkpt>
      <trkpt lat="43.58174" lon="3.37805">
        <ele>219</ele>
        <time>2016-02-14T14:27:39Z</time>
      </trkpt>
      <trkpt lat="43.58177" lon="3.37807">
        <ele>219</ele>
        <time>2016-02-14T14:27:40Z</time>
      </trkpt>
      <trkpt lat="43.5818" lon="3.37808">
        <ele>218.5</ele>
        <time>2016-02-14T14:27:41Z</time>
      </trkpt>
      <trkpt lat="43.58182" lon="3.3781">
        <ele>218</ele>
        <time>2016-02-14T14:27:42Z</time>
      </trkpt>
      <trkpt lat="43.58185" lon="3.37812">
        <ele>218.5</ele>
        <time>2016-02-14T14:27:43Z</time>
      </trkpt>
      <trkpt lat="43.58188" lon="3.37814">
        <ele>218.5</ele>
        <time>2016-02-14T14:27:44Z</time>
      </trkpt>
      <trkpt lat="43.58191" lon="3.37816">
        <ele>219</ele>
        <time>2016-02-14T14:27:45Z</time>
      </trkpt>
      <trkpt lat="43.58194" lon="3.37818">
        <ele>219.5</ele>
        <time>2016-02-14T14:27:46Z</time>
      </trkpt>
      <trkpt lat="43.58197" lon="3.3782">
        <ele>220</ele>
        <time>2016-02-14T14:27:47Z</time>
      </trkpt>
      <trkpt lat="43.582" lon="3.37823">
        <ele>220</ele>
        <time>2016-02-14T14:27:48Z</time>
      </trkpt>
      <trkpt lat="43.58202" lon="3.37826">
        <ele>220</ele>
        <time>2016-02-14T14:27:49Z</time>
      </trkpt>
      <trkpt lat="43.58204" lon="3.37829">
        <ele>220</ele>
        <time>2016-02-14T14:27:50Z</time>
      </trkpt>
      <trkpt lat="43.58207" lon="3.37832">
        <ele>220</ele>
        <time>2016-02-14T14:27:51Z</time>
      </trkpt>
      <trkpt lat="43.58208" lon="3.37835">
        <ele>220</ele>
        <time>2016-02-14T14:27:52Z</time>
      </trkpt>
      <trkpt lat="43.5821" lon="3.37838">
        <ele>220</ele>
        <time>2016-02-14T14:27:53Z</time>
      </trkpt>
      <trkpt lat="43.58209" lon="3.3784">
        <ele>220</ele>
        <time>2016-02-14T14:27:54Z</time>
      </trkpt>
      <trkpt lat="43.58214" lon="3.37847">
        <ele>220</ele>
        <time>2016-02-14T14:27:56Z</time>
      </trkpt>
      <trkpt lat="43.58217" lon="3.37851">
        <ele>220</ele>
        <time>2016-02-14T14:27:57Z</time>
      </trkpt>
      <trkpt lat="43.5822" lon="3.37855">
        <ele>220.5</ele>
        <time>2016-02-14T14:27:58Z</time>
      </trkpt>
      <trkpt lat="43.58223" lon="3.3786">
        <ele>220.5</ele>
        <time>2016-02-14T14:27:59Z</time>
      </trkpt>
      <trkpt lat="43.58227" lon="3.37863">
        <ele>220</ele>
        <time>2016-02-14T14:28:00Z</time>
      </trkpt>
      <trkpt lat="43.58231" lon="3.37866">
        <ele>220</ele>
        <time>2016-02-14T14:28:01Z</time>
      </trkpt>
      <trkpt lat="43.58235" lon="3.3787">
        <ele>220.5</ele>
        <time>2016-02-14T14:28:02Z</time>
      </trkpt>
      <trkpt lat="43.5824" lon="3.37875">
        <ele>220.5</ele>
        <time>2016-02-14T14:28:03Z</time>
      </trkpt>
      <trkpt lat="43.58245" lon="3.37878">
        <ele>220.5</ele>
        <time>2016-02-14T14:28:04Z</time>
      </trkpt>
      <trkpt lat="43.58249" lon="3.3788">
        <ele>220.5</ele>
        <time>2016-02-14T14:28:05Z</time>
      </trkpt>
      <trkpt lat="43.58253" lon="3.37883">
        <ele>220</ele>
        <time>2016-02-14T14:28:06Z</time>
      </trkpt>
      <trkpt lat="43.58257" lon="3.37888">
        <ele>218.5</ele>
        <time>2016-02-14T14:28:07Z</time>
      </trkpt>
      <trkpt lat="43.58263" lon="3.37892">
        <ele>218</ele>
        <time>2016-02-14T14:28:08Z</time>
      </trkpt>
      <trkpt lat="43.58268" lon="3.37896">
        <ele>218</ele>
        <time>2016-02-14T14:28:09Z</time>
      </trkpt>
      <trkpt lat="43.58274" lon="3.37901">
        <ele>217.5</ele>
        <time>2016-02-14T14:28:10Z</time>
      </trkpt>
      <trkpt lat="43.5828" lon="3.37906">
        <ele>218.5</ele>
        <time>2016-02-14T14:28:11Z</time>
      </trkpt>
      <trkpt lat="43.58286" lon="3.37912">
        <ele>218</ele>
        <time>2016-02-14T14:28:12Z</time>
      </trkpt>
      <trkpt lat="43.58291" lon="3.37917">
        <ele>218</ele>
        <time>2016-02-14T14:28:13Z</time>
      </trkpt>
      <trkpt lat="43.58295" lon="3.37923">
        <ele>217.5</ele>
        <time>2016-02-14T14:28:14Z</time>
      </trkpt>
      <trkpt lat="43.583" lon="3.37928">
        <ele>217.5</ele>
        <time>2016-02-14T14:28:15Z</time>
      </trkpt>
      <trkpt lat="43.58304" lon="3.37932">
        <ele>217.5</ele>
        <time>2016-02-14T14:28:16Z</time>
      </trkpt>
      <trkpt lat="43.58309" lon="3.37936">
        <ele>217.5</ele>
        <time>2016-02-14T14:28:17Z</time>
      </trkpt>
      <trkpt lat="43.58313" lon="3.3794">
        <ele>217.5</ele>
        <time>2016-02-14T14:28:18Z</time>
      </trkpt>
      <trkpt lat="43.58317" lon="3.37944">
        <ele>218</ele>
        <time>2016-02-14T14:28:19Z</time>
      </trkpt>
      <trkpt lat="43.58321" lon="3.37948">
        <ele>218</ele>
        <time>2016-02-14T14:28:20Z</time>
      </trkpt>
      <trkpt lat="43.58323" lon="3.37954">
        <ele>218.5</ele>
        <time>2016-02-14T14:28:21Z</time>
      </trkpt>
      <trkpt lat="43.58323" lon="3.37959">
        <ele>218.5</ele>
        <time>2016-02-14T14:28:22Z</time>
      </trkpt>
      <trkpt lat="43.58324" lon="3.37964">
        <ele>218.5</ele>
        <time>2016-02-14T14:28:23Z</time>
      </trkpt>
      <trkpt lat="43.58324" lon="3.37969">
        <ele>218.5</ele>
        <time>2016-02-14T14:28:24Z</time>
      </trkpt>
      <trkpt lat="43.58323" lon="3.37975">
        <ele>218.5</ele>
        <time>2016-02-14T14:28:25Z</time>
      </trkpt>
      <trkpt lat="43.58323" lon="3.37981">
        <ele>219</ele>
        <time>2016-02-14T14:28:26Z</time>
      </trkpt>
      <trkpt lat="43.58325" lon="3.37985">
        <ele>220</ele>
        <time>2016-02-14T14:28:27Z</time>
      </trkpt>
      <trkpt lat="43.58325" lon="3.3799">
        <ele>220</ele>
        <time>2016-02-14T14:28:28Z</time>
      </trkpt>
      <trkpt lat="43.58325" lon="3.37995">
        <ele>220</ele>
        <time>2016-02-14T14:28:29Z</time>
      </trkpt>
      <trkpt lat="43.58327" lon="3.38">
        <ele>220</ele>
        <time>2016-02-14T14:28:30Z</time>
      </trkpt>
      <trkpt lat="43.58328" lon="3.38005">
        <ele>220.5</ele>
        <time>2016-02-14T14:28:31Z</time>
      </trkpt>
      <trkpt lat="43.58329" lon="3.3801">
        <ele>221</ele>
        <time>2016-02-14T14:28:32Z</time>
      </trkpt>
      <trkpt lat="43.58329" lon="3.38014">
        <ele>221</ele>
        <time>2016-02-14T14:28:33Z</time>
      </trkpt>
      <trkpt lat="43.5833" lon="3.38019">
        <ele>221.5</ele>
        <time>2016-02-14T14:28:34Z</time>
      </trkpt>
      <trkpt lat="43.5833" lon="3.38023">
        <ele>222</ele>
        <time>2016-02-14T14:28:35Z</time>
      </trkpt>
      <trkpt lat="43.58331" lon="3.38027">
        <ele>222</ele>
        <time>2016-02-14T14:28:36Z</time>
      </trkpt>
      <trkpt lat="43.58332" lon="3.38031">
        <ele>222</ele>
        <time>2016-02-14T14:28:37Z</time>
      </trkpt>
      <trkpt lat="43.58332" lon="3.38035">
        <ele>222</ele>
        <time>2016-02-14T14:28:38Z</time>
      </trkpt>
      <trkpt lat="43.58333" lon="3.38038">
        <ele>222</ele>
        <time>2016-02-14T14:28:39Z</time>
      </trkpt>
      <trkpt lat="43.58334" lon="3.38041">
        <ele>222</ele>
        <time>2016-02-14T14:28:40Z</time>
      </trkpt>
      <trkpt lat="43.58336" lon="3.38044">
        <ele>221.5</ele>
        <time>2016-02-14T14:28:41Z</time>
      </trkpt>
      <trkpt lat="43.58338" lon="3.38046">
        <ele>221.5</ele>
        <time>2016-02-14T14:28:42Z</time>
      </trkpt>
      <trkpt lat="43.58339" lon="3.38049">
        <ele>221.5</ele>
        <time>2016-02-14T14:28:43Z</time>
      </trkpt>
      <trkpt lat="43.58341" lon="3.38052">
        <ele>221.5</ele>
        <time>2016-02-14T14:28:44Z</time>
      </trkpt>
      <trkpt lat="43.58342" lon="3.38054">
        <ele>222</ele>
        <time>2016-02-14T14:28:45Z</time>
      </trkpt>
      <trkpt lat="43.58343" lon="3.38056">
        <ele>222</ele>
        <time>2016-02-14T14:28:46Z</time>
      </trkpt>
      <trkpt lat="43.58345" lon="3.38059">
        <ele>222.5</ele>
        <time>2016-02-14T14:28:47Z</time>
      </trkpt>
      <trkpt lat="43.58346" lon="3.38062">
        <ele>223</ele>
        <time>2016-02-14T14:28:48Z</time>
      </trkpt>
      <trkpt lat="43.58347" lon="3.38064">
        <ele>223</ele>
        <time>2016-02-14T14:28:49Z</time>
      </trkpt>
      <trkpt lat="43.58347" lon="3.38068">
        <ele>223.5</ele>
        <time>2016-02-14T14:28:50Z</time>
      </trkpt>
      <trkpt lat="43.58348" lon="3.38071">
        <ele>223.5</ele>
        <time>2016-02-14T14:28:51Z</time>
      </trkpt>
      <trkpt lat="43.58348" lon="3.38074">
        <ele>223.5</ele>
        <time>2016-02-14T14:28:52Z</time>
      </trkpt>
      <trkpt lat="43.58348" lon="3.38078">
        <ele>223.5</ele>
        <time>2016-02-14T14:28:53Z</time>
      </trkpt>
      <trkpt lat="43.58349" lon="3.38082">
        <ele>223.5</ele>
        <time>2016-02-14T14:28:54Z</time>
      </trkpt>
      <trkpt lat="43.5835" lon="3.38086">
        <ele>224</ele>
        <time>2016-02-14T14:28:55Z</time>
      </trkpt>
      <trkpt lat="43.58351" lon="3.3809">
        <ele>224.5</ele>
        <time>2016-02-14T14:28:56Z</time>
      </trkpt>
      <trkpt lat="43.58353" lon="3.38093">
        <ele>225</ele>
        <time>2016-02-14T14:28:57Z</time>
      </trkpt>
      <trkpt lat="43.58354" lon="3.38097">
        <ele>225</ele>
        <time>2016-02-14T14:28:58Z</time>
      </trkpt>
      <trkpt lat="43.58355" lon="3.38101">
        <ele>225</ele>
        <time>2016-02-14T14:28:59Z</time>
      </trkpt>
      <trkpt lat="43.58357" lon="3.38106">
        <ele>225</ele>
        <time>2016-02-14T14:29:00Z</time>
      </trkpt>
      <trkpt lat="43.58358" lon="3.3811">
        <ele>224.5</ele>
        <time>2016-02-14T14:29:00Z</time>
      </trkpt>
      <trkpt lat="43.5836" lon="3.38114">
        <ele>224.5</ele>
        <time>2016-02-14T14:29:01Z</time>
      </trkpt>
      <trkpt lat="43.58362" lon="3.38117">
        <ele>224.5</ele>
        <time>2016-02-14T14:29:02Z</time>
      </trkpt>
      <trkpt lat="43.58364" lon="3.3812">
        <ele>225</ele>
        <time>2016-02-14T14:29:03Z</time>
      </trkpt>
      <trkpt lat="43.58366" lon="3.38123">
        <ele>225.5</ele>
        <time>2016-02-14T14:29:04Z</time>
      </trkpt>
      <trkpt lat="43.58369" lon="3.38126">
        <ele>226</ele>
        <time>2016-02-14T14:29:05Z</time>
      </trkpt>
      <trkpt lat="43.58371" lon="3.38129">
        <ele>226</ele>
        <time>2016-02-14T14:29:06Z</time>
      </trkpt>
      <trkpt lat="43.58373" lon="3.38132">
        <ele>225.5</ele>
        <time>2016-02-14T14:29:07Z</time>
      </trkpt>
      <trkpt lat="43.58375" lon="3.38135">
        <ele>226</ele>
        <time>2016-02-14T14:29:08Z</time>
      </trkpt>
      <trkpt lat="43.58377" lon="3.38138">
        <ele>226</ele>
        <time>2016-02-14T14:29:09Z</time>
      </trkpt>
      <trkpt lat="43.58379" lon="3.3814">
        <ele>226.5</ele>
        <time>2016-02-14T14:29:10Z</time>
      </trkpt>
      <trkpt lat="43.58381" lon="3.38143">
        <ele>226.5</ele>
        <time>2016-02-14T14:29:11Z</time>
      </trkpt>
      <trkpt lat="43.58383" lon="3.38146">
        <ele>227</ele>
        <time>2016-02-14T14:29:12Z</time>
      </trkpt>
      <trkpt lat="43.58385" lon="3.38149">
        <ele>226.5</ele>
        <time>2016-02-14T14:29:13Z</time>
      </trkpt>
      <trkpt lat="43.58387" lon="3.38152">
        <ele>227</ele>
        <time>2016-02-14T14:29:14Z</time>
      </trkpt>
      <trkpt lat="43.58389" lon="3.38155">
        <ele>227.5</ele>
        <time>2016-02-14T14:29:15Z</time>
      </trkpt>
      <trkpt lat="43.58391" lon="3.38158">
        <ele>228</ele>
        <time>2016-02-14T14:29:16Z</time>
      </trkpt>
      <trkpt lat="43.58392" lon="3.3816">
        <ele>228.5</ele>
        <time>2016-02-14T14:29:17Z</time>
      </trkpt>
      <trkpt lat="43.58395" lon="3.38163">
        <ele>229</ele>
        <time>2016-02-14T14:29:18Z</time>
      </trkpt>
      <trkpt lat="43.58397" lon="3.38165">
        <ele>230</ele>
        <time>2016-02-14T14:29:19Z</time>
      </trkpt>
      <trkpt lat="43.58399" lon="3.38169">
        <ele>230</ele>
        <time>2016-02-14T14:29:20Z</time>
      </trkpt>
      <trkpt lat="43.58402" lon="3.38172">
        <ele>231</ele>
        <time>2016-02-14T14:29:21Z</time>
      </trkpt>
      <trkpt lat="43.58405" lon="3.38175">
        <ele>232</ele>
        <time>2016-02-14T14:29:22Z</time>
      </trkpt>
      <trkpt lat="43.58407" lon="3.38177">
        <ele>232.5</ele>
        <time>2016-02-14T14:29:23Z</time>
      </trkpt>
      <trkpt lat="43.5841" lon="3.3818">
        <ele>232.5</ele>
        <time>2016-02-14T14:29:24Z</time>
      </trkpt>
      <trkpt lat="43.58412" lon="3.38183">
        <ele>232.5</ele>
        <time>2016-02-14T14:29:25Z</time>
      </trkpt>
      <trkpt lat="43.58414" lon="3.38187">
        <ele>232</ele>
        <time>2016-02-14T14:29:26Z</time>
      </trkpt>
      <trkpt lat="43.58415" lon="3.38192">
        <ele>231.5</ele>
        <time>2016-02-14T14:29:27Z</time>
      </trkpt>
      <trkpt lat="43.58416" lon="3.38196">
        <ele>232.5</ele>
        <time>2016-02-14T14:29:28Z</time>
      </trkpt>
      <trkpt lat="43.58415" lon="3.38201">
        <ele>232</ele>
        <time>2016-02-14T14:29:29Z</time>
      </trkpt>
      <trkpt lat="43.58414" lon="3.38204">
        <ele>232</ele>
        <time>2016-02-14T14:29:30Z</time>
      </trkpt>
      <trkpt lat="43.58413" lon="3.38208">
        <ele>231.5</ele>
        <time>2016-02-14T14:29:31Z</time>
      </trkpt>
      <trkpt lat="43.58413" lon="3.38211">
        <ele>231.5</ele>
        <time>2016-02-14T14:29:32Z</time>
      </trkpt>
      <trkpt lat="43.58413" lon="3.38214">
        <ele>231.5</ele>
        <time>2016-02-14T14:29:33Z</time>
      </trkpt>
      <trkpt lat="43.58413" lon="3.38217">
        <ele>231</ele>
        <time>2016-02-14T14:29:34Z</time>
      </trkpt>
      <trkpt lat="43.58413" lon="3.3822">
        <ele>231</ele>
        <time>2016-02-14T14:29:35Z</time>
      </trkpt>
      <trkpt lat="43.58413" lon="3.38223">
        <ele>231</ele>
        <time>2016-02-14T14:29:36Z</time>
      </trkpt>
      <trkpt lat="43.58417" lon="3.38228">
        <ele>231</ele>
        <time>2016-02-14T14:29:38Z</time>
      </trkpt>
      <trkpt lat="43.58417" lon="3.38231">
        <ele>231</ele>
        <time>2016-02-14T14:29:39Z</time>
      </trkpt>
      <trkpt lat="43.58418" lon="3.38234">
        <ele>231.5</ele>
        <time>2016-02-14T14:29:40Z</time>
      </trkpt>
      <trkpt lat="43.58418" lon="3.38237">
        <ele>231.5</ele>
        <time>2016-02-14T14:29:41Z</time>
      </trkpt>
      <trkpt lat="43.58419" lon="3.38239">
        <ele>231.5</ele>
        <time>2016-02-14T14:29:42Z</time>
      </trkpt>
      <trkpt lat="43.5842" lon="3.38241">
        <ele>232</ele>
        <time>2016-02-14T14:29:43Z</time>
      </trkpt>
      <trkpt lat="43.58422" lon="3.38243">
        <ele>232.5</ele>
        <time>2016-02-14T14:29:44Z</time>
      </trkpt>
      <trkpt lat="43.58423" lon="3.38244">
        <ele>233.5</ele>
        <time>2016-02-14T14:29:45Z</time>
      </trkpt>
      <trkpt lat="43.58424" lon="3.38246">
        <ele>233.5</ele>
        <time>2016-02-14T14:29:46Z</time>
      </trkpt>
      <trkpt lat="43.58425" lon="3.38248">
        <ele>234</ele>
        <time>2016-02-14T14:29:47Z</time>
      </trkpt>
      <trkpt lat="43.58426" lon="3.38251">
        <ele>234</ele>
        <time>2016-02-14T14:29:48Z</time>
      </trkpt>
      <trkpt lat="43.58427" lon="3.38253">
        <ele>234.5</ele>
        <time>2016-02-14T14:29:49Z</time>
      </trkpt>
      <trkpt lat="43.58428" lon="3.38255">
        <ele>234.5</ele>
        <time>2016-02-14T14:29:50Z</time>
      </trkpt>
      <trkpt lat="43.58428" lon="3.38257">
        <ele>234.5</ele>
        <time>2016-02-14T14:29:51Z</time>
      </trkpt>
      <trkpt lat="43.58429" lon="3.3826">
        <ele>234.5</ele>
        <time>2016-02-14T14:29:52Z</time>
      </trkpt>
      <trkpt lat="43.58429" lon="3.38262">
        <ele>235</ele>
        <time>2016-02-14T14:29:53Z</time>
      </trkpt>
      <trkpt lat="43.58429" lon="3.38264">
        <ele>235</ele>
        <time>2016-02-14T14:29:54Z</time>
      </trkpt>
      <trkpt lat="43.5843" lon="3.38266">
        <ele>235</ele>
        <time>2016-02-14T14:29:55Z</time>
      </trkpt>
      <trkpt lat="43.58431" lon="3.38268">
        <ele>235</ele>
        <time>2016-02-14T14:29:56Z</time>
      </trkpt>
      <trkpt lat="43.58431" lon="3.38271">
        <ele>235</ele>
        <time>2016-02-14T14:29:57Z</time>
      </trkpt>
      <trkpt lat="43.58431" lon="3.38273">
        <ele>235.5</ele>
        <time>2016-02-14T14:29:58Z</time>
      </trkpt>
      <trkpt lat="43.58431" lon="3.38275">
        <ele>235.5</ele>
        <time>2016-02-14T14:29:59Z</time>
      </trkpt>
      <trkpt lat="43.58431" lon="3.38277">
        <ele>236</ele>
        <time>2016-02-14T14:30:00Z</time>
      </trkpt>
      <trkpt lat="43.58432" lon="3.3828">
        <ele>236</ele>
        <time>2016-02-14T14:30:01Z</time>
      </trkpt>
      <trkpt lat="43.58432" lon="3.38282">
        <ele>236</ele>
        <time>2016-02-14T14:30:02Z</time>
      </trkpt>
      <trkpt lat="43.58432" lon="3.38284">
        <ele>237</ele>
        <time>2016-02-14T14:30:03Z</time>
      </trkpt>
      <trkpt lat="43.58433" lon="3.38286">
        <ele>237.5</ele>
        <time>2016-02-14T14:30:04Z</time>
      </trkpt>
      <trkpt lat="43.58434" lon="3.38289">
        <ele>237.5</ele>
        <time>2016-02-14T14:30:05Z</time>
      </trkpt>
      <trkpt lat="43.58434" lon="3.38291">
        <ele>238</ele>
        <time>2016-02-14T14:30:06Z</time>
      </trkpt>
      <trkpt lat="43.58433" lon="3.38292">
        <ele>238</ele>
        <time>2016-02-14T14:30:07Z</time>
      </trkpt>
      <trkpt lat="43.58434" lon="3.38294">
        <ele>238</ele>
        <time>2016-02-14T14:30:08Z</time>
      </trkpt>
      <trkpt lat="43.58433" lon="3.38296">
        <ele>238.5</ele>
        <time>2016-02-14T14:30:09Z</time>
      </trkpt>
      <trkpt lat="43.58434" lon="3.38298">
        <ele>238.5</ele>
        <time>2016-02-14T14:30:10Z</time>
      </trkpt>
      <trkpt lat="43.58434" lon="3.383">
        <ele>239</ele>
        <time>2016-02-14T14:30:11Z</time>
      </trkpt>
      <trkpt lat="43.58434" lon="3.38302">
        <ele>239</ele>
        <time>2016-02-14T14:30:12Z</time>
      </trkpt>
      <trkpt lat="43.58435" lon="3.38304">
        <ele>239</ele>
        <time>2016-02-14T14:30:13Z</time>
      </trkpt>
      <trkpt lat="43.58435" lon="3.38306">
        <ele>239</ele>
        <time>2016-02-14T14:30:14Z</time>
      </trkpt>
      <trkpt lat="43.58435" lon="3.38308">
        <ele>239</ele>
        <time>2016-02-14T14:30:15Z</time>
      </trkpt>
      <trkpt lat="43.58435" lon="3.3831">
        <ele>239.5</ele>
        <time>2016-02-14T14:30:16Z</time>
      </trkpt>
      <trkpt lat="43.58436" lon="3.38312">
        <ele>239.5</ele>
        <time>2016-02-14T14:30:17Z</time>
      </trkpt>
      <trkpt lat="43.58436" lon="3.38314">
        <ele>239</ele>
        <time>2016-02-14T14:30:18Z</time>
      </trkpt>
      <trkpt lat="43.58437" lon="3.38316">
        <ele>239</ele>
        <time>2016-02-14T14:30:19Z</time>
      </trkpt>
      <trkpt lat="43.58437" lon="3.38318">
        <ele>238.5</ele>
        <time>2016-02-14T14:30:20Z</time>
      </trkpt>
      <trkpt lat="43.58438" lon="3.3832">
        <ele>238.5</ele>
        <time>2016-02-14T14:30:21Z</time>
      </trkpt>
      <trkpt lat="43.58438" lon="3.38322">
        <ele>238.5</ele>
        <time>2016-02-14T14:30:22Z</time>
      </trkpt>
      <trkpt lat="43.58439" lon="3.38324">
        <ele>238.5</ele>
        <time>2016-02-14T14:30:23Z</time>
      </trkpt>
      <trkpt lat="43.58439" lon="3.38327">
        <ele>239</ele>
        <time>2016-02-14T14:30:24Z</time>
      </trkpt>
      <trkpt lat="43.58439" lon="3.38329">
        <ele>239</ele>
        <time>2016-02-14T14:30:25Z</time>
      </trkpt>
      <trkpt lat="43.5844" lon="3.38331">
        <ele>239</ele>
        <time>2016-02-14T14:30:26Z</time>
      </trkpt>
      <trkpt lat="43.5844" lon="3.38334">
        <ele>239</ele>
        <time>2016-02-14T14:30:27Z</time>
      </trkpt>
      <trkpt lat="43.5844" lon="3.38336">
        <ele>239</ele>
        <time>2016-02-14T14:30:28Z</time>
      </trkpt>
      <trkpt lat="43.58441" lon="3.38339">
        <ele>239</ele>
        <time>2016-02-14T14:30:29Z</time>
      </trkpt>
      <trkpt lat="43.58441" lon="3.38341">
        <ele>239</ele>
        <time>2016-02-14T14:30:30Z</time>
      </trkpt>
      <trkpt lat="43.58441" lon="3.38344">
        <ele>239</ele>
        <time>2016-02-14T14:30:31Z</time>
      </trkpt>
      <trkpt lat="43.58441" lon="3.38346">
        <ele>239</ele>
        <time>2016-02-14T14:30:32Z</time>
      </trkpt>
      <trkpt lat="43.58442" lon="3.38349">
        <ele>239</ele>
        <time>2016-02-14T14:30:33Z</time>
      </trkpt>
      <trkpt lat="43.58443" lon="3.38351">
        <ele>239.5</ele>
        <time>2016-02-14T14:30:34Z</time>
      </trkpt>
      <trkpt lat="43.58444" lon="3.38353">
        <ele>240.5</ele>
        <time>2016-02-14T14:30:35Z</time>
      </trkpt>
      <trkpt lat="43.58445" lon="3.38355">
        <ele>240</ele>
        <time>2016-02-14T14:30:36Z</time>
      </trkpt>
      <trkpt lat="43.58445" lon="3.38358">
        <ele>240</ele>
        <time>2016-02-14T14:30:37Z</time>
      </trkpt>
      <trkpt lat="43.58445" lon="3.38361">
        <ele>240</ele>
        <time>2016-02-14T14:30:38Z</time>
      </trkpt>
      <trkpt lat="43.58446" lon="3.38363">
        <ele>240.5</ele>
        <time>2016-02-14T14:30:39Z</time>
      </trkpt>
      <trkpt lat="43.58446" lon="3.38366">
        <ele>240.5</ele>
        <time>2016-02-14T14:30:40Z</time>
      </trkpt>
      <trkpt lat="43.58446" lon="3.38369">
        <ele>240.5</ele>
        <time>2016-02-14T14:30:41Z</time>
      </trkpt>
      <trkpt lat="43.58446" lon="3.38371">
        <ele>240.5</ele>
        <time>2016-02-14T14:30:42Z</time>
      </trkpt>
      <trkpt lat="43.58447" lon="3.38374">
        <ele>241.5</ele>
        <time>2016-02-14T14:30:43Z</time>
      </trkpt>
      <trkpt lat="43.58447" lon="3.38377">
        <ele>242</ele>
        <time>2016-02-14T14:30:44Z</time>
      </trkpt>
      <trkpt lat="43.58447" lon="3.38379">
        <ele>242</ele>
        <time>2016-02-14T14:30:45Z</time>
      </trkpt>
      <trkpt lat="43.58446" lon="3.38381">
        <ele>242</ele>
        <time>2016-02-14T14:30:46Z</time>
      </trkpt>
      <trkpt lat="43.58446" lon="3.38384">
        <ele>242</ele>
        <time>2016-02-14T14:30:47Z</time>
      </trkpt>
      <trkpt lat="43.58446" lon="3.38387">
        <ele>242</ele>
        <time>2016-02-14T14:30:48Z</time>
      </trkpt>
      <trkpt lat="43.58447" lon="3.38389">
        <ele>242.5</ele>
        <time>2016-02-14T14:30:49Z</time>
      </trkpt>
      <trkpt lat="43.58447" lon="3.38392">
        <ele>242.5</ele>
        <time>2016-02-14T14:30:50Z</time>
      </trkpt>
      <trkpt lat="43.58447" lon="3.38394">
        <ele>243</ele>
        <time>2016-02-14T14:30:51Z</time>
      </trkpt>
      <trkpt lat="43.58447" lon="3.38397">
        <ele>243.5</ele>
        <time>2016-02-14T14:30:52Z</time>
      </trkpt>
      <trkpt lat="43.58448" lon="3.384">
        <ele>244</ele>
        <time>2016-02-14T14:30:53Z</time>
      </trkpt>
      <trkpt lat="43.58448" lon="3.38402">
        <ele>244.5</ele>
        <time>2016-02-14T14:30:54Z</time>
      </trkpt>
      <trkpt lat="43.58448" lon="3.38406">
        <ele>245</ele>
        <time>2016-02-14T14:30:55Z</time>
      </trkpt>
      <trkpt lat="43.58447" lon="3.38408">
        <ele>245</ele>
        <time>2016-02-14T14:30:56Z</time>
      </trkpt>
      <trkpt lat="43.58447" lon="3.38411">
        <ele>245</ele>
        <time>2016-02-14T14:30:57Z</time>
      </trkpt>
      <trkpt lat="43.58447" lon="3.38413">
        <ele>246</ele>
        <time>2016-02-14T14:30:58Z</time>
      </trkpt>
      <trkpt lat="43.58446" lon="3.38416">
        <ele>246</ele>
        <time>2016-02-14T14:30:59Z</time>
      </trkpt>
      <trkpt lat="43.58445" lon="3.38418">
        <ele>246.5</ele>
        <time>2016-02-14T14:31:00Z</time>
      </trkpt>
      <trkpt lat="43.58444" lon="3.38421">
        <ele>246.5</ele>
        <time>2016-02-14T14:31:01Z</time>
      </trkpt>
      <trkpt lat="43.58443" lon="3.38423">
        <ele>246.5</ele>
        <time>2016-02-14T14:31:02Z</time>
      </trkpt>
      <trkpt lat="43.58441" lon="3.38425">
        <ele>246.5</ele>
        <time>2016-02-14T14:31:03Z</time>
      </trkpt>
      <trkpt lat="43.5844" lon="3.38428">
        <ele>246.5</ele>
        <time>2016-02-14T14:31:04Z</time>
      </trkpt>
      <trkpt lat="43.58439" lon="3.3843">
        <ele>246</ele>
        <time>2016-02-14T14:31:05Z</time>
      </trkpt>
      <trkpt lat="43.58438" lon="3.38433">
        <ele>246</ele>
        <time>2016-02-14T14:31:06Z</time>
      </trkpt>
      <trkpt lat="43.58438" lon="3.38436">
        <ele>246</ele>
        <time>2016-02-14T14:31:07Z</time>
      </trkpt>
      <trkpt lat="43.58437" lon="3.38439">
        <ele>246</ele>
        <time>2016-02-14T14:31:08Z</time>
      </trkpt>
      <trkpt lat="43.58438" lon="3.38441">
        <ele>246.5</ele>
        <time>2016-02-14T14:31:09Z</time>
      </trkpt>
      <trkpt lat="43.58439" lon="3.38444">
        <ele>246</ele>
        <time>2016-02-14T14:31:10Z</time>
      </trkpt>
      <trkpt lat="43.5844" lon="3.38447">
        <ele>246.5</ele>
        <time>2016-02-14T14:31:11Z</time>
      </trkpt>
      <trkpt lat="43.58441" lon="3.38449">
        <ele>247</ele>
        <time>2016-02-14T14:31:12Z</time>
      </trkpt>
      <trkpt lat="43.58442" lon="3.3845">
        <ele>247.5</ele>
        <time>2016-02-14T14:31:13Z</time>
      </trkpt>
      <trkpt lat="43.58444" lon="3.38452">
        <ele>246</ele>
        <time>2016-02-14T14:31:14Z</time>
      </trkpt>
      <trkpt lat="43.58445" lon="3.38454">
        <ele>246</ele>
        <time>2016-02-14T14:31:15Z</time>
      </trkpt>
      <trkpt lat="43.58447" lon="3.38455">
        <ele>246</ele>
        <time>2016-02-14T14:31:16Z</time>
      </trkpt>
      <trkpt lat="43.58449" lon="3.38457">
        <ele>246</ele>
        <time>2016-02-14T14:31:17Z</time>
      </trkpt>
      <trkpt lat="43.5845" lon="3.38459">
        <ele>246</ele>
        <time>2016-02-14T14:31:18Z</time>
      </trkpt>
      <trkpt lat="43.58452" lon="3.3846">
        <ele>245.5</ele>
        <time>2016-02-14T14:31:19Z</time>
      </trkpt>
      <trkpt lat="43.58454" lon="3.38461">
        <ele>245.5</ele>
        <time>2016-02-14T14:31:20Z</time>
      </trkpt>
      <trkpt lat="43.58457" lon="3.38461">
        <ele>245.5</ele>
        <time>2016-02-14T14:31:21Z</time>
      </trkpt>
      <trkpt lat="43.58459" lon="3.38461">
        <ele>247</ele>
        <time>2016-02-14T14:31:22Z</time>
      </trkpt>
      <trkpt lat="43.58463" lon="3.38462">
        <ele>247</ele>
        <time>2016-02-14T14:31:23Z</time>
      </trkpt>
      <trkpt lat="43.58466" lon="3.38464">
        <ele>247</ele>
        <time>2016-02-14T14:31:24Z</time>
      </trkpt>
      <trkpt lat="43.58469" lon="3.38467">
        <ele>247</ele>
        <time>2016-02-14T14:31:25Z</time>
      </trkpt>
      <trkpt lat="43.58472" lon="3.3847">
        <ele>247</ele>
        <time>2016-02-14T14:31:26Z</time>
      </trkpt>
      <trkpt lat="43.58475" lon="3.38473">
        <ele>247</ele>
        <time>2016-02-14T14:31:27Z</time>
      </trkpt>
      <trkpt lat="43.58478" lon="3.38476">
        <ele>247</ele>
        <time>2016-02-14T14:31:28Z</time>
      </trkpt>
      <trkpt lat="43.58481" lon="3.3848">
        <ele>247</ele>
        <time>2016-02-14T14:31:29Z</time>
      </trkpt>
      <trkpt lat="43.58484" lon="3.38483">
        <ele>247.5</ele>
        <time>2016-02-14T14:31:30Z</time>
      </trkpt>
      <trkpt lat="43.58487" lon="3.38489">
        <ele>247.5</ele>
        <time>2016-02-14T14:31:31Z</time>
      </trkpt>
      <trkpt lat="43.58489" lon="3.38494">
        <ele>247.5</ele>
        <time>2016-02-14T14:31:32Z</time>
      </trkpt>
      <trkpt lat="43.58489" lon="3.38501">
        <ele>247</ele>
        <time>2016-02-14T14:31:33Z</time>
      </trkpt>
      <trkpt lat="43.5849" lon="3.38507">
        <ele>246.5</ele>
        <time>2016-02-14T14:31:34Z</time>
      </trkpt>
      <trkpt lat="43.58491" lon="3.38513">
        <ele>247</ele>
        <time>2016-02-14T14:31:35Z</time>
      </trkpt>
      <trkpt lat="43.58492" lon="3.38519">
        <ele>246.5</ele>
        <time>2016-02-14T14:31:36Z</time>
      </trkpt>
      <trkpt lat="43.58492" lon="3.38525">
        <ele>246.5</ele>
        <time>2016-02-14T14:31:37Z</time>
      </trkpt>
      <trkpt lat="43.58492" lon="3.38531">
        <ele>246.5</ele>
        <time>2016-02-14T14:31:38Z</time>
      </trkpt>
      <trkpt lat="43.58492" lon="3.38538">
        <ele>246</ele>
        <time>2016-02-14T14:31:39Z</time>
      </trkpt>
      <trkpt lat="43.58492" lon="3.38544">
        <ele>245.5</ele>
        <time>2016-02-14T14:31:40Z</time>
      </trkpt>
      <trkpt lat="43.58493" lon="3.38549">
        <ele>245.5</ele>
        <time>2016-02-14T14:31:41Z</time>
      </trkpt>
      <trkpt lat="43.58493" lon="3.38555">
        <ele>245.5</ele>
        <time>2016-02-14T14:31:42Z</time>
      </trkpt>
      <trkpt lat="43.58494" lon="3.3856">
        <ele>246</ele>
        <time>2016-02-14T14:31:43Z</time>
      </trkpt>
      <trkpt lat="43.58495" lon="3.38565">
        <ele>246.5</ele>
        <time>2016-02-14T14:31:44Z</time>
      </trkpt>
      <trkpt lat="43.58496" lon="3.3857">
        <ele>246</ele>
        <time>2016-02-14T14:31:45Z</time>
      </trkpt>
      <trkpt lat="43.58497" lon="3.38575">
        <ele>246</ele>
        <time>2016-02-14T14:31:46Z</time>
      </trkpt>
      <trkpt lat="43.58499" lon="3.3858">
        <ele>246.5</ele>
        <time>2016-02-14T14:31:47Z</time>
      </trkpt>
      <trkpt lat="43.58499" lon="3.38583">
        <ele>246.5</ele>
        <time>2016-02-14T14:31:48Z</time>
      </trkpt>
      <trkpt lat="43.58502" lon="3.38586">
        <ele>246.5</ele>
        <time>2016-02-14T14:31:49Z</time>
      </trkpt>
      <trkpt lat="43.58503" lon="3.3859">
        <ele>246.5</ele>
        <time>2016-02-14T14:31:50Z</time>
      </trkpt>
      <trkpt lat="43.58504" lon="3.38595">
        <ele>247</ele>
        <time>2016-02-14T14:31:51Z</time>
      </trkpt>
      <trkpt lat="43.58505" lon="3.38599">
        <ele>247.5</ele>
        <time>2016-02-14T14:31:52Z</time>
      </trkpt>
      <trkpt lat="43.58506" lon="3.38602">
        <ele>248</ele>
        <time>2016-02-14T14:31:53Z</time>
      </trkpt>
      <trkpt lat="43.58507" lon="3.38606">
        <ele>248.5</ele>
        <time>2016-02-14T14:31:54Z</time>
      </trkpt>
      <trkpt lat="43.58508" lon="3.3861">
        <ele>249.5</ele>
        <time>2016-02-14T14:31:55Z</time>
      </trkpt>
      <trkpt lat="43.58509" lon="3.38613">
        <ele>250.5</ele>
        <time>2016-02-14T14:31:56Z</time>
      </trkpt>
      <trkpt lat="43.58508" lon="3.38616">
        <ele>250.5</ele>
        <time>2016-02-14T14:31:57Z</time>
      </trkpt>
      <trkpt lat="43.58509" lon="3.38619">
        <ele>251</ele>
        <time>2016-02-14T14:31:58Z</time>
      </trkpt>
      <trkpt lat="43.58509" lon="3.38622">
        <ele>251.5</ele>
        <time>2016-02-14T14:31:59Z</time>
      </trkpt>
      <trkpt lat="43.58509" lon="3.38625">
        <ele>252</ele>
        <time>2016-02-14T14:32:00Z</time>
      </trkpt>
      <trkpt lat="43.5851" lon="3.38628">
        <ele>252.5</ele>
        <time>2016-02-14T14:32:01Z</time>
      </trkpt>
      <trkpt lat="43.5851" lon="3.38632">
        <ele>253</ele>
        <time>2016-02-14T14:32:02Z</time>
      </trkpt>
      <trkpt lat="43.58511" lon="3.38635">
        <ele>253.5</ele>
        <time>2016-02-14T14:32:03Z</time>
      </trkpt>
      <trkpt lat="43.58511" lon="3.38638">
        <ele>254</ele>
        <time>2016-02-14T14:32:04Z</time>
      </trkpt>
      <trkpt lat="43.58511" lon="3.38641">
        <ele>254</ele>
        <time>2016-02-14T14:32:05Z</time>
      </trkpt>
      <trkpt lat="43.58512" lon="3.38645">
        <ele>254</ele>
        <time>2016-02-14T14:32:06Z</time>
      </trkpt>
      <trkpt lat="43.58513" lon="3.38648">
        <ele>254.5</ele>
        <time>2016-02-14T14:32:07Z</time>
      </trkpt>
      <trkpt lat="43.58513" lon="3.38652">
        <ele>254.5</ele>
        <time>2016-02-14T14:32:08Z</time>
      </trkpt>
      <trkpt lat="43.58514" lon="3.38655">
        <ele>255</ele>
        <time>2016-02-14T14:32:09Z</time>
      </trkpt>
      <trkpt lat="43.58515" lon="3.38659">
        <ele>255.5</ele>
        <time>2016-02-14T14:32:10Z</time>
      </trkpt>
      <trkpt lat="43.58515" lon="3.38662">
        <ele>255.5</ele>
        <time>2016-02-14T14:32:11Z</time>
      </trkpt>
      <trkpt lat="43.58516" lon="3.38666">
        <ele>256</ele>
        <time>2016-02-14T14:32:12Z</time>
      </trkpt>
      <trkpt lat="43.58516" lon="3.3867">
        <ele>255.5</ele>
        <time>2016-02-14T14:32:13Z</time>
      </trkpt>
      <trkpt lat="43.58517" lon="3.38674">
        <ele>256</ele>
        <time>2016-02-14T14:32:14Z</time>
      </trkpt>
      <trkpt lat="43.58518" lon="3.38678">
        <ele>256</ele>
        <time>2016-02-14T14:32:15Z</time>
      </trkpt>
      <trkpt lat="43.58518" lon="3.38682">
        <ele>255.5</ele>
        <time>2016-02-14T14:32:16Z</time>
      </trkpt>
      <trkpt lat="43.58519" lon="3.38685">
        <ele>256</ele>
        <time>2016-02-14T14:32:17Z</time>
      </trkpt>
      <trkpt lat="43.5852" lon="3.38689">
        <ele>256</ele>
        <time>2016-02-14T14:32:18Z</time>
      </trkpt>
      <trkpt lat="43.58521" lon="3.38693">
        <ele>256</ele>
        <time>2016-02-14T14:32:19Z</time>
      </trkpt>
      <trkpt lat="43.58522" lon="3.38697">
        <ele>256</ele>
        <time>2016-02-14T14:32:20Z</time>
      </trkpt>
      <trkpt lat="43.58523" lon="3.38701">
        <ele>256</ele>
        <time>2016-02-14T14:32:21Z</time>
      </trkpt>
      <trkpt lat="43.58523" lon="3.38706">
        <ele>256</ele>
        <time>2016-02-14T14:32:22Z</time>
      </trkpt>
      <trkpt lat="43.58524" lon="3.3871">
        <ele>256</ele>
        <time>2016-02-14T14:32:22Z</time>
      </trkpt>
      <trkpt lat="43.58524" lon="3.38714">
        <ele>256</ele>
        <time>2016-02-14T14:32:23Z</time>
      </trkpt>
      <trkpt lat="43.58524" lon="3.38718">
        <ele>256</ele>
        <time>2016-02-14T14:32:25Z</time>
      </trkpt>
      <trkpt lat="43.58524" lon="3.38722">
        <ele>256</ele>
        <time>2016-02-14T14:32:25Z</time>
      </trkpt>
      <trkpt lat="43.58523" lon="3.38726">
        <ele>256</ele>
        <time>2016-02-14T14:32:26Z</time>
      </trkpt>
      <trkpt lat="43.58523" lon="3.3873">
        <ele>256.5</ele>
        <time>2016-02-14T14:32:28Z</time>
      </trkpt>
      <trkpt lat="43.58523" lon="3.38733">
        <ele>256.5</ele>
        <time>2016-02-14T14:32:28Z</time>
      </trkpt>
      <trkpt lat="43.58523" lon="3.38737">
        <ele>257</ele>
        <time>2016-02-14T14:32:29Z</time>
      </trkpt>
      <trkpt lat="43.58524" lon="3.3874">
        <ele>257.5</ele>
        <time>2016-02-14T14:32:30Z</time>
      </trkpt>
      <trkpt lat="43.58524" lon="3.38743">
        <ele>258</ele>
        <time>2016-02-14T14:32:31Z</time>
      </trkpt>
      <trkpt lat="43.58524" lon="3.38747">
        <ele>258</ele>
        <time>2016-02-14T14:32:32Z</time>
      </trkpt>
      <trkpt lat="43.58524" lon="3.3875">
        <ele>258</ele>
        <time>2016-02-14T14:32:33Z</time>
      </trkpt>
      <trkpt lat="43.58524" lon="3.38754">
        <ele>258</ele>
        <time>2016-02-14T14:32:34Z</time>
      </trkpt>
      <trkpt lat="43.58524" lon="3.38758">
        <ele>258.5</ele>
        <time>2016-02-14T14:32:36Z</time>
      </trkpt>
      <trkpt lat="43.58525" lon="3.38762">
        <ele>258.5</ele>
        <time>2016-02-14T14:32:36Z</time>
      </trkpt>
      <trkpt lat="43.58525" lon="3.38766">
        <ele>259</ele>
        <time>2016-02-14T14:32:37Z</time>
      </trkpt>
      <trkpt lat="43.58526" lon="3.3877">
        <ele>259</ele>
        <time>2016-02-14T14:32:38Z</time>
      </trkpt>
      <trkpt lat="43.58526" lon="3.38773">
        <ele>259</ele>
        <time>2016-02-14T14:32:39Z</time>
      </trkpt>
      <trkpt lat="43.58526" lon="3.38777">
        <ele>259</ele>
        <time>2016-02-14T14:32:40Z</time>
      </trkpt>
      <trkpt lat="43.58525" lon="3.38781">
        <ele>258</ele>
        <time>2016-02-14T14:32:41Z</time>
      </trkpt>
      <trkpt lat="43.58525" lon="3.38784">
        <ele>258</ele>
        <time>2016-02-14T14:32:42Z</time>
      </trkpt>
      <trkpt lat="43.58524" lon="3.38788">
        <ele>258.5</ele>
        <time>2016-02-14T14:32:43Z</time>
      </trkpt>
      <trkpt lat="43.58524" lon="3.3879">
        <ele>259</ele>
        <time>2016-02-14T14:32:44Z</time>
      </trkpt>
      <trkpt lat="43.58523" lon="3.38793">
        <ele>259.5</ele>
        <time>2016-02-14T14:32:45Z</time>
      </trkpt>
      <trkpt lat="43.58522" lon="3.38796">
        <ele>259.5</ele>
        <time>2016-02-14T14:32:46Z</time>
      </trkpt>
      <trkpt lat="43.58522" lon="3.388">
        <ele>260</ele>
        <time>2016-02-14T14:32:47Z</time>
      </trkpt>
      <trkpt lat="43.58521" lon="3.38803">
        <ele>260.5</ele>
        <time>2016-02-14T14:32:48Z</time>
      </trkpt>
      <trkpt lat="43.5852" lon="3.38805">
        <ele>260.5</ele>
        <time>2016-02-14T14:32:50Z</time>
      </trkpt>
      <trkpt lat="43.58519" lon="3.38809">
        <ele>260.5</ele>
        <time>2016-02-14T14:32:50Z</time>
      </trkpt>
      <trkpt lat="43.58518" lon="3.38812">
        <ele>260.5</ele>
        <time>2016-02-14T14:32:51Z</time>
      </trkpt>
      <trkpt lat="43.58518" lon="3.38815">
        <ele>261</ele>
        <time>2016-02-14T14:32:53Z</time>
      </trkpt>
      <trkpt lat="43.58518" lon="3.38818">
        <ele>261.5</ele>
        <time>2016-02-14T14:32:53Z</time>
      </trkpt>
      <trkpt lat="43.58518" lon="3.38822">
        <ele>262</ele>
        <time>2016-02-14T14:32:54Z</time>
      </trkpt>
      <trkpt lat="43.58517" lon="3.38825">
        <ele>262</ele>
        <time>2016-02-14T14:32:55Z</time>
      </trkpt>
      <trkpt lat="43.58517" lon="3.38828">
        <ele>262.5</ele>
        <time>2016-02-14T14:32:56Z</time>
      </trkpt>
      <trkpt lat="43.58517" lon="3.38831">
        <ele>263</ele>
        <time>2016-02-14T14:32:57Z</time>
      </trkpt>
      <trkpt lat="43.58517" lon="3.38833">
        <ele>263.5</ele>
        <time>2016-02-14T14:32:58Z</time>
      </trkpt>
      <trkpt lat="43.58517" lon="3.38836">
        <ele>264</ele>
        <time>2016-02-14T14:32:59Z</time>
      </trkpt>
      <trkpt lat="43.58517" lon="3.38839">
        <ele>264</ele>
        <time>2016-02-14T14:33:00Z</time>
      </trkpt>
      <trkpt lat="43.58516" lon="3.38842">
        <ele>264.5</ele>
        <time>2016-02-14T14:33:01Z</time>
      </trkpt>
      <trkpt lat="43.58516" lon="3.38845">
        <ele>264.5</ele>
        <time>2016-02-14T14:33:02Z</time>
      </trkpt>
      <trkpt lat="43.58516" lon="3.38848">
        <ele>264.5</ele>
        <time>2016-02-14T14:33:03Z</time>
      </trkpt>
      <trkpt lat="43.58516" lon="3.38852">
        <ele>264.5</ele>
        <time>2016-02-14T14:33:05Z</time>
      </trkpt>
      <trkpt lat="43.58515" lon="3.38859">
        <ele>264.5</ele>
        <time>2016-02-14T14:33:06Z</time>
      </trkpt>
      <trkpt lat="43.58515" lon="3.38862">
        <ele>264.5</ele>
        <time>2016-02-14T14:33:07Z</time>
      </trkpt>
      <trkpt lat="43.58514" lon="3.38865">
        <ele>264.5</ele>
        <time>2016-02-14T14:33:08Z</time>
      </trkpt>
      <trkpt lat="43.58514" lon="3.38868">
        <ele>264.5</ele>
        <time>2016-02-14T14:33:10Z</time>
      </trkpt>
      <trkpt lat="43.58513" lon="3.38871">
        <ele>265</ele>
        <time>2016-02-14T14:33:10Z</time>
      </trkpt>
      <trkpt lat="43.58511" lon="3.38873">
        <ele>265</ele>
        <time>2016-02-14T14:33:11Z</time>
      </trkpt>
      <trkpt lat="43.5851" lon="3.38876">
        <ele>264.5</ele>
        <time>2016-02-14T14:33:12Z</time>
      </trkpt>
      <trkpt lat="43.58508" lon="3.38878">
        <ele>264.5</ele>
        <time>2016-02-14T14:33:13Z</time>
      </trkpt>
      <trkpt lat="43.58507" lon="3.38881">
        <ele>264.5</ele>
        <time>2016-02-14T14:33:14Z</time>
      </trkpt>
      <trkpt lat="43.58504" lon="3.38883">
        <ele>264</ele>
        <time>2016-02-14T14:33:15Z</time>
      </trkpt>
      <trkpt lat="43.58501" lon="3.38886">
        <ele>263</ele>
        <time>2016-02-14T14:33:16Z</time>
      </trkpt>
      <trkpt lat="43.58499" lon="3.38888">
        <ele>262.5</ele>
        <time>2016-02-14T14:33:17Z</time>
      </trkpt>
      <trkpt lat="43.58496" lon="3.38891">
        <ele>262</ele>
        <time>2016-02-14T14:33:18Z</time>
      </trkpt>
      <trkpt lat="43.58494" lon="3.38893">
        <ele>261.5</ele>
        <time>2016-02-14T14:33:19Z</time>
      </trkpt>
      <trkpt lat="43.58492" lon="3.38895">
        <ele>261.5</ele>
        <time>2016-02-14T14:33:20Z</time>
      </trkpt>
      <trkpt lat="43.58489" lon="3.38897">
        <ele>261.5</ele>
        <time>2016-02-14T14:33:21Z</time>
      </trkpt>
      <trkpt lat="43.58487" lon="3.38899">
        <ele>261</ele>
        <time>2016-02-14T14:33:22Z</time>
      </trkpt>
      <trkpt lat="43.58486" lon="3.38901">
        <ele>262.5</ele>
        <time>2016-02-14T14:33:23Z</time>
      </trkpt>
      <trkpt lat="43.58484" lon="3.38904">
        <ele>262.5</ele>
        <time>2016-02-14T14:33:24Z</time>
      </trkpt>
      <trkpt lat="43.58483" lon="3.38907">
        <ele>263</ele>
        <time>2016-02-14T14:33:25Z</time>
      </trkpt>
      <trkpt lat="43.58482" lon="3.3891">
        <ele>264</ele>
        <time>2016-02-14T14:33:26Z</time>
      </trkpt>
      <trkpt lat="43.58481" lon="3.38913">
        <ele>264.5</ele>
        <time>2016-02-14T14:33:27Z</time>
      </trkpt>
      <trkpt lat="43.58478" lon="3.38915">
        <ele>263.5</ele>
        <time>2016-02-14T14:33:29Z</time>
      </trkpt>
      <trkpt lat="43.58476" lon="3.38917">
        <ele>263.5</ele>
        <time>2016-02-14T14:33:29Z</time>
      </trkpt>
      <trkpt lat="43.58475" lon="3.3892">
        <ele>263.5</ele>
        <time>2016-02-14T14:33:30Z</time>
      </trkpt>
      <trkpt lat="43.58473" lon="3.38923">
        <ele>263.5</ele>
        <time>2016-02-14T14:33:31Z</time>
      </trkpt>
      <trkpt lat="43.58472" lon="3.38925">
        <ele>263.5</ele>
        <time>2016-02-14T14:33:32Z</time>
      </trkpt>
      <trkpt lat="43.58471" lon="3.38928">
        <ele>263.5</ele>
        <time>2016-02-14T14:33:33Z</time>
      </trkpt>
      <trkpt lat="43.5847" lon="3.38931">
        <ele>264</ele>
        <time>2016-02-14T14:33:34Z</time>
      </trkpt>
      <trkpt lat="43.58469" lon="3.38934">
        <ele>264.5</ele>
        <time>2016-02-14T14:33:35Z</time>
      </trkpt>
      <trkpt lat="43.58468" lon="3.38936">
        <ele>264.5</ele>
        <time>2016-02-14T14:33:36Z</time>
      </trkpt>
      <trkpt lat="43.58467" lon="3.38939">
        <ele>265</ele>
        <time>2016-02-14T14:33:37Z</time>
      </trkpt>
      <trkpt lat="43.58466" lon="3.38942">
        <ele>265</ele>
        <time>2016-02-14T14:33:38Z</time>
      </trkpt>
      <trkpt lat="43.58465" lon="3.38944">
        <ele>265</ele>
        <time>2016-02-14T14:33:39Z</time>
      </trkpt>
      <trkpt lat="43.58463" lon="3.38947">
        <ele>265</ele>
        <time>2016-02-14T14:33:40Z</time>
      </trkpt>
      <trkpt lat="43.58463" lon="3.38949">
        <ele>265.5</ele>
        <time>2016-02-14T14:33:41Z</time>
      </trkpt>
      <trkpt lat="43.58462" lon="3.38952">
        <ele>265.5</ele>
        <time>2016-02-14T14:33:42Z</time>
      </trkpt>
      <trkpt lat="43.58461" lon="3.38955">
        <ele>265.5</ele>
        <time>2016-02-14T14:33:43Z</time>
      </trkpt>
      <trkpt lat="43.58461" lon="3.38958">
        <ele>266</ele>
        <time>2016-02-14T14:33:44Z</time>
      </trkpt>
      <trkpt lat="43.5846" lon="3.38961">
        <ele>266</ele>
        <time>2016-02-14T14:33:45Z</time>
      </trkpt>
      <trkpt lat="43.5846" lon="3.38964">
        <ele>266.5</ele>
        <time>2016-02-14T14:33:46Z</time>
      </trkpt>
      <trkpt lat="43.58459" lon="3.38966">
        <ele>267</ele>
        <time>2016-02-14T14:33:47Z</time>
      </trkpt>
      <trkpt lat="43.58459" lon="3.38969">
        <ele>267.5</ele>
        <time>2016-02-14T14:33:48Z</time>
      </trkpt>
      <trkpt lat="43.58459" lon="3.38972">
        <ele>268</ele>
        <time>2016-02-14T14:33:49Z</time>
      </trkpt>
      <trkpt lat="43.58458" lon="3.38974">
        <ele>267.5</ele>
        <time>2016-02-14T14:33:50Z</time>
      </trkpt>
      <trkpt lat="43.58458" lon="3.38977">
        <ele>267.5</ele>
        <time>2016-02-14T14:33:51Z</time>
      </trkpt>
      <trkpt lat="43.58457" lon="3.3898">
        <ele>267.5</ele>
        <time>2016-02-14T14:33:52Z</time>
      </trkpt>
      <trkpt lat="43.58457" lon="3.38983">
        <ele>268</ele>
        <time>2016-02-14T14:33:53Z</time>
      </trkpt>
      <trkpt lat="43.58456" lon="3.38986">
        <ele>268</ele>
        <time>2016-02-14T14:33:54Z</time>
      </trkpt>
      <trkpt lat="43.58455" lon="3.38989">
        <ele>268.5</ele>
        <time>2016-02-14T14:33:55Z</time>
      </trkpt>
      <trkpt lat="43.58455" lon="3.38992">
        <ele>268.5</ele>
        <time>2016-02-14T14:33:56Z</time>
      </trkpt>
      <trkpt lat="43.58454" lon="3.38995">
        <ele>268.5</ele>
        <time>2016-02-14T14:33:57Z</time>
      </trkpt>
      <trkpt lat="43.58454" lon="3.38998">
        <ele>269</ele>
        <time>2016-02-14T14:33:58Z</time>
      </trkpt>
      <trkpt lat="43.58453" lon="3.39001">
        <ele>269</ele>
        <time>2016-02-14T14:33:59Z</time>
      </trkpt>
      <trkpt lat="43.58453" lon="3.39003">
        <ele>269.5</ele>
        <time>2016-02-14T14:34:00Z</time>
      </trkpt>
      <trkpt lat="43.58453" lon="3.39006">
        <ele>269.5</ele>
        <time>2016-02-14T14:34:01Z</time>
      </trkpt>
      <trkpt lat="43.58452" lon="3.39009">
        <ele>269.5</ele>
        <time>2016-02-14T14:34:02Z</time>
      </trkpt>
      <trkpt lat="43.58452" lon="3.39011">
        <ele>269.5</ele>
        <time>2016-02-14T14:34:03Z</time>
      </trkpt>
      <trkpt lat="43.58451" lon="3.39013">
        <ele>269.5</ele>
        <time>2016-02-14T14:34:04Z</time>
      </trkpt>
      <trkpt lat="43.5845" lon="3.39015">
        <ele>269.5</ele>
        <time>2016-02-14T14:34:05Z</time>
      </trkpt>
      <trkpt lat="43.5845" lon="3.39017">
        <ele>270</ele>
        <time>2016-02-14T14:34:06Z</time>
      </trkpt>
      <trkpt lat="43.5845" lon="3.3902">
        <ele>270</ele>
        <time>2016-02-14T14:34:07Z</time>
      </trkpt>
      <trkpt lat="43.58449" lon="3.39023">
        <ele>270.5</ele>
        <time>2016-02-14T14:34:08Z</time>
      </trkpt>
      <trkpt lat="43.58448" lon="3.39026">
        <ele>271</ele>
        <time>2016-02-14T14:34:09Z</time>
      </trkpt>
      <trkpt lat="43.58448" lon="3.39029">
        <ele>271</ele>
        <time>2016-02-14T14:34:10Z</time>
      </trkpt>
      <trkpt lat="43.58447" lon="3.39032">
        <ele>271.5</ele>
        <time>2016-02-14T14:34:11Z</time>
      </trkpt>
      <trkpt lat="43.58445" lon="3.39035">
        <ele>271.5</ele>
        <time>2016-02-14T14:34:12Z</time>
      </trkpt>
      <trkpt lat="43.58444" lon="3.39038">
        <ele>271.5</ele>
        <time>2016-02-14T14:34:13Z</time>
      </trkpt>
      <trkpt lat="43.58442" lon="3.3904">
        <ele>271.5</ele>
        <time>2016-02-14T14:34:14Z</time>
      </trkpt>
      <trkpt lat="43.58441" lon="3.39043">
        <ele>271</ele>
        <time>2016-02-14T14:34:15Z</time>
      </trkpt>
      <trkpt lat="43.5844" lon="3.39046">
        <ele>271.5</ele>
        <time>2016-02-14T14:34:16Z</time>
      </trkpt>
      <trkpt lat="43.5844" lon="3.39048">
        <ele>271.5</ele>
        <time>2016-02-14T14:34:17Z</time>
      </trkpt>
      <trkpt lat="43.58439" lon="3.39051">
        <ele>272</ele>
        <time>2016-02-14T14:34:18Z</time>
      </trkpt>
      <trkpt lat="43.58439" lon="3.39054">
        <ele>272.5</ele>
        <time>2016-02-14T14:34:19Z</time>
      </trkpt>
      <trkpt lat="43.58439" lon="3.39056">
        <ele>273.5</ele>
        <time>2016-02-14T14:34:20Z</time>
      </trkpt>
      <trkpt lat="43.58438" lon="3.39058">
        <ele>273.5</ele>
        <time>2016-02-14T14:34:21Z</time>
      </trkpt>
      <trkpt lat="43.58436" lon="3.39061">
        <ele>273.5</ele>
        <time>2016-02-14T14:34:22Z</time>
      </trkpt>
      <trkpt lat="43.58434" lon="3.39063">
        <ele>273.5</ele>
        <time>2016-02-14T14:34:23Z</time>
      </trkpt>
      <trkpt lat="43.58433" lon="3.39065">
        <ele>274</ele>
        <time>2016-02-14T14:34:24Z</time>
      </trkpt>
      <trkpt lat="43.58431" lon="3.39067">
        <ele>274</ele>
        <time>2016-02-14T14:34:25Z</time>
      </trkpt>
      <trkpt lat="43.5843" lon="3.39069">
        <ele>275</ele>
        <time>2016-02-14T14:34:26Z</time>
      </trkpt>
      <trkpt lat="43.58429" lon="3.39072">
        <ele>274.5</ele>
        <time>2016-02-14T14:34:27Z</time>
      </trkpt>
      <trkpt lat="43.58427" lon="3.39074">
        <ele>274</ele>
        <time>2016-02-14T14:34:28Z</time>
      </trkpt>
      <trkpt lat="43.58425" lon="3.39076">
        <ele>274</ele>
        <time>2016-02-14T14:34:29Z</time>
      </trkpt>
      <trkpt lat="43.58425" lon="3.39079">
        <ele>274.5</ele>
        <time>2016-02-14T14:34:30Z</time>
      </trkpt>
      <trkpt lat="43.58424" lon="3.39082">
        <ele>275</ele>
        <time>2016-02-14T14:34:31Z</time>
      </trkpt>
      <trkpt lat="43.58423" lon="3.39084">
        <ele>275.5</ele>
        <time>2016-02-14T14:34:32Z</time>
      </trkpt>
      <trkpt lat="43.58423" lon="3.39087">
        <ele>275.5</ele>
        <time>2016-02-14T14:34:33Z</time>
      </trkpt>
      <trkpt lat="43.58423" lon="3.3909">
        <ele>276.5</ele>
        <time>2016-02-14T14:34:34Z</time>
      </trkpt>
      <trkpt lat="43.58423" lon="3.39093">
        <ele>276.5</ele>
        <time>2016-02-14T14:34:35Z</time>
      </trkpt>
      <trkpt lat="43.58423" lon="3.39096">
        <ele>277</ele>
        <time>2016-02-14T14:34:36Z</time>
      </trkpt>
      <trkpt lat="43.58423" lon="3.39098">
        <ele>277</ele>
        <time>2016-02-14T14:34:37Z</time>
      </trkpt>
      <trkpt lat="43.58423" lon="3.39101">
        <ele>278</ele>
        <time>2016-02-14T14:34:38Z</time>
      </trkpt>
      <trkpt lat="43.58423" lon="3.39104">
        <ele>278.5</ele>
        <time>2016-02-14T14:34:39Z</time>
      </trkpt>
      <trkpt lat="43.58423" lon="3.39107">
        <ele>278.5</ele>
        <time>2016-02-14T14:34:40Z</time>
      </trkpt>
      <trkpt lat="43.58423" lon="3.3911">
        <ele>279</ele>
        <time>2016-02-14T14:34:41Z</time>
      </trkpt>
      <trkpt lat="43.58423" lon="3.39113">
        <ele>279</ele>
        <time>2016-02-14T14:34:42Z</time>
      </trkpt>
      <trkpt lat="43.58422" lon="3.39116">
        <ele>279</ele>
        <time>2016-02-14T14:34:43Z</time>
      </trkpt>
      <trkpt lat="43.58421" lon="3.39119">
        <ele>279</ele>
        <time>2016-02-14T14:34:44Z</time>
      </trkpt>
      <trkpt lat="43.5842" lon="3.39121">
        <ele>279.5</ele>
        <time>2016-02-14T14:34:45Z</time>
      </trkpt>
      <trkpt lat="43.58419" lon="3.39124">
        <ele>280</ele>
        <time>2016-02-14T14:34:46Z</time>
      </trkpt>
      <trkpt lat="43.58418" lon="3.39127">
        <ele>280</ele>
        <time>2016-02-14T14:34:47Z</time>
      </trkpt>
      <trkpt lat="43.58417" lon="3.39129">
        <ele>280</ele>
        <time>2016-02-14T14:34:48Z</time>
      </trkpt>
      <trkpt lat="43.58416" lon="3.39132">
        <ele>280</ele>
        <time>2016-02-14T14:34:49Z</time>
      </trkpt>
      <trkpt lat="43.58414" lon="3.39134">
        <ele>280</ele>
        <time>2016-02-14T14:34:50Z</time>
      </trkpt>
      <trkpt lat="43.58413" lon="3.39136">
        <ele>280.5</ele>
        <time>2016-02-14T14:34:51Z</time>
      </trkpt>
      <trkpt lat="43.58412" lon="3.39138">
        <ele>280.5</ele>
        <time>2016-02-14T14:34:52Z</time>
      </trkpt>
      <trkpt lat="43.58411" lon="3.3914">
        <ele>280.5</ele>
        <time>2016-02-14T14:34:53Z</time>
      </trkpt>
      <trkpt lat="43.5841" lon="3.39143">
        <ele>281</ele>
        <time>2016-02-14T14:34:54Z</time>
      </trkpt>
      <trkpt lat="43.58409" lon="3.39145">
        <ele>281</ele>
        <time>2016-02-14T14:34:55Z</time>
      </trkpt>
      <trkpt lat="43.58408" lon="3.39147">
        <ele>281.5</ele>
        <time>2016-02-14T14:34:56Z</time>
      </trkpt>
      <trkpt lat="43.58407" lon="3.39149">
        <ele>281.5</ele>
        <time>2016-02-14T14:34:57Z</time>
      </trkpt>
      <trkpt lat="43.58406" lon="3.39152">
        <ele>282</ele>
        <time>2016-02-14T14:34:58Z</time>
      </trkpt>
      <trkpt lat="43.58405" lon="3.39154">
        <ele>282</ele>
        <time>2016-02-14T14:34:59Z</time>
      </trkpt>
      <trkpt lat="43.58404" lon="3.39156">
        <ele>282</ele>
        <time>2016-02-14T14:35:00Z</time>
      </trkpt>
      <trkpt lat="43.58403" lon="3.39158">
        <ele>282.5</ele>
        <time>2016-02-14T14:35:01Z</time>
      </trkpt>
      <trkpt lat="43.58402" lon="3.39161">
        <ele>282.5</ele>
        <time>2016-02-14T14:35:02Z</time>
      </trkpt>
      <trkpt lat="43.58401" lon="3.39164">
        <ele>282.5</ele>
        <time>2016-02-14T14:35:03Z</time>
      </trkpt>
      <trkpt lat="43.584" lon="3.39167">
        <ele>283</ele>
        <time>2016-02-14T14:35:04Z</time>
      </trkpt>
      <trkpt lat="43.58399" lon="3.39169">
        <ele>283</ele>
        <time>2016-02-14T14:35:05Z</time>
      </trkpt>
      <trkpt lat="43.58398" lon="3.39172">
        <ele>283.5</ele>
        <time>2016-02-14T14:35:06Z</time>
      </trkpt>
      <trkpt lat="43.58397" lon="3.39175">
        <ele>283.5</ele>
        <time>2016-02-14T14:35:07Z</time>
      </trkpt>
      <trkpt lat="43.58396" lon="3.39178">
        <ele>283.5</ele>
        <time>2016-02-14T14:35:08Z</time>
      </trkpt>
      <trkpt lat="43.58395" lon="3.3918">
        <ele>284</ele>
        <time>2016-02-14T14:35:09Z</time>
      </trkpt>
      <trkpt lat="43.58395" lon="3.39183">
        <ele>284</ele>
        <time>2016-02-14T14:35:10Z</time>
      </trkpt>
      <trkpt lat="43.58393" lon="3.39186">
        <ele>284</ele>
        <time>2016-02-14T14:35:11Z</time>
      </trkpt>
      <trkpt lat="43.58392" lon="3.39188">
        <ele>283.5</ele>
        <time>2016-02-14T14:35:12Z</time>
      </trkpt>
      <trkpt lat="43.5839" lon="3.39191">
        <ele>283.5</ele>
        <time>2016-02-14T14:35:13Z</time>
      </trkpt>
      <trkpt lat="43.58389" lon="3.39194">
        <ele>284</ele>
        <time>2016-02-14T14:35:14Z</time>
      </trkpt>
      <trkpt lat="43.58389" lon="3.39196">
        <ele>284.5</ele>
        <time>2016-02-14T14:35:15Z</time>
      </trkpt>
      <trkpt lat="43.58387" lon="3.39199">
        <ele>284.5</ele>
        <time>2016-02-14T14:35:16Z</time>
      </trkpt>
      <trkpt lat="43.58386" lon="3.39201">
        <ele>285</ele>
        <time>2016-02-14T14:35:17Z</time>
      </trkpt>
      <trkpt lat="43.58384" lon="3.39203">
        <ele>285</ele>
        <time>2016-02-14T14:35:18Z</time>
      </trkpt>
      <trkpt lat="43.58383" lon="3.39206">
        <ele>285.5</ele>
        <time>2016-02-14T14:35:19Z</time>
      </trkpt>
      <trkpt lat="43.58382" lon="3.39208">
        <ele>286</ele>
        <time>2016-02-14T14:35:20Z</time>
      </trkpt>
      <trkpt lat="43.5838" lon="3.3921">
        <ele>286</ele>
        <time>2016-02-14T14:35:21Z</time>
      </trkpt>
      <trkpt lat="43.58379" lon="3.39212">
        <ele>287</ele>
        <time>2016-02-14T14:35:22Z</time>
      </trkpt>
      <trkpt lat="43.58377" lon="3.39213">
        <ele>287</ele>
        <time>2016-02-14T14:35:23Z</time>
      </trkpt>
      <trkpt lat="43.58375" lon="3.39215">
        <ele>287.5</ele>
        <time>2016-02-14T14:35:24Z</time>
      </trkpt>
      <trkpt lat="43.58373" lon="3.39217">
        <ele>287.5</ele>
        <time>2016-02-14T14:35:25Z</time>
      </trkpt>
      <trkpt lat="43.58372" lon="3.39219">
        <ele>288</ele>
        <time>2016-02-14T14:35:26Z</time>
      </trkpt>
      <trkpt lat="43.5837" lon="3.39221">
        <ele>288.5</ele>
        <time>2016-02-14T14:35:27Z</time>
      </trkpt>
      <trkpt lat="43.58369" lon="3.39223">
        <ele>289</ele>
        <time>2016-02-14T14:35:28Z</time>
      </trkpt>
      <trkpt lat="43.58367" lon="3.39224">
        <ele>289</ele>
        <time>2016-02-14T14:35:29Z</time>
      </trkpt>
      <trkpt lat="43.58365" lon="3.39226">
        <ele>289</ele>
        <time>2016-02-14T14:35:30Z</time>
      </trkpt>
      <trkpt lat="43.58363" lon="3.39228">
        <ele>289.5</ele>
        <time>2016-02-14T14:35:31Z</time>
      </trkpt>
      <trkpt lat="43.58362" lon="3.3923">
        <ele>289.5</ele>
        <time>2016-02-14T14:35:32Z</time>
      </trkpt>
      <trkpt lat="43.5836" lon="3.39232">
        <ele>289.5</ele>
        <time>2016-02-14T14:35:33Z</time>
      </trkpt>
      <trkpt lat="43.58358" lon="3.39234">
        <ele>290</ele>
        <time>2016-02-14T14:35:34Z</time>
      </trkpt>
      <trkpt lat="43.58356" lon="3.39236">
        <ele>290</ele>
        <time>2016-02-14T14:35:35Z</time>
      </trkpt>
      <trkpt lat="43.58353" lon="3.39238">
        <ele>289</ele>
        <time>2016-02-14T14:35:36Z</time>
      </trkpt>
      <trkpt lat="43.58351" lon="3.3924">
        <ele>288.5</ele>
        <time>2016-02-14T14:35:37Z</time>
      </trkpt>
      <trkpt lat="43.5835" lon="3.39242">
        <ele>288.5</ele>
        <time>2016-02-14T14:35:38Z</time>
      </trkpt>
      <trkpt lat="43.58348" lon="3.39245">
        <ele>289</ele>
        <time>2016-02-14T14:35:39Z</time>
      </trkpt>
      <trkpt lat="43.58346" lon="3.39247">
        <ele>289</ele>
        <time>2016-02-14T14:35:40Z</time>
      </trkpt>
      <trkpt lat="43.58345" lon="3.3925">
        <ele>289</ele>
        <time>2016-02-14T14:35:41Z</time>
      </trkpt>
      <trkpt lat="43.58343" lon="3.39252">
        <ele>289</ele>
        <time>2016-02-14T14:35:42Z</time>
      </trkpt>
      <trkpt lat="43.58342" lon="3.39255">
        <ele>290</ele>
        <time>2016-02-14T14:35:43Z</time>
      </trkpt>
      <trkpt lat="43.58341" lon="3.39257">
        <ele>290</ele>
        <time>2016-02-14T14:35:44Z</time>
      </trkpt>
      <trkpt lat="43.58339" lon="3.39259">
        <ele>290.5</ele>
        <time>2016-02-14T14:35:45Z</time>
      </trkpt>
      <trkpt lat="43.58338" lon="3.39261">
        <ele>291</ele>
        <time>2016-02-14T14:35:46Z</time>
      </trkpt>
      <trkpt lat="43.58336" lon="3.39263">
        <ele>291</ele>
        <time>2016-02-14T14:35:47Z</time>
      </trkpt>
      <trkpt lat="43.58335" lon="3.39265">
        <ele>291</ele>
        <time>2016-02-14T14:35:48Z</time>
      </trkpt>
      <trkpt lat="43.58333" lon="3.39267">
        <ele>291</ele>
        <time>2016-02-14T14:35:49Z</time>
      </trkpt>
      <trkpt lat="43.58332" lon="3.39269">
        <ele>291</ele>
        <time>2016-02-14T14:35:50Z</time>
      </trkpt>
      <trkpt lat="43.5833" lon="3.39271">
        <ele>291.5</ele>
        <time>2016-02-14T14:35:51Z</time>
      </trkpt>
      <trkpt lat="43.58329" lon="3.39273">
        <ele>291.5</ele>
        <time>2016-02-14T14:35:51Z</time>
      </trkpt>
      <trkpt lat="43.58327" lon="3.39275">
        <ele>291.5</ele>
        <time>2016-02-14T14:35:52Z</time>
      </trkpt>
      <trkpt lat="43.58326" lon="3.39277">
        <ele>291.5</ele>
        <time>2016-02-14T14:35:53Z</time>
      </trkpt>
      <trkpt lat="43.58324" lon="3.39279">
        <ele>291</ele>
        <time>2016-02-14T14:35:54Z</time>
      </trkpt>
      <trkpt lat="43.58323" lon="3.39282">
        <ele>289.5</ele>
        <time>2016-02-14T14:35:55Z</time>
      </trkpt>
      <trkpt lat="43.58322" lon="3.39284">
        <ele>289.5</ele>
        <time>2016-02-14T14:35:56Z</time>
      </trkpt>
      <trkpt lat="43.5832" lon="3.39286">
        <ele>289.5</ele>
        <time>2016-02-14T14:35:57Z</time>
      </trkpt>
      <trkpt lat="43.58319" lon="3.39289">
        <ele>289.5</ele>
        <time>2016-02-14T14:35:59Z</time>
      </trkpt>
      <trkpt lat="43.58317" lon="3.39291">
        <ele>289.5</ele>
        <time>2016-02-14T14:35:59Z</time>
      </trkpt>
      <trkpt lat="43.58316" lon="3.39293">
        <ele>289.5</ele>
        <time>2016-02-14T14:36:00Z</time>
      </trkpt>
      <trkpt lat="43.58315" lon="3.39295">
        <ele>290</ele>
        <time>2016-02-14T14:36:01Z</time>
      </trkpt>
      <trkpt lat="43.58314" lon="3.39297">
        <ele>290</ele>
        <time>2016-02-14T14:36:02Z</time>
      </trkpt>
      <trkpt lat="43.58313" lon="3.393">
        <ele>290</ele>
        <time>2016-02-14T14:36:03Z</time>
      </trkpt>
      <trkpt lat="43.58312" lon="3.39302">
        <ele>289.5</ele>
        <time>2016-02-14T14:36:04Z</time>
      </trkpt>
      <trkpt lat="43.5831" lon="3.39304">
        <ele>289</ele>
        <time>2016-02-14T14:36:05Z</time>
      </trkpt>
      <trkpt lat="43.58309" lon="3.39307">
        <ele>289</ele>
        <time>2016-02-14T14:36:06Z</time>
      </trkpt>
      <trkpt lat="43.58308" lon="3.3931">
        <ele>289</ele>
        <time>2016-02-14T14:36:07Z</time>
      </trkpt>
      <trkpt lat="43.58308" lon="3.39312">
        <ele>289.5</ele>
        <time>2016-02-14T14:36:08Z</time>
      </trkpt>
      <trkpt lat="43.58307" lon="3.39315">
        <ele>289.5</ele>
        <time>2016-02-14T14:36:09Z</time>
      </trkpt>
      <trkpt lat="43.58306" lon="3.39318">
        <ele>289.5</ele>
        <time>2016-02-14T14:36:10Z</time>
      </trkpt>
      <trkpt lat="43.58305" lon="3.39321">
        <ele>289.5</ele>
        <time>2016-02-14T14:36:11Z</time>
      </trkpt>
      <trkpt lat="43.58304" lon="3.39323">
        <ele>289</ele>
        <time>2016-02-14T14:36:12Z</time>
      </trkpt>
      <trkpt lat="43.58303" lon="3.39326">
        <ele>289.5</ele>
        <time>2016-02-14T14:36:13Z</time>
      </trkpt>
      <trkpt lat="43.58302" lon="3.39329">
        <ele>289</ele>
        <time>2016-02-14T14:36:14Z</time>
      </trkpt>
      <trkpt lat="43.583" lon="3.39331">
        <ele>289</ele>
        <time>2016-02-14T14:36:15Z</time>
      </trkpt>
      <trkpt lat="43.583" lon="3.39334">
        <ele>289</ele>
        <time>2016-02-14T14:36:16Z</time>
      </trkpt>
      <trkpt lat="43.58298" lon="3.39337">
        <ele>289</ele>
        <time>2016-02-14T14:36:17Z</time>
      </trkpt>
      <trkpt lat="43.58296" lon="3.39339">
        <ele>288.5</ele>
        <time>2016-02-14T14:36:18Z</time>
      </trkpt>
      <trkpt lat="43.58296" lon="3.39342">
        <ele>288.5</ele>
        <time>2016-02-14T14:36:19Z</time>
      </trkpt>
      <trkpt lat="43.58294" lon="3.39345">
        <ele>288.5</ele>
        <time>2016-02-14T14:36:20Z</time>
      </trkpt>
      <trkpt lat="43.58293" lon="3.39347">
        <ele>289</ele>
        <time>2016-02-14T14:36:21Z</time>
      </trkpt>
      <trkpt lat="43.58291" lon="3.39349">
        <ele>289</ele>
        <time>2016-02-14T14:36:22Z</time>
      </trkpt>
      <trkpt lat="43.58289" lon="3.39351">
        <ele>289</ele>
        <time>2016-02-14T14:36:23Z</time>
      </trkpt>
      <trkpt lat="43.58288" lon="3.39353">
        <ele>289.5</ele>
        <time>2016-02-14T14:36:24Z</time>
      </trkpt>
      <trkpt lat="43.58287" lon="3.39355">
        <ele>290</ele>
        <time>2016-02-14T14:36:25Z</time>
      </trkpt>
      <trkpt lat="43.58285" lon="3.39357">
        <ele>290</ele>
        <time>2016-02-14T14:36:26Z</time>
      </trkpt>
      <trkpt lat="43.58284" lon="3.39359">
        <ele>290.5</ele>
        <time>2016-02-14T14:36:27Z</time>
      </trkpt>
      <trkpt lat="43.58283" lon="3.39362">
        <ele>290.5</ele>
        <time>2016-02-14T14:36:28Z</time>
      </trkpt>
      <trkpt lat="43.58283" lon="3.39364">
        <ele>291</ele>
        <time>2016-02-14T14:36:29Z</time>
      </trkpt>
      <trkpt lat="43.58283" lon="3.39367">
        <ele>291</ele>
        <time>2016-02-14T14:36:30Z</time>
      </trkpt>
      <trkpt lat="43.58284" lon="3.39369">
        <ele>292</ele>
        <time>2016-02-14T14:36:31Z</time>
      </trkpt>
      <trkpt lat="43.58286" lon="3.3937">
        <ele>292.5</ele>
        <time>2016-02-14T14:36:32Z</time>
      </trkpt>
      <trkpt lat="43.58287" lon="3.39371">
        <ele>293</ele>
        <time>2016-02-14T14:36:33Z</time>
      </trkpt>
      <trkpt lat="43.58289" lon="3.39372">
        <ele>293.5</ele>
        <time>2016-02-14T14:36:34Z</time>
      </trkpt>
      <trkpt lat="43.58291" lon="3.39374">
        <ele>293.5</ele>
        <time>2016-02-14T14:36:35Z</time>
      </trkpt>
      <trkpt lat="43.58292" lon="3.39375">
        <ele>294.5</ele>
        <time>2016-02-14T14:36:36Z</time>
      </trkpt>
      <trkpt lat="43.58294" lon="3.39378">
        <ele>294</ele>
        <time>2016-02-14T14:36:37Z</time>
      </trkpt>
      <trkpt lat="43.58295" lon="3.39379">
        <ele>294.5</ele>
        <time>2016-02-14T14:36:38Z</time>
      </trkpt>
      <trkpt lat="43.58296" lon="3.3938">
        <ele>294.5</ele>
        <time>2016-02-14T14:36:39Z</time>
      </trkpt>
      <trkpt lat="43.58298" lon="3.39382">
        <ele>295</ele>
        <time>2016-02-14T14:36:40Z</time>
      </trkpt>
      <trkpt lat="43.58299" lon="3.39383">
        <ele>295.5</ele>
        <time>2016-02-14T14:36:41Z</time>
      </trkpt>
      <trkpt lat="43.58301" lon="3.39384">
        <ele>295.5</ele>
        <time>2016-02-14T14:36:42Z</time>
      </trkpt>
      <trkpt lat="43.58302" lon="3.39385">
        <ele>296</ele>
        <time>2016-02-14T14:36:43Z</time>
      </trkpt>
      <trkpt lat="43.58303" lon="3.39387">
        <ele>295.5</ele>
        <time>2016-02-14T14:36:44Z</time>
      </trkpt>
      <trkpt lat="43.58304" lon="3.39388">
        <ele>296</ele>
        <time>2016-02-14T14:36:45Z</time>
      </trkpt>
      <trkpt lat="43.58306" lon="3.3939">
        <ele>295.5</ele>
        <time>2016-02-14T14:36:46Z</time>
      </trkpt>
      <trkpt lat="43.58307" lon="3.39392">
        <ele>296</ele>
        <time>2016-02-14T14:36:47Z</time>
      </trkpt>
      <trkpt lat="43.58308" lon="3.39393">
        <ele>296</ele>
        <time>2016-02-14T14:36:48Z</time>
      </trkpt>
      <trkpt lat="43.58309" lon="3.39395">
        <ele>296.5</ele>
        <time>2016-02-14T14:36:49Z</time>
      </trkpt>
      <trkpt lat="43.5831" lon="3.39396">
        <ele>296.5</ele>
        <time>2016-02-14T14:36:50Z</time>
      </trkpt>
      <trkpt lat="43.58311" lon="3.39397">
        <ele>296.5</ele>
        <time>2016-02-14T14:36:51Z</time>
      </trkpt>
      <trkpt lat="43.58312" lon="3.39398">
        <ele>296.5</ele>
        <time>2016-02-14T14:36:52Z</time>
      </trkpt>
      <trkpt lat="43.58314" lon="3.39399">
        <ele>296.5</ele>
        <time>2016-02-14T14:36:53Z</time>
      </trkpt>
      <trkpt lat="43.58315" lon="3.394">
        <ele>296</ele>
        <time>2016-02-14T14:36:54Z</time>
      </trkpt>
      <trkpt lat="43.58316" lon="3.39401">
        <ele>296</ele>
        <time>2016-02-14T14:36:55Z</time>
      </trkpt>
      <trkpt lat="43.58317" lon="3.39402">
        <ele>296</ele>
        <time>2016-02-14T14:36:56Z</time>
      </trkpt>
      <trkpt lat="43.58319" lon="3.39404">
        <ele>296</ele>
        <time>2016-02-14T14:36:57Z</time>
      </trkpt>
      <trkpt lat="43.58321" lon="3.39406">
        <ele>295</ele>
        <time>2016-02-14T14:36:58Z</time>
      </trkpt>
      <trkpt lat="43.58322" lon="3.39408">
        <ele>294.5</ele>
        <time>2016-02-14T14:36:59Z</time>
      </trkpt>
      <trkpt lat="43.58324" lon="3.39411">
        <ele>294</ele>
        <time>2016-02-14T14:37:00Z</time>
      </trkpt>
      <trkpt lat="43.58326" lon="3.39413">
        <ele>293.5</ele>
        <time>2016-02-14T14:37:01Z</time>
      </trkpt>
      <trkpt lat="43.58328" lon="3.39415">
        <ele>294</ele>
        <time>2016-02-14T14:37:02Z</time>
      </trkpt>
      <trkpt lat="43.5833" lon="3.39416">
        <ele>294</ele>
        <time>2016-02-14T14:37:03Z</time>
      </trkpt>
      <trkpt lat="43.58332" lon="3.39419">
        <ele>293</ele>
        <time>2016-02-14T14:37:04Z</time>
      </trkpt>
      <trkpt lat="43.58335" lon="3.3942">
        <ele>293</ele>
        <time>2016-02-14T14:37:05Z</time>
      </trkpt>
      <trkpt lat="43.58337" lon="3.39423">
        <ele>292.5</ele>
        <time>2016-02-14T14:37:06Z</time>
      </trkpt>
      <trkpt lat="43.58339" lon="3.39425">
        <ele>292.5</ele>
        <time>2016-02-14T14:37:07Z</time>
      </trkpt>
      <trkpt lat="43.58341" lon="3.39427">
        <ele>292.5</ele>
        <time>2016-02-14T14:37:08Z</time>
      </trkpt>
      <trkpt lat="43.58343" lon="3.39429">
        <ele>292.5</ele>
        <time>2016-02-14T14:37:09Z</time>
      </trkpt>
      <trkpt lat="43.58345" lon="3.39432">
        <ele>292.5</ele>
        <time>2016-02-14T14:37:10Z</time>
      </trkpt>
      <trkpt lat="43.58347" lon="3.39434">
        <ele>292.5</ele>
        <time>2016-02-14T14:37:11Z</time>
      </trkpt>
      <trkpt lat="43.58348" lon="3.39436">
        <ele>292.5</ele>
        <time>2016-02-14T14:37:12Z</time>
      </trkpt>
      <trkpt lat="43.5835" lon="3.39438">
        <ele>292.5</ele>
        <time>2016-02-14T14:37:13Z</time>
      </trkpt>
      <trkpt lat="43.58351" lon="3.39441">
        <ele>293</ele>
        <time>2016-02-14T14:37:14Z</time>
      </trkpt>
      <trkpt lat="43.58353" lon="3.39443">
        <ele>293</ele>
        <time>2016-02-14T14:37:15Z</time>
      </trkpt>
      <trkpt lat="43.58355" lon="3.39445">
        <ele>294.5</ele>
        <time>2016-02-14T14:37:16Z</time>
      </trkpt>
      <trkpt lat="43.58356" lon="3.39449">
        <ele>294</ele>
        <time>2016-02-14T14:37:17Z</time>
      </trkpt>
      <trkpt lat="43.58357" lon="3.39451">
        <ele>294.5</ele>
        <time>2016-02-14T14:37:18Z</time>
      </trkpt>
      <trkpt lat="43.58358" lon="3.39454">
        <ele>294.5</ele>
        <time>2016-02-14T14:37:19Z</time>
      </trkpt>
      <trkpt lat="43.58359" lon="3.39457">
        <ele>294.5</ele>
        <time>2016-02-14T14:37:20Z</time>
      </trkpt>
      <trkpt lat="43.58359" lon="3.3946">
        <ele>294.5</ele>
        <time>2016-02-14T14:37:21Z</time>
      </trkpt>
      <trkpt lat="43.5836" lon="3.39463">
        <ele>295</ele>
        <time>2016-02-14T14:37:22Z</time>
      </trkpt>
      <trkpt lat="43.58361" lon="3.39466">
        <ele>295</ele>
        <time>2016-02-14T14:37:23Z</time>
      </trkpt>
      <trkpt lat="43.58361" lon="3.39469">
        <ele>295</ele>
        <time>2016-02-14T14:37:24Z</time>
      </trkpt>
      <trkpt lat="43.58362" lon="3.39472">
        <ele>295</ele>
        <time>2016-02-14T14:37:25Z</time>
      </trkpt>
      <trkpt lat="43.58363" lon="3.39475">
        <ele>295</ele>
        <time>2016-02-14T14:37:26Z</time>
      </trkpt>
      <trkpt lat="43.58364" lon="3.39478">
        <ele>295</ele>
        <time>2016-02-14T14:37:27Z</time>
      </trkpt>
      <trkpt lat="43.58365" lon="3.39481">
        <ele>295.5</ele>
        <time>2016-02-14T14:37:28Z</time>
      </trkpt>
      <trkpt lat="43.58365" lon="3.39485">
        <ele>295.5</ele>
        <time>2016-02-14T14:37:29Z</time>
      </trkpt>
      <trkpt lat="43.58367" lon="3.39488">
        <ele>295.5</ele>
        <time>2016-02-14T14:37:30Z</time>
      </trkpt>
      <trkpt lat="43.58367" lon="3.39492">
        <ele>295.5</ele>
        <time>2016-02-14T14:37:31Z</time>
      </trkpt>
      <trkpt lat="43.58368" lon="3.39495">
        <ele>295.5</ele>
        <time>2016-02-14T14:37:32Z</time>
      </trkpt>
      <trkpt lat="43.58369" lon="3.39498">
        <ele>295.5</ele>
        <time>2016-02-14T14:37:33Z</time>
      </trkpt>
      <trkpt lat="43.5837" lon="3.39501">
        <ele>295.5</ele>
        <time>2016-02-14T14:37:34Z</time>
      </trkpt>
      <trkpt lat="43.5837" lon="3.39505">
        <ele>295.5</ele>
        <time>2016-02-14T14:37:35Z</time>
      </trkpt>
      <trkpt lat="43.58371" lon="3.39508">
        <ele>295.5</ele>
        <time>2016-02-14T14:37:36Z</time>
      </trkpt>
      <trkpt lat="43.58372" lon="3.39511">
        <ele>295.5</ele>
        <time>2016-02-14T14:37:37Z</time>
      </trkpt>
      <trkpt lat="43.58373" lon="3.39514">
        <ele>296</ele>
        <time>2016-02-14T14:37:38Z</time>
      </trkpt>
      <trkpt lat="43.58374" lon="3.39517">
        <ele>296.5</ele>
        <time>2016-02-14T14:37:39Z</time>
      </trkpt>
      <trkpt lat="43.58375" lon="3.3952">
        <ele>297</ele>
        <time>2016-02-14T14:37:40Z</time>
      </trkpt>
      <trkpt lat="43.58376" lon="3.39522">
        <ele>297.5</ele>
        <time>2016-02-14T14:37:41Z</time>
      </trkpt>
      <trkpt lat="43.58377" lon="3.39525">
        <ele>298</ele>
        <time>2016-02-14T14:37:42Z</time>
      </trkpt>
      <trkpt lat="43.58378" lon="3.39526">
        <ele>298.5</ele>
        <time>2016-02-14T14:37:43Z</time>
      </trkpt>
      <trkpt lat="43.58379" lon="3.39528">
        <ele>299</ele>
        <time>2016-02-14T14:37:44Z</time>
      </trkpt>
      <trkpt lat="43.58381" lon="3.39531">
        <ele>300</ele>
        <time>2016-02-14T14:37:45Z</time>
      </trkpt>
      <trkpt lat="43.58382" lon="3.39534">
        <ele>299.5</ele>
        <time>2016-02-14T14:37:46Z</time>
      </trkpt>
      <trkpt lat="43.58383" lon="3.39536">
        <ele>300</ele>
        <time>2016-02-14T14:37:47Z</time>
      </trkpt>
      <trkpt lat="43.58384" lon="3.39538">
        <ele>300.5</ele>
        <time>2016-02-14T14:37:48Z</time>
      </trkpt>
      <trkpt lat="43.58385" lon="3.3954">
        <ele>301</ele>
        <time>2016-02-14T14:37:49Z</time>
      </trkpt>
      <trkpt lat="43.58386" lon="3.39542">
        <ele>301.5</ele>
        <time>2016-02-14T14:37:50Z</time>
      </trkpt>
      <trkpt lat="43.58388" lon="3.39544">
        <ele>302</ele>
        <time>2016-02-14T14:37:51Z</time>
      </trkpt>
      <trkpt lat="43.58389" lon="3.39545">
        <ele>302</ele>
        <time>2016-02-14T14:37:52Z</time>
      </trkpt>
      <trkpt lat="43.5839" lon="3.39547">
        <ele>302.5</ele>
        <time>2016-02-14T14:37:53Z</time>
      </trkpt>
      <trkpt lat="43.58391" lon="3.39549">
        <ele>302.5</ele>
        <time>2016-02-14T14:37:54Z</time>
      </trkpt>
      <trkpt lat="43.58392" lon="3.39551">
        <ele>303</ele>
        <time>2016-02-14T14:37:55Z</time>
      </trkpt>
      <trkpt lat="43.58393" lon="3.39553">
        <ele>303</ele>
        <time>2016-02-14T14:37:56Z</time>
      </trkpt>
      <trkpt lat="43.58394" lon="3.39555">
        <ele>303.5</ele>
        <time>2016-02-14T14:37:57Z</time>
      </trkpt>
      <trkpt lat="43.58396" lon="3.39557">
        <ele>303.5</ele>
        <time>2016-02-14T14:37:58Z</time>
      </trkpt>
      <trkpt lat="43.58396" lon="3.39559">
        <ele>303.5</ele>
        <time>2016-02-14T14:37:59Z</time>
      </trkpt>
      <trkpt lat="43.58397" lon="3.39561">
        <ele>304</ele>
        <time>2016-02-14T14:38:00Z</time>
      </trkpt>
      <trkpt lat="43.58397" lon="3.39563">
        <ele>304</ele>
        <time>2016-02-14T14:38:01Z</time>
      </trkpt>
      <trkpt lat="43.58397" lon="3.39566">
        <ele>304</ele>
        <time>2016-02-14T14:38:02Z</time>
      </trkpt>
      <trkpt lat="43.58397" lon="3.39569">
        <ele>304</ele>
        <time>2016-02-14T14:38:03Z</time>
      </trkpt>
      <trkpt lat="43.58396" lon="3.39571">
        <ele>304</ele>
        <time>2016-02-14T14:38:04Z</time>
      </trkpt>
      <trkpt lat="43.58396" lon="3.39574">
        <ele>304</ele>
        <time>2016-02-14T14:38:05Z</time>
      </trkpt>
      <trkpt lat="43.58395" lon="3.39577">
        <ele>304</ele>
        <time>2016-02-14T14:38:06Z</time>
      </trkpt>
      <trkpt lat="43.58394" lon="3.39579">
        <ele>304</ele>
        <time>2016-02-14T14:38:07Z</time>
      </trkpt>
      <trkpt lat="43.58393" lon="3.39581">
        <ele>303.5</ele>
        <time>2016-02-14T14:38:08Z</time>
      </trkpt>
      <trkpt lat="43.58392" lon="3.39582">
        <ele>303.5</ele>
        <time>2016-02-14T14:38:09Z</time>
      </trkpt>
      <trkpt lat="43.5839" lon="3.39584">
        <ele>303.5</ele>
        <time>2016-02-14T14:38:10Z</time>
      </trkpt>
      <trkpt lat="43.58389" lon="3.39586">
        <ele>304</ele>
        <time>2016-02-14T14:38:11Z</time>
      </trkpt>
      <trkpt lat="43.58388" lon="3.39588">
        <ele>304</ele>
        <time>2016-02-14T14:38:12Z</time>
      </trkpt>
      <trkpt lat="43.58386" lon="3.39589">
        <ele>304</ele>
        <time>2016-02-14T14:38:13Z</time>
      </trkpt>
      <trkpt lat="43.58385" lon="3.39591">
        <ele>304</ele>
        <time>2016-02-14T14:38:14Z</time>
      </trkpt>
      <trkpt lat="43.58384" lon="3.39592">
        <ele>304.5</ele>
        <time>2016-02-14T14:38:15Z</time>
      </trkpt>
      <trkpt lat="43.58383" lon="3.39593">
        <ele>305</ele>
        <time>2016-02-14T14:38:16Z</time>
      </trkpt>
      <trkpt lat="43.58382" lon="3.39595">
        <ele>306</ele>
        <time>2016-02-14T14:38:17Z</time>
      </trkpt>
      <trkpt lat="43.58381" lon="3.39596">
        <ele>306</ele>
        <time>2016-02-14T14:38:18Z</time>
      </trkpt>
      <trkpt lat="43.58381" lon="3.39598">
        <ele>307</ele>
        <time>2016-02-14T14:38:19Z</time>
      </trkpt>
      <trkpt lat="43.58379" lon="3.39599">
        <ele>307</ele>
        <time>2016-02-14T14:38:20Z</time>
      </trkpt>
      <trkpt lat="43.58378" lon="3.39601">
        <ele>307.5</ele>
        <time>2016-02-14T14:38:21Z</time>
      </trkpt>
      <trkpt lat="43.58377" lon="3.39603">
        <ele>308</ele>
        <time>2016-02-14T14:38:22Z</time>
      </trkpt>
      <trkpt lat="43.58376" lon="3.39605">
        <ele>308.5</ele>
        <time>2016-02-14T14:38:23Z</time>
      </trkpt>
      <trkpt lat="43.58375" lon="3.39607">
        <ele>307.5</ele>
        <time>2016-02-14T14:38:24Z</time>
      </trkpt>
      <trkpt lat="43.58372" lon="3.39611">
        <ele>307</ele>
        <time>2016-02-14T14:38:26Z</time>
      </trkpt>
      <trkpt lat="43.5837" lon="3.39613">
        <ele>307</ele>
        <time>2016-02-14T14:38:27Z</time>
      </trkpt>
      <trkpt lat="43.58369" lon="3.39615">
        <ele>306.5</ele>
        <time>2016-02-14T14:38:28Z</time>
      </trkpt>
      <trkpt lat="43.58369" lon="3.39617">
        <ele>306.5</ele>
        <time>2016-02-14T14:38:29Z</time>
      </trkpt>
      <trkpt lat="43.58369" lon="3.3962">
        <ele>307</ele>
        <time>2016-02-14T14:38:30Z</time>
      </trkpt>
      <trkpt lat="43.58369" lon="3.39622">
        <ele>307.5</ele>
        <time>2016-02-14T14:38:31Z</time>
      </trkpt>
      <trkpt lat="43.58369" lon="3.39624">
        <ele>308</ele>
        <time>2016-02-14T14:38:32Z</time>
      </trkpt>
      <trkpt lat="43.58369" lon="3.39626">
        <ele>308.5</ele>
        <time>2016-02-14T14:38:33Z</time>
      </trkpt>
      <trkpt lat="43.58369" lon="3.39628">
        <ele>309.5</ele>
        <time>2016-02-14T14:38:34Z</time>
      </trkpt>
      <trkpt lat="43.58369" lon="3.3963">
        <ele>309.5</ele>
        <time>2016-02-14T14:38:35Z</time>
      </trkpt>
      <trkpt lat="43.5837" lon="3.39632">
        <ele>309.5</ele>
        <time>2016-02-14T14:38:36Z</time>
      </trkpt>
      <trkpt lat="43.5837" lon="3.39634">
        <ele>310</ele>
        <time>2016-02-14T14:38:37Z</time>
      </trkpt>
      <trkpt lat="43.5837" lon="3.39636">
        <ele>310</ele>
        <time>2016-02-14T14:38:38Z</time>
      </trkpt>
      <trkpt lat="43.58371" lon="3.39638">
        <ele>310</ele>
        <time>2016-02-14T14:38:39Z</time>
      </trkpt>
      <trkpt lat="43.58371" lon="3.3964">
        <ele>310</ele>
        <time>2016-02-14T14:38:40Z</time>
      </trkpt>
      <trkpt lat="43.5837" lon="3.39642">
        <ele>310</ele>
        <time>2016-02-14T14:38:41Z</time>
      </trkpt>
      <trkpt lat="43.5837" lon="3.39645">
        <ele>310</ele>
        <time>2016-02-14T14:38:42Z</time>
      </trkpt>
      <trkpt lat="43.5837" lon="3.39647">
        <ele>310</ele>
        <time>2016-02-14T14:38:43Z</time>
      </trkpt>
      <trkpt lat="43.5837" lon="3.3965">
        <ele>310</ele>
        <time>2016-02-14T14:38:44Z</time>
      </trkpt>
      <trkpt lat="43.5837" lon="3.39652">
        <ele>310</ele>
        <time>2016-02-14T14:38:45Z</time>
      </trkpt>
      <trkpt lat="43.58371" lon="3.39655">
        <ele>310</ele>
        <time>2016-02-14T14:38:46Z</time>
      </trkpt>
      <trkpt lat="43.58371" lon="3.39657">
        <ele>310</ele>
        <time>2016-02-14T14:38:47Z</time>
      </trkpt>
      <trkpt lat="43.58371" lon="3.39659">
        <ele>310.5</ele>
        <time>2016-02-14T14:38:48Z</time>
      </trkpt>
      <trkpt lat="43.58372" lon="3.39662">
        <ele>311</ele>
        <time>2016-02-14T14:38:49Z</time>
      </trkpt>
      <trkpt lat="43.58372" lon="3.39664">
        <ele>311</ele>
        <time>2016-02-14T14:38:50Z</time>
      </trkpt>
      <trkpt lat="43.58373" lon="3.39667">
        <ele>311.5</ele>
        <time>2016-02-14T14:38:51Z</time>
      </trkpt>
      <trkpt lat="43.58373" lon="3.3967">
        <ele>312</ele>
        <time>2016-02-14T14:38:52Z</time>
      </trkpt>
      <trkpt lat="43.58374" lon="3.39672">
        <ele>312.5</ele>
        <time>2016-02-14T14:38:53Z</time>
      </trkpt>
      <trkpt lat="43.58374" lon="3.39675">
        <ele>312.5</ele>
        <time>2016-02-14T14:38:54Z</time>
      </trkpt>
      <trkpt lat="43.58374" lon="3.39678">
        <ele>312</ele>
        <time>2016-02-14T14:38:55Z</time>
      </trkpt>
      <trkpt lat="43.58374" lon="3.3968">
        <ele>312.5</ele>
        <time>2016-02-14T14:38:56Z</time>
      </trkpt>
      <trkpt lat="43.58375" lon="3.39683">
        <ele>312.5</ele>
        <time>2016-02-14T14:38:57Z</time>
      </trkpt>
      <trkpt lat="43.58375" lon="3.39686">
        <ele>313</ele>
        <time>2016-02-14T14:38:58Z</time>
      </trkpt>
      <trkpt lat="43.58375" lon="3.39688">
        <ele>313</ele>
        <time>2016-02-14T14:38:59Z</time>
      </trkpt>
      <trkpt lat="43.58376" lon="3.39691">
        <ele>313.5</ele>
        <time>2016-02-14T14:39:00Z</time>
      </trkpt>
      <trkpt lat="43.58377" lon="3.39693">
        <ele>313.5</ele>
        <time>2016-02-14T14:39:01Z</time>
      </trkpt>
      <trkpt lat="43.58377" lon="3.39696">
        <ele>314</ele>
        <time>2016-02-14T14:39:02Z</time>
      </trkpt>
      <trkpt lat="43.58377" lon="3.39698">
        <ele>315</ele>
        <time>2016-02-14T14:39:03Z</time>
      </trkpt>
      <trkpt lat="43.58378" lon="3.39701">
        <ele>315.5</ele>
        <time>2016-02-14T14:39:04Z</time>
      </trkpt>
      <trkpt lat="43.58377" lon="3.39704">
        <ele>316</ele>
        <time>2016-02-14T14:39:05Z</time>
      </trkpt>
      <trkpt lat="43.58377" lon="3.39706">
        <ele>316</ele>
        <time>2016-02-14T14:39:06Z</time>
      </trkpt>
      <trkpt lat="43.58377" lon="3.39709">
        <ele>317</ele>
        <time>2016-02-14T14:39:07Z</time>
      </trkpt>
      <trkpt lat="43.58377" lon="3.39711">
        <ele>317.5</ele>
        <time>2016-02-14T14:39:08Z</time>
      </trkpt>
      <trkpt lat="43.58377" lon="3.39714">
        <ele>318</ele>
        <time>2016-02-14T14:39:09Z</time>
      </trkpt>
      <trkpt lat="43.58377" lon="3.39716">
        <ele>318</ele>
        <time>2016-02-14T14:39:10Z</time>
      </trkpt>
      <trkpt lat="43.58377" lon="3.39719">
        <ele>318.5</ele>
        <time>2016-02-14T14:39:11Z</time>
      </trkpt>
      <trkpt lat="43.58378" lon="3.39721">
        <ele>319</ele>
        <time>2016-02-14T14:39:12Z</time>
      </trkpt>
      <trkpt lat="43.58378" lon="3.39724">
        <ele>319</ele>
        <time>2016-02-14T14:39:13Z</time>
      </trkpt>
      <trkpt lat="43.58378" lon="3.39727">
        <ele>319.5</ele>
        <time>2016-02-14T14:39:14Z</time>
      </trkpt>
      <trkpt lat="43.58378" lon="3.39729">
        <ele>319.5</ele>
        <time>2016-02-14T14:39:15Z</time>
      </trkpt>
      <trkpt lat="43.58378" lon="3.39732">
        <ele>319.5</ele>
        <time>2016-02-14T14:39:16Z</time>
      </trkpt>
      <trkpt lat="43.58379" lon="3.39735">
        <ele>319.5</ele>
        <time>2016-02-14T14:39:17Z</time>
      </trkpt>
      <trkpt lat="43.58379" lon="3.39737">
        <ele>319.5</ele>
        <time>2016-02-14T14:39:18Z</time>
      </trkpt>
      <trkpt lat="43.5838" lon="3.39739">
        <ele>320</ele>
        <time>2016-02-14T14:39:19Z</time>
      </trkpt>
      <trkpt lat="43.58381" lon="3.39741">
        <ele>320.5</ele>
        <time>2016-02-14T14:39:20Z</time>
      </trkpt>
      <trkpt lat="43.58382" lon="3.39743">
        <ele>321</ele>
        <time>2016-02-14T14:39:21Z</time>
      </trkpt>
      <trkpt lat="43.58382" lon="3.39745">
        <ele>321.5</ele>
        <time>2016-02-14T14:39:22Z</time>
      </trkpt>
      <trkpt lat="43.58383" lon="3.39747">
        <ele>322</ele>
        <time>2016-02-14T14:39:22Z</time>
      </trkpt>
      <trkpt lat="43.58384" lon="3.39749">
        <ele>322.5</ele>
        <time>2016-02-14T14:39:24Z</time>
      </trkpt>
      <trkpt lat="43.58385" lon="3.39751">
        <ele>322.5</ele>
        <time>2016-02-14T14:39:24Z</time>
      </trkpt>
      <trkpt lat="43.58386" lon="3.39752">
        <ele>322.5</ele>
        <time>2016-02-14T14:39:25Z</time>
      </trkpt>
      <trkpt lat="43.58388" lon="3.39754">
        <ele>322.5</ele>
        <time>2016-02-14T14:39:27Z</time>
      </trkpt>
      <trkpt lat="43.58389" lon="3.39755">
        <ele>323</ele>
        <time>2016-02-14T14:39:27Z</time>
      </trkpt>
      <trkpt lat="43.5839" lon="3.39757">
        <ele>323.5</ele>
        <time>2016-02-14T14:39:28Z</time>
      </trkpt>
      <trkpt lat="43.58391" lon="3.39758">
        <ele>324</ele>
        <time>2016-02-14T14:39:29Z</time>
      </trkpt>
      <trkpt lat="43.58392" lon="3.3976">
        <ele>324</ele>
        <time>2016-02-14T14:39:30Z</time>
      </trkpt>
      <trkpt lat="43.58393" lon="3.39761">
        <ele>324</ele>
        <time>2016-02-14T14:39:31Z</time>
      </trkpt>
      <trkpt lat="43.58395" lon="3.39762">
        <ele>324</ele>
        <time>2016-02-14T14:39:32Z</time>
      </trkpt>
      <trkpt lat="43.58396" lon="3.39763">
        <ele>324</ele>
        <time>2016-02-14T14:39:33Z</time>
      </trkpt>
      <trkpt lat="43.58398" lon="3.39764">
        <ele>324.5</ele>
        <time>2016-02-14T14:39:35Z</time>
      </trkpt>
      <trkpt lat="43.584" lon="3.39765">
        <ele>325</ele>
        <time>2016-02-14T14:39:35Z</time>
      </trkpt>
      <trkpt lat="43.58401" lon="3.39766">
        <ele>325</ele>
        <time>2016-02-14T14:39:36Z</time>
      </trkpt>
      <trkpt lat="43.58403" lon="3.39767">
        <ele>325.5</ele>
        <time>2016-02-14T14:39:37Z</time>
      </trkpt>
      <trkpt lat="43.58405" lon="3.39768">
        <ele>326</ele>
        <time>2016-02-14T14:39:38Z</time>
      </trkpt>
      <trkpt lat="43.58406" lon="3.39769">
        <ele>326</ele>
        <time>2016-02-14T14:39:39Z</time>
      </trkpt>
      <trkpt lat="43.58408" lon="3.3977">
        <ele>326</ele>
        <time>2016-02-14T14:39:40Z</time>
      </trkpt>
      <trkpt lat="43.5841" lon="3.39772">
        <ele>326.5</ele>
        <time>2016-02-14T14:39:41Z</time>
      </trkpt>
      <trkpt lat="43.58411" lon="3.39773">
        <ele>326.5</ele>
        <time>2016-02-14T14:39:42Z</time>
      </trkpt>
      <trkpt lat="43.58413" lon="3.39774">
        <ele>326.5</ele>
        <time>2016-02-14T14:39:43Z</time>
      </trkpt>
      <trkpt lat="43.58414" lon="3.39776">
        <ele>326.5</ele>
        <time>2016-02-14T14:39:44Z</time>
      </trkpt>
      <trkpt lat="43.58416" lon="3.39777">
        <ele>326.5</ele>
        <time>2016-02-14T14:39:45Z</time>
      </trkpt>
      <trkpt lat="43.58417" lon="3.39778">
        <ele>327.5</ele>
        <time>2016-02-14T14:39:46Z</time>
      </trkpt>
      <trkpt lat="43.58418" lon="3.39778">
        <ele>328</ele>
        <time>2016-02-14T14:39:47Z</time>
      </trkpt>
      <trkpt lat="43.5842" lon="3.39779">
        <ele>328.5</ele>
        <time>2016-02-14T14:39:48Z</time>
      </trkpt>
      <trkpt lat="43.58421" lon="3.39781">
        <ele>328.5</ele>
        <time>2016-02-14T14:39:49Z</time>
      </trkpt>
      <trkpt lat="43.58423" lon="3.39782">
        <ele>328.5</ele>
        <time>2016-02-14T14:39:50Z</time>
      </trkpt>
      <trkpt lat="43.58424" lon="3.39784">
        <ele>328.5</ele>
        <time>2016-02-14T14:39:52Z</time>
      </trkpt>
      <trkpt lat="43.58426" lon="3.39786">
        <ele>328.5</ele>
        <time>2016-02-14T14:39:52Z</time>
      </trkpt>
      <trkpt lat="43.58427" lon="3.39788">
        <ele>328</ele>
        <time>2016-02-14T14:39:53Z</time>
      </trkpt>
      <trkpt lat="43.58429" lon="3.39791">
        <ele>328</ele>
        <time>2016-02-14T14:39:54Z</time>
      </trkpt>
      <trkpt lat="43.5843" lon="3.39794">
        <ele>327.5</ele>
        <time>2016-02-14T14:39:55Z</time>
      </trkpt>
      <trkpt lat="43.58431" lon="3.39797">
        <ele>327</ele>
        <time>2016-02-14T14:39:56Z</time>
      </trkpt>
      <trkpt lat="43.58432" lon="3.398">
        <ele>327</ele>
        <time>2016-02-14T14:39:57Z</time>
      </trkpt>
      <trkpt lat="43.58433" lon="3.39803">
        <ele>327</ele>
        <time>2016-02-14T14:39:58Z</time>
      </trkpt>
      <trkpt lat="43.58433" lon="3.39806">
        <ele>327</ele>
        <time>2016-02-14T14:39:59Z</time>
      </trkpt>
      <trkpt lat="43.58433" lon="3.39809">
        <ele>327</ele>
        <time>2016-02-14T14:40:00Z</time>
      </trkpt>
      <trkpt lat="43.58433" lon="3.39811">
        <ele>327.5</ele>
        <time>2016-02-14T14:40:01Z</time>
      </trkpt>
      <trkpt lat="43.58432" lon="3.39814">
        <ele>327.5</ele>
        <time>2016-02-14T14:40:02Z</time>
      </trkpt>
      <trkpt lat="43.58432" lon="3.39816">
        <ele>327.5</ele>
        <time>2016-02-14T14:40:03Z</time>
      </trkpt>
      <trkpt lat="43.5843" lon="3.39819">
        <ele>327.5</ele>
        <time>2016-02-14T14:40:04Z</time>
      </trkpt>
      <trkpt lat="43.5843" lon="3.39821">
        <ele>328</ele>
        <time>2016-02-14T14:40:05Z</time>
      </trkpt>
      <trkpt lat="43.58429" lon="3.39823">
        <ele>328</ele>
        <time>2016-02-14T14:40:06Z</time>
      </trkpt>
      <trkpt lat="43.58428" lon="3.39825">
        <ele>328.5</ele>
        <time>2016-02-14T14:40:07Z</time>
      </trkpt>
      <trkpt lat="43.58427" lon="3.39826">
        <ele>329</ele>
        <time>2016-02-14T14:40:09Z</time>
      </trkpt>
      <trkpt lat="43.58426" lon="3.39828">
        <ele>329.5</ele>
        <time>2016-02-14T14:40:09Z</time>
      </trkpt>
      <trkpt lat="43.58425" lon="3.3983">
        <ele>330</ele>
        <time>2016-02-14T14:40:10Z</time>
      </trkpt>
      <trkpt lat="43.58424" lon="3.39832">
        <ele>330.5</ele>
        <time>2016-02-14T14:40:11Z</time>
      </trkpt>
      <trkpt lat="43.58424" lon="3.39834">
        <ele>331</ele>
        <time>2016-02-14T14:40:12Z</time>
      </trkpt>
      <trkpt lat="43.58422" lon="3.39837">
        <ele>331</ele>
        <time>2016-02-14T14:40:13Z</time>
      </trkpt>
      <trkpt lat="43.58422" lon="3.39839">
        <ele>331.5</ele>
        <time>2016-02-14T14:40:14Z</time>
      </trkpt>
      <trkpt lat="43.58421" lon="3.39841">
        <ele>332.5</ele>
        <time>2016-02-14T14:40:15Z</time>
      </trkpt>
      <trkpt lat="43.5842" lon="3.39842">
        <ele>332.5</ele>
        <time>2016-02-14T14:40:16Z</time>
      </trkpt>
      <trkpt lat="43.58419" lon="3.39845">
        <ele>332.5</ele>
        <time>2016-02-14T14:40:17Z</time>
      </trkpt>
      <trkpt lat="43.58418" lon="3.39847">
        <ele>333.5</ele>
        <time>2016-02-14T14:40:18Z</time>
      </trkpt>
      <trkpt lat="43.58418" lon="3.3985">
        <ele>333.5</ele>
        <time>2016-02-14T14:40:19Z</time>
      </trkpt>
      <trkpt lat="43.58417" lon="3.39852">
        <ele>334</ele>
        <time>2016-02-14T14:40:20Z</time>
      </trkpt>
      <trkpt lat="43.58416" lon="3.39855">
        <ele>334</ele>
        <time>2016-02-14T14:40:21Z</time>
      </trkpt>
      <trkpt lat="43.58416" lon="3.39857">
        <ele>334.5</ele>
        <time>2016-02-14T14:40:22Z</time>
      </trkpt>
      <trkpt lat="43.58415" lon="3.39859">
        <ele>335</ele>
        <time>2016-02-14T14:40:23Z</time>
      </trkpt>
      <trkpt lat="43.58414" lon="3.39862">
        <ele>335</ele>
        <time>2016-02-14T14:40:24Z</time>
      </trkpt>
      <trkpt lat="43.58413" lon="3.39864">
        <ele>335</ele>
        <time>2016-02-14T14:40:25Z</time>
      </trkpt>
      <trkpt lat="43.58412" lon="3.39867">
        <ele>334.5</ele>
        <time>2016-02-14T14:40:26Z</time>
      </trkpt>
      <trkpt lat="43.58411" lon="3.39869">
        <ele>333.5</ele>
        <time>2016-02-14T14:40:27Z</time>
      </trkpt>
      <trkpt lat="43.5841" lon="3.39871">
        <ele>333.5</ele>
        <time>2016-02-14T14:40:28Z</time>
      </trkpt>
      <trkpt lat="43.58408" lon="3.39873">
        <ele>333</ele>
        <time>2016-02-14T14:40:29Z</time>
      </trkpt>
      <trkpt lat="43.58407" lon="3.39875">
        <ele>332.5</ele>
        <time>2016-02-14T14:40:30Z</time>
      </trkpt>
      <trkpt lat="43.58406" lon="3.39877">
        <ele>332.5</ele>
        <time>2016-02-14T14:40:31Z</time>
      </trkpt>
      <trkpt lat="43.58404" lon="3.39879">
        <ele>332</ele>
        <time>2016-02-14T14:40:32Z</time>
      </trkpt>
      <trkpt lat="43.58402" lon="3.39881">
        <ele>331.5</ele>
        <time>2016-02-14T14:40:33Z</time>
      </trkpt>
      <trkpt lat="43.584" lon="3.39883">
        <ele>331</ele>
        <time>2016-02-14T14:40:34Z</time>
      </trkpt>
      <trkpt lat="43.58399" lon="3.39885">
        <ele>331</ele>
        <time>2016-02-14T14:40:35Z</time>
      </trkpt>
      <trkpt lat="43.58398" lon="3.39887">
        <ele>331</ele>
        <time>2016-02-14T14:40:36Z</time>
      </trkpt>
      <trkpt lat="43.58397" lon="3.3989">
        <ele>331.5</ele>
        <time>2016-02-14T14:40:37Z</time>
      </trkpt>
      <trkpt lat="43.58397" lon="3.39892">
        <ele>332</ele>
        <time>2016-02-14T14:40:38Z</time>
      </trkpt>
      <trkpt lat="43.58396" lon="3.39895">
        <ele>332.5</ele>
        <time>2016-02-14T14:40:39Z</time>
      </trkpt>
      <trkpt lat="43.58396" lon="3.39898">
        <ele>332.5</ele>
        <time>2016-02-14T14:40:40Z</time>
      </trkpt>
      <trkpt lat="43.58395" lon="3.399">
        <ele>333</ele>
        <time>2016-02-14T14:40:41Z</time>
      </trkpt>
      <trkpt lat="43.58395" lon="3.39903">
        <ele>333.5</ele>
        <time>2016-02-14T14:40:42Z</time>
      </trkpt>
      <trkpt lat="43.58395" lon="3.39906">
        <ele>334</ele>
        <time>2016-02-14T14:40:43Z</time>
      </trkpt>
      <trkpt lat="43.58395" lon="3.39909">
        <ele>334.5</ele>
        <time>2016-02-14T14:40:44Z</time>
      </trkpt>
      <trkpt lat="43.58395" lon="3.39912">
        <ele>335.5</ele>
        <time>2016-02-14T14:40:45Z</time>
      </trkpt>
      <trkpt lat="43.58396" lon="3.39916">
        <ele>335.5</ele>
        <time>2016-02-14T14:40:46Z</time>
      </trkpt>
      <trkpt lat="43.58397" lon="3.3992">
        <ele>336.5</ele>
        <time>2016-02-14T14:40:47Z</time>
      </trkpt>
      <trkpt lat="43.58398" lon="3.39923">
        <ele>337.5</ele>
        <time>2016-02-14T14:40:48Z</time>
      </trkpt>
      <trkpt lat="43.584" lon="3.39925">
        <ele>338.5</ele>
        <time>2016-02-14T14:40:49Z</time>
      </trkpt>
      <trkpt lat="43.58402" lon="3.39928">
        <ele>339.5</ele>
        <time>2016-02-14T14:40:50Z</time>
      </trkpt>
      <trkpt lat="43.58404" lon="3.39931">
        <ele>339.5</ele>
        <time>2016-02-14T14:40:51Z</time>
      </trkpt>
      <trkpt lat="43.58406" lon="3.39933">
        <ele>338.5</ele>
        <time>2016-02-14T14:40:52Z</time>
      </trkpt>
      <trkpt lat="43.58407" lon="3.39933">
        <ele>337</ele>
        <time>2016-02-14T14:40:53Z</time>
      </trkpt>
      <trkpt lat="43.58408" lon="3.39932">
        <ele>337</ele>
        <time>2016-02-14T14:40:54Z</time>
      </trkpt>
      <trkpt lat="43.58409" lon="3.39932">
        <ele>338</ele>
        <time>2016-02-14T14:40:55Z</time>
      </trkpt>
      <trkpt lat="43.5841" lon="3.39932">
        <ele>338</ele>
        <time>2016-02-14T14:40:56Z</time>
      </trkpt>
      <trkpt lat="43.58411" lon="3.39932">
        <ele>338</ele>
        <time>2016-02-14T14:40:57Z</time>
      </trkpt>
      <trkpt lat="43.58413" lon="3.39931">
        <ele>337.5</ele>
        <time>2016-02-14T14:40:58Z</time>
      </trkpt>
      <trkpt lat="43.58414" lon="3.39931">
        <ele>337.5</ele>
        <time>2016-02-14T14:40:59Z</time>
      </trkpt>
      <trkpt lat="43.58415" lon="3.3993">
        <ele>337</ele>
        <time>2016-02-14T14:41:00Z</time>
      </trkpt>
      <trkpt lat="43.58417" lon="3.3993">
        <ele>337</ele>
        <time>2016-02-14T14:41:01Z</time>
      </trkpt>
      <trkpt lat="43.58418" lon="3.3993">
        <ele>337.5</ele>
        <time>2016-02-14T14:41:02Z</time>
      </trkpt>
      <trkpt lat="43.5842" lon="3.39929">
        <ele>338</ele>
        <time>2016-02-14T14:41:03Z</time>
      </trkpt>
      <trkpt lat="43.58422" lon="3.39928">
        <ele>338</ele>
        <time>2016-02-14T14:41:04Z</time>
      </trkpt>
      <trkpt lat="43.58423" lon="3.39927">
        <ele>338</ele>
        <time>2016-02-14T14:41:05Z</time>
      </trkpt>
      <trkpt lat="43.58425" lon="3.39927">
        <ele>338</ele>
        <time>2016-02-14T14:41:06Z</time>
      </trkpt>
      <trkpt lat="43.58427" lon="3.39926">
        <ele>338</ele>
        <time>2016-02-14T14:41:07Z</time>
      </trkpt>
      <trkpt lat="43.58429" lon="3.39925">
        <ele>337.5</ele>
        <time>2016-02-14T14:41:08Z</time>
      </trkpt>
      <trkpt lat="43.58431" lon="3.39924">
        <ele>337.5</ele>
        <time>2016-02-14T14:41:09Z</time>
      </trkpt>
      <trkpt lat="43.58433" lon="3.39923">
        <ele>337.5</ele>
        <time>2016-02-14T14:41:10Z</time>
      </trkpt>
      <trkpt lat="43.58435" lon="3.39923">
        <ele>338</ele>
        <time>2016-02-14T14:41:11Z</time>
      </trkpt>
      <trkpt lat="43.58438" lon="3.39922">
        <ele>338.5</ele>
        <time>2016-02-14T14:41:12Z</time>
      </trkpt>
      <trkpt lat="43.5844" lon="3.39921">
        <ele>339</ele>
        <time>2016-02-14T14:41:13Z</time>
      </trkpt>
      <trkpt lat="43.58442" lon="3.39921">
        <ele>339.5</ele>
        <time>2016-02-14T14:41:14Z</time>
      </trkpt>
      <trkpt lat="43.58444" lon="3.3992">
        <ele>340</ele>
        <time>2016-02-14T14:41:15Z</time>
      </trkpt>
      <trkpt lat="43.58446" lon="3.3992">
        <ele>340</ele>
        <time>2016-02-14T14:41:16Z</time>
      </trkpt>
      <trkpt lat="43.58448" lon="3.39919">
        <ele>340.5</ele>
        <time>2016-02-14T14:41:17Z</time>
      </trkpt>
      <trkpt lat="43.5845" lon="3.39919">
        <ele>340.5</ele>
        <time>2016-02-14T14:41:18Z</time>
      </trkpt>
      <trkpt lat="43.58452" lon="3.39919">
        <ele>341</ele>
        <time>2016-02-14T14:41:19Z</time>
      </trkpt>
      <trkpt lat="43.58454" lon="3.3992">
        <ele>341.5</ele>
        <time>2016-02-14T14:41:20Z</time>
      </trkpt>
      <trkpt lat="43.58456" lon="3.3992">
        <ele>341.5</ele>
        <time>2016-02-14T14:41:21Z</time>
      </trkpt>
      <trkpt lat="43.58459" lon="3.39921">
        <ele>341.5</ele>
        <time>2016-02-14T14:41:22Z</time>
      </trkpt>
      <trkpt lat="43.58461" lon="3.39921">
        <ele>341.5</ele>
        <time>2016-02-14T14:41:23Z</time>
      </trkpt>
      <trkpt lat="43.58463" lon="3.39921">
        <ele>342</ele>
        <time>2016-02-14T14:41:24Z</time>
      </trkpt>
      <trkpt lat="43.58465" lon="3.39922">
        <ele>341.5</ele>
        <time>2016-02-14T14:41:25Z</time>
      </trkpt>
      <trkpt lat="43.58467" lon="3.39922">
        <ele>341.5</ele>
        <time>2016-02-14T14:41:26Z</time>
      </trkpt>
      <trkpt lat="43.58468" lon="3.39921">
        <ele>341.5</ele>
        <time>2016-02-14T14:41:27Z</time>
      </trkpt>
      <trkpt lat="43.5847" lon="3.39921">
        <ele>342</ele>
        <time>2016-02-14T14:41:28Z</time>
      </trkpt>
      <trkpt lat="43.58472" lon="3.39921">
        <ele>341.5</ele>
        <time>2016-02-14T14:41:29Z</time>
      </trkpt>
      <trkpt lat="43.58474" lon="3.39922">
        <ele>341.5</ele>
        <time>2016-02-14T14:41:30Z</time>
      </trkpt>
      <trkpt lat="43.58477" lon="3.39922">
        <ele>341.5</ele>
        <time>2016-02-14T14:41:31Z</time>
      </trkpt>
      <trkpt lat="43.5848" lon="3.39923">
        <ele>343.5</ele>
        <time>2016-02-14T14:41:32Z</time>
      </trkpt>
      <trkpt lat="43.58482" lon="3.39922">
        <ele>342.5</ele>
        <time>2016-02-14T14:41:33Z</time>
      </trkpt>
      <trkpt lat="43.58485" lon="3.39922">
        <ele>342</ele>
        <time>2016-02-14T14:41:34Z</time>
      </trkpt>
      <trkpt lat="43.58488" lon="3.39922">
        <ele>341</ele>
        <time>2016-02-14T14:41:35Z</time>
      </trkpt>
      <trkpt lat="43.58491" lon="3.39921">
        <ele>340.5</ele>
        <time>2016-02-14T14:41:36Z</time>
      </trkpt>
      <trkpt lat="43.58494" lon="3.3992">
        <ele>340</ele>
        <time>2016-02-14T14:41:37Z</time>
      </trkpt>
      <trkpt lat="43.58498" lon="3.39919">
        <ele>339.5</ele>
        <time>2016-02-14T14:41:38Z</time>
      </trkpt>
      <trkpt lat="43.58502" lon="3.39918">
        <ele>339</ele>
        <time>2016-02-14T14:41:39Z</time>
      </trkpt>
      <trkpt lat="43.58506" lon="3.39916">
        <ele>339</ele>
        <time>2016-02-14T14:41:40Z</time>
      </trkpt>
      <trkpt lat="43.5851" lon="3.39915">
        <ele>338.5</ele>
        <time>2016-02-14T14:41:41Z</time>
      </trkpt>
      <trkpt lat="43.58514" lon="3.39913">
        <ele>338</ele>
        <time>2016-02-14T14:41:42Z</time>
      </trkpt>
      <trkpt lat="43.58518" lon="3.39912">
        <ele>338</ele>
        <time>2016-02-14T14:41:43Z</time>
      </trkpt>
      <trkpt lat="43.58522" lon="3.39911">
        <ele>337.5</ele>
        <time>2016-02-14T14:41:44Z</time>
      </trkpt>
      <trkpt lat="43.58526" lon="3.3991">
        <ele>337</ele>
        <time>2016-02-14T14:41:45Z</time>
      </trkpt>
      <trkpt lat="43.5853" lon="3.39909">
        <ele>336.5</ele>
        <time>2016-02-14T14:41:46Z</time>
      </trkpt>
      <trkpt lat="43.58534" lon="3.39907">
        <ele>336.5</ele>
        <time>2016-02-14T14:41:47Z</time>
      </trkpt>
      <trkpt lat="43.58538" lon="3.39906">
        <ele>336</ele>
        <time>2016-02-14T14:41:48Z</time>
      </trkpt>
      <trkpt lat="43.58542" lon="3.39904">
        <ele>335.5</ele>
        <time>2016-02-14T14:41:49Z</time>
      </trkpt>
      <trkpt lat="43.58546" lon="3.39902">
        <ele>335.5</ele>
        <time>2016-02-14T14:41:50Z</time>
      </trkpt>
      <trkpt lat="43.58549" lon="3.399">
        <ele>335.5</ele>
        <time>2016-02-14T14:41:51Z</time>
      </trkpt>
      <trkpt lat="43.58552" lon="3.39897">
        <ele>335</ele>
        <time>2016-02-14T14:41:52Z</time>
      </trkpt>
      <trkpt lat="43.58555" lon="3.39895">
        <ele>334.5</ele>
        <time>2016-02-14T14:41:53Z</time>
      </trkpt>
      <trkpt lat="43.58557" lon="3.39893">
        <ele>334.5</ele>
        <time>2016-02-14T14:41:54Z</time>
      </trkpt>
      <trkpt lat="43.5856" lon="3.39891">
        <ele>334</ele>
        <time>2016-02-14T14:41:55Z</time>
      </trkpt>
      <trkpt lat="43.58563" lon="3.39889">
        <ele>333.5</ele>
        <time>2016-02-14T14:41:56Z</time>
      </trkpt>
      <trkpt lat="43.58566" lon="3.39887">
        <ele>333</ele>
        <time>2016-02-14T14:41:57Z</time>
      </trkpt>
      <trkpt lat="43.58569" lon="3.39884">
        <ele>333.5</ele>
        <time>2016-02-14T14:41:58Z</time>
      </trkpt>
      <trkpt lat="43.58572" lon="3.39881">
        <ele>333.5</ele>
        <time>2016-02-14T14:41:59Z</time>
      </trkpt>
      <trkpt lat="43.58575" lon="3.39879">
        <ele>333.5</ele>
        <time>2016-02-14T14:42:00Z</time>
      </trkpt>
      <trkpt lat="43.58578" lon="3.39877">
        <ele>333</ele>
        <time>2016-02-14T14:42:01Z</time>
      </trkpt>
      <trkpt lat="43.58581" lon="3.39874">
        <ele>333</ele>
        <time>2016-02-14T14:42:02Z</time>
      </trkpt>
      <trkpt lat="43.58584" lon="3.3987">
        <ele>333</ele>
        <time>2016-02-14T14:42:03Z</time>
      </trkpt>
      <trkpt lat="43.58588" lon="3.39867">
        <ele>332.5</ele>
        <time>2016-02-14T14:42:04Z</time>
      </trkpt>
      <trkpt lat="43.58591" lon="3.39864">
        <ele>332.5</ele>
        <time>2016-02-14T14:42:05Z</time>
      </trkpt>
      <trkpt lat="43.58594" lon="3.39861">
        <ele>332.5</ele>
        <time>2016-02-14T14:42:06Z</time>
      </trkpt>
      <trkpt lat="43.58598" lon="3.39858">
        <ele>332</ele>
        <time>2016-02-14T14:42:07Z</time>
      </trkpt>
      <trkpt lat="43.58602" lon="3.39855">
        <ele>332</ele>
        <time>2016-02-14T14:42:08Z</time>
      </trkpt>
      <trkpt lat="43.58605" lon="3.39853">
        <ele>332</ele>
        <time>2016-02-14T14:42:09Z</time>
      </trkpt>
      <trkpt lat="43.58609" lon="3.3985">
        <ele>332</ele>
        <time>2016-02-14T14:42:10Z</time>
      </trkpt>
      <trkpt lat="43.58613" lon="3.39848">
        <ele>332</ele>
        <time>2016-02-14T14:42:11Z</time>
      </trkpt>
      <trkpt lat="43.58617" lon="3.39846">
        <ele>332</ele>
        <time>2016-02-14T14:42:12Z</time>
      </trkpt>
      <trkpt lat="43.58621" lon="3.39844">
        <ele>332.5</ele>
        <time>2016-02-14T14:42:13Z</time>
      </trkpt>
      <trkpt lat="43.58625" lon="3.39843">
        <ele>332</ele>
        <time>2016-02-14T14:42:14Z</time>
      </trkpt>
      <trkpt lat="43.58629" lon="3.39842">
        <ele>332</ele>
        <time>2016-02-14T14:42:15Z</time>
      </trkpt>
      <trkpt lat="43.58632" lon="3.3984">
        <ele>331.5</ele>
        <time>2016-02-14T14:42:16Z</time>
      </trkpt>
      <trkpt lat="43.58636" lon="3.39839">
        <ele>331.5</ele>
        <time>2016-02-14T14:42:17Z</time>
      </trkpt>
      <trkpt lat="43.5864" lon="3.39839">
        <ele>331.5</ele>
        <time>2016-02-14T14:42:18Z</time>
      </trkpt>
      <trkpt lat="43.58644" lon="3.39838">
        <ele>331</ele>
        <time>2016-02-14T14:42:19Z</time>
      </trkpt>
      <trkpt lat="43.58648" lon="3.39837">
        <ele>332</ele>
        <time>2016-02-14T14:42:20Z</time>
      </trkpt>
      <trkpt lat="43.58652" lon="3.39837">
        <ele>332</ele>
        <time>2016-02-14T14:42:21Z</time>
      </trkpt>
      <trkpt lat="43.58657" lon="3.39838">
        <ele>333</ele>
        <time>2016-02-14T14:42:22Z</time>
      </trkpt>
      <trkpt lat="43.58661" lon="3.39838">
        <ele>332.5</ele>
        <time>2016-02-14T14:42:23Z</time>
      </trkpt>
      <trkpt lat="43.58665" lon="3.39839">
        <ele>332</ele>
        <time>2016-02-14T14:42:24Z</time>
      </trkpt>
      <trkpt lat="43.58669" lon="3.39839">
        <ele>332</ele>
        <time>2016-02-14T14:42:25Z</time>
      </trkpt>
      <trkpt lat="43.58673" lon="3.39839">
        <ele>332</ele>
        <time>2016-02-14T14:42:26Z</time>
      </trkpt>
      <trkpt lat="43.58677" lon="3.39839">
        <ele>331.5</ele>
        <time>2016-02-14T14:42:27Z</time>
      </trkpt>
      <trkpt lat="43.58681" lon="3.39839">
        <ele>332</ele>
        <time>2016-02-14T14:42:28Z</time>
      </trkpt>
      <trkpt lat="43.58685" lon="3.39838">
        <ele>332.5</ele>
        <time>2016-02-14T14:42:29Z</time>
      </trkpt>
      <trkpt lat="43.58689" lon="3.39838">
        <ele>332.5</ele>
        <time>2016-02-14T14:42:30Z</time>
      </trkpt>
      <trkpt lat="43.58693" lon="3.39838">
        <ele>333.5</ele>
        <time>2016-02-14T14:42:31Z</time>
      </trkpt>
      <trkpt lat="43.58697" lon="3.39839">
        <ele>333</ele>
        <time>2016-02-14T14:42:32Z</time>
      </trkpt>
      <trkpt lat="43.58701" lon="3.39839">
        <ele>333</ele>
        <time>2016-02-14T14:42:33Z</time>
      </trkpt>
      <trkpt lat="43.58706" lon="3.39839">
        <ele>332</ele>
        <time>2016-02-14T14:42:34Z</time>
      </trkpt>
      <trkpt lat="43.5871" lon="3.39839">
        <ele>332</ele>
        <time>2016-02-14T14:42:35Z</time>
      </trkpt>
      <trkpt lat="43.58714" lon="3.39839">
        <ele>333</ele>
        <time>2016-02-14T14:42:36Z</time>
      </trkpt>
      <trkpt lat="43.58718" lon="3.39839">
        <ele>333</ele>
        <time>2016-02-14T14:42:37Z</time>
      </trkpt>
      <trkpt lat="43.58722" lon="3.39839">
        <ele>333</ele>
        <time>2016-02-14T14:42:38Z</time>
      </trkpt>
      <trkpt lat="43.58726" lon="3.39838">
        <ele>333.5</ele>
        <time>2016-02-14T14:42:39Z</time>
      </trkpt>
      <trkpt lat="43.5873" lon="3.39837">
        <ele>333</ele>
        <time>2016-02-14T14:42:40Z</time>
      </trkpt>
      <trkpt lat="43.58734" lon="3.39836">
        <ele>333</ele>
        <time>2016-02-14T14:42:41Z</time>
      </trkpt>
      <trkpt lat="43.58738" lon="3.39835">
        <ele>333</ele>
        <time>2016-02-14T14:42:42Z</time>
      </trkpt>
      <trkpt lat="43.58742" lon="3.39835">
        <ele>332.5</ele>
        <time>2016-02-14T14:42:43Z</time>
      </trkpt>
      <trkpt lat="43.58746" lon="3.39835">
        <ele>332.5</ele>
        <time>2016-02-14T14:42:44Z</time>
      </trkpt>
      <trkpt lat="43.5875" lon="3.39835">
        <ele>332</ele>
        <time>2016-02-14T14:42:45Z</time>
      </trkpt>
      <trkpt lat="43.58754" lon="3.39835">
        <ele>332</ele>
        <time>2016-02-14T14:42:46Z</time>
      </trkpt>
      <trkpt lat="43.58758" lon="3.39835">
        <ele>331.5</ele>
        <time>2016-02-14T14:42:47Z</time>
      </trkpt>
      <trkpt lat="43.58762" lon="3.39835">
        <ele>331.5</ele>
        <time>2016-02-14T14:42:48Z</time>
      </trkpt>
      <trkpt lat="43.58766" lon="3.39837">
        <ele>332</ele>
        <time>2016-02-14T14:42:49Z</time>
      </trkpt>
      <trkpt lat="43.58769" lon="3.39839">
        <ele>332</ele>
        <time>2016-02-14T14:42:50Z</time>
      </trkpt>
      <trkpt lat="43.58773" lon="3.3984">
        <ele>332</ele>
        <time>2016-02-14T14:42:51Z</time>
      </trkpt>
      <trkpt lat="43.58776" lon="3.3984">
        <ele>332</ele>
        <time>2016-02-14T14:42:52Z</time>
      </trkpt>
      <trkpt lat="43.5878" lon="3.39841">
        <ele>332</ele>
        <time>2016-02-14T14:42:53Z</time>
      </trkpt>
      <trkpt lat="43.58784" lon="3.39841">
        <ele>332</ele>
        <time>2016-02-14T14:42:54Z</time>
      </trkpt>
      <trkpt lat="43.58787" lon="3.39841">
        <ele>332</ele>
        <time>2016-02-14T14:42:55Z</time>
      </trkpt>
      <trkpt lat="43.58791" lon="3.3984">
        <ele>332</ele>
        <time>2016-02-14T14:42:56Z</time>
      </trkpt>
      <trkpt lat="43.58795" lon="3.39841">
        <ele>332</ele>
        <time>2016-02-14T14:42:57Z</time>
      </trkpt>
      <trkpt lat="43.58798" lon="3.39841">
        <ele>332</ele>
        <time>2016-02-14T14:42:58Z</time>
      </trkpt>
      <trkpt lat="43.58802" lon="3.39841">
        <ele>332</ele>
        <time>2016-02-14T14:42:58Z</time>
      </trkpt>
      <trkpt lat="43.58805" lon="3.3984">
        <ele>332</ele>
        <time>2016-02-14T14:42:59Z</time>
      </trkpt>
      <trkpt lat="43.58808" lon="3.3984">
        <ele>332</ele>
        <time>2016-02-14T14:43:00Z</time>
      </trkpt>
      <trkpt lat="43.58812" lon="3.39839">
        <ele>332</ele>
        <time>2016-02-14T14:43:02Z</time>
      </trkpt>
      <trkpt lat="43.58816" lon="3.39839">
        <ele>332</ele>
        <time>2016-02-14T14:43:02Z</time>
      </trkpt>
      <trkpt lat="43.58819" lon="3.39839">
        <ele>332</ele>
        <time>2016-02-14T14:43:03Z</time>
      </trkpt>
      <trkpt lat="43.58823" lon="3.39839">
        <ele>332</ele>
        <time>2016-02-14T14:43:04Z</time>
      </trkpt>
      <trkpt lat="43.58827" lon="3.39839">
        <ele>332</ele>
        <time>2016-02-14T14:43:05Z</time>
      </trkpt>
      <trkpt lat="43.58831" lon="3.39838">
        <ele>332</ele>
        <time>2016-02-14T14:43:06Z</time>
      </trkpt>
      <trkpt lat="43.58835" lon="3.39838">
        <ele>331.5</ele>
        <time>2016-02-14T14:43:07Z</time>
      </trkpt>
      <trkpt lat="43.58838" lon="3.39837">
        <ele>331.5</ele>
        <time>2016-02-14T14:43:08Z</time>
      </trkpt>
      <trkpt lat="43.58842" lon="3.39836">
        <ele>332</ele>
        <time>2016-02-14T14:43:09Z</time>
      </trkpt>
      <trkpt lat="43.58847" lon="3.39834">
        <ele>332</ele>
        <time>2016-02-14T14:43:10Z</time>
      </trkpt>
      <trkpt lat="43.58851" lon="3.39833">
        <ele>332</ele>
        <time>2016-02-14T14:43:11Z</time>
      </trkpt>
      <trkpt lat="43.58855" lon="3.39832">
        <ele>332</ele>
        <time>2016-02-14T14:43:12Z</time>
      </trkpt>
      <trkpt lat="43.58859" lon="3.39831">
        <ele>331.5</ele>
        <time>2016-02-14T14:43:13Z</time>
      </trkpt>
      <trkpt lat="43.58863" lon="3.3983">
        <ele>331.5</ele>
        <time>2016-02-14T14:43:14Z</time>
      </trkpt>
      <trkpt lat="43.58868" lon="3.39829">
        <ele>331</ele>
        <time>2016-02-14T14:43:16Z</time>
      </trkpt>
      <trkpt lat="43.58873" lon="3.39828">
        <ele>330.5</ele>
        <time>2016-02-14T14:43:16Z</time>
      </trkpt>
      <trkpt lat="43.58877" lon="3.39826">
        <ele>330.5</ele>
        <time>2016-02-14T14:43:17Z</time>
      </trkpt>
      <trkpt lat="43.58882" lon="3.39824">
        <ele>330.5</ele>
        <time>2016-02-14T14:43:18Z</time>
      </trkpt>
      <trkpt lat="43.58886" lon="3.39822">
        <ele>330</ele>
        <time>2016-02-14T14:43:20Z</time>
      </trkpt>
      <trkpt lat="43.5889" lon="3.3982">
        <ele>330</ele>
        <time>2016-02-14T14:43:20Z</time>
      </trkpt>
      <trkpt lat="43.58894" lon="3.39818">
        <ele>328.5</ele>
        <time>2016-02-14T14:43:21Z</time>
      </trkpt>
      <trkpt lat="43.58898" lon="3.39816">
        <ele>328</ele>
        <time>2016-02-14T14:43:22Z</time>
      </trkpt>
      <trkpt lat="43.58902" lon="3.39815">
        <ele>328</ele>
        <time>2016-02-14T14:43:23Z</time>
      </trkpt>
      <trkpt lat="43.58907" lon="3.39813">
        <ele>328</ele>
        <time>2016-02-14T14:43:24Z</time>
      </trkpt>
      <trkpt lat="43.58911" lon="3.39812">
        <ele>328.5</ele>
        <time>2016-02-14T14:43:25Z</time>
      </trkpt>
      <trkpt lat="43.58915" lon="3.39811">
        <ele>328.5</ele>
        <time>2016-02-14T14:43:26Z</time>
      </trkpt>
      <trkpt lat="43.58919" lon="3.39811">
        <ele>328.5</ele>
        <time>2016-02-14T14:43:27Z</time>
      </trkpt>
      <trkpt lat="43.58923" lon="3.3981">
        <ele>329</ele>
        <time>2016-02-14T14:43:28Z</time>
      </trkpt>
      <trkpt lat="43.58927" lon="3.39809">
        <ele>329</ele>
        <time>2016-02-14T14:43:29Z</time>
      </trkpt>
      <trkpt lat="43.5893" lon="3.39809">
        <ele>329.5</ele>
        <time>2016-02-14T14:43:30Z</time>
      </trkpt>
      <trkpt lat="43.58934" lon="3.39808">
        <ele>330</ele>
        <time>2016-02-14T14:43:31Z</time>
      </trkpt>
      <trkpt lat="43.58937" lon="3.39807">
        <ele>331</ele>
        <time>2016-02-14T14:43:32Z</time>
      </trkpt>
      <trkpt lat="43.5894" lon="3.39807">
        <ele>331.5</ele>
        <time>2016-02-14T14:43:33Z</time>
      </trkpt>
      <trkpt lat="43.58944" lon="3.39807">
        <ele>332.5</ele>
        <time>2016-02-14T14:43:34Z</time>
      </trkpt>
      <trkpt lat="43.58947" lon="3.39806">
        <ele>333</ele>
        <time>2016-02-14T14:43:35Z</time>
      </trkpt>
      <trkpt lat="43.5895" lon="3.39806">
        <ele>334</ele>
        <time>2016-02-14T14:43:36Z</time>
      </trkpt>
      <trkpt lat="43.58954" lon="3.39806">
        <ele>334.5</ele>
        <time>2016-02-14T14:43:37Z</time>
      </trkpt>
      <trkpt lat="43.58957" lon="3.39806">
        <ele>334.5</ele>
        <time>2016-02-14T14:43:38Z</time>
      </trkpt>
      <trkpt lat="43.5896" lon="3.39806">
        <ele>335.5</ele>
        <time>2016-02-14T14:43:39Z</time>
      </trkpt>
      <trkpt lat="43.58963" lon="3.39805">
        <ele>337</ele>
        <time>2016-02-14T14:43:40Z</time>
      </trkpt>
      <trkpt lat="43.58966" lon="3.39806">
        <ele>338</ele>
        <time>2016-02-14T14:43:41Z</time>
      </trkpt>
      <trkpt lat="43.58969" lon="3.39807">
        <ele>338</ele>
        <time>2016-02-14T14:43:42Z</time>
      </trkpt>
      <trkpt lat="43.58971" lon="3.39809">
        <ele>339</ele>
        <time>2016-02-14T14:43:43Z</time>
      </trkpt>
      <trkpt lat="43.58974" lon="3.39812">
        <ele>339</ele>
        <time>2016-02-14T14:43:44Z</time>
      </trkpt>
      <trkpt lat="43.58976" lon="3.39815">
        <ele>339</ele>
        <time>2016-02-14T14:43:45Z</time>
      </trkpt>
      <trkpt lat="43.58979" lon="3.39818">
        <ele>339</ele>
        <time>2016-02-14T14:43:46Z</time>
      </trkpt>
      <trkpt lat="43.58981" lon="3.39823">
        <ele>338.5</ele>
        <time>2016-02-14T14:43:47Z</time>
      </trkpt>
      <trkpt lat="43.58983" lon="3.39827">
        <ele>337.5</ele>
        <time>2016-02-14T14:43:48Z</time>
      </trkpt>
      <trkpt lat="43.58985" lon="3.39832">
        <ele>336.5</ele>
        <time>2016-02-14T14:43:49Z</time>
      </trkpt>
      <trkpt lat="43.58988" lon="3.39836">
        <ele>336</ele>
        <time>2016-02-14T14:43:50Z</time>
      </trkpt>
      <trkpt lat="43.58991" lon="3.3984">
        <ele>335.5</ele>
        <time>2016-02-14T14:43:51Z</time>
      </trkpt>
      <trkpt lat="43.58994" lon="3.39843">
        <ele>335</ele>
        <time>2016-02-14T14:43:52Z</time>
      </trkpt>
      <trkpt lat="43.58998" lon="3.39845">
        <ele>334.5</ele>
        <time>2016-02-14T14:43:53Z</time>
      </trkpt>
      <trkpt lat="43.59001" lon="3.39847">
        <ele>334.5</ele>
        <time>2016-02-14T14:43:54Z</time>
      </trkpt>
      <trkpt lat="43.59004" lon="3.39848">
        <ele>334.5</ele>
        <time>2016-02-14T14:43:55Z</time>
      </trkpt>
      <trkpt lat="43.59007" lon="3.3985">
        <ele>334.5</ele>
        <time>2016-02-14T14:43:56Z</time>
      </trkpt>
      <trkpt lat="43.5901" lon="3.39852">
        <ele>334</ele>
        <time>2016-02-14T14:43:57Z</time>
      </trkpt>
      <trkpt lat="43.59013" lon="3.39854">
        <ele>334</ele>
        <time>2016-02-14T14:43:58Z</time>
      </trkpt>
      <trkpt lat="43.59016" lon="3.39854">
        <ele>333.5</ele>
        <time>2016-02-14T14:43:59Z</time>
      </trkpt>
      <trkpt lat="43.59019" lon="3.39855">
        <ele>332</ele>
        <time>2016-02-14T14:44:00Z</time>
      </trkpt>
      <trkpt lat="43.59022" lon="3.39857">
        <ele>331.5</ele>
        <time>2016-02-14T14:44:01Z</time>
      </trkpt>
      <trkpt lat="43.59025" lon="3.39859">
        <ele>331.5</ele>
        <time>2016-02-14T14:44:02Z</time>
      </trkpt>
      <trkpt lat="43.59028" lon="3.39862">
        <ele>331.5</ele>
        <time>2016-02-14T14:44:03Z</time>
      </trkpt>
      <trkpt lat="43.5903" lon="3.39861">
        <ele>330</ele>
        <time>2016-02-14T14:44:04Z</time>
      </trkpt>
      <trkpt lat="43.59032" lon="3.39862">
        <ele>330</ele>
        <time>2016-02-14T14:44:05Z</time>
      </trkpt>
      <trkpt lat="43.59034" lon="3.39863">
        <ele>329.5</ele>
        <time>2016-02-14T14:44:06Z</time>
      </trkpt>
      <trkpt lat="43.59035" lon="3.39865">
        <ele>329.5</ele>
        <time>2016-02-14T14:44:07Z</time>
      </trkpt>
      <trkpt lat="43.59036" lon="3.39867">
        <ele>329.5</ele>
        <time>2016-02-14T14:44:08Z</time>
      </trkpt>
      <trkpt lat="43.59038" lon="3.39869">
        <ele>330</ele>
        <time>2016-02-14T14:44:09Z</time>
      </trkpt>
      <trkpt lat="43.59039" lon="3.39872">
        <ele>329.5</ele>
        <time>2016-02-14T14:44:10Z</time>
      </trkpt>
      <trkpt lat="43.59039" lon="3.39874">
        <ele>329.5</ele>
        <time>2016-02-14T14:44:11Z</time>
      </trkpt>
      <trkpt lat="43.59038" lon="3.39876">
        <ele>330</ele>
        <time>2016-02-14T14:44:12Z</time>
      </trkpt>
      <trkpt lat="43.59037" lon="3.39877">
        <ele>330</ele>
        <time>2016-02-14T14:44:13Z</time>
      </trkpt>
      <trkpt lat="43.59036" lon="3.39878">
        <ele>330</ele>
        <time>2016-02-14T14:44:14Z</time>
      </trkpt>
      <trkpt lat="43.59035" lon="3.39879">
        <ele>330</ele>
        <time>2016-02-14T14:44:15Z</time>
      </trkpt>
      <trkpt lat="43.59034" lon="3.3988">
        <ele>330</ele>
        <time>2016-02-14T14:44:16Z</time>
      </trkpt>
      <trkpt lat="43.59033" lon="3.39881">
        <ele>330.5</ele>
        <time>2016-02-14T14:44:17Z</time>
      </trkpt>
      <trkpt lat="43.59032" lon="3.39883">
        <ele>330.5</ele>
        <time>2016-02-14T14:44:18Z</time>
      </trkpt>
      <trkpt lat="43.5903" lon="3.39884">
        <ele>330.5</ele>
        <time>2016-02-14T14:44:19Z</time>
      </trkpt>
      <trkpt lat="43.59029" lon="3.39886">
        <ele>330.5</ele>
        <time>2016-02-14T14:44:20Z</time>
      </trkpt>
      <trkpt lat="43.59028" lon="3.39887">
        <ele>330.5</ele>
        <time>2016-02-14T14:44:21Z</time>
      </trkpt>
      <trkpt lat="43.59027" lon="3.39889">
        <ele>330.5</ele>
        <time>2016-02-14T14:44:22Z</time>
      </trkpt>
      <trkpt lat="43.59026" lon="3.39891">
        <ele>330.5</ele>
        <time>2016-02-14T14:44:23Z</time>
      </trkpt>
      <trkpt lat="43.59025" lon="3.39894">
        <ele>330</ele>
        <time>2016-02-14T14:44:24Z</time>
      </trkpt>
      <trkpt lat="43.59024" lon="3.39897">
        <ele>330</ele>
        <time>2016-02-14T14:44:25Z</time>
      </trkpt>
      <trkpt lat="43.59023" lon="3.399">
        <ele>330</ele>
        <time>2016-02-14T14:44:26Z</time>
      </trkpt>
      <trkpt lat="43.59022" lon="3.39902">
        <ele>329.5</ele>
        <time>2016-02-14T14:44:27Z</time>
      </trkpt>
      <trkpt lat="43.59021" lon="3.39905">
        <ele>329</ele>
        <time>2016-02-14T14:44:28Z</time>
      </trkpt>
      <trkpt lat="43.59019" lon="3.39907">
        <ele>329</ele>
        <time>2016-02-14T14:44:29Z</time>
      </trkpt>
      <trkpt lat="43.59018" lon="3.3991">
        <ele>329</ele>
        <time>2016-02-14T14:44:30Z</time>
      </trkpt>
      <trkpt lat="43.59016" lon="3.39914">
        <ele>329</ele>
        <time>2016-02-14T14:44:31Z</time>
      </trkpt>
      <trkpt lat="43.59013" lon="3.39918">
        <ele>328.5</ele>
        <time>2016-02-14T14:44:32Z</time>
      </trkpt>
      <trkpt lat="43.59008" lon="3.39923">
        <ele>328</ele>
        <time>2016-02-14T14:44:33Z</time>
      </trkpt>
      <trkpt lat="43.59005" lon="3.39929">
        <ele>327.5</ele>
        <time>2016-02-14T14:44:34Z</time>
      </trkpt>
      <trkpt lat="43.59001" lon="3.39934">
        <ele>326.5</ele>
        <time>2016-02-14T14:44:35Z</time>
      </trkpt>
      <trkpt lat="43.58997" lon="3.3994">
        <ele>325.5</ele>
        <time>2016-02-14T14:44:36Z</time>
      </trkpt>
      <trkpt lat="43.58993" lon="3.39945">
        <ele>325.5</ele>
        <time>2016-02-14T14:44:37Z</time>
      </trkpt>
      <trkpt lat="43.58989" lon="3.39951">
        <ele>325.5</ele>
        <time>2016-02-14T14:44:38Z</time>
      </trkpt>
      <trkpt lat="43.58985" lon="3.39956">
        <ele>325</ele>
        <time>2016-02-14T14:44:39Z</time>
      </trkpt>
      <trkpt lat="43.58981" lon="3.3996">
        <ele>325</ele>
        <time>2016-02-14T14:44:40Z</time>
      </trkpt>
      <trkpt lat="43.58977" lon="3.39964">
        <ele>326</ele>
        <time>2016-02-14T14:44:41Z</time>
      </trkpt>
      <trkpt lat="43.58972" lon="3.39967">
        <ele>326</ele>
        <time>2016-02-14T14:44:42Z</time>
      </trkpt>
      <trkpt lat="43.58968" lon="3.3997">
        <ele>325.5</ele>
        <time>2016-02-14T14:44:43Z</time>
      </trkpt>
      <trkpt lat="43.58966" lon="3.39973">
        <ele>326</ele>
        <time>2016-02-14T14:44:44Z</time>
      </trkpt>
      <trkpt lat="43.58963" lon="3.39977">
        <ele>326</ele>
        <time>2016-02-14T14:44:45Z</time>
      </trkpt>
      <trkpt lat="43.58959" lon="3.39981">
        <ele>326.5</ele>
        <time>2016-02-14T14:44:46Z</time>
      </trkpt>
      <trkpt lat="43.58956" lon="3.39985">
        <ele>326</ele>
        <time>2016-02-14T14:44:47Z</time>
      </trkpt>
      <trkpt lat="43.58953" lon="3.39989">
        <ele>326</ele>
        <time>2016-02-14T14:44:48Z</time>
      </trkpt>
      <trkpt lat="43.58948" lon="3.39992">
        <ele>325.5</ele>
        <time>2016-02-14T14:44:49Z</time>
      </trkpt>
      <trkpt lat="43.58946" lon="3.39997">
        <ele>326.5</ele>
        <time>2016-02-14T14:44:50Z</time>
      </trkpt>
      <trkpt lat="43.58943" lon="3.40001">
        <ele>326.5</ele>
        <time>2016-02-14T14:44:51Z</time>
      </trkpt>
      <trkpt lat="43.5894" lon="3.40006">
        <ele>326.5</ele>
        <time>2016-02-14T14:44:52Z</time>
      </trkpt>
      <trkpt lat="43.58936" lon="3.40011">
        <ele>326</ele>
        <time>2016-02-14T14:44:53Z</time>
      </trkpt>
      <trkpt lat="43.58933" lon="3.40017">
        <ele>326.5</ele>
        <time>2016-02-14T14:44:54Z</time>
      </trkpt>
      <trkpt lat="43.5893" lon="3.40023">
        <ele>325.5</ele>
        <time>2016-02-14T14:44:55Z</time>
      </trkpt>
      <trkpt lat="43.58927" lon="3.40028">
        <ele>325.5</ele>
        <time>2016-02-14T14:44:56Z</time>
      </trkpt>
      <trkpt lat="43.58922" lon="3.40034">
        <ele>325.5</ele>
        <time>2016-02-14T14:44:57Z</time>
      </trkpt>
      <trkpt lat="43.58918" lon="3.40039">
        <ele>324</ele>
        <time>2016-02-14T14:44:58Z</time>
      </trkpt>
      <trkpt lat="43.58916" lon="3.40045">
        <ele>324</ele>
        <time>2016-02-14T14:44:59Z</time>
      </trkpt>
      <trkpt lat="43.58913" lon="3.40051">
        <ele>324</ele>
        <time>2016-02-14T14:45:00Z</time>
      </trkpt>
      <trkpt lat="43.58911" lon="3.40056">
        <ele>324.5</ele>
        <time>2016-02-14T14:45:01Z</time>
      </trkpt>
      <trkpt lat="43.58909" lon="3.40062">
        <ele>324</ele>
        <time>2016-02-14T14:45:02Z</time>
      </trkpt>
      <trkpt lat="43.58907" lon="3.40066">
        <ele>323.5</ele>
        <time>2016-02-14T14:45:03Z</time>
      </trkpt>
      <trkpt lat="43.58905" lon="3.40071">
        <ele>323</ele>
        <time>2016-02-14T14:45:04Z</time>
      </trkpt>
      <trkpt lat="43.58903" lon="3.40075">
        <ele>323</ele>
        <time>2016-02-14T14:45:05Z</time>
      </trkpt>
      <trkpt lat="43.589" lon="3.40079">
        <ele>323</ele>
        <time>2016-02-14T14:45:06Z</time>
      </trkpt>
      <trkpt lat="43.58897" lon="3.40083">
        <ele>324</ele>
        <time>2016-02-14T14:45:07Z</time>
      </trkpt>
      <trkpt lat="43.58894" lon="3.4009">
        <ele>325</ele>
        <time>2016-02-14T14:45:09Z</time>
      </trkpt>
      <trkpt lat="43.58893" lon="3.40094">
        <ele>325.5</ele>
        <time>2016-02-14T14:45:10Z</time>
      </trkpt>
      <trkpt lat="43.58892" lon="3.40098">
        <ele>325.5</ele>
        <time>2016-02-14T14:45:11Z</time>
      </trkpt>
      <trkpt lat="43.58888" lon="3.40101">
        <ele>325.5</ele>
        <time>2016-02-14T14:45:12Z</time>
      </trkpt>
      <trkpt lat="43.58888" lon="3.40104">
        <ele>327</ele>
        <time>2016-02-14T14:45:13Z</time>
      </trkpt>
      <trkpt lat="43.58888" lon="3.40109">
        <ele>328</ele>
        <time>2016-02-14T14:45:14Z</time>
      </trkpt>
      <trkpt lat="43.58887" lon="3.40113">
        <ele>327.5</ele>
        <time>2016-02-14T14:45:15Z</time>
      </trkpt>
      <trkpt lat="43.58886" lon="3.40118">
        <ele>327.5</ele>
        <time>2016-02-14T14:45:16Z</time>
      </trkpt>
      <trkpt lat="43.58885" lon="3.40123">
        <ele>328</ele>
        <time>2016-02-14T14:45:17Z</time>
      </trkpt>
      <trkpt lat="43.58885" lon="3.40127">
        <ele>328.5</ele>
        <time>2016-02-14T14:45:18Z</time>
      </trkpt>
      <trkpt lat="43.58884" lon="3.40132">
        <ele>329</ele>
        <time>2016-02-14T14:45:19Z</time>
      </trkpt>
      <trkpt lat="43.58883" lon="3.40136">
        <ele>329</ele>
        <time>2016-02-14T14:45:20Z</time>
      </trkpt>
      <trkpt lat="43.58882" lon="3.4014">
        <ele>329</ele>
        <time>2016-02-14T14:45:21Z</time>
      </trkpt>
      <trkpt lat="43.58881" lon="3.40145">
        <ele>329.5</ele>
        <time>2016-02-14T14:45:22Z</time>
      </trkpt>
      <trkpt lat="43.58879" lon="3.40149">
        <ele>329</ele>
        <time>2016-02-14T14:45:23Z</time>
      </trkpt>
      <trkpt lat="43.58877" lon="3.40153">
        <ele>328</ele>
        <time>2016-02-14T14:45:24Z</time>
      </trkpt>
      <trkpt lat="43.58875" lon="3.40158">
        <ele>328</ele>
        <time>2016-02-14T14:45:25Z</time>
      </trkpt>
      <trkpt lat="43.58873" lon="3.40162">
        <ele>327.5</ele>
        <time>2016-02-14T14:45:26Z</time>
      </trkpt>
      <trkpt lat="43.58871" lon="3.40167">
        <ele>327.5</ele>
        <time>2016-02-14T14:45:27Z</time>
      </trkpt>
      <trkpt lat="43.5887" lon="3.40171">
        <ele>327.5</ele>
        <time>2016-02-14T14:45:28Z</time>
      </trkpt>
      <trkpt lat="43.58868" lon="3.40175">
        <ele>327.5</ele>
        <time>2016-02-14T14:45:29Z</time>
      </trkpt>
      <trkpt lat="43.58867" lon="3.40179">
        <ele>327.5</ele>
        <time>2016-02-14T14:45:30Z</time>
      </trkpt>
      <trkpt lat="43.58865" lon="3.40183">
        <ele>327.5</ele>
        <time>2016-02-14T14:45:31Z</time>
      </trkpt>
      <trkpt lat="43.58864" lon="3.40186">
        <ele>328</ele>
        <time>2016-02-14T14:45:32Z</time>
      </trkpt>
      <trkpt lat="43.58863" lon="3.40189">
        <ele>328</ele>
        <time>2016-02-14T14:45:33Z</time>
      </trkpt>
      <trkpt lat="43.58862" lon="3.40193">
        <ele>328.5</ele>
        <time>2016-02-14T14:45:34Z</time>
      </trkpt>
      <trkpt lat="43.58862" lon="3.40195">
        <ele>328.5</ele>
        <time>2016-02-14T14:45:35Z</time>
      </trkpt>
      <trkpt lat="43.58861" lon="3.40198">
        <ele>328.5</ele>
        <time>2016-02-14T14:45:36Z</time>
      </trkpt>
      <trkpt lat="43.5886" lon="3.40201">
        <ele>328.5</ele>
        <time>2016-02-14T14:45:37Z</time>
      </trkpt>
      <trkpt lat="43.58859" lon="3.40204">
        <ele>328.5</ele>
        <time>2016-02-14T14:45:38Z</time>
      </trkpt>
      <trkpt lat="43.58858" lon="3.40208">
        <ele>328.5</ele>
        <time>2016-02-14T14:45:39Z</time>
      </trkpt>
      <trkpt lat="43.58858" lon="3.40212">
        <ele>328.5</ele>
        <time>2016-02-14T14:45:40Z</time>
      </trkpt>
      <trkpt lat="43.58857" lon="3.40216">
        <ele>328</ele>
        <time>2016-02-14T14:45:41Z</time>
      </trkpt>
      <trkpt lat="43.58856" lon="3.4022">
        <ele>328</ele>
        <time>2016-02-14T14:45:42Z</time>
      </trkpt>
      <trkpt lat="43.58855" lon="3.40224">
        <ele>328</ele>
        <time>2016-02-14T14:45:43Z</time>
      </trkpt>
      <trkpt lat="43.58854" lon="3.40229">
        <ele>328</ele>
        <time>2016-02-14T14:45:44Z</time>
      </trkpt>
      <trkpt lat="43.58852" lon="3.40234">
        <ele>327.5</ele>
        <time>2016-02-14T14:45:45Z</time>
      </trkpt>
      <trkpt lat="43.58851" lon="3.40239">
        <ele>327</ele>
        <time>2016-02-14T14:45:46Z</time>
      </trkpt>
      <trkpt lat="43.5885" lon="3.40245">
        <ele>327.5</ele>
        <time>2016-02-14T14:45:47Z</time>
      </trkpt>
      <trkpt lat="43.58849" lon="3.40251">
        <ele>327</ele>
        <time>2016-02-14T14:45:48Z</time>
      </trkpt>
      <trkpt lat="43.58847" lon="3.40257">
        <ele>327</ele>
        <time>2016-02-14T14:45:49Z</time>
      </trkpt>
      <trkpt lat="43.58845" lon="3.40263">
        <ele>326.5</ele>
        <time>2016-02-14T14:45:50Z</time>
      </trkpt>
      <trkpt lat="43.58843" lon="3.40268">
        <ele>326.5</ele>
        <time>2016-02-14T14:45:51Z</time>
      </trkpt>
      <trkpt lat="43.58841" lon="3.40273">
        <ele>326</ele>
        <time>2016-02-14T14:45:52Z</time>
      </trkpt>
      <trkpt lat="43.58839" lon="3.40279">
        <ele>325.5</ele>
        <time>2016-02-14T14:45:53Z</time>
      </trkpt>
      <trkpt lat="43.58837" lon="3.40284">
        <ele>325</ele>
        <time>2016-02-14T14:45:54Z</time>
      </trkpt>
      <trkpt lat="43.58835" lon="3.40291">
        <ele>324.5</ele>
        <time>2016-02-14T14:45:55Z</time>
      </trkpt>
      <trkpt lat="43.58832" lon="3.40298">
        <ele>323.5</ele>
        <time>2016-02-14T14:45:56Z</time>
      </trkpt>
      <trkpt lat="43.5883" lon="3.40307">
        <ele>322.5</ele>
        <time>2016-02-14T14:45:57Z</time>
      </trkpt>
      <trkpt lat="43.58827" lon="3.40316">
        <ele>322</ele>
        <time>2016-02-14T14:45:58Z</time>
      </trkpt>
      <trkpt lat="43.58824" lon="3.40325">
        <ele>322</ele>
        <time>2016-02-14T14:45:59Z</time>
      </trkpt>
      <trkpt lat="43.58822" lon="3.40335">
        <ele>321</ele>
        <time>2016-02-14T14:46:00Z</time>
      </trkpt>
      <trkpt lat="43.5882" lon="3.40345">
        <ele>321</ele>
        <time>2016-02-14T14:46:01Z</time>
      </trkpt>
      <trkpt lat="43.58819" lon="3.40355">
        <ele>320.5</ele>
        <time>2016-02-14T14:46:02Z</time>
      </trkpt>
      <trkpt lat="43.58818" lon="3.40366">
        <ele>320</ele>
        <time>2016-02-14T14:46:03Z</time>
      </trkpt>
      <trkpt lat="43.58816" lon="3.40378">
        <ele>319</ele>
        <time>2016-02-14T14:46:04Z</time>
      </trkpt>
      <trkpt lat="43.58814" lon="3.40391">
        <ele>317</ele>
        <time>2016-02-14T14:46:05Z</time>
      </trkpt>
      <trkpt lat="43.58812" lon="3.40404">
        <ele>315.5</ele>
        <time>2016-02-14T14:46:06Z</time>
      </trkpt>
      <trkpt lat="43.58811" lon="3.40419">
        <ele>315</ele>
        <time>2016-02-14T14:46:07Z</time>
      </trkpt>
      <trkpt lat="43.58809" lon="3.40434">
        <ele>313.5</ele>
        <time>2016-02-14T14:46:08Z</time>
      </trkpt>
      <trkpt lat="43.58806" lon="3.40448">
        <ele>312.5</ele>
        <time>2016-02-14T14:46:09Z</time>
      </trkpt>
      <trkpt lat="43.58804" lon="3.40463">
        <ele>311</ele>
        <time>2016-02-14T14:46:10Z</time>
      </trkpt>
      <trkpt lat="43.58801" lon="3.40478">
        <ele>309.5</ele>
        <time>2016-02-14T14:46:11Z</time>
      </trkpt>
      <trkpt lat="43.58799" lon="3.40493">
        <ele>308</ele>
        <time>2016-02-14T14:46:12Z</time>
      </trkpt>
      <trkpt lat="43.58798" lon="3.40507">
        <ele>307.5</ele>
        <time>2016-02-14T14:46:13Z</time>
      </trkpt>
      <trkpt lat="43.58796" lon="3.40521">
        <ele>306</ele>
        <time>2016-02-14T14:46:14Z</time>
      </trkpt>
      <trkpt lat="43.58794" lon="3.40533">
        <ele>305.5</ele>
        <time>2016-02-14T14:46:15Z</time>
      </trkpt>
      <trkpt lat="43.58789" lon="3.40543">
        <ele>305</ele>
        <time>2016-02-14T14:46:16Z</time>
      </trkpt>
      <trkpt lat="43.58783" lon="3.40553">
        <ele>303.5</ele>
        <time>2016-02-14T14:46:17Z</time>
      </trkpt>
      <trkpt lat="43.58778" lon="3.40563">
        <ele>303</ele>
        <time>2016-02-14T14:46:18Z</time>
      </trkpt>
      <trkpt lat="43.58774" lon="3.40572">
        <ele>302.5</ele>
        <time>2016-02-14T14:46:18Z</time>
      </trkpt>
      <trkpt lat="43.58769" lon="3.40583">
        <ele>302.5</ele>
        <time>2016-02-14T14:46:20Z</time>
      </trkpt>
      <trkpt lat="43.58765" lon="3.40588">
        <ele>300.5</ele>
        <time>2016-02-14T14:46:21Z</time>
      </trkpt>
      <trkpt lat="43.58767" lon="3.40593">
        <ele>301</ele>
        <time>2016-02-14T14:46:22Z</time>
      </trkpt>
      <trkpt lat="43.58772" lon="3.40608">
        <ele>298</ele>
        <time>2016-02-14T14:46:24Z</time>
      </trkpt>
      <trkpt lat="43.58775" lon="3.40616">
        <ele>296.5</ele>
        <time>2016-02-14T14:46:25Z</time>
      </trkpt>
      <trkpt lat="43.58777" lon="3.40626">
        <ele>295.5</ele>
        <time>2016-02-14T14:46:26Z</time>
      </trkpt>
      <trkpt lat="43.58778" lon="3.40637">
        <ele>294.5</ele>
        <time>2016-02-14T14:46:27Z</time>
      </trkpt>
      <trkpt lat="43.58779" lon="3.40648">
        <ele>293</ele>
        <time>2016-02-14T14:46:29Z</time>
      </trkpt>
      <trkpt lat="43.58781" lon="3.40659">
        <ele>292.5</ele>
        <time>2016-02-14T14:46:29Z</time>
      </trkpt>
      <trkpt lat="43.58784" lon="3.4067">
        <ele>291.5</ele>
        <time>2016-02-14T14:46:30Z</time>
      </trkpt>
      <trkpt lat="43.5879" lon="3.4068">
        <ele>291.5</ele>
        <time>2016-02-14T14:46:31Z</time>
      </trkpt>
      <trkpt lat="43.58796" lon="3.40689">
        <ele>290</ele>
        <time>2016-02-14T14:46:32Z</time>
      </trkpt>
      <trkpt lat="43.58803" lon="3.40699">
        <ele>289</ele>
        <time>2016-02-14T14:46:33Z</time>
      </trkpt>
      <trkpt lat="43.5881" lon="3.40709">
        <ele>288</ele>
        <time>2016-02-14T14:46:34Z</time>
      </trkpt>
      <trkpt lat="43.58817" lon="3.40719">
        <ele>287</ele>
        <time>2016-02-14T14:46:35Z</time>
      </trkpt>
      <trkpt lat="43.58823" lon="3.4073">
        <ele>286</ele>
        <time>2016-02-14T14:46:36Z</time>
      </trkpt>
      <trkpt lat="43.58829" lon="3.40742">
        <ele>285</ele>
        <time>2016-02-14T14:46:37Z</time>
      </trkpt>
      <trkpt lat="43.58835" lon="3.40753">
        <ele>284</ele>
        <time>2016-02-14T14:46:38Z</time>
      </trkpt>
      <trkpt lat="43.58842" lon="3.40764">
        <ele>283</ele>
        <time>2016-02-14T14:46:39Z</time>
      </trkpt>
      <trkpt lat="43.58847" lon="3.40776">
        <ele>283</ele>
        <time>2016-02-14T14:46:40Z</time>
      </trkpt>
      <trkpt lat="43.5885" lon="3.40788">
        <ele>282.5</ele>
        <time>2016-02-14T14:46:41Z</time>
      </trkpt>
      <trkpt lat="43.58856" lon="3.40799">
        <ele>281</ele>
        <time>2016-02-14T14:46:42Z</time>
      </trkpt>
      <trkpt lat="43.58861" lon="3.40809">
        <ele>280.5</ele>
        <time>2016-02-14T14:46:43Z</time>
      </trkpt>
      <trkpt lat="43.58867" lon="3.40819">
        <ele>279.5</ele>
        <time>2016-02-14T14:46:44Z</time>
      </trkpt>
      <trkpt lat="43.58873" lon="3.40828">
        <ele>279</ele>
        <time>2016-02-14T14:46:45Z</time>
      </trkpt>
      <trkpt lat="43.58879" lon="3.40837">
        <ele>279</ele>
        <time>2016-02-14T14:46:46Z</time>
      </trkpt>
      <trkpt lat="43.58884" lon="3.40847">
        <ele>278</ele>
        <time>2016-02-14T14:46:47Z</time>
      </trkpt>
      <trkpt lat="43.58889" lon="3.40856">
        <ele>277.5</ele>
        <time>2016-02-14T14:46:48Z</time>
      </trkpt>
      <trkpt lat="43.58895" lon="3.40865">
        <ele>276.5</ele>
        <time>2016-02-14T14:46:49Z</time>
      </trkpt>
      <trkpt lat="43.58901" lon="3.40874">
        <ele>275</ele>
        <time>2016-02-14T14:46:50Z</time>
      </trkpt>
      <trkpt lat="43.58909" lon="3.40881">
        <ele>275</ele>
        <time>2016-02-14T14:46:51Z</time>
      </trkpt>
      <trkpt lat="43.58916" lon="3.40889">
        <ele>274</ele>
        <time>2016-02-14T14:46:52Z</time>
      </trkpt>
      <trkpt lat="43.58922" lon="3.40897">
        <ele>273</ele>
        <time>2016-02-14T14:46:54Z</time>
      </trkpt>
      <trkpt lat="43.58929" lon="3.40906">
        <ele>271.5</ele>
        <time>2016-02-14T14:46:54Z</time>
      </trkpt>
      <trkpt lat="43.58937" lon="3.40915">
        <ele>270.5</ele>
        <time>2016-02-14T14:46:55Z</time>
      </trkpt>
      <trkpt lat="43.58944" lon="3.40925">
        <ele>269.5</ele>
        <time>2016-02-14T14:46:56Z</time>
      </trkpt>
      <trkpt lat="43.5895" lon="3.40935">
        <ele>269</ele>
        <time>2016-02-14T14:46:57Z</time>
      </trkpt>
      <trkpt lat="43.58957" lon="3.40944">
        <ele>268</ele>
        <time>2016-02-14T14:46:58Z</time>
      </trkpt>
      <trkpt lat="43.58963" lon="3.40954">
        <ele>267.5</ele>
        <time>2016-02-14T14:46:59Z</time>
      </trkpt>
      <trkpt lat="43.58969" lon="3.40963">
        <ele>267</ele>
        <time>2016-02-14T14:47:00Z</time>
      </trkpt>
      <trkpt lat="43.58974" lon="3.40973">
        <ele>266.5</ele>
        <time>2016-02-14T14:47:01Z</time>
      </trkpt>
      <trkpt lat="43.58978" lon="3.40983">
        <ele>266</ele>
        <time>2016-02-14T14:47:02Z</time>
      </trkpt>
      <trkpt lat="43.58983" lon="3.40993">
        <ele>266</ele>
        <time>2016-02-14T14:47:03Z</time>
      </trkpt>
      <trkpt lat="43.58986" lon="3.41003">
        <ele>266</ele>
        <time>2016-02-14T14:47:04Z</time>
      </trkpt>
      <trkpt lat="43.58989" lon="3.41013">
        <ele>266</ele>
        <time>2016-02-14T14:47:05Z</time>
      </trkpt>
      <trkpt lat="43.58992" lon="3.41024">
        <ele>265.5</ele>
        <time>2016-02-14T14:47:06Z</time>
      </trkpt>
      <trkpt lat="43.58994" lon="3.41035">
        <ele>265</ele>
        <time>2016-02-14T14:47:07Z</time>
      </trkpt>
      <trkpt lat="43.58996" lon="3.41046">
        <ele>265</ele>
        <time>2016-02-14T14:47:08Z</time>
      </trkpt>
      <trkpt lat="43.58998" lon="3.41057">
        <ele>264.5</ele>
        <time>2016-02-14T14:47:09Z</time>
      </trkpt>
      <trkpt lat="43.58999" lon="3.41068">
        <ele>263.5</ele>
        <time>2016-02-14T14:47:10Z</time>
      </trkpt>
      <trkpt lat="43.59001" lon="3.41079">
        <ele>262.5</ele>
        <time>2016-02-14T14:47:11Z</time>
      </trkpt>
      <trkpt lat="43.59003" lon="3.41089">
        <ele>262.5</ele>
        <time>2016-02-14T14:47:12Z</time>
      </trkpt>
      <trkpt lat="43.59004" lon="3.411">
        <ele>262</ele>
        <time>2016-02-14T14:47:13Z</time>
      </trkpt>
      <trkpt lat="43.59004" lon="3.41111">
        <ele>262</ele>
        <time>2016-02-14T14:47:14Z</time>
      </trkpt>
      <trkpt lat="43.59004" lon="3.41122">
        <ele>262</ele>
        <time>2016-02-14T14:47:15Z</time>
      </trkpt>
      <trkpt lat="43.59004" lon="3.41132">
        <ele>262</ele>
        <time>2016-02-14T14:47:16Z</time>
      </trkpt>
      <trkpt lat="43.59004" lon="3.41142">
        <ele>262</ele>
        <time>2016-02-14T14:47:17Z</time>
      </trkpt>
      <trkpt lat="43.59004" lon="3.41151">
        <ele>262.5</ele>
        <time>2016-02-14T14:47:18Z</time>
      </trkpt>
      <trkpt lat="43.59004" lon="3.4116">
        <ele>262.5</ele>
        <time>2016-02-14T14:47:19Z</time>
      </trkpt>
      <trkpt lat="43.59004" lon="3.41168">
        <ele>263</ele>
        <time>2016-02-14T14:47:20Z</time>
      </trkpt>
      <trkpt lat="43.59004" lon="3.41177">
        <ele>263</ele>
        <time>2016-02-14T14:47:21Z</time>
      </trkpt>
      <trkpt lat="43.59003" lon="3.41185">
        <ele>263</ele>
        <time>2016-02-14T14:47:22Z</time>
      </trkpt>
      <trkpt lat="43.59002" lon="3.41192">
        <ele>263.5</ele>
        <time>2016-02-14T14:47:23Z</time>
      </trkpt>
      <trkpt lat="43.59001" lon="3.412">
        <ele>263.5</ele>
        <time>2016-02-14T14:47:24Z</time>
      </trkpt>
      <trkpt lat="43.59" lon="3.41207">
        <ele>263.5</ele>
        <time>2016-02-14T14:47:25Z</time>
      </trkpt>
      <trkpt lat="43.59" lon="3.41214">
        <ele>263.5</ele>
        <time>2016-02-14T14:47:26Z</time>
      </trkpt>
      <trkpt lat="43.59" lon="3.41222">
        <ele>263</ele>
        <time>2016-02-14T14:47:27Z</time>
      </trkpt>
      <trkpt lat="43.59" lon="3.41229">
        <ele>263</ele>
        <time>2016-02-14T14:47:28Z</time>
      </trkpt>
      <trkpt lat="43.59" lon="3.41236">
        <ele>262.5</ele>
        <time>2016-02-14T14:47:29Z</time>
      </trkpt>
      <trkpt lat="43.59001" lon="3.41244">
        <ele>262</ele>
        <time>2016-02-14T14:47:30Z</time>
      </trkpt>
      <trkpt lat="43.59002" lon="3.41252">
        <ele>262</ele>
        <time>2016-02-14T14:47:31Z</time>
      </trkpt>
      <trkpt lat="43.59003" lon="3.4126">
        <ele>261.5</ele>
        <time>2016-02-14T14:47:32Z</time>
      </trkpt>
      <trkpt lat="43.59004" lon="3.41269">
        <ele>261.5</ele>
        <time>2016-02-14T14:47:33Z</time>
      </trkpt>
      <trkpt lat="43.59004" lon="3.41277">
        <ele>261.5</ele>
        <time>2016-02-14T14:47:34Z</time>
      </trkpt>
      <trkpt lat="43.59005" lon="3.41286">
        <ele>260.5</ele>
        <time>2016-02-14T14:47:35Z</time>
      </trkpt>
      <trkpt lat="43.59006" lon="3.41295">
        <ele>260.5</ele>
        <time>2016-02-14T14:47:36Z</time>
      </trkpt>
      <trkpt lat="43.59007" lon="3.41304">
        <ele>260</ele>
        <time>2016-02-14T14:47:37Z</time>
      </trkpt>
      <trkpt lat="43.59007" lon="3.41313">
        <ele>259.5</ele>
        <time>2016-02-14T14:47:38Z</time>
      </trkpt>
      <trkpt lat="43.59007" lon="3.41322">
        <ele>259</ele>
        <time>2016-02-14T14:47:39Z</time>
      </trkpt>
      <trkpt lat="43.59007" lon="3.41332">
        <ele>259</ele>
        <time>2016-02-14T14:47:40Z</time>
      </trkpt>
      <trkpt lat="43.59005" lon="3.41341">
        <ele>258.5</ele>
        <time>2016-02-14T14:47:41Z</time>
      </trkpt>
      <trkpt lat="43.59004" lon="3.41351">
        <ele>258</ele>
        <time>2016-02-14T14:47:42Z</time>
      </trkpt>
      <trkpt lat="43.59003" lon="3.41361">
        <ele>257.5</ele>
        <time>2016-02-14T14:47:43Z</time>
      </trkpt>
      <trkpt lat="43.59002" lon="3.41371">
        <ele>257</ele>
        <time>2016-02-14T14:47:44Z</time>
      </trkpt>
      <trkpt lat="43.59001" lon="3.41382">
        <ele>256.5</ele>
        <time>2016-02-14T14:47:45Z</time>
      </trkpt>
      <trkpt lat="43.59" lon="3.41393">
        <ele>256</ele>
        <time>2016-02-14T14:47:46Z</time>
      </trkpt>
      <trkpt lat="43.58999" lon="3.41404">
        <ele>255.5</ele>
        <time>2016-02-14T14:47:47Z</time>
      </trkpt>
      <trkpt lat="43.58997" lon="3.41415">
        <ele>254.5</ele>
        <time>2016-02-14T14:47:48Z</time>
      </trkpt>
      <trkpt lat="43.58998" lon="3.41426">
        <ele>254</ele>
        <time>2016-02-14T14:47:49Z</time>
      </trkpt>
      <trkpt lat="43.58998" lon="3.41438">
        <ele>253</ele>
        <time>2016-02-14T14:47:50Z</time>
      </trkpt>
      <trkpt lat="43.58999" lon="3.41451">
        <ele>252.5</ele>
        <time>2016-02-14T14:47:51Z</time>
      </trkpt>
      <trkpt lat="43.58999" lon="3.41464">
        <ele>252</ele>
        <time>2016-02-14T14:47:52Z</time>
      </trkpt>
      <trkpt lat="43.58999" lon="3.41477">
        <ele>251.5</ele>
        <time>2016-02-14T14:47:53Z</time>
      </trkpt>
      <trkpt lat="43.58999" lon="3.41491">
        <ele>250.5</ele>
        <time>2016-02-14T14:47:54Z</time>
      </trkpt>
      <trkpt lat="43.58999" lon="3.41505">
        <ele>251.5</ele>
        <time>2016-02-14T14:47:55Z</time>
      </trkpt>
      <trkpt lat="43.59" lon="3.41519">
        <ele>251.5</ele>
        <time>2016-02-14T14:47:56Z</time>
      </trkpt>
      <trkpt lat="43.59" lon="3.41534">
        <ele>250.5</ele>
        <time>2016-02-14T14:47:57Z</time>
      </trkpt>
      <trkpt lat="43.59" lon="3.41548">
        <ele>249</ele>
        <time>2016-02-14T14:47:58Z</time>
      </trkpt>
      <trkpt lat="43.58998" lon="3.41563">
        <ele>248.5</ele>
        <time>2016-02-14T14:47:59Z</time>
      </trkpt>
      <trkpt lat="43.58995" lon="3.41577">
        <ele>247</ele>
        <time>2016-02-14T14:48:00Z</time>
      </trkpt>
      <trkpt lat="43.58991" lon="3.41591">
        <ele>247</ele>
        <time>2016-02-14T14:48:01Z</time>
      </trkpt>
      <trkpt lat="43.58987" lon="3.41604">
        <ele>246</ele>
        <time>2016-02-14T14:48:02Z</time>
      </trkpt>
      <trkpt lat="43.58984" lon="3.41617">
        <ele>246</ele>
        <time>2016-02-14T14:48:03Z</time>
      </trkpt>
      <trkpt lat="43.58983" lon="3.4163">
        <ele>245.5</ele>
        <time>2016-02-14T14:48:04Z</time>
      </trkpt>
      <trkpt lat="43.58981" lon="3.41642">
        <ele>244.5</ele>
        <time>2016-02-14T14:48:05Z</time>
      </trkpt>
      <trkpt lat="43.58976" lon="3.41651">
        <ele>243</ele>
        <time>2016-02-14T14:48:06Z</time>
      </trkpt>
      <trkpt lat="43.58977" lon="3.41667">
        <ele>244.5</ele>
        <time>2016-02-14T14:48:18Z</time>
      </trkpt>
      <trkpt lat="43.5898" lon="3.41664">
        <ele>245</ele>
        <time>2016-02-14T14:48:19Z</time>
      </trkpt>
      <trkpt lat="43.58983" lon="3.41659">
        <ele>245</ele>
        <time>2016-02-14T14:48:20Z</time>
      </trkpt>
      <trkpt lat="43.58987" lon="3.41653">
        <ele>244.5</ele>
        <time>2016-02-14T14:48:21Z</time>
      </trkpt>
      <trkpt lat="43.58991" lon="3.41647">
        <ele>244.5</ele>
        <time>2016-02-14T14:48:22Z</time>
      </trkpt>
      <trkpt lat="43.58995" lon="3.41641">
        <ele>244.5</ele>
        <time>2016-02-14T14:48:23Z</time>
      </trkpt>
      <trkpt lat="43.58999" lon="3.41635">
        <ele>243.5</ele>
        <time>2016-02-14T14:48:24Z</time>
      </trkpt>
      <trkpt lat="43.59004" lon="3.4163">
        <ele>243</ele>
        <time>2016-02-14T14:48:25Z</time>
      </trkpt>
      <trkpt lat="43.59008" lon="3.41624">
        <ele>242</ele>
        <time>2016-02-14T14:48:26Z</time>
      </trkpt>
      <trkpt lat="43.59013" lon="3.41621">
        <ele>241.5</ele>
        <time>2016-02-14T14:48:27Z</time>
      </trkpt>
      <trkpt lat="43.59021" lon="3.41621">
        <ele>238.5</ele>
        <time>2016-02-14T14:48:29Z</time>
      </trkpt>
      <trkpt lat="43.59023" lon="3.41625">
        <ele>237</ele>
        <time>2016-02-14T14:48:30Z</time>
      </trkpt>
      <trkpt lat="43.59017" lon="3.41638">
        <ele>233.5</ele>
        <time>2016-02-14T14:48:32Z</time>
      </trkpt>
      <trkpt lat="43.59012" lon="3.41643">
        <ele>233</ele>
        <time>2016-02-14T14:48:34Z</time>
      </trkpt>
      <trkpt lat="43.59008" lon="3.41648">
        <ele>232.5</ele>
        <time>2016-02-14T14:48:34Z</time>
      </trkpt>
      <trkpt lat="43.59004" lon="3.41655">
        <ele>231.5</ele>
        <time>2016-02-14T14:48:35Z</time>
      </trkpt>
      <trkpt lat="43.59002" lon="3.41664">
        <ele>231.5</ele>
        <time>2016-02-14T14:48:36Z</time>
      </trkpt>
      <trkpt lat="43.59" lon="3.41673">
        <ele>230.5</ele>
        <time>2016-02-14T14:48:37Z</time>
      </trkpt>
      <trkpt lat="43.58998" lon="3.41682">
        <ele>229</ele>
        <time>2016-02-14T14:48:38Z</time>
      </trkpt>
      <trkpt lat="43.58995" lon="3.41692">
        <ele>229</ele>
        <time>2016-02-14T14:48:39Z</time>
      </trkpt>
      <trkpt lat="43.58991" lon="3.41702">
        <ele>228</ele>
        <time>2016-02-14T14:48:40Z</time>
      </trkpt>
      <trkpt lat="43.58989" lon="3.41712">
        <ele>227.5</ele>
        <time>2016-02-14T14:48:41Z</time>
      </trkpt>
      <trkpt lat="43.58984" lon="3.41722">
        <ele>227.5</ele>
        <time>2016-02-14T14:48:42Z</time>
      </trkpt>
      <trkpt lat="43.5898" lon="3.41733">
        <ele>226</ele>
        <time>2016-02-14T14:48:43Z</time>
      </trkpt>
      <trkpt lat="43.58978" lon="3.41744">
        <ele>226</ele>
        <time>2016-02-14T14:48:44Z</time>
      </trkpt>
      <trkpt lat="43.58976" lon="3.41758">
        <ele>226</ele>
        <time>2016-02-14T14:48:45Z</time>
      </trkpt>
      <trkpt lat="43.58972" lon="3.4177">
        <ele>224</ele>
        <time>2016-02-14T14:48:46Z</time>
      </trkpt>
      <trkpt lat="43.58972" lon="3.41793">
        <ele>225</ele>
        <time>2016-02-14T14:48:48Z</time>
      </trkpt>
      <trkpt lat="43.58972" lon="3.41806">
        <ele>224</ele>
        <time>2016-02-14T14:48:49Z</time>
      </trkpt>
      <trkpt lat="43.5897" lon="3.41818">
        <ele>225</ele>
        <time>2016-02-14T14:48:50Z</time>
      </trkpt>
      <trkpt lat="43.58965" lon="3.41828">
        <ele>224.5</ele>
        <time>2016-02-14T14:48:51Z</time>
      </trkpt>
      <trkpt lat="43.58959" lon="3.41836">
        <ele>223.5</ele>
        <time>2016-02-14T14:48:52Z</time>
      </trkpt>
      <trkpt lat="43.5895" lon="3.41844">
        <ele>220.5</ele>
        <time>2016-02-14T14:48:53Z</time>
      </trkpt>
      <trkpt lat="43.58941" lon="3.41853">
        <ele>218.5</ele>
        <time>2016-02-14T14:48:54Z</time>
      </trkpt>
      <trkpt lat="43.58936" lon="3.41877">
        <ele>216</ele>
        <time>2016-02-14T14:48:56Z</time>
      </trkpt>
      <trkpt lat="43.58936" lon="3.4189">
        <ele>215</ele>
        <time>2016-02-14T14:48:57Z</time>
      </trkpt>
      <trkpt lat="43.58936" lon="3.41903">
        <ele>215</ele>
        <time>2016-02-14T14:48:58Z</time>
      </trkpt>
      <trkpt lat="43.58934" lon="3.41916">
        <ele>214</ele>
        <time>2016-02-14T14:48:59Z</time>
      </trkpt>
      <trkpt lat="43.5893" lon="3.4193">
        <ele>213</ele>
        <time>2016-02-14T14:49:00Z</time>
      </trkpt>
      <trkpt lat="43.58926" lon="3.41943">
        <ele>211.5</ele>
        <time>2016-02-14T14:49:01Z</time>
      </trkpt>
      <trkpt lat="43.58923" lon="3.41957">
        <ele>211</ele>
        <time>2016-02-14T14:49:02Z</time>
      </trkpt>
      <trkpt lat="43.5892" lon="3.41971">
        <ele>209.5</ele>
        <time>2016-02-14T14:49:03Z</time>
      </trkpt>
      <trkpt lat="43.58917" lon="3.41983">
        <ele>208</ele>
        <time>2016-02-14T14:49:04Z</time>
      </trkpt>
      <trkpt lat="43.58914" lon="3.42002">
        <ele>207.5</ele>
        <time>2016-02-14T14:49:08Z</time>
      </trkpt>
      <trkpt lat="43.58917" lon="3.42005">
        <ele>207.5</ele>
        <time>2016-02-14T14:49:09Z</time>
      </trkpt>
      <trkpt lat="43.5892" lon="3.42006">
        <ele>209</ele>
        <time>2016-02-14T14:49:10Z</time>
      </trkpt>
      <trkpt lat="43.58924" lon="3.42007">
        <ele>211</ele>
        <time>2016-02-14T14:49:11Z</time>
      </trkpt>
      <trkpt lat="43.58934" lon="3.42008">
        <ele>211.5</ele>
        <time>2016-02-14T14:49:13Z</time>
      </trkpt>
      <trkpt lat="43.58938" lon="3.42008">
        <ele>212</ele>
        <time>2016-02-14T14:49:14Z</time>
      </trkpt>
      <trkpt lat="43.58943" lon="3.42009">
        <ele>211.5</ele>
        <time>2016-02-14T14:49:15Z</time>
      </trkpt>
      <trkpt lat="43.58948" lon="3.42009">
        <ele>211.5</ele>
        <time>2016-02-14T14:49:16Z</time>
      </trkpt>
      <trkpt lat="43.58953" lon="3.4201">
        <ele>212</ele>
        <time>2016-02-14T14:49:17Z</time>
      </trkpt>
      <trkpt lat="43.58958" lon="3.4201">
        <ele>211.5</ele>
        <time>2016-02-14T14:49:18Z</time>
      </trkpt>
      <trkpt lat="43.58963" lon="3.4201">
        <ele>211.5</ele>
        <time>2016-02-14T14:49:19Z</time>
      </trkpt>
      <trkpt lat="43.58968" lon="3.42011">
        <ele>211</ele>
        <time>2016-02-14T14:49:20Z</time>
      </trkpt>
      <trkpt lat="43.58974" lon="3.42012">
        <ele>210</ele>
        <time>2016-02-14T14:49:21Z</time>
      </trkpt>
      <trkpt lat="43.5898" lon="3.42014">
        <ele>209</ele>
        <time>2016-02-14T14:49:22Z</time>
      </trkpt>
      <trkpt lat="43.58985" lon="3.42015">
        <ele>207</ele>
        <time>2016-02-14T14:49:23Z</time>
      </trkpt>
      <trkpt lat="43.58999" lon="3.42017">
        <ele>206</ele>
        <time>2016-02-14T14:49:25Z</time>
      </trkpt>
      <trkpt lat="43.59007" lon="3.42018">
        <ele>205</ele>
        <time>2016-02-14T14:49:26Z</time>
      </trkpt>
      <trkpt lat="43.59014" lon="3.42023">
        <ele>203.5</ele>
        <time>2016-02-14T14:49:27Z</time>
      </trkpt>
      <trkpt lat="43.59022" lon="3.42028">
        <ele>201.5</ele>
        <time>2016-02-14T14:49:28Z</time>
      </trkpt>
      <trkpt lat="43.5903" lon="3.42034">
        <ele>199.5</ele>
        <time>2016-02-14T14:49:29Z</time>
      </trkpt>
      <trkpt lat="43.59038" lon="3.42041">
        <ele>197</ele>
        <time>2016-02-14T14:49:30Z</time>
      </trkpt>
      <trkpt lat="43.59046" lon="3.42047">
        <ele>197</ele>
        <time>2016-02-14T14:49:32Z</time>
      </trkpt>
      <trkpt lat="43.59054" lon="3.42055">
        <ele>195</ele>
        <time>2016-02-14T14:49:32Z</time>
      </trkpt>
      <trkpt lat="43.59062" lon="3.42062">
        <ele>193</ele>
        <time>2016-02-14T14:49:33Z</time>
      </trkpt>
      <trkpt lat="43.59069" lon="3.42069">
        <ele>191</ele>
        <time>2016-02-14T14:49:34Z</time>
      </trkpt>
      <trkpt lat="43.59076" lon="3.42074">
        <ele>189.5</ele>
        <time>2016-02-14T14:49:35Z</time>
      </trkpt>
      <trkpt lat="43.59083" lon="3.42079">
        <ele>188</ele>
        <time>2016-02-14T14:49:36Z</time>
      </trkpt>
      <trkpt lat="43.5909" lon="3.42084">
        <ele>186.5</ele>
        <time>2016-02-14T14:49:37Z</time>
      </trkpt>
      <trkpt lat="43.59102" lon="3.42092">
        <ele>183.5</ele>
        <time>2016-02-14T14:49:39Z</time>
      </trkpt>
      <trkpt lat="43.59108" lon="3.42095">
        <ele>182.5</ele>
        <time>2016-02-14T14:49:40Z</time>
      </trkpt>
      <trkpt lat="43.59113" lon="3.42097">
        <ele>181.5</ele>
        <time>2016-02-14T14:49:41Z</time>
      </trkpt>
      <trkpt lat="43.59118" lon="3.421">
        <ele>180.5</ele>
        <time>2016-02-14T14:49:42Z</time>
      </trkpt>
      <trkpt lat="43.59122" lon="3.42103">
        <ele>179</ele>
        <time>2016-02-14T14:49:43Z</time>
      </trkpt>
      <trkpt lat="43.59126" lon="3.4211">
        <ele>177.5</ele>
        <time>2016-02-14T14:49:44Z</time>
      </trkpt>
      <trkpt lat="43.5913" lon="3.42118">
        <ele>177.5</ele>
        <time>2016-02-14T14:49:45Z</time>
      </trkpt>
      <trkpt lat="43.59133" lon="3.42127">
        <ele>176</ele>
        <time>2016-02-14T14:49:46Z</time>
      </trkpt>
      <trkpt lat="43.59135" lon="3.42136">
        <ele>174</ele>
        <time>2016-02-14T14:49:47Z</time>
      </trkpt>
      <trkpt lat="43.59138" lon="3.42145">
        <ele>173</ele>
        <time>2016-02-14T14:49:48Z</time>
      </trkpt>
      <trkpt lat="43.5914" lon="3.42155">
        <ele>172.5</ele>
        <time>2016-02-14T14:49:49Z</time>
      </trkpt>
      <trkpt lat="43.59142" lon="3.42164">
        <ele>171.5</ele>
        <time>2016-02-14T14:49:50Z</time>
      </trkpt>
      <trkpt lat="43.59143" lon="3.42174">
        <ele>170.5</ele>
        <time>2016-02-14T14:49:51Z</time>
      </trkpt>
      <trkpt lat="43.59145" lon="3.42184">
        <ele>169.5</ele>
        <time>2016-02-14T14:49:52Z</time>
      </trkpt>
      <trkpt lat="43.59147" lon="3.42195">
        <ele>169</ele>
        <time>2016-02-14T14:49:53Z</time>
      </trkpt>
      <trkpt lat="43.59151" lon="3.42206">
        <ele>167</ele>
        <time>2016-02-14T14:49:54Z</time>
      </trkpt>
      <trkpt lat="43.59154" lon="3.42218">
        <ele>165.5</ele>
        <time>2016-02-14T14:49:55Z</time>
      </trkpt>
      <trkpt lat="43.59155" lon="3.42231">
        <ele>163.5</ele>
        <time>2016-02-14T14:49:56Z</time>
      </trkpt>
      <trkpt lat="43.59153" lon="3.42245">
        <ele>161.5</ele>
        <time>2016-02-14T14:49:57Z</time>
      </trkpt>
      <trkpt lat="43.59151" lon="3.42259">
        <ele>159.5</ele>
        <time>2016-02-14T14:49:58Z</time>
      </trkpt>
      <trkpt lat="43.5915" lon="3.42272">
        <ele>157.5</ele>
        <time>2016-02-14T14:49:59Z</time>
      </trkpt>
      <trkpt lat="43.59149" lon="3.42285">
        <ele>156</ele>
        <time>2016-02-14T14:50:00Z</time>
      </trkpt>
      <trkpt lat="43.59149" lon="3.42297">
        <ele>154.5</ele>
        <time>2016-02-14T14:50:01Z</time>
      </trkpt>
      <trkpt lat="43.59153" lon="3.4231">
        <ele>154</ele>
        <time>2016-02-14T14:50:02Z</time>
      </trkpt>
      <trkpt lat="43.59154" lon="3.42323">
        <ele>152</ele>
        <time>2016-02-14T14:50:03Z</time>
      </trkpt>
      <trkpt lat="43.5916" lon="3.42334">
        <ele>151.5</ele>
        <time>2016-02-14T14:50:04Z</time>
      </trkpt>
      <trkpt lat="43.59166" lon="3.42344">
        <ele>149.5</ele>
        <time>2016-02-14T14:50:05Z</time>
      </trkpt>
      <trkpt lat="43.59173" lon="3.42355">
        <ele>147.5</ele>
        <time>2016-02-14T14:50:06Z</time>
      </trkpt>
      <trkpt lat="43.59179" lon="3.42367">
        <ele>145</ele>
        <time>2016-02-14T14:50:07Z</time>
      </trkpt>
      <trkpt lat="43.59184" lon="3.42378">
        <ele>144.5</ele>
        <time>2016-02-14T14:50:08Z</time>
      </trkpt>
      <trkpt lat="43.59194" lon="3.42394">
        <ele>141.5</ele>
        <time>2016-02-14T14:50:10Z</time>
      </trkpt>
      <trkpt lat="43.592" lon="3.424">
        <ele>141.5</ele>
        <time>2016-02-14T14:50:11Z</time>
      </trkpt>
      <trkpt lat="43.59206" lon="3.42406">
        <ele>141</ele>
        <time>2016-02-14T14:50:12Z</time>
      </trkpt>
      <trkpt lat="43.59213" lon="3.42411">
        <ele>141</ele>
        <time>2016-02-14T14:50:13Z</time>
      </trkpt>
      <trkpt lat="43.59219" lon="3.42417">
        <ele>140.5</ele>
        <time>2016-02-14T14:50:14Z</time>
      </trkpt>
      <trkpt lat="43.59223" lon="3.42423">
        <ele>141</ele>
        <time>2016-02-14T14:50:15Z</time>
      </trkpt>
      <trkpt lat="43.59225" lon="3.42431">
        <ele>141</ele>
        <time>2016-02-14T14:50:16Z</time>
      </trkpt>
      <trkpt lat="43.59225" lon="3.4244">
        <ele>141</ele>
        <time>2016-02-14T14:50:17Z</time>
      </trkpt>
      <trkpt lat="43.59224" lon="3.42448">
        <ele>140</ele>
        <time>2016-02-14T14:50:18Z</time>
      </trkpt>
      <trkpt lat="43.59223" lon="3.42458">
        <ele>139.5</ele>
        <time>2016-02-14T14:50:19Z</time>
      </trkpt>
      <trkpt lat="43.59223" lon="3.42467">
        <ele>138.5</ele>
        <time>2016-02-14T14:50:20Z</time>
      </trkpt>
      <trkpt lat="43.59223" lon="3.42475">
        <ele>138.5</ele>
        <time>2016-02-14T14:50:21Z</time>
      </trkpt>
      <trkpt lat="43.59222" lon="3.42486">
        <ele>139</ele>
        <time>2016-02-14T14:50:23Z</time>
      </trkpt>
      <trkpt lat="43.59221" lon="3.42492">
        <ele>136.5</ele>
        <time>2016-02-14T14:50:25Z</time>
      </trkpt>
      <trkpt lat="43.59222" lon="3.42494">
        <ele>136.5</ele>
        <time>2016-02-14T14:50:26Z</time>
      </trkpt>
      <trkpt lat="43.59222" lon="3.42496">
        <ele>136.5</ele>
        <time>2016-02-14T14:50:27Z</time>
      </trkpt>
      <trkpt lat="43.59223" lon="3.42498">
        <ele>136</ele>
        <time>2016-02-14T14:50:28Z</time>
      </trkpt>
      <trkpt lat="43.59224" lon="3.42499">
        <ele>136</ele>
        <time>2016-02-14T14:50:29Z</time>
      </trkpt>
      <trkpt lat="43.59225" lon="3.425">
        <ele>137.5</ele>
        <time>2016-02-14T14:50:30Z</time>
      </trkpt>
      <trkpt lat="43.59226" lon="3.42502">
        <ele>137.5</ele>
        <time>2016-02-14T14:50:31Z</time>
      </trkpt>
      <trkpt lat="43.59226" lon="3.42504">
        <ele>138</ele>
        <time>2016-02-14T14:50:32Z</time>
      </trkpt>
      <trkpt lat="43.59226" lon="3.42506">
        <ele>138</ele>
        <time>2016-02-14T14:50:33Z</time>
      </trkpt>
      <trkpt lat="43.59226" lon="3.42508">
        <ele>137.5</ele>
        <time>2016-02-14T14:50:34Z</time>
      </trkpt>
      <trkpt lat="43.59226" lon="3.4251">
        <ele>137</ele>
        <time>2016-02-14T14:50:35Z</time>
      </trkpt>
      <trkpt lat="43.59225" lon="3.42513">
        <ele>136.5</ele>
        <time>2016-02-14T14:50:36Z</time>
      </trkpt>
      <trkpt lat="43.59226" lon="3.42516">
        <ele>136</ele>
        <time>2016-02-14T14:50:37Z</time>
      </trkpt>
      <trkpt lat="43.59227" lon="3.42519">
        <ele>135.5</ele>
        <time>2016-02-14T14:50:38Z</time>
      </trkpt>
      <trkpt lat="43.59228" lon="3.42521">
        <ele>135</ele>
        <time>2016-02-14T14:50:39Z</time>
      </trkpt>
      <trkpt lat="43.59229" lon="3.42524">
        <ele>135.5</ele>
        <time>2016-02-14T14:50:40Z</time>
      </trkpt>
      <trkpt lat="43.59229" lon="3.42528">
        <ele>135.5</ele>
        <time>2016-02-14T14:50:41Z</time>
      </trkpt>
      <trkpt lat="43.5923" lon="3.42531">
        <ele>136</ele>
        <time>2016-02-14T14:50:42Z</time>
      </trkpt>
      <trkpt lat="43.59231" lon="3.42534">
        <ele>136</ele>
        <time>2016-02-14T14:50:43Z</time>
      </trkpt>
      <trkpt lat="43.59233" lon="3.42537">
        <ele>135.5</ele>
        <time>2016-02-14T14:50:44Z</time>
      </trkpt>
      <trkpt lat="43.59234" lon="3.4254">
        <ele>135</ele>
        <time>2016-02-14T14:50:45Z</time>
      </trkpt>
      <trkpt lat="43.59235" lon="3.42544">
        <ele>135</ele>
        <time>2016-02-14T14:50:46Z</time>
      </trkpt>
      <trkpt lat="43.59236" lon="3.42547">
        <ele>135</ele>
        <time>2016-02-14T14:50:47Z</time>
      </trkpt>
      <trkpt lat="43.59238" lon="3.4255">
        <ele>135.5</ele>
        <time>2016-02-14T14:50:48Z</time>
      </trkpt>
      <trkpt lat="43.59239" lon="3.42553">
        <ele>135</ele>
        <time>2016-02-14T14:50:49Z</time>
      </trkpt>
      <trkpt lat="43.5924" lon="3.42557">
        <ele>135.5</ele>
        <time>2016-02-14T14:50:50Z</time>
      </trkpt>
      <trkpt lat="43.59241" lon="3.4256">
        <ele>135</ele>
        <time>2016-02-14T14:50:51Z</time>
      </trkpt>
      <trkpt lat="43.59243" lon="3.42565">
        <ele>135</ele>
        <time>2016-02-14T14:50:52Z</time>
      </trkpt>
      <trkpt lat="43.59244" lon="3.42569">
        <ele>135</ele>
        <time>2016-02-14T14:50:53Z</time>
      </trkpt>
      <trkpt lat="43.59245" lon="3.42573">
        <ele>135</ele>
        <time>2016-02-14T14:50:54Z</time>
      </trkpt>
      <trkpt lat="43.59246" lon="3.42578">
        <ele>134.5</ele>
        <time>2016-02-14T14:50:55Z</time>
      </trkpt>
      <trkpt lat="43.59247" lon="3.42583">
        <ele>134</ele>
        <time>2016-02-14T14:50:56Z</time>
      </trkpt>
      <trkpt lat="43.59248" lon="3.42587">
        <ele>134</ele>
        <time>2016-02-14T14:50:57Z</time>
      </trkpt>
      <trkpt lat="43.59249" lon="3.42592">
        <ele>134</ele>
        <time>2016-02-14T14:50:58Z</time>
      </trkpt>
      <trkpt lat="43.5925" lon="3.42596">
        <ele>134</ele>
        <time>2016-02-14T14:50:59Z</time>
      </trkpt>
      <trkpt lat="43.59251" lon="3.42601">
        <ele>134</ele>
        <time>2016-02-14T14:51:00Z</time>
      </trkpt>
      <trkpt lat="43.59252" lon="3.42605">
        <ele>134.5</ele>
        <time>2016-02-14T14:51:01Z</time>
      </trkpt>
      <trkpt lat="43.59252" lon="3.4261">
        <ele>134.5</ele>
        <time>2016-02-14T14:51:02Z</time>
      </trkpt>
      <trkpt lat="43.59253" lon="3.42614">
        <ele>135</ele>
        <time>2016-02-14T14:51:03Z</time>
      </trkpt>
      <trkpt lat="43.59253" lon="3.42618">
        <ele>134.5</ele>
        <time>2016-02-14T14:51:04Z</time>
      </trkpt>
      <trkpt lat="43.59253" lon="3.42622">
        <ele>134</ele>
        <time>2016-02-14T14:51:05Z</time>
      </trkpt>
      <trkpt lat="43.59255" lon="3.42624">
        <ele>135</ele>
        <time>2016-02-14T14:51:06Z</time>
      </trkpt>
      <trkpt lat="43.59258" lon="3.42625">
        <ele>136.5</ele>
        <time>2016-02-14T14:51:07Z</time>
      </trkpt>
      <trkpt lat="43.59261" lon="3.42628">
        <ele>137</ele>
        <time>2016-02-14T14:51:08Z</time>
      </trkpt>
      <trkpt lat="43.59263" lon="3.42631">
        <ele>137.5</ele>
        <time>2016-02-14T14:51:09Z</time>
      </trkpt>
      <trkpt lat="43.59265" lon="3.42634">
        <ele>137</ele>
        <time>2016-02-14T14:51:10Z</time>
      </trkpt>
      <trkpt lat="43.59267" lon="3.42638">
        <ele>137</ele>
        <time>2016-02-14T14:51:11Z</time>
      </trkpt>
      <trkpt lat="43.59269" lon="3.42642">
        <ele>136.5</ele>
        <time>2016-02-14T14:51:12Z</time>
      </trkpt>
      <trkpt lat="43.59271" lon="3.42646">
        <ele>136.5</ele>
        <time>2016-02-14T14:51:13Z</time>
      </trkpt>
      <trkpt lat="43.59274" lon="3.42652">
        <ele>136.5</ele>
        <time>2016-02-14T14:51:14Z</time>
      </trkpt>
      <trkpt lat="43.59277" lon="3.42657">
        <ele>136</ele>
        <time>2016-02-14T14:51:15Z</time>
      </trkpt>
      <trkpt lat="43.59279" lon="3.42662">
        <ele>136</ele>
        <time>2016-02-14T14:51:16Z</time>
      </trkpt>
      <trkpt lat="43.59282" lon="3.42667">
        <ele>135.5</ele>
        <time>2016-02-14T14:51:17Z</time>
      </trkpt>
      <trkpt lat="43.59285" lon="3.42673">
        <ele>135</ele>
        <time>2016-02-14T14:51:18Z</time>
      </trkpt>
      <trkpt lat="43.59288" lon="3.42678">
        <ele>135</ele>
        <time>2016-02-14T14:51:19Z</time>
      </trkpt>
      <trkpt lat="43.59291" lon="3.42683">
        <ele>135</ele>
        <time>2016-02-14T14:51:20Z</time>
      </trkpt>
      <trkpt lat="43.59294" lon="3.42688">
        <ele>135</ele>
        <time>2016-02-14T14:51:21Z</time>
      </trkpt>
      <trkpt lat="43.59297" lon="3.42694">
        <ele>134.5</ele>
        <time>2016-02-14T14:51:22Z</time>
      </trkpt>
      <trkpt lat="43.593" lon="3.42699">
        <ele>134.5</ele>
        <time>2016-02-14T14:51:23Z</time>
      </trkpt>
      <trkpt lat="43.59303" lon="3.42704">
        <ele>134.5</ele>
        <time>2016-02-14T14:51:24Z</time>
      </trkpt>
      <trkpt lat="43.59306" lon="3.42709">
        <ele>134</ele>
        <time>2016-02-14T14:51:25Z</time>
      </trkpt>
      <trkpt lat="43.59309" lon="3.42714">
        <ele>134</ele>
        <time>2016-02-14T14:51:26Z</time>
      </trkpt>
      <trkpt lat="43.59312" lon="3.42719">
        <ele>134.5</ele>
        <time>2016-02-14T14:51:27Z</time>
      </trkpt>
      <trkpt lat="43.59315" lon="3.42724">
        <ele>134</ele>
        <time>2016-02-14T14:51:28Z</time>
      </trkpt>
      <trkpt lat="43.59318" lon="3.42729">
        <ele>133.5</ele>
        <time>2016-02-14T14:51:29Z</time>
      </trkpt>
      <trkpt lat="43.59321" lon="3.42734">
        <ele>133.5</ele>
        <time>2016-02-14T14:51:30Z</time>
      </trkpt>
      <trkpt lat="43.59324" lon="3.42739">
        <ele>133.5</ele>
        <time>2016-02-14T14:51:31Z</time>
      </trkpt>
      <trkpt lat="43.59327" lon="3.42744">
        <ele>133.5</ele>
        <time>2016-02-14T14:51:32Z</time>
      </trkpt>
      <trkpt lat="43.59329" lon="3.42748">
        <ele>133.5</ele>
        <time>2016-02-14T14:51:33Z</time>
      </trkpt>
      <trkpt lat="43.59332" lon="3.42752">
        <ele>133.5</ele>
        <time>2016-02-14T14:51:34Z</time>
      </trkpt>
      <trkpt lat="43.59335" lon="3.42757">
        <ele>133.5</ele>
        <time>2016-02-14T14:51:35Z</time>
      </trkpt>
      <trkpt lat="43.59338" lon="3.4276">
        <ele>133.5</ele>
        <time>2016-02-14T14:51:36Z</time>
      </trkpt>
      <trkpt lat="43.59341" lon="3.42764">
        <ele>134</ele>
        <time>2016-02-14T14:51:37Z</time>
      </trkpt>
      <trkpt lat="43.59344" lon="3.42769">
        <ele>134</ele>
        <time>2016-02-14T14:51:38Z</time>
      </trkpt>
      <trkpt lat="43.59347" lon="3.42773">
        <ele>134</ele>
        <time>2016-02-14T14:51:39Z</time>
      </trkpt>
      <trkpt lat="43.5935" lon="3.42777">
        <ele>134</ele>
        <time>2016-02-14T14:51:40Z</time>
      </trkpt>
      <trkpt lat="43.59353" lon="3.42781">
        <ele>134</ele>
        <time>2016-02-14T14:51:41Z</time>
      </trkpt>
      <trkpt lat="43.59356" lon="3.42786">
        <ele>134.5</ele>
        <time>2016-02-14T14:51:42Z</time>
      </trkpt>
      <trkpt lat="43.59358" lon="3.4279">
        <ele>134.5</ele>
        <time>2016-02-14T14:51:43Z</time>
      </trkpt>
      <trkpt lat="43.59361" lon="3.42794">
        <ele>134.5</ele>
        <time>2016-02-14T14:51:44Z</time>
      </trkpt>
      <trkpt lat="43.59364" lon="3.42798">
        <ele>135</ele>
        <time>2016-02-14T14:51:45Z</time>
      </trkpt>
      <trkpt lat="43.59367" lon="3.42801">
        <ele>135</ele>
        <time>2016-02-14T14:51:46Z</time>
      </trkpt>
      <trkpt lat="43.59369" lon="3.42804">
        <ele>135.5</ele>
        <time>2016-02-14T14:51:47Z</time>
      </trkpt>
      <trkpt lat="43.59373" lon="3.42805">
        <ele>136</ele>
        <time>2016-02-14T14:51:48Z</time>
      </trkpt>
      <trkpt lat="43.59376" lon="3.42806">
        <ele>136</ele>
        <time>2016-02-14T14:51:49Z</time>
      </trkpt>
      <trkpt lat="43.59379" lon="3.42807">
        <ele>136.5</ele>
        <time>2016-02-14T14:51:50Z</time>
      </trkpt>
      <trkpt lat="43.59382" lon="3.42808">
        <ele>136.5</ele>
        <time>2016-02-14T14:51:51Z</time>
      </trkpt>
      <trkpt lat="43.59384" lon="3.42808">
        <ele>137</ele>
        <time>2016-02-14T14:51:52Z</time>
      </trkpt>
      <trkpt lat="43.59387" lon="3.4281">
        <ele>137</ele>
        <time>2016-02-14T14:51:53Z</time>
      </trkpt>
      <trkpt lat="43.59389" lon="3.42812">
        <ele>137</ele>
        <time>2016-02-14T14:51:54Z</time>
      </trkpt>
      <trkpt lat="43.5939" lon="3.42815">
        <ele>137.5</ele>
        <time>2016-02-14T14:51:55Z</time>
      </trkpt>
      <trkpt lat="43.59391" lon="3.42819">
        <ele>137.5</ele>
        <time>2016-02-14T14:51:56Z</time>
      </trkpt>
      <trkpt lat="43.59392" lon="3.42824">
        <ele>137</ele>
        <time>2016-02-14T14:51:57Z</time>
      </trkpt>
      <trkpt lat="43.59393" lon="3.42829">
        <ele>137</ele>
        <time>2016-02-14T14:51:58Z</time>
      </trkpt>
      <trkpt lat="43.59393" lon="3.42834">
        <ele>137</ele>
        <time>2016-02-14T14:51:59Z</time>
      </trkpt>
      <trkpt lat="43.59394" lon="3.42839">
        <ele>137</ele>
        <time>2016-02-14T14:52:00Z</time>
      </trkpt>
      <trkpt lat="43.59395" lon="3.42845">
        <ele>137</ele>
        <time>2016-02-14T14:52:01Z</time>
      </trkpt>
      <trkpt lat="43.59397" lon="3.4285">
        <ele>137</ele>
        <time>2016-02-14T14:52:02Z</time>
      </trkpt>
      <trkpt lat="43.59398" lon="3.42855">
        <ele>136.5</ele>
        <time>2016-02-14T14:52:03Z</time>
      </trkpt>
      <trkpt lat="43.59399" lon="3.42861">
        <ele>136.5</ele>
        <time>2016-02-14T14:52:04Z</time>
      </trkpt>
      <trkpt lat="43.594" lon="3.42867">
        <ele>136.5</ele>
        <time>2016-02-14T14:52:05Z</time>
      </trkpt>
      <trkpt lat="43.59401" lon="3.42873">
        <ele>136</ele>
        <time>2016-02-14T14:52:06Z</time>
      </trkpt>
      <trkpt lat="43.59401" lon="3.42879">
        <ele>136</ele>
        <time>2016-02-14T14:52:07Z</time>
      </trkpt>
      <trkpt lat="43.59402" lon="3.42885">
        <ele>136</ele>
        <time>2016-02-14T14:52:08Z</time>
      </trkpt>
      <trkpt lat="43.59403" lon="3.42892">
        <ele>136</ele>
        <time>2016-02-14T14:52:09Z</time>
      </trkpt>
      <trkpt lat="43.59403" lon="3.42898">
        <ele>135.5</ele>
        <time>2016-02-14T14:52:10Z</time>
      </trkpt>
      <trkpt lat="43.59404" lon="3.42905">
        <ele>135</ele>
        <time>2016-02-14T14:52:11Z</time>
      </trkpt>
      <trkpt lat="43.59405" lon="3.42912">
        <ele>135</ele>
        <time>2016-02-14T14:52:12Z</time>
      </trkpt>
      <trkpt lat="43.59405" lon="3.42918">
        <ele>134.5</ele>
        <time>2016-02-14T14:52:13Z</time>
      </trkpt>
      <trkpt lat="43.59406" lon="3.42925">
        <ele>134</ele>
        <time>2016-02-14T14:52:14Z</time>
      </trkpt>
      <trkpt lat="43.59407" lon="3.42932">
        <ele>134</ele>
        <time>2016-02-14T14:52:14Z</time>
      </trkpt>
      <trkpt lat="43.59409" lon="3.42939">
        <ele>134</ele>
        <time>2016-02-14T14:52:15Z</time>
      </trkpt>
      <trkpt lat="43.5941" lon="3.42945">
        <ele>134</ele>
        <time>2016-02-14T14:52:16Z</time>
      </trkpt>
      <trkpt lat="43.59412" lon="3.42952">
        <ele>133.5</ele>
        <time>2016-02-14T14:52:18Z</time>
      </trkpt>
      <trkpt lat="43.59414" lon="3.42958">
        <ele>133.5</ele>
        <time>2016-02-14T14:52:18Z</time>
      </trkpt>
      <trkpt lat="43.59416" lon="3.42964">
        <ele>133.5</ele>
        <time>2016-02-14T14:52:19Z</time>
      </trkpt>
      <trkpt lat="43.59417" lon="3.4297">
        <ele>134</ele>
        <time>2016-02-14T14:52:20Z</time>
      </trkpt>
      <trkpt lat="43.59419" lon="3.42975">
        <ele>134</ele>
        <time>2016-02-14T14:52:21Z</time>
      </trkpt>
      <trkpt lat="43.5942" lon="3.4298">
        <ele>133.5</ele>
        <time>2016-02-14T14:52:22Z</time>
      </trkpt>
      <trkpt lat="43.59421" lon="3.42986">
        <ele>133.5</ele>
        <time>2016-02-14T14:52:23Z</time>
      </trkpt>
      <trkpt lat="43.59423" lon="3.42991">
        <ele>133.5</ele>
        <time>2016-02-14T14:52:24Z</time>
      </trkpt>
      <trkpt lat="43.59425" lon="3.42996">
        <ele>133.5</ele>
        <time>2016-02-14T14:52:25Z</time>
      </trkpt>
      <trkpt lat="43.59428" lon="3.43001">
        <ele>133.5</ele>
        <time>2016-02-14T14:52:26Z</time>
      </trkpt>
      <trkpt lat="43.59431" lon="3.43004">
        <ele>133.5</ele>
        <time>2016-02-14T14:52:27Z</time>
      </trkpt>
      <trkpt lat="43.59435" lon="3.43007">
        <ele>133.5</ele>
        <time>2016-02-14T14:52:28Z</time>
      </trkpt>
      <trkpt lat="43.59438" lon="3.4301">
        <ele>133.5</ele>
        <time>2016-02-14T14:52:29Z</time>
      </trkpt>
      <trkpt lat="43.59442" lon="3.43013">
        <ele>133.5</ele>
        <time>2016-02-14T14:52:30Z</time>
      </trkpt>
      <trkpt lat="43.59446" lon="3.43014">
        <ele>134</ele>
        <time>2016-02-14T14:52:31Z</time>
      </trkpt>
      <trkpt lat="43.5945" lon="3.43017">
        <ele>134</ele>
        <time>2016-02-14T14:52:32Z</time>
      </trkpt>
      <trkpt lat="43.59453" lon="3.4302">
        <ele>134</ele>
        <time>2016-02-14T14:52:33Z</time>
      </trkpt>
      <trkpt lat="43.59457" lon="3.43023">
        <ele>134</ele>
        <time>2016-02-14T14:52:34Z</time>
      </trkpt>
      <trkpt lat="43.59461" lon="3.43025">
        <ele>134.5</ele>
        <time>2016-02-14T14:52:35Z</time>
      </trkpt>
      <trkpt lat="43.59465" lon="3.43027">
        <ele>134.5</ele>
        <time>2016-02-14T14:52:36Z</time>
      </trkpt>
      <trkpt lat="43.59468" lon="3.4303">
        <ele>135</ele>
        <time>2016-02-14T14:52:37Z</time>
      </trkpt>
      <trkpt lat="43.59472" lon="3.43033">
        <ele>135</ele>
        <time>2016-02-14T14:52:38Z</time>
      </trkpt>
      <trkpt lat="43.59476" lon="3.43036">
        <ele>135</ele>
        <time>2016-02-14T14:52:39Z</time>
      </trkpt>
      <trkpt lat="43.5948" lon="3.43038">
        <ele>135</ele>
        <time>2016-02-14T14:52:40Z</time>
      </trkpt>
      <trkpt lat="43.59484" lon="3.4304">
        <ele>135.5</ele>
        <time>2016-02-14T14:52:41Z</time>
      </trkpt>
      <trkpt lat="43.59487" lon="3.43043">
        <ele>136</ele>
        <time>2016-02-14T14:52:42Z</time>
      </trkpt>
      <trkpt lat="43.59491" lon="3.43046">
        <ele>136</ele>
        <time>2016-02-14T14:52:43Z</time>
      </trkpt>
      <trkpt lat="43.59495" lon="3.43048">
        <ele>136.5</ele>
        <time>2016-02-14T14:52:44Z</time>
      </trkpt>
      <trkpt lat="43.59499" lon="3.43051">
        <ele>137</ele>
        <time>2016-02-14T14:52:45Z</time>
      </trkpt>
      <trkpt lat="43.59502" lon="3.43054">
        <ele>137</ele>
        <time>2016-02-14T14:52:46Z</time>
      </trkpt>
      <trkpt lat="43.59506" lon="3.43057">
        <ele>137.5</ele>
        <time>2016-02-14T14:52:47Z</time>
      </trkpt>
      <trkpt lat="43.59509" lon="3.4306">
        <ele>137</ele>
        <time>2016-02-14T14:52:48Z</time>
      </trkpt>
      <trkpt lat="43.59513" lon="3.43063">
        <ele>137.5</ele>
        <time>2016-02-14T14:52:49Z</time>
      </trkpt>
      <trkpt lat="43.59516" lon="3.43066">
        <ele>137.5</ele>
        <time>2016-02-14T14:52:50Z</time>
      </trkpt>
      <trkpt lat="43.5952" lon="3.43069">
        <ele>137.5</ele>
        <time>2016-02-14T14:52:51Z</time>
      </trkpt>
      <trkpt lat="43.59524" lon="3.43072">
        <ele>137.5</ele>
        <time>2016-02-14T14:52:52Z</time>
      </trkpt>
      <trkpt lat="43.59527" lon="3.43075">
        <ele>137.5</ele>
        <time>2016-02-14T14:52:53Z</time>
      </trkpt>
      <trkpt lat="43.5953" lon="3.43078">
        <ele>138</ele>
        <time>2016-02-14T14:52:54Z</time>
      </trkpt>
      <trkpt lat="43.59534" lon="3.43081">
        <ele>138.5</ele>
        <time>2016-02-14T14:52:56Z</time>
      </trkpt>
      <trkpt lat="43.59537" lon="3.43085">
        <ele>138</ele>
        <time>2016-02-14T14:52:56Z</time>
      </trkpt>
      <trkpt lat="43.5954" lon="3.43089">
        <ele>138</ele>
        <time>2016-02-14T14:52:57Z</time>
      </trkpt>
      <trkpt lat="43.59543" lon="3.43092">
        <ele>138.5</ele>
        <time>2016-02-14T14:52:58Z</time>
      </trkpt>
      <trkpt lat="43.59546" lon="3.43096">
        <ele>138.5</ele>
        <time>2016-02-14T14:52:59Z</time>
      </trkpt>
      <trkpt lat="43.59549" lon="3.431">
        <ele>138</ele>
        <time>2016-02-14T14:53:00Z</time>
      </trkpt>
      <trkpt lat="43.59552" lon="3.43104">
        <ele>138</ele>
        <time>2016-02-14T14:53:01Z</time>
      </trkpt>
      <trkpt lat="43.59555" lon="3.43107">
        <ele>138</ele>
        <time>2016-02-14T14:53:02Z</time>
      </trkpt>
      <trkpt lat="43.59558" lon="3.43111">
        <ele>138</ele>
        <time>2016-02-14T14:53:03Z</time>
      </trkpt>
      <trkpt lat="43.59561" lon="3.43114">
        <ele>138.5</ele>
        <time>2016-02-14T14:53:04Z</time>
      </trkpt>
      <trkpt lat="43.59564" lon="3.43118">
        <ele>138.5</ele>
        <time>2016-02-14T14:53:05Z</time>
      </trkpt>
      <trkpt lat="43.59567" lon="3.43121">
        <ele>138</ele>
        <time>2016-02-14T14:53:06Z</time>
      </trkpt>
      <trkpt lat="43.5957" lon="3.43125">
        <ele>138</ele>
        <time>2016-02-14T14:53:07Z</time>
      </trkpt>
      <trkpt lat="43.59573" lon="3.43128">
        <ele>138</ele>
        <time>2016-02-14T14:53:08Z</time>
      </trkpt>
      <trkpt lat="43.59576" lon="3.43131">
        <ele>138</ele>
        <time>2016-02-14T14:53:09Z</time>
      </trkpt>
      <trkpt lat="43.59579" lon="3.43134">
        <ele>138</ele>
        <time>2016-02-14T14:53:10Z</time>
      </trkpt>
      <trkpt lat="43.59582" lon="3.43137">
        <ele>138</ele>
        <time>2016-02-14T14:53:11Z</time>
      </trkpt>
      <trkpt lat="43.59585" lon="3.4314">
        <ele>138</ele>
        <time>2016-02-14T14:53:12Z</time>
      </trkpt>
      <trkpt lat="43.59588" lon="3.43143">
        <ele>138</ele>
        <time>2016-02-14T14:53:14Z</time>
      </trkpt>
      <trkpt lat="43.59591" lon="3.43147">
        <ele>137.5</ele>
        <time>2016-02-14T14:53:14Z</time>
      </trkpt>
      <trkpt lat="43.59594" lon="3.4315">
        <ele>137.5</ele>
        <time>2016-02-14T14:53:15Z</time>
      </trkpt>
      <trkpt lat="43.59597" lon="3.43152">
        <ele>137</ele>
        <time>2016-02-14T14:53:16Z</time>
      </trkpt>
      <trkpt lat="43.596" lon="3.43155">
        <ele>137</ele>
        <time>2016-02-14T14:53:17Z</time>
      </trkpt>
      <trkpt lat="43.59604" lon="3.43157">
        <ele>137</ele>
        <time>2016-02-14T14:53:18Z</time>
      </trkpt>
      <trkpt lat="43.59607" lon="3.4316">
        <ele>137</ele>
        <time>2016-02-14T14:53:19Z</time>
      </trkpt>
      <trkpt lat="43.5961" lon="3.43163">
        <ele>137</ele>
        <time>2016-02-14T14:53:20Z</time>
      </trkpt>
      <trkpt lat="43.59613" lon="3.43165">
        <ele>137</ele>
        <time>2016-02-14T14:53:21Z</time>
      </trkpt>
      <trkpt lat="43.59616" lon="3.43168">
        <ele>137</ele>
        <time>2016-02-14T14:53:22Z</time>
      </trkpt>
      <trkpt lat="43.5962" lon="3.43171">
        <ele>137</ele>
        <time>2016-02-14T14:53:23Z</time>
      </trkpt>
      <trkpt lat="43.59623" lon="3.43173">
        <ele>137</ele>
        <time>2016-02-14T14:53:24Z</time>
      </trkpt>
      <trkpt lat="43.59626" lon="3.43176">
        <ele>137.5</ele>
        <time>2016-02-14T14:53:25Z</time>
      </trkpt>
      <trkpt lat="43.59629" lon="3.43178">
        <ele>137.5</ele>
        <time>2016-02-14T14:53:26Z</time>
      </trkpt>
      <trkpt lat="43.59632" lon="3.43181">
        <ele>138</ele>
        <time>2016-02-14T14:53:27Z</time>
      </trkpt>
      <trkpt lat="43.59635" lon="3.43183">
        <ele>138.5</ele>
        <time>2016-02-14T14:53:28Z</time>
      </trkpt>
      <trkpt lat="43.59638" lon="3.43186">
        <ele>139</ele>
        <time>2016-02-14T14:53:29Z</time>
      </trkpt>
      <trkpt lat="43.59641" lon="3.43189">
        <ele>139</ele>
        <time>2016-02-14T14:53:30Z</time>
      </trkpt>
      <trkpt lat="43.59644" lon="3.43191">
        <ele>139</ele>
        <time>2016-02-14T14:53:31Z</time>
      </trkpt>
      <trkpt lat="43.59647" lon="3.43194">
        <ele>139.5</ele>
        <time>2016-02-14T14:53:32Z</time>
      </trkpt>
      <trkpt lat="43.59649" lon="3.43197">
        <ele>139.5</ele>
        <time>2016-02-14T14:53:33Z</time>
      </trkpt>
      <trkpt lat="43.59652" lon="3.43199">
        <ele>140</ele>
        <time>2016-02-14T14:53:34Z</time>
      </trkpt>
      <trkpt lat="43.59655" lon="3.43202">
        <ele>140.5</ele>
        <time>2016-02-14T14:53:35Z</time>
      </trkpt>
      <trkpt lat="43.59657" lon="3.43205">
        <ele>140.5</ele>
        <time>2016-02-14T14:53:36Z</time>
      </trkpt>
      <trkpt lat="43.5966" lon="3.43208">
        <ele>140.5</ele>
        <time>2016-02-14T14:53:37Z</time>
      </trkpt>
      <trkpt lat="43.59662" lon="3.43211">
        <ele>140.5</ele>
        <time>2016-02-14T14:53:38Z</time>
      </trkpt>
      <trkpt lat="43.59665" lon="3.43214">
        <ele>141</ele>
        <time>2016-02-14T14:53:39Z</time>
      </trkpt>
      <trkpt lat="43.59668" lon="3.43218">
        <ele>141</ele>
        <time>2016-02-14T14:53:40Z</time>
      </trkpt>
      <trkpt lat="43.5967" lon="3.43221">
        <ele>141</ele>
        <time>2016-02-14T14:53:41Z</time>
      </trkpt>
      <trkpt lat="43.59673" lon="3.43224">
        <ele>141</ele>
        <time>2016-02-14T14:53:42Z</time>
      </trkpt>
      <trkpt lat="43.59676" lon="3.43228">
        <ele>141</ele>
        <time>2016-02-14T14:53:43Z</time>
      </trkpt>
      <trkpt lat="43.59678" lon="3.43231">
        <ele>141</ele>
        <time>2016-02-14T14:53:44Z</time>
      </trkpt>
      <trkpt lat="43.59681" lon="3.43235">
        <ele>141</ele>
        <time>2016-02-14T14:53:45Z</time>
      </trkpt>
      <trkpt lat="43.59683" lon="3.43238">
        <ele>141</ele>
        <time>2016-02-14T14:53:46Z</time>
      </trkpt>
      <trkpt lat="43.59686" lon="3.43242">
        <ele>141</ele>
        <time>2016-02-14T14:53:47Z</time>
      </trkpt>
      <trkpt lat="43.59688" lon="3.43245">
        <ele>141.5</ele>
        <time>2016-02-14T14:53:48Z</time>
      </trkpt>
      <trkpt lat="43.59691" lon="3.43248">
        <ele>141.5</ele>
        <time>2016-02-14T14:53:49Z</time>
      </trkpt>
      <trkpt lat="43.59693" lon="3.43252">
        <ele>142</ele>
        <time>2016-02-14T14:53:50Z</time>
      </trkpt>
      <trkpt lat="43.59696" lon="3.43256">
        <ele>142</ele>
        <time>2016-02-14T14:53:51Z</time>
      </trkpt>
      <trkpt lat="43.59698" lon="3.43259">
        <ele>142</ele>
        <time>2016-02-14T14:53:52Z</time>
      </trkpt>
      <trkpt lat="43.59701" lon="3.43263">
        <ele>142</ele>
        <time>2016-02-14T14:53:53Z</time>
      </trkpt>
      <trkpt lat="43.59704" lon="3.43266">
        <ele>142</ele>
        <time>2016-02-14T14:53:54Z</time>
      </trkpt>
      <trkpt lat="43.59706" lon="3.43269">
        <ele>142</ele>
        <time>2016-02-14T14:53:55Z</time>
      </trkpt>
      <trkpt lat="43.59709" lon="3.43273">
        <ele>142.5</ele>
        <time>2016-02-14T14:53:56Z</time>
      </trkpt>
      <trkpt lat="43.59711" lon="3.43276">
        <ele>142.5</ele>
        <time>2016-02-14T14:53:57Z</time>
      </trkpt>
      <trkpt lat="43.59714" lon="3.43279">
        <ele>143</ele>
        <time>2016-02-14T14:53:58Z</time>
      </trkpt>
      <trkpt lat="43.59716" lon="3.43283">
        <ele>143</ele>
        <time>2016-02-14T14:53:59Z</time>
      </trkpt>
      <trkpt lat="43.59719" lon="3.43286">
        <ele>143.5</ele>
        <time>2016-02-14T14:54:00Z</time>
      </trkpt>
      <trkpt lat="43.59722" lon="3.4329">
        <ele>143.5</ele>
        <time>2016-02-14T14:54:01Z</time>
      </trkpt>
      <trkpt lat="43.59725" lon="3.43293">
        <ele>143.5</ele>
        <time>2016-02-14T14:54:02Z</time>
      </trkpt>
      <trkpt lat="43.59727" lon="3.43296">
        <ele>144</ele>
        <time>2016-02-14T14:54:03Z</time>
      </trkpt>
      <trkpt lat="43.5973" lon="3.433">
        <ele>144</ele>
        <time>2016-02-14T14:54:04Z</time>
      </trkpt>
      <trkpt lat="43.59733" lon="3.43303">
        <ele>144</ele>
        <time>2016-02-14T14:54:05Z</time>
      </trkpt>
      <trkpt lat="43.59736" lon="3.43307">
        <ele>144.5</ele>
        <time>2016-02-14T14:54:06Z</time>
      </trkpt>
      <trkpt lat="43.59739" lon="3.4331">
        <ele>144.5</ele>
        <time>2016-02-14T14:54:07Z</time>
      </trkpt>
      <trkpt lat="43.59742" lon="3.43314">
        <ele>144.5</ele>
        <time>2016-02-14T14:54:08Z</time>
      </trkpt>
      <trkpt lat="43.59745" lon="3.43317">
        <ele>144.5</ele>
        <time>2016-02-14T14:54:09Z</time>
      </trkpt>
      <trkpt lat="43.59748" lon="3.4332">
        <ele>145</ele>
        <time>2016-02-14T14:54:10Z</time>
      </trkpt>
      <trkpt lat="43.59751" lon="3.43323">
        <ele>145</ele>
        <time>2016-02-14T14:54:11Z</time>
      </trkpt>
      <trkpt lat="43.59754" lon="3.43326">
        <ele>146</ele>
        <time>2016-02-14T14:54:12Z</time>
      </trkpt>
      <trkpt lat="43.59757" lon="3.43329">
        <ele>146.5</ele>
        <time>2016-02-14T14:54:13Z</time>
      </trkpt>
      <trkpt lat="43.59759" lon="3.43331">
        <ele>147</ele>
        <time>2016-02-14T14:54:14Z</time>
      </trkpt>
      <trkpt lat="43.59762" lon="3.43334">
        <ele>147</ele>
        <time>2016-02-14T14:54:15Z</time>
      </trkpt>
      <trkpt lat="43.59765" lon="3.43336">
        <ele>147.5</ele>
        <time>2016-02-14T14:54:16Z</time>
      </trkpt>
      <trkpt lat="43.59768" lon="3.43337">
        <ele>147.5</ele>
        <time>2016-02-14T14:54:17Z</time>
      </trkpt>
      <trkpt lat="43.59771" lon="3.43338">
        <ele>148</ele>
        <time>2016-02-14T14:54:18Z</time>
      </trkpt>
      <trkpt lat="43.59775" lon="3.4334">
        <ele>148</ele>
        <time>2016-02-14T14:54:19Z</time>
      </trkpt>
      <trkpt lat="43.59778" lon="3.43342">
        <ele>148</ele>
        <time>2016-02-14T14:54:20Z</time>
      </trkpt>
      <trkpt lat="43.59782" lon="3.43343">
        <ele>148</ele>
        <time>2016-02-14T14:54:21Z</time>
      </trkpt>
      <trkpt lat="43.59786" lon="3.43343">
        <ele>148.5</ele>
        <time>2016-02-14T14:54:22Z</time>
      </trkpt>
      <trkpt lat="43.59789" lon="3.43345">
        <ele>148.5</ele>
        <time>2016-02-14T14:54:23Z</time>
      </trkpt>
      <trkpt lat="43.59793" lon="3.43346">
        <ele>148.5</ele>
        <time>2016-02-14T14:54:24Z</time>
      </trkpt>
      <trkpt lat="43.59797" lon="3.43348">
        <ele>147.5</ele>
        <time>2016-02-14T14:54:25Z</time>
      </trkpt>
      <trkpt lat="43.598" lon="3.43349">
        <ele>147.5</ele>
        <time>2016-02-14T14:54:26Z</time>
      </trkpt>
      <trkpt lat="43.59803" lon="3.4335">
        <ele>148</ele>
        <time>2016-02-14T14:54:27Z</time>
      </trkpt>
      <trkpt lat="43.59807" lon="3.43351">
        <ele>148</ele>
        <time>2016-02-14T14:54:28Z</time>
      </trkpt>
      <trkpt lat="43.5981" lon="3.43352">
        <ele>148.5</ele>
        <time>2016-02-14T14:54:29Z</time>
      </trkpt>
      <trkpt lat="43.59814" lon="3.43353">
        <ele>148.5</ele>
        <time>2016-02-14T14:54:30Z</time>
      </trkpt>
      <trkpt lat="43.59817" lon="3.43354">
        <ele>149</ele>
        <time>2016-02-14T14:54:31Z</time>
      </trkpt>
      <trkpt lat="43.5982" lon="3.43355">
        <ele>149</ele>
        <time>2016-02-14T14:54:32Z</time>
      </trkpt>
      <trkpt lat="43.59823" lon="3.43356">
        <ele>149</ele>
        <time>2016-02-14T14:54:33Z</time>
      </trkpt>
      <trkpt lat="43.59826" lon="3.43357">
        <ele>149</ele>
        <time>2016-02-14T14:54:34Z</time>
      </trkpt>
      <trkpt lat="43.59829" lon="3.43358">
        <ele>149</ele>
        <time>2016-02-14T14:54:35Z</time>
      </trkpt>
      <trkpt lat="43.59833" lon="3.43358">
        <ele>149.5</ele>
        <time>2016-02-14T14:54:36Z</time>
      </trkpt>
      <trkpt lat="43.59836" lon="3.43359">
        <ele>149.5</ele>
        <time>2016-02-14T14:54:37Z</time>
      </trkpt>
      <trkpt lat="43.59839" lon="3.43361">
        <ele>149.5</ele>
        <time>2016-02-14T14:54:38Z</time>
      </trkpt>
      <trkpt lat="43.59841" lon="3.43363">
        <ele>149</ele>
        <time>2016-02-14T14:54:39Z</time>
      </trkpt>
      <trkpt lat="43.59845" lon="3.43363">
        <ele>150</ele>
        <time>2016-02-14T14:54:40Z</time>
      </trkpt>
      <trkpt lat="43.59848" lon="3.43365">
        <ele>150.5</ele>
        <time>2016-02-14T14:54:41Z</time>
      </trkpt>
      <trkpt lat="43.59851" lon="3.43366">
        <ele>150.5</ele>
        <time>2016-02-14T14:54:42Z</time>
      </trkpt>
      <trkpt lat="43.59855" lon="3.43368">
        <ele>149.5</ele>
        <time>2016-02-14T14:54:43Z</time>
      </trkpt>
      <trkpt lat="43.59858" lon="3.43369">
        <ele>150</ele>
        <time>2016-02-14T14:54:44Z</time>
      </trkpt>
      <trkpt lat="43.59862" lon="3.43371">
        <ele>150</ele>
        <time>2016-02-14T14:54:45Z</time>
      </trkpt>
      <trkpt lat="43.59865" lon="3.43372">
        <ele>150.5</ele>
        <time>2016-02-14T14:54:46Z</time>
      </trkpt>
      <trkpt lat="43.59868" lon="3.43373">
        <ele>151</ele>
        <time>2016-02-14T14:54:47Z</time>
      </trkpt>
      <trkpt lat="43.59871" lon="3.43375">
        <ele>151</ele>
        <time>2016-02-14T14:54:48Z</time>
      </trkpt>
      <trkpt lat="43.59873" lon="3.43376">
        <ele>151</ele>
        <time>2016-02-14T14:54:49Z</time>
      </trkpt>
      <trkpt lat="43.59876" lon="3.43378">
        <ele>151</ele>
        <time>2016-02-14T14:54:50Z</time>
      </trkpt>
      <trkpt lat="43.59879" lon="3.43379">
        <ele>151</ele>
        <time>2016-02-14T14:54:51Z</time>
      </trkpt>
      <trkpt lat="43.59882" lon="3.4338">
        <ele>151</ele>
        <time>2016-02-14T14:54:52Z</time>
      </trkpt>
      <trkpt lat="43.59885" lon="3.43382">
        <ele>151</ele>
        <time>2016-02-14T14:54:53Z</time>
      </trkpt>
      <trkpt lat="43.59888" lon="3.43383">
        <ele>151.5</ele>
        <time>2016-02-14T14:54:54Z</time>
      </trkpt>
      <trkpt lat="43.59891" lon="3.43384">
        <ele>151.5</ele>
        <time>2016-02-14T14:54:55Z</time>
      </trkpt>
      <trkpt lat="43.59894" lon="3.43385">
        <ele>151.5</ele>
        <time>2016-02-14T14:54:56Z</time>
      </trkpt>
      <trkpt lat="43.59897" lon="3.43386">
        <ele>151.5</ele>
        <time>2016-02-14T14:54:57Z</time>
      </trkpt>
      <trkpt lat="43.599" lon="3.43388">
        <ele>151</ele>
        <time>2016-02-14T14:54:58Z</time>
      </trkpt>
      <trkpt lat="43.59903" lon="3.43389">
        <ele>151.5</ele>
        <time>2016-02-14T14:54:59Z</time>
      </trkpt>
      <trkpt lat="43.59906" lon="3.4339">
        <ele>151.5</ele>
        <time>2016-02-14T14:55:00Z</time>
      </trkpt>
      <trkpt lat="43.59909" lon="3.43391">
        <ele>151.5</ele>
        <time>2016-02-14T14:55:01Z</time>
      </trkpt>
      <trkpt lat="43.59912" lon="3.43391">
        <ele>152</ele>
        <time>2016-02-14T14:55:02Z</time>
      </trkpt>
      <trkpt lat="43.59915" lon="3.43392">
        <ele>152</ele>
        <time>2016-02-14T14:55:03Z</time>
      </trkpt>
      <trkpt lat="43.59918" lon="3.43393">
        <ele>152.5</ele>
        <time>2016-02-14T14:55:04Z</time>
      </trkpt>
      <trkpt lat="43.59921" lon="3.43393">
        <ele>152.5</ele>
        <time>2016-02-14T14:55:05Z</time>
      </trkpt>
      <trkpt lat="43.59924" lon="3.43394">
        <ele>153</ele>
        <time>2016-02-14T14:55:06Z</time>
      </trkpt>
      <trkpt lat="43.59927" lon="3.43394">
        <ele>153</ele>
        <time>2016-02-14T14:55:07Z</time>
      </trkpt>
      <trkpt lat="43.5993" lon="3.43394">
        <ele>153</ele>
        <time>2016-02-14T14:55:08Z</time>
      </trkpt>
      <trkpt lat="43.59933" lon="3.43394">
        <ele>153.5</ele>
        <time>2016-02-14T14:55:09Z</time>
      </trkpt>
      <trkpt lat="43.59936" lon="3.43394">
        <ele>153.5</ele>
        <time>2016-02-14T14:55:10Z</time>
      </trkpt>
      <trkpt lat="43.59939" lon="3.43394">
        <ele>154</ele>
        <time>2016-02-14T14:55:11Z</time>
      </trkpt>
      <trkpt lat="43.59942" lon="3.43394">
        <ele>154.5</ele>
        <time>2016-02-14T14:55:12Z</time>
      </trkpt>
      <trkpt lat="43.59945" lon="3.43393">
        <ele>155</ele>
        <time>2016-02-14T14:55:13Z</time>
      </trkpt>
      <trkpt lat="43.59949" lon="3.43392">
        <ele>155.5</ele>
        <time>2016-02-14T14:55:14Z</time>
      </trkpt>
      <trkpt lat="43.59952" lon="3.43391">
        <ele>155.5</ele>
        <time>2016-02-14T14:55:15Z</time>
      </trkpt>
      <trkpt lat="43.59955" lon="3.4339">
        <ele>155.5</ele>
        <time>2016-02-14T14:55:16Z</time>
      </trkpt>
      <trkpt lat="43.59958" lon="3.43389">
        <ele>155.5</ele>
        <time>2016-02-14T14:55:17Z</time>
      </trkpt>
      <trkpt lat="43.59961" lon="3.43388">
        <ele>155.5</ele>
        <time>2016-02-14T14:55:18Z</time>
      </trkpt>
      <trkpt lat="43.59964" lon="3.43387">
        <ele>155.5</ele>
        <time>2016-02-14T14:55:19Z</time>
      </trkpt>
      <trkpt lat="43.59967" lon="3.43386">
        <ele>155.5</ele>
        <time>2016-02-14T14:55:20Z</time>
      </trkpt>
      <trkpt lat="43.5997" lon="3.43385">
        <ele>155.5</ele>
        <time>2016-02-14T14:55:21Z</time>
      </trkpt>
      <trkpt lat="43.59973" lon="3.43384">
        <ele>155.5</ele>
        <time>2016-02-14T14:55:22Z</time>
      </trkpt>
      <trkpt lat="43.59976" lon="3.43383">
        <ele>155.5</ele>
        <time>2016-02-14T14:55:23Z</time>
      </trkpt>
      <trkpt lat="43.59979" lon="3.43383">
        <ele>156</ele>
        <time>2016-02-14T14:55:24Z</time>
      </trkpt>
      <trkpt lat="43.59982" lon="3.43382">
        <ele>156</ele>
        <time>2016-02-14T14:55:25Z</time>
      </trkpt>
      <trkpt lat="43.59985" lon="3.43382">
        <ele>156</ele>
        <time>2016-02-14T14:55:26Z</time>
      </trkpt>
      <trkpt lat="43.59988" lon="3.43382">
        <ele>156.5</ele>
        <time>2016-02-14T14:55:27Z</time>
      </trkpt>
      <trkpt lat="43.59992" lon="3.43382">
        <ele>156</ele>
        <time>2016-02-14T14:55:28Z</time>
      </trkpt>
      <trkpt lat="43.59994" lon="3.43382">
        <ele>156</ele>
        <time>2016-02-14T14:55:29Z</time>
      </trkpt>
      <trkpt lat="43.59997" lon="3.43382">
        <ele>156</ele>
        <time>2016-02-14T14:55:30Z</time>
      </trkpt>
      <trkpt lat="43.6" lon="3.43382">
        <ele>155.5</ele>
        <time>2016-02-14T14:55:31Z</time>
      </trkpt>
      <trkpt lat="43.60003" lon="3.43382">
        <ele>156</ele>
        <time>2016-02-14T14:55:32Z</time>
      </trkpt>
      <trkpt lat="43.60006" lon="3.43382">
        <ele>156</ele>
        <time>2016-02-14T14:55:33Z</time>
      </trkpt>
      <trkpt lat="43.60009" lon="3.43382">
        <ele>156.5</ele>
        <time>2016-02-14T14:55:34Z</time>
      </trkpt>
      <trkpt lat="43.60013" lon="3.43382">
        <ele>156.5</ele>
        <time>2016-02-14T14:55:35Z</time>
      </trkpt>
      <trkpt lat="43.60016" lon="3.43381">
        <ele>157</ele>
        <time>2016-02-14T14:55:36Z</time>
      </trkpt>
      <trkpt lat="43.60019" lon="3.4338">
        <ele>157</ele>
        <time>2016-02-14T14:55:37Z</time>
      </trkpt>
      <trkpt lat="43.60022" lon="3.4338">
        <ele>157.5</ele>
        <time>2016-02-14T14:55:38Z</time>
      </trkpt>
      <trkpt lat="43.60025" lon="3.43379">
        <ele>157.5</ele>
        <time>2016-02-14T14:55:39Z</time>
      </trkpt>
      <trkpt lat="43.60028" lon="3.43378">
        <ele>157.5</ele>
        <time>2016-02-14T14:55:40Z</time>
      </trkpt>
      <trkpt lat="43.60031" lon="3.43377">
        <ele>157.5</ele>
        <time>2016-02-14T14:55:41Z</time>
      </trkpt>
      <trkpt lat="43.60034" lon="3.43375">
        <ele>157.5</ele>
        <time>2016-02-14T14:55:42Z</time>
      </trkpt>
      <trkpt lat="43.60037" lon="3.43374">
        <ele>157.5</ele>
        <time>2016-02-14T14:55:43Z</time>
      </trkpt>
      <trkpt lat="43.6004" lon="3.43372">
        <ele>157.5</ele>
        <time>2016-02-14T14:55:44Z</time>
      </trkpt>
      <trkpt lat="43.60044" lon="3.43371">
        <ele>157</ele>
        <time>2016-02-14T14:55:45Z</time>
      </trkpt>
      <trkpt lat="43.60047" lon="3.43369">
        <ele>157</ele>
        <time>2016-02-14T14:55:46Z</time>
      </trkpt>
      <trkpt lat="43.6005" lon="3.43367">
        <ele>157</ele>
        <time>2016-02-14T14:55:47Z</time>
      </trkpt>
      <trkpt lat="43.60053" lon="3.43367">
        <ele>157</ele>
        <time>2016-02-14T14:55:48Z</time>
      </trkpt>
      <trkpt lat="43.60057" lon="3.43365">
        <ele>156</ele>
        <time>2016-02-14T14:55:49Z</time>
      </trkpt>
      <trkpt lat="43.6006" lon="3.43364">
        <ele>156</ele>
        <time>2016-02-14T14:55:50Z</time>
      </trkpt>
      <trkpt lat="43.60063" lon="3.43362">
        <ele>156</ele>
        <time>2016-02-14T14:55:51Z</time>
      </trkpt>
      <trkpt lat="43.60067" lon="3.4336">
        <ele>156</ele>
        <time>2016-02-14T14:55:51Z</time>
      </trkpt>
      <trkpt lat="43.6007" lon="3.43359">
        <ele>156</ele>
        <time>2016-02-14T14:55:52Z</time>
      </trkpt>
      <trkpt lat="43.60074" lon="3.43357">
        <ele>156</ele>
        <time>2016-02-14T14:55:53Z</time>
      </trkpt>
      <trkpt lat="43.60077" lon="3.43356">
        <ele>156</ele>
        <time>2016-02-14T14:55:55Z</time>
      </trkpt>
      <trkpt lat="43.60081" lon="3.43355">
        <ele>156</ele>
        <time>2016-02-14T14:55:55Z</time>
      </trkpt>
      <trkpt lat="43.60084" lon="3.43354">
        <ele>156</ele>
        <time>2016-02-14T14:55:56Z</time>
      </trkpt>
      <trkpt lat="43.60088" lon="3.43353">
        <ele>156.5</ele>
        <time>2016-02-14T14:55:57Z</time>
      </trkpt>
      <trkpt lat="43.60092" lon="3.43351">
        <ele>157.5</ele>
        <time>2016-02-14T14:55:58Z</time>
      </trkpt>
      <trkpt lat="43.60096" lon="3.4335">
        <ele>156.5</ele>
        <time>2016-02-14T14:55:59Z</time>
      </trkpt>
      <trkpt lat="43.601" lon="3.4335">
        <ele>157</ele>
        <time>2016-02-14T14:56:00Z</time>
      </trkpt>
      <trkpt lat="43.60104" lon="3.43349">
        <ele>157.5</ele>
        <time>2016-02-14T14:56:02Z</time>
      </trkpt>
      <trkpt lat="43.60108" lon="3.43349">
        <ele>159.5</ele>
        <time>2016-02-14T14:56:02Z</time>
      </trkpt>
      <trkpt lat="43.60112" lon="3.4335">
        <ele>159.5</ele>
        <time>2016-02-14T14:56:03Z</time>
      </trkpt>
      <trkpt lat="43.60116" lon="3.4335">
        <ele>159.5</ele>
        <time>2016-02-14T14:56:04Z</time>
      </trkpt>
      <trkpt lat="43.60121" lon="3.43351">
        <ele>158</ele>
        <time>2016-02-14T14:56:05Z</time>
      </trkpt>
      <trkpt lat="43.60125" lon="3.43351">
        <ele>157</ele>
        <time>2016-02-14T14:56:06Z</time>
      </trkpt>
      <trkpt lat="43.60129" lon="3.43352">
        <ele>157</ele>
        <time>2016-02-14T14:56:07Z</time>
      </trkpt>
      <trkpt lat="43.60133" lon="3.43352">
        <ele>156.5</ele>
        <time>2016-02-14T14:56:08Z</time>
      </trkpt>
      <trkpt lat="43.60138" lon="3.43353">
        <ele>155.5</ele>
        <time>2016-02-14T14:56:09Z</time>
      </trkpt>
      <trkpt lat="43.60142" lon="3.43353">
        <ele>155.5</ele>
        <time>2016-02-14T14:56:10Z</time>
      </trkpt>
      <trkpt lat="43.60146" lon="3.43353">
        <ele>156</ele>
        <time>2016-02-14T14:56:11Z</time>
      </trkpt>
      <trkpt lat="43.6015" lon="3.43353">
        <ele>155.5</ele>
        <time>2016-02-14T14:56:12Z</time>
      </trkpt>
      <trkpt lat="43.60154" lon="3.43353">
        <ele>155.5</ele>
        <time>2016-02-14T14:56:13Z</time>
      </trkpt>
      <trkpt lat="43.60159" lon="3.43353">
        <ele>156</ele>
        <time>2016-02-14T14:56:14Z</time>
      </trkpt>
      <trkpt lat="43.60163" lon="3.43353">
        <ele>156.5</ele>
        <time>2016-02-14T14:56:15Z</time>
      </trkpt>
      <trkpt lat="43.60167" lon="3.43353">
        <ele>157</ele>
        <time>2016-02-14T14:56:16Z</time>
      </trkpt>
      <trkpt lat="43.60172" lon="3.43353">
        <ele>157</ele>
        <time>2016-02-14T14:56:17Z</time>
      </trkpt>
      <trkpt lat="43.60176" lon="3.43353">
        <ele>157.5</ele>
        <time>2016-02-14T14:56:18Z</time>
      </trkpt>
      <trkpt lat="43.6018" lon="3.43353">
        <ele>157.5</ele>
        <time>2016-02-14T14:56:19Z</time>
      </trkpt>
      <trkpt lat="43.60185" lon="3.43353">
        <ele>158</ele>
        <time>2016-02-14T14:56:20Z</time>
      </trkpt>
      <trkpt lat="43.6019" lon="3.43353">
        <ele>158</ele>
        <time>2016-02-14T14:56:21Z</time>
      </trkpt>
      <trkpt lat="43.60194" lon="3.43354">
        <ele>159</ele>
        <time>2016-02-14T14:56:22Z</time>
      </trkpt>
      <trkpt lat="43.60198" lon="3.43354">
        <ele>160.5</ele>
        <time>2016-02-14T14:56:23Z</time>
      </trkpt>
      <trkpt lat="43.60202" lon="3.43354">
        <ele>163</ele>
        <time>2016-02-14T14:56:24Z</time>
      </trkpt>
      <trkpt lat="43.60206" lon="3.43354">
        <ele>163</ele>
        <time>2016-02-14T14:56:25Z</time>
      </trkpt>
      <trkpt lat="43.6021" lon="3.43355">
        <ele>165</ele>
        <time>2016-02-14T14:56:26Z</time>
      </trkpt>
      <trkpt lat="43.60214" lon="3.43356">
        <ele>164.5</ele>
        <time>2016-02-14T14:56:27Z</time>
      </trkpt>
      <trkpt lat="43.60217" lon="3.43356">
        <ele>166.5</ele>
        <time>2016-02-14T14:56:28Z</time>
      </trkpt>
      <trkpt lat="43.60221" lon="3.43357">
        <ele>168.5</ele>
        <time>2016-02-14T14:56:29Z</time>
      </trkpt>
      <trkpt lat="43.60225" lon="3.43357">
        <ele>169</ele>
        <time>2016-02-14T14:56:30Z</time>
      </trkpt>
      <trkpt lat="43.60229" lon="3.43358">
        <ele>169.5</ele>
        <time>2016-02-14T14:56:31Z</time>
      </trkpt>
      <trkpt lat="43.60234" lon="3.4336">
        <ele>170</ele>
        <time>2016-02-14T14:56:32Z</time>
      </trkpt>
      <trkpt lat="43.60238" lon="3.43362">
        <ele>170</ele>
        <time>2016-02-14T14:56:33Z</time>
      </trkpt>
      <trkpt lat="43.60242" lon="3.43362">
        <ele>171</ele>
        <time>2016-02-14T14:56:34Z</time>
      </trkpt>
      <trkpt lat="43.60247" lon="3.43363">
        <ele>171.5</ele>
        <time>2016-02-14T14:56:35Z</time>
      </trkpt>
      <trkpt lat="43.60251" lon="3.43365">
        <ele>170.5</ele>
        <time>2016-02-14T14:56:36Z</time>
      </trkpt>
      <trkpt lat="43.60256" lon="3.43367">
        <ele>170.5</ele>
        <time>2016-02-14T14:56:37Z</time>
      </trkpt>
      <trkpt lat="43.6026" lon="3.43368">
        <ele>170.5</ele>
        <time>2016-02-14T14:56:38Z</time>
      </trkpt>
      <trkpt lat="43.60265" lon="3.43371">
        <ele>170</ele>
        <time>2016-02-14T14:56:39Z</time>
      </trkpt>
      <trkpt lat="43.6027" lon="3.43371">
        <ele>169</ele>
        <time>2016-02-14T14:56:40Z</time>
      </trkpt>
      <trkpt lat="43.60275" lon="3.43373">
        <ele>168.5</ele>
        <time>2016-02-14T14:56:41Z</time>
      </trkpt>
      <trkpt lat="43.6028" lon="3.43374">
        <ele>168.5</ele>
        <time>2016-02-14T14:56:42Z</time>
      </trkpt>
      <trkpt lat="43.60285" lon="3.43375">
        <ele>170</ele>
        <time>2016-02-14T14:56:43Z</time>
      </trkpt>
      <trkpt lat="43.6029" lon="3.43375">
        <ele>170</ele>
        <time>2016-02-14T14:56:45Z</time>
      </trkpt>
      <trkpt lat="43.60294" lon="3.43375">
        <ele>171</ele>
        <time>2016-02-14T14:56:45Z</time>
      </trkpt>
      <trkpt lat="43.60299" lon="3.43375">
        <ele>171</ele>
        <time>2016-02-14T14:56:46Z</time>
      </trkpt>
      <trkpt lat="43.60304" lon="3.43373">
        <ele>169.5</ele>
        <time>2016-02-14T14:56:47Z</time>
      </trkpt>
      <trkpt lat="43.60308" lon="3.43372">
        <ele>170.5</ele>
        <time>2016-02-14T14:56:48Z</time>
      </trkpt>
      <trkpt lat="43.60312" lon="3.4337">
        <ele>170.5</ele>
        <time>2016-02-14T14:56:49Z</time>
      </trkpt>
      <trkpt lat="43.60316" lon="3.43368">
        <ele>169</ele>
        <time>2016-02-14T14:56:50Z</time>
      </trkpt>
      <trkpt lat="43.6032" lon="3.43367">
        <ele>168</ele>
        <time>2016-02-14T14:56:51Z</time>
      </trkpt>
      <trkpt lat="43.60324" lon="3.43366">
        <ele>167.5</ele>
        <time>2016-02-14T14:56:52Z</time>
      </trkpt>
      <trkpt lat="43.60328" lon="3.43365">
        <ele>167.5</ele>
        <time>2016-02-14T14:56:53Z</time>
      </trkpt>
      <trkpt lat="43.60332" lon="3.43364">
        <ele>167</ele>
        <time>2016-02-14T14:56:54Z</time>
      </trkpt>
      <trkpt lat="43.60336" lon="3.43363">
        <ele>167.5</ele>
        <time>2016-02-14T14:56:55Z</time>
      </trkpt>
      <trkpt lat="43.60339" lon="3.43362">
        <ele>168</ele>
        <time>2016-02-14T14:56:57Z</time>
      </trkpt>
      <trkpt lat="43.60343" lon="3.43361">
        <ele>168.5</ele>
        <time>2016-02-14T14:56:57Z</time>
      </trkpt>
      <trkpt lat="43.60346" lon="3.4336">
        <ele>168.5</ele>
        <time>2016-02-14T14:56:58Z</time>
      </trkpt>
      <trkpt lat="43.6035" lon="3.4336">
        <ele>169</ele>
        <time>2016-02-14T14:56:59Z</time>
      </trkpt>
      <trkpt lat="43.60353" lon="3.43358">
        <ele>169.5</ele>
        <time>2016-02-14T14:57:00Z</time>
      </trkpt>
      <trkpt lat="43.60356" lon="3.43357">
        <ele>170.5</ele>
        <time>2016-02-14T14:57:01Z</time>
      </trkpt>
      <trkpt lat="43.60359" lon="3.43356">
        <ele>171</ele>
        <time>2016-02-14T14:57:02Z</time>
      </trkpt>
      <trkpt lat="43.60362" lon="3.43355">
        <ele>171.5</ele>
        <time>2016-02-14T14:57:03Z</time>
      </trkpt>
      <trkpt lat="43.60364" lon="3.43353">
        <ele>172.5</ele>
        <time>2016-02-14T14:57:04Z</time>
      </trkpt>
      <trkpt lat="43.60367" lon="3.43352">
        <ele>174</ele>
        <time>2016-02-14T14:57:05Z</time>
      </trkpt>
      <trkpt lat="43.60369" lon="3.43351">
        <ele>174</ele>
        <time>2016-02-14T14:57:06Z</time>
      </trkpt>
      <trkpt lat="43.60372" lon="3.4335">
        <ele>174</ele>
        <time>2016-02-14T14:57:07Z</time>
      </trkpt>
      <trkpt lat="43.60375" lon="3.43349">
        <ele>174.5</ele>
        <time>2016-02-14T14:57:08Z</time>
      </trkpt>
      <trkpt lat="43.60377" lon="3.43349">
        <ele>176</ele>
        <time>2016-02-14T14:57:09Z</time>
      </trkpt>
      <trkpt lat="43.6038" lon="3.43348">
        <ele>176.5</ele>
        <time>2016-02-14T14:57:10Z</time>
      </trkpt>
      <trkpt lat="43.60383" lon="3.43347">
        <ele>177</ele>
        <time>2016-02-14T14:57:11Z</time>
      </trkpt>
      <trkpt lat="43.60386" lon="3.43346">
        <ele>177.5</ele>
        <time>2016-02-14T14:57:12Z</time>
      </trkpt>
      <trkpt lat="43.60389" lon="3.43346">
        <ele>177</ele>
        <time>2016-02-14T14:57:13Z</time>
      </trkpt>
      <trkpt lat="43.60392" lon="3.43346">
        <ele>177</ele>
        <time>2016-02-14T14:57:14Z</time>
      </trkpt>
      <trkpt lat="43.60394" lon="3.43345">
        <ele>176.5</ele>
        <time>2016-02-14T14:57:15Z</time>
      </trkpt>
      <trkpt lat="43.60397" lon="3.43345">
        <ele>176.5</ele>
        <time>2016-02-14T14:57:16Z</time>
      </trkpt>
      <trkpt lat="43.604" lon="3.43344">
        <ele>176.5</ele>
        <time>2016-02-14T14:57:17Z</time>
      </trkpt>
      <trkpt lat="43.60403" lon="3.43344">
        <ele>176.5</ele>
        <time>2016-02-14T14:57:18Z</time>
      </trkpt>
      <trkpt lat="43.60406" lon="3.43344">
        <ele>177</ele>
        <time>2016-02-14T14:57:19Z</time>
      </trkpt>
      <trkpt lat="43.60409" lon="3.43345">
        <ele>176.5</ele>
        <time>2016-02-14T14:57:20Z</time>
      </trkpt>
      <trkpt lat="43.60412" lon="3.43345">
        <ele>177</ele>
        <time>2016-02-14T14:57:21Z</time>
      </trkpt>
      <trkpt lat="43.60414" lon="3.43344">
        <ele>177</ele>
        <time>2016-02-14T14:57:22Z</time>
      </trkpt>
      <trkpt lat="43.60418" lon="3.43344">
        <ele>177</ele>
        <time>2016-02-14T14:57:23Z</time>
      </trkpt>
      <trkpt lat="43.60421" lon="3.43343">
        <ele>176.5</ele>
        <time>2016-02-14T14:57:24Z</time>
      </trkpt>
      <trkpt lat="43.60425" lon="3.43343">
        <ele>176.5</ele>
        <time>2016-02-14T14:57:25Z</time>
      </trkpt>
      <trkpt lat="43.60429" lon="3.43342">
        <ele>176</ele>
        <time>2016-02-14T14:57:26Z</time>
      </trkpt>
      <trkpt lat="43.60434" lon="3.43342">
        <ele>174.5</ele>
        <time>2016-02-14T14:57:27Z</time>
      </trkpt>
      <trkpt lat="43.60439" lon="3.43342">
        <ele>173</ele>
        <time>2016-02-14T14:57:28Z</time>
      </trkpt>
      <trkpt lat="43.60443" lon="3.43342">
        <ele>173</ele>
        <time>2016-02-14T14:57:29Z</time>
      </trkpt>
      <trkpt lat="43.60448" lon="3.43341">
        <ele>173.5</ele>
        <time>2016-02-14T14:57:30Z</time>
      </trkpt>
      <trkpt lat="43.60453" lon="3.43341">
        <ele>173</ele>
        <time>2016-02-14T14:57:31Z</time>
      </trkpt>
      <trkpt lat="43.60457" lon="3.43339">
        <ele>171.5</ele>
        <time>2016-02-14T14:57:32Z</time>
      </trkpt>
      <trkpt lat="43.60461" lon="3.43338">
        <ele>171</ele>
        <time>2016-02-14T14:57:33Z</time>
      </trkpt>
      <trkpt lat="43.60466" lon="3.43338">
        <ele>171</ele>
        <time>2016-02-14T14:57:34Z</time>
      </trkpt>
      <trkpt lat="43.6047" lon="3.43338">
        <ele>171</ele>
        <time>2016-02-14T14:57:35Z</time>
      </trkpt>
      <trkpt lat="43.60473" lon="3.43338">
        <ele>171</ele>
        <time>2016-02-14T14:57:36Z</time>
      </trkpt>
      <trkpt lat="43.60476" lon="3.43338">
        <ele>171.5</ele>
        <time>2016-02-14T14:57:37Z</time>
      </trkpt>
      <trkpt lat="43.6048" lon="3.43338">
        <ele>173</ele>
        <time>2016-02-14T14:57:38Z</time>
      </trkpt>
      <trkpt lat="43.60484" lon="3.43338">
        <ele>173</ele>
        <time>2016-02-14T14:57:39Z</time>
      </trkpt>
      <trkpt lat="43.60488" lon="3.43338">
        <ele>173.5</ele>
        <time>2016-02-14T14:57:40Z</time>
      </trkpt>
      <trkpt lat="43.60492" lon="3.43338">
        <ele>173.5</ele>
        <time>2016-02-14T14:57:41Z</time>
      </trkpt>
      <trkpt lat="43.60496" lon="3.43337">
        <ele>173</ele>
        <time>2016-02-14T14:57:42Z</time>
      </trkpt>
      <trkpt lat="43.60501" lon="3.43337">
        <ele>172.5</ele>
        <time>2016-02-14T14:57:43Z</time>
      </trkpt>
      <trkpt lat="43.60505" lon="3.43337">
        <ele>172.5</ele>
        <time>2016-02-14T14:57:44Z</time>
      </trkpt>
      <trkpt lat="43.60511" lon="3.43337">
        <ele>170.5</ele>
        <time>2016-02-14T14:57:45Z</time>
      </trkpt>
      <trkpt lat="43.60516" lon="3.43336">
        <ele>170.5</ele>
        <time>2016-02-14T14:57:46Z</time>
      </trkpt>
      <trkpt lat="43.6052" lon="3.43336">
        <ele>171</ele>
        <time>2016-02-14T14:57:47Z</time>
      </trkpt>
      <trkpt lat="43.60525" lon="3.43336">
        <ele>171</ele>
        <time>2016-02-14T14:57:48Z</time>
      </trkpt>
      <trkpt lat="43.6053" lon="3.43336">
        <ele>171</ele>
        <time>2016-02-14T14:57:49Z</time>
      </trkpt>
      <trkpt lat="43.60534" lon="3.43335">
        <ele>171</ele>
        <time>2016-02-14T14:57:50Z</time>
      </trkpt>
      <trkpt lat="43.60538" lon="3.43335">
        <ele>171</ele>
        <time>2016-02-14T14:57:51Z</time>
      </trkpt>
      <trkpt lat="43.60543" lon="3.43335">
        <ele>171</ele>
        <time>2016-02-14T14:57:52Z</time>
      </trkpt>
      <trkpt lat="43.60547" lon="3.43334">
        <ele>171</ele>
        <time>2016-02-14T14:57:53Z</time>
      </trkpt>
      <trkpt lat="43.6055" lon="3.43334">
        <ele>171</ele>
        <time>2016-02-14T14:57:54Z</time>
      </trkpt>
      <trkpt lat="43.60554" lon="3.43333">
        <ele>171.5</ele>
        <time>2016-02-14T14:57:55Z</time>
      </trkpt>
      <trkpt lat="43.60558" lon="3.43333">
        <ele>171.5</ele>
        <time>2016-02-14T14:57:56Z</time>
      </trkpt>
      <trkpt lat="43.60562" lon="3.43332">
        <ele>172</ele>
        <time>2016-02-14T14:57:57Z</time>
      </trkpt>
      <trkpt lat="43.60566" lon="3.43332">
        <ele>172</ele>
        <time>2016-02-14T14:57:58Z</time>
      </trkpt>
      <trkpt lat="43.6057" lon="3.43332">
        <ele>172</ele>
        <time>2016-02-14T14:57:59Z</time>
      </trkpt>
      <trkpt lat="43.60573" lon="3.43332">
        <ele>172</ele>
        <time>2016-02-14T14:58:00Z</time>
      </trkpt>
      <trkpt lat="43.60577" lon="3.43332">
        <ele>172.5</ele>
        <time>2016-02-14T14:58:01Z</time>
      </trkpt>
      <trkpt lat="43.6058" lon="3.4333">
        <ele>173.5</ele>
        <time>2016-02-14T14:58:02Z</time>
      </trkpt>
      <trkpt lat="43.60583" lon="3.43331">
        <ele>173.5</ele>
        <time>2016-02-14T14:58:03Z</time>
      </trkpt>
      <trkpt lat="43.60586" lon="3.43331">
        <ele>174.5</ele>
        <time>2016-02-14T14:58:04Z</time>
      </trkpt>
      <trkpt lat="43.60589" lon="3.43331">
        <ele>175</ele>
        <time>2016-02-14T14:58:05Z</time>
      </trkpt>
      <trkpt lat="43.60593" lon="3.4333">
        <ele>175</ele>
        <time>2016-02-14T14:58:06Z</time>
      </trkpt>
      <trkpt lat="43.60596" lon="3.43328">
        <ele>175</ele>
        <time>2016-02-14T14:58:07Z</time>
      </trkpt>
      <trkpt lat="43.60598" lon="3.43327">
        <ele>175</ele>
        <time>2016-02-14T14:58:08Z</time>
      </trkpt>
      <trkpt lat="43.60601" lon="3.43326">
        <ele>175</ele>
        <time>2016-02-14T14:58:09Z</time>
      </trkpt>
      <trkpt lat="43.60602" lon="3.43327">
        <ele>175</ele>
        <time>2016-02-14T14:58:10Z</time>
      </trkpt>
      <trkpt lat="43.60603" lon="3.43328">
        <ele>176</ele>
        <time>2016-02-14T14:58:11Z</time>
      </trkpt>
      <trkpt lat="43.60601" lon="3.4333">
        <ele>175.5</ele>
        <time>2016-02-14T14:58:12Z</time>
      </trkpt>
      <trkpt lat="43.60601" lon="3.43333">
        <ele>175.5</ele>
        <time>2016-02-14T14:58:13Z</time>
      </trkpt>
      <trkpt lat="43.60601" lon="3.43336">
        <ele>175.5</ele>
        <time>2016-02-14T14:58:14Z</time>
      </trkpt>
      <trkpt lat="43.60601" lon="3.43341">
        <ele>175.5</ele>
        <time>2016-02-14T14:58:15Z</time>
      </trkpt>
      <trkpt lat="43.60601" lon="3.43345">
        <ele>176</ele>
        <time>2016-02-14T14:58:16Z</time>
      </trkpt>
      <trkpt lat="43.60601" lon="3.4335">
        <ele>176.5</ele>
        <time>2016-02-14T14:58:17Z</time>
      </trkpt>
      <trkpt lat="43.60601" lon="3.43355">
        <ele>177.5</ele>
        <time>2016-02-14T14:58:18Z</time>
      </trkpt>
      <trkpt lat="43.606" lon="3.4336">
        <ele>178</ele>
        <time>2016-02-14T14:58:19Z</time>
      </trkpt>
      <trkpt lat="43.60599" lon="3.43363">
        <ele>178</ele>
        <time>2016-02-14T14:58:20Z</time>
      </trkpt>
      <trkpt lat="43.60599" lon="3.43367">
        <ele>178</ele>
        <time>2016-02-14T14:58:21Z</time>
      </trkpt>
      <trkpt lat="43.60599" lon="3.4337">
        <ele>178.5</ele>
        <time>2016-02-14T14:58:22Z</time>
      </trkpt>
      <trkpt lat="43.60598" lon="3.43375">
        <ele>178.5</ele>
        <time>2016-02-14T14:58:23Z</time>
      </trkpt>
      <trkpt lat="43.60598" lon="3.43379">
        <ele>180.5</ele>
        <time>2016-02-14T14:58:24Z</time>
      </trkpt>
      <trkpt lat="43.60597" lon="3.43384">
        <ele>180</ele>
        <time>2016-02-14T14:58:25Z</time>
      </trkpt>
      <trkpt lat="43.60597" lon="3.43389">
        <ele>179.5</ele>
        <time>2016-02-14T14:58:26Z</time>
      </trkpt>
      <trkpt lat="43.60596" lon="3.43395">
        <ele>179.5</ele>
        <time>2016-02-14T14:58:27Z</time>
      </trkpt>
      <trkpt lat="43.60596" lon="3.43401">
        <ele>178.5</ele>
        <time>2016-02-14T14:58:28Z</time>
      </trkpt>
      <trkpt lat="43.60596" lon="3.43407">
        <ele>178.5</ele>
        <time>2016-02-14T14:58:29Z</time>
      </trkpt>
      <trkpt lat="43.60595" lon="3.43413">
        <ele>178</ele>
        <time>2016-02-14T14:58:30Z</time>
      </trkpt>
      <trkpt lat="43.60595" lon="3.4342">
        <ele>177.5</ele>
        <time>2016-02-14T14:58:31Z</time>
      </trkpt>
      <trkpt lat="43.60596" lon="3.43427">
        <ele>178</ele>
        <time>2016-02-14T14:58:32Z</time>
      </trkpt>
      <trkpt lat="43.60595" lon="3.43433">
        <ele>178.5</ele>
        <time>2016-02-14T14:58:33Z</time>
      </trkpt>
      <trkpt lat="43.60595" lon="3.4344">
        <ele>178.5</ele>
        <time>2016-02-14T14:58:34Z</time>
      </trkpt>
      <trkpt lat="43.60594" lon="3.43446">
        <ele>178.5</ele>
        <time>2016-02-14T14:58:35Z</time>
      </trkpt>
      <trkpt lat="43.60595" lon="3.43453">
        <ele>178</ele>
        <time>2016-02-14T14:58:36Z</time>
      </trkpt>
      <trkpt lat="43.60594" lon="3.4346">
        <ele>178.5</ele>
        <time>2016-02-14T14:58:37Z</time>
      </trkpt>
      <trkpt lat="43.60594" lon="3.43466">
        <ele>178.5</ele>
        <time>2016-02-14T14:58:38Z</time>
      </trkpt>
      <trkpt lat="43.60594" lon="3.43472">
        <ele>179</ele>
        <time>2016-02-14T14:58:39Z</time>
      </trkpt>
      <trkpt lat="43.60596" lon="3.43477">
        <ele>178.5</ele>
        <time>2016-02-14T14:58:40Z</time>
      </trkpt>
      <trkpt lat="43.60599" lon="3.43478">
        <ele>178</ele>
        <time>2016-02-14T14:58:41Z</time>
      </trkpt>
      <trkpt lat="43.60602" lon="3.43477">
        <ele>178</ele>
        <time>2016-02-14T14:58:42Z</time>
      </trkpt>
      <trkpt lat="43.60606" lon="3.43479">
        <ele>178</ele>
        <time>2016-02-14T14:58:43Z</time>
      </trkpt>
      <trkpt lat="43.6061" lon="3.4348">
        <ele>177.5</ele>
        <time>2016-02-14T14:58:44Z</time>
      </trkpt>
      <trkpt lat="43.6062" lon="3.43482">
        <ele>177.5</ele>
        <time>2016-02-14T14:58:46Z</time>
      </trkpt>
      <trkpt lat="43.60624" lon="3.43483">
        <ele>177.5</ele>
        <time>2016-02-14T14:58:47Z</time>
      </trkpt>
      <trkpt lat="43.60634" lon="3.43484">
        <ele>178</ele>
        <time>2016-02-14T14:58:49Z</time>
      </trkpt>
      <trkpt lat="43.60638" lon="3.43486">
        <ele>177.5</ele>
        <time>2016-02-14T14:58:50Z</time>
      </trkpt>
      <trkpt lat="43.60642" lon="3.43488">
        <ele>178</ele>
        <time>2016-02-14T14:58:51Z</time>
      </trkpt>
      <trkpt lat="43.60646" lon="3.43489">
        <ele>178</ele>
        <time>2016-02-14T14:58:52Z</time>
      </trkpt>
      <trkpt lat="43.6065" lon="3.4349">
        <ele>178.5</ele>
        <time>2016-02-14T14:58:53Z</time>
      </trkpt>
      <trkpt lat="43.60655" lon="3.43491">
        <ele>177.5</ele>
        <time>2016-02-14T14:58:54Z</time>
      </trkpt>
      <trkpt lat="43.6066" lon="3.43494">
        <ele>175</ele>
        <time>2016-02-14T14:58:55Z</time>
      </trkpt>
      <trkpt lat="43.60664" lon="3.43495">
        <ele>175</ele>
        <time>2016-02-14T14:58:56Z</time>
      </trkpt>
      <trkpt lat="43.60668" lon="3.43497">
        <ele>174.5</ele>
        <time>2016-02-14T14:58:57Z</time>
      </trkpt>
      <trkpt lat="43.60673" lon="3.43499">
        <ele>174</ele>
        <time>2016-02-14T14:58:58Z</time>
      </trkpt>
      <trkpt lat="43.60677" lon="3.43501">
        <ele>174</ele>
        <time>2016-02-14T14:58:59Z</time>
      </trkpt>
      <trkpt lat="43.60681" lon="3.43502">
        <ele>173</ele>
        <time>2016-02-14T14:59:00Z</time>
      </trkpt>
      <trkpt lat="43.60684" lon="3.43505">
        <ele>174</ele>
        <time>2016-02-14T14:59:01Z</time>
      </trkpt>
      <trkpt lat="43.60687" lon="3.43507">
        <ele>175</ele>
        <time>2016-02-14T14:59:02Z</time>
      </trkpt>
      <trkpt lat="43.6069" lon="3.43511">
        <ele>173.5</ele>
        <time>2016-02-14T14:59:03Z</time>
      </trkpt>
      <trkpt lat="43.60692" lon="3.43517">
        <ele>173</ele>
        <time>2016-02-14T14:59:04Z</time>
      </trkpt>
      <trkpt lat="43.60693" lon="3.43523">
        <ele>172</ele>
        <time>2016-02-14T14:59:05Z</time>
      </trkpt>
      <trkpt lat="43.60693" lon="3.43529">
        <ele>171.5</ele>
        <time>2016-02-14T14:59:06Z</time>
      </trkpt>
      <trkpt lat="43.60693" lon="3.43536">
        <ele>172</ele>
        <time>2016-02-14T14:59:07Z</time>
      </trkpt>
      <trkpt lat="43.60694" lon="3.43542">
        <ele>172</ele>
        <time>2016-02-14T14:59:08Z</time>
      </trkpt>
      <trkpt lat="43.60698" lon="3.43546">
        <ele>170</ele>
        <time>2016-02-14T14:59:09Z</time>
      </trkpt>
      <trkpt lat="43.60703" lon="3.43548">
        <ele>168</ele>
        <time>2016-02-14T14:59:10Z</time>
      </trkpt>
      <trkpt lat="43.60707" lon="3.43549">
        <ele>167.5</ele>
        <time>2016-02-14T14:59:11Z</time>
      </trkpt>
      <trkpt lat="43.60711" lon="3.4355">
        <ele>167.5</ele>
        <time>2016-02-14T14:59:12Z</time>
      </trkpt>
      <trkpt lat="43.60716" lon="3.43551">
        <ele>168</ele>
        <time>2016-02-14T14:59:13Z</time>
      </trkpt>
      <trkpt lat="43.6072" lon="3.43552">
        <ele>168</ele>
        <time>2016-02-14T14:59:14Z</time>
      </trkpt>
      <trkpt lat="43.60724" lon="3.43553">
        <ele>169</ele>
        <time>2016-02-14T14:59:15Z</time>
      </trkpt>
      <trkpt lat="43.60728" lon="3.43554">
        <ele>169</ele>
        <time>2016-02-14T14:59:16Z</time>
      </trkpt>
      <trkpt lat="43.60732" lon="3.43555">
        <ele>169.5</ele>
        <time>2016-02-14T14:59:17Z</time>
      </trkpt>
      <trkpt lat="43.60736" lon="3.43556">
        <ele>170</ele>
        <time>2016-02-14T14:59:18Z</time>
      </trkpt>
      <trkpt lat="43.6074" lon="3.43556">
        <ele>170</ele>
        <time>2016-02-14T14:59:19Z</time>
      </trkpt>
      <trkpt lat="43.60744" lon="3.43555">
        <ele>170</ele>
        <time>2016-02-14T14:59:20Z</time>
      </trkpt>
      <trkpt lat="43.60747" lon="3.43552">
        <ele>170</ele>
        <time>2016-02-14T14:59:21Z</time>
      </trkpt>
      <trkpt lat="43.60749" lon="3.43547">
        <ele>171.5</ele>
        <time>2016-02-14T14:59:22Z</time>
      </trkpt>
      <trkpt lat="43.60752" lon="3.43544">
        <ele>171.5</ele>
        <time>2016-02-14T14:59:23Z</time>
      </trkpt>
      <trkpt lat="43.60754" lon="3.4354">
        <ele>171</ele>
        <time>2016-02-14T14:59:24Z</time>
      </trkpt>
      <trkpt lat="43.60757" lon="3.43537">
        <ele>171</ele>
        <time>2016-02-14T14:59:24Z</time>
      </trkpt>
      <trkpt lat="43.60761" lon="3.43538">
        <ele>171</ele>
        <time>2016-02-14T14:59:26Z</time>
      </trkpt>
      <trkpt lat="43.60764" lon="3.43536">
        <ele>171.5</ele>
        <time>2016-02-14T14:59:27Z</time>
      </trkpt>
      <trkpt lat="43.60768" lon="3.43537">
        <ele>170.5</ele>
        <time>2016-02-14T14:59:27Z</time>
      </trkpt>
      <trkpt lat="43.60772" lon="3.43538">
        <ele>170.5</ele>
        <time>2016-02-14T14:59:28Z</time>
      </trkpt>
      <trkpt lat="43.60776" lon="3.43539">
        <ele>170</ele>
        <time>2016-02-14T14:59:29Z</time>
      </trkpt>
      <trkpt lat="43.60779" lon="3.4354">
        <ele>170</ele>
        <time>2016-02-14T14:59:30Z</time>
      </trkpt>
      <trkpt lat="43.60782" lon="3.43539">
        <ele>169.5</ele>
        <time>2016-02-14T14:59:31Z</time>
      </trkpt>
      <trkpt lat="43.60785" lon="3.43538">
        <ele>170</ele>
        <time>2016-02-14T14:59:32Z</time>
      </trkpt>
      <trkpt lat="43.60788" lon="3.43537">
        <ele>170.5</ele>
        <time>2016-02-14T14:59:33Z</time>
      </trkpt>
      <trkpt lat="43.60791" lon="3.43537">
        <ele>171</ele>
        <time>2016-02-14T14:59:34Z</time>
      </trkpt>
      <trkpt lat="43.60794" lon="3.43538">
        <ele>171</ele>
        <time>2016-02-14T14:59:35Z</time>
      </trkpt>
      <trkpt lat="43.60797" lon="3.43538">
        <ele>170.5</ele>
        <time>2016-02-14T14:59:36Z</time>
      </trkpt>
      <trkpt lat="43.608" lon="3.43538">
        <ele>170.5</ele>
        <time>2016-02-14T14:59:37Z</time>
      </trkpt>
      <trkpt lat="43.60803" lon="3.4354">
        <ele>170.5</ele>
        <time>2016-02-14T14:59:38Z</time>
      </trkpt>
      <trkpt lat="43.60807" lon="3.4354">
        <ele>170</ele>
        <time>2016-02-14T14:59:39Z</time>
      </trkpt>
      <trkpt lat="43.6081" lon="3.4354">
        <ele>169.5</ele>
        <time>2016-02-14T14:59:40Z</time>
      </trkpt>
      <trkpt lat="43.60814" lon="3.4354">
        <ele>169</ele>
        <time>2016-02-14T14:59:41Z</time>
      </trkpt>
      <trkpt lat="43.60818" lon="3.43539">
        <ele>169</ele>
        <time>2016-02-14T14:59:42Z</time>
      </trkpt>
      <trkpt lat="43.60821" lon="3.43539">
        <ele>169</ele>
        <time>2016-02-14T14:59:43Z</time>
      </trkpt>
      <trkpt lat="43.60825" lon="3.43538">
        <ele>168.5</ele>
        <time>2016-02-14T14:59:44Z</time>
      </trkpt>
      <trkpt lat="43.60829" lon="3.43537">
        <ele>168</ele>
        <time>2016-02-14T14:59:45Z</time>
      </trkpt>
      <trkpt lat="43.60832" lon="3.43537">
        <ele>167.5</ele>
        <time>2016-02-14T14:59:47Z</time>
      </trkpt>
      <trkpt lat="43.60836" lon="3.43536">
        <ele>167.5</ele>
        <time>2016-02-14T14:59:47Z</time>
      </trkpt>
      <trkpt lat="43.60839" lon="3.43536">
        <ele>167</ele>
        <time>2016-02-14T14:59:49Z</time>
      </trkpt>
      <trkpt lat="43.60843" lon="3.43535">
        <ele>167</ele>
        <time>2016-02-14T14:59:49Z</time>
      </trkpt>
      <trkpt lat="43.60846" lon="3.43534">
        <ele>167</ele>
        <time>2016-02-14T14:59:50Z</time>
      </trkpt>
      <trkpt lat="43.6085" lon="3.43534">
        <ele>167</ele>
        <time>2016-02-14T14:59:51Z</time>
      </trkpt>
      <trkpt lat="43.60853" lon="3.43533">
        <ele>167</ele>
        <time>2016-02-14T14:59:52Z</time>
      </trkpt>
      <trkpt lat="43.60857" lon="3.43533">
        <ele>166.5</ele>
        <time>2016-02-14T14:59:54Z</time>
      </trkpt>
      <trkpt lat="43.6086" lon="3.43533">
        <ele>166.5</ele>
        <time>2016-02-14T14:59:54Z</time>
      </trkpt>
      <trkpt lat="43.60864" lon="3.43533">
        <ele>166.5</ele>
        <time>2016-02-14T14:59:55Z</time>
      </trkpt>
      <trkpt lat="43.60867" lon="3.43533">
        <ele>166.5</ele>
        <time>2016-02-14T14:59:56Z</time>
      </trkpt>
      <trkpt lat="43.6087" lon="3.43534">
        <ele>166.5</ele>
        <time>2016-02-14T14:59:57Z</time>
      </trkpt>
      <trkpt lat="43.60873" lon="3.43534">
        <ele>166.5</ele>
        <time>2016-02-14T14:59:58Z</time>
      </trkpt>
      <trkpt lat="43.60874" lon="3.43536">
        <ele>164.5</ele>
        <time>2016-02-14T14:59:59Z</time>
      </trkpt>
      <trkpt lat="43.60876" lon="3.43536">
        <ele>164</ele>
        <time>2016-02-14T15:00:00Z</time>
      </trkpt>
      <trkpt lat="43.60878" lon="3.43536">
        <ele>163.5</ele>
        <time>2016-02-14T15:00:01Z</time>
      </trkpt>
      <trkpt lat="43.60881" lon="3.43535">
        <ele>163.5</ele>
        <time>2016-02-14T15:00:02Z</time>
      </trkpt>
      <trkpt lat="43.60883" lon="3.43536">
        <ele>165</ele>
        <time>2016-02-14T15:00:03Z</time>
      </trkpt>
      <trkpt lat="43.60884" lon="3.43538">
        <ele>164.5</ele>
        <time>2016-02-14T15:00:04Z</time>
      </trkpt>
      <trkpt lat="43.60886" lon="3.4354">
        <ele>164.5</ele>
        <time>2016-02-14T15:00:05Z</time>
      </trkpt>
      <trkpt lat="43.60889" lon="3.43542">
        <ele>165</ele>
        <time>2016-02-14T15:00:06Z</time>
      </trkpt>
      <trkpt lat="43.60891" lon="3.43544">
        <ele>165</ele>
        <time>2016-02-14T15:00:07Z</time>
      </trkpt>
      <trkpt lat="43.60894" lon="3.43546">
        <ele>165</ele>
        <time>2016-02-14T15:00:08Z</time>
      </trkpt>
      <trkpt lat="43.60896" lon="3.43547">
        <ele>165.5</ele>
        <time>2016-02-14T15:00:09Z</time>
      </trkpt>
      <trkpt lat="43.60898" lon="3.43548">
        <ele>166</ele>
        <time>2016-02-14T15:00:10Z</time>
      </trkpt>
      <trkpt lat="43.60901" lon="3.43548">
        <ele>166.5</ele>
        <time>2016-02-14T15:00:11Z</time>
      </trkpt>
      <trkpt lat="43.60904" lon="3.43547">
        <ele>166.5</ele>
        <time>2016-02-14T15:00:13Z</time>
      </trkpt>
      <trkpt lat="43.60907" lon="3.43547">
        <ele>166.5</ele>
        <time>2016-02-14T15:00:13Z</time>
      </trkpt>
      <trkpt lat="43.6091" lon="3.43547">
        <ele>166.5</ele>
        <time>2016-02-14T15:00:15Z</time>
      </trkpt>
      <trkpt lat="43.60913" lon="3.43548">
        <ele>166.5</ele>
        <time>2016-02-14T15:00:15Z</time>
      </trkpt>
      <trkpt lat="43.60916" lon="3.43549">
        <ele>166.5</ele>
        <time>2016-02-14T15:00:16Z</time>
      </trkpt>
      <trkpt lat="43.60918" lon="3.43549">
        <ele>167.5</ele>
        <time>2016-02-14T15:00:17Z</time>
      </trkpt>
      <trkpt lat="43.60921" lon="3.43549">
        <ele>167.5</ele>
        <time>2016-02-14T15:00:18Z</time>
      </trkpt>
      <trkpt lat="43.60924" lon="3.4355">
        <ele>168</ele>
        <time>2016-02-14T15:00:19Z</time>
      </trkpt>
      <trkpt lat="43.60926" lon="3.4355">
        <ele>168</ele>
        <time>2016-02-14T15:00:20Z</time>
      </trkpt>
      <trkpt lat="43.60929" lon="3.4355">
        <ele>169</ele>
        <time>2016-02-14T15:00:21Z</time>
      </trkpt>
      <trkpt lat="43.60931" lon="3.43549">
        <ele>170</ele>
        <time>2016-02-14T15:00:22Z</time>
      </trkpt>
      <trkpt lat="43.60931" lon="3.4355">
        <ele>171</ele>
        <time>2016-02-14T15:00:23Z</time>
      </trkpt>
      <trkpt lat="43.60933" lon="3.43551">
        <ele>171.5</ele>
        <time>2016-02-14T15:00:24Z</time>
      </trkpt>
      <trkpt lat="43.60935" lon="3.43551">
        <ele>172.5</ele>
        <time>2016-02-14T15:00:25Z</time>
      </trkpt>
      <trkpt lat="43.60937" lon="3.43551">
        <ele>173.5</ele>
        <time>2016-02-14T15:00:26Z</time>
      </trkpt>
      <trkpt lat="43.60939" lon="3.43551">
        <ele>174</ele>
        <time>2016-02-14T15:00:27Z</time>
      </trkpt>
      <trkpt lat="43.6094" lon="3.43552">
        <ele>174</ele>
        <time>2016-02-14T15:00:28Z</time>
      </trkpt>
      <trkpt lat="43.60941" lon="3.43553">
        <ele>175</ele>
        <time>2016-02-14T15:00:29Z</time>
      </trkpt>
      <trkpt lat="43.60941" lon="3.43553">
        <ele>175</ele>
        <time>2016-02-14T15:00:30Z</time>
      </trkpt>
      <trkpt lat="43.60941" lon="3.43554">
        <ele>174.5</ele>
        <time>2016-02-14T15:00:31Z</time>
      </trkpt>
      <trkpt lat="43.60941" lon="3.43556">
        <ele>174</ele>
        <time>2016-02-14T15:00:32Z</time>
      </trkpt>
      <trkpt lat="43.60942" lon="3.43557">
        <ele>174</ele>
        <time>2016-02-14T15:00:33Z</time>
      </trkpt>
      <trkpt lat="43.60942" lon="3.43558">
        <ele>175</ele>
        <time>2016-02-14T15:00:34Z</time>
      </trkpt>
      <trkpt lat="43.60942" lon="3.43559">
        <ele>175</ele>
        <time>2016-02-14T15:00:35Z</time>
      </trkpt>
      <trkpt lat="43.60944" lon="3.4356">
        <ele>176</ele>
        <time>2016-02-14T15:00:50Z</time>
      </trkpt>
      <trkpt lat="43.60945" lon="3.4356">
        <ele>176.5</ele>
        <time>2016-02-14T15:00:53Z</time>
      </trkpt>
      <trkpt lat="43.60945" lon="3.43562">
        <ele>175</ele>
        <time>2016-02-14T15:01:02Z</time>
      </trkpt>
      <trkpt lat="43.60946" lon="3.43562">
        <ele>172.5</ele>
        <time>2016-02-14T15:01:10Z</time>
      </trkpt>
      <trkpt lat="43.60948" lon="3.43562">
        <ele>173.5</ele>
        <time>2016-02-14T15:01:15Z</time>
      </trkpt>
      <trkpt lat="43.60949" lon="3.43564">
        <ele>173.5</ele>
        <time>2016-02-14T15:01:19Z</time>
      </trkpt>
    </trkseg>
  </trk>
</gpx>